<?xml version="1.0" encoding="UTF-8" standalone="no" ?>
<gpx xmlns="http://www.topografix.com/GPX/1/1" xmlns:xsi="http://www.w3.org/2001/XMLSchema-instance" xsi:schemaLocation="http://www.topografix.com/GPX/1/1 http://www.topografix.com/GPX/1/1/gpx.xsd" version="1.1" creator="VisuGPX - https://www.visugpx.com">
  <metadata>
    <name>tHiBaLdUs : Trail aux Etoiles 2012</name>
    <desc><![CDATA[Distance = 57 kms / Dénivelé positif = 2900 m]]></desc>
  </metadata>
  <trk>
    <name><![CDATA[tHiBaLdUs : Trail aux Etoiles 2012_1]]></name>
    <trkseg>
      <trkpt lat="43.99133" lon="3.60671">
        <ele>229</ele>
        <time>2012-03-03T11:55:51Z</time>
      </trkpt>
      <trkpt lat="43.99126" lon="3.60667">
        <ele>229</ele>
        <time>2012-03-03T11:55:56Z</time>
      </trkpt>
      <trkpt lat="43.99119" lon="3.60661">
        <ele>231</ele>
        <time>2012-03-03T11:56:01Z</time>
      </trkpt>
      <trkpt lat="43.99109" lon="3.6066">
        <ele>231</ele>
        <time>2012-03-03T11:56:06Z</time>
      </trkpt>
      <trkpt lat="43.99102" lon="3.60655">
        <ele>230</ele>
        <time>2012-03-03T11:56:11Z</time>
      </trkpt>
      <trkpt lat="43.99091" lon="3.60648">
        <ele>230</ele>
        <time>2012-03-03T11:56:16Z</time>
      </trkpt>
      <trkpt lat="43.99084" lon="3.60636">
        <ele>231</ele>
        <time>2012-03-03T11:56:21Z</time>
      </trkpt>
      <trkpt lat="43.99082" lon="3.60626">
        <ele>230</ele>
        <time>2012-03-03T11:56:26Z</time>
      </trkpt>
      <trkpt lat="43.99072" lon="3.60621">
        <ele>230</ele>
        <time>2012-03-03T11:56:31Z</time>
      </trkpt>
      <trkpt lat="43.99061" lon="3.60621">
        <ele>230</ele>
        <time>2012-03-03T11:56:36Z</time>
      </trkpt>
      <trkpt lat="43.99045" lon="3.60626">
        <ele>230</ele>
        <time>2012-03-03T11:56:41Z</time>
      </trkpt>
      <trkpt lat="43.99037" lon="3.60621">
        <ele>229</ele>
        <time>2012-03-03T11:56:46Z</time>
      </trkpt>
      <trkpt lat="43.99029" lon="3.60619">
        <ele>229</ele>
        <time>2012-03-03T11:56:51Z</time>
      </trkpt>
      <trkpt lat="43.99016" lon="3.60624">
        <ele>229</ele>
        <time>2012-03-03T11:56:56Z</time>
      </trkpt>
      <trkpt lat="43.99006" lon="3.60628">
        <ele>229</ele>
        <time>2012-03-03T11:57:01Z</time>
      </trkpt>
      <trkpt lat="43.99004" lon="3.60637">
        <ele>229</ele>
        <time>2012-03-03T11:57:06Z</time>
      </trkpt>
      <trkpt lat="43.99011" lon="3.60651">
        <ele>228</ele>
        <time>2012-03-03T11:57:11Z</time>
      </trkpt>
      <trkpt lat="43.99012" lon="3.60667">
        <ele>227</ele>
        <time>2012-03-03T11:57:16Z</time>
      </trkpt>
      <trkpt lat="43.99007" lon="3.60672">
        <ele>227</ele>
        <time>2012-03-03T11:57:21Z</time>
      </trkpt>
      <trkpt lat="43.98995" lon="3.60676">
        <ele>227</ele>
        <time>2012-03-03T11:57:26Z</time>
      </trkpt>
      <trkpt lat="43.98978" lon="3.60672">
        <ele>226</ele>
        <time>2012-03-03T11:57:31Z</time>
      </trkpt>
      <trkpt lat="43.98968" lon="3.60668">
        <ele>226</ele>
        <time>2012-03-03T11:57:36Z</time>
      </trkpt>
      <trkpt lat="43.98956" lon="3.6067">
        <ele>226</ele>
        <time>2012-03-03T11:57:41Z</time>
      </trkpt>
      <trkpt lat="43.98941" lon="3.60675">
        <ele>226</ele>
        <time>2012-03-03T11:57:46Z</time>
      </trkpt>
      <trkpt lat="43.98931" lon="3.60687">
        <ele>226</ele>
        <time>2012-03-03T11:57:51Z</time>
      </trkpt>
      <trkpt lat="43.98924" lon="3.60695">
        <ele>226</ele>
        <time>2012-03-03T11:57:56Z</time>
      </trkpt>
      <trkpt lat="43.98917" lon="3.60708">
        <ele>226</ele>
        <time>2012-03-03T11:58:01Z</time>
      </trkpt>
      <trkpt lat="43.98913" lon="3.6072">
        <ele>227</ele>
        <time>2012-03-03T11:58:06Z</time>
      </trkpt>
      <trkpt lat="43.98907" lon="3.60735">
        <ele>226</ele>
        <time>2012-03-03T11:58:11Z</time>
      </trkpt>
      <trkpt lat="43.98901" lon="3.60746">
        <ele>226</ele>
        <time>2012-03-03T11:58:16Z</time>
      </trkpt>
      <trkpt lat="43.98895" lon="3.60758">
        <ele>227</ele>
        <time>2012-03-03T11:58:21Z</time>
      </trkpt>
      <trkpt lat="43.98888" lon="3.6077">
        <ele>228</ele>
        <time>2012-03-03T11:58:26Z</time>
      </trkpt>
      <trkpt lat="43.98885" lon="3.60778">
        <ele>228</ele>
        <time>2012-03-03T11:58:31Z</time>
      </trkpt>
      <trkpt lat="43.98883" lon="3.60783">
        <ele>229</ele>
        <time>2012-03-03T11:58:36Z</time>
      </trkpt>
      <trkpt lat="43.98879" lon="3.60786">
        <ele>229</ele>
        <time>2012-03-03T11:58:41Z</time>
      </trkpt>
      <trkpt lat="43.98878" lon="3.60785">
        <ele>229</ele>
        <time>2012-03-03T11:58:46Z</time>
      </trkpt>
      <trkpt lat="43.98875" lon="3.60787">
        <ele>229</ele>
        <time>2012-03-03T11:58:51Z</time>
      </trkpt>
      <trkpt lat="43.98878" lon="3.60788">
        <ele>229</ele>
        <time>2012-03-03T11:58:56Z</time>
      </trkpt>
      <trkpt lat="43.9888" lon="3.60788">
        <ele>229</ele>
        <time>2012-03-03T11:59:01Z</time>
      </trkpt>
      <trkpt lat="43.9888" lon="3.6079">
        <ele>229</ele>
        <time>2012-03-03T11:59:06Z</time>
      </trkpt>
      <trkpt lat="43.98878" lon="3.6079">
        <ele>229</ele>
        <time>2012-03-03T11:59:11Z</time>
      </trkpt>
      <trkpt lat="43.98877" lon="3.6079">
        <ele>229</ele>
        <time>2012-03-03T11:59:16Z</time>
      </trkpt>
      <trkpt lat="43.98877" lon="3.60791">
        <ele>229</ele>
        <time>2012-03-03T11:59:21Z</time>
      </trkpt>
      <trkpt lat="43.98876" lon="3.60792">
        <ele>229</ele>
        <time>2012-03-03T11:59:26Z</time>
      </trkpt>
      <trkpt lat="43.98876" lon="3.60793">
        <ele>229</ele>
        <time>2012-03-03T11:59:31Z</time>
      </trkpt>
      <trkpt lat="43.98876" lon="3.60794">
        <ele>229</ele>
        <time>2012-03-03T11:59:36Z</time>
      </trkpt>
      <trkpt lat="43.98876" lon="3.60794">
        <ele>229</ele>
        <time>2012-03-03T11:59:41Z</time>
      </trkpt>
      <trkpt lat="43.98875" lon="3.60792">
        <ele>229</ele>
        <time>2012-03-03T11:59:46Z</time>
      </trkpt>
      <trkpt lat="43.98876" lon="3.60794">
        <ele>229</ele>
        <time>2012-03-03T11:59:51Z</time>
      </trkpt>
      <trkpt lat="43.98875" lon="3.60798">
        <ele>229</ele>
        <time>2012-03-03T11:59:56Z</time>
      </trkpt>
      <trkpt lat="43.98874" lon="3.60799">
        <ele>229</ele>
        <time>2012-03-03T12:00:01Z</time>
      </trkpt>
      <trkpt lat="43.9887" lon="3.60799">
        <ele>230</ele>
        <time>2012-03-03T12:00:06Z</time>
      </trkpt>
      <trkpt lat="43.98869" lon="3.608">
        <ele>230</ele>
        <time>2012-03-03T12:00:11Z</time>
      </trkpt>
      <trkpt lat="43.98868" lon="3.60804">
        <ele>230</ele>
        <time>2012-03-03T12:00:16Z</time>
      </trkpt>
      <trkpt lat="43.98876" lon="3.60808">
        <ele>229</ele>
        <time>2012-03-03T12:00:21Z</time>
      </trkpt>
      <trkpt lat="43.98881" lon="3.60811">
        <ele>229</ele>
        <time>2012-03-03T12:00:26Z</time>
      </trkpt>
      <trkpt lat="43.98878" lon="3.60813">
        <ele>229</ele>
        <time>2012-03-03T12:00:31Z</time>
      </trkpt>
      <trkpt lat="43.9888" lon="3.60811">
        <ele>229</ele>
        <time>2012-03-03T12:00:36Z</time>
      </trkpt>
      <trkpt lat="43.98882" lon="3.60806">
        <ele>229</ele>
        <time>2012-03-03T12:00:41Z</time>
      </trkpt>
      <trkpt lat="43.98891" lon="3.608">
        <ele>228</ele>
        <time>2012-03-03T12:00:46Z</time>
      </trkpt>
      <trkpt lat="43.98893" lon="3.60801">
        <ele>228</ele>
        <time>2012-03-03T12:00:51Z</time>
      </trkpt>
      <trkpt lat="43.98898" lon="3.60807">
        <ele>228</ele>
        <time>2012-03-03T12:00:56Z</time>
      </trkpt>
      <trkpt lat="43.98907" lon="3.60822">
        <ele>226</ele>
        <time>2012-03-03T12:01:01Z</time>
      </trkpt>
      <trkpt lat="43.98916" lon="3.60838">
        <ele>224</ele>
        <time>2012-03-03T12:01:06Z</time>
      </trkpt>
      <trkpt lat="43.9892" lon="3.60852">
        <ele>222</ele>
        <time>2012-03-03T12:01:11Z</time>
      </trkpt>
      <trkpt lat="43.98926" lon="3.60867">
        <ele>222</ele>
        <time>2012-03-03T12:01:16Z</time>
      </trkpt>
      <trkpt lat="43.98936" lon="3.60877">
        <ele>221</ele>
        <time>2012-03-03T12:01:21Z</time>
      </trkpt>
      <trkpt lat="43.98942" lon="3.60884">
        <ele>221</ele>
        <time>2012-03-03T12:01:26Z</time>
      </trkpt>
      <trkpt lat="43.98951" lon="3.60894">
        <ele>221</ele>
        <time>2012-03-03T12:01:31Z</time>
      </trkpt>
      <trkpt lat="43.98961" lon="3.60906">
        <ele>221</ele>
        <time>2012-03-03T12:01:36Z</time>
      </trkpt>
      <trkpt lat="43.98971" lon="3.60919">
        <ele>220</ele>
        <time>2012-03-03T12:01:41Z</time>
      </trkpt>
      <trkpt lat="43.9898" lon="3.60933">
        <ele>220</ele>
        <time>2012-03-03T12:01:46Z</time>
      </trkpt>
      <trkpt lat="43.98988" lon="3.60948">
        <ele>220</ele>
        <time>2012-03-03T12:01:51Z</time>
      </trkpt>
      <trkpt lat="43.98997" lon="3.60965">
        <ele>220</ele>
        <time>2012-03-03T12:01:56Z</time>
      </trkpt>
      <trkpt lat="43.99004" lon="3.60979">
        <ele>219</ele>
        <time>2012-03-03T12:02:01Z</time>
      </trkpt>
      <trkpt lat="43.99015" lon="3.60976">
        <ele>219</ele>
        <time>2012-03-03T12:02:06Z</time>
      </trkpt>
      <trkpt lat="43.99025" lon="3.60983">
        <ele>219</ele>
        <time>2012-03-03T12:02:11Z</time>
      </trkpt>
      <trkpt lat="43.99036" lon="3.60992">
        <ele>219</ele>
        <time>2012-03-03T12:02:16Z</time>
      </trkpt>
      <trkpt lat="43.99042" lon="3.60999">
        <ele>220</ele>
        <time>2012-03-03T12:02:21Z</time>
      </trkpt>
      <trkpt lat="43.99052" lon="3.61008">
        <ele>220</ele>
        <time>2012-03-03T12:02:26Z</time>
      </trkpt>
      <trkpt lat="43.99062" lon="3.6102">
        <ele>220</ele>
        <time>2012-03-03T12:02:31Z</time>
      </trkpt>
      <trkpt lat="43.99073" lon="3.61034">
        <ele>220</ele>
        <time>2012-03-03T12:02:36Z</time>
      </trkpt>
      <trkpt lat="43.99083" lon="3.61048">
        <ele>220</ele>
        <time>2012-03-03T12:02:41Z</time>
      </trkpt>
      <trkpt lat="43.99091" lon="3.6106">
        <ele>220</ele>
        <time>2012-03-03T12:02:46Z</time>
      </trkpt>
      <trkpt lat="43.99102" lon="3.61079">
        <ele>220</ele>
        <time>2012-03-03T12:02:51Z</time>
      </trkpt>
      <trkpt lat="43.9911" lon="3.61093">
        <ele>219</ele>
        <time>2012-03-03T12:02:56Z</time>
      </trkpt>
      <trkpt lat="43.99116" lon="3.61106">
        <ele>219</ele>
        <time>2012-03-03T12:03:01Z</time>
      </trkpt>
      <trkpt lat="43.99124" lon="3.61119">
        <ele>219</ele>
        <time>2012-03-03T12:03:06Z</time>
      </trkpt>
      <trkpt lat="43.9913" lon="3.61132">
        <ele>219</ele>
        <time>2012-03-03T12:03:11Z</time>
      </trkpt>
      <trkpt lat="43.99136" lon="3.61147">
        <ele>219</ele>
        <time>2012-03-03T12:03:16Z</time>
      </trkpt>
      <trkpt lat="43.99142" lon="3.61161">
        <ele>218</ele>
        <time>2012-03-03T12:03:21Z</time>
      </trkpt>
      <trkpt lat="43.99147" lon="3.61177">
        <ele>218</ele>
        <time>2012-03-03T12:03:26Z</time>
      </trkpt>
      <trkpt lat="43.99153" lon="3.61191">
        <ele>217</ele>
        <time>2012-03-03T12:03:31Z</time>
      </trkpt>
      <trkpt lat="43.99158" lon="3.61207">
        <ele>217</ele>
        <time>2012-03-03T12:03:36Z</time>
      </trkpt>
      <trkpt lat="43.99166" lon="3.61224">
        <ele>217</ele>
        <time>2012-03-03T12:03:41Z</time>
      </trkpt>
      <trkpt lat="43.99173" lon="3.61239">
        <ele>219</ele>
        <time>2012-03-03T12:03:46Z</time>
      </trkpt>
      <trkpt lat="43.99176" lon="3.61254">
        <ele>219</ele>
        <time>2012-03-03T12:03:51Z</time>
      </trkpt>
      <trkpt lat="43.99181" lon="3.61265">
        <ele>220</ele>
        <time>2012-03-03T12:03:56Z</time>
      </trkpt>
      <trkpt lat="43.99188" lon="3.61284">
        <ele>221</ele>
        <time>2012-03-03T12:04:01Z</time>
      </trkpt>
      <trkpt lat="43.9919" lon="3.61298">
        <ele>221</ele>
        <time>2012-03-03T12:04:06Z</time>
      </trkpt>
      <trkpt lat="43.99192" lon="3.61314">
        <ele>221</ele>
        <time>2012-03-03T12:04:11Z</time>
      </trkpt>
      <trkpt lat="43.99193" lon="3.6133">
        <ele>220</ele>
        <time>2012-03-03T12:04:16Z</time>
      </trkpt>
      <trkpt lat="43.99191" lon="3.61344">
        <ele>220</ele>
        <time>2012-03-03T12:04:21Z</time>
      </trkpt>
      <trkpt lat="43.99186" lon="3.61362">
        <ele>220</ele>
        <time>2012-03-03T12:04:26Z</time>
      </trkpt>
      <trkpt lat="43.99181" lon="3.6138">
        <ele>219</ele>
        <time>2012-03-03T12:04:31Z</time>
      </trkpt>
      <trkpt lat="43.9917" lon="3.61394">
        <ele>219</ele>
        <time>2012-03-03T12:04:36Z</time>
      </trkpt>
      <trkpt lat="43.99158" lon="3.61403">
        <ele>217</ele>
        <time>2012-03-03T12:04:41Z</time>
      </trkpt>
      <trkpt lat="43.99151" lon="3.6141">
        <ele>217</ele>
        <time>2012-03-03T12:04:46Z</time>
      </trkpt>
      <trkpt lat="43.99151" lon="3.61423">
        <ele>217</ele>
        <time>2012-03-03T12:04:51Z</time>
      </trkpt>
      <trkpt lat="43.99152" lon="3.61434">
        <ele>217</ele>
        <time>2012-03-03T12:04:56Z</time>
      </trkpt>
      <trkpt lat="43.99155" lon="3.61449">
        <ele>217</ele>
        <time>2012-03-03T12:05:01Z</time>
      </trkpt>
      <trkpt lat="43.99161" lon="3.61465">
        <ele>217</ele>
        <time>2012-03-03T12:05:06Z</time>
      </trkpt>
      <trkpt lat="43.99163" lon="3.61483">
        <ele>217</ele>
        <time>2012-03-03T12:05:11Z</time>
      </trkpt>
      <trkpt lat="43.99164" lon="3.615">
        <ele>217</ele>
        <time>2012-03-03T12:05:16Z</time>
      </trkpt>
      <trkpt lat="43.99164" lon="3.61521">
        <ele>218</ele>
        <time>2012-03-03T12:05:21Z</time>
      </trkpt>
      <trkpt lat="43.99164" lon="3.61534">
        <ele>218</ele>
        <time>2012-03-03T12:05:26Z</time>
      </trkpt>
      <trkpt lat="43.99165" lon="3.61555">
        <ele>218</ele>
        <time>2012-03-03T12:05:31Z</time>
      </trkpt>
      <trkpt lat="43.99167" lon="3.61573">
        <ele>217</ele>
        <time>2012-03-03T12:05:36Z</time>
      </trkpt>
      <trkpt lat="43.99168" lon="3.61591">
        <ele>218</ele>
        <time>2012-03-03T12:05:41Z</time>
      </trkpt>
      <trkpt lat="43.99165" lon="3.61605">
        <ele>218</ele>
        <time>2012-03-03T12:05:46Z</time>
      </trkpt>
      <trkpt lat="43.99164" lon="3.6162">
        <ele>218</ele>
        <time>2012-03-03T12:05:51Z</time>
      </trkpt>
      <trkpt lat="43.99162" lon="3.61642">
        <ele>218</ele>
        <time>2012-03-03T12:05:56Z</time>
      </trkpt>
      <trkpt lat="43.99159" lon="3.6166">
        <ele>217</ele>
        <time>2012-03-03T12:06:01Z</time>
      </trkpt>
      <trkpt lat="43.99166" lon="3.61651">
        <ele>218</ele>
        <time>2012-03-03T12:06:06Z</time>
      </trkpt>
      <trkpt lat="43.99177" lon="3.61648">
        <ele>218</ele>
        <time>2012-03-03T12:06:11Z</time>
      </trkpt>
      <trkpt lat="43.99188" lon="3.61659">
        <ele>218</ele>
        <time>2012-03-03T12:06:16Z</time>
      </trkpt>
      <trkpt lat="43.99199" lon="3.61669">
        <ele>219</ele>
        <time>2012-03-03T12:06:21Z</time>
      </trkpt>
      <trkpt lat="43.99208" lon="3.61662">
        <ele>219</ele>
        <time>2012-03-03T12:06:26Z</time>
      </trkpt>
      <trkpt lat="43.99212" lon="3.61657">
        <ele>219</ele>
        <time>2012-03-03T12:06:31Z</time>
      </trkpt>
      <trkpt lat="43.99213" lon="3.61652">
        <ele>219</ele>
        <time>2012-03-03T12:06:36Z</time>
      </trkpt>
      <trkpt lat="43.99212" lon="3.61645">
        <ele>219</ele>
        <time>2012-03-03T12:06:41Z</time>
      </trkpt>
      <trkpt lat="43.99214" lon="3.61635">
        <ele>219</ele>
        <time>2012-03-03T12:06:46Z</time>
      </trkpt>
      <trkpt lat="43.99215" lon="3.61629">
        <ele>219</ele>
        <time>2012-03-03T12:06:51Z</time>
      </trkpt>
      <trkpt lat="43.99222" lon="3.61625">
        <ele>219</ele>
        <time>2012-03-03T12:06:56Z</time>
      </trkpt>
      <trkpt lat="43.99228" lon="3.61624">
        <ele>219</ele>
        <time>2012-03-03T12:07:01Z</time>
      </trkpt>
      <trkpt lat="43.99235" lon="3.61631">
        <ele>220</ele>
        <time>2012-03-03T12:07:06Z</time>
      </trkpt>
      <trkpt lat="43.99246" lon="3.61637">
        <ele>220</ele>
        <time>2012-03-03T12:07:11Z</time>
      </trkpt>
      <trkpt lat="43.99254" lon="3.61631">
        <ele>230</ele>
        <time>2012-03-03T12:07:16Z</time>
      </trkpt>
      <trkpt lat="43.99261" lon="3.61619">
        <ele>231</ele>
        <time>2012-03-03T12:07:21Z</time>
      </trkpt>
      <trkpt lat="43.99268" lon="3.6162">
        <ele>231</ele>
        <time>2012-03-03T12:07:26Z</time>
      </trkpt>
      <trkpt lat="43.99275" lon="3.61619">
        <ele>232</ele>
        <time>2012-03-03T12:07:31Z</time>
      </trkpt>
      <trkpt lat="43.9928" lon="3.6162">
        <ele>233</ele>
        <time>2012-03-03T12:07:36Z</time>
      </trkpt>
      <trkpt lat="43.99287" lon="3.6162">
        <ele>234</ele>
        <time>2012-03-03T12:07:41Z</time>
      </trkpt>
      <trkpt lat="43.99293" lon="3.61623">
        <ele>235</ele>
        <time>2012-03-03T12:07:46Z</time>
      </trkpt>
      <trkpt lat="43.99296" lon="3.61629">
        <ele>236</ele>
        <time>2012-03-03T12:07:51Z</time>
      </trkpt>
      <trkpt lat="43.99296" lon="3.61642">
        <ele>236</ele>
        <time>2012-03-03T12:07:56Z</time>
      </trkpt>
      <trkpt lat="43.99297" lon="3.61654">
        <ele>236</ele>
        <time>2012-03-03T12:08:01Z</time>
      </trkpt>
      <trkpt lat="43.99296" lon="3.61666">
        <ele>236</ele>
        <time>2012-03-03T12:08:06Z</time>
      </trkpt>
      <trkpt lat="43.99299" lon="3.61675">
        <ele>237</ele>
        <time>2012-03-03T12:08:11Z</time>
      </trkpt>
      <trkpt lat="43.99301" lon="3.61684">
        <ele>237</ele>
        <time>2012-03-03T12:08:16Z</time>
      </trkpt>
      <trkpt lat="43.99301" lon="3.61695">
        <ele>237</ele>
        <time>2012-03-03T12:08:21Z</time>
      </trkpt>
      <trkpt lat="43.993" lon="3.61707">
        <ele>237</ele>
        <time>2012-03-03T12:08:26Z</time>
      </trkpt>
      <trkpt lat="43.99302" lon="3.61719">
        <ele>238</ele>
        <time>2012-03-03T12:08:31Z</time>
      </trkpt>
      <trkpt lat="43.99308" lon="3.61731">
        <ele>240</ele>
        <time>2012-03-03T12:08:36Z</time>
      </trkpt>
      <trkpt lat="43.9931" lon="3.61739">
        <ele>240</ele>
        <time>2012-03-03T12:08:41Z</time>
      </trkpt>
      <trkpt lat="43.99314" lon="3.61739">
        <ele>242</ele>
        <time>2012-03-03T12:08:46Z</time>
      </trkpt>
      <trkpt lat="43.99315" lon="3.61741">
        <ele>242</ele>
        <time>2012-03-03T12:08:51Z</time>
      </trkpt>
      <trkpt lat="43.99318" lon="3.61743">
        <ele>243</ele>
        <time>2012-03-03T12:08:56Z</time>
      </trkpt>
      <trkpt lat="43.9932" lon="3.61745">
        <ele>244</ele>
        <time>2012-03-03T12:09:01Z</time>
      </trkpt>
      <trkpt lat="43.99323" lon="3.61745">
        <ele>245</ele>
        <time>2012-03-03T12:09:06Z</time>
      </trkpt>
      <trkpt lat="43.99326" lon="3.61746">
        <ele>246</ele>
        <time>2012-03-03T12:09:11Z</time>
      </trkpt>
      <trkpt lat="43.99328" lon="3.61747">
        <ele>247</ele>
        <time>2012-03-03T12:09:16Z</time>
      </trkpt>
      <trkpt lat="43.9933" lon="3.61748">
        <ele>248</ele>
        <time>2012-03-03T12:09:21Z</time>
      </trkpt>
      <trkpt lat="43.99333" lon="3.61746">
        <ele>248</ele>
        <time>2012-03-03T12:09:26Z</time>
      </trkpt>
      <trkpt lat="43.99335" lon="3.61748">
        <ele>252</ele>
        <time>2012-03-03T12:09:31Z</time>
      </trkpt>
      <trkpt lat="43.99338" lon="3.61748">
        <ele>253</ele>
        <time>2012-03-03T12:09:36Z</time>
      </trkpt>
      <trkpt lat="43.99341" lon="3.6175">
        <ele>255</ele>
        <time>2012-03-03T12:09:41Z</time>
      </trkpt>
      <trkpt lat="43.99344" lon="3.61752">
        <ele>257</ele>
        <time>2012-03-03T12:09:46Z</time>
      </trkpt>
      <trkpt lat="43.99347" lon="3.61752">
        <ele>258</ele>
        <time>2012-03-03T12:09:51Z</time>
      </trkpt>
      <trkpt lat="43.99348" lon="3.61752">
        <ele>259</ele>
        <time>2012-03-03T12:09:56Z</time>
      </trkpt>
      <trkpt lat="43.99352" lon="3.61753">
        <ele>261</ele>
        <time>2012-03-03T12:10:01Z</time>
      </trkpt>
      <trkpt lat="43.99355" lon="3.61754">
        <ele>262</ele>
        <time>2012-03-03T12:10:06Z</time>
      </trkpt>
      <trkpt lat="43.99359" lon="3.61756">
        <ele>264</ele>
        <time>2012-03-03T12:10:11Z</time>
      </trkpt>
      <trkpt lat="43.9936" lon="3.61755">
        <ele>264</ele>
        <time>2012-03-03T12:10:16Z</time>
      </trkpt>
      <trkpt lat="43.99364" lon="3.61756">
        <ele>265</ele>
        <time>2012-03-03T12:10:21Z</time>
      </trkpt>
      <trkpt lat="43.99366" lon="3.61756">
        <ele>266</ele>
        <time>2012-03-03T12:10:26Z</time>
      </trkpt>
      <trkpt lat="43.99369" lon="3.61756">
        <ele>267</ele>
        <time>2012-03-03T12:10:31Z</time>
      </trkpt>
      <trkpt lat="43.99373" lon="3.61758">
        <ele>268</ele>
        <time>2012-03-03T12:10:36Z</time>
      </trkpt>
      <trkpt lat="43.99375" lon="3.61757">
        <ele>269</ele>
        <time>2012-03-03T12:10:41Z</time>
      </trkpt>
      <trkpt lat="43.99379" lon="3.6176">
        <ele>270</ele>
        <time>2012-03-03T12:10:46Z</time>
      </trkpt>
      <trkpt lat="43.99381" lon="3.61759">
        <ele>270</ele>
        <time>2012-03-03T12:10:51Z</time>
      </trkpt>
      <trkpt lat="43.99384" lon="3.6176">
        <ele>271</ele>
        <time>2012-03-03T12:10:56Z</time>
      </trkpt>
      <trkpt lat="43.99386" lon="3.6176">
        <ele>272</ele>
        <time>2012-03-03T12:11:01Z</time>
      </trkpt>
      <trkpt lat="43.99388" lon="3.61761">
        <ele>272</ele>
        <time>2012-03-03T12:11:06Z</time>
      </trkpt>
      <trkpt lat="43.99389" lon="3.61761">
        <ele>272</ele>
        <time>2012-03-03T12:11:11Z</time>
      </trkpt>
      <trkpt lat="43.99391" lon="3.61763">
        <ele>273</ele>
        <time>2012-03-03T12:11:16Z</time>
      </trkpt>
      <trkpt lat="43.99396" lon="3.61767">
        <ele>274</ele>
        <time>2012-03-03T12:11:21Z</time>
      </trkpt>
      <trkpt lat="43.994" lon="3.61768">
        <ele>275</ele>
        <time>2012-03-03T12:11:26Z</time>
      </trkpt>
      <trkpt lat="43.99402" lon="3.61769">
        <ele>275</ele>
        <time>2012-03-03T12:11:31Z</time>
      </trkpt>
      <trkpt lat="43.99404" lon="3.6177">
        <ele>275</ele>
        <time>2012-03-03T12:11:36Z</time>
      </trkpt>
      <trkpt lat="43.99408" lon="3.61771">
        <ele>276</ele>
        <time>2012-03-03T12:11:41Z</time>
      </trkpt>
      <trkpt lat="43.99412" lon="3.6177">
        <ele>276</ele>
        <time>2012-03-03T12:11:46Z</time>
      </trkpt>
      <trkpt lat="43.9942" lon="3.61763">
        <ele>291</ele>
        <time>2012-03-03T12:11:51Z</time>
      </trkpt>
      <trkpt lat="43.99424" lon="3.61751">
        <ele>288</ele>
        <time>2012-03-03T12:11:56Z</time>
      </trkpt>
      <trkpt lat="43.99423" lon="3.61739">
        <ele>291</ele>
        <time>2012-03-03T12:12:01Z</time>
      </trkpt>
      <trkpt lat="43.9942" lon="3.61724">
        <ele>295</ele>
        <time>2012-03-03T12:12:06Z</time>
      </trkpt>
      <trkpt lat="43.99416" lon="3.61707">
        <ele>274</ele>
        <time>2012-03-03T12:12:11Z</time>
      </trkpt>
      <trkpt lat="43.99413" lon="3.61691">
        <ele>276</ele>
        <time>2012-03-03T12:12:16Z</time>
      </trkpt>
      <trkpt lat="43.9941" lon="3.61676">
        <ele>280</ele>
        <time>2012-03-03T12:12:21Z</time>
      </trkpt>
      <trkpt lat="43.99406" lon="3.6166">
        <ele>280</ele>
        <time>2012-03-03T12:12:26Z</time>
      </trkpt>
      <trkpt lat="43.994" lon="3.61647">
        <ele>276</ele>
        <time>2012-03-03T12:12:31Z</time>
      </trkpt>
      <trkpt lat="43.99397" lon="3.61629">
        <ele>274</ele>
        <time>2012-03-03T12:12:36Z</time>
      </trkpt>
      <trkpt lat="43.99398" lon="3.61615">
        <ele>275</ele>
        <time>2012-03-03T12:12:41Z</time>
      </trkpt>
      <trkpt lat="43.994" lon="3.616">
        <ele>277</ele>
        <time>2012-03-03T12:12:46Z</time>
      </trkpt>
      <trkpt lat="43.99401" lon="3.61587">
        <ele>280</ele>
        <time>2012-03-03T12:12:51Z</time>
      </trkpt>
      <trkpt lat="43.99402" lon="3.61571">
        <ele>280</ele>
        <time>2012-03-03T12:12:56Z</time>
      </trkpt>
      <trkpt lat="43.99404" lon="3.61555">
        <ele>279</ele>
        <time>2012-03-03T12:13:01Z</time>
      </trkpt>
      <trkpt lat="43.99407" lon="3.61541">
        <ele>278</ele>
        <time>2012-03-03T12:13:06Z</time>
      </trkpt>
      <trkpt lat="43.99409" lon="3.61522">
        <ele>280</ele>
        <time>2012-03-03T12:13:11Z</time>
      </trkpt>
      <trkpt lat="43.99409" lon="3.61509">
        <ele>284</ele>
        <time>2012-03-03T12:13:16Z</time>
      </trkpt>
      <trkpt lat="43.99415" lon="3.6149">
        <ele>284</ele>
        <time>2012-03-03T12:13:21Z</time>
      </trkpt>
      <trkpt lat="43.99421" lon="3.61476">
        <ele>289</ele>
        <time>2012-03-03T12:13:26Z</time>
      </trkpt>
      <trkpt lat="43.99429" lon="3.61466">
        <ele>289</ele>
        <time>2012-03-03T12:13:31Z</time>
      </trkpt>
      <trkpt lat="43.99438" lon="3.61459">
        <ele>288</ele>
        <time>2012-03-03T12:13:36Z</time>
      </trkpt>
      <trkpt lat="43.99448" lon="3.61455">
        <ele>288</ele>
        <time>2012-03-03T12:13:41Z</time>
      </trkpt>
      <trkpt lat="43.99453" lon="3.61459">
        <ele>289</ele>
        <time>2012-03-03T12:13:46Z</time>
      </trkpt>
      <trkpt lat="43.99448" lon="3.61471">
        <ele>290</ele>
        <time>2012-03-03T12:13:51Z</time>
      </trkpt>
      <trkpt lat="43.99444" lon="3.61486">
        <ele>291</ele>
        <time>2012-03-03T12:13:56Z</time>
      </trkpt>
      <trkpt lat="43.9944" lon="3.615">
        <ele>298</ele>
        <time>2012-03-03T12:14:01Z</time>
      </trkpt>
      <trkpt lat="43.99439" lon="3.61514">
        <ele>298</ele>
        <time>2012-03-03T12:14:06Z</time>
      </trkpt>
      <trkpt lat="43.99439" lon="3.61529">
        <ele>300</ele>
        <time>2012-03-03T12:14:11Z</time>
      </trkpt>
      <trkpt lat="43.99438" lon="3.61542">
        <ele>300</ele>
        <time>2012-03-03T12:14:16Z</time>
      </trkpt>
      <trkpt lat="43.99438" lon="3.61552">
        <ele>300</ele>
        <time>2012-03-03T12:14:21Z</time>
      </trkpt>
      <trkpt lat="43.99438" lon="3.61561">
        <ele>300</ele>
        <time>2012-03-03T12:14:26Z</time>
      </trkpt>
      <trkpt lat="43.99438" lon="3.6157">
        <ele>299</ele>
        <time>2012-03-03T12:14:31Z</time>
      </trkpt>
      <trkpt lat="43.99439" lon="3.61576">
        <ele>299</ele>
        <time>2012-03-03T12:14:36Z</time>
      </trkpt>
      <trkpt lat="43.99441" lon="3.61584">
        <ele>301</ele>
        <time>2012-03-03T12:14:41Z</time>
      </trkpt>
      <trkpt lat="43.99443" lon="3.61592">
        <ele>302</ele>
        <time>2012-03-03T12:14:46Z</time>
      </trkpt>
      <trkpt lat="43.99443" lon="3.61597">
        <ele>302</ele>
        <time>2012-03-03T12:14:51Z</time>
      </trkpt>
      <trkpt lat="43.99444" lon="3.61603">
        <ele>303</ele>
        <time>2012-03-03T12:14:56Z</time>
      </trkpt>
      <trkpt lat="43.99451" lon="3.61607">
        <ele>304</ele>
        <time>2012-03-03T12:15:01Z</time>
      </trkpt>
      <trkpt lat="43.99456" lon="3.61611">
        <ele>306</ele>
        <time>2012-03-03T12:15:06Z</time>
      </trkpt>
      <trkpt lat="43.99461" lon="3.61618">
        <ele>307</ele>
        <time>2012-03-03T12:15:11Z</time>
      </trkpt>
      <trkpt lat="43.99466" lon="3.61622">
        <ele>308</ele>
        <time>2012-03-03T12:15:16Z</time>
      </trkpt>
      <trkpt lat="43.99471" lon="3.61626">
        <ele>309</ele>
        <time>2012-03-03T12:15:21Z</time>
      </trkpt>
      <trkpt lat="43.99476" lon="3.61629">
        <ele>310</ele>
        <time>2012-03-03T12:15:26Z</time>
      </trkpt>
      <trkpt lat="43.9948" lon="3.61635">
        <ele>310</ele>
        <time>2012-03-03T12:15:31Z</time>
      </trkpt>
      <trkpt lat="43.99484" lon="3.61641">
        <ele>312</ele>
        <time>2012-03-03T12:15:36Z</time>
      </trkpt>
      <trkpt lat="43.99486" lon="3.61648">
        <ele>313</ele>
        <time>2012-03-03T12:15:41Z</time>
      </trkpt>
      <trkpt lat="43.9949" lon="3.61655">
        <ele>315</ele>
        <time>2012-03-03T12:15:46Z</time>
      </trkpt>
      <trkpt lat="43.99494" lon="3.61661">
        <ele>318</ele>
        <time>2012-03-03T12:15:51Z</time>
      </trkpt>
      <trkpt lat="43.99497" lon="3.61669">
        <ele>320</ele>
        <time>2012-03-03T12:15:56Z</time>
      </trkpt>
      <trkpt lat="43.995" lon="3.61676">
        <ele>317</ele>
        <time>2012-03-03T12:16:01Z</time>
      </trkpt>
      <trkpt lat="43.99504" lon="3.61687">
        <ele>332</ele>
        <time>2012-03-03T12:16:06Z</time>
      </trkpt>
      <trkpt lat="43.99507" lon="3.61695">
        <ele>333</ele>
        <time>2012-03-03T12:16:11Z</time>
      </trkpt>
      <trkpt lat="43.99511" lon="3.61702">
        <ele>334</ele>
        <time>2012-03-03T12:16:16Z</time>
      </trkpt>
      <trkpt lat="43.99515" lon="3.61709">
        <ele>335</ele>
        <time>2012-03-03T12:16:21Z</time>
      </trkpt>
      <trkpt lat="43.99519" lon="3.61715">
        <ele>335</ele>
        <time>2012-03-03T12:16:26Z</time>
      </trkpt>
      <trkpt lat="43.99523" lon="3.61721">
        <ele>336</ele>
        <time>2012-03-03T12:16:31Z</time>
      </trkpt>
      <trkpt lat="43.99527" lon="3.61728">
        <ele>336</ele>
        <time>2012-03-03T12:16:36Z</time>
      </trkpt>
      <trkpt lat="43.99531" lon="3.61736">
        <ele>337</ele>
        <time>2012-03-03T12:16:41Z</time>
      </trkpt>
      <trkpt lat="43.99534" lon="3.61743">
        <ele>337</ele>
        <time>2012-03-03T12:16:46Z</time>
      </trkpt>
      <trkpt lat="43.99536" lon="3.61752">
        <ele>335</ele>
        <time>2012-03-03T12:16:51Z</time>
      </trkpt>
      <trkpt lat="43.99538" lon="3.61763">
        <ele>335</ele>
        <time>2012-03-03T12:16:56Z</time>
      </trkpt>
      <trkpt lat="43.99539" lon="3.61772">
        <ele>335</ele>
        <time>2012-03-03T12:17:01Z</time>
      </trkpt>
      <trkpt lat="43.9954" lon="3.61782">
        <ele>335</ele>
        <time>2012-03-03T12:17:06Z</time>
      </trkpt>
      <trkpt lat="43.99541" lon="3.61792">
        <ele>335</ele>
        <time>2012-03-03T12:17:11Z</time>
      </trkpt>
      <trkpt lat="43.99541" lon="3.61799">
        <ele>335</ele>
        <time>2012-03-03T12:17:16Z</time>
      </trkpt>
      <trkpt lat="43.99543" lon="3.61808">
        <ele>334</ele>
        <time>2012-03-03T12:17:21Z</time>
      </trkpt>
      <trkpt lat="43.99548" lon="3.61814">
        <ele>335</ele>
        <time>2012-03-03T12:17:26Z</time>
      </trkpt>
      <trkpt lat="43.99552" lon="3.61816">
        <ele>336</ele>
        <time>2012-03-03T12:17:31Z</time>
      </trkpt>
      <trkpt lat="43.99559" lon="3.61816">
        <ele>336</ele>
        <time>2012-03-03T12:17:36Z</time>
      </trkpt>
      <trkpt lat="43.99565" lon="3.61814">
        <ele>337</ele>
        <time>2012-03-03T12:17:41Z</time>
      </trkpt>
      <trkpt lat="43.99571" lon="3.61811">
        <ele>338</ele>
        <time>2012-03-03T12:17:46Z</time>
      </trkpt>
      <trkpt lat="43.99577" lon="3.61808">
        <ele>339</ele>
        <time>2012-03-03T12:17:51Z</time>
      </trkpt>
      <trkpt lat="43.99583" lon="3.61805">
        <ele>339</ele>
        <time>2012-03-03T12:17:56Z</time>
      </trkpt>
      <trkpt lat="43.99589" lon="3.61802">
        <ele>349</ele>
        <time>2012-03-03T12:18:01Z</time>
      </trkpt>
      <trkpt lat="43.99594" lon="3.61799">
        <ele>350</ele>
        <time>2012-03-03T12:18:06Z</time>
      </trkpt>
      <trkpt lat="43.99598" lon="3.61798">
        <ele>351</ele>
        <time>2012-03-03T12:18:11Z</time>
      </trkpt>
      <trkpt lat="43.99603" lon="3.61797">
        <ele>351</ele>
        <time>2012-03-03T12:18:16Z</time>
      </trkpt>
      <trkpt lat="43.99607" lon="3.61796">
        <ele>351</ele>
        <time>2012-03-03T12:18:21Z</time>
      </trkpt>
      <trkpt lat="43.99613" lon="3.61792">
        <ele>352</ele>
        <time>2012-03-03T12:18:26Z</time>
      </trkpt>
      <trkpt lat="43.9962" lon="3.61789">
        <ele>353</ele>
        <time>2012-03-03T12:18:31Z</time>
      </trkpt>
      <trkpt lat="43.99627" lon="3.61788">
        <ele>353</ele>
        <time>2012-03-03T12:18:36Z</time>
      </trkpt>
      <trkpt lat="43.99635" lon="3.61786">
        <ele>354</ele>
        <time>2012-03-03T12:18:41Z</time>
      </trkpt>
      <trkpt lat="43.9964" lon="3.61783">
        <ele>355</ele>
        <time>2012-03-03T12:18:46Z</time>
      </trkpt>
      <trkpt lat="43.99645" lon="3.6178">
        <ele>356</ele>
        <time>2012-03-03T12:18:51Z</time>
      </trkpt>
      <trkpt lat="43.99651" lon="3.61778">
        <ele>358</ele>
        <time>2012-03-03T12:18:56Z</time>
      </trkpt>
      <trkpt lat="43.99656" lon="3.61773">
        <ele>360</ele>
        <time>2012-03-03T12:19:01Z</time>
      </trkpt>
      <trkpt lat="43.99662" lon="3.61772">
        <ele>361</ele>
        <time>2012-03-03T12:19:06Z</time>
      </trkpt>
      <trkpt lat="43.99669" lon="3.61768">
        <ele>362</ele>
        <time>2012-03-03T12:19:11Z</time>
      </trkpt>
      <trkpt lat="43.99677" lon="3.61763">
        <ele>363</ele>
        <time>2012-03-03T12:19:16Z</time>
      </trkpt>
      <trkpt lat="43.99682" lon="3.61757">
        <ele>363</ele>
        <time>2012-03-03T12:19:21Z</time>
      </trkpt>
      <trkpt lat="43.9969" lon="3.61751">
        <ele>361</ele>
        <time>2012-03-03T12:19:26Z</time>
      </trkpt>
      <trkpt lat="43.99694" lon="3.61748">
        <ele>377</ele>
        <time>2012-03-03T12:19:31Z</time>
      </trkpt>
      <trkpt lat="43.99699" lon="3.61745">
        <ele>378</ele>
        <time>2012-03-03T12:19:36Z</time>
      </trkpt>
      <trkpt lat="43.99702" lon="3.61739">
        <ele>378</ele>
        <time>2012-03-03T12:19:41Z</time>
      </trkpt>
      <trkpt lat="43.99709" lon="3.61735">
        <ele>378</ele>
        <time>2012-03-03T12:19:46Z</time>
      </trkpt>
      <trkpt lat="43.99716" lon="3.6173">
        <ele>378</ele>
        <time>2012-03-03T12:19:51Z</time>
      </trkpt>
      <trkpt lat="43.99719" lon="3.61729">
        <ele>378</ele>
        <time>2012-03-03T12:19:56Z</time>
      </trkpt>
      <trkpt lat="43.99723" lon="3.61728">
        <ele>378</ele>
        <time>2012-03-03T12:20:01Z</time>
      </trkpt>
      <trkpt lat="43.9973" lon="3.6172">
        <ele>379</ele>
        <time>2012-03-03T12:20:06Z</time>
      </trkpt>
      <trkpt lat="43.99739" lon="3.61712">
        <ele>380</ele>
        <time>2012-03-03T12:20:11Z</time>
      </trkpt>
      <trkpt lat="43.99745" lon="3.61708">
        <ele>381</ele>
        <time>2012-03-03T12:20:16Z</time>
      </trkpt>
      <trkpt lat="43.9975" lon="3.61706">
        <ele>382</ele>
        <time>2012-03-03T12:20:21Z</time>
      </trkpt>
      <trkpt lat="43.99757" lon="3.61701">
        <ele>382</ele>
        <time>2012-03-03T12:20:26Z</time>
      </trkpt>
      <trkpt lat="43.99761" lon="3.61699">
        <ele>383</ele>
        <time>2012-03-03T12:20:31Z</time>
      </trkpt>
      <trkpt lat="43.99767" lon="3.61692">
        <ele>384</ele>
        <time>2012-03-03T12:20:36Z</time>
      </trkpt>
      <trkpt lat="43.99771" lon="3.61688">
        <ele>385</ele>
        <time>2012-03-03T12:20:41Z</time>
      </trkpt>
      <trkpt lat="43.99775" lon="3.61686">
        <ele>385</ele>
        <time>2012-03-03T12:20:46Z</time>
      </trkpt>
      <trkpt lat="43.99784" lon="3.61679">
        <ele>385</ele>
        <time>2012-03-03T12:20:51Z</time>
      </trkpt>
      <trkpt lat="43.99789" lon="3.61678">
        <ele>385</ele>
        <time>2012-03-03T12:20:56Z</time>
      </trkpt>
      <trkpt lat="43.99796" lon="3.61675">
        <ele>385</ele>
        <time>2012-03-03T12:21:01Z</time>
      </trkpt>
      <trkpt lat="43.99803" lon="3.61673">
        <ele>385</ele>
        <time>2012-03-03T12:21:06Z</time>
      </trkpt>
      <trkpt lat="43.99808" lon="3.61673">
        <ele>386</ele>
        <time>2012-03-03T12:21:11Z</time>
      </trkpt>
      <trkpt lat="43.99817" lon="3.61671">
        <ele>388</ele>
        <time>2012-03-03T12:21:16Z</time>
      </trkpt>
      <trkpt lat="43.99825" lon="3.6167">
        <ele>390</ele>
        <time>2012-03-03T12:21:21Z</time>
      </trkpt>
      <trkpt lat="43.99832" lon="3.6167">
        <ele>393</ele>
        <time>2012-03-03T12:21:26Z</time>
      </trkpt>
      <trkpt lat="43.9984" lon="3.61664">
        <ele>398</ele>
        <time>2012-03-03T12:21:31Z</time>
      </trkpt>
      <trkpt lat="43.99848" lon="3.61659">
        <ele>402</ele>
        <time>2012-03-03T12:21:36Z</time>
      </trkpt>
      <trkpt lat="43.99855" lon="3.61656">
        <ele>403</ele>
        <time>2012-03-03T12:21:41Z</time>
      </trkpt>
      <trkpt lat="43.99864" lon="3.61651">
        <ele>405</ele>
        <time>2012-03-03T12:21:46Z</time>
      </trkpt>
      <trkpt lat="43.99874" lon="3.61646">
        <ele>406</ele>
        <time>2012-03-03T12:21:51Z</time>
      </trkpt>
      <trkpt lat="43.99882" lon="3.61639">
        <ele>406</ele>
        <time>2012-03-03T12:21:56Z</time>
      </trkpt>
      <trkpt lat="43.9989" lon="3.61638">
        <ele>406</ele>
        <time>2012-03-03T12:22:01Z</time>
      </trkpt>
      <trkpt lat="43.99901" lon="3.61634">
        <ele>406</ele>
        <time>2012-03-03T12:22:06Z</time>
      </trkpt>
      <trkpt lat="43.9991" lon="3.6163">
        <ele>407</ele>
        <time>2012-03-03T12:22:11Z</time>
      </trkpt>
      <trkpt lat="43.99919" lon="3.61624">
        <ele>407</ele>
        <time>2012-03-03T12:22:16Z</time>
      </trkpt>
      <trkpt lat="43.99926" lon="3.61616">
        <ele>409</ele>
        <time>2012-03-03T12:22:21Z</time>
      </trkpt>
      <trkpt lat="43.99935" lon="3.61611">
        <ele>410</ele>
        <time>2012-03-03T12:22:26Z</time>
      </trkpt>
      <trkpt lat="43.99943" lon="3.61608">
        <ele>410</ele>
        <time>2012-03-03T12:22:31Z</time>
      </trkpt>
      <trkpt lat="43.9995" lon="3.61606">
        <ele>410</ele>
        <time>2012-03-03T12:22:36Z</time>
      </trkpt>
      <trkpt lat="43.99958" lon="3.61605">
        <ele>410</ele>
        <time>2012-03-03T12:22:41Z</time>
      </trkpt>
      <trkpt lat="43.99967" lon="3.61603">
        <ele>410</ele>
        <time>2012-03-03T12:22:46Z</time>
      </trkpt>
      <trkpt lat="43.99975" lon="3.616">
        <ele>411</ele>
        <time>2012-03-03T12:22:51Z</time>
      </trkpt>
      <trkpt lat="43.99985" lon="3.61598">
        <ele>412</ele>
        <time>2012-03-03T12:22:56Z</time>
      </trkpt>
      <trkpt lat="43.99993" lon="3.61599">
        <ele>413</ele>
        <time>2012-03-03T12:23:01Z</time>
      </trkpt>
      <trkpt lat="44.00002" lon="3.61598">
        <ele>416</ele>
        <time>2012-03-03T12:23:06Z</time>
      </trkpt>
      <trkpt lat="44.00009" lon="3.61596">
        <ele>416</ele>
        <time>2012-03-03T12:23:11Z</time>
      </trkpt>
      <trkpt lat="44.00014" lon="3.61596">
        <ele>416</ele>
        <time>2012-03-03T12:23:16Z</time>
      </trkpt>
      <trkpt lat="44.0002" lon="3.61598">
        <ele>415</ele>
        <time>2012-03-03T12:23:21Z</time>
      </trkpt>
      <trkpt lat="44.00025" lon="3.61598">
        <ele>415</ele>
        <time>2012-03-03T12:23:26Z</time>
      </trkpt>
      <trkpt lat="44.0003" lon="3.61597">
        <ele>415</ele>
        <time>2012-03-03T12:23:31Z</time>
      </trkpt>
      <trkpt lat="44.00036" lon="3.61595">
        <ele>416</ele>
        <time>2012-03-03T12:23:36Z</time>
      </trkpt>
      <trkpt lat="44.00043" lon="3.61595">
        <ele>417</ele>
        <time>2012-03-03T12:23:41Z</time>
      </trkpt>
      <trkpt lat="44.00049" lon="3.61595">
        <ele>417</ele>
        <time>2012-03-03T12:23:46Z</time>
      </trkpt>
      <trkpt lat="44.00057" lon="3.61596">
        <ele>419</ele>
        <time>2012-03-03T12:23:51Z</time>
      </trkpt>
      <trkpt lat="44.00065" lon="3.61598">
        <ele>420</ele>
        <time>2012-03-03T12:23:56Z</time>
      </trkpt>
      <trkpt lat="44.00073" lon="3.61599">
        <ele>421</ele>
        <time>2012-03-03T12:24:01Z</time>
      </trkpt>
      <trkpt lat="44.00078" lon="3.61599">
        <ele>422</ele>
        <time>2012-03-03T12:24:06Z</time>
      </trkpt>
      <trkpt lat="44.00083" lon="3.61601">
        <ele>422</ele>
        <time>2012-03-03T12:24:11Z</time>
      </trkpt>
      <trkpt lat="44.00088" lon="3.61601">
        <ele>430</ele>
        <time>2012-03-03T12:24:16Z</time>
      </trkpt>
      <trkpt lat="44.00094" lon="3.61601">
        <ele>430</ele>
        <time>2012-03-03T12:24:21Z</time>
      </trkpt>
      <trkpt lat="44.00101" lon="3.61601">
        <ele>430</ele>
        <time>2012-03-03T12:24:26Z</time>
      </trkpt>
      <trkpt lat="44.00108" lon="3.61601">
        <ele>431</ele>
        <time>2012-03-03T12:24:31Z</time>
      </trkpt>
      <trkpt lat="44.00114" lon="3.61601">
        <ele>431</ele>
        <time>2012-03-03T12:24:36Z</time>
      </trkpt>
      <trkpt lat="44.00121" lon="3.616">
        <ele>432</ele>
        <time>2012-03-03T12:24:41Z</time>
      </trkpt>
      <trkpt lat="44.00129" lon="3.61601">
        <ele>434</ele>
        <time>2012-03-03T12:24:46Z</time>
      </trkpt>
      <trkpt lat="44.00137" lon="3.61601">
        <ele>435</ele>
        <time>2012-03-03T12:24:51Z</time>
      </trkpt>
      <trkpt lat="44.00135" lon="3.61602">
        <ele>435</ele>
        <time>2012-03-03T12:24:56Z</time>
      </trkpt>
      <trkpt lat="44.00131" lon="3.61601">
        <ele>434</ele>
        <time>2012-03-03T12:25:01Z</time>
      </trkpt>
      <trkpt lat="44.00125" lon="3.61598">
        <ele>433</ele>
        <time>2012-03-03T12:25:06Z</time>
      </trkpt>
      <trkpt lat="44.00123" lon="3.61596">
        <ele>433</ele>
        <time>2012-03-03T12:25:11Z</time>
      </trkpt>
      <trkpt lat="44.00116" lon="3.61591">
        <ele>432</ele>
        <time>2012-03-03T12:25:16Z</time>
      </trkpt>
      <trkpt lat="44.0011" lon="3.61587">
        <ele>432</ele>
        <time>2012-03-03T12:25:21Z</time>
      </trkpt>
      <trkpt lat="44.00105" lon="3.61581">
        <ele>445</ele>
        <time>2012-03-03T12:25:26Z</time>
      </trkpt>
      <trkpt lat="44.001" lon="3.61573">
        <ele>445</ele>
        <time>2012-03-03T12:25:31Z</time>
      </trkpt>
      <trkpt lat="44.00096" lon="3.61568">
        <ele>445</ele>
        <time>2012-03-03T12:25:36Z</time>
      </trkpt>
      <trkpt lat="44.0009" lon="3.6156">
        <ele>447</ele>
        <time>2012-03-03T12:25:41Z</time>
      </trkpt>
      <trkpt lat="44.00084" lon="3.61553">
        <ele>449</ele>
        <time>2012-03-03T12:25:46Z</time>
      </trkpt>
      <trkpt lat="44.00078" lon="3.61549">
        <ele>441</ele>
        <time>2012-03-03T12:25:51Z</time>
      </trkpt>
      <trkpt lat="44.00072" lon="3.61544">
        <ele>442</ele>
        <time>2012-03-03T12:25:56Z</time>
      </trkpt>
      <trkpt lat="44.00066" lon="3.61539">
        <ele>443</ele>
        <time>2012-03-03T12:26:01Z</time>
      </trkpt>
      <trkpt lat="44.00062" lon="3.61534">
        <ele>444</ele>
        <time>2012-03-03T12:26:06Z</time>
      </trkpt>
      <trkpt lat="44.00055" lon="3.61528">
        <ele>444</ele>
        <time>2012-03-03T12:26:11Z</time>
      </trkpt>
      <trkpt lat="44.00049" lon="3.61523">
        <ele>445</ele>
        <time>2012-03-03T12:26:16Z</time>
      </trkpt>
      <trkpt lat="44.00043" lon="3.61519">
        <ele>445</ele>
        <time>2012-03-03T12:26:21Z</time>
      </trkpt>
      <trkpt lat="44.00039" lon="3.61513">
        <ele>445</ele>
        <time>2012-03-03T12:26:26Z</time>
      </trkpt>
      <trkpt lat="44.00029" lon="3.61509">
        <ele>445</ele>
        <time>2012-03-03T12:26:31Z</time>
      </trkpt>
      <trkpt lat="44.00016" lon="3.61504">
        <ele>447</ele>
        <time>2012-03-03T12:26:36Z</time>
      </trkpt>
      <trkpt lat="44.00005" lon="3.615">
        <ele>454</ele>
        <time>2012-03-03T12:26:41Z</time>
      </trkpt>
      <trkpt lat="44.00001" lon="3.61496">
        <ele>453</ele>
        <time>2012-03-03T12:26:46Z</time>
      </trkpt>
      <trkpt lat="43.99996" lon="3.61494">
        <ele>453</ele>
        <time>2012-03-03T12:26:51Z</time>
      </trkpt>
      <trkpt lat="43.9999" lon="3.61493">
        <ele>454</ele>
        <time>2012-03-03T12:26:56Z</time>
      </trkpt>
      <trkpt lat="43.9998" lon="3.61493">
        <ele>455</ele>
        <time>2012-03-03T12:27:01Z</time>
      </trkpt>
      <trkpt lat="43.99969" lon="3.61491">
        <ele>456</ele>
        <time>2012-03-03T12:27:06Z</time>
      </trkpt>
      <trkpt lat="43.99961" lon="3.61492">
        <ele>456</ele>
        <time>2012-03-03T12:27:11Z</time>
      </trkpt>
      <trkpt lat="43.99951" lon="3.61492">
        <ele>457</ele>
        <time>2012-03-03T12:27:16Z</time>
      </trkpt>
      <trkpt lat="43.99942" lon="3.61494">
        <ele>457</ele>
        <time>2012-03-03T12:27:21Z</time>
      </trkpt>
      <trkpt lat="43.99933" lon="3.61493">
        <ele>456</ele>
        <time>2012-03-03T12:27:26Z</time>
      </trkpt>
      <trkpt lat="43.99923" lon="3.61495">
        <ele>456</ele>
        <time>2012-03-03T12:27:31Z</time>
      </trkpt>
      <trkpt lat="43.99914" lon="3.61498">
        <ele>455</ele>
        <time>2012-03-03T12:27:36Z</time>
      </trkpt>
      <trkpt lat="43.99906" lon="3.61499">
        <ele>453</ele>
        <time>2012-03-03T12:27:41Z</time>
      </trkpt>
      <trkpt lat="43.99895" lon="3.61494">
        <ele>452</ele>
        <time>2012-03-03T12:27:46Z</time>
      </trkpt>
      <trkpt lat="43.99898" lon="3.61486">
        <ele>452</ele>
        <time>2012-03-03T12:27:51Z</time>
      </trkpt>
      <trkpt lat="43.99903" lon="3.6148">
        <ele>453</ele>
        <time>2012-03-03T12:27:56Z</time>
      </trkpt>
      <trkpt lat="43.99909" lon="3.61477">
        <ele>453</ele>
        <time>2012-03-03T12:28:01Z</time>
      </trkpt>
      <trkpt lat="43.99914" lon="3.61471">
        <ele>453</ele>
        <time>2012-03-03T12:28:06Z</time>
      </trkpt>
      <trkpt lat="43.99922" lon="3.61464">
        <ele>458</ele>
        <time>2012-03-03T12:28:11Z</time>
      </trkpt>
      <trkpt lat="43.99929" lon="3.61457">
        <ele>458</ele>
        <time>2012-03-03T12:28:16Z</time>
      </trkpt>
      <trkpt lat="43.99939" lon="3.61453">
        <ele>458</ele>
        <time>2012-03-03T12:28:21Z</time>
      </trkpt>
      <trkpt lat="43.99947" lon="3.61448">
        <ele>459</ele>
        <time>2012-03-03T12:28:26Z</time>
      </trkpt>
      <trkpt lat="43.99955" lon="3.61444">
        <ele>459</ele>
        <time>2012-03-03T12:28:31Z</time>
      </trkpt>
      <trkpt lat="43.99964" lon="3.6144">
        <ele>460</ele>
        <time>2012-03-03T12:28:36Z</time>
      </trkpt>
      <trkpt lat="43.9997" lon="3.61435">
        <ele>460</ele>
        <time>2012-03-03T12:28:41Z</time>
      </trkpt>
      <trkpt lat="43.99979" lon="3.61431">
        <ele>461</ele>
        <time>2012-03-03T12:28:46Z</time>
      </trkpt>
      <trkpt lat="43.99988" lon="3.61425">
        <ele>463</ele>
        <time>2012-03-03T12:28:51Z</time>
      </trkpt>
      <trkpt lat="43.99997" lon="3.6142">
        <ele>465</ele>
        <time>2012-03-03T12:28:56Z</time>
      </trkpt>
      <trkpt lat="44.00005" lon="3.61416">
        <ele>467</ele>
        <time>2012-03-03T12:29:01Z</time>
      </trkpt>
      <trkpt lat="44.00011" lon="3.61413">
        <ele>468</ele>
        <time>2012-03-03T12:29:06Z</time>
      </trkpt>
      <trkpt lat="44.00017" lon="3.61412">
        <ele>468</ele>
        <time>2012-03-03T12:29:11Z</time>
      </trkpt>
      <trkpt lat="44.00025" lon="3.61411">
        <ele>469</ele>
        <time>2012-03-03T12:29:16Z</time>
      </trkpt>
      <trkpt lat="44.00031" lon="3.6141">
        <ele>469</ele>
        <time>2012-03-03T12:29:21Z</time>
      </trkpt>
      <trkpt lat="44.00037" lon="3.61409">
        <ele>470</ele>
        <time>2012-03-03T12:29:26Z</time>
      </trkpt>
      <trkpt lat="44.00042" lon="3.61408">
        <ele>470</ele>
        <time>2012-03-03T12:29:31Z</time>
      </trkpt>
      <trkpt lat="44.00046" lon="3.61407">
        <ele>471</ele>
        <time>2012-03-03T12:29:36Z</time>
      </trkpt>
      <trkpt lat="44.00051" lon="3.61404">
        <ele>471</ele>
        <time>2012-03-03T12:29:41Z</time>
      </trkpt>
      <trkpt lat="44.00057" lon="3.61401">
        <ele>472</ele>
        <time>2012-03-03T12:29:46Z</time>
      </trkpt>
      <trkpt lat="44.00062" lon="3.61398">
        <ele>472</ele>
        <time>2012-03-03T12:29:51Z</time>
      </trkpt>
      <trkpt lat="44.00068" lon="3.61396">
        <ele>473</ele>
        <time>2012-03-03T12:29:56Z</time>
      </trkpt>
      <trkpt lat="44.00075" lon="3.61393">
        <ele>473</ele>
        <time>2012-03-03T12:30:01Z</time>
      </trkpt>
      <trkpt lat="44.0008" lon="3.61392">
        <ele>473</ele>
        <time>2012-03-03T12:30:06Z</time>
      </trkpt>
      <trkpt lat="44.00086" lon="3.61391">
        <ele>483</ele>
        <time>2012-03-03T12:30:11Z</time>
      </trkpt>
      <trkpt lat="44.00092" lon="3.61389">
        <ele>483</ele>
        <time>2012-03-03T12:30:16Z</time>
      </trkpt>
      <trkpt lat="44.00098" lon="3.61388">
        <ele>483</ele>
        <time>2012-03-03T12:30:21Z</time>
      </trkpt>
      <trkpt lat="44.00104" lon="3.61388">
        <ele>484</ele>
        <time>2012-03-03T12:30:26Z</time>
      </trkpt>
      <trkpt lat="44.00109" lon="3.61388">
        <ele>484</ele>
        <time>2012-03-03T12:30:31Z</time>
      </trkpt>
      <trkpt lat="44.00115" lon="3.61387">
        <ele>485</ele>
        <time>2012-03-03T12:30:36Z</time>
      </trkpt>
      <trkpt lat="44.00121" lon="3.61386">
        <ele>486</ele>
        <time>2012-03-03T12:30:41Z</time>
      </trkpt>
      <trkpt lat="44.00127" lon="3.61385">
        <ele>486</ele>
        <time>2012-03-03T12:30:46Z</time>
      </trkpt>
      <trkpt lat="44.00134" lon="3.61385">
        <ele>487</ele>
        <time>2012-03-03T12:30:51Z</time>
      </trkpt>
      <trkpt lat="44.0014" lon="3.61385">
        <ele>488</ele>
        <time>2012-03-03T12:30:56Z</time>
      </trkpt>
      <trkpt lat="44.00147" lon="3.61385">
        <ele>489</ele>
        <time>2012-03-03T12:31:01Z</time>
      </trkpt>
      <trkpt lat="44.00154" lon="3.61386">
        <ele>489</ele>
        <time>2012-03-03T12:31:06Z</time>
      </trkpt>
      <trkpt lat="44.00159" lon="3.61388">
        <ele>490</ele>
        <time>2012-03-03T12:31:11Z</time>
      </trkpt>
      <trkpt lat="44.00164" lon="3.61388">
        <ele>490</ele>
        <time>2012-03-03T12:31:16Z</time>
      </trkpt>
      <trkpt lat="44.00169" lon="3.61389">
        <ele>502</ele>
        <time>2012-03-03T12:31:21Z</time>
      </trkpt>
      <trkpt lat="44.00175" lon="3.61393">
        <ele>502</ele>
        <time>2012-03-03T12:31:26Z</time>
      </trkpt>
      <trkpt lat="44.0018" lon="3.61397">
        <ele>502</ele>
        <time>2012-03-03T12:31:31Z</time>
      </trkpt>
      <trkpt lat="44.00187" lon="3.614">
        <ele>502</ele>
        <time>2012-03-03T12:31:36Z</time>
      </trkpt>
      <trkpt lat="44.00194" lon="3.61403">
        <ele>503</ele>
        <time>2012-03-03T12:31:41Z</time>
      </trkpt>
      <trkpt lat="44.002" lon="3.61406">
        <ele>504</ele>
        <time>2012-03-03T12:31:46Z</time>
      </trkpt>
      <trkpt lat="44.00207" lon="3.6141">
        <ele>505</ele>
        <time>2012-03-03T12:31:51Z</time>
      </trkpt>
      <trkpt lat="44.00212" lon="3.61411">
        <ele>506</ele>
        <time>2012-03-03T12:31:56Z</time>
      </trkpt>
      <trkpt lat="44.00217" lon="3.61411">
        <ele>507</ele>
        <time>2012-03-03T12:32:01Z</time>
      </trkpt>
      <trkpt lat="44.00223" lon="3.61415">
        <ele>508</ele>
        <time>2012-03-03T12:32:06Z</time>
      </trkpt>
      <trkpt lat="44.00228" lon="3.61419">
        <ele>504</ele>
        <time>2012-03-03T12:32:11Z</time>
      </trkpt>
      <trkpt lat="44.00233" lon="3.61422">
        <ele>505</ele>
        <time>2012-03-03T12:32:16Z</time>
      </trkpt>
      <trkpt lat="44.00238" lon="3.61425">
        <ele>507</ele>
        <time>2012-03-03T12:32:21Z</time>
      </trkpt>
      <trkpt lat="44.00242" lon="3.61427">
        <ele>507</ele>
        <time>2012-03-03T12:32:26Z</time>
      </trkpt>
      <trkpt lat="44.00247" lon="3.61427">
        <ele>508</ele>
        <time>2012-03-03T12:32:31Z</time>
      </trkpt>
      <trkpt lat="44.00253" lon="3.61429">
        <ele>513</ele>
        <time>2012-03-03T12:32:36Z</time>
      </trkpt>
      <trkpt lat="44.00258" lon="3.61432">
        <ele>512</ele>
        <time>2012-03-03T12:32:41Z</time>
      </trkpt>
      <trkpt lat="44.00264" lon="3.61436">
        <ele>512</ele>
        <time>2012-03-03T12:32:46Z</time>
      </trkpt>
      <trkpt lat="44.00268" lon="3.61439">
        <ele>512</ele>
        <time>2012-03-03T12:32:51Z</time>
      </trkpt>
      <trkpt lat="44.00278" lon="3.6144">
        <ele>512</ele>
        <time>2012-03-03T12:32:56Z</time>
      </trkpt>
      <trkpt lat="44.00288" lon="3.61437">
        <ele>512</ele>
        <time>2012-03-03T12:33:01Z</time>
      </trkpt>
      <trkpt lat="44.00292" lon="3.61432">
        <ele>513</ele>
        <time>2012-03-03T12:33:06Z</time>
      </trkpt>
      <trkpt lat="44.00297" lon="3.61428">
        <ele>514</ele>
        <time>2012-03-03T12:33:11Z</time>
      </trkpt>
      <trkpt lat="44.00301" lon="3.61423">
        <ele>515</ele>
        <time>2012-03-03T12:33:16Z</time>
      </trkpt>
      <trkpt lat="44.00305" lon="3.61417">
        <ele>516</ele>
        <time>2012-03-03T12:33:21Z</time>
      </trkpt>
      <trkpt lat="44.00309" lon="3.61411">
        <ele>523</ele>
        <time>2012-03-03T12:33:26Z</time>
      </trkpt>
      <trkpt lat="44.00314" lon="3.61405">
        <ele>523</ele>
        <time>2012-03-03T12:33:31Z</time>
      </trkpt>
      <trkpt lat="44.00319" lon="3.614">
        <ele>524</ele>
        <time>2012-03-03T12:33:36Z</time>
      </trkpt>
      <trkpt lat="44.00325" lon="3.61394">
        <ele>524</ele>
        <time>2012-03-03T12:33:41Z</time>
      </trkpt>
      <trkpt lat="44.00331" lon="3.6139">
        <ele>524</ele>
        <time>2012-03-03T12:33:46Z</time>
      </trkpt>
      <trkpt lat="44.00338" lon="3.61387">
        <ele>527</ele>
        <time>2012-03-03T12:33:51Z</time>
      </trkpt>
      <trkpt lat="44.00345" lon="3.61382">
        <ele>528</ele>
        <time>2012-03-03T12:33:56Z</time>
      </trkpt>
      <trkpt lat="44.00353" lon="3.61379">
        <ele>528</ele>
        <time>2012-03-03T12:34:01Z</time>
      </trkpt>
      <trkpt lat="44.00362" lon="3.6138">
        <ele>528</ele>
        <time>2012-03-03T12:34:06Z</time>
      </trkpt>
      <trkpt lat="44.0037" lon="3.61385">
        <ele>528</ele>
        <time>2012-03-03T12:34:11Z</time>
      </trkpt>
      <trkpt lat="44.00375" lon="3.61389">
        <ele>528</ele>
        <time>2012-03-03T12:34:16Z</time>
      </trkpt>
      <trkpt lat="44.00382" lon="3.61394">
        <ele>528</ele>
        <time>2012-03-03T12:34:21Z</time>
      </trkpt>
      <trkpt lat="44.00387" lon="3.614">
        <ele>529</ele>
        <time>2012-03-03T12:34:26Z</time>
      </trkpt>
      <trkpt lat="44.00392" lon="3.61407">
        <ele>529</ele>
        <time>2012-03-03T12:34:31Z</time>
      </trkpt>
      <trkpt lat="44.00397" lon="3.61413">
        <ele>530</ele>
        <time>2012-03-03T12:34:36Z</time>
      </trkpt>
      <trkpt lat="44.00402" lon="3.61419">
        <ele>529</ele>
        <time>2012-03-03T12:34:41Z</time>
      </trkpt>
      <trkpt lat="44.00407" lon="3.61426">
        <ele>530</ele>
        <time>2012-03-03T12:34:46Z</time>
      </trkpt>
      <trkpt lat="44.00412" lon="3.61433">
        <ele>529</ele>
        <time>2012-03-03T12:34:51Z</time>
      </trkpt>
      <trkpt lat="44.00419" lon="3.61437">
        <ele>536</ele>
        <time>2012-03-03T12:34:56Z</time>
      </trkpt>
      <trkpt lat="44.00431" lon="3.6144">
        <ele>537</ele>
        <time>2012-03-03T12:35:01Z</time>
      </trkpt>
      <trkpt lat="44.00441" lon="3.61445">
        <ele>538</ele>
        <time>2012-03-03T12:35:06Z</time>
      </trkpt>
      <trkpt lat="44.00451" lon="3.61449">
        <ele>538</ele>
        <time>2012-03-03T12:35:11Z</time>
      </trkpt>
      <trkpt lat="44.00461" lon="3.61451">
        <ele>539</ele>
        <time>2012-03-03T12:35:16Z</time>
      </trkpt>
      <trkpt lat="44.00472" lon="3.61448">
        <ele>540</ele>
        <time>2012-03-03T12:35:21Z</time>
      </trkpt>
      <trkpt lat="44.00483" lon="3.61446">
        <ele>540</ele>
        <time>2012-03-03T12:35:26Z</time>
      </trkpt>
      <trkpt lat="44.00492" lon="3.61443">
        <ele>540</ele>
        <time>2012-03-03T12:35:31Z</time>
      </trkpt>
      <trkpt lat="44.00501" lon="3.61438">
        <ele>547</ele>
        <time>2012-03-03T12:35:36Z</time>
      </trkpt>
      <trkpt lat="44.0051" lon="3.61436">
        <ele>547</ele>
        <time>2012-03-03T12:35:41Z</time>
      </trkpt>
      <trkpt lat="44.00517" lon="3.61434">
        <ele>548</ele>
        <time>2012-03-03T12:35:46Z</time>
      </trkpt>
      <trkpt lat="44.00525" lon="3.61436">
        <ele>549</ele>
        <time>2012-03-03T12:35:51Z</time>
      </trkpt>
      <trkpt lat="44.00529" lon="3.6144">
        <ele>550</ele>
        <time>2012-03-03T12:35:56Z</time>
      </trkpt>
      <trkpt lat="44.0053" lon="3.61448">
        <ele>551</ele>
        <time>2012-03-03T12:36:01Z</time>
      </trkpt>
      <trkpt lat="44.00529" lon="3.61456">
        <ele>552</ele>
        <time>2012-03-03T12:36:06Z</time>
      </trkpt>
      <trkpt lat="44.00528" lon="3.61464">
        <ele>552</ele>
        <time>2012-03-03T12:36:11Z</time>
      </trkpt>
      <trkpt lat="44.00526" lon="3.61472">
        <ele>553</ele>
        <time>2012-03-03T12:36:16Z</time>
      </trkpt>
      <trkpt lat="44.00523" lon="3.6148">
        <ele>553</ele>
        <time>2012-03-03T12:36:21Z</time>
      </trkpt>
      <trkpt lat="44.00522" lon="3.61489">
        <ele>553</ele>
        <time>2012-03-03T12:36:26Z</time>
      </trkpt>
      <trkpt lat="44.00521" lon="3.61498">
        <ele>553</ele>
        <time>2012-03-03T12:36:31Z</time>
      </trkpt>
      <trkpt lat="44.00521" lon="3.61505">
        <ele>557</ele>
        <time>2012-03-03T12:36:36Z</time>
      </trkpt>
      <trkpt lat="44.00521" lon="3.61516">
        <ele>558</ele>
        <time>2012-03-03T12:36:41Z</time>
      </trkpt>
      <trkpt lat="44.00522" lon="3.61524">
        <ele>559</ele>
        <time>2012-03-03T12:36:46Z</time>
      </trkpt>
      <trkpt lat="44.00524" lon="3.61532">
        <ele>560</ele>
        <time>2012-03-03T12:36:51Z</time>
      </trkpt>
      <trkpt lat="44.00524" lon="3.61539">
        <ele>560</ele>
        <time>2012-03-03T12:36:56Z</time>
      </trkpt>
      <trkpt lat="44.00527" lon="3.61546">
        <ele>561</ele>
        <time>2012-03-03T12:37:01Z</time>
      </trkpt>
      <trkpt lat="44.0053" lon="3.61553">
        <ele>561</ele>
        <time>2012-03-03T12:37:06Z</time>
      </trkpt>
      <trkpt lat="44.0053" lon="3.61564">
        <ele>561</ele>
        <time>2012-03-03T12:37:11Z</time>
      </trkpt>
      <trkpt lat="44.00532" lon="3.61574">
        <ele>561</ele>
        <time>2012-03-03T12:37:16Z</time>
      </trkpt>
      <trkpt lat="44.00533" lon="3.61583">
        <ele>561</ele>
        <time>2012-03-03T12:37:21Z</time>
      </trkpt>
      <trkpt lat="44.00536" lon="3.61595">
        <ele>563</ele>
        <time>2012-03-03T12:37:26Z</time>
      </trkpt>
      <trkpt lat="44.00541" lon="3.61604">
        <ele>564</ele>
        <time>2012-03-03T12:37:31Z</time>
      </trkpt>
      <trkpt lat="44.00547" lon="3.6161">
        <ele>565</ele>
        <time>2012-03-03T12:37:36Z</time>
      </trkpt>
      <trkpt lat="44.00553" lon="3.61622">
        <ele>565</ele>
        <time>2012-03-03T12:37:41Z</time>
      </trkpt>
      <trkpt lat="44.00557" lon="3.61633">
        <ele>565</ele>
        <time>2012-03-03T12:37:46Z</time>
      </trkpt>
      <trkpt lat="44.00564" lon="3.61648">
        <ele>567</ele>
        <time>2012-03-03T12:37:51Z</time>
      </trkpt>
      <trkpt lat="44.00574" lon="3.61662">
        <ele>570</ele>
        <time>2012-03-03T12:37:56Z</time>
      </trkpt>
      <trkpt lat="44.0058" lon="3.61673">
        <ele>569</ele>
        <time>2012-03-03T12:38:01Z</time>
      </trkpt>
      <trkpt lat="44.00587" lon="3.6169">
        <ele>573</ele>
        <time>2012-03-03T12:38:06Z</time>
      </trkpt>
      <trkpt lat="44.00595" lon="3.61708">
        <ele>572</ele>
        <time>2012-03-03T12:38:11Z</time>
      </trkpt>
      <trkpt lat="44.006" lon="3.61724">
        <ele>570</ele>
        <time>2012-03-03T12:38:16Z</time>
      </trkpt>
      <trkpt lat="44.00604" lon="3.61745">
        <ele>568</ele>
        <time>2012-03-03T12:38:21Z</time>
      </trkpt>
      <trkpt lat="44.00603" lon="3.61756">
        <ele>562</ele>
        <time>2012-03-03T12:38:26Z</time>
      </trkpt>
      <trkpt lat="44.00605" lon="3.61775">
        <ele>563</ele>
        <time>2012-03-03T12:38:31Z</time>
      </trkpt>
      <trkpt lat="44.00601" lon="3.61793">
        <ele>563</ele>
        <time>2012-03-03T12:38:36Z</time>
      </trkpt>
      <trkpt lat="44.00595" lon="3.61809">
        <ele>562</ele>
        <time>2012-03-03T12:38:41Z</time>
      </trkpt>
      <trkpt lat="44.00593" lon="3.61827">
        <ele>560</ele>
        <time>2012-03-03T12:38:46Z</time>
      </trkpt>
      <trkpt lat="44.00592" lon="3.61844">
        <ele>560</ele>
        <time>2012-03-03T12:38:51Z</time>
      </trkpt>
      <trkpt lat="44.00589" lon="3.61859">
        <ele>561</ele>
        <time>2012-03-03T12:38:56Z</time>
      </trkpt>
      <trkpt lat="44.00584" lon="3.61875">
        <ele>562</ele>
        <time>2012-03-03T12:39:01Z</time>
      </trkpt>
      <trkpt lat="44.00577" lon="3.61889">
        <ele>554</ele>
        <time>2012-03-03T12:39:06Z</time>
      </trkpt>
      <trkpt lat="44.00575" lon="3.61905">
        <ele>556</ele>
        <time>2012-03-03T12:39:11Z</time>
      </trkpt>
      <trkpt lat="44.0057" lon="3.61919">
        <ele>559</ele>
        <time>2012-03-03T12:39:16Z</time>
      </trkpt>
      <trkpt lat="44.00564" lon="3.61934">
        <ele>557</ele>
        <time>2012-03-03T12:39:21Z</time>
      </trkpt>
      <trkpt lat="44.00557" lon="3.61949">
        <ele>556</ele>
        <time>2012-03-03T12:39:26Z</time>
      </trkpt>
      <trkpt lat="44.00558" lon="3.6196">
        <ele>556</ele>
        <time>2012-03-03T12:39:31Z</time>
      </trkpt>
      <trkpt lat="44.0056" lon="3.61972">
        <ele>556</ele>
        <time>2012-03-03T12:39:36Z</time>
      </trkpt>
      <trkpt lat="44.00559" lon="3.61983">
        <ele>556</ele>
        <time>2012-03-03T12:39:41Z</time>
      </trkpt>
      <trkpt lat="44.00554" lon="3.61996">
        <ele>557</ele>
        <time>2012-03-03T12:39:46Z</time>
      </trkpt>
      <trkpt lat="44.00547" lon="3.62008">
        <ele>555</ele>
        <time>2012-03-03T12:39:51Z</time>
      </trkpt>
      <trkpt lat="44.0054" lon="3.62013">
        <ele>556</ele>
        <time>2012-03-03T12:39:56Z</time>
      </trkpt>
      <trkpt lat="44.00533" lon="3.6202">
        <ele>556</ele>
        <time>2012-03-03T12:40:01Z</time>
      </trkpt>
      <trkpt lat="44.00524" lon="3.62024">
        <ele>556</ele>
        <time>2012-03-03T12:40:06Z</time>
      </trkpt>
      <trkpt lat="44.00517" lon="3.6203">
        <ele>556</ele>
        <time>2012-03-03T12:40:11Z</time>
      </trkpt>
      <trkpt lat="44.0051" lon="3.62042">
        <ele>556</ele>
        <time>2012-03-03T12:40:16Z</time>
      </trkpt>
      <trkpt lat="44.00504" lon="3.62054">
        <ele>556</ele>
        <time>2012-03-03T12:40:21Z</time>
      </trkpt>
      <trkpt lat="44.005" lon="3.62065">
        <ele>556</ele>
        <time>2012-03-03T12:40:26Z</time>
      </trkpt>
      <trkpt lat="44.00494" lon="3.62078">
        <ele>556</ele>
        <time>2012-03-03T12:40:31Z</time>
      </trkpt>
      <trkpt lat="44.00488" lon="3.62091">
        <ele>554</ele>
        <time>2012-03-03T12:40:36Z</time>
      </trkpt>
      <trkpt lat="44.00475" lon="3.62104">
        <ele>551</ele>
        <time>2012-03-03T12:40:41Z</time>
      </trkpt>
      <trkpt lat="44.00463" lon="3.62118">
        <ele>550</ele>
        <time>2012-03-03T12:40:46Z</time>
      </trkpt>
      <trkpt lat="44.00456" lon="3.62133">
        <ele>549</ele>
        <time>2012-03-03T12:40:51Z</time>
      </trkpt>
      <trkpt lat="44.0045" lon="3.62146">
        <ele>550</ele>
        <time>2012-03-03T12:40:56Z</time>
      </trkpt>
      <trkpt lat="44.00436" lon="3.62153">
        <ele>551</ele>
        <time>2012-03-03T12:41:01Z</time>
      </trkpt>
      <trkpt lat="44.00426" lon="3.62163">
        <ele>553</ele>
        <time>2012-03-03T12:41:06Z</time>
      </trkpt>
      <trkpt lat="44.00419" lon="3.62177">
        <ele>551</ele>
        <time>2012-03-03T12:41:11Z</time>
      </trkpt>
      <trkpt lat="44.0041" lon="3.62185">
        <ele>551</ele>
        <time>2012-03-03T12:41:16Z</time>
      </trkpt>
      <trkpt lat="44.00402" lon="3.62196">
        <ele>549</ele>
        <time>2012-03-03T12:41:21Z</time>
      </trkpt>
      <trkpt lat="44.00395" lon="3.62208">
        <ele>548</ele>
        <time>2012-03-03T12:41:26Z</time>
      </trkpt>
      <trkpt lat="44.00391" lon="3.62225">
        <ele>548</ele>
        <time>2012-03-03T12:41:31Z</time>
      </trkpt>
      <trkpt lat="44.00389" lon="3.62242">
        <ele>549</ele>
        <time>2012-03-03T12:41:36Z</time>
      </trkpt>
      <trkpt lat="44.00383" lon="3.62259">
        <ele>548</ele>
        <time>2012-03-03T12:41:41Z</time>
      </trkpt>
      <trkpt lat="44.00375" lon="3.62274">
        <ele>548</ele>
        <time>2012-03-03T12:41:46Z</time>
      </trkpt>
      <trkpt lat="44.00368" lon="3.62286">
        <ele>547</ele>
        <time>2012-03-03T12:41:51Z</time>
      </trkpt>
      <trkpt lat="44.00367" lon="3.623">
        <ele>547</ele>
        <time>2012-03-03T12:41:56Z</time>
      </trkpt>
      <trkpt lat="44.00363" lon="3.62318">
        <ele>547</ele>
        <time>2012-03-03T12:42:01Z</time>
      </trkpt>
      <trkpt lat="44.00362" lon="3.6233">
        <ele>547</ele>
        <time>2012-03-03T12:42:06Z</time>
      </trkpt>
      <trkpt lat="44.00355" lon="3.62342">
        <ele>544</ele>
        <time>2012-03-03T12:42:11Z</time>
      </trkpt>
      <trkpt lat="44.00348" lon="3.62359">
        <ele>543</ele>
        <time>2012-03-03T12:42:16Z</time>
      </trkpt>
      <trkpt lat="44.00342" lon="3.62382">
        <ele>543</ele>
        <time>2012-03-03T12:42:21Z</time>
      </trkpt>
      <trkpt lat="44.00342" lon="3.62405">
        <ele>544</ele>
        <time>2012-03-03T12:42:26Z</time>
      </trkpt>
      <trkpt lat="44.00339" lon="3.62419">
        <ele>544</ele>
        <time>2012-03-03T12:42:31Z</time>
      </trkpt>
      <trkpt lat="44.0034" lon="3.62433">
        <ele>541</ele>
        <time>2012-03-03T12:42:36Z</time>
      </trkpt>
      <trkpt lat="44.00345" lon="3.62449">
        <ele>538</ele>
        <time>2012-03-03T12:42:41Z</time>
      </trkpt>
      <trkpt lat="44.0035" lon="3.62463">
        <ele>536</ele>
        <time>2012-03-03T12:42:46Z</time>
      </trkpt>
      <trkpt lat="44.00355" lon="3.62478">
        <ele>536</ele>
        <time>2012-03-03T12:42:51Z</time>
      </trkpt>
      <trkpt lat="44.00362" lon="3.62495">
        <ele>535</ele>
        <time>2012-03-03T12:42:56Z</time>
      </trkpt>
      <trkpt lat="44.00368" lon="3.62504">
        <ele>530</ele>
        <time>2012-03-03T12:43:01Z</time>
      </trkpt>
      <trkpt lat="44.00376" lon="3.62512">
        <ele>529</ele>
        <time>2012-03-03T12:43:06Z</time>
      </trkpt>
      <trkpt lat="44.00383" lon="3.62524">
        <ele>528</ele>
        <time>2012-03-03T12:43:11Z</time>
      </trkpt>
      <trkpt lat="44.00387" lon="3.62542">
        <ele>528</ele>
        <time>2012-03-03T12:43:16Z</time>
      </trkpt>
      <trkpt lat="44.00392" lon="3.62553">
        <ele>527</ele>
        <time>2012-03-03T12:43:21Z</time>
      </trkpt>
      <trkpt lat="44.004" lon="3.62568">
        <ele>527</ele>
        <time>2012-03-03T12:43:26Z</time>
      </trkpt>
      <trkpt lat="44.00402" lon="3.62578">
        <ele>527</ele>
        <time>2012-03-03T12:43:31Z</time>
      </trkpt>
      <trkpt lat="44.00408" lon="3.62587">
        <ele>524</ele>
        <time>2012-03-03T12:43:36Z</time>
      </trkpt>
      <trkpt lat="44.00411" lon="3.62598">
        <ele>522</ele>
        <time>2012-03-03T12:43:41Z</time>
      </trkpt>
      <trkpt lat="44.00411" lon="3.62616">
        <ele>519</ele>
        <time>2012-03-03T12:43:46Z</time>
      </trkpt>
      <trkpt lat="44.00414" lon="3.62632">
        <ele>517</ele>
        <time>2012-03-03T12:43:51Z</time>
      </trkpt>
      <trkpt lat="44.00419" lon="3.62645">
        <ele>517</ele>
        <time>2012-03-03T12:43:56Z</time>
      </trkpt>
      <trkpt lat="44.00426" lon="3.62659">
        <ele>517</ele>
        <time>2012-03-03T12:44:01Z</time>
      </trkpt>
      <trkpt lat="44.00431" lon="3.62671">
        <ele>515</ele>
        <time>2012-03-03T12:44:06Z</time>
      </trkpt>
      <trkpt lat="44.00437" lon="3.62687">
        <ele>513</ele>
        <time>2012-03-03T12:44:11Z</time>
      </trkpt>
      <trkpt lat="44.00441" lon="3.62704">
        <ele>511</ele>
        <time>2012-03-03T12:44:16Z</time>
      </trkpt>
      <trkpt lat="44.0044" lon="3.62719">
        <ele>511</ele>
        <time>2012-03-03T12:44:21Z</time>
      </trkpt>
      <trkpt lat="44.00445" lon="3.62732">
        <ele>510</ele>
        <time>2012-03-03T12:44:26Z</time>
      </trkpt>
      <trkpt lat="44.00447" lon="3.62746">
        <ele>510</ele>
        <time>2012-03-03T12:44:31Z</time>
      </trkpt>
      <trkpt lat="44.00451" lon="3.62758">
        <ele>506</ele>
        <time>2012-03-03T12:44:36Z</time>
      </trkpt>
      <trkpt lat="44.00458" lon="3.62777">
        <ele>506</ele>
        <time>2012-03-03T12:44:41Z</time>
      </trkpt>
      <trkpt lat="44.00455" lon="3.62794">
        <ele>505</ele>
        <time>2012-03-03T12:44:46Z</time>
      </trkpt>
      <trkpt lat="44.00456" lon="3.6281">
        <ele>504</ele>
        <time>2012-03-03T12:44:51Z</time>
      </trkpt>
      <trkpt lat="44.00461" lon="3.62824">
        <ele>504</ele>
        <time>2012-03-03T12:44:56Z</time>
      </trkpt>
      <trkpt lat="44.00463" lon="3.62844">
        <ele>503</ele>
        <time>2012-03-03T12:45:01Z</time>
      </trkpt>
      <trkpt lat="44.00463" lon="3.62858">
        <ele>504</ele>
        <time>2012-03-03T12:45:06Z</time>
      </trkpt>
      <trkpt lat="44.00463" lon="3.6287">
        <ele>504</ele>
        <time>2012-03-03T12:45:11Z</time>
      </trkpt>
      <trkpt lat="44.00463" lon="3.62882">
        <ele>504</ele>
        <time>2012-03-03T12:45:16Z</time>
      </trkpt>
      <trkpt lat="44.00462" lon="3.62894">
        <ele>505</ele>
        <time>2012-03-03T12:45:21Z</time>
      </trkpt>
      <trkpt lat="44.00465" lon="3.62899">
        <ele>505</ele>
        <time>2012-03-03T12:45:26Z</time>
      </trkpt>
      <trkpt lat="44.00468" lon="3.62908">
        <ele>506</ele>
        <time>2012-03-03T12:45:31Z</time>
      </trkpt>
      <trkpt lat="44.0047" lon="3.62918">
        <ele>508</ele>
        <time>2012-03-03T12:45:36Z</time>
      </trkpt>
      <trkpt lat="44.00473" lon="3.62927">
        <ele>508</ele>
        <time>2012-03-03T12:45:41Z</time>
      </trkpt>
      <trkpt lat="44.00475" lon="3.6294">
        <ele>508</ele>
        <time>2012-03-03T12:45:46Z</time>
      </trkpt>
      <trkpt lat="44.00477" lon="3.62953">
        <ele>508</ele>
        <time>2012-03-03T12:45:51Z</time>
      </trkpt>
      <trkpt lat="44.00479" lon="3.62968">
        <ele>509</ele>
        <time>2012-03-03T12:45:56Z</time>
      </trkpt>
      <trkpt lat="44.00481" lon="3.62987">
        <ele>511</ele>
        <time>2012-03-03T12:46:01Z</time>
      </trkpt>
      <trkpt lat="44.00482" lon="3.63003">
        <ele>511</ele>
        <time>2012-03-03T12:46:06Z</time>
      </trkpt>
      <trkpt lat="44.00486" lon="3.63018">
        <ele>509</ele>
        <time>2012-03-03T12:46:11Z</time>
      </trkpt>
      <trkpt lat="44.00489" lon="3.63036">
        <ele>508</ele>
        <time>2012-03-03T12:46:16Z</time>
      </trkpt>
      <trkpt lat="44.00493" lon="3.63049">
        <ele>508</ele>
        <time>2012-03-03T12:46:21Z</time>
      </trkpt>
      <trkpt lat="44.00492" lon="3.63065">
        <ele>509</ele>
        <time>2012-03-03T12:46:26Z</time>
      </trkpt>
      <trkpt lat="44.00491" lon="3.63081">
        <ele>511</ele>
        <time>2012-03-03T12:46:31Z</time>
      </trkpt>
      <trkpt lat="44.00492" lon="3.63097">
        <ele>507</ele>
        <time>2012-03-03T12:46:36Z</time>
      </trkpt>
      <trkpt lat="44.00489" lon="3.63113">
        <ele>503</ele>
        <time>2012-03-03T12:46:41Z</time>
      </trkpt>
      <trkpt lat="44.00492" lon="3.63129">
        <ele>502</ele>
        <time>2012-03-03T12:46:46Z</time>
      </trkpt>
      <trkpt lat="44.00494" lon="3.63149">
        <ele>503</ele>
        <time>2012-03-03T12:46:51Z</time>
      </trkpt>
      <trkpt lat="44.00493" lon="3.63166">
        <ele>506</ele>
        <time>2012-03-03T12:46:56Z</time>
      </trkpt>
      <trkpt lat="44.00491" lon="3.63183">
        <ele>501</ele>
        <time>2012-03-03T12:47:01Z</time>
      </trkpt>
      <trkpt lat="44.00489" lon="3.63199">
        <ele>498</ele>
        <time>2012-03-03T12:47:06Z</time>
      </trkpt>
      <trkpt lat="44.00489" lon="3.63212">
        <ele>497</ele>
        <time>2012-03-03T12:47:11Z</time>
      </trkpt>
      <trkpt lat="44.00486" lon="3.63229">
        <ele>497</ele>
        <time>2012-03-03T12:47:16Z</time>
      </trkpt>
      <trkpt lat="44.00483" lon="3.63243">
        <ele>498</ele>
        <time>2012-03-03T12:47:21Z</time>
      </trkpt>
      <trkpt lat="44.0048" lon="3.6326">
        <ele>497</ele>
        <time>2012-03-03T12:47:26Z</time>
      </trkpt>
      <trkpt lat="44.00477" lon="3.63274">
        <ele>496</ele>
        <time>2012-03-03T12:47:31Z</time>
      </trkpt>
      <trkpt lat="44.00476" lon="3.6329">
        <ele>496</ele>
        <time>2012-03-03T12:47:36Z</time>
      </trkpt>
      <trkpt lat="44.00474" lon="3.63305">
        <ele>496</ele>
        <time>2012-03-03T12:47:41Z</time>
      </trkpt>
      <trkpt lat="44.00474" lon="3.6332">
        <ele>496</ele>
        <time>2012-03-03T12:47:46Z</time>
      </trkpt>
      <trkpt lat="44.00469" lon="3.6333">
        <ele>496</ele>
        <time>2012-03-03T12:47:51Z</time>
      </trkpt>
      <trkpt lat="44.00467" lon="3.63346">
        <ele>495</ele>
        <time>2012-03-03T12:47:56Z</time>
      </trkpt>
      <trkpt lat="44.00466" lon="3.63359">
        <ele>495</ele>
        <time>2012-03-03T12:48:01Z</time>
      </trkpt>
      <trkpt lat="44.00464" lon="3.63373">
        <ele>495</ele>
        <time>2012-03-03T12:48:06Z</time>
      </trkpt>
      <trkpt lat="44.00464" lon="3.63388">
        <ele>494</ele>
        <time>2012-03-03T12:48:11Z</time>
      </trkpt>
      <trkpt lat="44.00463" lon="3.63404">
        <ele>494</ele>
        <time>2012-03-03T12:48:16Z</time>
      </trkpt>
      <trkpt lat="44.00464" lon="3.6342">
        <ele>491</ele>
        <time>2012-03-03T12:48:21Z</time>
      </trkpt>
      <trkpt lat="44.00464" lon="3.63435">
        <ele>491</ele>
        <time>2012-03-03T12:48:26Z</time>
      </trkpt>
      <trkpt lat="44.00462" lon="3.63451">
        <ele>491</ele>
        <time>2012-03-03T12:48:31Z</time>
      </trkpt>
      <trkpt lat="44.0046" lon="3.6347">
        <ele>490</ele>
        <time>2012-03-03T12:48:36Z</time>
      </trkpt>
      <trkpt lat="44.00459" lon="3.63486">
        <ele>489</ele>
        <time>2012-03-03T12:48:41Z</time>
      </trkpt>
      <trkpt lat="44.00461" lon="3.635">
        <ele>489</ele>
        <time>2012-03-03T12:48:46Z</time>
      </trkpt>
      <trkpt lat="44.00462" lon="3.63513">
        <ele>486</ele>
        <time>2012-03-03T12:48:51Z</time>
      </trkpt>
      <trkpt lat="44.00461" lon="3.63525">
        <ele>486</ele>
        <time>2012-03-03T12:48:56Z</time>
      </trkpt>
      <trkpt lat="44.00462" lon="3.63539">
        <ele>486</ele>
        <time>2012-03-03T12:49:01Z</time>
      </trkpt>
      <trkpt lat="44.00461" lon="3.6355">
        <ele>486</ele>
        <time>2012-03-03T12:49:06Z</time>
      </trkpt>
      <trkpt lat="44.00463" lon="3.6356">
        <ele>486</ele>
        <time>2012-03-03T12:49:11Z</time>
      </trkpt>
      <trkpt lat="44.00466" lon="3.63571">
        <ele>486</ele>
        <time>2012-03-03T12:49:16Z</time>
      </trkpt>
      <trkpt lat="44.00468" lon="3.63581">
        <ele>485</ele>
        <time>2012-03-03T12:49:21Z</time>
      </trkpt>
      <trkpt lat="44.00472" lon="3.63589">
        <ele>480</ele>
        <time>2012-03-03T12:49:26Z</time>
      </trkpt>
      <trkpt lat="44.00472" lon="3.63601">
        <ele>479</ele>
        <time>2012-03-03T12:49:31Z</time>
      </trkpt>
      <trkpt lat="44.00475" lon="3.63606">
        <ele>479</ele>
        <time>2012-03-03T12:49:36Z</time>
      </trkpt>
      <trkpt lat="44.00479" lon="3.63612">
        <ele>478</ele>
        <time>2012-03-03T12:49:41Z</time>
      </trkpt>
      <trkpt lat="44.00484" lon="3.63617">
        <ele>478</ele>
        <time>2012-03-03T12:49:46Z</time>
      </trkpt>
      <trkpt lat="44.00488" lon="3.63625">
        <ele>477</ele>
        <time>2012-03-03T12:49:51Z</time>
      </trkpt>
      <trkpt lat="44.00494" lon="3.63636">
        <ele>476</ele>
        <time>2012-03-03T12:49:56Z</time>
      </trkpt>
      <trkpt lat="44.00501" lon="3.63646">
        <ele>468</ele>
        <time>2012-03-03T12:50:01Z</time>
      </trkpt>
      <trkpt lat="44.00505" lon="3.63646">
        <ele>467</ele>
        <time>2012-03-03T12:50:06Z</time>
      </trkpt>
      <trkpt lat="44.0051" lon="3.63651">
        <ele>467</ele>
        <time>2012-03-03T12:50:11Z</time>
      </trkpt>
      <trkpt lat="44.00517" lon="3.63658">
        <ele>467</ele>
        <time>2012-03-03T12:50:16Z</time>
      </trkpt>
      <trkpt lat="44.00525" lon="3.63658">
        <ele>465</ele>
        <time>2012-03-03T12:50:21Z</time>
      </trkpt>
      <trkpt lat="44.00532" lon="3.63659">
        <ele>463</ele>
        <time>2012-03-03T12:50:26Z</time>
      </trkpt>
      <trkpt lat="44.00533" lon="3.63672">
        <ele>456</ele>
        <time>2012-03-03T12:50:31Z</time>
      </trkpt>
      <trkpt lat="44.00532" lon="3.63683">
        <ele>456</ele>
        <time>2012-03-03T12:50:36Z</time>
      </trkpt>
      <trkpt lat="44.00529" lon="3.63687">
        <ele>456</ele>
        <time>2012-03-03T12:50:41Z</time>
      </trkpt>
      <trkpt lat="44.00529" lon="3.63692">
        <ele>455</ele>
        <time>2012-03-03T12:50:46Z</time>
      </trkpt>
      <trkpt lat="44.00526" lon="3.63699">
        <ele>455</ele>
        <time>2012-03-03T12:50:51Z</time>
      </trkpt>
      <trkpt lat="44.00521" lon="3.63703">
        <ele>455</ele>
        <time>2012-03-03T12:50:56Z</time>
      </trkpt>
      <trkpt lat="44.00521" lon="3.63708">
        <ele>454</ele>
        <time>2012-03-03T12:51:01Z</time>
      </trkpt>
      <trkpt lat="44.00525" lon="3.63714">
        <ele>453</ele>
        <time>2012-03-03T12:51:06Z</time>
      </trkpt>
      <trkpt lat="44.00529" lon="3.63725">
        <ele>451</ele>
        <time>2012-03-03T12:51:11Z</time>
      </trkpt>
      <trkpt lat="44.0053" lon="3.63734">
        <ele>450</ele>
        <time>2012-03-03T12:51:16Z</time>
      </trkpt>
      <trkpt lat="44.00532" lon="3.63743">
        <ele>450</ele>
        <time>2012-03-03T12:51:21Z</time>
      </trkpt>
      <trkpt lat="44.00535" lon="3.63754">
        <ele>438</ele>
        <time>2012-03-03T12:51:26Z</time>
      </trkpt>
      <trkpt lat="44.00537" lon="3.63764">
        <ele>437</ele>
        <time>2012-03-03T12:51:31Z</time>
      </trkpt>
      <trkpt lat="44.00538" lon="3.6377">
        <ele>436</ele>
        <time>2012-03-03T12:51:36Z</time>
      </trkpt>
      <trkpt lat="44.00542" lon="3.63777">
        <ele>435</ele>
        <time>2012-03-03T12:51:41Z</time>
      </trkpt>
      <trkpt lat="44.00544" lon="3.63781">
        <ele>434</ele>
        <time>2012-03-03T12:51:46Z</time>
      </trkpt>
      <trkpt lat="44.00547" lon="3.63792">
        <ele>433</ele>
        <time>2012-03-03T12:51:51Z</time>
      </trkpt>
      <trkpt lat="44.00544" lon="3.63803">
        <ele>432</ele>
        <time>2012-03-03T12:51:56Z</time>
      </trkpt>
      <trkpt lat="44.00539" lon="3.63815">
        <ele>431</ele>
        <time>2012-03-03T12:52:01Z</time>
      </trkpt>
      <trkpt lat="44.00527" lon="3.63808">
        <ele>431</ele>
        <time>2012-03-03T12:52:06Z</time>
      </trkpt>
      <trkpt lat="44.00526" lon="3.63818">
        <ele>430</ele>
        <time>2012-03-03T12:52:11Z</time>
      </trkpt>
      <trkpt lat="44.00533" lon="3.63831">
        <ele>429</ele>
        <time>2012-03-03T12:52:16Z</time>
      </trkpt>
      <trkpt lat="44.00539" lon="3.63846">
        <ele>417</ele>
        <time>2012-03-03T12:52:21Z</time>
      </trkpt>
      <trkpt lat="44.0054" lon="3.63861">
        <ele>416</ele>
        <time>2012-03-03T12:52:26Z</time>
      </trkpt>
      <trkpt lat="44.00545" lon="3.63872">
        <ele>415</ele>
        <time>2012-03-03T12:52:31Z</time>
      </trkpt>
      <trkpt lat="44.00548" lon="3.63886">
        <ele>414</ele>
        <time>2012-03-03T12:52:36Z</time>
      </trkpt>
      <trkpt lat="44.0055" lon="3.63899">
        <ele>413</ele>
        <time>2012-03-03T12:52:41Z</time>
      </trkpt>
      <trkpt lat="44.0055" lon="3.63914">
        <ele>412</ele>
        <time>2012-03-03T12:52:46Z</time>
      </trkpt>
      <trkpt lat="44.00551" lon="3.63931">
        <ele>404</ele>
        <time>2012-03-03T12:52:51Z</time>
      </trkpt>
      <trkpt lat="44.00555" lon="3.63943">
        <ele>404</ele>
        <time>2012-03-03T12:52:56Z</time>
      </trkpt>
      <trkpt lat="44.00563" lon="3.63961">
        <ele>404</ele>
        <time>2012-03-03T12:53:01Z</time>
      </trkpt>
      <trkpt lat="44.00567" lon="3.6398">
        <ele>404</ele>
        <time>2012-03-03T12:53:06Z</time>
      </trkpt>
      <trkpt lat="44.00568" lon="3.64004">
        <ele>403</ele>
        <time>2012-03-03T12:53:11Z</time>
      </trkpt>
      <trkpt lat="44.00571" lon="3.64024">
        <ele>401</ele>
        <time>2012-03-03T12:53:16Z</time>
      </trkpt>
      <trkpt lat="44.00566" lon="3.64034">
        <ele>400</ele>
        <time>2012-03-03T12:53:21Z</time>
      </trkpt>
      <trkpt lat="44.00563" lon="3.64045">
        <ele>400</ele>
        <time>2012-03-03T12:53:26Z</time>
      </trkpt>
      <trkpt lat="44.00565" lon="3.64056">
        <ele>400</ele>
        <time>2012-03-03T12:53:31Z</time>
      </trkpt>
      <trkpt lat="44.00568" lon="3.64061">
        <ele>401</ele>
        <time>2012-03-03T12:53:36Z</time>
      </trkpt>
      <trkpt lat="44.00572" lon="3.64057">
        <ele>401</ele>
        <time>2012-03-03T12:53:41Z</time>
      </trkpt>
      <trkpt lat="44.00576" lon="3.64068">
        <ele>404</ele>
        <time>2012-03-03T12:53:46Z</time>
      </trkpt>
      <trkpt lat="44.00576" lon="3.64085">
        <ele>406</ele>
        <time>2012-03-03T12:53:51Z</time>
      </trkpt>
      <trkpt lat="44.00578" lon="3.64103">
        <ele>403</ele>
        <time>2012-03-03T12:53:56Z</time>
      </trkpt>
      <trkpt lat="44.00578" lon="3.64121">
        <ele>401</ele>
        <time>2012-03-03T12:54:01Z</time>
      </trkpt>
      <trkpt lat="44.00581" lon="3.64139">
        <ele>402</ele>
        <time>2012-03-03T12:54:06Z</time>
      </trkpt>
      <trkpt lat="44.00583" lon="3.64157">
        <ele>406</ele>
        <time>2012-03-03T12:54:11Z</time>
      </trkpt>
      <trkpt lat="44.00584" lon="3.64171">
        <ele>409</ele>
        <time>2012-03-03T12:54:16Z</time>
      </trkpt>
      <trkpt lat="44.00583" lon="3.64185">
        <ele>406</ele>
        <time>2012-03-03T12:54:21Z</time>
      </trkpt>
      <trkpt lat="44.00584" lon="3.642">
        <ele>402</ele>
        <time>2012-03-03T12:54:26Z</time>
      </trkpt>
      <trkpt lat="44.00585" lon="3.64216">
        <ele>403</ele>
        <time>2012-03-03T12:54:31Z</time>
      </trkpt>
      <trkpt lat="44.00587" lon="3.64228">
        <ele>406</ele>
        <time>2012-03-03T12:54:36Z</time>
      </trkpt>
      <trkpt lat="44.00587" lon="3.64238">
        <ele>409</ele>
        <time>2012-03-03T12:54:41Z</time>
      </trkpt>
      <trkpt lat="44.00587" lon="3.6425">
        <ele>416</ele>
        <time>2012-03-03T12:54:46Z</time>
      </trkpt>
      <trkpt lat="44.00587" lon="3.6426">
        <ele>413</ele>
        <time>2012-03-03T12:54:51Z</time>
      </trkpt>
      <trkpt lat="44.00587" lon="3.6427">
        <ele>410</ele>
        <time>2012-03-03T12:54:56Z</time>
      </trkpt>
      <trkpt lat="44.00586" lon="3.64279">
        <ele>409</ele>
        <time>2012-03-03T12:55:01Z</time>
      </trkpt>
      <trkpt lat="44.00587" lon="3.64287">
        <ele>408</ele>
        <time>2012-03-03T12:55:06Z</time>
      </trkpt>
      <trkpt lat="44.00588" lon="3.64296">
        <ele>408</ele>
        <time>2012-03-03T12:55:11Z</time>
      </trkpt>
      <trkpt lat="44.0059" lon="3.64304">
        <ele>409</ele>
        <time>2012-03-03T12:55:16Z</time>
      </trkpt>
      <trkpt lat="44.00592" lon="3.64313">
        <ele>410</ele>
        <time>2012-03-03T12:55:21Z</time>
      </trkpt>
      <trkpt lat="44.00591" lon="3.64328">
        <ele>414</ele>
        <time>2012-03-03T12:55:26Z</time>
      </trkpt>
      <trkpt lat="44.00594" lon="3.64344">
        <ele>414</ele>
        <time>2012-03-03T12:55:31Z</time>
      </trkpt>
      <trkpt lat="44.00597" lon="3.64362">
        <ele>411</ele>
        <time>2012-03-03T12:55:36Z</time>
      </trkpt>
      <trkpt lat="44.00597" lon="3.64383">
        <ele>411</ele>
        <time>2012-03-03T12:55:41Z</time>
      </trkpt>
      <trkpt lat="44.00601" lon="3.64397">
        <ele>412</ele>
        <time>2012-03-03T12:55:46Z</time>
      </trkpt>
      <trkpt lat="44.00604" lon="3.64411">
        <ele>412</ele>
        <time>2012-03-03T12:55:51Z</time>
      </trkpt>
      <trkpt lat="44.00607" lon="3.64428">
        <ele>411</ele>
        <time>2012-03-03T12:55:56Z</time>
      </trkpt>
      <trkpt lat="44.00607" lon="3.64442">
        <ele>410</ele>
        <time>2012-03-03T12:56:01Z</time>
      </trkpt>
      <trkpt lat="44.00611" lon="3.64457">
        <ele>409</ele>
        <time>2012-03-03T12:56:06Z</time>
      </trkpt>
      <trkpt lat="44.00612" lon="3.64475">
        <ele>408</ele>
        <time>2012-03-03T12:56:11Z</time>
      </trkpt>
      <trkpt lat="44.00614" lon="3.64491">
        <ele>408</ele>
        <time>2012-03-03T12:56:16Z</time>
      </trkpt>
      <trkpt lat="44.0062" lon="3.64506">
        <ele>404</ele>
        <time>2012-03-03T12:56:21Z</time>
      </trkpt>
      <trkpt lat="44.00614" lon="3.64518">
        <ele>405</ele>
        <time>2012-03-03T12:56:26Z</time>
      </trkpt>
      <trkpt lat="44.00599" lon="3.64506">
        <ele>408</ele>
        <time>2012-03-03T12:56:31Z</time>
      </trkpt>
      <trkpt lat="44.00591" lon="3.64496">
        <ele>411</ele>
        <time>2012-03-03T12:56:36Z</time>
      </trkpt>
      <trkpt lat="44.00579" lon="3.64485">
        <ele>408</ele>
        <time>2012-03-03T12:56:41Z</time>
      </trkpt>
      <trkpt lat="44.00568" lon="3.6447">
        <ele>405</ele>
        <time>2012-03-03T12:56:46Z</time>
      </trkpt>
      <trkpt lat="44.00562" lon="3.6446">
        <ele>404</ele>
        <time>2012-03-03T12:56:51Z</time>
      </trkpt>
      <trkpt lat="44.00558" lon="3.64468">
        <ele>404</ele>
        <time>2012-03-03T12:56:56Z</time>
      </trkpt>
      <trkpt lat="44.00565" lon="3.64481">
        <ele>405</ele>
        <time>2012-03-03T12:57:01Z</time>
      </trkpt>
      <trkpt lat="44.0057" lon="3.64497">
        <ele>407</ele>
        <time>2012-03-03T12:57:06Z</time>
      </trkpt>
      <trkpt lat="44.00573" lon="3.64511">
        <ele>404</ele>
        <time>2012-03-03T12:57:11Z</time>
      </trkpt>
      <trkpt lat="44.00576" lon="3.64532">
        <ele>399</ele>
        <time>2012-03-03T12:57:16Z</time>
      </trkpt>
      <trkpt lat="44.00581" lon="3.64549">
        <ele>399</ele>
        <time>2012-03-03T12:57:21Z</time>
      </trkpt>
      <trkpt lat="44.00582" lon="3.64572">
        <ele>402</ele>
        <time>2012-03-03T12:57:26Z</time>
      </trkpt>
      <trkpt lat="44.0058" lon="3.64592">
        <ele>400</ele>
        <time>2012-03-03T12:57:31Z</time>
      </trkpt>
      <trkpt lat="44.00583" lon="3.6461">
        <ele>394</ele>
        <time>2012-03-03T12:57:36Z</time>
      </trkpt>
      <trkpt lat="44.00587" lon="3.64629">
        <ele>400</ele>
        <time>2012-03-03T12:57:41Z</time>
      </trkpt>
      <trkpt lat="44.00592" lon="3.64642">
        <ele>399</ele>
        <time>2012-03-03T12:57:46Z</time>
      </trkpt>
      <trkpt lat="44.00598" lon="3.64655">
        <ele>399</ele>
        <time>2012-03-03T12:57:51Z</time>
      </trkpt>
      <trkpt lat="44.00606" lon="3.64667">
        <ele>393</ele>
        <time>2012-03-03T12:57:56Z</time>
      </trkpt>
      <trkpt lat="44.00612" lon="3.64682">
        <ele>391</ele>
        <time>2012-03-03T12:58:01Z</time>
      </trkpt>
      <trkpt lat="44.00618" lon="3.64698">
        <ele>389</ele>
        <time>2012-03-03T12:58:06Z</time>
      </trkpt>
      <trkpt lat="44.00621" lon="3.64714">
        <ele>388</ele>
        <time>2012-03-03T12:58:11Z</time>
      </trkpt>
      <trkpt lat="44.00625" lon="3.64728">
        <ele>387</ele>
        <time>2012-03-03T12:58:16Z</time>
      </trkpt>
      <trkpt lat="44.00629" lon="3.64741">
        <ele>386</ele>
        <time>2012-03-03T12:58:21Z</time>
      </trkpt>
      <trkpt lat="44.00627" lon="3.64755">
        <ele>380</ele>
        <time>2012-03-03T12:58:26Z</time>
      </trkpt>
      <trkpt lat="44.00626" lon="3.6477">
        <ele>380</ele>
        <time>2012-03-03T12:58:31Z</time>
      </trkpt>
      <trkpt lat="44.00625" lon="3.64783">
        <ele>379</ele>
        <time>2012-03-03T12:58:36Z</time>
      </trkpt>
      <trkpt lat="44.0062" lon="3.64791">
        <ele>379</ele>
        <time>2012-03-03T12:58:41Z</time>
      </trkpt>
      <trkpt lat="44.00617" lon="3.64805">
        <ele>379</ele>
        <time>2012-03-03T12:58:46Z</time>
      </trkpt>
      <trkpt lat="44.00616" lon="3.64819">
        <ele>379</ele>
        <time>2012-03-03T12:58:51Z</time>
      </trkpt>
      <trkpt lat="44.00611" lon="3.64836">
        <ele>376</ele>
        <time>2012-03-03T12:58:56Z</time>
      </trkpt>
      <trkpt lat="44.00609" lon="3.64852">
        <ele>376</ele>
        <time>2012-03-03T12:59:01Z</time>
      </trkpt>
      <trkpt lat="44.00609" lon="3.64866">
        <ele>375</ele>
        <time>2012-03-03T12:59:06Z</time>
      </trkpt>
      <trkpt lat="44.00609" lon="3.64884">
        <ele>374</ele>
        <time>2012-03-03T12:59:11Z</time>
      </trkpt>
      <trkpt lat="44.0061" lon="3.64899">
        <ele>374</ele>
        <time>2012-03-03T12:59:16Z</time>
      </trkpt>
      <trkpt lat="44.00608" lon="3.64914">
        <ele>375</ele>
        <time>2012-03-03T12:59:21Z</time>
      </trkpt>
      <trkpt lat="44.00606" lon="3.6493">
        <ele>372</ele>
        <time>2012-03-03T12:59:26Z</time>
      </trkpt>
      <trkpt lat="44.00604" lon="3.64943">
        <ele>371</ele>
        <time>2012-03-03T12:59:31Z</time>
      </trkpt>
      <trkpt lat="44.00604" lon="3.64956">
        <ele>370</ele>
        <time>2012-03-03T12:59:36Z</time>
      </trkpt>
      <trkpt lat="44.00603" lon="3.6497">
        <ele>370</ele>
        <time>2012-03-03T12:59:41Z</time>
      </trkpt>
      <trkpt lat="44.006" lon="3.64984">
        <ele>371</ele>
        <time>2012-03-03T12:59:46Z</time>
      </trkpt>
      <trkpt lat="44.00598" lon="3.64999">
        <ele>373</ele>
        <time>2012-03-03T12:59:51Z</time>
      </trkpt>
      <trkpt lat="44.00599" lon="3.65013">
        <ele>368</ele>
        <time>2012-03-03T12:59:56Z</time>
      </trkpt>
      <trkpt lat="44.00597" lon="3.65031">
        <ele>365</ele>
        <time>2012-03-03T13:00:01Z</time>
      </trkpt>
      <trkpt lat="44.00593" lon="3.65047">
        <ele>364</ele>
        <time>2012-03-03T13:00:06Z</time>
      </trkpt>
      <trkpt lat="44.00588" lon="3.65059">
        <ele>364</ele>
        <time>2012-03-03T13:00:11Z</time>
      </trkpt>
      <trkpt lat="44.00585" lon="3.65074">
        <ele>366</ele>
        <time>2012-03-03T13:00:16Z</time>
      </trkpt>
      <trkpt lat="44.00583" lon="3.65089">
        <ele>365</ele>
        <time>2012-03-03T13:00:21Z</time>
      </trkpt>
      <trkpt lat="44.00579" lon="3.651">
        <ele>359</ele>
        <time>2012-03-03T13:00:26Z</time>
      </trkpt>
      <trkpt lat="44.00578" lon="3.65114">
        <ele>355</ele>
        <time>2012-03-03T13:00:31Z</time>
      </trkpt>
      <trkpt lat="44.00574" lon="3.65126">
        <ele>352</ele>
        <time>2012-03-03T13:00:36Z</time>
      </trkpt>
      <trkpt lat="44.00568" lon="3.65139">
        <ele>351</ele>
        <time>2012-03-03T13:00:41Z</time>
      </trkpt>
      <trkpt lat="44.00565" lon="3.65148">
        <ele>350</ele>
        <time>2012-03-03T13:00:46Z</time>
      </trkpt>
      <trkpt lat="44.0056" lon="3.65162">
        <ele>350</ele>
        <time>2012-03-03T13:00:51Z</time>
      </trkpt>
      <trkpt lat="44.00557" lon="3.65183">
        <ele>344</ele>
        <time>2012-03-03T13:00:56Z</time>
      </trkpt>
      <trkpt lat="44.00554" lon="3.65198">
        <ele>343</ele>
        <time>2012-03-03T13:01:01Z</time>
      </trkpt>
      <trkpt lat="44.00554" lon="3.65215">
        <ele>342</ele>
        <time>2012-03-03T13:01:06Z</time>
      </trkpt>
      <trkpt lat="44.00553" lon="3.65231">
        <ele>341</ele>
        <time>2012-03-03T13:01:11Z</time>
      </trkpt>
      <trkpt lat="44.0055" lon="3.65243">
        <ele>341</ele>
        <time>2012-03-03T13:01:16Z</time>
      </trkpt>
      <trkpt lat="44.00546" lon="3.65256">
        <ele>336</ele>
        <time>2012-03-03T13:01:21Z</time>
      </trkpt>
      <trkpt lat="44.00546" lon="3.65272">
        <ele>336</ele>
        <time>2012-03-03T13:01:26Z</time>
      </trkpt>
      <trkpt lat="44.00545" lon="3.6528">
        <ele>336</ele>
        <time>2012-03-03T13:01:31Z</time>
      </trkpt>
      <trkpt lat="44.00549" lon="3.6528">
        <ele>336</ele>
        <time>2012-03-03T13:01:36Z</time>
      </trkpt>
      <trkpt lat="44.00554" lon="3.6527">
        <ele>336</ele>
        <time>2012-03-03T13:01:41Z</time>
      </trkpt>
      <trkpt lat="44.0056" lon="3.65264">
        <ele>336</ele>
        <time>2012-03-03T13:01:46Z</time>
      </trkpt>
      <trkpt lat="44.00566" lon="3.6525">
        <ele>337</ele>
        <time>2012-03-03T13:01:51Z</time>
      </trkpt>
      <trkpt lat="44.00568" lon="3.65243">
        <ele>340</ele>
        <time>2012-03-03T13:01:56Z</time>
      </trkpt>
      <trkpt lat="44.00572" lon="3.65233">
        <ele>341</ele>
        <time>2012-03-03T13:02:01Z</time>
      </trkpt>
      <trkpt lat="44.0057" lon="3.65221">
        <ele>342</ele>
        <time>2012-03-03T13:02:06Z</time>
      </trkpt>
      <trkpt lat="44.00574" lon="3.65214">
        <ele>342</ele>
        <time>2012-03-03T13:02:11Z</time>
      </trkpt>
      <trkpt lat="44.00577" lon="3.65204">
        <ele>343</ele>
        <time>2012-03-03T13:02:16Z</time>
      </trkpt>
      <trkpt lat="44.00583" lon="3.65195">
        <ele>345</ele>
        <time>2012-03-03T13:02:21Z</time>
      </trkpt>
      <trkpt lat="44.00587" lon="3.65186">
        <ele>337</ele>
        <time>2012-03-03T13:02:26Z</time>
      </trkpt>
      <trkpt lat="44.00594" lon="3.65177">
        <ele>339</ele>
        <time>2012-03-03T13:02:31Z</time>
      </trkpt>
      <trkpt lat="44.00602" lon="3.65167">
        <ele>337</ele>
        <time>2012-03-03T13:02:36Z</time>
      </trkpt>
      <trkpt lat="44.0061" lon="3.65155">
        <ele>344</ele>
        <time>2012-03-03T13:02:41Z</time>
      </trkpt>
      <trkpt lat="44.00618" lon="3.6515">
        <ele>343</ele>
        <time>2012-03-03T13:02:46Z</time>
      </trkpt>
      <trkpt lat="44.00627" lon="3.65139">
        <ele>342</ele>
        <time>2012-03-03T13:02:51Z</time>
      </trkpt>
      <trkpt lat="44.00634" lon="3.6513">
        <ele>342</ele>
        <time>2012-03-03T13:02:56Z</time>
      </trkpt>
      <trkpt lat="44.00637" lon="3.65121">
        <ele>342</ele>
        <time>2012-03-03T13:03:01Z</time>
      </trkpt>
      <trkpt lat="44.00644" lon="3.65112">
        <ele>343</ele>
        <time>2012-03-03T13:03:06Z</time>
      </trkpt>
      <trkpt lat="44.0065" lon="3.65103">
        <ele>343</ele>
        <time>2012-03-03T13:03:11Z</time>
      </trkpt>
      <trkpt lat="44.00662" lon="3.65095">
        <ele>342</ele>
        <time>2012-03-03T13:03:16Z</time>
      </trkpt>
      <trkpt lat="44.00672" lon="3.65085">
        <ele>336</ele>
        <time>2012-03-03T13:03:21Z</time>
      </trkpt>
      <trkpt lat="44.0068" lon="3.65081">
        <ele>336</ele>
        <time>2012-03-03T13:03:26Z</time>
      </trkpt>
      <trkpt lat="44.00692" lon="3.65081">
        <ele>332</ele>
        <time>2012-03-03T13:03:31Z</time>
      </trkpt>
      <trkpt lat="44.007" lon="3.65091">
        <ele>320</ele>
        <time>2012-03-03T13:03:36Z</time>
      </trkpt>
      <trkpt lat="44.00701" lon="3.65103">
        <ele>318</ele>
        <time>2012-03-03T13:03:41Z</time>
      </trkpt>
      <trkpt lat="44.00701" lon="3.65109">
        <ele>317</ele>
        <time>2012-03-03T13:03:46Z</time>
      </trkpt>
      <trkpt lat="44.00702" lon="3.65107">
        <ele>317</ele>
        <time>2012-03-03T13:03:51Z</time>
      </trkpt>
      <trkpt lat="44.00708" lon="3.65108">
        <ele>316</ele>
        <time>2012-03-03T13:03:56Z</time>
      </trkpt>
      <trkpt lat="44.00717" lon="3.65111">
        <ele>314</ele>
        <time>2012-03-03T13:04:01Z</time>
      </trkpt>
      <trkpt lat="44.00725" lon="3.6511">
        <ele>312</ele>
        <time>2012-03-03T13:04:06Z</time>
      </trkpt>
      <trkpt lat="44.00735" lon="3.65112">
        <ele>311</ele>
        <time>2012-03-03T13:04:11Z</time>
      </trkpt>
      <trkpt lat="44.00742" lon="3.65113">
        <ele>310</ele>
        <time>2012-03-03T13:04:16Z</time>
      </trkpt>
      <trkpt lat="44.00749" lon="3.65112">
        <ele>310</ele>
        <time>2012-03-03T13:04:21Z</time>
      </trkpt>
      <trkpt lat="44.0076" lon="3.65112">
        <ele>290</ele>
        <time>2012-03-03T13:04:26Z</time>
      </trkpt>
      <trkpt lat="44.00769" lon="3.65115">
        <ele>287</ele>
        <time>2012-03-03T13:04:31Z</time>
      </trkpt>
      <trkpt lat="44.00776" lon="3.65118">
        <ele>285</ele>
        <time>2012-03-03T13:04:36Z</time>
      </trkpt>
      <trkpt lat="44.00786" lon="3.65122">
        <ele>283</ele>
        <time>2012-03-03T13:04:41Z</time>
      </trkpt>
      <trkpt lat="44.00793" lon="3.65125">
        <ele>281</ele>
        <time>2012-03-03T13:04:46Z</time>
      </trkpt>
      <trkpt lat="44.00792" lon="3.65137">
        <ele>281</ele>
        <time>2012-03-03T13:04:51Z</time>
      </trkpt>
      <trkpt lat="44.00791" lon="3.65148">
        <ele>280</ele>
        <time>2012-03-03T13:04:56Z</time>
      </trkpt>
      <trkpt lat="44.00783" lon="3.65158">
        <ele>282</ele>
        <time>2012-03-03T13:05:01Z</time>
      </trkpt>
      <trkpt lat="44.00777" lon="3.6517">
        <ele>273</ele>
        <time>2012-03-03T13:05:06Z</time>
      </trkpt>
      <trkpt lat="44.0077" lon="3.65181">
        <ele>274</ele>
        <time>2012-03-03T13:05:11Z</time>
      </trkpt>
      <trkpt lat="44.00764" lon="3.65191">
        <ele>273</ele>
        <time>2012-03-03T13:05:16Z</time>
      </trkpt>
      <trkpt lat="44.00761" lon="3.65204">
        <ele>270</ele>
        <time>2012-03-03T13:05:21Z</time>
      </trkpt>
      <trkpt lat="44.0076" lon="3.65224">
        <ele>267</ele>
        <time>2012-03-03T13:05:26Z</time>
      </trkpt>
      <trkpt lat="44.00763" lon="3.65239">
        <ele>265</ele>
        <time>2012-03-03T13:05:31Z</time>
      </trkpt>
      <trkpt lat="44.00766" lon="3.65245">
        <ele>265</ele>
        <time>2012-03-03T13:05:36Z</time>
      </trkpt>
      <trkpt lat="44.0077" lon="3.65255">
        <ele>255</ele>
        <time>2012-03-03T13:05:41Z</time>
      </trkpt>
      <trkpt lat="44.0077" lon="3.65257">
        <ele>254</ele>
        <time>2012-03-03T13:05:46Z</time>
      </trkpt>
      <trkpt lat="44.00776" lon="3.65256">
        <ele>253</ele>
        <time>2012-03-03T13:05:51Z</time>
      </trkpt>
      <trkpt lat="44.00784" lon="3.65259">
        <ele>251</ele>
        <time>2012-03-03T13:05:56Z</time>
      </trkpt>
      <trkpt lat="44.00793" lon="3.65267">
        <ele>248</ele>
        <time>2012-03-03T13:06:01Z</time>
      </trkpt>
      <trkpt lat="44.00803" lon="3.65257">
        <ele>248</ele>
        <time>2012-03-03T13:06:06Z</time>
      </trkpt>
      <trkpt lat="44.00812" lon="3.65245">
        <ele>257</ele>
        <time>2012-03-03T13:06:11Z</time>
      </trkpt>
      <trkpt lat="44.00821" lon="3.65234">
        <ele>256</ele>
        <time>2012-03-03T13:06:16Z</time>
      </trkpt>
      <trkpt lat="44.00828" lon="3.65223">
        <ele>259</ele>
        <time>2012-03-03T13:06:21Z</time>
      </trkpt>
      <trkpt lat="44.00835" lon="3.65209">
        <ele>249</ele>
        <time>2012-03-03T13:06:26Z</time>
      </trkpt>
      <trkpt lat="44.00842" lon="3.65196">
        <ele>251</ele>
        <time>2012-03-03T13:06:31Z</time>
      </trkpt>
      <trkpt lat="44.00847" lon="3.65185">
        <ele>253</ele>
        <time>2012-03-03T13:06:36Z</time>
      </trkpt>
      <trkpt lat="44.00854" lon="3.6517">
        <ele>254</ele>
        <time>2012-03-03T13:06:41Z</time>
      </trkpt>
      <trkpt lat="44.00858" lon="3.65155">
        <ele>256</ele>
        <time>2012-03-03T13:06:46Z</time>
      </trkpt>
      <trkpt lat="44.00861" lon="3.65138">
        <ele>255</ele>
        <time>2012-03-03T13:06:51Z</time>
      </trkpt>
      <trkpt lat="44.00866" lon="3.65121">
        <ele>254</ele>
        <time>2012-03-03T13:06:56Z</time>
      </trkpt>
      <trkpt lat="44.00868" lon="3.65104">
        <ele>254</ele>
        <time>2012-03-03T13:07:01Z</time>
      </trkpt>
      <trkpt lat="44.00863" lon="3.65085">
        <ele>255</ele>
        <time>2012-03-03T13:07:06Z</time>
      </trkpt>
      <trkpt lat="44.00857" lon="3.65068">
        <ele>255</ele>
        <time>2012-03-03T13:07:11Z</time>
      </trkpt>
      <trkpt lat="44.0085" lon="3.65052">
        <ele>254</ele>
        <time>2012-03-03T13:07:16Z</time>
      </trkpt>
      <trkpt lat="44.00844" lon="3.65039">
        <ele>254</ele>
        <time>2012-03-03T13:07:21Z</time>
      </trkpt>
      <trkpt lat="44.0084" lon="3.65026">
        <ele>254</ele>
        <time>2012-03-03T13:07:26Z</time>
      </trkpt>
      <trkpt lat="44.00833" lon="3.65011">
        <ele>266</ele>
        <time>2012-03-03T13:07:31Z</time>
      </trkpt>
      <trkpt lat="44.0083" lon="3.64996">
        <ele>262</ele>
        <time>2012-03-03T13:07:36Z</time>
      </trkpt>
      <trkpt lat="44.0083" lon="3.64977">
        <ele>271</ele>
        <time>2012-03-03T13:07:41Z</time>
      </trkpt>
      <trkpt lat="44.00831" lon="3.64955">
        <ele>274</ele>
        <time>2012-03-03T13:07:46Z</time>
      </trkpt>
      <trkpt lat="44.00828" lon="3.64932">
        <ele>269</ele>
        <time>2012-03-03T13:07:51Z</time>
      </trkpt>
      <trkpt lat="44.00832" lon="3.64914">
        <ele>261</ele>
        <time>2012-03-03T13:07:56Z</time>
      </trkpt>
      <trkpt lat="44.00838" lon="3.64901">
        <ele>254</ele>
        <time>2012-03-03T13:08:01Z</time>
      </trkpt>
      <trkpt lat="44.00847" lon="3.6488">
        <ele>253</ele>
        <time>2012-03-03T13:08:06Z</time>
      </trkpt>
      <trkpt lat="44.00855" lon="3.64865">
        <ele>253</ele>
        <time>2012-03-03T13:08:11Z</time>
      </trkpt>
      <trkpt lat="44.00864" lon="3.6485">
        <ele>253</ele>
        <time>2012-03-03T13:08:16Z</time>
      </trkpt>
      <trkpt lat="44.00871" lon="3.64839">
        <ele>252</ele>
        <time>2012-03-03T13:08:21Z</time>
      </trkpt>
      <trkpt lat="44.00879" lon="3.64827">
        <ele>253</ele>
        <time>2012-03-03T13:08:26Z</time>
      </trkpt>
      <trkpt lat="44.0089" lon="3.64815">
        <ele>251</ele>
        <time>2012-03-03T13:08:31Z</time>
      </trkpt>
      <trkpt lat="44.00897" lon="3.64801">
        <ele>252</ele>
        <time>2012-03-03T13:08:36Z</time>
      </trkpt>
      <trkpt lat="44.00909" lon="3.64799">
        <ele>251</ele>
        <time>2012-03-03T13:08:41Z</time>
      </trkpt>
      <trkpt lat="44.0092" lon="3.64802">
        <ele>245</ele>
        <time>2012-03-03T13:08:46Z</time>
      </trkpt>
      <trkpt lat="44.00938" lon="3.6479">
        <ele>246</ele>
        <time>2012-03-03T13:08:51Z</time>
      </trkpt>
      <trkpt lat="44.00952" lon="3.64784">
        <ele>247</ele>
        <time>2012-03-03T13:08:56Z</time>
      </trkpt>
      <trkpt lat="44.00965" lon="3.64778">
        <ele>247</ele>
        <time>2012-03-03T13:09:01Z</time>
      </trkpt>
      <trkpt lat="44.00976" lon="3.64771">
        <ele>248</ele>
        <time>2012-03-03T13:09:06Z</time>
      </trkpt>
      <trkpt lat="44.00986" lon="3.64775">
        <ele>248</ele>
        <time>2012-03-03T13:09:11Z</time>
      </trkpt>
      <trkpt lat="44.00995" lon="3.64791">
        <ele>247</ele>
        <time>2012-03-03T13:09:16Z</time>
      </trkpt>
      <trkpt lat="44.01004" lon="3.648">
        <ele>248</ele>
        <time>2012-03-03T13:09:21Z</time>
      </trkpt>
      <trkpt lat="44.0101" lon="3.6481">
        <ele>247</ele>
        <time>2012-03-03T13:09:26Z</time>
      </trkpt>
      <trkpt lat="44.01018" lon="3.64823">
        <ele>246</ele>
        <time>2012-03-03T13:09:31Z</time>
      </trkpt>
      <trkpt lat="44.01028" lon="3.64833">
        <ele>247</ele>
        <time>2012-03-03T13:09:36Z</time>
      </trkpt>
      <trkpt lat="44.01037" lon="3.64841">
        <ele>249</ele>
        <time>2012-03-03T13:09:41Z</time>
      </trkpt>
      <trkpt lat="44.01048" lon="3.64851">
        <ele>250</ele>
        <time>2012-03-03T13:09:46Z</time>
      </trkpt>
      <trkpt lat="44.01057" lon="3.64858">
        <ele>251</ele>
        <time>2012-03-03T13:09:51Z</time>
      </trkpt>
      <trkpt lat="44.01068" lon="3.64864">
        <ele>251</ele>
        <time>2012-03-03T13:09:56Z</time>
      </trkpt>
      <trkpt lat="44.01076" lon="3.64865">
        <ele>251</ele>
        <time>2012-03-03T13:10:01Z</time>
      </trkpt>
      <trkpt lat="44.0108" lon="3.64866">
        <ele>251</ele>
        <time>2012-03-03T13:10:06Z</time>
      </trkpt>
      <trkpt lat="44.01083" lon="3.64868">
        <ele>252</ele>
        <time>2012-03-03T13:10:11Z</time>
      </trkpt>
      <trkpt lat="44.0109" lon="3.64864">
        <ele>253</ele>
        <time>2012-03-03T13:10:16Z</time>
      </trkpt>
      <trkpt lat="44.01097" lon="3.6486">
        <ele>253</ele>
        <time>2012-03-03T13:10:21Z</time>
      </trkpt>
      <trkpt lat="44.01106" lon="3.64859">
        <ele>253</ele>
        <time>2012-03-03T13:10:26Z</time>
      </trkpt>
      <trkpt lat="44.01114" lon="3.64859">
        <ele>254</ele>
        <time>2012-03-03T13:10:31Z</time>
      </trkpt>
      <trkpt lat="44.01124" lon="3.64863">
        <ele>254</ele>
        <time>2012-03-03T13:10:36Z</time>
      </trkpt>
      <trkpt lat="44.01132" lon="3.64866">
        <ele>255</ele>
        <time>2012-03-03T13:10:41Z</time>
      </trkpt>
      <trkpt lat="44.01139" lon="3.64867">
        <ele>255</ele>
        <time>2012-03-03T13:10:46Z</time>
      </trkpt>
      <trkpt lat="44.01145" lon="3.64869">
        <ele>255</ele>
        <time>2012-03-03T13:10:51Z</time>
      </trkpt>
      <trkpt lat="44.0115" lon="3.6487">
        <ele>255</ele>
        <time>2012-03-03T13:10:56Z</time>
      </trkpt>
      <trkpt lat="44.01157" lon="3.64869">
        <ele>255</ele>
        <time>2012-03-03T13:11:01Z</time>
      </trkpt>
      <trkpt lat="44.01164" lon="3.64869">
        <ele>255</ele>
        <time>2012-03-03T13:11:06Z</time>
      </trkpt>
      <trkpt lat="44.01172" lon="3.64871">
        <ele>260</ele>
        <time>2012-03-03T13:11:11Z</time>
      </trkpt>
      <trkpt lat="44.01179" lon="3.64874">
        <ele>260</ele>
        <time>2012-03-03T13:11:16Z</time>
      </trkpt>
      <trkpt lat="44.01186" lon="3.64877">
        <ele>260</ele>
        <time>2012-03-03T13:11:21Z</time>
      </trkpt>
      <trkpt lat="44.01194" lon="3.64879">
        <ele>261</ele>
        <time>2012-03-03T13:11:26Z</time>
      </trkpt>
      <trkpt lat="44.01201" lon="3.64883">
        <ele>262</ele>
        <time>2012-03-03T13:11:31Z</time>
      </trkpt>
      <trkpt lat="44.01205" lon="3.64887">
        <ele>262</ele>
        <time>2012-03-03T13:11:36Z</time>
      </trkpt>
      <trkpt lat="44.0121" lon="3.6489">
        <ele>263</ele>
        <time>2012-03-03T13:11:41Z</time>
      </trkpt>
      <trkpt lat="44.01216" lon="3.64892">
        <ele>263</ele>
        <time>2012-03-03T13:11:46Z</time>
      </trkpt>
      <trkpt lat="44.0122" lon="3.64891">
        <ele>263</ele>
        <time>2012-03-03T13:11:51Z</time>
      </trkpt>
      <trkpt lat="44.01226" lon="3.64893">
        <ele>264</ele>
        <time>2012-03-03T13:11:56Z</time>
      </trkpt>
      <trkpt lat="44.0123" lon="3.64893">
        <ele>264</ele>
        <time>2012-03-03T13:12:01Z</time>
      </trkpt>
      <trkpt lat="44.01234" lon="3.64892">
        <ele>265</ele>
        <time>2012-03-03T13:12:06Z</time>
      </trkpt>
      <trkpt lat="44.0124" lon="3.64896">
        <ele>266</ele>
        <time>2012-03-03T13:12:11Z</time>
      </trkpt>
      <trkpt lat="44.01245" lon="3.64901">
        <ele>267</ele>
        <time>2012-03-03T13:12:16Z</time>
      </trkpt>
      <trkpt lat="44.01252" lon="3.64905">
        <ele>276</ele>
        <time>2012-03-03T13:12:21Z</time>
      </trkpt>
      <trkpt lat="44.01258" lon="3.6491">
        <ele>276</ele>
        <time>2012-03-03T13:12:26Z</time>
      </trkpt>
      <trkpt lat="44.01262" lon="3.64916">
        <ele>277</ele>
        <time>2012-03-03T13:12:31Z</time>
      </trkpt>
      <trkpt lat="44.01266" lon="3.6492">
        <ele>279</ele>
        <time>2012-03-03T13:12:36Z</time>
      </trkpt>
      <trkpt lat="44.01272" lon="3.64923">
        <ele>281</ele>
        <time>2012-03-03T13:12:41Z</time>
      </trkpt>
      <trkpt lat="44.01276" lon="3.64928">
        <ele>282</ele>
        <time>2012-03-03T13:12:46Z</time>
      </trkpt>
      <trkpt lat="44.01282" lon="3.64933">
        <ele>283</ele>
        <time>2012-03-03T13:12:51Z</time>
      </trkpt>
      <trkpt lat="44.01285" lon="3.64936">
        <ele>284</ele>
        <time>2012-03-03T13:12:56Z</time>
      </trkpt>
      <trkpt lat="44.0129" lon="3.64939">
        <ele>285</ele>
        <time>2012-03-03T13:13:01Z</time>
      </trkpt>
      <trkpt lat="44.01293" lon="3.64944">
        <ele>285</ele>
        <time>2012-03-03T13:13:06Z</time>
      </trkpt>
      <trkpt lat="44.01296" lon="3.64948">
        <ele>285</ele>
        <time>2012-03-03T13:13:11Z</time>
      </trkpt>
      <trkpt lat="44.01301" lon="3.64953">
        <ele>286</ele>
        <time>2012-03-03T13:13:16Z</time>
      </trkpt>
      <trkpt lat="44.01306" lon="3.6496">
        <ele>286</ele>
        <time>2012-03-03T13:13:21Z</time>
      </trkpt>
      <trkpt lat="44.01308" lon="3.64959">
        <ele>286</ele>
        <time>2012-03-03T13:13:26Z</time>
      </trkpt>
      <trkpt lat="44.01315" lon="3.64969">
        <ele>287</ele>
        <time>2012-03-03T13:13:31Z</time>
      </trkpt>
      <trkpt lat="44.0132" lon="3.64974">
        <ele>287</ele>
        <time>2012-03-03T13:13:36Z</time>
      </trkpt>
      <trkpt lat="44.01326" lon="3.6498">
        <ele>287</ele>
        <time>2012-03-03T13:13:41Z</time>
      </trkpt>
      <trkpt lat="44.01331" lon="3.64986">
        <ele>288</ele>
        <time>2012-03-03T13:13:46Z</time>
      </trkpt>
      <trkpt lat="44.01336" lon="3.64992">
        <ele>296</ele>
        <time>2012-03-03T13:13:51Z</time>
      </trkpt>
      <trkpt lat="44.0134" lon="3.64996">
        <ele>296</ele>
        <time>2012-03-03T13:13:56Z</time>
      </trkpt>
      <trkpt lat="44.01345" lon="3.64999">
        <ele>298</ele>
        <time>2012-03-03T13:14:01Z</time>
      </trkpt>
      <trkpt lat="44.01349" lon="3.65003">
        <ele>293</ele>
        <time>2012-03-03T13:14:06Z</time>
      </trkpt>
      <trkpt lat="44.01353" lon="3.65006">
        <ele>294</ele>
        <time>2012-03-03T13:14:11Z</time>
      </trkpt>
      <trkpt lat="44.01359" lon="3.65014">
        <ele>295</ele>
        <time>2012-03-03T13:14:16Z</time>
      </trkpt>
      <trkpt lat="44.01366" lon="3.65017">
        <ele>296</ele>
        <time>2012-03-03T13:14:21Z</time>
      </trkpt>
      <trkpt lat="44.0137" lon="3.65021">
        <ele>297</ele>
        <time>2012-03-03T13:14:26Z</time>
      </trkpt>
      <trkpt lat="44.01373" lon="3.65024">
        <ele>298</ele>
        <time>2012-03-03T13:14:31Z</time>
      </trkpt>
      <trkpt lat="44.0138" lon="3.65029">
        <ele>298</ele>
        <time>2012-03-03T13:14:36Z</time>
      </trkpt>
      <trkpt lat="44.01384" lon="3.6503">
        <ele>299</ele>
        <time>2012-03-03T13:14:41Z</time>
      </trkpt>
      <trkpt lat="44.0139" lon="3.65034">
        <ele>300</ele>
        <time>2012-03-03T13:14:46Z</time>
      </trkpt>
      <trkpt lat="44.01398" lon="3.65036">
        <ele>300</ele>
        <time>2012-03-03T13:14:51Z</time>
      </trkpt>
      <trkpt lat="44.01404" lon="3.65039">
        <ele>301</ele>
        <time>2012-03-03T13:14:56Z</time>
      </trkpt>
      <trkpt lat="44.01409" lon="3.65045">
        <ele>300</ele>
        <time>2012-03-03T13:15:01Z</time>
      </trkpt>
      <trkpt lat="44.01413" lon="3.65046">
        <ele>300</ele>
        <time>2012-03-03T13:15:06Z</time>
      </trkpt>
      <trkpt lat="44.0142" lon="3.65048">
        <ele>316</ele>
        <time>2012-03-03T13:15:11Z</time>
      </trkpt>
      <trkpt lat="44.01429" lon="3.6505">
        <ele>316</ele>
        <time>2012-03-03T13:15:16Z</time>
      </trkpt>
      <trkpt lat="44.01433" lon="3.65053">
        <ele>316</ele>
        <time>2012-03-03T13:15:21Z</time>
      </trkpt>
      <trkpt lat="44.01438" lon="3.65052">
        <ele>317</ele>
        <time>2012-03-03T13:15:26Z</time>
      </trkpt>
      <trkpt lat="44.01445" lon="3.65052">
        <ele>318</ele>
        <time>2012-03-03T13:15:31Z</time>
      </trkpt>
      <trkpt lat="44.01448" lon="3.65054">
        <ele>318</ele>
        <time>2012-03-03T13:15:36Z</time>
      </trkpt>
      <trkpt lat="44.01454" lon="3.65055">
        <ele>319</ele>
        <time>2012-03-03T13:15:41Z</time>
      </trkpt>
      <trkpt lat="44.01462" lon="3.65055">
        <ele>320</ele>
        <time>2012-03-03T13:15:46Z</time>
      </trkpt>
      <trkpt lat="44.01468" lon="3.65058">
        <ele>321</ele>
        <time>2012-03-03T13:15:51Z</time>
      </trkpt>
      <trkpt lat="44.01472" lon="3.6506">
        <ele>321</ele>
        <time>2012-03-03T13:15:56Z</time>
      </trkpt>
      <trkpt lat="44.01477" lon="3.65061">
        <ele>321</ele>
        <time>2012-03-03T13:16:01Z</time>
      </trkpt>
      <trkpt lat="44.01484" lon="3.65063">
        <ele>321</ele>
        <time>2012-03-03T13:16:06Z</time>
      </trkpt>
      <trkpt lat="44.01492" lon="3.65067">
        <ele>321</ele>
        <time>2012-03-03T13:16:11Z</time>
      </trkpt>
      <trkpt lat="44.01496" lon="3.65067">
        <ele>321</ele>
        <time>2012-03-03T13:16:16Z</time>
      </trkpt>
      <trkpt lat="44.01503" lon="3.65068">
        <ele>330</ele>
        <time>2012-03-03T13:16:21Z</time>
      </trkpt>
      <trkpt lat="44.01509" lon="3.6507">
        <ele>330</ele>
        <time>2012-03-03T13:16:26Z</time>
      </trkpt>
      <trkpt lat="44.01515" lon="3.65069">
        <ele>332</ele>
        <time>2012-03-03T13:16:31Z</time>
      </trkpt>
      <trkpt lat="44.01519" lon="3.65071">
        <ele>333</ele>
        <time>2012-03-03T13:16:36Z</time>
      </trkpt>
      <trkpt lat="44.01526" lon="3.6507">
        <ele>335</ele>
        <time>2012-03-03T13:16:41Z</time>
      </trkpt>
      <trkpt lat="44.01533" lon="3.65072">
        <ele>337</ele>
        <time>2012-03-03T13:16:46Z</time>
      </trkpt>
      <trkpt lat="44.0154" lon="3.65073">
        <ele>338</ele>
        <time>2012-03-03T13:16:51Z</time>
      </trkpt>
      <trkpt lat="44.01546" lon="3.65073">
        <ele>339</ele>
        <time>2012-03-03T13:16:56Z</time>
      </trkpt>
      <trkpt lat="44.01553" lon="3.65074">
        <ele>340</ele>
        <time>2012-03-03T13:17:01Z</time>
      </trkpt>
      <trkpt lat="44.01557" lon="3.65076">
        <ele>340</ele>
        <time>2012-03-03T13:17:06Z</time>
      </trkpt>
      <trkpt lat="44.0156" lon="3.65076">
        <ele>341</ele>
        <time>2012-03-03T13:17:11Z</time>
      </trkpt>
      <trkpt lat="44.01555" lon="3.65075">
        <ele>340</ele>
        <time>2012-03-03T13:17:16Z</time>
      </trkpt>
      <trkpt lat="44.0155" lon="3.65073">
        <ele>340</ele>
        <time>2012-03-03T13:17:21Z</time>
      </trkpt>
      <trkpt lat="44.01545" lon="3.65071">
        <ele>339</ele>
        <time>2012-03-03T13:17:26Z</time>
      </trkpt>
      <trkpt lat="44.01541" lon="3.65068">
        <ele>339</ele>
        <time>2012-03-03T13:17:31Z</time>
      </trkpt>
      <trkpt lat="44.01536" lon="3.65062">
        <ele>339</ele>
        <time>2012-03-03T13:17:36Z</time>
      </trkpt>
      <trkpt lat="44.0153" lon="3.65056">
        <ele>339</ele>
        <time>2012-03-03T13:17:41Z</time>
      </trkpt>
      <trkpt lat="44.01523" lon="3.65051">
        <ele>339</ele>
        <time>2012-03-03T13:17:46Z</time>
      </trkpt>
      <trkpt lat="44.01517" lon="3.65046">
        <ele>339</ele>
        <time>2012-03-03T13:17:51Z</time>
      </trkpt>
      <trkpt lat="44.01511" lon="3.6504">
        <ele>340</ele>
        <time>2012-03-03T13:17:56Z</time>
      </trkpt>
      <trkpt lat="44.01507" lon="3.65037">
        <ele>341</ele>
        <time>2012-03-03T13:18:01Z</time>
      </trkpt>
      <trkpt lat="44.01502" lon="3.65031">
        <ele>342</ele>
        <time>2012-03-03T13:18:06Z</time>
      </trkpt>
      <trkpt lat="44.01497" lon="3.65028">
        <ele>331</ele>
        <time>2012-03-03T13:18:11Z</time>
      </trkpt>
      <trkpt lat="44.01491" lon="3.65021">
        <ele>333</ele>
        <time>2012-03-03T13:18:16Z</time>
      </trkpt>
      <trkpt lat="44.01483" lon="3.65016">
        <ele>332</ele>
        <time>2012-03-03T13:18:21Z</time>
      </trkpt>
      <trkpt lat="44.01478" lon="3.65013">
        <ele>331</ele>
        <time>2012-03-03T13:18:26Z</time>
      </trkpt>
      <trkpt lat="44.01472" lon="3.65001">
        <ele>331</ele>
        <time>2012-03-03T13:18:31Z</time>
      </trkpt>
      <trkpt lat="44.01467" lon="3.6499">
        <ele>341</ele>
        <time>2012-03-03T13:18:36Z</time>
      </trkpt>
      <trkpt lat="44.01465" lon="3.64982">
        <ele>341</ele>
        <time>2012-03-03T13:18:41Z</time>
      </trkpt>
      <trkpt lat="44.01471" lon="3.64982">
        <ele>342</ele>
        <time>2012-03-03T13:18:46Z</time>
      </trkpt>
      <trkpt lat="44.01477" lon="3.64982">
        <ele>343</ele>
        <time>2012-03-03T13:18:51Z</time>
      </trkpt>
      <trkpt lat="44.0148" lon="3.64983">
        <ele>344</ele>
        <time>2012-03-03T13:18:56Z</time>
      </trkpt>
      <trkpt lat="44.01486" lon="3.64986">
        <ele>345</ele>
        <time>2012-03-03T13:19:01Z</time>
      </trkpt>
      <trkpt lat="44.0149" lon="3.64987">
        <ele>345</ele>
        <time>2012-03-03T13:19:06Z</time>
      </trkpt>
      <trkpt lat="44.01497" lon="3.64989">
        <ele>346</ele>
        <time>2012-03-03T13:19:11Z</time>
      </trkpt>
      <trkpt lat="44.01505" lon="3.64991">
        <ele>351</ele>
        <time>2012-03-03T13:19:16Z</time>
      </trkpt>
      <trkpt lat="44.01513" lon="3.64996">
        <ele>352</ele>
        <time>2012-03-03T13:19:21Z</time>
      </trkpt>
      <trkpt lat="44.0152" lon="3.64998">
        <ele>353</ele>
        <time>2012-03-03T13:19:26Z</time>
      </trkpt>
      <trkpt lat="44.01527" lon="3.64998">
        <ele>354</ele>
        <time>2012-03-03T13:19:31Z</time>
      </trkpt>
      <trkpt lat="44.01532" lon="3.64998">
        <ele>355</ele>
        <time>2012-03-03T13:19:36Z</time>
      </trkpt>
      <trkpt lat="44.01539" lon="3.64995">
        <ele>355</ele>
        <time>2012-03-03T13:19:41Z</time>
      </trkpt>
      <trkpt lat="44.01544" lon="3.64996">
        <ele>356</ele>
        <time>2012-03-03T13:19:46Z</time>
      </trkpt>
      <trkpt lat="44.0155" lon="3.64996">
        <ele>356</ele>
        <time>2012-03-03T13:19:51Z</time>
      </trkpt>
      <trkpt lat="44.01557" lon="3.64998">
        <ele>357</ele>
        <time>2012-03-03T13:19:56Z</time>
      </trkpt>
      <trkpt lat="44.01563" lon="3.64998">
        <ele>358</ele>
        <time>2012-03-03T13:20:01Z</time>
      </trkpt>
      <trkpt lat="44.0157" lon="3.65">
        <ele>359</ele>
        <time>2012-03-03T13:20:06Z</time>
      </trkpt>
      <trkpt lat="44.01577" lon="3.64997">
        <ele>360</ele>
        <time>2012-03-03T13:20:11Z</time>
      </trkpt>
      <trkpt lat="44.01582" lon="3.64993">
        <ele>360</ele>
        <time>2012-03-03T13:20:16Z</time>
      </trkpt>
      <trkpt lat="44.01588" lon="3.64993">
        <ele>362</ele>
        <time>2012-03-03T13:20:21Z</time>
      </trkpt>
      <trkpt lat="44.01595" lon="3.64995">
        <ele>363</ele>
        <time>2012-03-03T13:20:26Z</time>
      </trkpt>
      <trkpt lat="44.01602" lon="3.64996">
        <ele>364</ele>
        <time>2012-03-03T13:20:31Z</time>
      </trkpt>
      <trkpt lat="44.01607" lon="3.64996">
        <ele>364</ele>
        <time>2012-03-03T13:20:36Z</time>
      </trkpt>
      <trkpt lat="44.01612" lon="3.64995">
        <ele>365</ele>
        <time>2012-03-03T13:20:41Z</time>
      </trkpt>
      <trkpt lat="44.01618" lon="3.64996">
        <ele>365</ele>
        <time>2012-03-03T13:20:46Z</time>
      </trkpt>
      <trkpt lat="44.01625" lon="3.64999">
        <ele>367</ele>
        <time>2012-03-03T13:20:51Z</time>
      </trkpt>
      <trkpt lat="44.01638" lon="3.65007">
        <ele>368</ele>
        <time>2012-03-03T13:20:56Z</time>
      </trkpt>
      <trkpt lat="44.01643" lon="3.65018">
        <ele>368</ele>
        <time>2012-03-03T13:21:01Z</time>
      </trkpt>
      <trkpt lat="44.01649" lon="3.65038">
        <ele>366</ele>
        <time>2012-03-03T13:21:06Z</time>
      </trkpt>
      <trkpt lat="44.01657" lon="3.65056">
        <ele>366</ele>
        <time>2012-03-03T13:21:11Z</time>
      </trkpt>
      <trkpt lat="44.01666" lon="3.65067">
        <ele>367</ele>
        <time>2012-03-03T13:21:16Z</time>
      </trkpt>
      <trkpt lat="44.01672" lon="3.6508">
        <ele>374</ele>
        <time>2012-03-03T13:21:21Z</time>
      </trkpt>
      <trkpt lat="44.0168" lon="3.65094">
        <ele>372</ele>
        <time>2012-03-03T13:21:26Z</time>
      </trkpt>
      <trkpt lat="44.01686" lon="3.65104">
        <ele>372</ele>
        <time>2012-03-03T13:21:31Z</time>
      </trkpt>
      <trkpt lat="44.01694" lon="3.65119">
        <ele>372</ele>
        <time>2012-03-03T13:21:36Z</time>
      </trkpt>
      <trkpt lat="44.01701" lon="3.65131">
        <ele>372</ele>
        <time>2012-03-03T13:21:41Z</time>
      </trkpt>
      <trkpt lat="44.0171" lon="3.65143">
        <ele>373</ele>
        <time>2012-03-03T13:21:46Z</time>
      </trkpt>
      <trkpt lat="44.0172" lon="3.65157">
        <ele>374</ele>
        <time>2012-03-03T13:21:51Z</time>
      </trkpt>
      <trkpt lat="44.01726" lon="3.65176">
        <ele>370</ele>
        <time>2012-03-03T13:21:56Z</time>
      </trkpt>
      <trkpt lat="44.01729" lon="3.65192">
        <ele>369</ele>
        <time>2012-03-03T13:22:01Z</time>
      </trkpt>
      <trkpt lat="44.01726" lon="3.65214">
        <ele>367</ele>
        <time>2012-03-03T13:22:06Z</time>
      </trkpt>
      <trkpt lat="44.0172" lon="3.6523">
        <ele>367</ele>
        <time>2012-03-03T13:22:11Z</time>
      </trkpt>
      <trkpt lat="44.01712" lon="3.65242">
        <ele>365</ele>
        <time>2012-03-03T13:22:16Z</time>
      </trkpt>
      <trkpt lat="44.01701" lon="3.65254">
        <ele>363</ele>
        <time>2012-03-03T13:22:21Z</time>
      </trkpt>
      <trkpt lat="44.01691" lon="3.65263">
        <ele>361</ele>
        <time>2012-03-03T13:22:26Z</time>
      </trkpt>
      <trkpt lat="44.0168" lon="3.65274">
        <ele>360</ele>
        <time>2012-03-03T13:22:31Z</time>
      </trkpt>
      <trkpt lat="44.0167" lon="3.65285">
        <ele>361</ele>
        <time>2012-03-03T13:22:36Z</time>
      </trkpt>
      <trkpt lat="44.01661" lon="3.65296">
        <ele>348</ele>
        <time>2012-03-03T13:22:41Z</time>
      </trkpt>
      <trkpt lat="44.01651" lon="3.65306">
        <ele>349</ele>
        <time>2012-03-03T13:22:46Z</time>
      </trkpt>
      <trkpt lat="44.01642" lon="3.65317">
        <ele>350</ele>
        <time>2012-03-03T13:22:51Z</time>
      </trkpt>
      <trkpt lat="44.01635" lon="3.6533">
        <ele>349</ele>
        <time>2012-03-03T13:22:56Z</time>
      </trkpt>
      <trkpt lat="44.01629" lon="3.6534">
        <ele>355</ele>
        <time>2012-03-03T13:23:01Z</time>
      </trkpt>
      <trkpt lat="44.01624" lon="3.65353">
        <ele>354</ele>
        <time>2012-03-03T13:23:06Z</time>
      </trkpt>
      <trkpt lat="44.01616" lon="3.65366">
        <ele>354</ele>
        <time>2012-03-03T13:23:11Z</time>
      </trkpt>
      <trkpt lat="44.01612" lon="3.65377">
        <ele>354</ele>
        <time>2012-03-03T13:23:16Z</time>
      </trkpt>
      <trkpt lat="44.01608" lon="3.65394">
        <ele>354</ele>
        <time>2012-03-03T13:23:21Z</time>
      </trkpt>
      <trkpt lat="44.01607" lon="3.65409">
        <ele>355</ele>
        <time>2012-03-03T13:23:26Z</time>
      </trkpt>
      <trkpt lat="44.01611" lon="3.65421">
        <ele>352</ele>
        <time>2012-03-03T13:23:31Z</time>
      </trkpt>
      <trkpt lat="44.01619" lon="3.65431">
        <ele>352</ele>
        <time>2012-03-03T13:23:36Z</time>
      </trkpt>
      <trkpt lat="44.01625" lon="3.65444">
        <ele>351</ele>
        <time>2012-03-03T13:23:41Z</time>
      </trkpt>
      <trkpt lat="44.01634" lon="3.65459">
        <ele>349</ele>
        <time>2012-03-03T13:23:46Z</time>
      </trkpt>
      <trkpt lat="44.01641" lon="3.65469">
        <ele>348</ele>
        <time>2012-03-03T13:23:51Z</time>
      </trkpt>
      <trkpt lat="44.0165" lon="3.65476">
        <ele>346</ele>
        <time>2012-03-03T13:23:56Z</time>
      </trkpt>
      <trkpt lat="44.01661" lon="3.65482">
        <ele>344</ele>
        <time>2012-03-03T13:24:01Z</time>
      </trkpt>
      <trkpt lat="44.01671" lon="3.65485">
        <ele>341</ele>
        <time>2012-03-03T13:24:06Z</time>
      </trkpt>
      <trkpt lat="44.01681" lon="3.65486">
        <ele>341</ele>
        <time>2012-03-03T13:24:11Z</time>
      </trkpt>
      <trkpt lat="44.01691" lon="3.65486">
        <ele>341</ele>
        <time>2012-03-03T13:24:16Z</time>
      </trkpt>
      <trkpt lat="44.01702" lon="3.65486">
        <ele>341</ele>
        <time>2012-03-03T13:24:21Z</time>
      </trkpt>
      <trkpt lat="44.01713" lon="3.65483">
        <ele>341</ele>
        <time>2012-03-03T13:24:26Z</time>
      </trkpt>
      <trkpt lat="44.01725" lon="3.65481">
        <ele>340</ele>
        <time>2012-03-03T13:24:31Z</time>
      </trkpt>
      <trkpt lat="44.01737" lon="3.6548">
        <ele>339</ele>
        <time>2012-03-03T13:24:36Z</time>
      </trkpt>
      <trkpt lat="44.01748" lon="3.65478">
        <ele>339</ele>
        <time>2012-03-03T13:24:41Z</time>
      </trkpt>
      <trkpt lat="44.0176" lon="3.65475">
        <ele>341</ele>
        <time>2012-03-03T13:24:46Z</time>
      </trkpt>
      <trkpt lat="44.01771" lon="3.6549">
        <ele>340</ele>
        <time>2012-03-03T13:24:51Z</time>
      </trkpt>
      <trkpt lat="44.01771" lon="3.65506">
        <ele>332</ele>
        <time>2012-03-03T13:24:56Z</time>
      </trkpt>
      <trkpt lat="44.01769" lon="3.65519">
        <ele>331</ele>
        <time>2012-03-03T13:25:01Z</time>
      </trkpt>
      <trkpt lat="44.01768" lon="3.65534">
        <ele>330</ele>
        <time>2012-03-03T13:25:06Z</time>
      </trkpt>
      <trkpt lat="44.01764" lon="3.65551">
        <ele>328</ele>
        <time>2012-03-03T13:25:11Z</time>
      </trkpt>
      <trkpt lat="44.01762" lon="3.65569">
        <ele>324</ele>
        <time>2012-03-03T13:25:16Z</time>
      </trkpt>
      <trkpt lat="44.0176" lon="3.65586">
        <ele>317</ele>
        <time>2012-03-03T13:25:21Z</time>
      </trkpt>
      <trkpt lat="44.0176" lon="3.65603">
        <ele>317</ele>
        <time>2012-03-03T13:25:26Z</time>
      </trkpt>
      <trkpt lat="44.0176" lon="3.65619">
        <ele>317</ele>
        <time>2012-03-03T13:25:31Z</time>
      </trkpt>
      <trkpt lat="44.0176" lon="3.65639">
        <ele>315</ele>
        <time>2012-03-03T13:25:36Z</time>
      </trkpt>
      <trkpt lat="44.0176" lon="3.65657">
        <ele>312</ele>
        <time>2012-03-03T13:25:41Z</time>
      </trkpt>
      <trkpt lat="44.0176" lon="3.65671">
        <ele>307</ele>
        <time>2012-03-03T13:25:46Z</time>
      </trkpt>
      <trkpt lat="44.01759" lon="3.65689">
        <ele>307</ele>
        <time>2012-03-03T13:25:51Z</time>
      </trkpt>
      <trkpt lat="44.01756" lon="3.657">
        <ele>306</ele>
        <time>2012-03-03T13:25:56Z</time>
      </trkpt>
      <trkpt lat="44.01759" lon="3.65713">
        <ele>304</ele>
        <time>2012-03-03T13:26:01Z</time>
      </trkpt>
      <trkpt lat="44.01768" lon="3.65719">
        <ele>304</ele>
        <time>2012-03-03T13:26:06Z</time>
      </trkpt>
      <trkpt lat="44.01768" lon="3.65733">
        <ele>302</ele>
        <time>2012-03-03T13:26:11Z</time>
      </trkpt>
      <trkpt lat="44.01757" lon="3.65744">
        <ele>298</ele>
        <time>2012-03-03T13:26:16Z</time>
      </trkpt>
      <trkpt lat="44.01743" lon="3.65749">
        <ele>294</ele>
        <time>2012-03-03T13:26:21Z</time>
      </trkpt>
      <trkpt lat="44.01727" lon="3.65744">
        <ele>294</ele>
        <time>2012-03-03T13:26:26Z</time>
      </trkpt>
      <trkpt lat="44.01725" lon="3.65754">
        <ele>288</ele>
        <time>2012-03-03T13:26:31Z</time>
      </trkpt>
      <trkpt lat="44.01732" lon="3.65766">
        <ele>287</ele>
        <time>2012-03-03T13:26:36Z</time>
      </trkpt>
      <trkpt lat="44.01743" lon="3.6577">
        <ele>288</ele>
        <time>2012-03-03T13:26:41Z</time>
      </trkpt>
      <trkpt lat="44.01756" lon="3.6577">
        <ele>293</ele>
        <time>2012-03-03T13:26:46Z</time>
      </trkpt>
      <trkpt lat="44.01765" lon="3.6577">
        <ele>293</ele>
        <time>2012-03-03T13:26:51Z</time>
      </trkpt>
      <trkpt lat="44.01773" lon="3.6578">
        <ele>292</ele>
        <time>2012-03-03T13:26:56Z</time>
      </trkpt>
      <trkpt lat="44.01765" lon="3.65793">
        <ele>291</ele>
        <time>2012-03-03T13:27:01Z</time>
      </trkpt>
      <trkpt lat="44.01752" lon="3.65797">
        <ele>290</ele>
        <time>2012-03-03T13:27:06Z</time>
      </trkpt>
      <trkpt lat="44.01739" lon="3.658">
        <ele>284</ele>
        <time>2012-03-03T13:27:11Z</time>
      </trkpt>
      <trkpt lat="44.01726" lon="3.65803">
        <ele>283</ele>
        <time>2012-03-03T13:27:16Z</time>
      </trkpt>
      <trkpt lat="44.01711" lon="3.65806">
        <ele>283</ele>
        <time>2012-03-03T13:27:21Z</time>
      </trkpt>
      <trkpt lat="44.017" lon="3.65809">
        <ele>282</ele>
        <time>2012-03-03T13:27:26Z</time>
      </trkpt>
      <trkpt lat="44.0169" lon="3.65812">
        <ele>281</ele>
        <time>2012-03-03T13:27:31Z</time>
      </trkpt>
      <trkpt lat="44.01684" lon="3.65826">
        <ele>279</ele>
        <time>2012-03-03T13:27:36Z</time>
      </trkpt>
      <trkpt lat="44.0168" lon="3.65839">
        <ele>276</ele>
        <time>2012-03-03T13:27:41Z</time>
      </trkpt>
      <trkpt lat="44.01673" lon="3.65854">
        <ele>277</ele>
        <time>2012-03-03T13:27:46Z</time>
      </trkpt>
      <trkpt lat="44.01672" lon="3.65872">
        <ele>278</ele>
        <time>2012-03-03T13:27:51Z</time>
      </trkpt>
      <trkpt lat="44.01673" lon="3.65889">
        <ele>278</ele>
        <time>2012-03-03T13:27:56Z</time>
      </trkpt>
      <trkpt lat="44.01678" lon="3.65896">
        <ele>279</ele>
        <time>2012-03-03T13:28:01Z</time>
      </trkpt>
      <trkpt lat="44.01681" lon="3.65899">
        <ele>279</ele>
        <time>2012-03-03T13:28:06Z</time>
      </trkpt>
      <trkpt lat="44.01684" lon="3.65902">
        <ele>279</ele>
        <time>2012-03-03T13:28:11Z</time>
      </trkpt>
      <trkpt lat="44.01691" lon="3.65903">
        <ele>279</ele>
        <time>2012-03-03T13:28:16Z</time>
      </trkpt>
      <trkpt lat="44.01696" lon="3.6591">
        <ele>280</ele>
        <time>2012-03-03T13:28:21Z</time>
      </trkpt>
      <trkpt lat="44.01697" lon="3.65911">
        <ele>280</ele>
        <time>2012-03-03T13:28:26Z</time>
      </trkpt>
      <trkpt lat="44.01697" lon="3.65912">
        <ele>280</ele>
        <time>2012-03-03T13:28:31Z</time>
      </trkpt>
      <trkpt lat="44.017" lon="3.65914">
        <ele>280</ele>
        <time>2012-03-03T13:28:36Z</time>
      </trkpt>
      <trkpt lat="44.01703" lon="3.65914">
        <ele>280</ele>
        <time>2012-03-03T13:28:41Z</time>
      </trkpt>
      <trkpt lat="44.01706" lon="3.65914">
        <ele>281</ele>
        <time>2012-03-03T13:28:46Z</time>
      </trkpt>
      <trkpt lat="44.0171" lon="3.65916">
        <ele>281</ele>
        <time>2012-03-03T13:28:51Z</time>
      </trkpt>
      <trkpt lat="44.01713" lon="3.65914">
        <ele>281</ele>
        <time>2012-03-03T13:28:56Z</time>
      </trkpt>
      <trkpt lat="44.01716" lon="3.65916">
        <ele>282</ele>
        <time>2012-03-03T13:29:01Z</time>
      </trkpt>
      <trkpt lat="44.01719" lon="3.65918">
        <ele>286</ele>
        <time>2012-03-03T13:29:06Z</time>
      </trkpt>
      <trkpt lat="44.0172" lon="3.65917">
        <ele>282</ele>
        <time>2012-03-03T13:29:11Z</time>
      </trkpt>
      <trkpt lat="44.01724" lon="3.65918">
        <ele>286</ele>
        <time>2012-03-03T13:29:16Z</time>
      </trkpt>
      <trkpt lat="44.01725" lon="3.65923">
        <ele>286</ele>
        <time>2012-03-03T13:29:21Z</time>
      </trkpt>
      <trkpt lat="44.01728" lon="3.65927">
        <ele>287</ele>
        <time>2012-03-03T13:29:26Z</time>
      </trkpt>
      <trkpt lat="44.01729" lon="3.65933">
        <ele>287</ele>
        <time>2012-03-03T13:29:31Z</time>
      </trkpt>
      <trkpt lat="44.01728" lon="3.6594">
        <ele>287</ele>
        <time>2012-03-03T13:29:36Z</time>
      </trkpt>
      <trkpt lat="44.01729" lon="3.65948">
        <ele>287</ele>
        <time>2012-03-03T13:29:41Z</time>
      </trkpt>
      <trkpt lat="44.01729" lon="3.65957">
        <ele>288</ele>
        <time>2012-03-03T13:29:46Z</time>
      </trkpt>
      <trkpt lat="44.01728" lon="3.65971">
        <ele>289</ele>
        <time>2012-03-03T13:29:51Z</time>
      </trkpt>
      <trkpt lat="44.01728" lon="3.65979">
        <ele>290</ele>
        <time>2012-03-03T13:29:56Z</time>
      </trkpt>
      <trkpt lat="44.0173" lon="3.65981">
        <ele>290</ele>
        <time>2012-03-03T13:30:01Z</time>
      </trkpt>
      <trkpt lat="44.01733" lon="3.65983">
        <ele>291</ele>
        <time>2012-03-03T13:30:06Z</time>
      </trkpt>
      <trkpt lat="44.01737" lon="3.65987">
        <ele>292</ele>
        <time>2012-03-03T13:30:11Z</time>
      </trkpt>
      <trkpt lat="44.0174" lon="3.65989">
        <ele>293</ele>
        <time>2012-03-03T13:30:16Z</time>
      </trkpt>
      <trkpt lat="44.01743" lon="3.65992">
        <ele>295</ele>
        <time>2012-03-03T13:30:21Z</time>
      </trkpt>
      <trkpt lat="44.01746" lon="3.65994">
        <ele>296</ele>
        <time>2012-03-03T13:30:26Z</time>
      </trkpt>
      <trkpt lat="44.0175" lon="3.65996">
        <ele>298</ele>
        <time>2012-03-03T13:30:31Z</time>
      </trkpt>
      <trkpt lat="44.01752" lon="3.65996">
        <ele>300</ele>
        <time>2012-03-03T13:30:36Z</time>
      </trkpt>
      <trkpt lat="44.01752" lon="3.65993">
        <ele>300</ele>
        <time>2012-03-03T13:30:41Z</time>
      </trkpt>
      <trkpt lat="44.01753" lon="3.65989">
        <ele>300</ele>
        <time>2012-03-03T13:30:46Z</time>
      </trkpt>
      <trkpt lat="44.01754" lon="3.65982">
        <ele>300</ele>
        <time>2012-03-03T13:30:51Z</time>
      </trkpt>
      <trkpt lat="44.01757" lon="3.65974">
        <ele>300</ele>
        <time>2012-03-03T13:30:56Z</time>
      </trkpt>
      <trkpt lat="44.01761" lon="3.65969">
        <ele>300</ele>
        <time>2012-03-03T13:31:01Z</time>
      </trkpt>
      <trkpt lat="44.01765" lon="3.65968">
        <ele>300</ele>
        <time>2012-03-03T13:31:06Z</time>
      </trkpt>
      <trkpt lat="44.01769" lon="3.65971">
        <ele>300</ele>
        <time>2012-03-03T13:31:11Z</time>
      </trkpt>
      <trkpt lat="44.01772" lon="3.65971">
        <ele>301</ele>
        <time>2012-03-03T13:31:16Z</time>
      </trkpt>
      <trkpt lat="44.01776" lon="3.6597">
        <ele>301</ele>
        <time>2012-03-03T13:31:21Z</time>
      </trkpt>
      <trkpt lat="44.01779" lon="3.65971">
        <ele>301</ele>
        <time>2012-03-03T13:31:26Z</time>
      </trkpt>
      <trkpt lat="44.01784" lon="3.6597">
        <ele>302</ele>
        <time>2012-03-03T13:31:31Z</time>
      </trkpt>
      <trkpt lat="44.01789" lon="3.6597">
        <ele>302</ele>
        <time>2012-03-03T13:31:36Z</time>
      </trkpt>
      <trkpt lat="44.01795" lon="3.65973">
        <ele>303</ele>
        <time>2012-03-03T13:31:41Z</time>
      </trkpt>
      <trkpt lat="44.01801" lon="3.65976">
        <ele>304</ele>
        <time>2012-03-03T13:31:46Z</time>
      </trkpt>
      <trkpt lat="44.01807" lon="3.65976">
        <ele>305</ele>
        <time>2012-03-03T13:31:51Z</time>
      </trkpt>
      <trkpt lat="44.01816" lon="3.65978">
        <ele>307</ele>
        <time>2012-03-03T13:31:56Z</time>
      </trkpt>
      <trkpt lat="44.01823" lon="3.6598">
        <ele>308</ele>
        <time>2012-03-03T13:32:01Z</time>
      </trkpt>
      <trkpt lat="44.01829" lon="3.65982">
        <ele>310</ele>
        <time>2012-03-03T13:32:06Z</time>
      </trkpt>
      <trkpt lat="44.01834" lon="3.65986">
        <ele>316</ele>
        <time>2012-03-03T13:32:11Z</time>
      </trkpt>
      <trkpt lat="44.01839" lon="3.65989">
        <ele>316</ele>
        <time>2012-03-03T13:32:16Z</time>
      </trkpt>
      <trkpt lat="44.01844" lon="3.65992">
        <ele>316</ele>
        <time>2012-03-03T13:32:21Z</time>
      </trkpt>
      <trkpt lat="44.01849" lon="3.65997">
        <ele>316</ele>
        <time>2012-03-03T13:32:26Z</time>
      </trkpt>
      <trkpt lat="44.01854" lon="3.65998">
        <ele>316</ele>
        <time>2012-03-03T13:32:31Z</time>
      </trkpt>
      <trkpt lat="44.01861" lon="3.66">
        <ele>326</ele>
        <time>2012-03-03T13:32:36Z</time>
      </trkpt>
      <trkpt lat="44.01865" lon="3.66004">
        <ele>327</ele>
        <time>2012-03-03T13:32:41Z</time>
      </trkpt>
      <trkpt lat="44.0187" lon="3.66009">
        <ele>328</ele>
        <time>2012-03-03T13:32:46Z</time>
      </trkpt>
      <trkpt lat="44.01876" lon="3.66011">
        <ele>329</ele>
        <time>2012-03-03T13:32:51Z</time>
      </trkpt>
      <trkpt lat="44.0188" lon="3.66012">
        <ele>329</ele>
        <time>2012-03-03T13:32:56Z</time>
      </trkpt>
      <trkpt lat="44.01886" lon="3.66012">
        <ele>330</ele>
        <time>2012-03-03T13:33:01Z</time>
      </trkpt>
      <trkpt lat="44.01893" lon="3.66015">
        <ele>330</ele>
        <time>2012-03-03T13:33:06Z</time>
      </trkpt>
      <trkpt lat="44.01899" lon="3.66019">
        <ele>331</ele>
        <time>2012-03-03T13:33:11Z</time>
      </trkpt>
      <trkpt lat="44.01905" lon="3.6602">
        <ele>331</ele>
        <time>2012-03-03T13:33:16Z</time>
      </trkpt>
      <trkpt lat="44.01911" lon="3.66024">
        <ele>332</ele>
        <time>2012-03-03T13:33:21Z</time>
      </trkpt>
      <trkpt lat="44.01916" lon="3.66026">
        <ele>332</ele>
        <time>2012-03-03T13:33:26Z</time>
      </trkpt>
      <trkpt lat="44.01925" lon="3.66025">
        <ele>341</ele>
        <time>2012-03-03T13:33:31Z</time>
      </trkpt>
      <trkpt lat="44.01932" lon="3.66028">
        <ele>342</ele>
        <time>2012-03-03T13:33:36Z</time>
      </trkpt>
      <trkpt lat="44.01939" lon="3.66029">
        <ele>343</ele>
        <time>2012-03-03T13:33:41Z</time>
      </trkpt>
      <trkpt lat="44.01945" lon="3.66031">
        <ele>343</ele>
        <time>2012-03-03T13:33:46Z</time>
      </trkpt>
      <trkpt lat="44.01949" lon="3.66036">
        <ele>345</ele>
        <time>2012-03-03T13:33:51Z</time>
      </trkpt>
      <trkpt lat="44.01954" lon="3.66035">
        <ele>345</ele>
        <time>2012-03-03T13:33:56Z</time>
      </trkpt>
      <trkpt lat="44.01959" lon="3.66038">
        <ele>345</ele>
        <time>2012-03-03T13:34:01Z</time>
      </trkpt>
      <trkpt lat="44.01964" lon="3.66038">
        <ele>346</ele>
        <time>2012-03-03T13:34:06Z</time>
      </trkpt>
      <trkpt lat="44.01972" lon="3.66038">
        <ele>346</ele>
        <time>2012-03-03T13:34:11Z</time>
      </trkpt>
      <trkpt lat="44.01975" lon="3.66039">
        <ele>347</ele>
        <time>2012-03-03T13:34:16Z</time>
      </trkpt>
      <trkpt lat="44.01983" lon="3.66038">
        <ele>347</ele>
        <time>2012-03-03T13:34:21Z</time>
      </trkpt>
      <trkpt lat="44.01989" lon="3.66038">
        <ele>347</ele>
        <time>2012-03-03T13:34:26Z</time>
      </trkpt>
      <trkpt lat="44.01995" lon="3.66039">
        <ele>347</ele>
        <time>2012-03-03T13:34:31Z</time>
      </trkpt>
      <trkpt lat="44.02" lon="3.66038">
        <ele>356</ele>
        <time>2012-03-03T13:34:36Z</time>
      </trkpt>
      <trkpt lat="44.02007" lon="3.6604">
        <ele>357</ele>
        <time>2012-03-03T13:34:41Z</time>
      </trkpt>
      <trkpt lat="44.02011" lon="3.66042">
        <ele>358</ele>
        <time>2012-03-03T13:34:46Z</time>
      </trkpt>
      <trkpt lat="44.02017" lon="3.66045">
        <ele>359</ele>
        <time>2012-03-03T13:34:51Z</time>
      </trkpt>
      <trkpt lat="44.02021" lon="3.66045">
        <ele>359</ele>
        <time>2012-03-03T13:34:56Z</time>
      </trkpt>
      <trkpt lat="44.02026" lon="3.66048">
        <ele>360</ele>
        <time>2012-03-03T13:35:01Z</time>
      </trkpt>
      <trkpt lat="44.02032" lon="3.66051">
        <ele>361</ele>
        <time>2012-03-03T13:35:06Z</time>
      </trkpt>
      <trkpt lat="44.02037" lon="3.66049">
        <ele>361</ele>
        <time>2012-03-03T13:35:11Z</time>
      </trkpt>
      <trkpt lat="44.02042" lon="3.66049">
        <ele>362</ele>
        <time>2012-03-03T13:35:16Z</time>
      </trkpt>
      <trkpt lat="44.02048" lon="3.66045">
        <ele>362</ele>
        <time>2012-03-03T13:35:21Z</time>
      </trkpt>
      <trkpt lat="44.02055" lon="3.66041">
        <ele>362</ele>
        <time>2012-03-03T13:35:26Z</time>
      </trkpt>
      <trkpt lat="44.0206" lon="3.6604">
        <ele>362</ele>
        <time>2012-03-03T13:35:31Z</time>
      </trkpt>
      <trkpt lat="44.02065" lon="3.6604">
        <ele>362</ele>
        <time>2012-03-03T13:35:36Z</time>
      </trkpt>
      <trkpt lat="44.02069" lon="3.66041">
        <ele>363</ele>
        <time>2012-03-03T13:35:41Z</time>
      </trkpt>
      <trkpt lat="44.02075" lon="3.66041">
        <ele>363</ele>
        <time>2012-03-03T13:35:46Z</time>
      </trkpt>
      <trkpt lat="44.02081" lon="3.66042">
        <ele>364</ele>
        <time>2012-03-03T13:35:51Z</time>
      </trkpt>
      <trkpt lat="44.02085" lon="3.66041">
        <ele>373</ele>
        <time>2012-03-03T13:35:56Z</time>
      </trkpt>
      <trkpt lat="44.02091" lon="3.66039">
        <ele>372</ele>
        <time>2012-03-03T13:36:01Z</time>
      </trkpt>
      <trkpt lat="44.02099" lon="3.6604">
        <ele>373</ele>
        <time>2012-03-03T13:36:06Z</time>
      </trkpt>
      <trkpt lat="44.02104" lon="3.6604">
        <ele>373</ele>
        <time>2012-03-03T13:36:11Z</time>
      </trkpt>
      <trkpt lat="44.0211" lon="3.6604">
        <ele>374</ele>
        <time>2012-03-03T13:36:16Z</time>
      </trkpt>
      <trkpt lat="44.02116" lon="3.66041">
        <ele>374</ele>
        <time>2012-03-03T13:36:21Z</time>
      </trkpt>
      <trkpt lat="44.02121" lon="3.66043">
        <ele>375</ele>
        <time>2012-03-03T13:36:26Z</time>
      </trkpt>
      <trkpt lat="44.02124" lon="3.66043">
        <ele>375</ele>
        <time>2012-03-03T13:36:31Z</time>
      </trkpt>
      <trkpt lat="44.02129" lon="3.66046">
        <ele>376</ele>
        <time>2012-03-03T13:36:36Z</time>
      </trkpt>
      <trkpt lat="44.02133" lon="3.6605">
        <ele>377</ele>
        <time>2012-03-03T13:36:41Z</time>
      </trkpt>
      <trkpt lat="44.02138" lon="3.66053">
        <ele>378</ele>
        <time>2012-03-03T13:36:46Z</time>
      </trkpt>
      <trkpt lat="44.02142" lon="3.66055">
        <ele>379</ele>
        <time>2012-03-03T13:36:51Z</time>
      </trkpt>
      <trkpt lat="44.02145" lon="3.66056">
        <ele>380</ele>
        <time>2012-03-03T13:36:56Z</time>
      </trkpt>
      <trkpt lat="44.0215" lon="3.66061">
        <ele>381</ele>
        <time>2012-03-03T13:37:01Z</time>
      </trkpt>
      <trkpt lat="44.0215" lon="3.66066">
        <ele>383</ele>
        <time>2012-03-03T13:37:06Z</time>
      </trkpt>
      <trkpt lat="44.0215" lon="3.6607">
        <ele>384</ele>
        <time>2012-03-03T13:37:11Z</time>
      </trkpt>
      <trkpt lat="44.0215" lon="3.66076">
        <ele>385</ele>
        <time>2012-03-03T13:37:16Z</time>
      </trkpt>
      <trkpt lat="44.0215" lon="3.66079">
        <ele>386</ele>
        <time>2012-03-03T13:37:21Z</time>
      </trkpt>
      <trkpt lat="44.02151" lon="3.66082">
        <ele>386</ele>
        <time>2012-03-03T13:37:26Z</time>
      </trkpt>
      <trkpt lat="44.02153" lon="3.66083">
        <ele>387</ele>
        <time>2012-03-03T13:37:31Z</time>
      </trkpt>
      <trkpt lat="44.02153" lon="3.66087">
        <ele>399</ele>
        <time>2012-03-03T13:37:36Z</time>
      </trkpt>
      <trkpt lat="44.02152" lon="3.66091">
        <ele>399</ele>
        <time>2012-03-03T13:37:41Z</time>
      </trkpt>
      <trkpt lat="44.02152" lon="3.66092">
        <ele>399</ele>
        <time>2012-03-03T13:37:46Z</time>
      </trkpt>
      <trkpt lat="44.02155" lon="3.66092">
        <ele>399</ele>
        <time>2012-03-03T13:37:51Z</time>
      </trkpt>
      <trkpt lat="44.02158" lon="3.66093">
        <ele>399</ele>
        <time>2012-03-03T13:37:56Z</time>
      </trkpt>
      <trkpt lat="44.02161" lon="3.66094">
        <ele>399</ele>
        <time>2012-03-03T13:38:01Z</time>
      </trkpt>
      <trkpt lat="44.02164" lon="3.66095">
        <ele>399</ele>
        <time>2012-03-03T13:38:06Z</time>
      </trkpt>
      <trkpt lat="44.02167" lon="3.66097">
        <ele>404</ele>
        <time>2012-03-03T13:38:11Z</time>
      </trkpt>
      <trkpt lat="44.0217" lon="3.66097">
        <ele>404</ele>
        <time>2012-03-03T13:38:16Z</time>
      </trkpt>
      <trkpt lat="44.02175" lon="3.66098">
        <ele>406</ele>
        <time>2012-03-03T13:38:21Z</time>
      </trkpt>
      <trkpt lat="44.02182" lon="3.66098">
        <ele>407</ele>
        <time>2012-03-03T13:38:26Z</time>
      </trkpt>
      <trkpt lat="44.02187" lon="3.66098">
        <ele>408</ele>
        <time>2012-03-03T13:38:31Z</time>
      </trkpt>
      <trkpt lat="44.02195" lon="3.66096">
        <ele>409</ele>
        <time>2012-03-03T13:38:36Z</time>
      </trkpt>
      <trkpt lat="44.02204" lon="3.66092">
        <ele>410</ele>
        <time>2012-03-03T13:38:41Z</time>
      </trkpt>
      <trkpt lat="44.02216" lon="3.66088">
        <ele>410</ele>
        <time>2012-03-03T13:38:46Z</time>
      </trkpt>
      <trkpt lat="44.02227" lon="3.66086">
        <ele>410</ele>
        <time>2012-03-03T13:38:51Z</time>
      </trkpt>
      <trkpt lat="44.02238" lon="3.66088">
        <ele>409</ele>
        <time>2012-03-03T13:38:56Z</time>
      </trkpt>
      <trkpt lat="44.02246" lon="3.66094">
        <ele>409</ele>
        <time>2012-03-03T13:39:01Z</time>
      </trkpt>
      <trkpt lat="44.02253" lon="3.66097">
        <ele>414</ele>
        <time>2012-03-03T13:39:06Z</time>
      </trkpt>
      <trkpt lat="44.02263" lon="3.66102">
        <ele>418</ele>
        <time>2012-03-03T13:39:11Z</time>
      </trkpt>
      <trkpt lat="44.02273" lon="3.66104">
        <ele>420</ele>
        <time>2012-03-03T13:39:16Z</time>
      </trkpt>
      <trkpt lat="44.02279" lon="3.661">
        <ele>421</ele>
        <time>2012-03-03T13:39:21Z</time>
      </trkpt>
      <trkpt lat="44.02283" lon="3.66094">
        <ele>420</ele>
        <time>2012-03-03T13:39:26Z</time>
      </trkpt>
      <trkpt lat="44.02286" lon="3.66086">
        <ele>420</ele>
        <time>2012-03-03T13:39:31Z</time>
      </trkpt>
      <trkpt lat="44.02288" lon="3.66078">
        <ele>404</ele>
        <time>2012-03-03T13:39:36Z</time>
      </trkpt>
      <trkpt lat="44.02294" lon="3.66071">
        <ele>404</ele>
        <time>2012-03-03T13:39:41Z</time>
      </trkpt>
      <trkpt lat="44.02299" lon="3.66065">
        <ele>404</ele>
        <time>2012-03-03T13:39:46Z</time>
      </trkpt>
      <trkpt lat="44.02305" lon="3.66063">
        <ele>405</ele>
        <time>2012-03-03T13:39:51Z</time>
      </trkpt>
      <trkpt lat="44.0231" lon="3.66062">
        <ele>405</ele>
        <time>2012-03-03T13:39:56Z</time>
      </trkpt>
      <trkpt lat="44.02314" lon="3.66062">
        <ele>406</ele>
        <time>2012-03-03T13:40:01Z</time>
      </trkpt>
      <trkpt lat="44.02317" lon="3.66061">
        <ele>407</ele>
        <time>2012-03-03T13:40:06Z</time>
      </trkpt>
      <trkpt lat="44.02318" lon="3.66062">
        <ele>407</ele>
        <time>2012-03-03T13:40:11Z</time>
      </trkpt>
      <trkpt lat="44.02321" lon="3.66061">
        <ele>407</ele>
        <time>2012-03-03T13:40:16Z</time>
      </trkpt>
      <trkpt lat="44.02322" lon="3.66062">
        <ele>407</ele>
        <time>2012-03-03T13:40:21Z</time>
      </trkpt>
      <trkpt lat="44.02324" lon="3.66066">
        <ele>409</ele>
        <time>2012-03-03T13:40:26Z</time>
      </trkpt>
      <trkpt lat="44.02327" lon="3.66066">
        <ele>409</ele>
        <time>2012-03-03T13:40:31Z</time>
      </trkpt>
      <trkpt lat="44.0233" lon="3.66067">
        <ele>410</ele>
        <time>2012-03-03T13:40:36Z</time>
      </trkpt>
      <trkpt lat="44.02331" lon="3.66071">
        <ele>412</ele>
        <time>2012-03-03T13:40:41Z</time>
      </trkpt>
      <trkpt lat="44.02333" lon="3.66076">
        <ele>415</ele>
        <time>2012-03-03T13:40:46Z</time>
      </trkpt>
      <trkpt lat="44.02333" lon="3.66078">
        <ele>416</ele>
        <time>2012-03-03T13:40:51Z</time>
      </trkpt>
      <trkpt lat="44.02336" lon="3.66079">
        <ele>419</ele>
        <time>2012-03-03T13:40:56Z</time>
      </trkpt>
      <trkpt lat="44.02338" lon="3.66078">
        <ele>419</ele>
        <time>2012-03-03T13:41:01Z</time>
      </trkpt>
      <trkpt lat="44.02342" lon="3.66081">
        <ele>419</ele>
        <time>2012-03-03T13:41:06Z</time>
      </trkpt>
      <trkpt lat="44.02344" lon="3.66086">
        <ele>427</ele>
        <time>2012-03-03T13:41:11Z</time>
      </trkpt>
      <trkpt lat="44.02345" lon="3.66091">
        <ele>428</ele>
        <time>2012-03-03T13:41:16Z</time>
      </trkpt>
      <trkpt lat="44.02347" lon="3.66096">
        <ele>430</ele>
        <time>2012-03-03T13:41:21Z</time>
      </trkpt>
      <trkpt lat="44.02346" lon="3.66104">
        <ele>432</ele>
        <time>2012-03-03T13:41:26Z</time>
      </trkpt>
      <trkpt lat="44.02346" lon="3.66109">
        <ele>433</ele>
        <time>2012-03-03T13:41:31Z</time>
      </trkpt>
      <trkpt lat="44.02348" lon="3.66118">
        <ele>436</ele>
        <time>2012-03-03T13:41:36Z</time>
      </trkpt>
      <trkpt lat="44.02352" lon="3.6613">
        <ele>438</ele>
        <time>2012-03-03T13:41:41Z</time>
      </trkpt>
      <trkpt lat="44.02354" lon="3.66135">
        <ele>439</ele>
        <time>2012-03-03T13:41:46Z</time>
      </trkpt>
      <trkpt lat="44.02355" lon="3.66142">
        <ele>440</ele>
        <time>2012-03-03T13:41:51Z</time>
      </trkpt>
      <trkpt lat="44.02357" lon="3.66148">
        <ele>441</ele>
        <time>2012-03-03T13:41:56Z</time>
      </trkpt>
      <trkpt lat="44.02357" lon="3.66153">
        <ele>442</ele>
        <time>2012-03-03T13:42:01Z</time>
      </trkpt>
      <trkpt lat="44.02358" lon="3.6616">
        <ele>442</ele>
        <time>2012-03-03T13:42:06Z</time>
      </trkpt>
      <trkpt lat="44.02358" lon="3.66166">
        <ele>443</ele>
        <time>2012-03-03T13:42:11Z</time>
      </trkpt>
      <trkpt lat="44.02356" lon="3.66175">
        <ele>455</ele>
        <time>2012-03-03T13:42:16Z</time>
      </trkpt>
      <trkpt lat="44.02356" lon="3.6618">
        <ele>456</ele>
        <time>2012-03-03T13:42:21Z</time>
      </trkpt>
      <trkpt lat="44.02354" lon="3.66183">
        <ele>456</ele>
        <time>2012-03-03T13:42:26Z</time>
      </trkpt>
      <trkpt lat="44.02356" lon="3.6618">
        <ele>456</ele>
        <time>2012-03-03T13:42:31Z</time>
      </trkpt>
      <trkpt lat="44.0236" lon="3.66177">
        <ele>456</ele>
        <time>2012-03-03T13:42:36Z</time>
      </trkpt>
      <trkpt lat="44.02363" lon="3.66178">
        <ele>457</ele>
        <time>2012-03-03T13:42:41Z</time>
      </trkpt>
      <trkpt lat="44.02365" lon="3.66183">
        <ele>458</ele>
        <time>2012-03-03T13:42:46Z</time>
      </trkpt>
      <trkpt lat="44.02367" lon="3.66185">
        <ele>459</ele>
        <time>2012-03-03T13:42:51Z</time>
      </trkpt>
      <trkpt lat="44.02369" lon="3.66185">
        <ele>459</ele>
        <time>2012-03-03T13:42:56Z</time>
      </trkpt>
      <trkpt lat="44.02372" lon="3.66185">
        <ele>459</ele>
        <time>2012-03-03T13:43:01Z</time>
      </trkpt>
      <trkpt lat="44.02378" lon="3.66189">
        <ele>460</ele>
        <time>2012-03-03T13:43:06Z</time>
      </trkpt>
      <trkpt lat="44.02382" lon="3.66193">
        <ele>461</ele>
        <time>2012-03-03T13:43:11Z</time>
      </trkpt>
      <trkpt lat="44.02385" lon="3.66192">
        <ele>461</ele>
        <time>2012-03-03T13:43:16Z</time>
      </trkpt>
      <trkpt lat="44.0239" lon="3.66195">
        <ele>462</ele>
        <time>2012-03-03T13:43:21Z</time>
      </trkpt>
      <trkpt lat="44.02394" lon="3.66195">
        <ele>462</ele>
        <time>2012-03-03T13:43:26Z</time>
      </trkpt>
      <trkpt lat="44.02397" lon="3.66195">
        <ele>462</ele>
        <time>2012-03-03T13:43:31Z</time>
      </trkpt>
      <trkpt lat="44.024" lon="3.66192">
        <ele>462</ele>
        <time>2012-03-03T13:43:36Z</time>
      </trkpt>
      <trkpt lat="44.02405" lon="3.6619">
        <ele>462</ele>
        <time>2012-03-03T13:43:41Z</time>
      </trkpt>
      <trkpt lat="44.02413" lon="3.66191">
        <ele>462</ele>
        <time>2012-03-03T13:43:46Z</time>
      </trkpt>
      <trkpt lat="44.02421" lon="3.66184">
        <ele>469</ele>
        <time>2012-03-03T13:43:51Z</time>
      </trkpt>
      <trkpt lat="44.02426" lon="3.66175">
        <ele>466</ele>
        <time>2012-03-03T13:43:56Z</time>
      </trkpt>
      <trkpt lat="44.02431" lon="3.6617">
        <ele>467</ele>
        <time>2012-03-03T13:44:01Z</time>
      </trkpt>
      <trkpt lat="44.02437" lon="3.66166">
        <ele>458</ele>
        <time>2012-03-03T13:44:06Z</time>
      </trkpt>
      <trkpt lat="44.02441" lon="3.66161">
        <ele>458</ele>
        <time>2012-03-03T13:44:11Z</time>
      </trkpt>
      <trkpt lat="44.02446" lon="3.66156">
        <ele>459</ele>
        <time>2012-03-03T13:44:16Z</time>
      </trkpt>
      <trkpt lat="44.02453" lon="3.66158">
        <ele>459</ele>
        <time>2012-03-03T13:44:21Z</time>
      </trkpt>
      <trkpt lat="44.02457" lon="3.6616">
        <ele>460</ele>
        <time>2012-03-03T13:44:26Z</time>
      </trkpt>
      <trkpt lat="44.02462" lon="3.66163">
        <ele>461</ele>
        <time>2012-03-03T13:44:31Z</time>
      </trkpt>
      <trkpt lat="44.02464" lon="3.66165">
        <ele>462</ele>
        <time>2012-03-03T13:44:36Z</time>
      </trkpt>
      <trkpt lat="44.02473" lon="3.66164">
        <ele>464</ele>
        <time>2012-03-03T13:44:41Z</time>
      </trkpt>
      <trkpt lat="44.02478" lon="3.6616">
        <ele>465</ele>
        <time>2012-03-03T13:44:46Z</time>
      </trkpt>
      <trkpt lat="44.02484" lon="3.66154">
        <ele>465</ele>
        <time>2012-03-03T13:44:51Z</time>
      </trkpt>
      <trkpt lat="44.02489" lon="3.66154">
        <ele>467</ele>
        <time>2012-03-03T13:44:56Z</time>
      </trkpt>
      <trkpt lat="44.02495" lon="3.6616">
        <ele>471</ele>
        <time>2012-03-03T13:45:01Z</time>
      </trkpt>
      <trkpt lat="44.02499" lon="3.66162">
        <ele>473</ele>
        <time>2012-03-03T13:45:06Z</time>
      </trkpt>
      <trkpt lat="44.02503" lon="3.66163">
        <ele>476</ele>
        <time>2012-03-03T13:45:11Z</time>
      </trkpt>
      <trkpt lat="44.02507" lon="3.66164">
        <ele>476</ele>
        <time>2012-03-03T13:45:16Z</time>
      </trkpt>
      <trkpt lat="44.02512" lon="3.66166">
        <ele>475</ele>
        <time>2012-03-03T13:45:21Z</time>
      </trkpt>
      <trkpt lat="44.02516" lon="3.66166">
        <ele>475</ele>
        <time>2012-03-03T13:45:26Z</time>
      </trkpt>
      <trkpt lat="44.02521" lon="3.66165">
        <ele>475</ele>
        <time>2012-03-03T13:45:31Z</time>
      </trkpt>
      <trkpt lat="44.02525" lon="3.66165">
        <ele>475</ele>
        <time>2012-03-03T13:45:36Z</time>
      </trkpt>
      <trkpt lat="44.02529" lon="3.66173">
        <ele>488</ele>
        <time>2012-03-03T13:45:41Z</time>
      </trkpt>
      <trkpt lat="44.02533" lon="3.66179">
        <ele>489</ele>
        <time>2012-03-03T13:45:46Z</time>
      </trkpt>
      <trkpt lat="44.02537" lon="3.6618">
        <ele>489</ele>
        <time>2012-03-03T13:45:51Z</time>
      </trkpt>
      <trkpt lat="44.02541" lon="3.66182">
        <ele>490</ele>
        <time>2012-03-03T13:45:56Z</time>
      </trkpt>
      <trkpt lat="44.02544" lon="3.66181">
        <ele>490</ele>
        <time>2012-03-03T13:46:01Z</time>
      </trkpt>
      <trkpt lat="44.02549" lon="3.66187">
        <ele>491</ele>
        <time>2012-03-03T13:46:06Z</time>
      </trkpt>
      <trkpt lat="44.02552" lon="3.66193">
        <ele>492</ele>
        <time>2012-03-03T13:46:11Z</time>
      </trkpt>
      <trkpt lat="44.02554" lon="3.662">
        <ele>493</ele>
        <time>2012-03-03T13:46:16Z</time>
      </trkpt>
      <trkpt lat="44.02554" lon="3.66207">
        <ele>494</ele>
        <time>2012-03-03T13:46:21Z</time>
      </trkpt>
      <trkpt lat="44.02554" lon="3.66212">
        <ele>494</ele>
        <time>2012-03-03T13:46:26Z</time>
      </trkpt>
      <trkpt lat="44.02554" lon="3.66214">
        <ele>495</ele>
        <time>2012-03-03T13:46:31Z</time>
      </trkpt>
      <trkpt lat="44.02555" lon="3.6622">
        <ele>496</ele>
        <time>2012-03-03T13:46:36Z</time>
      </trkpt>
      <trkpt lat="44.02556" lon="3.66228">
        <ele>497</ele>
        <time>2012-03-03T13:46:41Z</time>
      </trkpt>
      <trkpt lat="44.02554" lon="3.66234">
        <ele>497</ele>
        <time>2012-03-03T13:46:46Z</time>
      </trkpt>
      <trkpt lat="44.02554" lon="3.6624">
        <ele>498</ele>
        <time>2012-03-03T13:46:51Z</time>
      </trkpt>
      <trkpt lat="44.02553" lon="3.66245">
        <ele>498</ele>
        <time>2012-03-03T13:46:56Z</time>
      </trkpt>
      <trkpt lat="44.02555" lon="3.66244">
        <ele>499</ele>
        <time>2012-03-03T13:47:01Z</time>
      </trkpt>
      <trkpt lat="44.02558" lon="3.66243">
        <ele>499</ele>
        <time>2012-03-03T13:47:06Z</time>
      </trkpt>
      <trkpt lat="44.02561" lon="3.66241">
        <ele>500</ele>
        <time>2012-03-03T13:47:11Z</time>
      </trkpt>
      <trkpt lat="44.02565" lon="3.66241">
        <ele>501</ele>
        <time>2012-03-03T13:47:16Z</time>
      </trkpt>
      <trkpt lat="44.02569" lon="3.66241">
        <ele>502</ele>
        <time>2012-03-03T13:47:21Z</time>
      </trkpt>
      <trkpt lat="44.02573" lon="3.66244">
        <ele>503</ele>
        <time>2012-03-03T13:47:26Z</time>
      </trkpt>
      <trkpt lat="44.02575" lon="3.66248">
        <ele>505</ele>
        <time>2012-03-03T13:47:31Z</time>
      </trkpt>
      <trkpt lat="44.0258" lon="3.66249">
        <ele>508</ele>
        <time>2012-03-03T13:47:36Z</time>
      </trkpt>
      <trkpt lat="44.02584" lon="3.66249">
        <ele>510</ele>
        <time>2012-03-03T13:47:41Z</time>
      </trkpt>
      <trkpt lat="44.02588" lon="3.66249">
        <ele>510</ele>
        <time>2012-03-03T13:47:46Z</time>
      </trkpt>
      <trkpt lat="44.02591" lon="3.66251">
        <ele>516</ele>
        <time>2012-03-03T13:47:51Z</time>
      </trkpt>
      <trkpt lat="44.02595" lon="3.66252">
        <ele>518</ele>
        <time>2012-03-03T13:47:56Z</time>
      </trkpt>
      <trkpt lat="44.02599" lon="3.66254">
        <ele>520</ele>
        <time>2012-03-03T13:48:01Z</time>
      </trkpt>
      <trkpt lat="44.02604" lon="3.66254">
        <ele>522</ele>
        <time>2012-03-03T13:48:06Z</time>
      </trkpt>
      <trkpt lat="44.02609" lon="3.66257">
        <ele>523</ele>
        <time>2012-03-03T13:48:11Z</time>
      </trkpt>
      <trkpt lat="44.0261" lon="3.66265">
        <ele>524</ele>
        <time>2012-03-03T13:48:16Z</time>
      </trkpt>
      <trkpt lat="44.026" lon="3.66274">
        <ele>524</ele>
        <time>2012-03-03T13:48:21Z</time>
      </trkpt>
      <trkpt lat="44.02589" lon="3.66283">
        <ele>525</ele>
        <time>2012-03-03T13:48:26Z</time>
      </trkpt>
      <trkpt lat="44.02581" lon="3.66292">
        <ele>517</ele>
        <time>2012-03-03T13:48:31Z</time>
      </trkpt>
      <trkpt lat="44.02572" lon="3.66302">
        <ele>519</ele>
        <time>2012-03-03T13:48:36Z</time>
      </trkpt>
      <trkpt lat="44.02565" lon="3.6631">
        <ele>519</ele>
        <time>2012-03-03T13:48:41Z</time>
      </trkpt>
      <trkpt lat="44.02558" lon="3.66316">
        <ele>519</ele>
        <time>2012-03-03T13:48:46Z</time>
      </trkpt>
      <trkpt lat="44.02554" lon="3.66319">
        <ele>519</ele>
        <time>2012-03-03T13:48:51Z</time>
      </trkpt>
      <trkpt lat="44.02555" lon="3.66325">
        <ele>520</ele>
        <time>2012-03-03T13:48:56Z</time>
      </trkpt>
      <trkpt lat="44.02556" lon="3.66332">
        <ele>521</ele>
        <time>2012-03-03T13:49:01Z</time>
      </trkpt>
      <trkpt lat="44.02551" lon="3.6634">
        <ele>532</ele>
        <time>2012-03-03T13:49:06Z</time>
      </trkpt>
      <trkpt lat="44.02542" lon="3.66344">
        <ele>531</ele>
        <time>2012-03-03T13:49:11Z</time>
      </trkpt>
      <trkpt lat="44.02535" lon="3.66345">
        <ele>530</ele>
        <time>2012-03-03T13:49:16Z</time>
      </trkpt>
      <trkpt lat="44.02537" lon="3.66349">
        <ele>531</ele>
        <time>2012-03-03T13:49:21Z</time>
      </trkpt>
      <trkpt lat="44.0254" lon="3.66355">
        <ele>532</ele>
        <time>2012-03-03T13:49:26Z</time>
      </trkpt>
      <trkpt lat="44.02542" lon="3.66364">
        <ele>533</ele>
        <time>2012-03-03T13:49:31Z</time>
      </trkpt>
      <trkpt lat="44.02543" lon="3.6637">
        <ele>534</ele>
        <time>2012-03-03T13:49:36Z</time>
      </trkpt>
      <trkpt lat="44.02544" lon="3.66377">
        <ele>535</ele>
        <time>2012-03-03T13:49:41Z</time>
      </trkpt>
      <trkpt lat="44.02547" lon="3.66377">
        <ele>535</ele>
        <time>2012-03-03T13:49:46Z</time>
      </trkpt>
      <trkpt lat="44.02552" lon="3.66372">
        <ele>535</ele>
        <time>2012-03-03T13:49:51Z</time>
      </trkpt>
      <trkpt lat="44.02559" lon="3.66368">
        <ele>535</ele>
        <time>2012-03-03T13:49:56Z</time>
      </trkpt>
      <trkpt lat="44.02571" lon="3.66361">
        <ele>535</ele>
        <time>2012-03-03T13:50:01Z</time>
      </trkpt>
      <trkpt lat="44.02581" lon="3.66349">
        <ele>534</ele>
        <time>2012-03-03T13:50:06Z</time>
      </trkpt>
      <trkpt lat="44.0259" lon="3.66341">
        <ele>539</ele>
        <time>2012-03-03T13:50:11Z</time>
      </trkpt>
      <trkpt lat="44.02604" lon="3.66335">
        <ele>543</ele>
        <time>2012-03-03T13:50:16Z</time>
      </trkpt>
      <trkpt lat="44.02613" lon="3.66332">
        <ele>533</ele>
        <time>2012-03-03T13:50:21Z</time>
      </trkpt>
      <trkpt lat="44.02618" lon="3.66331">
        <ele>534</ele>
        <time>2012-03-03T13:50:26Z</time>
      </trkpt>
      <trkpt lat="44.02618" lon="3.66331">
        <ele>534</ele>
        <time>2012-03-03T13:50:31Z</time>
      </trkpt>
      <trkpt lat="44.02618" lon="3.66332">
        <ele>534</ele>
        <time>2012-03-03T13:50:36Z</time>
      </trkpt>
      <trkpt lat="44.02618" lon="3.66332">
        <ele>534</ele>
        <time>2012-03-03T13:50:41Z</time>
      </trkpt>
      <trkpt lat="44.02619" lon="3.66332">
        <ele>534</ele>
        <time>2012-03-03T13:50:46Z</time>
      </trkpt>
      <trkpt lat="44.0262" lon="3.66333">
        <ele>534</ele>
        <time>2012-03-03T13:50:51Z</time>
      </trkpt>
      <trkpt lat="44.0262" lon="3.66333">
        <ele>534</ele>
        <time>2012-03-03T13:50:56Z</time>
      </trkpt>
      <trkpt lat="44.0262" lon="3.66333">
        <ele>534</ele>
        <time>2012-03-03T13:51:01Z</time>
      </trkpt>
      <trkpt lat="44.0262" lon="3.66334">
        <ele>547</ele>
        <time>2012-03-03T13:51:06Z</time>
      </trkpt>
      <trkpt lat="44.02623" lon="3.66329">
        <ele>534</ele>
        <time>2012-03-03T13:51:11Z</time>
      </trkpt>
      <trkpt lat="44.02628" lon="3.66323">
        <ele>535</ele>
        <time>2012-03-03T13:51:16Z</time>
      </trkpt>
      <trkpt lat="44.02639" lon="3.66313">
        <ele>535</ele>
        <time>2012-03-03T13:51:21Z</time>
      </trkpt>
      <trkpt lat="44.02646" lon="3.66305">
        <ele>535</ele>
        <time>2012-03-03T13:51:26Z</time>
      </trkpt>
      <trkpt lat="44.02655" lon="3.66292">
        <ele>533</ele>
        <time>2012-03-03T13:51:31Z</time>
      </trkpt>
      <trkpt lat="44.02662" lon="3.66277">
        <ele>531</ele>
        <time>2012-03-03T13:51:36Z</time>
      </trkpt>
      <trkpt lat="44.02671" lon="3.66271">
        <ele>539</ele>
        <time>2012-03-03T13:51:41Z</time>
      </trkpt>
      <trkpt lat="44.02672" lon="3.66274">
        <ele>541</ele>
        <time>2012-03-03T13:51:46Z</time>
      </trkpt>
      <trkpt lat="44.02673" lon="3.66276">
        <ele>541</ele>
        <time>2012-03-03T13:51:51Z</time>
      </trkpt>
      <trkpt lat="44.02677" lon="3.66278">
        <ele>542</ele>
        <time>2012-03-03T13:51:56Z</time>
      </trkpt>
      <trkpt lat="44.02679" lon="3.66281">
        <ele>543</ele>
        <time>2012-03-03T13:52:01Z</time>
      </trkpt>
      <trkpt lat="44.02682" lon="3.66282">
        <ele>544</ele>
        <time>2012-03-03T13:52:06Z</time>
      </trkpt>
      <trkpt lat="44.02686" lon="3.66284">
        <ele>544</ele>
        <time>2012-03-03T13:52:11Z</time>
      </trkpt>
      <trkpt lat="44.02689" lon="3.66287">
        <ele>545</ele>
        <time>2012-03-03T13:52:16Z</time>
      </trkpt>
      <trkpt lat="44.02691" lon="3.66289">
        <ele>546</ele>
        <time>2012-03-03T13:52:21Z</time>
      </trkpt>
      <trkpt lat="44.02693" lon="3.6629">
        <ele>546</ele>
        <time>2012-03-03T13:52:26Z</time>
      </trkpt>
      <trkpt lat="44.02697" lon="3.66293">
        <ele>547</ele>
        <time>2012-03-03T13:52:31Z</time>
      </trkpt>
      <trkpt lat="44.02702" lon="3.66291">
        <ele>547</ele>
        <time>2012-03-03T13:52:36Z</time>
      </trkpt>
      <trkpt lat="44.02706" lon="3.6629">
        <ele>547</ele>
        <time>2012-03-03T13:52:41Z</time>
      </trkpt>
      <trkpt lat="44.0271" lon="3.66287">
        <ele>547</ele>
        <time>2012-03-03T13:52:46Z</time>
      </trkpt>
      <trkpt lat="44.02713" lon="3.66288">
        <ele>548</ele>
        <time>2012-03-03T13:52:51Z</time>
      </trkpt>
      <trkpt lat="44.02717" lon="3.66288">
        <ele>548</ele>
        <time>2012-03-03T13:52:56Z</time>
      </trkpt>
      <trkpt lat="44.02721" lon="3.66288">
        <ele>549</ele>
        <time>2012-03-03T13:53:01Z</time>
      </trkpt>
      <trkpt lat="44.02725" lon="3.66291">
        <ele>549</ele>
        <time>2012-03-03T13:53:06Z</time>
      </trkpt>
      <trkpt lat="44.02728" lon="3.66291">
        <ele>549</ele>
        <time>2012-03-03T13:53:11Z</time>
      </trkpt>
      <trkpt lat="44.02733" lon="3.6629">
        <ele>550</ele>
        <time>2012-03-03T13:53:16Z</time>
      </trkpt>
      <trkpt lat="44.02737" lon="3.66289">
        <ele>550</ele>
        <time>2012-03-03T13:53:21Z</time>
      </trkpt>
      <trkpt lat="44.02741" lon="3.66291">
        <ele>550</ele>
        <time>2012-03-03T13:53:26Z</time>
      </trkpt>
      <trkpt lat="44.02746" lon="3.66292">
        <ele>551</ele>
        <time>2012-03-03T13:53:31Z</time>
      </trkpt>
      <trkpt lat="44.02752" lon="3.66288">
        <ele>558</ele>
        <time>2012-03-03T13:53:36Z</time>
      </trkpt>
      <trkpt lat="44.02757" lon="3.66285">
        <ele>558</ele>
        <time>2012-03-03T13:53:41Z</time>
      </trkpt>
      <trkpt lat="44.02764" lon="3.66281">
        <ele>557</ele>
        <time>2012-03-03T13:53:46Z</time>
      </trkpt>
      <trkpt lat="44.02769" lon="3.66277">
        <ele>557</ele>
        <time>2012-03-03T13:53:51Z</time>
      </trkpt>
      <trkpt lat="44.02774" lon="3.66274">
        <ele>557</ele>
        <time>2012-03-03T13:53:56Z</time>
      </trkpt>
      <trkpt lat="44.02778" lon="3.66271">
        <ele>558</ele>
        <time>2012-03-03T13:54:01Z</time>
      </trkpt>
      <trkpt lat="44.02781" lon="3.66267">
        <ele>558</ele>
        <time>2012-03-03T13:54:06Z</time>
      </trkpt>
      <trkpt lat="44.02788" lon="3.66265">
        <ele>559</ele>
        <time>2012-03-03T13:54:11Z</time>
      </trkpt>
      <trkpt lat="44.02795" lon="3.66266">
        <ele>559</ele>
        <time>2012-03-03T13:54:16Z</time>
      </trkpt>
      <trkpt lat="44.02801" lon="3.66268">
        <ele>560</ele>
        <time>2012-03-03T13:54:21Z</time>
      </trkpt>
      <trkpt lat="44.02811" lon="3.66271">
        <ele>561</ele>
        <time>2012-03-03T13:54:26Z</time>
      </trkpt>
      <trkpt lat="44.0282" lon="3.66277">
        <ele>561</ele>
        <time>2012-03-03T13:54:31Z</time>
      </trkpt>
      <trkpt lat="44.02834" lon="3.6627">
        <ele>567</ele>
        <time>2012-03-03T13:54:36Z</time>
      </trkpt>
      <trkpt lat="44.02841" lon="3.66266">
        <ele>567</ele>
        <time>2012-03-03T13:54:41Z</time>
      </trkpt>
      <trkpt lat="44.02849" lon="3.66274">
        <ele>568</ele>
        <time>2012-03-03T13:54:46Z</time>
      </trkpt>
      <trkpt lat="44.02857" lon="3.66278">
        <ele>568</ele>
        <time>2012-03-03T13:54:51Z</time>
      </trkpt>
      <trkpt lat="44.02868" lon="3.66282">
        <ele>569</ele>
        <time>2012-03-03T13:54:56Z</time>
      </trkpt>
      <trkpt lat="44.02877" lon="3.66285">
        <ele>569</ele>
        <time>2012-03-03T13:55:01Z</time>
      </trkpt>
      <trkpt lat="44.02886" lon="3.66294">
        <ele>569</ele>
        <time>2012-03-03T13:55:06Z</time>
      </trkpt>
      <trkpt lat="44.02894" lon="3.66301">
        <ele>569</ele>
        <time>2012-03-03T13:55:11Z</time>
      </trkpt>
      <trkpt lat="44.02904" lon="3.66305">
        <ele>569</ele>
        <time>2012-03-03T13:55:16Z</time>
      </trkpt>
      <trkpt lat="44.02915" lon="3.6631">
        <ele>569</ele>
        <time>2012-03-03T13:55:21Z</time>
      </trkpt>
      <trkpt lat="44.02924" lon="3.66316">
        <ele>578</ele>
        <time>2012-03-03T13:55:26Z</time>
      </trkpt>
      <trkpt lat="44.02934" lon="3.66323">
        <ele>579</ele>
        <time>2012-03-03T13:55:31Z</time>
      </trkpt>
      <trkpt lat="44.02941" lon="3.66332">
        <ele>580</ele>
        <time>2012-03-03T13:55:36Z</time>
      </trkpt>
      <trkpt lat="44.02948" lon="3.66342">
        <ele>574</ele>
        <time>2012-03-03T13:55:41Z</time>
      </trkpt>
      <trkpt lat="44.02952" lon="3.66351">
        <ele>575</ele>
        <time>2012-03-03T13:55:46Z</time>
      </trkpt>
      <trkpt lat="44.02954" lon="3.66357">
        <ele>575</ele>
        <time>2012-03-03T13:55:51Z</time>
      </trkpt>
      <trkpt lat="44.02958" lon="3.66365">
        <ele>575</ele>
        <time>2012-03-03T13:55:56Z</time>
      </trkpt>
      <trkpt lat="44.02961" lon="3.66377">
        <ele>575</ele>
        <time>2012-03-03T13:56:01Z</time>
      </trkpt>
      <trkpt lat="44.02965" lon="3.66393">
        <ele>575</ele>
        <time>2012-03-03T13:56:06Z</time>
      </trkpt>
      <trkpt lat="44.02968" lon="3.66405">
        <ele>575</ele>
        <time>2012-03-03T13:56:11Z</time>
      </trkpt>
      <trkpt lat="44.02973" lon="3.66418">
        <ele>570</ele>
        <time>2012-03-03T13:56:16Z</time>
      </trkpt>
      <trkpt lat="44.02976" lon="3.66427">
        <ele>570</ele>
        <time>2012-03-03T13:56:21Z</time>
      </trkpt>
      <trkpt lat="44.02982" lon="3.66437">
        <ele>570</ele>
        <time>2012-03-03T13:56:26Z</time>
      </trkpt>
      <trkpt lat="44.02985" lon="3.66444">
        <ele>569</ele>
        <time>2012-03-03T13:56:31Z</time>
      </trkpt>
      <trkpt lat="44.02989" lon="3.66454">
        <ele>568</ele>
        <time>2012-03-03T13:56:36Z</time>
      </trkpt>
      <trkpt lat="44.02992" lon="3.66469">
        <ele>568</ele>
        <time>2012-03-03T13:56:41Z</time>
      </trkpt>
      <trkpt lat="44.02996" lon="3.66479">
        <ele>568</ele>
        <time>2012-03-03T13:56:46Z</time>
      </trkpt>
      <trkpt lat="44.03001" lon="3.66486">
        <ele>577</ele>
        <time>2012-03-03T13:56:51Z</time>
      </trkpt>
      <trkpt lat="44.03005" lon="3.66492">
        <ele>576</ele>
        <time>2012-03-03T13:56:56Z</time>
      </trkpt>
      <trkpt lat="44.0301" lon="3.66499">
        <ele>576</ele>
        <time>2012-03-03T13:57:01Z</time>
      </trkpt>
      <trkpt lat="44.03015" lon="3.66502">
        <ele>569</ele>
        <time>2012-03-03T13:57:06Z</time>
      </trkpt>
      <trkpt lat="44.03022" lon="3.66503">
        <ele>568</ele>
        <time>2012-03-03T13:57:11Z</time>
      </trkpt>
      <trkpt lat="44.0303" lon="3.66503">
        <ele>568</ele>
        <time>2012-03-03T13:57:16Z</time>
      </trkpt>
      <trkpt lat="44.03035" lon="3.66504">
        <ele>567</ele>
        <time>2012-03-03T13:57:21Z</time>
      </trkpt>
      <trkpt lat="44.03044" lon="3.665">
        <ele>567</ele>
        <time>2012-03-03T13:57:26Z</time>
      </trkpt>
      <trkpt lat="44.03053" lon="3.66496">
        <ele>579</ele>
        <time>2012-03-03T13:57:31Z</time>
      </trkpt>
      <trkpt lat="44.0306" lon="3.66493">
        <ele>578</ele>
        <time>2012-03-03T13:57:36Z</time>
      </trkpt>
      <trkpt lat="44.03067" lon="3.66487">
        <ele>578</ele>
        <time>2012-03-03T13:57:41Z</time>
      </trkpt>
      <trkpt lat="44.03071" lon="3.66482">
        <ele>579</ele>
        <time>2012-03-03T13:57:46Z</time>
      </trkpt>
      <trkpt lat="44.03073" lon="3.66475">
        <ele>580</ele>
        <time>2012-03-03T13:57:51Z</time>
      </trkpt>
      <trkpt lat="44.03077" lon="3.66468">
        <ele>581</ele>
        <time>2012-03-03T13:57:56Z</time>
      </trkpt>
      <trkpt lat="44.03082" lon="3.66462">
        <ele>583</ele>
        <time>2012-03-03T13:58:01Z</time>
      </trkpt>
      <trkpt lat="44.03085" lon="3.66459">
        <ele>576</ele>
        <time>2012-03-03T13:58:06Z</time>
      </trkpt>
      <trkpt lat="44.03086" lon="3.66455">
        <ele>577</ele>
        <time>2012-03-03T13:58:11Z</time>
      </trkpt>
      <trkpt lat="44.03089" lon="3.6645">
        <ele>578</ele>
        <time>2012-03-03T13:58:16Z</time>
      </trkpt>
      <trkpt lat="44.03091" lon="3.66444">
        <ele>580</ele>
        <time>2012-03-03T13:58:21Z</time>
      </trkpt>
      <trkpt lat="44.03091" lon="3.66441">
        <ele>580</ele>
        <time>2012-03-03T13:58:26Z</time>
      </trkpt>
      <trkpt lat="44.03093" lon="3.66437">
        <ele>582</ele>
        <time>2012-03-03T13:58:31Z</time>
      </trkpt>
      <trkpt lat="44.03094" lon="3.66433">
        <ele>583</ele>
        <time>2012-03-03T13:58:36Z</time>
      </trkpt>
      <trkpt lat="44.03096" lon="3.66428">
        <ele>584</ele>
        <time>2012-03-03T13:58:41Z</time>
      </trkpt>
      <trkpt lat="44.03097" lon="3.66423">
        <ele>586</ele>
        <time>2012-03-03T13:58:46Z</time>
      </trkpt>
      <trkpt lat="44.03097" lon="3.66419">
        <ele>586</ele>
        <time>2012-03-03T13:58:51Z</time>
      </trkpt>
      <trkpt lat="44.031" lon="3.66412">
        <ele>595</ele>
        <time>2012-03-03T13:58:56Z</time>
      </trkpt>
      <trkpt lat="44.03103" lon="3.66402">
        <ele>595</ele>
        <time>2012-03-03T13:59:01Z</time>
      </trkpt>
      <trkpt lat="44.03104" lon="3.66395">
        <ele>596</ele>
        <time>2012-03-03T13:59:06Z</time>
      </trkpt>
      <trkpt lat="44.03106" lon="3.66387">
        <ele>596</ele>
        <time>2012-03-03T13:59:11Z</time>
      </trkpt>
      <trkpt lat="44.03108" lon="3.66384">
        <ele>596</ele>
        <time>2012-03-03T13:59:16Z</time>
      </trkpt>
      <trkpt lat="44.03109" lon="3.6638">
        <ele>596</ele>
        <time>2012-03-03T13:59:21Z</time>
      </trkpt>
      <trkpt lat="44.03112" lon="3.66375">
        <ele>597</ele>
        <time>2012-03-03T13:59:26Z</time>
      </trkpt>
      <trkpt lat="44.03115" lon="3.6637">
        <ele>597</ele>
        <time>2012-03-03T13:59:31Z</time>
      </trkpt>
      <trkpt lat="44.03116" lon="3.66365">
        <ele>598</ele>
        <time>2012-03-03T13:59:36Z</time>
      </trkpt>
      <trkpt lat="44.03118" lon="3.66361">
        <ele>598</ele>
        <time>2012-03-03T13:59:41Z</time>
      </trkpt>
      <trkpt lat="44.03122" lon="3.66357">
        <ele>598</ele>
        <time>2012-03-03T13:59:46Z</time>
      </trkpt>
      <trkpt lat="44.03126" lon="3.66348">
        <ele>598</ele>
        <time>2012-03-03T13:59:51Z</time>
      </trkpt>
      <trkpt lat="44.03129" lon="3.66339">
        <ele>598</ele>
        <time>2012-03-03T13:59:56Z</time>
      </trkpt>
      <trkpt lat="44.03135" lon="3.6633">
        <ele>610</ele>
        <time>2012-03-03T14:00:01Z</time>
      </trkpt>
      <trkpt lat="44.03138" lon="3.66321">
        <ele>610</ele>
        <time>2012-03-03T14:00:06Z</time>
      </trkpt>
      <trkpt lat="44.03141" lon="3.66311">
        <ele>611</ele>
        <time>2012-03-03T14:00:11Z</time>
      </trkpt>
      <trkpt lat="44.03142" lon="3.66307">
        <ele>611</ele>
        <time>2012-03-03T14:00:16Z</time>
      </trkpt>
      <trkpt lat="44.03145" lon="3.663">
        <ele>612</ele>
        <time>2012-03-03T14:00:21Z</time>
      </trkpt>
      <trkpt lat="44.03149" lon="3.66293">
        <ele>613</ele>
        <time>2012-03-03T14:00:26Z</time>
      </trkpt>
      <trkpt lat="44.03154" lon="3.66284">
        <ele>614</ele>
        <time>2012-03-03T14:00:31Z</time>
      </trkpt>
      <trkpt lat="44.03157" lon="3.66278">
        <ele>614</ele>
        <time>2012-03-03T14:00:36Z</time>
      </trkpt>
      <trkpt lat="44.03161" lon="3.66271">
        <ele>615</ele>
        <time>2012-03-03T14:00:41Z</time>
      </trkpt>
      <trkpt lat="44.03165" lon="3.66265">
        <ele>615</ele>
        <time>2012-03-03T14:00:46Z</time>
      </trkpt>
      <trkpt lat="44.03168" lon="3.66257">
        <ele>607</ele>
        <time>2012-03-03T14:00:51Z</time>
      </trkpt>
      <trkpt lat="44.03172" lon="3.66248">
        <ele>612</ele>
        <time>2012-03-03T14:00:56Z</time>
      </trkpt>
      <trkpt lat="44.03178" lon="3.66238">
        <ele>609</ele>
        <time>2012-03-03T14:01:01Z</time>
      </trkpt>
      <trkpt lat="44.03182" lon="3.66231">
        <ele>608</ele>
        <time>2012-03-03T14:01:06Z</time>
      </trkpt>
      <trkpt lat="44.03188" lon="3.66219">
        <ele>606</ele>
        <time>2012-03-03T14:01:11Z</time>
      </trkpt>
      <trkpt lat="44.03191" lon="3.6621">
        <ele>606</ele>
        <time>2012-03-03T14:01:16Z</time>
      </trkpt>
      <trkpt lat="44.03191" lon="3.66206">
        <ele>607</ele>
        <time>2012-03-03T14:01:21Z</time>
      </trkpt>
      <trkpt lat="44.0319" lon="3.66203">
        <ele>608</ele>
        <time>2012-03-03T14:01:26Z</time>
      </trkpt>
      <trkpt lat="44.0319" lon="3.66197">
        <ele>609</ele>
        <time>2012-03-03T14:01:31Z</time>
      </trkpt>
      <trkpt lat="44.03189" lon="3.66191">
        <ele>610</ele>
        <time>2012-03-03T14:01:36Z</time>
      </trkpt>
      <trkpt lat="44.03187" lon="3.66183">
        <ele>613</ele>
        <time>2012-03-03T14:01:41Z</time>
      </trkpt>
      <trkpt lat="44.03186" lon="3.66177">
        <ele>615</ele>
        <time>2012-03-03T14:01:46Z</time>
      </trkpt>
      <trkpt lat="44.03185" lon="3.66171">
        <ele>616</ele>
        <time>2012-03-03T14:01:51Z</time>
      </trkpt>
      <trkpt lat="44.03184" lon="3.66166">
        <ele>623</ele>
        <time>2012-03-03T14:01:56Z</time>
      </trkpt>
      <trkpt lat="44.03183" lon="3.66161">
        <ele>623</ele>
        <time>2012-03-03T14:02:01Z</time>
      </trkpt>
      <trkpt lat="44.03183" lon="3.66153">
        <ele>622</ele>
        <time>2012-03-03T14:02:06Z</time>
      </trkpt>
      <trkpt lat="44.03183" lon="3.66142">
        <ele>621</ele>
        <time>2012-03-03T14:02:11Z</time>
      </trkpt>
      <trkpt lat="44.03184" lon="3.66135">
        <ele>620</ele>
        <time>2012-03-03T14:02:16Z</time>
      </trkpt>
      <trkpt lat="44.03184" lon="3.66127">
        <ele>620</ele>
        <time>2012-03-03T14:02:21Z</time>
      </trkpt>
      <trkpt lat="44.03184" lon="3.6612">
        <ele>620</ele>
        <time>2012-03-03T14:02:26Z</time>
      </trkpt>
      <trkpt lat="44.03183" lon="3.66115">
        <ele>621</ele>
        <time>2012-03-03T14:02:31Z</time>
      </trkpt>
      <trkpt lat="44.03183" lon="3.66109">
        <ele>621</ele>
        <time>2012-03-03T14:02:36Z</time>
      </trkpt>
      <trkpt lat="44.03185" lon="3.66103">
        <ele>622</ele>
        <time>2012-03-03T14:02:41Z</time>
      </trkpt>
      <trkpt lat="44.03189" lon="3.66095">
        <ele>622</ele>
        <time>2012-03-03T14:02:46Z</time>
      </trkpt>
      <trkpt lat="44.03192" lon="3.66092">
        <ele>621</ele>
        <time>2012-03-03T14:02:51Z</time>
      </trkpt>
      <trkpt lat="44.03194" lon="3.66087">
        <ele>621</ele>
        <time>2012-03-03T14:02:56Z</time>
      </trkpt>
      <trkpt lat="44.03196" lon="3.66081">
        <ele>625</ele>
        <time>2012-03-03T14:03:01Z</time>
      </trkpt>
      <trkpt lat="44.03198" lon="3.66074">
        <ele>624</ele>
        <time>2012-03-03T14:03:06Z</time>
      </trkpt>
      <trkpt lat="44.03203" lon="3.66064">
        <ele>624</ele>
        <time>2012-03-03T14:03:11Z</time>
      </trkpt>
      <trkpt lat="44.03208" lon="3.66055">
        <ele>624</ele>
        <time>2012-03-03T14:03:16Z</time>
      </trkpt>
      <trkpt lat="44.03215" lon="3.66046">
        <ele>624</ele>
        <time>2012-03-03T14:03:21Z</time>
      </trkpt>
      <trkpt lat="44.03223" lon="3.66034">
        <ele>624</ele>
        <time>2012-03-03T14:03:26Z</time>
      </trkpt>
      <trkpt lat="44.03231" lon="3.66026">
        <ele>625</ele>
        <time>2012-03-03T14:03:31Z</time>
      </trkpt>
      <trkpt lat="44.03236" lon="3.66019">
        <ele>627</ele>
        <time>2012-03-03T14:03:36Z</time>
      </trkpt>
      <trkpt lat="44.03244" lon="3.66012">
        <ele>629</ele>
        <time>2012-03-03T14:03:41Z</time>
      </trkpt>
      <trkpt lat="44.03252" lon="3.66006">
        <ele>628</ele>
        <time>2012-03-03T14:03:46Z</time>
      </trkpt>
      <trkpt lat="44.03258" lon="3.65998">
        <ele>631</ele>
        <time>2012-03-03T14:03:51Z</time>
      </trkpt>
      <trkpt lat="44.03264" lon="3.65992">
        <ele>629</ele>
        <time>2012-03-03T14:03:56Z</time>
      </trkpt>
      <trkpt lat="44.03267" lon="3.65984">
        <ele>628</ele>
        <time>2012-03-03T14:04:01Z</time>
      </trkpt>
      <trkpt lat="44.0327" lon="3.65978">
        <ele>628</ele>
        <time>2012-03-03T14:04:06Z</time>
      </trkpt>
      <trkpt lat="44.03272" lon="3.65973">
        <ele>627</ele>
        <time>2012-03-03T14:04:11Z</time>
      </trkpt>
      <trkpt lat="44.03276" lon="3.65963">
        <ele>627</ele>
        <time>2012-03-03T14:04:16Z</time>
      </trkpt>
      <trkpt lat="44.0328" lon="3.65956">
        <ele>627</ele>
        <time>2012-03-03T14:04:21Z</time>
      </trkpt>
      <trkpt lat="44.03282" lon="3.6595">
        <ele>627</ele>
        <time>2012-03-03T14:04:26Z</time>
      </trkpt>
      <trkpt lat="44.03284" lon="3.65944">
        <ele>627</ele>
        <time>2012-03-03T14:04:31Z</time>
      </trkpt>
      <trkpt lat="44.03288" lon="3.65935">
        <ele>627</ele>
        <time>2012-03-03T14:04:36Z</time>
      </trkpt>
      <trkpt lat="44.03296" lon="3.65927">
        <ele>627</ele>
        <time>2012-03-03T14:04:41Z</time>
      </trkpt>
      <trkpt lat="44.03307" lon="3.65919">
        <ele>628</ele>
        <time>2012-03-03T14:04:46Z</time>
      </trkpt>
      <trkpt lat="44.03316" lon="3.6591">
        <ele>628</ele>
        <time>2012-03-03T14:04:51Z</time>
      </trkpt>
      <trkpt lat="44.03325" lon="3.65902">
        <ele>628</ele>
        <time>2012-03-03T14:04:56Z</time>
      </trkpt>
      <trkpt lat="44.03334" lon="3.65894">
        <ele>628</ele>
        <time>2012-03-03T14:05:01Z</time>
      </trkpt>
      <trkpt lat="44.03343" lon="3.65887">
        <ele>627</ele>
        <time>2012-03-03T14:05:06Z</time>
      </trkpt>
      <trkpt lat="44.03355" lon="3.65874">
        <ele>626</ele>
        <time>2012-03-03T14:05:11Z</time>
      </trkpt>
      <trkpt lat="44.03362" lon="3.65863">
        <ele>626</ele>
        <time>2012-03-03T14:05:16Z</time>
      </trkpt>
      <trkpt lat="44.03369" lon="3.65852">
        <ele>626</ele>
        <time>2012-03-03T14:05:21Z</time>
      </trkpt>
      <trkpt lat="44.03376" lon="3.65845">
        <ele>626</ele>
        <time>2012-03-03T14:05:26Z</time>
      </trkpt>
      <trkpt lat="44.0338" lon="3.65833">
        <ele>626</ele>
        <time>2012-03-03T14:05:31Z</time>
      </trkpt>
      <trkpt lat="44.03387" lon="3.65821">
        <ele>626</ele>
        <time>2012-03-03T14:05:36Z</time>
      </trkpt>
      <trkpt lat="44.03393" lon="3.6581">
        <ele>626</ele>
        <time>2012-03-03T14:05:41Z</time>
      </trkpt>
      <trkpt lat="44.03397" lon="3.65798">
        <ele>626</ele>
        <time>2012-03-03T14:05:46Z</time>
      </trkpt>
      <trkpt lat="44.03404" lon="3.65793">
        <ele>626</ele>
        <time>2012-03-03T14:05:51Z</time>
      </trkpt>
      <trkpt lat="44.03409" lon="3.65789">
        <ele>627</ele>
        <time>2012-03-03T14:05:56Z</time>
      </trkpt>
      <trkpt lat="44.03414" lon="3.65785">
        <ele>627</ele>
        <time>2012-03-03T14:06:01Z</time>
      </trkpt>
      <trkpt lat="44.03422" lon="3.65781">
        <ele>623</ele>
        <time>2012-03-03T14:06:06Z</time>
      </trkpt>
      <trkpt lat="44.03429" lon="3.65776">
        <ele>623</ele>
        <time>2012-03-03T14:06:11Z</time>
      </trkpt>
      <trkpt lat="44.03433" lon="3.65768">
        <ele>624</ele>
        <time>2012-03-03T14:06:16Z</time>
      </trkpt>
      <trkpt lat="44.03434" lon="3.65757">
        <ele>625</ele>
        <time>2012-03-03T14:06:21Z</time>
      </trkpt>
      <trkpt lat="44.0344" lon="3.65751">
        <ele>624</ele>
        <time>2012-03-03T14:06:26Z</time>
      </trkpt>
      <trkpt lat="44.03446" lon="3.65744">
        <ele>628</ele>
        <time>2012-03-03T14:06:31Z</time>
      </trkpt>
      <trkpt lat="44.03451" lon="3.65735">
        <ele>628</ele>
        <time>2012-03-03T14:06:36Z</time>
      </trkpt>
      <trkpt lat="44.03457" lon="3.65724">
        <ele>627</ele>
        <time>2012-03-03T14:06:41Z</time>
      </trkpt>
      <trkpt lat="44.03459" lon="3.65708">
        <ele>628</ele>
        <time>2012-03-03T14:06:46Z</time>
      </trkpt>
      <trkpt lat="44.03466" lon="3.65692">
        <ele>628</ele>
        <time>2012-03-03T14:06:51Z</time>
      </trkpt>
      <trkpt lat="44.03472" lon="3.65685">
        <ele>629</ele>
        <time>2012-03-03T14:06:56Z</time>
      </trkpt>
      <trkpt lat="44.03477" lon="3.65674">
        <ele>631</ele>
        <time>2012-03-03T14:07:01Z</time>
      </trkpt>
      <trkpt lat="44.03483" lon="3.65668">
        <ele>632</ele>
        <time>2012-03-03T14:07:06Z</time>
      </trkpt>
      <trkpt lat="44.03489" lon="3.6566">
        <ele>633</ele>
        <time>2012-03-03T14:07:11Z</time>
      </trkpt>
      <trkpt lat="44.03493" lon="3.65656">
        <ele>633</ele>
        <time>2012-03-03T14:07:16Z</time>
      </trkpt>
      <trkpt lat="44.03497" lon="3.65651">
        <ele>632</ele>
        <time>2012-03-03T14:07:21Z</time>
      </trkpt>
      <trkpt lat="44.03502" lon="3.65641">
        <ele>634</ele>
        <time>2012-03-03T14:07:26Z</time>
      </trkpt>
      <trkpt lat="44.03505" lon="3.65628">
        <ele>633</ele>
        <time>2012-03-03T14:07:31Z</time>
      </trkpt>
      <trkpt lat="44.0351" lon="3.65617">
        <ele>634</ele>
        <time>2012-03-03T14:07:36Z</time>
      </trkpt>
      <trkpt lat="44.03517" lon="3.65615">
        <ele>633</ele>
        <time>2012-03-03T14:07:41Z</time>
      </trkpt>
      <trkpt lat="44.03522" lon="3.65606">
        <ele>634</ele>
        <time>2012-03-03T14:07:46Z</time>
      </trkpt>
      <trkpt lat="44.03532" lon="3.65596">
        <ele>633</ele>
        <time>2012-03-03T14:07:51Z</time>
      </trkpt>
      <trkpt lat="44.03539" lon="3.65586">
        <ele>634</ele>
        <time>2012-03-03T14:07:56Z</time>
      </trkpt>
      <trkpt lat="44.03545" lon="3.65577">
        <ele>635</ele>
        <time>2012-03-03T14:08:01Z</time>
      </trkpt>
      <trkpt lat="44.03547" lon="3.6557">
        <ele>635</ele>
        <time>2012-03-03T14:08:06Z</time>
      </trkpt>
      <trkpt lat="44.03551" lon="3.65565">
        <ele>635</ele>
        <time>2012-03-03T14:08:11Z</time>
      </trkpt>
      <trkpt lat="44.03558" lon="3.65557">
        <ele>635</ele>
        <time>2012-03-03T14:08:16Z</time>
      </trkpt>
      <trkpt lat="44.03562" lon="3.65544">
        <ele>635</ele>
        <time>2012-03-03T14:08:21Z</time>
      </trkpt>
      <trkpt lat="44.03567" lon="3.65537">
        <ele>636</ele>
        <time>2012-03-03T14:08:26Z</time>
      </trkpt>
      <trkpt lat="44.03572" lon="3.6553">
        <ele>636</ele>
        <time>2012-03-03T14:08:31Z</time>
      </trkpt>
      <trkpt lat="44.03582" lon="3.65521">
        <ele>638</ele>
        <time>2012-03-03T14:08:36Z</time>
      </trkpt>
      <trkpt lat="44.03592" lon="3.65517">
        <ele>637</ele>
        <time>2012-03-03T14:08:41Z</time>
      </trkpt>
      <trkpt lat="44.036" lon="3.65511">
        <ele>637</ele>
        <time>2012-03-03T14:08:46Z</time>
      </trkpt>
      <trkpt lat="44.03611" lon="3.65504">
        <ele>636</ele>
        <time>2012-03-03T14:08:51Z</time>
      </trkpt>
      <trkpt lat="44.0362" lon="3.65496">
        <ele>639</ele>
        <time>2012-03-03T14:08:56Z</time>
      </trkpt>
      <trkpt lat="44.0363" lon="3.65489">
        <ele>638</ele>
        <time>2012-03-03T14:09:01Z</time>
      </trkpt>
      <trkpt lat="44.03637" lon="3.65488">
        <ele>638</ele>
        <time>2012-03-03T14:09:06Z</time>
      </trkpt>
      <trkpt lat="44.03645" lon="3.6549">
        <ele>638</ele>
        <time>2012-03-03T14:09:11Z</time>
      </trkpt>
      <trkpt lat="44.03651" lon="3.65487">
        <ele>638</ele>
        <time>2012-03-03T14:09:16Z</time>
      </trkpt>
      <trkpt lat="44.03655" lon="3.65483">
        <ele>638</ele>
        <time>2012-03-03T14:09:21Z</time>
      </trkpt>
      <trkpt lat="44.03658" lon="3.65476">
        <ele>638</ele>
        <time>2012-03-03T14:09:26Z</time>
      </trkpt>
      <trkpt lat="44.03658" lon="3.65463">
        <ele>639</ele>
        <time>2012-03-03T14:09:31Z</time>
      </trkpt>
      <trkpt lat="44.0366" lon="3.65443">
        <ele>640</ele>
        <time>2012-03-03T14:09:36Z</time>
      </trkpt>
      <trkpt lat="44.03663" lon="3.6543">
        <ele>642</ele>
        <time>2012-03-03T14:09:41Z</time>
      </trkpt>
      <trkpt lat="44.03667" lon="3.65418">
        <ele>644</ele>
        <time>2012-03-03T14:09:46Z</time>
      </trkpt>
      <trkpt lat="44.03675" lon="3.65409">
        <ele>642</ele>
        <time>2012-03-03T14:09:51Z</time>
      </trkpt>
      <trkpt lat="44.03678" lon="3.65399">
        <ele>641</ele>
        <time>2012-03-03T14:09:56Z</time>
      </trkpt>
      <trkpt lat="44.03681" lon="3.65386">
        <ele>640</ele>
        <time>2012-03-03T14:10:01Z</time>
      </trkpt>
      <trkpt lat="44.03684" lon="3.65372">
        <ele>639</ele>
        <time>2012-03-03T14:10:06Z</time>
      </trkpt>
      <trkpt lat="44.03684" lon="3.65359">
        <ele>639</ele>
        <time>2012-03-03T14:10:11Z</time>
      </trkpt>
      <trkpt lat="44.03689" lon="3.65349">
        <ele>639</ele>
        <time>2012-03-03T14:10:16Z</time>
      </trkpt>
      <trkpt lat="44.03696" lon="3.65344">
        <ele>639</ele>
        <time>2012-03-03T14:10:21Z</time>
      </trkpt>
      <trkpt lat="44.03704" lon="3.65342">
        <ele>639</ele>
        <time>2012-03-03T14:10:26Z</time>
      </trkpt>
      <trkpt lat="44.03709" lon="3.65338">
        <ele>640</ele>
        <time>2012-03-03T14:10:31Z</time>
      </trkpt>
      <trkpt lat="44.03714" lon="3.65335">
        <ele>640</ele>
        <time>2012-03-03T14:10:36Z</time>
      </trkpt>
      <trkpt lat="44.0372" lon="3.65333">
        <ele>644</ele>
        <time>2012-03-03T14:10:41Z</time>
      </trkpt>
      <trkpt lat="44.03725" lon="3.6533">
        <ele>644</ele>
        <time>2012-03-03T14:10:46Z</time>
      </trkpt>
      <trkpt lat="44.03729" lon="3.65326">
        <ele>644</ele>
        <time>2012-03-03T14:10:51Z</time>
      </trkpt>
      <trkpt lat="44.03732" lon="3.65322">
        <ele>645</ele>
        <time>2012-03-03T14:10:56Z</time>
      </trkpt>
      <trkpt lat="44.03733" lon="3.65316">
        <ele>645</ele>
        <time>2012-03-03T14:11:01Z</time>
      </trkpt>
      <trkpt lat="44.03733" lon="3.6531">
        <ele>645</ele>
        <time>2012-03-03T14:11:06Z</time>
      </trkpt>
      <trkpt lat="44.03735" lon="3.65304">
        <ele>645</ele>
        <time>2012-03-03T14:11:11Z</time>
      </trkpt>
      <trkpt lat="44.03736" lon="3.65297">
        <ele>646</ele>
        <time>2012-03-03T14:11:16Z</time>
      </trkpt>
      <trkpt lat="44.03739" lon="3.65288">
        <ele>647</ele>
        <time>2012-03-03T14:11:21Z</time>
      </trkpt>
      <trkpt lat="44.03741" lon="3.6528">
        <ele>648</ele>
        <time>2012-03-03T14:11:26Z</time>
      </trkpt>
      <trkpt lat="44.03744" lon="3.65273">
        <ele>649</ele>
        <time>2012-03-03T14:11:31Z</time>
      </trkpt>
      <trkpt lat="44.03747" lon="3.65264">
        <ele>650</ele>
        <time>2012-03-03T14:11:36Z</time>
      </trkpt>
      <trkpt lat="44.03751" lon="3.65256">
        <ele>652</ele>
        <time>2012-03-03T14:11:41Z</time>
      </trkpt>
      <trkpt lat="44.03756" lon="3.65242">
        <ele>657</ele>
        <time>2012-03-03T14:11:46Z</time>
      </trkpt>
      <trkpt lat="44.0376" lon="3.65231">
        <ele>659</ele>
        <time>2012-03-03T14:11:51Z</time>
      </trkpt>
      <trkpt lat="44.03763" lon="3.65225">
        <ele>660</ele>
        <time>2012-03-03T14:11:56Z</time>
      </trkpt>
      <trkpt lat="44.03766" lon="3.6522">
        <ele>661</ele>
        <time>2012-03-03T14:12:01Z</time>
      </trkpt>
      <trkpt lat="44.03769" lon="3.65215">
        <ele>661</ele>
        <time>2012-03-03T14:12:06Z</time>
      </trkpt>
      <trkpt lat="44.03771" lon="3.65204">
        <ele>663</ele>
        <time>2012-03-03T14:12:11Z</time>
      </trkpt>
      <trkpt lat="44.03773" lon="3.65199">
        <ele>664</ele>
        <time>2012-03-03T14:12:16Z</time>
      </trkpt>
      <trkpt lat="44.03773" lon="3.65196">
        <ele>664</ele>
        <time>2012-03-03T14:12:21Z</time>
      </trkpt>
      <trkpt lat="44.03773" lon="3.65192">
        <ele>665</ele>
        <time>2012-03-03T14:12:26Z</time>
      </trkpt>
      <trkpt lat="44.03773" lon="3.65184">
        <ele>666</ele>
        <time>2012-03-03T14:12:31Z</time>
      </trkpt>
      <trkpt lat="44.03773" lon="3.6518">
        <ele>666</ele>
        <time>2012-03-03T14:12:36Z</time>
      </trkpt>
      <trkpt lat="44.03771" lon="3.65175">
        <ele>667</ele>
        <time>2012-03-03T14:12:41Z</time>
      </trkpt>
      <trkpt lat="44.0377" lon="3.6517">
        <ele>667</ele>
        <time>2012-03-03T14:12:46Z</time>
      </trkpt>
      <trkpt lat="44.03768" lon="3.65163">
        <ele>679</ele>
        <time>2012-03-03T14:12:51Z</time>
      </trkpt>
      <trkpt lat="44.03766" lon="3.65158">
        <ele>679</ele>
        <time>2012-03-03T14:12:56Z</time>
      </trkpt>
      <trkpt lat="44.03763" lon="3.65153">
        <ele>680</ele>
        <time>2012-03-03T14:13:01Z</time>
      </trkpt>
      <trkpt lat="44.03759" lon="3.65146">
        <ele>681</ele>
        <time>2012-03-03T14:13:06Z</time>
      </trkpt>
      <trkpt lat="44.03756" lon="3.65142">
        <ele>682</ele>
        <time>2012-03-03T14:13:11Z</time>
      </trkpt>
      <trkpt lat="44.03754" lon="3.65136">
        <ele>683</ele>
        <time>2012-03-03T14:13:16Z</time>
      </trkpt>
      <trkpt lat="44.03751" lon="3.6513">
        <ele>685</ele>
        <time>2012-03-03T14:13:21Z</time>
      </trkpt>
      <trkpt lat="44.03749" lon="3.65126">
        <ele>681</ele>
        <time>2012-03-03T14:13:26Z</time>
      </trkpt>
      <trkpt lat="44.03747" lon="3.6512">
        <ele>682</ele>
        <time>2012-03-03T14:13:31Z</time>
      </trkpt>
      <trkpt lat="44.03741" lon="3.65113">
        <ele>683</ele>
        <time>2012-03-03T14:13:36Z</time>
      </trkpt>
      <trkpt lat="44.03736" lon="3.65108">
        <ele>684</ele>
        <time>2012-03-03T14:13:41Z</time>
      </trkpt>
      <trkpt lat="44.03733" lon="3.65105">
        <ele>685</ele>
        <time>2012-03-03T14:13:46Z</time>
      </trkpt>
      <trkpt lat="44.03729" lon="3.65099">
        <ele>685</ele>
        <time>2012-03-03T14:13:51Z</time>
      </trkpt>
      <trkpt lat="44.03726" lon="3.65095">
        <ele>685</ele>
        <time>2012-03-03T14:13:56Z</time>
      </trkpt>
      <trkpt lat="44.03723" lon="3.65088">
        <ele>686</ele>
        <time>2012-03-03T14:14:01Z</time>
      </trkpt>
      <trkpt lat="44.03721" lon="3.65083">
        <ele>701</ele>
        <time>2012-03-03T14:14:06Z</time>
      </trkpt>
      <trkpt lat="44.0372" lon="3.6508">
        <ele>701</ele>
        <time>2012-03-03T14:14:11Z</time>
      </trkpt>
      <trkpt lat="44.03719" lon="3.65081">
        <ele>701</ele>
        <time>2012-03-03T14:14:16Z</time>
      </trkpt>
      <trkpt lat="44.03715" lon="3.65076">
        <ele>701</ele>
        <time>2012-03-03T14:14:21Z</time>
      </trkpt>
      <trkpt lat="44.03711" lon="3.65072">
        <ele>701</ele>
        <time>2012-03-03T14:14:26Z</time>
      </trkpt>
      <trkpt lat="44.03708" lon="3.65067">
        <ele>702</ele>
        <time>2012-03-03T14:14:31Z</time>
      </trkpt>
      <trkpt lat="44.03705" lon="3.6506">
        <ele>703</ele>
        <time>2012-03-03T14:14:36Z</time>
      </trkpt>
      <trkpt lat="44.03703" lon="3.65053">
        <ele>703</ele>
        <time>2012-03-03T14:14:41Z</time>
      </trkpt>
      <trkpt lat="44.03699" lon="3.65049">
        <ele>704</ele>
        <time>2012-03-03T14:14:46Z</time>
      </trkpt>
      <trkpt lat="44.03697" lon="3.65048">
        <ele>704</ele>
        <time>2012-03-03T14:14:51Z</time>
      </trkpt>
      <trkpt lat="44.03693" lon="3.65048">
        <ele>704</ele>
        <time>2012-03-03T14:14:56Z</time>
      </trkpt>
      <trkpt lat="44.03693" lon="3.65041">
        <ele>705</ele>
        <time>2012-03-03T14:15:01Z</time>
      </trkpt>
      <trkpt lat="44.03692" lon="3.65036">
        <ele>705</ele>
        <time>2012-03-03T14:15:06Z</time>
      </trkpt>
      <trkpt lat="44.03689" lon="3.65036">
        <ele>705</ele>
        <time>2012-03-03T14:15:11Z</time>
      </trkpt>
      <trkpt lat="44.03685" lon="3.65039">
        <ele>705</ele>
        <time>2012-03-03T14:15:16Z</time>
      </trkpt>
      <trkpt lat="44.0368" lon="3.65034">
        <ele>705</ele>
        <time>2012-03-03T14:15:21Z</time>
      </trkpt>
      <trkpt lat="44.03674" lon="3.6503">
        <ele>706</ele>
        <time>2012-03-03T14:15:26Z</time>
      </trkpt>
      <trkpt lat="44.03671" lon="3.65025">
        <ele>707</ele>
        <time>2012-03-03T14:15:31Z</time>
      </trkpt>
      <trkpt lat="44.03667" lon="3.6502">
        <ele>708</ele>
        <time>2012-03-03T14:15:36Z</time>
      </trkpt>
      <trkpt lat="44.03666" lon="3.65014">
        <ele>707</ele>
        <time>2012-03-03T14:15:41Z</time>
      </trkpt>
      <trkpt lat="44.03662" lon="3.65007">
        <ele>709</ele>
        <time>2012-03-03T14:15:46Z</time>
      </trkpt>
      <trkpt lat="44.03661" lon="3.65002">
        <ele>710</ele>
        <time>2012-03-03T14:15:51Z</time>
      </trkpt>
      <trkpt lat="44.03657" lon="3.64992">
        <ele>711</ele>
        <time>2012-03-03T14:15:56Z</time>
      </trkpt>
      <trkpt lat="44.03655" lon="3.64984">
        <ele>711</ele>
        <time>2012-03-03T14:16:01Z</time>
      </trkpt>
      <trkpt lat="44.03655" lon="3.64975">
        <ele>711</ele>
        <time>2012-03-03T14:16:06Z</time>
      </trkpt>
      <trkpt lat="44.03656" lon="3.64962">
        <ele>711</ele>
        <time>2012-03-03T14:16:11Z</time>
      </trkpt>
      <trkpt lat="44.03648" lon="3.64952">
        <ele>711</ele>
        <time>2012-03-03T14:16:16Z</time>
      </trkpt>
      <trkpt lat="44.03641" lon="3.64937">
        <ele>711</ele>
        <time>2012-03-03T14:16:21Z</time>
      </trkpt>
      <trkpt lat="44.03636" lon="3.64921">
        <ele>711</ele>
        <time>2012-03-03T14:16:26Z</time>
      </trkpt>
      <trkpt lat="44.03637" lon="3.64905">
        <ele>703</ele>
        <time>2012-03-03T14:16:31Z</time>
      </trkpt>
      <trkpt lat="44.0364" lon="3.64887">
        <ele>701</ele>
        <time>2012-03-03T14:16:36Z</time>
      </trkpt>
      <trkpt lat="44.0364" lon="3.64857">
        <ele>698</ele>
        <time>2012-03-03T14:16:41Z</time>
      </trkpt>
      <trkpt lat="44.03647" lon="3.64839">
        <ele>698</ele>
        <time>2012-03-03T14:16:46Z</time>
      </trkpt>
      <trkpt lat="44.03652" lon="3.64825">
        <ele>688</ele>
        <time>2012-03-03T14:16:51Z</time>
      </trkpt>
      <trkpt lat="44.03662" lon="3.64817">
        <ele>688</ele>
        <time>2012-03-03T14:16:56Z</time>
      </trkpt>
      <trkpt lat="44.03669" lon="3.64809">
        <ele>695</ele>
        <time>2012-03-03T14:17:01Z</time>
      </trkpt>
      <trkpt lat="44.0368" lon="3.64798">
        <ele>694</ele>
        <time>2012-03-03T14:17:06Z</time>
      </trkpt>
      <trkpt lat="44.03689" lon="3.64791">
        <ele>693</ele>
        <time>2012-03-03T14:17:11Z</time>
      </trkpt>
      <trkpt lat="44.03701" lon="3.64788">
        <ele>693</ele>
        <time>2012-03-03T14:17:16Z</time>
      </trkpt>
      <trkpt lat="44.03713" lon="3.64789">
        <ele>694</ele>
        <time>2012-03-03T14:17:21Z</time>
      </trkpt>
      <trkpt lat="44.03723" lon="3.64791">
        <ele>695</ele>
        <time>2012-03-03T14:17:26Z</time>
      </trkpt>
      <trkpt lat="44.03738" lon="3.64794">
        <ele>697</ele>
        <time>2012-03-03T14:17:31Z</time>
      </trkpt>
      <trkpt lat="44.03751" lon="3.64802">
        <ele>709</ele>
        <time>2012-03-03T14:17:36Z</time>
      </trkpt>
      <trkpt lat="44.03762" lon="3.64804">
        <ele>710</ele>
        <time>2012-03-03T14:17:41Z</time>
      </trkpt>
      <trkpt lat="44.03773" lon="3.64806">
        <ele>711</ele>
        <time>2012-03-03T14:17:46Z</time>
      </trkpt>
      <trkpt lat="44.03777" lon="3.64804">
        <ele>711</ele>
        <time>2012-03-03T14:17:51Z</time>
      </trkpt>
      <trkpt lat="44.0378" lon="3.64798">
        <ele>710</ele>
        <time>2012-03-03T14:17:56Z</time>
      </trkpt>
      <trkpt lat="44.03785" lon="3.64788">
        <ele>709</ele>
        <time>2012-03-03T14:18:01Z</time>
      </trkpt>
      <trkpt lat="44.0379" lon="3.64779">
        <ele>708</ele>
        <time>2012-03-03T14:18:06Z</time>
      </trkpt>
      <trkpt lat="44.03799" lon="3.64769">
        <ele>709</ele>
        <time>2012-03-03T14:18:11Z</time>
      </trkpt>
      <trkpt lat="44.03807" lon="3.64759">
        <ele>709</ele>
        <time>2012-03-03T14:18:16Z</time>
      </trkpt>
      <trkpt lat="44.03817" lon="3.6475">
        <ele>701</ele>
        <time>2012-03-03T14:18:21Z</time>
      </trkpt>
      <trkpt lat="44.03828" lon="3.64739">
        <ele>703</ele>
        <time>2012-03-03T14:18:26Z</time>
      </trkpt>
      <trkpt lat="44.03835" lon="3.64736">
        <ele>717</ele>
        <time>2012-03-03T14:18:31Z</time>
      </trkpt>
      <trkpt lat="44.03841" lon="3.64732">
        <ele>719</ele>
        <time>2012-03-03T14:18:36Z</time>
      </trkpt>
      <trkpt lat="44.03848" lon="3.64729">
        <ele>721</ele>
        <time>2012-03-03T14:18:41Z</time>
      </trkpt>
      <trkpt lat="44.03851" lon="3.64722">
        <ele>722</ele>
        <time>2012-03-03T14:18:46Z</time>
      </trkpt>
      <trkpt lat="44.03847" lon="3.64711">
        <ele>721</ele>
        <time>2012-03-03T14:18:51Z</time>
      </trkpt>
      <trkpt lat="44.03841" lon="3.64698">
        <ele>718</ele>
        <time>2012-03-03T14:18:56Z</time>
      </trkpt>
      <trkpt lat="44.03839" lon="3.64683">
        <ele>713</ele>
        <time>2012-03-03T14:19:01Z</time>
      </trkpt>
      <trkpt lat="44.03836" lon="3.64666">
        <ele>701</ele>
        <time>2012-03-03T14:19:06Z</time>
      </trkpt>
      <trkpt lat="44.03836" lon="3.64648">
        <ele>713</ele>
        <time>2012-03-03T14:19:11Z</time>
      </trkpt>
      <trkpt lat="44.03831" lon="3.6463">
        <ele>688</ele>
        <time>2012-03-03T14:19:16Z</time>
      </trkpt>
      <trkpt lat="44.03827" lon="3.64616">
        <ele>689</ele>
        <time>2012-03-03T14:19:21Z</time>
      </trkpt>
      <trkpt lat="44.03821" lon="3.646">
        <ele>691</ele>
        <time>2012-03-03T14:19:26Z</time>
      </trkpt>
      <trkpt lat="44.03819" lon="3.6458">
        <ele>695</ele>
        <time>2012-03-03T14:19:31Z</time>
      </trkpt>
      <trkpt lat="44.03818" lon="3.64569">
        <ele>693</ele>
        <time>2012-03-03T14:19:36Z</time>
      </trkpt>
      <trkpt lat="44.03815" lon="3.64556">
        <ele>690</ele>
        <time>2012-03-03T14:19:41Z</time>
      </trkpt>
      <trkpt lat="44.03809" lon="3.64544">
        <ele>689</ele>
        <time>2012-03-03T14:19:46Z</time>
      </trkpt>
      <trkpt lat="44.03806" lon="3.64531">
        <ele>689</ele>
        <time>2012-03-03T14:19:51Z</time>
      </trkpt>
      <trkpt lat="44.03802" lon="3.64519">
        <ele>689</ele>
        <time>2012-03-03T14:19:56Z</time>
      </trkpt>
      <trkpt lat="44.03801" lon="3.64504">
        <ele>689</ele>
        <time>2012-03-03T14:20:01Z</time>
      </trkpt>
      <trkpt lat="44.03797" lon="3.64488">
        <ele>687</ele>
        <time>2012-03-03T14:20:06Z</time>
      </trkpt>
      <trkpt lat="44.03794" lon="3.64472">
        <ele>686</ele>
        <time>2012-03-03T14:20:11Z</time>
      </trkpt>
      <trkpt lat="44.03791" lon="3.64458">
        <ele>685</ele>
        <time>2012-03-03T14:20:16Z</time>
      </trkpt>
      <trkpt lat="44.03789" lon="3.6444">
        <ele>684</ele>
        <time>2012-03-03T14:20:21Z</time>
      </trkpt>
      <trkpt lat="44.0379" lon="3.64425">
        <ele>683</ele>
        <time>2012-03-03T14:20:26Z</time>
      </trkpt>
      <trkpt lat="44.03793" lon="3.64413">
        <ele>678</ele>
        <time>2012-03-03T14:20:31Z</time>
      </trkpt>
      <trkpt lat="44.03796" lon="3.64396">
        <ele>678</ele>
        <time>2012-03-03T14:20:36Z</time>
      </trkpt>
      <trkpt lat="44.03803" lon="3.64381">
        <ele>677</ele>
        <time>2012-03-03T14:20:41Z</time>
      </trkpt>
      <trkpt lat="44.03811" lon="3.64369">
        <ele>678</ele>
        <time>2012-03-03T14:20:46Z</time>
      </trkpt>
      <trkpt lat="44.0382" lon="3.64358">
        <ele>678</ele>
        <time>2012-03-03T14:20:51Z</time>
      </trkpt>
      <trkpt lat="44.0383" lon="3.64349">
        <ele>679</ele>
        <time>2012-03-03T14:20:56Z</time>
      </trkpt>
      <trkpt lat="44.0384" lon="3.64339">
        <ele>689</ele>
        <time>2012-03-03T14:21:01Z</time>
      </trkpt>
      <trkpt lat="44.03846" lon="3.64332">
        <ele>683</ele>
        <time>2012-03-03T14:21:06Z</time>
      </trkpt>
      <trkpt lat="44.03854" lon="3.6432">
        <ele>683</ele>
        <time>2012-03-03T14:21:11Z</time>
      </trkpt>
      <trkpt lat="44.03861" lon="3.64309">
        <ele>684</ele>
        <time>2012-03-03T14:21:16Z</time>
      </trkpt>
      <trkpt lat="44.03867" lon="3.64298">
        <ele>683</ele>
        <time>2012-03-03T14:21:21Z</time>
      </trkpt>
      <trkpt lat="44.03874" lon="3.64287">
        <ele>683</ele>
        <time>2012-03-03T14:21:26Z</time>
      </trkpt>
      <trkpt lat="44.03882" lon="3.64279">
        <ele>683</ele>
        <time>2012-03-03T14:21:31Z</time>
      </trkpt>
      <trkpt lat="44.03887" lon="3.64271">
        <ele>683</ele>
        <time>2012-03-03T14:21:36Z</time>
      </trkpt>
      <trkpt lat="44.03897" lon="3.64259">
        <ele>683</ele>
        <time>2012-03-03T14:21:41Z</time>
      </trkpt>
      <trkpt lat="44.03904" lon="3.64252">
        <ele>684</ele>
        <time>2012-03-03T14:21:46Z</time>
      </trkpt>
      <trkpt lat="44.03912" lon="3.64241">
        <ele>675</ele>
        <time>2012-03-03T14:21:51Z</time>
      </trkpt>
      <trkpt lat="44.03919" lon="3.6423">
        <ele>676</ele>
        <time>2012-03-03T14:21:56Z</time>
      </trkpt>
      <trkpt lat="44.03924" lon="3.64225">
        <ele>675</ele>
        <time>2012-03-03T14:22:01Z</time>
      </trkpt>
      <trkpt lat="44.03927" lon="3.6422">
        <ele>673</ele>
        <time>2012-03-03T14:22:06Z</time>
      </trkpt>
      <trkpt lat="44.03937" lon="3.64211">
        <ele>671</ele>
        <time>2012-03-03T14:22:11Z</time>
      </trkpt>
      <trkpt lat="44.03945" lon="3.64206">
        <ele>670</ele>
        <time>2012-03-03T14:22:16Z</time>
      </trkpt>
      <trkpt lat="44.03955" lon="3.64199">
        <ele>669</ele>
        <time>2012-03-03T14:22:21Z</time>
      </trkpt>
      <trkpt lat="44.03965" lon="3.64195">
        <ele>669</ele>
        <time>2012-03-03T14:22:26Z</time>
      </trkpt>
      <trkpt lat="44.03975" lon="3.64191">
        <ele>669</ele>
        <time>2012-03-03T14:22:31Z</time>
      </trkpt>
      <trkpt lat="44.03986" lon="3.64189">
        <ele>668</ele>
        <time>2012-03-03T14:22:36Z</time>
      </trkpt>
      <trkpt lat="44.03995" lon="3.64187">
        <ele>667</ele>
        <time>2012-03-03T14:22:41Z</time>
      </trkpt>
      <trkpt lat="44.04003" lon="3.64186">
        <ele>666</ele>
        <time>2012-03-03T14:22:46Z</time>
      </trkpt>
      <trkpt lat="44.04013" lon="3.64191">
        <ele>668</ele>
        <time>2012-03-03T14:22:51Z</time>
      </trkpt>
      <trkpt lat="44.04022" lon="3.64199">
        <ele>669</ele>
        <time>2012-03-03T14:22:56Z</time>
      </trkpt>
      <trkpt lat="44.04028" lon="3.64206">
        <ele>671</ele>
        <time>2012-03-03T14:23:01Z</time>
      </trkpt>
      <trkpt lat="44.04031" lon="3.64211">
        <ele>671</ele>
        <time>2012-03-03T14:23:06Z</time>
      </trkpt>
      <trkpt lat="44.04034" lon="3.6422">
        <ele>673</ele>
        <time>2012-03-03T14:23:11Z</time>
      </trkpt>
      <trkpt lat="44.04039" lon="3.64225">
        <ele>673</ele>
        <time>2012-03-03T14:23:16Z</time>
      </trkpt>
      <trkpt lat="44.04048" lon="3.64228">
        <ele>673</ele>
        <time>2012-03-03T14:23:21Z</time>
      </trkpt>
      <trkpt lat="44.04055" lon="3.64234">
        <ele>673</ele>
        <time>2012-03-03T14:23:26Z</time>
      </trkpt>
      <trkpt lat="44.04064" lon="3.64241">
        <ele>674</ele>
        <time>2012-03-03T14:23:31Z</time>
      </trkpt>
      <trkpt lat="44.04071" lon="3.64241">
        <ele>674</ele>
        <time>2012-03-03T14:23:36Z</time>
      </trkpt>
      <trkpt lat="44.04075" lon="3.64233">
        <ele>673</ele>
        <time>2012-03-03T14:23:41Z</time>
      </trkpt>
      <trkpt lat="44.04078" lon="3.64227">
        <ele>672</ele>
        <time>2012-03-03T14:23:46Z</time>
      </trkpt>
      <trkpt lat="44.04081" lon="3.64219">
        <ele>671</ele>
        <time>2012-03-03T14:23:51Z</time>
      </trkpt>
      <trkpt lat="44.04087" lon="3.64211">
        <ele>676</ele>
        <time>2012-03-03T14:23:56Z</time>
      </trkpt>
      <trkpt lat="44.04092" lon="3.64208">
        <ele>675</ele>
        <time>2012-03-03T14:24:01Z</time>
      </trkpt>
      <trkpt lat="44.04098" lon="3.64207">
        <ele>676</ele>
        <time>2012-03-03T14:24:06Z</time>
      </trkpt>
      <trkpt lat="44.04103" lon="3.64209">
        <ele>677</ele>
        <time>2012-03-03T14:24:11Z</time>
      </trkpt>
      <trkpt lat="44.04109" lon="3.64215">
        <ele>678</ele>
        <time>2012-03-03T14:24:16Z</time>
      </trkpt>
      <trkpt lat="44.04116" lon="3.64222">
        <ele>680</ele>
        <time>2012-03-03T14:24:21Z</time>
      </trkpt>
      <trkpt lat="44.0412" lon="3.64225">
        <ele>681</ele>
        <time>2012-03-03T14:24:26Z</time>
      </trkpt>
      <trkpt lat="44.04124" lon="3.64227">
        <ele>682</ele>
        <time>2012-03-03T14:24:31Z</time>
      </trkpt>
      <trkpt lat="44.04128" lon="3.64231">
        <ele>683</ele>
        <time>2012-03-03T14:24:36Z</time>
      </trkpt>
      <trkpt lat="44.04132" lon="3.64231">
        <ele>683</ele>
        <time>2012-03-03T14:24:41Z</time>
      </trkpt>
      <trkpt lat="44.04135" lon="3.64229">
        <ele>684</ele>
        <time>2012-03-03T14:24:46Z</time>
      </trkpt>
      <trkpt lat="44.04137" lon="3.64227">
        <ele>684</ele>
        <time>2012-03-03T14:24:51Z</time>
      </trkpt>
      <trkpt lat="44.04138" lon="3.64224">
        <ele>684</ele>
        <time>2012-03-03T14:24:56Z</time>
      </trkpt>
      <trkpt lat="44.0414" lon="3.64221">
        <ele>684</ele>
        <time>2012-03-03T14:25:01Z</time>
      </trkpt>
      <trkpt lat="44.04142" lon="3.64217">
        <ele>683</ele>
        <time>2012-03-03T14:25:06Z</time>
      </trkpt>
      <trkpt lat="44.04144" lon="3.6421">
        <ele>683</ele>
        <time>2012-03-03T14:25:11Z</time>
      </trkpt>
      <trkpt lat="44.04145" lon="3.64207">
        <ele>683</ele>
        <time>2012-03-03T14:25:16Z</time>
      </trkpt>
      <trkpt lat="44.04147" lon="3.64201">
        <ele>682</ele>
        <time>2012-03-03T14:25:21Z</time>
      </trkpt>
      <trkpt lat="44.0415" lon="3.64193">
        <ele>682</ele>
        <time>2012-03-03T14:25:26Z</time>
      </trkpt>
      <trkpt lat="44.04152" lon="3.64186">
        <ele>682</ele>
        <time>2012-03-03T14:25:31Z</time>
      </trkpt>
      <trkpt lat="44.04156" lon="3.64179">
        <ele>682</ele>
        <time>2012-03-03T14:25:36Z</time>
      </trkpt>
      <trkpt lat="44.04159" lon="3.64174">
        <ele>682</ele>
        <time>2012-03-03T14:25:41Z</time>
      </trkpt>
      <trkpt lat="44.04163" lon="3.64169">
        <ele>683</ele>
        <time>2012-03-03T14:25:46Z</time>
      </trkpt>
      <trkpt lat="44.04168" lon="3.64165">
        <ele>685</ele>
        <time>2012-03-03T14:25:51Z</time>
      </trkpt>
      <trkpt lat="44.04175" lon="3.64162">
        <ele>687</ele>
        <time>2012-03-03T14:25:56Z</time>
      </trkpt>
      <trkpt lat="44.04182" lon="3.64163">
        <ele>689</ele>
        <time>2012-03-03T14:26:01Z</time>
      </trkpt>
      <trkpt lat="44.04189" lon="3.64163">
        <ele>690</ele>
        <time>2012-03-03T14:26:06Z</time>
      </trkpt>
      <trkpt lat="44.04191" lon="3.6416">
        <ele>691</ele>
        <time>2012-03-03T14:26:11Z</time>
      </trkpt>
      <trkpt lat="44.04189" lon="3.64155">
        <ele>691</ele>
        <time>2012-03-03T14:26:16Z</time>
      </trkpt>
      <trkpt lat="44.04192" lon="3.64145">
        <ele>691</ele>
        <time>2012-03-03T14:26:21Z</time>
      </trkpt>
      <trkpt lat="44.04194" lon="3.64138">
        <ele>691</ele>
        <time>2012-03-03T14:26:26Z</time>
      </trkpt>
      <trkpt lat="44.04198" lon="3.6413">
        <ele>692</ele>
        <time>2012-03-03T14:26:31Z</time>
      </trkpt>
      <trkpt lat="44.04201" lon="3.64123">
        <ele>692</ele>
        <time>2012-03-03T14:26:36Z</time>
      </trkpt>
      <trkpt lat="44.04203" lon="3.64115">
        <ele>691</ele>
        <time>2012-03-03T14:26:41Z</time>
      </trkpt>
      <trkpt lat="44.04209" lon="3.64104">
        <ele>691</ele>
        <time>2012-03-03T14:26:46Z</time>
      </trkpt>
      <trkpt lat="44.04216" lon="3.641">
        <ele>693</ele>
        <time>2012-03-03T14:26:51Z</time>
      </trkpt>
      <trkpt lat="44.0422" lon="3.64097">
        <ele>693</ele>
        <time>2012-03-03T14:26:56Z</time>
      </trkpt>
      <trkpt lat="44.04225" lon="3.64095">
        <ele>694</ele>
        <time>2012-03-03T14:27:01Z</time>
      </trkpt>
      <trkpt lat="44.04229" lon="3.64096">
        <ele>695</ele>
        <time>2012-03-03T14:27:06Z</time>
      </trkpt>
      <trkpt lat="44.04242" lon="3.64095">
        <ele>697</ele>
        <time>2012-03-03T14:27:11Z</time>
      </trkpt>
      <trkpt lat="44.0425" lon="3.64091">
        <ele>698</ele>
        <time>2012-03-03T14:27:16Z</time>
      </trkpt>
      <trkpt lat="44.04261" lon="3.64084">
        <ele>706</ele>
        <time>2012-03-03T14:27:21Z</time>
      </trkpt>
      <trkpt lat="44.04271" lon="3.64078">
        <ele>700</ele>
        <time>2012-03-03T14:27:26Z</time>
      </trkpt>
      <trkpt lat="44.04277" lon="3.64069">
        <ele>700</ele>
        <time>2012-03-03T14:27:31Z</time>
      </trkpt>
      <trkpt lat="44.04285" lon="3.64056">
        <ele>700</ele>
        <time>2012-03-03T14:27:36Z</time>
      </trkpt>
      <trkpt lat="44.04294" lon="3.64043">
        <ele>700</ele>
        <time>2012-03-03T14:27:41Z</time>
      </trkpt>
      <trkpt lat="44.04305" lon="3.64039">
        <ele>700</ele>
        <time>2012-03-03T14:27:46Z</time>
      </trkpt>
      <trkpt lat="44.04311" lon="3.64032">
        <ele>700</ele>
        <time>2012-03-03T14:27:51Z</time>
      </trkpt>
      <trkpt lat="44.04316" lon="3.64025">
        <ele>700</ele>
        <time>2012-03-03T14:27:56Z</time>
      </trkpt>
      <trkpt lat="44.04322" lon="3.64018">
        <ele>700</ele>
        <time>2012-03-03T14:28:01Z</time>
      </trkpt>
      <trkpt lat="44.04328" lon="3.64009">
        <ele>700</ele>
        <time>2012-03-03T14:28:06Z</time>
      </trkpt>
      <trkpt lat="44.04333" lon="3.63999">
        <ele>699</ele>
        <time>2012-03-03T14:28:11Z</time>
      </trkpt>
      <trkpt lat="44.04337" lon="3.6399">
        <ele>701</ele>
        <time>2012-03-03T14:28:16Z</time>
      </trkpt>
      <trkpt lat="44.04344" lon="3.6398">
        <ele>702</ele>
        <time>2012-03-03T14:28:21Z</time>
      </trkpt>
      <trkpt lat="44.04351" lon="3.63976">
        <ele>703</ele>
        <time>2012-03-03T14:28:26Z</time>
      </trkpt>
      <trkpt lat="44.04358" lon="3.63976">
        <ele>703</ele>
        <time>2012-03-03T14:28:31Z</time>
      </trkpt>
      <trkpt lat="44.04365" lon="3.63979">
        <ele>704</ele>
        <time>2012-03-03T14:28:36Z</time>
      </trkpt>
      <trkpt lat="44.04372" lon="3.63983">
        <ele>706</ele>
        <time>2012-03-03T14:28:41Z</time>
      </trkpt>
      <trkpt lat="44.04379" lon="3.63985">
        <ele>707</ele>
        <time>2012-03-03T14:28:46Z</time>
      </trkpt>
      <trkpt lat="44.04385" lon="3.63983">
        <ele>709</ele>
        <time>2012-03-03T14:28:51Z</time>
      </trkpt>
      <trkpt lat="44.04392" lon="3.63975">
        <ele>709</ele>
        <time>2012-03-03T14:28:56Z</time>
      </trkpt>
      <trkpt lat="44.04396" lon="3.63967">
        <ele>709</ele>
        <time>2012-03-03T14:29:01Z</time>
      </trkpt>
      <trkpt lat="44.04396" lon="3.63957">
        <ele>707</ele>
        <time>2012-03-03T14:29:06Z</time>
      </trkpt>
      <trkpt lat="44.04395" lon="3.6395">
        <ele>707</ele>
        <time>2012-03-03T14:29:11Z</time>
      </trkpt>
      <trkpt lat="44.04393" lon="3.63944">
        <ele>706</ele>
        <time>2012-03-03T14:29:16Z</time>
      </trkpt>
      <trkpt lat="44.0439" lon="3.63935">
        <ele>705</ele>
        <time>2012-03-03T14:29:21Z</time>
      </trkpt>
      <trkpt lat="44.0439" lon="3.63924">
        <ele>705</ele>
        <time>2012-03-03T14:29:26Z</time>
      </trkpt>
      <trkpt lat="44.04392" lon="3.63913">
        <ele>697</ele>
        <time>2012-03-03T14:29:31Z</time>
      </trkpt>
      <trkpt lat="44.04397" lon="3.63903">
        <ele>697</ele>
        <time>2012-03-03T14:29:36Z</time>
      </trkpt>
      <trkpt lat="44.04403" lon="3.63891">
        <ele>696</ele>
        <time>2012-03-03T14:29:41Z</time>
      </trkpt>
      <trkpt lat="44.04413" lon="3.63882">
        <ele>695</ele>
        <time>2012-03-03T14:29:46Z</time>
      </trkpt>
      <trkpt lat="44.04423" lon="3.63871">
        <ele>710</ele>
        <time>2012-03-03T14:29:51Z</time>
      </trkpt>
      <trkpt lat="44.04431" lon="3.6386">
        <ele>709</ele>
        <time>2012-03-03T14:29:56Z</time>
      </trkpt>
      <trkpt lat="44.04439" lon="3.63846">
        <ele>708</ele>
        <time>2012-03-03T14:30:01Z</time>
      </trkpt>
      <trkpt lat="44.04446" lon="3.63833">
        <ele>702</ele>
        <time>2012-03-03T14:30:06Z</time>
      </trkpt>
      <trkpt lat="44.04452" lon="3.63824">
        <ele>703</ele>
        <time>2012-03-03T14:30:11Z</time>
      </trkpt>
      <trkpt lat="44.04459" lon="3.63812">
        <ele>704</ele>
        <time>2012-03-03T14:30:16Z</time>
      </trkpt>
      <trkpt lat="44.04467" lon="3.63799">
        <ele>705</ele>
        <time>2012-03-03T14:30:21Z</time>
      </trkpt>
      <trkpt lat="44.04475" lon="3.63785">
        <ele>705</ele>
        <time>2012-03-03T14:30:26Z</time>
      </trkpt>
      <trkpt lat="44.04481" lon="3.63773">
        <ele>705</ele>
        <time>2012-03-03T14:30:31Z</time>
      </trkpt>
      <trkpt lat="44.04486" lon="3.63757">
        <ele>707</ele>
        <time>2012-03-03T14:30:36Z</time>
      </trkpt>
      <trkpt lat="44.0449" lon="3.63742">
        <ele>705</ele>
        <time>2012-03-03T14:30:41Z</time>
      </trkpt>
      <trkpt lat="44.04493" lon="3.63728">
        <ele>703</ele>
        <time>2012-03-03T14:30:46Z</time>
      </trkpt>
      <trkpt lat="44.04497" lon="3.63715">
        <ele>702</ele>
        <time>2012-03-03T14:30:51Z</time>
      </trkpt>
      <trkpt lat="44.04504" lon="3.63705">
        <ele>710</ele>
        <time>2012-03-03T14:30:56Z</time>
      </trkpt>
      <trkpt lat="44.04512" lon="3.63694">
        <ele>709</ele>
        <time>2012-03-03T14:31:01Z</time>
      </trkpt>
      <trkpt lat="44.04518" lon="3.63685">
        <ele>709</ele>
        <time>2012-03-03T14:31:06Z</time>
      </trkpt>
      <trkpt lat="44.04525" lon="3.63674">
        <ele>709</ele>
        <time>2012-03-03T14:31:11Z</time>
      </trkpt>
      <trkpt lat="44.04534" lon="3.63664">
        <ele>708</ele>
        <time>2012-03-03T14:31:16Z</time>
      </trkpt>
      <trkpt lat="44.04544" lon="3.63653">
        <ele>708</ele>
        <time>2012-03-03T14:31:21Z</time>
      </trkpt>
      <trkpt lat="44.04552" lon="3.6364">
        <ele>709</ele>
        <time>2012-03-03T14:31:26Z</time>
      </trkpt>
      <trkpt lat="44.0456" lon="3.63628">
        <ele>709</ele>
        <time>2012-03-03T14:31:31Z</time>
      </trkpt>
      <trkpt lat="44.04562" lon="3.63613">
        <ele>709</ele>
        <time>2012-03-03T14:31:36Z</time>
      </trkpt>
      <trkpt lat="44.04562" lon="3.63603">
        <ele>709</ele>
        <time>2012-03-03T14:31:41Z</time>
      </trkpt>
      <trkpt lat="44.04562" lon="3.63592">
        <ele>709</ele>
        <time>2012-03-03T14:31:46Z</time>
      </trkpt>
      <trkpt lat="44.04561" lon="3.63574">
        <ele>710</ele>
        <time>2012-03-03T14:31:51Z</time>
      </trkpt>
      <trkpt lat="44.0456" lon="3.63562">
        <ele>710</ele>
        <time>2012-03-03T14:31:56Z</time>
      </trkpt>
      <trkpt lat="44.0456" lon="3.63548">
        <ele>710</ele>
        <time>2012-03-03T14:32:01Z</time>
      </trkpt>
      <trkpt lat="44.0456" lon="3.63534">
        <ele>711</ele>
        <time>2012-03-03T14:32:06Z</time>
      </trkpt>
      <trkpt lat="44.0456" lon="3.63521">
        <ele>712</ele>
        <time>2012-03-03T14:32:11Z</time>
      </trkpt>
      <trkpt lat="44.0456" lon="3.63511">
        <ele>712</ele>
        <time>2012-03-03T14:32:16Z</time>
      </trkpt>
      <trkpt lat="44.0456" lon="3.63503">
        <ele>712</ele>
        <time>2012-03-03T14:32:21Z</time>
      </trkpt>
      <trkpt lat="44.04559" lon="3.63497">
        <ele>719</ele>
        <time>2012-03-03T14:32:26Z</time>
      </trkpt>
      <trkpt lat="44.0456" lon="3.63493">
        <ele>719</ele>
        <time>2012-03-03T14:32:31Z</time>
      </trkpt>
      <trkpt lat="44.0456" lon="3.6349">
        <ele>719</ele>
        <time>2012-03-03T14:32:36Z</time>
      </trkpt>
      <trkpt lat="44.04561" lon="3.63486">
        <ele>719</ele>
        <time>2012-03-03T14:32:41Z</time>
      </trkpt>
      <trkpt lat="44.0456" lon="3.63483">
        <ele>719</ele>
        <time>2012-03-03T14:32:46Z</time>
      </trkpt>
      <trkpt lat="44.04559" lon="3.6348">
        <ele>720</ele>
        <time>2012-03-03T14:32:51Z</time>
      </trkpt>
      <trkpt lat="44.04558" lon="3.63476">
        <ele>720</ele>
        <time>2012-03-03T14:32:56Z</time>
      </trkpt>
      <trkpt lat="44.04557" lon="3.63473">
        <ele>720</ele>
        <time>2012-03-03T14:33:01Z</time>
      </trkpt>
      <trkpt lat="44.04557" lon="3.63468">
        <ele>721</ele>
        <time>2012-03-03T14:33:06Z</time>
      </trkpt>
      <trkpt lat="44.04557" lon="3.63465">
        <ele>721</ele>
        <time>2012-03-03T14:33:11Z</time>
      </trkpt>
      <trkpt lat="44.04557" lon="3.63461">
        <ele>722</ele>
        <time>2012-03-03T14:33:16Z</time>
      </trkpt>
      <trkpt lat="44.04558" lon="3.63456">
        <ele>722</ele>
        <time>2012-03-03T14:33:21Z</time>
      </trkpt>
      <trkpt lat="44.04559" lon="3.63452">
        <ele>723</ele>
        <time>2012-03-03T14:33:26Z</time>
      </trkpt>
      <trkpt lat="44.04558" lon="3.63447">
        <ele>723</ele>
        <time>2012-03-03T14:33:31Z</time>
      </trkpt>
      <trkpt lat="44.04558" lon="3.63444">
        <ele>724</ele>
        <time>2012-03-03T14:33:36Z</time>
      </trkpt>
      <trkpt lat="44.04556" lon="3.63441">
        <ele>724</ele>
        <time>2012-03-03T14:33:41Z</time>
      </trkpt>
      <trkpt lat="44.04556" lon="3.63437">
        <ele>724</ele>
        <time>2012-03-03T14:33:46Z</time>
      </trkpt>
      <trkpt lat="44.04552" lon="3.63432">
        <ele>725</ele>
        <time>2012-03-03T14:33:51Z</time>
      </trkpt>
      <trkpt lat="44.04546" lon="3.63428">
        <ele>725</ele>
        <time>2012-03-03T14:33:56Z</time>
      </trkpt>
      <trkpt lat="44.04541" lon="3.63422">
        <ele>725</ele>
        <time>2012-03-03T14:34:01Z</time>
      </trkpt>
      <trkpt lat="44.04536" lon="3.63417">
        <ele>725</ele>
        <time>2012-03-03T14:34:06Z</time>
      </trkpt>
      <trkpt lat="44.04531" lon="3.63409">
        <ele>735</ele>
        <time>2012-03-03T14:34:11Z</time>
      </trkpt>
      <trkpt lat="44.04528" lon="3.63404">
        <ele>735</ele>
        <time>2012-03-03T14:34:16Z</time>
      </trkpt>
      <trkpt lat="44.04525" lon="3.63397">
        <ele>736</ele>
        <time>2012-03-03T14:34:21Z</time>
      </trkpt>
      <trkpt lat="44.04521" lon="3.63391">
        <ele>736</ele>
        <time>2012-03-03T14:34:26Z</time>
      </trkpt>
      <trkpt lat="44.04518" lon="3.63384">
        <ele>737</ele>
        <time>2012-03-03T14:34:31Z</time>
      </trkpt>
      <trkpt lat="44.04516" lon="3.63378">
        <ele>738</ele>
        <time>2012-03-03T14:34:36Z</time>
      </trkpt>
      <trkpt lat="44.04512" lon="3.63372">
        <ele>739</ele>
        <time>2012-03-03T14:34:41Z</time>
      </trkpt>
      <trkpt lat="44.04508" lon="3.63366">
        <ele>740</ele>
        <time>2012-03-03T14:34:46Z</time>
      </trkpt>
      <trkpt lat="44.04504" lon="3.6336">
        <ele>740</ele>
        <time>2012-03-03T14:34:51Z</time>
      </trkpt>
      <trkpt lat="44.045" lon="3.63355">
        <ele>738</ele>
        <time>2012-03-03T14:34:56Z</time>
      </trkpt>
      <trkpt lat="44.04497" lon="3.63347">
        <ele>740</ele>
        <time>2012-03-03T14:35:01Z</time>
      </trkpt>
      <trkpt lat="44.04493" lon="3.63341">
        <ele>742</ele>
        <time>2012-03-03T14:35:06Z</time>
      </trkpt>
      <trkpt lat="44.0449" lon="3.63335">
        <ele>742</ele>
        <time>2012-03-03T14:35:11Z</time>
      </trkpt>
      <trkpt lat="44.04486" lon="3.63329">
        <ele>746</ele>
        <time>2012-03-03T14:35:16Z</time>
      </trkpt>
      <trkpt lat="44.04482" lon="3.63323">
        <ele>746</ele>
        <time>2012-03-03T14:35:21Z</time>
      </trkpt>
      <trkpt lat="44.04479" lon="3.63318">
        <ele>746</ele>
        <time>2012-03-03T14:35:26Z</time>
      </trkpt>
      <trkpt lat="44.04475" lon="3.63312">
        <ele>746</ele>
        <time>2012-03-03T14:35:31Z</time>
      </trkpt>
      <trkpt lat="44.04472" lon="3.63306">
        <ele>746</ele>
        <time>2012-03-03T14:35:36Z</time>
      </trkpt>
      <trkpt lat="44.04469" lon="3.63299">
        <ele>746</ele>
        <time>2012-03-03T14:35:41Z</time>
      </trkpt>
      <trkpt lat="44.04466" lon="3.63292">
        <ele>746</ele>
        <time>2012-03-03T14:35:46Z</time>
      </trkpt>
      <trkpt lat="44.04464" lon="3.63285">
        <ele>747</ele>
        <time>2012-03-03T14:35:51Z</time>
      </trkpt>
      <trkpt lat="44.04462" lon="3.63277">
        <ele>747</ele>
        <time>2012-03-03T14:35:56Z</time>
      </trkpt>
      <trkpt lat="44.0446" lon="3.63268">
        <ele>748</ele>
        <time>2012-03-03T14:36:01Z</time>
      </trkpt>
      <trkpt lat="44.0446" lon="3.63263">
        <ele>748</ele>
        <time>2012-03-03T14:36:06Z</time>
      </trkpt>
      <trkpt lat="44.04459" lon="3.63253">
        <ele>748</ele>
        <time>2012-03-03T14:36:11Z</time>
      </trkpt>
      <trkpt lat="44.04459" lon="3.63244">
        <ele>754</ele>
        <time>2012-03-03T14:36:16Z</time>
      </trkpt>
      <trkpt lat="44.04459" lon="3.63236">
        <ele>754</ele>
        <time>2012-03-03T14:36:21Z</time>
      </trkpt>
      <trkpt lat="44.04461" lon="3.63224">
        <ele>754</ele>
        <time>2012-03-03T14:36:26Z</time>
      </trkpt>
      <trkpt lat="44.04463" lon="3.63213">
        <ele>754</ele>
        <time>2012-03-03T14:36:31Z</time>
      </trkpt>
      <trkpt lat="44.04465" lon="3.63204">
        <ele>754</ele>
        <time>2012-03-03T14:36:36Z</time>
      </trkpt>
      <trkpt lat="44.04465" lon="3.63195">
        <ele>754</ele>
        <time>2012-03-03T14:36:41Z</time>
      </trkpt>
      <trkpt lat="44.04466" lon="3.63186">
        <ele>755</ele>
        <time>2012-03-03T14:36:46Z</time>
      </trkpt>
      <trkpt lat="44.04467" lon="3.63176">
        <ele>755</ele>
        <time>2012-03-03T14:36:51Z</time>
      </trkpt>
      <trkpt lat="44.04467" lon="3.63168">
        <ele>754</ele>
        <time>2012-03-03T14:36:56Z</time>
      </trkpt>
      <trkpt lat="44.04467" lon="3.63159">
        <ele>757</ele>
        <time>2012-03-03T14:37:01Z</time>
      </trkpt>
      <trkpt lat="44.04467" lon="3.63151">
        <ele>757</ele>
        <time>2012-03-03T14:37:06Z</time>
      </trkpt>
      <trkpt lat="44.04467" lon="3.63143">
        <ele>757</ele>
        <time>2012-03-03T14:37:11Z</time>
      </trkpt>
      <trkpt lat="44.04465" lon="3.63135">
        <ele>757</ele>
        <time>2012-03-03T14:37:16Z</time>
      </trkpt>
      <trkpt lat="44.04464" lon="3.63127">
        <ele>757</ele>
        <time>2012-03-03T14:37:21Z</time>
      </trkpt>
      <trkpt lat="44.04461" lon="3.6312">
        <ele>758</ele>
        <time>2012-03-03T14:37:26Z</time>
      </trkpt>
      <trkpt lat="44.04458" lon="3.63113">
        <ele>759</ele>
        <time>2012-03-03T14:37:31Z</time>
      </trkpt>
      <trkpt lat="44.04454" lon="3.63106">
        <ele>759</ele>
        <time>2012-03-03T14:37:36Z</time>
      </trkpt>
      <trkpt lat="44.0445" lon="3.631">
        <ele>761</ele>
        <time>2012-03-03T14:37:41Z</time>
      </trkpt>
      <trkpt lat="44.04444" lon="3.63093">
        <ele>762</ele>
        <time>2012-03-03T14:37:46Z</time>
      </trkpt>
      <trkpt lat="44.04439" lon="3.63087">
        <ele>764</ele>
        <time>2012-03-03T14:37:51Z</time>
      </trkpt>
      <trkpt lat="44.04434" lon="3.63081">
        <ele>763</ele>
        <time>2012-03-03T14:37:56Z</time>
      </trkpt>
      <trkpt lat="44.04429" lon="3.63075">
        <ele>765</ele>
        <time>2012-03-03T14:38:01Z</time>
      </trkpt>
      <trkpt lat="44.04426" lon="3.6307">
        <ele>764</ele>
        <time>2012-03-03T14:38:06Z</time>
      </trkpt>
      <trkpt lat="44.04421" lon="3.63064">
        <ele>763</ele>
        <time>2012-03-03T14:38:11Z</time>
      </trkpt>
      <trkpt lat="44.04417" lon="3.63057">
        <ele>774</ele>
        <time>2012-03-03T14:38:16Z</time>
      </trkpt>
      <trkpt lat="44.04412" lon="3.6305">
        <ele>774</ele>
        <time>2012-03-03T14:38:21Z</time>
      </trkpt>
      <trkpt lat="44.04407" lon="3.63043">
        <ele>773</ele>
        <time>2012-03-03T14:38:26Z</time>
      </trkpt>
      <trkpt lat="44.04401" lon="3.63035">
        <ele>773</ele>
        <time>2012-03-03T14:38:31Z</time>
      </trkpt>
      <trkpt lat="44.04396" lon="3.63031">
        <ele>773</ele>
        <time>2012-03-03T14:38:36Z</time>
      </trkpt>
      <trkpt lat="44.04389" lon="3.63024">
        <ele>773</ele>
        <time>2012-03-03T14:38:41Z</time>
      </trkpt>
      <trkpt lat="44.04382" lon="3.63017">
        <ele>774</ele>
        <time>2012-03-03T14:38:46Z</time>
      </trkpt>
      <trkpt lat="44.04377" lon="3.6301">
        <ele>774</ele>
        <time>2012-03-03T14:38:51Z</time>
      </trkpt>
      <trkpt lat="44.04373" lon="3.63">
        <ele>775</ele>
        <time>2012-03-03T14:38:56Z</time>
      </trkpt>
      <trkpt lat="44.04371" lon="3.62992">
        <ele>772</ele>
        <time>2012-03-03T14:39:01Z</time>
      </trkpt>
      <trkpt lat="44.0437" lon="3.62983">
        <ele>772</ele>
        <time>2012-03-03T14:39:06Z</time>
      </trkpt>
      <trkpt lat="44.0437" lon="3.62972">
        <ele>772</ele>
        <time>2012-03-03T14:39:11Z</time>
      </trkpt>
      <trkpt lat="44.04369" lon="3.62962">
        <ele>771</ele>
        <time>2012-03-03T14:39:16Z</time>
      </trkpt>
      <trkpt lat="44.04368" lon="3.62953">
        <ele>771</ele>
        <time>2012-03-03T14:39:21Z</time>
      </trkpt>
      <trkpt lat="44.04368" lon="3.62942">
        <ele>771</ele>
        <time>2012-03-03T14:39:26Z</time>
      </trkpt>
      <trkpt lat="44.04367" lon="3.6293">
        <ele>772</ele>
        <time>2012-03-03T14:39:31Z</time>
      </trkpt>
      <trkpt lat="44.04364" lon="3.62918">
        <ele>773</ele>
        <time>2012-03-03T14:39:36Z</time>
      </trkpt>
      <trkpt lat="44.0436" lon="3.62904">
        <ele>770</ele>
        <time>2012-03-03T14:39:41Z</time>
      </trkpt>
      <trkpt lat="44.04355" lon="3.6289">
        <ele>769</ele>
        <time>2012-03-03T14:39:46Z</time>
      </trkpt>
      <trkpt lat="44.04351" lon="3.6288">
        <ele>769</ele>
        <time>2012-03-03T14:39:51Z</time>
      </trkpt>
      <trkpt lat="44.04345" lon="3.62869">
        <ele>769</ele>
        <time>2012-03-03T14:39:56Z</time>
      </trkpt>
      <trkpt lat="44.04339" lon="3.62856">
        <ele>771</ele>
        <time>2012-03-03T14:40:01Z</time>
      </trkpt>
      <trkpt lat="44.04332" lon="3.62844">
        <ele>783</ele>
        <time>2012-03-03T14:40:06Z</time>
      </trkpt>
      <trkpt lat="44.04326" lon="3.62832">
        <ele>780</ele>
        <time>2012-03-03T14:40:11Z</time>
      </trkpt>
      <trkpt lat="44.0432" lon="3.62818">
        <ele>781</ele>
        <time>2012-03-03T14:40:16Z</time>
      </trkpt>
      <trkpt lat="44.04316" lon="3.62799">
        <ele>781</ele>
        <time>2012-03-03T14:40:21Z</time>
      </trkpt>
      <trkpt lat="44.04315" lon="3.62784">
        <ele>780</ele>
        <time>2012-03-03T14:40:26Z</time>
      </trkpt>
      <trkpt lat="44.04313" lon="3.62768">
        <ele>779</ele>
        <time>2012-03-03T14:40:31Z</time>
      </trkpt>
      <trkpt lat="44.04311" lon="3.62752">
        <ele>778</ele>
        <time>2012-03-03T14:40:36Z</time>
      </trkpt>
      <trkpt lat="44.04308" lon="3.62736">
        <ele>777</ele>
        <time>2012-03-03T14:40:41Z</time>
      </trkpt>
      <trkpt lat="44.04306" lon="3.62724">
        <ele>777</ele>
        <time>2012-03-03T14:40:46Z</time>
      </trkpt>
      <trkpt lat="44.04301" lon="3.6271">
        <ele>778</ele>
        <time>2012-03-03T14:40:51Z</time>
      </trkpt>
      <trkpt lat="44.04295" lon="3.62698">
        <ele>778</ele>
        <time>2012-03-03T14:40:56Z</time>
      </trkpt>
      <trkpt lat="44.04289" lon="3.62685">
        <ele>778</ele>
        <time>2012-03-03T14:41:01Z</time>
      </trkpt>
      <trkpt lat="44.04285" lon="3.62672">
        <ele>778</ele>
        <time>2012-03-03T14:41:06Z</time>
      </trkpt>
      <trkpt lat="44.04281" lon="3.62663">
        <ele>781</ele>
        <time>2012-03-03T14:41:11Z</time>
      </trkpt>
      <trkpt lat="44.04281" lon="3.62648">
        <ele>781</ele>
        <time>2012-03-03T14:41:16Z</time>
      </trkpt>
      <trkpt lat="44.04283" lon="3.62635">
        <ele>782</ele>
        <time>2012-03-03T14:41:21Z</time>
      </trkpt>
      <trkpt lat="44.04285" lon="3.62626">
        <ele>783</ele>
        <time>2012-03-03T14:41:26Z</time>
      </trkpt>
      <trkpt lat="44.04288" lon="3.62622">
        <ele>783</ele>
        <time>2012-03-03T14:41:31Z</time>
      </trkpt>
      <trkpt lat="44.04288" lon="3.62617">
        <ele>783</ele>
        <time>2012-03-03T14:41:36Z</time>
      </trkpt>
      <trkpt lat="44.04293" lon="3.62615">
        <ele>784</ele>
        <time>2012-03-03T14:41:41Z</time>
      </trkpt>
      <trkpt lat="44.04297" lon="3.62612">
        <ele>784</ele>
        <time>2012-03-03T14:41:46Z</time>
      </trkpt>
      <trkpt lat="44.04302" lon="3.62613">
        <ele>785</ele>
        <time>2012-03-03T14:41:51Z</time>
      </trkpt>
      <trkpt lat="44.04306" lon="3.62612">
        <ele>785</ele>
        <time>2012-03-03T14:41:56Z</time>
      </trkpt>
      <trkpt lat="44.04307" lon="3.62612">
        <ele>785</ele>
        <time>2012-03-03T14:42:01Z</time>
      </trkpt>
      <trkpt lat="44.04308" lon="3.62611">
        <ele>786</ele>
        <time>2012-03-03T14:42:06Z</time>
      </trkpt>
      <trkpt lat="44.04311" lon="3.6261">
        <ele>786</ele>
        <time>2012-03-03T14:42:11Z</time>
      </trkpt>
      <trkpt lat="44.04311" lon="3.62608">
        <ele>786</ele>
        <time>2012-03-03T14:42:16Z</time>
      </trkpt>
      <trkpt lat="44.0431" lon="3.62606">
        <ele>786</ele>
        <time>2012-03-03T14:42:21Z</time>
      </trkpt>
      <trkpt lat="44.0431" lon="3.62605">
        <ele>786</ele>
        <time>2012-03-03T14:42:26Z</time>
      </trkpt>
      <trkpt lat="44.04312" lon="3.62602">
        <ele>787</ele>
        <time>2012-03-03T14:42:31Z</time>
      </trkpt>
      <trkpt lat="44.04314" lon="3.62601">
        <ele>788</ele>
        <time>2012-03-03T14:42:36Z</time>
      </trkpt>
      <trkpt lat="44.04317" lon="3.62598">
        <ele>789</ele>
        <time>2012-03-03T14:42:41Z</time>
      </trkpt>
      <trkpt lat="44.0432" lon="3.62594">
        <ele>790</ele>
        <time>2012-03-03T14:42:46Z</time>
      </trkpt>
      <trkpt lat="44.04326" lon="3.6259">
        <ele>793</ele>
        <time>2012-03-03T14:42:51Z</time>
      </trkpt>
      <trkpt lat="44.04328" lon="3.62589">
        <ele>794</ele>
        <time>2012-03-03T14:42:56Z</time>
      </trkpt>
      <trkpt lat="44.0433" lon="3.62586">
        <ele>795</ele>
        <time>2012-03-03T14:43:01Z</time>
      </trkpt>
      <trkpt lat="44.04334" lon="3.62582">
        <ele>799</ele>
        <time>2012-03-03T14:43:06Z</time>
      </trkpt>
      <trkpt lat="44.04336" lon="3.62581">
        <ele>800</ele>
        <time>2012-03-03T14:43:11Z</time>
      </trkpt>
      <trkpt lat="44.04338" lon="3.62579">
        <ele>801</ele>
        <time>2012-03-03T14:43:16Z</time>
      </trkpt>
      <trkpt lat="44.0434" lon="3.62578">
        <ele>801</ele>
        <time>2012-03-03T14:43:21Z</time>
      </trkpt>
      <trkpt lat="44.04342" lon="3.62576">
        <ele>802</ele>
        <time>2012-03-03T14:43:26Z</time>
      </trkpt>
      <trkpt lat="44.04343" lon="3.62574">
        <ele>803</ele>
        <time>2012-03-03T14:43:31Z</time>
      </trkpt>
      <trkpt lat="44.04345" lon="3.62571">
        <ele>804</ele>
        <time>2012-03-03T14:43:36Z</time>
      </trkpt>
      <trkpt lat="44.04347" lon="3.6257">
        <ele>804</ele>
        <time>2012-03-03T14:43:41Z</time>
      </trkpt>
      <trkpt lat="44.04348" lon="3.62567">
        <ele>805</ele>
        <time>2012-03-03T14:43:46Z</time>
      </trkpt>
      <trkpt lat="44.04347" lon="3.62564">
        <ele>805</ele>
        <time>2012-03-03T14:43:51Z</time>
      </trkpt>
      <trkpt lat="44.04345" lon="3.62561">
        <ele>805</ele>
        <time>2012-03-03T14:43:56Z</time>
      </trkpt>
      <trkpt lat="44.04345" lon="3.62557">
        <ele>806</ele>
        <time>2012-03-03T14:44:01Z</time>
      </trkpt>
      <trkpt lat="44.04348" lon="3.62554">
        <ele>807</ele>
        <time>2012-03-03T14:44:06Z</time>
      </trkpt>
      <trkpt lat="44.04352" lon="3.6255">
        <ele>807</ele>
        <time>2012-03-03T14:44:11Z</time>
      </trkpt>
      <trkpt lat="44.04355" lon="3.62549">
        <ele>808</ele>
        <time>2012-03-03T14:44:16Z</time>
      </trkpt>
      <trkpt lat="44.04357" lon="3.62547">
        <ele>808</ele>
        <time>2012-03-03T14:44:21Z</time>
      </trkpt>
      <trkpt lat="44.04359" lon="3.62545">
        <ele>809</ele>
        <time>2012-03-03T14:44:26Z</time>
      </trkpt>
      <trkpt lat="44.04359" lon="3.62541">
        <ele>809</ele>
        <time>2012-03-03T14:44:31Z</time>
      </trkpt>
      <trkpt lat="44.04362" lon="3.62538">
        <ele>809</ele>
        <time>2012-03-03T14:44:36Z</time>
      </trkpt>
      <trkpt lat="44.04366" lon="3.62535">
        <ele>810</ele>
        <time>2012-03-03T14:44:41Z</time>
      </trkpt>
      <trkpt lat="44.0437" lon="3.62532">
        <ele>811</ele>
        <time>2012-03-03T14:44:46Z</time>
      </trkpt>
      <trkpt lat="44.04375" lon="3.62529">
        <ele>811</ele>
        <time>2012-03-03T14:44:51Z</time>
      </trkpt>
      <trkpt lat="44.04379" lon="3.62527">
        <ele>812</ele>
        <time>2012-03-03T14:44:56Z</time>
      </trkpt>
      <trkpt lat="44.04382" lon="3.62523">
        <ele>813</ele>
        <time>2012-03-03T14:45:01Z</time>
      </trkpt>
      <trkpt lat="44.04384" lon="3.6252">
        <ele>814</ele>
        <time>2012-03-03T14:45:06Z</time>
      </trkpt>
      <trkpt lat="44.04386" lon="3.62519">
        <ele>814</ele>
        <time>2012-03-03T14:45:11Z</time>
      </trkpt>
      <trkpt lat="44.04388" lon="3.62516">
        <ele>815</ele>
        <time>2012-03-03T14:45:16Z</time>
      </trkpt>
      <trkpt lat="44.04389" lon="3.62513">
        <ele>816</ele>
        <time>2012-03-03T14:45:21Z</time>
      </trkpt>
      <trkpt lat="44.04392" lon="3.62509">
        <ele>817</ele>
        <time>2012-03-03T14:45:26Z</time>
      </trkpt>
      <trkpt lat="44.04394" lon="3.62506">
        <ele>818</ele>
        <time>2012-03-03T14:45:31Z</time>
      </trkpt>
      <trkpt lat="44.04396" lon="3.62504">
        <ele>819</ele>
        <time>2012-03-03T14:45:36Z</time>
      </trkpt>
      <trkpt lat="44.04399" lon="3.62502">
        <ele>820</ele>
        <time>2012-03-03T14:45:41Z</time>
      </trkpt>
      <trkpt lat="44.04401" lon="3.62499">
        <ele>828</ele>
        <time>2012-03-03T14:45:46Z</time>
      </trkpt>
      <trkpt lat="44.04403" lon="3.62496">
        <ele>828</ele>
        <time>2012-03-03T14:45:51Z</time>
      </trkpt>
      <trkpt lat="44.04405" lon="3.62492">
        <ele>828</ele>
        <time>2012-03-03T14:45:56Z</time>
      </trkpt>
      <trkpt lat="44.04407" lon="3.6249">
        <ele>829</ele>
        <time>2012-03-03T14:46:01Z</time>
      </trkpt>
      <trkpt lat="44.04409" lon="3.62487">
        <ele>829</ele>
        <time>2012-03-03T14:46:06Z</time>
      </trkpt>
      <trkpt lat="44.04412" lon="3.62484">
        <ele>829</ele>
        <time>2012-03-03T14:46:11Z</time>
      </trkpt>
      <trkpt lat="44.04413" lon="3.62481">
        <ele>829</ele>
        <time>2012-03-03T14:46:16Z</time>
      </trkpt>
      <trkpt lat="44.04413" lon="3.62479">
        <ele>829</ele>
        <time>2012-03-03T14:46:21Z</time>
      </trkpt>
      <trkpt lat="44.04415" lon="3.62477">
        <ele>829</ele>
        <time>2012-03-03T14:46:26Z</time>
      </trkpt>
      <trkpt lat="44.04418" lon="3.62476">
        <ele>840</ele>
        <time>2012-03-03T14:46:31Z</time>
      </trkpt>
      <trkpt lat="44.04421" lon="3.62473">
        <ele>841</ele>
        <time>2012-03-03T14:46:36Z</time>
      </trkpt>
      <trkpt lat="44.04421" lon="3.6247">
        <ele>842</ele>
        <time>2012-03-03T14:46:41Z</time>
      </trkpt>
      <trkpt lat="44.04424" lon="3.62466">
        <ele>843</ele>
        <time>2012-03-03T14:46:46Z</time>
      </trkpt>
      <trkpt lat="44.04426" lon="3.62463">
        <ele>843</ele>
        <time>2012-03-03T14:46:51Z</time>
      </trkpt>
      <trkpt lat="44.04428" lon="3.62462">
        <ele>844</ele>
        <time>2012-03-03T14:46:56Z</time>
      </trkpt>
      <trkpt lat="44.0443" lon="3.6246">
        <ele>844</ele>
        <time>2012-03-03T14:47:01Z</time>
      </trkpt>
      <trkpt lat="44.04431" lon="3.62456">
        <ele>845</ele>
        <time>2012-03-03T14:47:06Z</time>
      </trkpt>
      <trkpt lat="44.04431" lon="3.62454">
        <ele>845</ele>
        <time>2012-03-03T14:47:11Z</time>
      </trkpt>
      <trkpt lat="44.04433" lon="3.62452">
        <ele>846</ele>
        <time>2012-03-03T14:47:16Z</time>
      </trkpt>
      <trkpt lat="44.04436" lon="3.6245">
        <ele>846</ele>
        <time>2012-03-03T14:47:21Z</time>
      </trkpt>
      <trkpt lat="44.04438" lon="3.62447">
        <ele>846</ele>
        <time>2012-03-03T14:47:26Z</time>
      </trkpt>
      <trkpt lat="44.04438" lon="3.62445">
        <ele>847</ele>
        <time>2012-03-03T14:47:31Z</time>
      </trkpt>
      <trkpt lat="44.0444" lon="3.6244">
        <ele>847</ele>
        <time>2012-03-03T14:47:36Z</time>
      </trkpt>
      <trkpt lat="44.04444" lon="3.62436">
        <ele>848</ele>
        <time>2012-03-03T14:47:41Z</time>
      </trkpt>
      <trkpt lat="44.04445" lon="3.62434">
        <ele>848</ele>
        <time>2012-03-03T14:47:46Z</time>
      </trkpt>
      <trkpt lat="44.04446" lon="3.62432">
        <ele>849</ele>
        <time>2012-03-03T14:47:51Z</time>
      </trkpt>
      <trkpt lat="44.04447" lon="3.62428">
        <ele>849</ele>
        <time>2012-03-03T14:47:56Z</time>
      </trkpt>
      <trkpt lat="44.04449" lon="3.62425">
        <ele>849</ele>
        <time>2012-03-03T14:48:01Z</time>
      </trkpt>
      <trkpt lat="44.04451" lon="3.62423">
        <ele>850</ele>
        <time>2012-03-03T14:48:06Z</time>
      </trkpt>
      <trkpt lat="44.04453" lon="3.6242">
        <ele>850</ele>
        <time>2012-03-03T14:48:11Z</time>
      </trkpt>
      <trkpt lat="44.04456" lon="3.62415">
        <ele>864</ele>
        <time>2012-03-03T14:48:16Z</time>
      </trkpt>
      <trkpt lat="44.04458" lon="3.62412">
        <ele>865</ele>
        <time>2012-03-03T14:48:21Z</time>
      </trkpt>
      <trkpt lat="44.04461" lon="3.62409">
        <ele>865</ele>
        <time>2012-03-03T14:48:26Z</time>
      </trkpt>
      <trkpt lat="44.04463" lon="3.62407">
        <ele>866</ele>
        <time>2012-03-03T14:48:31Z</time>
      </trkpt>
      <trkpt lat="44.04466" lon="3.62404">
        <ele>866</ele>
        <time>2012-03-03T14:48:36Z</time>
      </trkpt>
      <trkpt lat="44.04467" lon="3.62402">
        <ele>867</ele>
        <time>2012-03-03T14:48:41Z</time>
      </trkpt>
      <trkpt lat="44.04469" lon="3.62399">
        <ele>867</ele>
        <time>2012-03-03T14:48:46Z</time>
      </trkpt>
      <trkpt lat="44.04472" lon="3.62396">
        <ele>868</ele>
        <time>2012-03-03T14:48:51Z</time>
      </trkpt>
      <trkpt lat="44.04473" lon="3.62394">
        <ele>868</ele>
        <time>2012-03-03T14:48:56Z</time>
      </trkpt>
      <trkpt lat="44.04474" lon="3.62391">
        <ele>868</ele>
        <time>2012-03-03T14:49:01Z</time>
      </trkpt>
      <trkpt lat="44.04476" lon="3.6239">
        <ele>869</ele>
        <time>2012-03-03T14:49:06Z</time>
      </trkpt>
      <trkpt lat="44.04476" lon="3.62387">
        <ele>869</ele>
        <time>2012-03-03T14:49:11Z</time>
      </trkpt>
      <trkpt lat="44.04478" lon="3.62383">
        <ele>870</ele>
        <time>2012-03-03T14:49:16Z</time>
      </trkpt>
      <trkpt lat="44.04481" lon="3.62381">
        <ele>870</ele>
        <time>2012-03-03T14:49:21Z</time>
      </trkpt>
      <trkpt lat="44.04482" lon="3.62378">
        <ele>871</ele>
        <time>2012-03-03T14:49:26Z</time>
      </trkpt>
      <trkpt lat="44.04483" lon="3.62375">
        <ele>871</ele>
        <time>2012-03-03T14:49:31Z</time>
      </trkpt>
      <trkpt lat="44.04486" lon="3.62371">
        <ele>872</ele>
        <time>2012-03-03T14:49:36Z</time>
      </trkpt>
      <trkpt lat="44.04488" lon="3.62369">
        <ele>873</ele>
        <time>2012-03-03T14:49:41Z</time>
      </trkpt>
      <trkpt lat="44.04491" lon="3.62369">
        <ele>873</ele>
        <time>2012-03-03T14:49:46Z</time>
      </trkpt>
      <trkpt lat="44.04493" lon="3.62368">
        <ele>873</ele>
        <time>2012-03-03T14:49:51Z</time>
      </trkpt>
      <trkpt lat="44.04496" lon="3.62365">
        <ele>874</ele>
        <time>2012-03-03T14:49:56Z</time>
      </trkpt>
      <trkpt lat="44.04497" lon="3.62363">
        <ele>875</ele>
        <time>2012-03-03T14:50:01Z</time>
      </trkpt>
      <trkpt lat="44.04497" lon="3.6236">
        <ele>876</ele>
        <time>2012-03-03T14:50:06Z</time>
      </trkpt>
      <trkpt lat="44.04499" lon="3.62359">
        <ele>876</ele>
        <time>2012-03-03T14:50:11Z</time>
      </trkpt>
      <trkpt lat="44.04499" lon="3.6236">
        <ele>876</ele>
        <time>2012-03-03T14:50:16Z</time>
      </trkpt>
      <trkpt lat="44.045" lon="3.62357">
        <ele>887</ele>
        <time>2012-03-03T14:50:21Z</time>
      </trkpt>
      <trkpt lat="44.04501" lon="3.62355">
        <ele>887</ele>
        <time>2012-03-03T14:50:26Z</time>
      </trkpt>
      <trkpt lat="44.04503" lon="3.62352">
        <ele>888</ele>
        <time>2012-03-03T14:50:31Z</time>
      </trkpt>
      <trkpt lat="44.04505" lon="3.6235">
        <ele>888</ele>
        <time>2012-03-03T14:50:36Z</time>
      </trkpt>
      <trkpt lat="44.04506" lon="3.6235">
        <ele>888</ele>
        <time>2012-03-03T14:50:41Z</time>
      </trkpt>
      <trkpt lat="44.04508" lon="3.62348">
        <ele>888</ele>
        <time>2012-03-03T14:50:46Z</time>
      </trkpt>
      <trkpt lat="44.04509" lon="3.62347">
        <ele>889</ele>
        <time>2012-03-03T14:50:51Z</time>
      </trkpt>
      <trkpt lat="44.04512" lon="3.62342">
        <ele>889</ele>
        <time>2012-03-03T14:50:56Z</time>
      </trkpt>
      <trkpt lat="44.04513" lon="3.6234">
        <ele>889</ele>
        <time>2012-03-03T14:51:01Z</time>
      </trkpt>
      <trkpt lat="44.04516" lon="3.62336">
        <ele>889</ele>
        <time>2012-03-03T14:51:06Z</time>
      </trkpt>
      <trkpt lat="44.04519" lon="3.62334">
        <ele>889</ele>
        <time>2012-03-03T14:51:11Z</time>
      </trkpt>
      <trkpt lat="44.04521" lon="3.62332">
        <ele>901</ele>
        <time>2012-03-03T14:51:16Z</time>
      </trkpt>
      <trkpt lat="44.04524" lon="3.62329">
        <ele>902</ele>
        <time>2012-03-03T14:51:21Z</time>
      </trkpt>
      <trkpt lat="44.04525" lon="3.62327">
        <ele>903</ele>
        <time>2012-03-03T14:51:26Z</time>
      </trkpt>
      <trkpt lat="44.04528" lon="3.62325">
        <ele>904</ele>
        <time>2012-03-03T14:51:31Z</time>
      </trkpt>
      <trkpt lat="44.0453" lon="3.62324">
        <ele>904</ele>
        <time>2012-03-03T14:51:36Z</time>
      </trkpt>
      <trkpt lat="44.04533" lon="3.62322">
        <ele>905</ele>
        <time>2012-03-03T14:51:41Z</time>
      </trkpt>
      <trkpt lat="44.04536" lon="3.62321">
        <ele>906</ele>
        <time>2012-03-03T14:51:46Z</time>
      </trkpt>
      <trkpt lat="44.04537" lon="3.6232">
        <ele>906</ele>
        <time>2012-03-03T14:51:51Z</time>
      </trkpt>
      <trkpt lat="44.04538" lon="3.62319">
        <ele>907</ele>
        <time>2012-03-03T14:51:56Z</time>
      </trkpt>
      <trkpt lat="44.04539" lon="3.62317">
        <ele>907</ele>
        <time>2012-03-03T14:52:01Z</time>
      </trkpt>
      <trkpt lat="44.04541" lon="3.62315">
        <ele>907</ele>
        <time>2012-03-03T14:52:06Z</time>
      </trkpt>
      <trkpt lat="44.04542" lon="3.62315">
        <ele>908</ele>
        <time>2012-03-03T14:52:11Z</time>
      </trkpt>
      <trkpt lat="44.04541" lon="3.62313">
        <ele>908</ele>
        <time>2012-03-03T14:52:16Z</time>
      </trkpt>
      <trkpt lat="44.04541" lon="3.62312">
        <ele>908</ele>
        <time>2012-03-03T14:52:21Z</time>
      </trkpt>
      <trkpt lat="44.04542" lon="3.6231">
        <ele>908</ele>
        <time>2012-03-03T14:52:26Z</time>
      </trkpt>
      <trkpt lat="44.0454" lon="3.62307">
        <ele>908</ele>
        <time>2012-03-03T14:52:31Z</time>
      </trkpt>
      <trkpt lat="44.0454" lon="3.62305">
        <ele>909</ele>
        <time>2012-03-03T14:52:36Z</time>
      </trkpt>
      <trkpt lat="44.0454" lon="3.623">
        <ele>909</ele>
        <time>2012-03-03T14:52:41Z</time>
      </trkpt>
      <trkpt lat="44.04544" lon="3.62299">
        <ele>910</ele>
        <time>2012-03-03T14:52:46Z</time>
      </trkpt>
      <trkpt lat="44.04545" lon="3.62298">
        <ele>910</ele>
        <time>2012-03-03T14:52:51Z</time>
      </trkpt>
      <trkpt lat="44.04547" lon="3.62296">
        <ele>911</ele>
        <time>2012-03-03T14:52:56Z</time>
      </trkpt>
      <trkpt lat="44.04549" lon="3.62294">
        <ele>911</ele>
        <time>2012-03-03T14:53:01Z</time>
      </trkpt>
      <trkpt lat="44.04551" lon="3.62292">
        <ele>912</ele>
        <time>2012-03-03T14:53:06Z</time>
      </trkpt>
      <trkpt lat="44.04553" lon="3.62293">
        <ele>912</ele>
        <time>2012-03-03T14:53:11Z</time>
      </trkpt>
      <trkpt lat="44.04553" lon="3.62289">
        <ele>912</ele>
        <time>2012-03-03T14:53:16Z</time>
      </trkpt>
      <trkpt lat="44.04555" lon="3.62287">
        <ele>913</ele>
        <time>2012-03-03T14:53:21Z</time>
      </trkpt>
      <trkpt lat="44.04556" lon="3.62282">
        <ele>914</ele>
        <time>2012-03-03T14:53:26Z</time>
      </trkpt>
      <trkpt lat="44.0456" lon="3.62281">
        <ele>915</ele>
        <time>2012-03-03T14:53:31Z</time>
      </trkpt>
      <trkpt lat="44.04564" lon="3.6228">
        <ele>916</ele>
        <time>2012-03-03T14:53:36Z</time>
      </trkpt>
      <trkpt lat="44.04566" lon="3.62279">
        <ele>916</ele>
        <time>2012-03-03T14:53:41Z</time>
      </trkpt>
      <trkpt lat="44.04568" lon="3.62278">
        <ele>917</ele>
        <time>2012-03-03T14:53:46Z</time>
      </trkpt>
      <trkpt lat="44.0457" lon="3.62278">
        <ele>917</ele>
        <time>2012-03-03T14:53:51Z</time>
      </trkpt>
      <trkpt lat="44.04571" lon="3.62277">
        <ele>918</ele>
        <time>2012-03-03T14:53:56Z</time>
      </trkpt>
      <trkpt lat="44.04573" lon="3.62275">
        <ele>919</ele>
        <time>2012-03-03T14:54:01Z</time>
      </trkpt>
      <trkpt lat="44.04576" lon="3.62272">
        <ele>920</ele>
        <time>2012-03-03T14:54:06Z</time>
      </trkpt>
      <trkpt lat="44.04579" lon="3.6227">
        <ele>921</ele>
        <time>2012-03-03T14:54:11Z</time>
      </trkpt>
      <trkpt lat="44.04582" lon="3.62267">
        <ele>923</ele>
        <time>2012-03-03T14:54:16Z</time>
      </trkpt>
      <trkpt lat="44.04584" lon="3.62267">
        <ele>934</ele>
        <time>2012-03-03T14:54:21Z</time>
      </trkpt>
      <trkpt lat="44.04587" lon="3.62265">
        <ele>934</ele>
        <time>2012-03-03T14:54:26Z</time>
      </trkpt>
      <trkpt lat="44.04589" lon="3.62264">
        <ele>934</ele>
        <time>2012-03-03T14:54:31Z</time>
      </trkpt>
      <trkpt lat="44.0459" lon="3.62264">
        <ele>934</ele>
        <time>2012-03-03T14:54:36Z</time>
      </trkpt>
      <trkpt lat="44.04593" lon="3.62264">
        <ele>934</ele>
        <time>2012-03-03T14:54:41Z</time>
      </trkpt>
      <trkpt lat="44.04595" lon="3.62263">
        <ele>935</ele>
        <time>2012-03-03T14:54:46Z</time>
      </trkpt>
      <trkpt lat="44.04598" lon="3.62264">
        <ele>935</ele>
        <time>2012-03-03T14:54:51Z</time>
      </trkpt>
      <trkpt lat="44.04601" lon="3.62264">
        <ele>935</ele>
        <time>2012-03-03T14:54:56Z</time>
      </trkpt>
      <trkpt lat="44.04605" lon="3.62265">
        <ele>935</ele>
        <time>2012-03-03T14:55:01Z</time>
      </trkpt>
      <trkpt lat="44.04606" lon="3.62264">
        <ele>935</ele>
        <time>2012-03-03T14:55:06Z</time>
      </trkpt>
      <trkpt lat="44.04609" lon="3.62264">
        <ele>936</ele>
        <time>2012-03-03T14:55:11Z</time>
      </trkpt>
      <trkpt lat="44.04611" lon="3.62265">
        <ele>936</ele>
        <time>2012-03-03T14:55:16Z</time>
      </trkpt>
      <trkpt lat="44.04613" lon="3.62264">
        <ele>936</ele>
        <time>2012-03-03T14:55:21Z</time>
      </trkpt>
      <trkpt lat="44.04617" lon="3.62265">
        <ele>937</ele>
        <time>2012-03-03T14:55:26Z</time>
      </trkpt>
      <trkpt lat="44.04618" lon="3.62264">
        <ele>937</ele>
        <time>2012-03-03T14:55:31Z</time>
      </trkpt>
      <trkpt lat="44.04617" lon="3.62262">
        <ele>937</ele>
        <time>2012-03-03T14:55:36Z</time>
      </trkpt>
      <trkpt lat="44.04615" lon="3.6226">
        <ele>937</ele>
        <time>2012-03-03T14:55:41Z</time>
      </trkpt>
      <trkpt lat="44.04614" lon="3.62258">
        <ele>937</ele>
        <time>2012-03-03T14:55:46Z</time>
      </trkpt>
      <trkpt lat="44.04611" lon="3.62256">
        <ele>936</ele>
        <time>2012-03-03T14:55:51Z</time>
      </trkpt>
      <trkpt lat="44.0461" lon="3.62252">
        <ele>937</ele>
        <time>2012-03-03T14:55:56Z</time>
      </trkpt>
      <trkpt lat="44.04611" lon="3.62248">
        <ele>952</ele>
        <time>2012-03-03T14:56:01Z</time>
      </trkpt>
      <trkpt lat="44.04613" lon="3.62245">
        <ele>953</ele>
        <time>2012-03-03T14:56:06Z</time>
      </trkpt>
      <trkpt lat="44.04616" lon="3.62242">
        <ele>954</ele>
        <time>2012-03-03T14:56:11Z</time>
      </trkpt>
      <trkpt lat="44.04618" lon="3.6224">
        <ele>955</ele>
        <time>2012-03-03T14:56:16Z</time>
      </trkpt>
      <trkpt lat="44.04619" lon="3.62238">
        <ele>956</ele>
        <time>2012-03-03T14:56:21Z</time>
      </trkpt>
      <trkpt lat="44.04621" lon="3.62236">
        <ele>956</ele>
        <time>2012-03-03T14:56:26Z</time>
      </trkpt>
      <trkpt lat="44.04622" lon="3.62235">
        <ele>957</ele>
        <time>2012-03-03T14:56:31Z</time>
      </trkpt>
      <trkpt lat="44.04624" lon="3.62235">
        <ele>957</ele>
        <time>2012-03-03T14:56:36Z</time>
      </trkpt>
      <trkpt lat="44.04627" lon="3.62234">
        <ele>958</ele>
        <time>2012-03-03T14:56:41Z</time>
      </trkpt>
      <trkpt lat="44.04628" lon="3.62233">
        <ele>958</ele>
        <time>2012-03-03T14:56:46Z</time>
      </trkpt>
      <trkpt lat="44.04629" lon="3.62234">
        <ele>958</ele>
        <time>2012-03-03T14:56:51Z</time>
      </trkpt>
      <trkpt lat="44.0463" lon="3.62234">
        <ele>958</ele>
        <time>2012-03-03T14:56:56Z</time>
      </trkpt>
      <trkpt lat="44.04631" lon="3.62231">
        <ele>959</ele>
        <time>2012-03-03T14:57:01Z</time>
      </trkpt>
      <trkpt lat="44.04634" lon="3.62231">
        <ele>960</ele>
        <time>2012-03-03T14:57:06Z</time>
      </trkpt>
      <trkpt lat="44.04636" lon="3.62231">
        <ele>960</ele>
        <time>2012-03-03T14:57:11Z</time>
      </trkpt>
      <trkpt lat="44.04639" lon="3.6223">
        <ele>961</ele>
        <time>2012-03-03T14:57:16Z</time>
      </trkpt>
      <trkpt lat="44.04642" lon="3.6223">
        <ele>961</ele>
        <time>2012-03-03T14:57:21Z</time>
      </trkpt>
      <trkpt lat="44.04644" lon="3.62229">
        <ele>961</ele>
        <time>2012-03-03T14:57:26Z</time>
      </trkpt>
      <trkpt lat="44.04647" lon="3.6223">
        <ele>962</ele>
        <time>2012-03-03T14:57:31Z</time>
      </trkpt>
      <trkpt lat="44.04649" lon="3.6223">
        <ele>962</ele>
        <time>2012-03-03T14:57:36Z</time>
      </trkpt>
      <trkpt lat="44.04649" lon="3.62231">
        <ele>962</ele>
        <time>2012-03-03T14:57:41Z</time>
      </trkpt>
      <trkpt lat="44.04648" lon="3.62232">
        <ele>962</ele>
        <time>2012-03-03T14:57:46Z</time>
      </trkpt>
      <trkpt lat="44.04649" lon="3.62233">
        <ele>962</ele>
        <time>2012-03-03T14:57:51Z</time>
      </trkpt>
      <trkpt lat="44.0465" lon="3.62233">
        <ele>962</ele>
        <time>2012-03-03T14:57:56Z</time>
      </trkpt>
      <trkpt lat="44.0465" lon="3.62233">
        <ele>962</ele>
        <time>2012-03-03T14:58:01Z</time>
      </trkpt>
      <trkpt lat="44.04653" lon="3.62231">
        <ele>962</ele>
        <time>2012-03-03T14:58:06Z</time>
      </trkpt>
      <trkpt lat="44.04653" lon="3.62229">
        <ele>962</ele>
        <time>2012-03-03T14:58:11Z</time>
      </trkpt>
      <trkpt lat="44.04653" lon="3.62226">
        <ele>963</ele>
        <time>2012-03-03T14:58:16Z</time>
      </trkpt>
      <trkpt lat="44.04652" lon="3.62225">
        <ele>963</ele>
        <time>2012-03-03T14:58:21Z</time>
      </trkpt>
      <trkpt lat="44.04653" lon="3.62226">
        <ele>963</ele>
        <time>2012-03-03T14:58:26Z</time>
      </trkpt>
      <trkpt lat="44.04657" lon="3.62227">
        <ele>963</ele>
        <time>2012-03-03T14:58:31Z</time>
      </trkpt>
      <trkpt lat="44.04661" lon="3.62228">
        <ele>963</ele>
        <time>2012-03-03T14:58:36Z</time>
      </trkpt>
      <trkpt lat="44.04664" lon="3.62227">
        <ele>963</ele>
        <time>2012-03-03T14:58:41Z</time>
      </trkpt>
      <trkpt lat="44.04668" lon="3.62226">
        <ele>980</ele>
        <time>2012-03-03T14:58:46Z</time>
      </trkpt>
      <trkpt lat="44.04672" lon="3.62228">
        <ele>979</ele>
        <time>2012-03-03T14:58:51Z</time>
      </trkpt>
      <trkpt lat="44.04675" lon="3.6223">
        <ele>979</ele>
        <time>2012-03-03T14:58:56Z</time>
      </trkpt>
      <trkpt lat="44.04678" lon="3.62229">
        <ele>980</ele>
        <time>2012-03-03T14:59:01Z</time>
      </trkpt>
      <trkpt lat="44.04682" lon="3.6223">
        <ele>981</ele>
        <time>2012-03-03T14:59:06Z</time>
      </trkpt>
      <trkpt lat="44.04685" lon="3.62231">
        <ele>981</ele>
        <time>2012-03-03T14:59:11Z</time>
      </trkpt>
      <trkpt lat="44.04688" lon="3.62232">
        <ele>982</ele>
        <time>2012-03-03T14:59:16Z</time>
      </trkpt>
      <trkpt lat="44.04691" lon="3.62233">
        <ele>983</ele>
        <time>2012-03-03T14:59:21Z</time>
      </trkpt>
      <trkpt lat="44.04695" lon="3.62234">
        <ele>984</ele>
        <time>2012-03-03T14:59:26Z</time>
      </trkpt>
      <trkpt lat="44.04698" lon="3.62236">
        <ele>984</ele>
        <time>2012-03-03T14:59:31Z</time>
      </trkpt>
      <trkpt lat="44.04701" lon="3.62237">
        <ele>985</ele>
        <time>2012-03-03T14:59:36Z</time>
      </trkpt>
      <trkpt lat="44.04704" lon="3.62238">
        <ele>986</ele>
        <time>2012-03-03T14:59:41Z</time>
      </trkpt>
      <trkpt lat="44.04706" lon="3.62237">
        <ele>986</ele>
        <time>2012-03-03T14:59:46Z</time>
      </trkpt>
      <trkpt lat="44.04709" lon="3.62239">
        <ele>987</ele>
        <time>2012-03-03T14:59:51Z</time>
      </trkpt>
      <trkpt lat="44.04713" lon="3.62238">
        <ele>988</ele>
        <time>2012-03-03T14:59:56Z</time>
      </trkpt>
      <trkpt lat="44.04715" lon="3.62238">
        <ele>988</ele>
        <time>2012-03-03T15:00:01Z</time>
      </trkpt>
      <trkpt lat="44.04718" lon="3.62238">
        <ele>989</ele>
        <time>2012-03-03T15:00:06Z</time>
      </trkpt>
      <trkpt lat="44.0472" lon="3.62237">
        <ele>989</ele>
        <time>2012-03-03T15:00:11Z</time>
      </trkpt>
      <trkpt lat="44.04723" lon="3.62236">
        <ele>990</ele>
        <time>2012-03-03T15:00:16Z</time>
      </trkpt>
      <trkpt lat="44.04725" lon="3.62236">
        <ele>990</ele>
        <time>2012-03-03T15:00:21Z</time>
      </trkpt>
      <trkpt lat="44.04727" lon="3.62236">
        <ele>991</ele>
        <time>2012-03-03T15:00:26Z</time>
      </trkpt>
      <trkpt lat="44.04729" lon="3.62236">
        <ele>991</ele>
        <time>2012-03-03T15:00:31Z</time>
      </trkpt>
      <trkpt lat="44.04731" lon="3.62236">
        <ele>991</ele>
        <time>2012-03-03T15:00:36Z</time>
      </trkpt>
      <trkpt lat="44.04732" lon="3.62235">
        <ele>991</ele>
        <time>2012-03-03T15:00:41Z</time>
      </trkpt>
      <trkpt lat="44.04734" lon="3.62235">
        <ele>991</ele>
        <time>2012-03-03T15:00:46Z</time>
      </trkpt>
      <trkpt lat="44.04736" lon="3.62236">
        <ele>992</ele>
        <time>2012-03-03T15:00:51Z</time>
      </trkpt>
      <trkpt lat="44.04739" lon="3.62238">
        <ele>992</ele>
        <time>2012-03-03T15:00:56Z</time>
      </trkpt>
      <trkpt lat="44.04742" lon="3.62239">
        <ele>992</ele>
        <time>2012-03-03T15:01:01Z</time>
      </trkpt>
      <trkpt lat="44.04745" lon="3.62242">
        <ele>992</ele>
        <time>2012-03-03T15:01:06Z</time>
      </trkpt>
      <trkpt lat="44.04748" lon="3.62247">
        <ele>992</ele>
        <time>2012-03-03T15:01:11Z</time>
      </trkpt>
      <trkpt lat="44.04752" lon="3.62249">
        <ele>993</ele>
        <time>2012-03-03T15:01:16Z</time>
      </trkpt>
      <trkpt lat="44.04757" lon="3.62252">
        <ele>988</ele>
        <time>2012-03-03T15:01:21Z</time>
      </trkpt>
      <trkpt lat="44.04762" lon="3.62251">
        <ele>986</ele>
        <time>2012-03-03T15:01:26Z</time>
      </trkpt>
      <trkpt lat="44.04765" lon="3.62249">
        <ele>996</ele>
        <time>2012-03-03T15:01:31Z</time>
      </trkpt>
      <trkpt lat="44.04767" lon="3.62245">
        <ele>996</ele>
        <time>2012-03-03T15:01:36Z</time>
      </trkpt>
      <trkpt lat="44.04768" lon="3.62241">
        <ele>997</ele>
        <time>2012-03-03T15:01:41Z</time>
      </trkpt>
      <trkpt lat="44.0477" lon="3.62238">
        <ele>998</ele>
        <time>2012-03-03T15:01:46Z</time>
      </trkpt>
      <trkpt lat="44.04772" lon="3.62235">
        <ele>998</ele>
        <time>2012-03-03T15:01:51Z</time>
      </trkpt>
      <trkpt lat="44.04774" lon="3.62231">
        <ele>999</ele>
        <time>2012-03-03T15:01:56Z</time>
      </trkpt>
      <trkpt lat="44.04777" lon="3.62227">
        <ele>999</ele>
        <time>2012-03-03T15:02:01Z</time>
      </trkpt>
      <trkpt lat="44.04777" lon="3.62223">
        <ele>1000</ele>
        <time>2012-03-03T15:02:06Z</time>
      </trkpt>
      <trkpt lat="44.04778" lon="3.6222">
        <ele>1000</ele>
        <time>2012-03-03T15:02:11Z</time>
      </trkpt>
      <trkpt lat="44.04779" lon="3.62219">
        <ele>1001</ele>
        <time>2012-03-03T15:02:16Z</time>
      </trkpt>
      <trkpt lat="44.04781" lon="3.62217">
        <ele>1001</ele>
        <time>2012-03-03T15:02:21Z</time>
      </trkpt>
      <trkpt lat="44.04781" lon="3.62214">
        <ele>1001</ele>
        <time>2012-03-03T15:02:26Z</time>
      </trkpt>
      <trkpt lat="44.04783" lon="3.62211">
        <ele>1002</ele>
        <time>2012-03-03T15:02:31Z</time>
      </trkpt>
      <trkpt lat="44.04783" lon="3.62208">
        <ele>1002</ele>
        <time>2012-03-03T15:02:36Z</time>
      </trkpt>
      <trkpt lat="44.04784" lon="3.62204">
        <ele>1003</ele>
        <time>2012-03-03T15:02:41Z</time>
      </trkpt>
      <trkpt lat="44.04782" lon="3.62204">
        <ele>1003</ele>
        <time>2012-03-03T15:02:46Z</time>
      </trkpt>
      <trkpt lat="44.04781" lon="3.62202">
        <ele>1003</ele>
        <time>2012-03-03T15:02:51Z</time>
      </trkpt>
      <trkpt lat="44.0478" lon="3.62199">
        <ele>1004</ele>
        <time>2012-03-03T15:02:56Z</time>
      </trkpt>
      <trkpt lat="44.04782" lon="3.62196">
        <ele>1004</ele>
        <time>2012-03-03T15:03:01Z</time>
      </trkpt>
      <trkpt lat="44.04784" lon="3.62191">
        <ele>1005</ele>
        <time>2012-03-03T15:03:06Z</time>
      </trkpt>
      <trkpt lat="44.04786" lon="3.62188">
        <ele>1005</ele>
        <time>2012-03-03T15:03:11Z</time>
      </trkpt>
      <trkpt lat="44.04787" lon="3.62186">
        <ele>1005</ele>
        <time>2012-03-03T15:03:16Z</time>
      </trkpt>
      <trkpt lat="44.04786" lon="3.62184">
        <ele>1006</ele>
        <time>2012-03-03T15:03:21Z</time>
      </trkpt>
      <trkpt lat="44.04784" lon="3.62183">
        <ele>1006</ele>
        <time>2012-03-03T15:03:26Z</time>
      </trkpt>
      <trkpt lat="44.04783" lon="3.6218">
        <ele>1006</ele>
        <time>2012-03-03T15:03:31Z</time>
      </trkpt>
      <trkpt lat="44.04785" lon="3.62178">
        <ele>1006</ele>
        <time>2012-03-03T15:03:36Z</time>
      </trkpt>
      <trkpt lat="44.04784" lon="3.62174">
        <ele>1007</ele>
        <time>2012-03-03T15:03:41Z</time>
      </trkpt>
      <trkpt lat="44.04784" lon="3.62171">
        <ele>1007</ele>
        <time>2012-03-03T15:03:46Z</time>
      </trkpt>
      <trkpt lat="44.04784" lon="3.62168">
        <ele>1007</ele>
        <time>2012-03-03T15:03:51Z</time>
      </trkpt>
      <trkpt lat="44.04782" lon="3.62165">
        <ele>1024</ele>
        <time>2012-03-03T15:03:56Z</time>
      </trkpt>
      <trkpt lat="44.04784" lon="3.62161">
        <ele>1024</ele>
        <time>2012-03-03T15:04:01Z</time>
      </trkpt>
      <trkpt lat="44.04785" lon="3.62159">
        <ele>1024</ele>
        <time>2012-03-03T15:04:06Z</time>
      </trkpt>
      <trkpt lat="44.04786" lon="3.62157">
        <ele>1025</ele>
        <time>2012-03-03T15:04:11Z</time>
      </trkpt>
      <trkpt lat="44.04785" lon="3.62156">
        <ele>1025</ele>
        <time>2012-03-03T15:04:16Z</time>
      </trkpt>
      <trkpt lat="44.04785" lon="3.62153">
        <ele>1025</ele>
        <time>2012-03-03T15:04:21Z</time>
      </trkpt>
      <trkpt lat="44.04785" lon="3.62152">
        <ele>1025</ele>
        <time>2012-03-03T15:04:26Z</time>
      </trkpt>
      <trkpt lat="44.04783" lon="3.62153">
        <ele>1025</ele>
        <time>2012-03-03T15:04:31Z</time>
      </trkpt>
      <trkpt lat="44.04782" lon="3.6215">
        <ele>1025</ele>
        <time>2012-03-03T15:04:36Z</time>
      </trkpt>
      <trkpt lat="44.04783" lon="3.62146">
        <ele>1026</ele>
        <time>2012-03-03T15:04:41Z</time>
      </trkpt>
      <trkpt lat="44.04785" lon="3.62142">
        <ele>1026</ele>
        <time>2012-03-03T15:04:46Z</time>
      </trkpt>
      <trkpt lat="44.04785" lon="3.6214">
        <ele>1027</ele>
        <time>2012-03-03T15:04:51Z</time>
      </trkpt>
      <trkpt lat="44.04787" lon="3.62135">
        <ele>1028</ele>
        <time>2012-03-03T15:04:56Z</time>
      </trkpt>
      <trkpt lat="44.04789" lon="3.62129">
        <ele>1028</ele>
        <time>2012-03-03T15:05:01Z</time>
      </trkpt>
      <trkpt lat="44.0479" lon="3.62126">
        <ele>1029</ele>
        <time>2012-03-03T15:05:06Z</time>
      </trkpt>
      <trkpt lat="44.0479" lon="3.62124">
        <ele>1029</ele>
        <time>2012-03-03T15:05:11Z</time>
      </trkpt>
      <trkpt lat="44.04789" lon="3.62122">
        <ele>1030</ele>
        <time>2012-03-03T15:05:16Z</time>
      </trkpt>
      <trkpt lat="44.04789" lon="3.6212">
        <ele>1030</ele>
        <time>2012-03-03T15:05:21Z</time>
      </trkpt>
      <trkpt lat="44.04788" lon="3.62116">
        <ele>1031</ele>
        <time>2012-03-03T15:05:26Z</time>
      </trkpt>
      <trkpt lat="44.0479" lon="3.62112">
        <ele>1031</ele>
        <time>2012-03-03T15:05:31Z</time>
      </trkpt>
      <trkpt lat="44.04791" lon="3.62109">
        <ele>1032</ele>
        <time>2012-03-03T15:05:36Z</time>
      </trkpt>
      <trkpt lat="44.04792" lon="3.62107">
        <ele>1032</ele>
        <time>2012-03-03T15:05:41Z</time>
      </trkpt>
      <trkpt lat="44.04793" lon="3.62104">
        <ele>1032</ele>
        <time>2012-03-03T15:05:46Z</time>
      </trkpt>
      <trkpt lat="44.04792" lon="3.62103">
        <ele>1033</ele>
        <time>2012-03-03T15:05:51Z</time>
      </trkpt>
      <trkpt lat="44.04793" lon="3.62101">
        <ele>1033</ele>
        <time>2012-03-03T15:05:56Z</time>
      </trkpt>
      <trkpt lat="44.04794" lon="3.62098">
        <ele>1033</ele>
        <time>2012-03-03T15:06:01Z</time>
      </trkpt>
      <trkpt lat="44.04794" lon="3.62095">
        <ele>1033</ele>
        <time>2012-03-03T15:06:06Z</time>
      </trkpt>
      <trkpt lat="44.04796" lon="3.62092">
        <ele>1034</ele>
        <time>2012-03-03T15:06:11Z</time>
      </trkpt>
      <trkpt lat="44.04797" lon="3.62089">
        <ele>1034</ele>
        <time>2012-03-03T15:06:16Z</time>
      </trkpt>
      <trkpt lat="44.04796" lon="3.62087">
        <ele>1034</ele>
        <time>2012-03-03T15:06:21Z</time>
      </trkpt>
      <trkpt lat="44.04795" lon="3.62085">
        <ele>1034</ele>
        <time>2012-03-03T15:06:26Z</time>
      </trkpt>
      <trkpt lat="44.04795" lon="3.62081">
        <ele>1053</ele>
        <time>2012-03-03T15:06:31Z</time>
      </trkpt>
      <trkpt lat="44.04797" lon="3.6208">
        <ele>1053</ele>
        <time>2012-03-03T15:06:36Z</time>
      </trkpt>
      <trkpt lat="44.04798" lon="3.6208">
        <ele>1053</ele>
        <time>2012-03-03T15:06:41Z</time>
      </trkpt>
      <trkpt lat="44.04799" lon="3.62078">
        <ele>1053</ele>
        <time>2012-03-03T15:06:46Z</time>
      </trkpt>
      <trkpt lat="44.04801" lon="3.62074">
        <ele>1054</ele>
        <time>2012-03-03T15:06:51Z</time>
      </trkpt>
      <trkpt lat="44.04801" lon="3.62073">
        <ele>1054</ele>
        <time>2012-03-03T15:06:56Z</time>
      </trkpt>
      <trkpt lat="44.04801" lon="3.6207">
        <ele>1054</ele>
        <time>2012-03-03T15:07:01Z</time>
      </trkpt>
      <trkpt lat="44.04801" lon="3.62069">
        <ele>1055</ele>
        <time>2012-03-03T15:07:06Z</time>
      </trkpt>
      <trkpt lat="44.04801" lon="3.62066">
        <ele>1055</ele>
        <time>2012-03-03T15:07:11Z</time>
      </trkpt>
      <trkpt lat="44.04801" lon="3.62064">
        <ele>1055</ele>
        <time>2012-03-03T15:07:16Z</time>
      </trkpt>
      <trkpt lat="44.04802" lon="3.62062">
        <ele>1056</ele>
        <time>2012-03-03T15:07:21Z</time>
      </trkpt>
      <trkpt lat="44.04804" lon="3.62059">
        <ele>1056</ele>
        <time>2012-03-03T15:07:26Z</time>
      </trkpt>
      <trkpt lat="44.04804" lon="3.62057">
        <ele>1056</ele>
        <time>2012-03-03T15:07:31Z</time>
      </trkpt>
      <trkpt lat="44.04804" lon="3.62054">
        <ele>1057</ele>
        <time>2012-03-03T15:07:36Z</time>
      </trkpt>
      <trkpt lat="44.04806" lon="3.6205">
        <ele>1058</ele>
        <time>2012-03-03T15:07:41Z</time>
      </trkpt>
      <trkpt lat="44.04807" lon="3.62048">
        <ele>1058</ele>
        <time>2012-03-03T15:07:46Z</time>
      </trkpt>
      <trkpt lat="44.04808" lon="3.62044">
        <ele>1059</ele>
        <time>2012-03-03T15:07:51Z</time>
      </trkpt>
      <trkpt lat="44.04809" lon="3.62043">
        <ele>1060</ele>
        <time>2012-03-03T15:07:56Z</time>
      </trkpt>
      <trkpt lat="44.04809" lon="3.62041">
        <ele>1060</ele>
        <time>2012-03-03T15:08:01Z</time>
      </trkpt>
      <trkpt lat="44.04811" lon="3.62038">
        <ele>1061</ele>
        <time>2012-03-03T15:08:06Z</time>
      </trkpt>
      <trkpt lat="44.04812" lon="3.62035">
        <ele>1062</ele>
        <time>2012-03-03T15:08:11Z</time>
      </trkpt>
      <trkpt lat="44.04812" lon="3.62032">
        <ele>1063</ele>
        <time>2012-03-03T15:08:16Z</time>
      </trkpt>
      <trkpt lat="44.04813" lon="3.6203">
        <ele>1063</ele>
        <time>2012-03-03T15:08:21Z</time>
      </trkpt>
      <trkpt lat="44.04815" lon="3.62027">
        <ele>1064</ele>
        <time>2012-03-03T15:08:26Z</time>
      </trkpt>
      <trkpt lat="44.04817" lon="3.62025">
        <ele>1065</ele>
        <time>2012-03-03T15:08:31Z</time>
      </trkpt>
      <trkpt lat="44.04818" lon="3.62022">
        <ele>1066</ele>
        <time>2012-03-03T15:08:36Z</time>
      </trkpt>
      <trkpt lat="44.04818" lon="3.62019">
        <ele>1067</ele>
        <time>2012-03-03T15:08:41Z</time>
      </trkpt>
      <trkpt lat="44.04819" lon="3.62018">
        <ele>1068</ele>
        <time>2012-03-03T15:08:46Z</time>
      </trkpt>
      <trkpt lat="44.0482" lon="3.62018">
        <ele>1068</ele>
        <time>2012-03-03T15:08:51Z</time>
      </trkpt>
      <trkpt lat="44.0482" lon="3.62018">
        <ele>1068</ele>
        <time>2012-03-03T15:08:56Z</time>
      </trkpt>
      <trkpt lat="44.04821" lon="3.62016">
        <ele>1069</ele>
        <time>2012-03-03T15:09:01Z</time>
      </trkpt>
      <trkpt lat="44.04822" lon="3.62013">
        <ele>1070</ele>
        <time>2012-03-03T15:09:06Z</time>
      </trkpt>
      <trkpt lat="44.04824" lon="3.6201">
        <ele>1072</ele>
        <time>2012-03-03T15:09:11Z</time>
      </trkpt>
      <trkpt lat="44.04825" lon="3.62006">
        <ele>1074</ele>
        <time>2012-03-03T15:09:16Z</time>
      </trkpt>
      <trkpt lat="44.04826" lon="3.62006">
        <ele>1074</ele>
        <time>2012-03-03T15:09:21Z</time>
      </trkpt>
      <trkpt lat="44.04826" lon="3.62004">
        <ele>1075</ele>
        <time>2012-03-03T15:09:26Z</time>
      </trkpt>
      <trkpt lat="44.04828" lon="3.62001">
        <ele>1077</ele>
        <time>2012-03-03T15:09:31Z</time>
      </trkpt>
      <trkpt lat="44.04828" lon="3.61998">
        <ele>1083</ele>
        <time>2012-03-03T15:09:36Z</time>
      </trkpt>
      <trkpt lat="44.04829" lon="3.61996">
        <ele>1083</ele>
        <time>2012-03-03T15:09:41Z</time>
      </trkpt>
      <trkpt lat="44.04831" lon="3.61992">
        <ele>1083</ele>
        <time>2012-03-03T15:09:46Z</time>
      </trkpt>
      <trkpt lat="44.04831" lon="3.6199">
        <ele>1083</ele>
        <time>2012-03-03T15:09:51Z</time>
      </trkpt>
      <trkpt lat="44.04831" lon="3.61988">
        <ele>1084</ele>
        <time>2012-03-03T15:09:56Z</time>
      </trkpt>
      <trkpt lat="44.04832" lon="3.61983">
        <ele>1084</ele>
        <time>2012-03-03T15:10:01Z</time>
      </trkpt>
      <trkpt lat="44.0483" lon="3.61982">
        <ele>1085</ele>
        <time>2012-03-03T15:10:06Z</time>
      </trkpt>
      <trkpt lat="44.04828" lon="3.6198">
        <ele>1085</ele>
        <time>2012-03-03T15:10:11Z</time>
      </trkpt>
      <trkpt lat="44.04828" lon="3.61977">
        <ele>1085</ele>
        <time>2012-03-03T15:10:16Z</time>
      </trkpt>
      <trkpt lat="44.0483" lon="3.61973">
        <ele>1086</ele>
        <time>2012-03-03T15:10:21Z</time>
      </trkpt>
      <trkpt lat="44.0483" lon="3.61971">
        <ele>1086</ele>
        <time>2012-03-03T15:10:26Z</time>
      </trkpt>
      <trkpt lat="44.0483" lon="3.61969">
        <ele>1087</ele>
        <time>2012-03-03T15:10:31Z</time>
      </trkpt>
      <trkpt lat="44.04831" lon="3.61968">
        <ele>1087</ele>
        <time>2012-03-03T15:10:36Z</time>
      </trkpt>
      <trkpt lat="44.0483" lon="3.61965">
        <ele>1087</ele>
        <time>2012-03-03T15:10:41Z</time>
      </trkpt>
      <trkpt lat="44.04831" lon="3.61961">
        <ele>1088</ele>
        <time>2012-03-03T15:10:46Z</time>
      </trkpt>
      <trkpt lat="44.04832" lon="3.61956">
        <ele>1089</ele>
        <time>2012-03-03T15:10:51Z</time>
      </trkpt>
      <trkpt lat="44.04832" lon="3.61952">
        <ele>1090</ele>
        <time>2012-03-03T15:10:56Z</time>
      </trkpt>
      <trkpt lat="44.04831" lon="3.61948">
        <ele>1092</ele>
        <time>2012-03-03T15:11:01Z</time>
      </trkpt>
      <trkpt lat="44.04829" lon="3.61944">
        <ele>1092</ele>
        <time>2012-03-03T15:11:06Z</time>
      </trkpt>
      <trkpt lat="44.04826" lon="3.61942">
        <ele>1093</ele>
        <time>2012-03-03T15:11:11Z</time>
      </trkpt>
      <trkpt lat="44.04824" lon="3.61936">
        <ele>1094</ele>
        <time>2012-03-03T15:11:16Z</time>
      </trkpt>
      <trkpt lat="44.04824" lon="3.61932">
        <ele>1096</ele>
        <time>2012-03-03T15:11:21Z</time>
      </trkpt>
      <trkpt lat="44.04823" lon="3.61926">
        <ele>1098</ele>
        <time>2012-03-03T15:11:26Z</time>
      </trkpt>
      <trkpt lat="44.04822" lon="3.61923">
        <ele>1098</ele>
        <time>2012-03-03T15:11:31Z</time>
      </trkpt>
      <trkpt lat="44.04822" lon="3.61918">
        <ele>1099</ele>
        <time>2012-03-03T15:11:36Z</time>
      </trkpt>
      <trkpt lat="44.04823" lon="3.61914">
        <ele>1105</ele>
        <time>2012-03-03T15:11:41Z</time>
      </trkpt>
      <trkpt lat="44.04823" lon="3.61911">
        <ele>1105</ele>
        <time>2012-03-03T15:11:46Z</time>
      </trkpt>
      <trkpt lat="44.04823" lon="3.61906">
        <ele>1105</ele>
        <time>2012-03-03T15:11:51Z</time>
      </trkpt>
      <trkpt lat="44.04824" lon="3.61902">
        <ele>1104</ele>
        <time>2012-03-03T15:11:56Z</time>
      </trkpt>
      <trkpt lat="44.04825" lon="3.61898">
        <ele>1104</ele>
        <time>2012-03-03T15:12:01Z</time>
      </trkpt>
      <trkpt lat="44.04825" lon="3.61893">
        <ele>1104</ele>
        <time>2012-03-03T15:12:06Z</time>
      </trkpt>
      <trkpt lat="44.04826" lon="3.61888">
        <ele>1105</ele>
        <time>2012-03-03T15:12:11Z</time>
      </trkpt>
      <trkpt lat="44.04829" lon="3.61883">
        <ele>1105</ele>
        <time>2012-03-03T15:12:16Z</time>
      </trkpt>
      <trkpt lat="44.04832" lon="3.61879">
        <ele>1106</ele>
        <time>2012-03-03T15:12:21Z</time>
      </trkpt>
      <trkpt lat="44.04835" lon="3.61875">
        <ele>1109</ele>
        <time>2012-03-03T15:12:26Z</time>
      </trkpt>
      <trkpt lat="44.04837" lon="3.6187">
        <ele>1110</ele>
        <time>2012-03-03T15:12:31Z</time>
      </trkpt>
      <trkpt lat="44.04838" lon="3.61863">
        <ele>1111</ele>
        <time>2012-03-03T15:12:36Z</time>
      </trkpt>
      <trkpt lat="44.04838" lon="3.61856">
        <ele>1112</ele>
        <time>2012-03-03T15:12:41Z</time>
      </trkpt>
      <trkpt lat="44.04839" lon="3.6185">
        <ele>1114</ele>
        <time>2012-03-03T15:12:46Z</time>
      </trkpt>
      <trkpt lat="44.04839" lon="3.61843">
        <ele>1116</ele>
        <time>2012-03-03T15:12:51Z</time>
      </trkpt>
      <trkpt lat="44.04839" lon="3.61835">
        <ele>1118</ele>
        <time>2012-03-03T15:12:56Z</time>
      </trkpt>
      <trkpt lat="44.04837" lon="3.61828">
        <ele>1120</ele>
        <time>2012-03-03T15:13:01Z</time>
      </trkpt>
      <trkpt lat="44.04835" lon="3.61818">
        <ele>1120</ele>
        <time>2012-03-03T15:13:06Z</time>
      </trkpt>
      <trkpt lat="44.04831" lon="3.61806">
        <ele>1117</ele>
        <time>2012-03-03T15:13:11Z</time>
      </trkpt>
      <trkpt lat="44.04827" lon="3.61799">
        <ele>1117</ele>
        <time>2012-03-03T15:13:16Z</time>
      </trkpt>
      <trkpt lat="44.04824" lon="3.61789">
        <ele>1118</ele>
        <time>2012-03-03T15:13:21Z</time>
      </trkpt>
      <trkpt lat="44.04825" lon="3.6178">
        <ele>1119</ele>
        <time>2012-03-03T15:13:26Z</time>
      </trkpt>
      <trkpt lat="44.04825" lon="3.61772">
        <ele>1121</ele>
        <time>2012-03-03T15:13:31Z</time>
      </trkpt>
      <trkpt lat="44.04824" lon="3.61766">
        <ele>1122</ele>
        <time>2012-03-03T15:13:36Z</time>
      </trkpt>
      <trkpt lat="44.04825" lon="3.61759">
        <ele>1124</ele>
        <time>2012-03-03T15:13:41Z</time>
      </trkpt>
      <trkpt lat="44.04828" lon="3.61752">
        <ele>1127</ele>
        <time>2012-03-03T15:13:46Z</time>
      </trkpt>
      <trkpt lat="44.04829" lon="3.61748">
        <ele>1131</ele>
        <time>2012-03-03T15:13:51Z</time>
      </trkpt>
      <trkpt lat="44.04829" lon="3.61743">
        <ele>1131</ele>
        <time>2012-03-03T15:13:56Z</time>
      </trkpt>
      <trkpt lat="44.04829" lon="3.6174">
        <ele>1131</ele>
        <time>2012-03-03T15:14:01Z</time>
      </trkpt>
      <trkpt lat="44.0483" lon="3.61736">
        <ele>1131</ele>
        <time>2012-03-03T15:14:06Z</time>
      </trkpt>
      <trkpt lat="44.04829" lon="3.61733">
        <ele>1132</ele>
        <time>2012-03-03T15:14:11Z</time>
      </trkpt>
      <trkpt lat="44.0483" lon="3.6173">
        <ele>1132</ele>
        <time>2012-03-03T15:14:16Z</time>
      </trkpt>
      <trkpt lat="44.0483" lon="3.61727">
        <ele>1132</ele>
        <time>2012-03-03T15:14:21Z</time>
      </trkpt>
      <trkpt lat="44.04828" lon="3.61725">
        <ele>1132</ele>
        <time>2012-03-03T15:14:26Z</time>
      </trkpt>
      <trkpt lat="44.04827" lon="3.61724">
        <ele>1133</ele>
        <time>2012-03-03T15:14:31Z</time>
      </trkpt>
      <trkpt lat="44.04828" lon="3.61717">
        <ele>1134</ele>
        <time>2012-03-03T15:14:36Z</time>
      </trkpt>
      <trkpt lat="44.04828" lon="3.61716">
        <ele>1134</ele>
        <time>2012-03-03T15:14:41Z</time>
      </trkpt>
      <trkpt lat="44.04825" lon="3.61715">
        <ele>1134</ele>
        <time>2012-03-03T15:14:46Z</time>
      </trkpt>
      <trkpt lat="44.04826" lon="3.6171">
        <ele>1135</ele>
        <time>2012-03-03T15:14:51Z</time>
      </trkpt>
      <trkpt lat="44.04825" lon="3.61707">
        <ele>1135</ele>
        <time>2012-03-03T15:14:56Z</time>
      </trkpt>
      <trkpt lat="44.04821" lon="3.61712">
        <ele>1134</ele>
        <time>2012-03-03T15:15:01Z</time>
      </trkpt>
      <trkpt lat="44.04819" lon="3.6171">
        <ele>1134</ele>
        <time>2012-03-03T15:15:06Z</time>
      </trkpt>
      <trkpt lat="44.04821" lon="3.61702">
        <ele>1136</ele>
        <time>2012-03-03T15:15:11Z</time>
      </trkpt>
      <trkpt lat="44.04823" lon="3.61696">
        <ele>1138</ele>
        <time>2012-03-03T15:15:16Z</time>
      </trkpt>
      <trkpt lat="44.04825" lon="3.61694">
        <ele>1138</ele>
        <time>2012-03-03T15:15:21Z</time>
      </trkpt>
      <trkpt lat="44.04825" lon="3.61688">
        <ele>1140</ele>
        <time>2012-03-03T15:15:26Z</time>
      </trkpt>
      <trkpt lat="44.04825" lon="3.61685">
        <ele>1141</ele>
        <time>2012-03-03T15:15:31Z</time>
      </trkpt>
      <trkpt lat="44.04828" lon="3.6168">
        <ele>1144</ele>
        <time>2012-03-03T15:15:36Z</time>
      </trkpt>
      <trkpt lat="44.04827" lon="3.6168">
        <ele>1144</ele>
        <time>2012-03-03T15:15:41Z</time>
      </trkpt>
      <trkpt lat="44.04825" lon="3.6168">
        <ele>1143</ele>
        <time>2012-03-03T15:15:46Z</time>
      </trkpt>
      <trkpt lat="44.04826" lon="3.61674">
        <ele>1146</ele>
        <time>2012-03-03T15:15:51Z</time>
      </trkpt>
      <trkpt lat="44.04829" lon="3.61671">
        <ele>1148</ele>
        <time>2012-03-03T15:15:56Z</time>
      </trkpt>
      <trkpt lat="44.04831" lon="3.61664">
        <ele>1154</ele>
        <time>2012-03-03T15:16:01Z</time>
      </trkpt>
      <trkpt lat="44.04837" lon="3.61657">
        <ele>1153</ele>
        <time>2012-03-03T15:16:06Z</time>
      </trkpt>
      <trkpt lat="44.04841" lon="3.61656">
        <ele>1153</ele>
        <time>2012-03-03T15:16:11Z</time>
      </trkpt>
      <trkpt lat="44.04845" lon="3.61651">
        <ele>1153</ele>
        <time>2012-03-03T15:16:16Z</time>
      </trkpt>
      <trkpt lat="44.04849" lon="3.61647">
        <ele>1153</ele>
        <time>2012-03-03T15:16:21Z</time>
      </trkpt>
      <trkpt lat="44.04854" lon="3.61643">
        <ele>1152</ele>
        <time>2012-03-03T15:16:26Z</time>
      </trkpt>
      <trkpt lat="44.04858" lon="3.61634">
        <ele>1153</ele>
        <time>2012-03-03T15:16:31Z</time>
      </trkpt>
      <trkpt lat="44.04859" lon="3.61633">
        <ele>1153</ele>
        <time>2012-03-03T15:16:36Z</time>
      </trkpt>
      <trkpt lat="44.04863" lon="3.61629">
        <ele>1153</ele>
        <time>2012-03-03T15:16:41Z</time>
      </trkpt>
      <trkpt lat="44.04871" lon="3.61616">
        <ele>1154</ele>
        <time>2012-03-03T15:16:46Z</time>
      </trkpt>
      <trkpt lat="44.04871" lon="3.61615">
        <ele>1154</ele>
        <time>2012-03-03T15:16:51Z</time>
      </trkpt>
      <trkpt lat="44.04876" lon="3.61608">
        <ele>1154</ele>
        <time>2012-03-03T15:16:56Z</time>
      </trkpt>
      <trkpt lat="44.04881" lon="3.616">
        <ele>1153</ele>
        <time>2012-03-03T15:17:01Z</time>
      </trkpt>
      <trkpt lat="44.04886" lon="3.61591">
        <ele>1153</ele>
        <time>2012-03-03T15:17:06Z</time>
      </trkpt>
      <trkpt lat="44.04888" lon="3.61579">
        <ele>1166</ele>
        <time>2012-03-03T15:17:11Z</time>
      </trkpt>
      <trkpt lat="44.04888" lon="3.61573">
        <ele>1166</ele>
        <time>2012-03-03T15:17:16Z</time>
      </trkpt>
      <trkpt lat="44.04892" lon="3.61562">
        <ele>1167</ele>
        <time>2012-03-03T15:17:21Z</time>
      </trkpt>
      <trkpt lat="44.04897" lon="3.61554">
        <ele>1167</ele>
        <time>2012-03-03T15:17:26Z</time>
      </trkpt>
      <trkpt lat="44.04903" lon="3.61547">
        <ele>1168</ele>
        <time>2012-03-03T15:17:31Z</time>
      </trkpt>
      <trkpt lat="44.04908" lon="3.61541">
        <ele>1168</ele>
        <time>2012-03-03T15:17:36Z</time>
      </trkpt>
      <trkpt lat="44.04908" lon="3.61538">
        <ele>1168</ele>
        <time>2012-03-03T15:17:41Z</time>
      </trkpt>
      <trkpt lat="44.04909" lon="3.61531">
        <ele>1169</ele>
        <time>2012-03-03T15:17:46Z</time>
      </trkpt>
      <trkpt lat="44.04911" lon="3.61527">
        <ele>1169</ele>
        <time>2012-03-03T15:17:51Z</time>
      </trkpt>
      <trkpt lat="44.04914" lon="3.61523">
        <ele>1168</ele>
        <time>2012-03-03T15:17:56Z</time>
      </trkpt>
      <trkpt lat="44.04915" lon="3.61516">
        <ele>1168</ele>
        <time>2012-03-03T15:18:01Z</time>
      </trkpt>
      <trkpt lat="44.04913" lon="3.61511">
        <ele>1167</ele>
        <time>2012-03-03T15:18:06Z</time>
      </trkpt>
      <trkpt lat="44.04916" lon="3.61504">
        <ele>1166</ele>
        <time>2012-03-03T15:18:11Z</time>
      </trkpt>
      <trkpt lat="44.0492" lon="3.61498">
        <ele>1162</ele>
        <time>2012-03-03T15:18:16Z</time>
      </trkpt>
      <trkpt lat="44.04922" lon="3.61491">
        <ele>1159</ele>
        <time>2012-03-03T15:18:21Z</time>
      </trkpt>
      <trkpt lat="44.04922" lon="3.61489">
        <ele>1158</ele>
        <time>2012-03-03T15:18:26Z</time>
      </trkpt>
      <trkpt lat="44.04923" lon="3.61486">
        <ele>1157</ele>
        <time>2012-03-03T15:18:31Z</time>
      </trkpt>
      <trkpt lat="44.04923" lon="3.61489">
        <ele>1158</ele>
        <time>2012-03-03T15:18:36Z</time>
      </trkpt>
      <trkpt lat="44.04922" lon="3.61493">
        <ele>1159</ele>
        <time>2012-03-03T15:18:41Z</time>
      </trkpt>
      <trkpt lat="44.04919" lon="3.61496">
        <ele>1161</ele>
        <time>2012-03-03T15:18:46Z</time>
      </trkpt>
      <trkpt lat="44.04915" lon="3.61499">
        <ele>1166</ele>
        <time>2012-03-03T15:18:51Z</time>
      </trkpt>
      <trkpt lat="44.04914" lon="3.61505">
        <ele>1166</ele>
        <time>2012-03-03T15:18:56Z</time>
      </trkpt>
      <trkpt lat="44.04911" lon="3.61513">
        <ele>1168</ele>
        <time>2012-03-03T15:19:01Z</time>
      </trkpt>
      <trkpt lat="44.0491" lon="3.6152">
        <ele>1169</ele>
        <time>2012-03-03T15:19:06Z</time>
      </trkpt>
      <trkpt lat="44.04906" lon="3.61528">
        <ele>1169</ele>
        <time>2012-03-03T15:19:11Z</time>
      </trkpt>
      <trkpt lat="44.049" lon="3.61534">
        <ele>1170</ele>
        <time>2012-03-03T15:19:16Z</time>
      </trkpt>
      <trkpt lat="44.04896" lon="3.6154">
        <ele>1170</ele>
        <time>2012-03-03T15:19:21Z</time>
      </trkpt>
      <trkpt lat="44.04893" lon="3.61547">
        <ele>1169</ele>
        <time>2012-03-03T15:19:26Z</time>
      </trkpt>
      <trkpt lat="44.04888" lon="3.61554">
        <ele>1169</ele>
        <time>2012-03-03T15:19:31Z</time>
      </trkpt>
      <trkpt lat="44.04883" lon="3.61562">
        <ele>1170</ele>
        <time>2012-03-03T15:19:36Z</time>
      </trkpt>
      <trkpt lat="44.04876" lon="3.61568">
        <ele>1171</ele>
        <time>2012-03-03T15:19:41Z</time>
      </trkpt>
      <trkpt lat="44.04872" lon="3.61573">
        <ele>1172</ele>
        <time>2012-03-03T15:19:46Z</time>
      </trkpt>
      <trkpt lat="44.04867" lon="3.6158">
        <ele>1173</ele>
        <time>2012-03-03T15:19:51Z</time>
      </trkpt>
      <trkpt lat="44.04862" lon="3.61589">
        <ele>1161</ele>
        <time>2012-03-03T15:19:56Z</time>
      </trkpt>
      <trkpt lat="44.04857" lon="3.61593">
        <ele>1162</ele>
        <time>2012-03-03T15:20:01Z</time>
      </trkpt>
      <trkpt lat="44.04849" lon="3.61598">
        <ele>1164</ele>
        <time>2012-03-03T15:20:06Z</time>
      </trkpt>
      <trkpt lat="44.04843" lon="3.61603">
        <ele>1165</ele>
        <time>2012-03-03T15:20:11Z</time>
      </trkpt>
      <trkpt lat="44.04839" lon="3.61605">
        <ele>1165</ele>
        <time>2012-03-03T15:20:16Z</time>
      </trkpt>
      <trkpt lat="44.04837" lon="3.61608">
        <ele>1163</ele>
        <time>2012-03-03T15:20:21Z</time>
      </trkpt>
      <trkpt lat="44.04831" lon="3.61611">
        <ele>1167</ele>
        <time>2012-03-03T15:20:26Z</time>
      </trkpt>
      <trkpt lat="44.04826" lon="3.61615">
        <ele>1166</ele>
        <time>2012-03-03T15:20:31Z</time>
      </trkpt>
      <trkpt lat="44.04821" lon="3.61615">
        <ele>1165</ele>
        <time>2012-03-03T15:20:36Z</time>
      </trkpt>
      <trkpt lat="44.04815" lon="3.61613">
        <ele>1165</ele>
        <time>2012-03-03T15:20:41Z</time>
      </trkpt>
      <trkpt lat="44.04812" lon="3.61612">
        <ele>1165</ele>
        <time>2012-03-03T15:20:46Z</time>
      </trkpt>
      <trkpt lat="44.04805" lon="3.61612">
        <ele>1164</ele>
        <time>2012-03-03T15:20:51Z</time>
      </trkpt>
      <trkpt lat="44.04808" lon="3.61606">
        <ele>1166</ele>
        <time>2012-03-03T15:20:56Z</time>
      </trkpt>
      <trkpt lat="44.0481" lon="3.61601">
        <ele>1167</ele>
        <time>2012-03-03T15:21:01Z</time>
      </trkpt>
      <trkpt lat="44.04808" lon="3.616">
        <ele>1167</ele>
        <time>2012-03-03T15:21:06Z</time>
      </trkpt>
      <trkpt lat="44.04806" lon="3.61599">
        <ele>1166</ele>
        <time>2012-03-03T15:21:11Z</time>
      </trkpt>
      <trkpt lat="44.04804" lon="3.61598">
        <ele>1166</ele>
        <time>2012-03-03T15:21:16Z</time>
      </trkpt>
      <trkpt lat="44.04802" lon="3.61596">
        <ele>1166</ele>
        <time>2012-03-03T15:21:21Z</time>
      </trkpt>
      <trkpt lat="44.04803" lon="3.61592">
        <ele>1167</ele>
        <time>2012-03-03T15:21:26Z</time>
      </trkpt>
      <trkpt lat="44.04803" lon="3.6159">
        <ele>1167</ele>
        <time>2012-03-03T15:21:31Z</time>
      </trkpt>
      <trkpt lat="44.04801" lon="3.61588">
        <ele>1167</ele>
        <time>2012-03-03T15:21:36Z</time>
      </trkpt>
      <trkpt lat="44.04799" lon="3.61586">
        <ele>1167</ele>
        <time>2012-03-03T15:21:41Z</time>
      </trkpt>
      <trkpt lat="44.048" lon="3.61583">
        <ele>1185</ele>
        <time>2012-03-03T15:21:46Z</time>
      </trkpt>
      <trkpt lat="44.04803" lon="3.61579">
        <ele>1186</ele>
        <time>2012-03-03T15:21:51Z</time>
      </trkpt>
      <trkpt lat="44.04808" lon="3.61575">
        <ele>1186</ele>
        <time>2012-03-03T15:21:56Z</time>
      </trkpt>
      <trkpt lat="44.0481" lon="3.61571">
        <ele>1186</ele>
        <time>2012-03-03T15:22:01Z</time>
      </trkpt>
      <trkpt lat="44.04813" lon="3.61566">
        <ele>1187</ele>
        <time>2012-03-03T15:22:06Z</time>
      </trkpt>
      <trkpt lat="44.04815" lon="3.61563">
        <ele>1187</ele>
        <time>2012-03-03T15:22:11Z</time>
      </trkpt>
      <trkpt lat="44.04816" lon="3.61561">
        <ele>1188</ele>
        <time>2012-03-03T15:22:16Z</time>
      </trkpt>
      <trkpt lat="44.04817" lon="3.61559">
        <ele>1188</ele>
        <time>2012-03-03T15:22:21Z</time>
      </trkpt>
      <trkpt lat="44.04817" lon="3.61558">
        <ele>1188</ele>
        <time>2012-03-03T15:22:26Z</time>
      </trkpt>
      <trkpt lat="44.0482" lon="3.61556">
        <ele>1189</ele>
        <time>2012-03-03T15:22:31Z</time>
      </trkpt>
      <trkpt lat="44.04821" lon="3.61551">
        <ele>1189</ele>
        <time>2012-03-03T15:22:36Z</time>
      </trkpt>
      <trkpt lat="44.04824" lon="3.61547">
        <ele>1190</ele>
        <time>2012-03-03T15:22:41Z</time>
      </trkpt>
      <trkpt lat="44.04824" lon="3.61545">
        <ele>1191</ele>
        <time>2012-03-03T15:22:46Z</time>
      </trkpt>
      <trkpt lat="44.04826" lon="3.61541">
        <ele>1191</ele>
        <time>2012-03-03T15:22:51Z</time>
      </trkpt>
      <trkpt lat="44.04826" lon="3.61538">
        <ele>1192</ele>
        <time>2012-03-03T15:22:56Z</time>
      </trkpt>
      <trkpt lat="44.04825" lon="3.61534">
        <ele>1193</ele>
        <time>2012-03-03T15:23:01Z</time>
      </trkpt>
      <trkpt lat="44.04823" lon="3.61536">
        <ele>1192</ele>
        <time>2012-03-03T15:23:06Z</time>
      </trkpt>
      <trkpt lat="44.04821" lon="3.61536">
        <ele>1192</ele>
        <time>2012-03-03T15:23:11Z</time>
      </trkpt>
      <trkpt lat="44.04817" lon="3.61539">
        <ele>1191</ele>
        <time>2012-03-03T15:23:16Z</time>
      </trkpt>
      <trkpt lat="44.04814" lon="3.61539">
        <ele>1191</ele>
        <time>2012-03-03T15:23:21Z</time>
      </trkpt>
      <trkpt lat="44.04812" lon="3.61536">
        <ele>1192</ele>
        <time>2012-03-03T15:23:26Z</time>
      </trkpt>
      <trkpt lat="44.04814" lon="3.61534">
        <ele>1192</ele>
        <time>2012-03-03T15:23:31Z</time>
      </trkpt>
      <trkpt lat="44.04812" lon="3.61534">
        <ele>1192</ele>
        <time>2012-03-03T15:23:36Z</time>
      </trkpt>
      <trkpt lat="44.04812" lon="3.61532">
        <ele>1192</ele>
        <time>2012-03-03T15:23:41Z</time>
      </trkpt>
      <trkpt lat="44.04809" lon="3.6153">
        <ele>1193</ele>
        <time>2012-03-03T15:23:46Z</time>
      </trkpt>
      <trkpt lat="44.04808" lon="3.61529">
        <ele>1193</ele>
        <time>2012-03-03T15:23:51Z</time>
      </trkpt>
      <trkpt lat="44.04806" lon="3.61527">
        <ele>1193</ele>
        <time>2012-03-03T15:23:56Z</time>
      </trkpt>
      <trkpt lat="44.04805" lon="3.61527">
        <ele>1193</ele>
        <time>2012-03-03T15:24:01Z</time>
      </trkpt>
      <trkpt lat="44.04803" lon="3.61526">
        <ele>1193</ele>
        <time>2012-03-03T15:24:06Z</time>
      </trkpt>
      <trkpt lat="44.04801" lon="3.61524">
        <ele>1193</ele>
        <time>2012-03-03T15:24:11Z</time>
      </trkpt>
      <trkpt lat="44.048" lon="3.61521">
        <ele>1193</ele>
        <time>2012-03-03T15:24:16Z</time>
      </trkpt>
      <trkpt lat="44.04804" lon="3.61512">
        <ele>1195</ele>
        <time>2012-03-03T15:24:21Z</time>
      </trkpt>
      <trkpt lat="44.04798" lon="3.61509">
        <ele>1195</ele>
        <time>2012-03-03T15:24:26Z</time>
      </trkpt>
      <trkpt lat="44.04798" lon="3.61508">
        <ele>1195</ele>
        <time>2012-03-03T15:24:31Z</time>
      </trkpt>
      <trkpt lat="44.04797" lon="3.61505">
        <ele>1195</ele>
        <time>2012-03-03T15:24:36Z</time>
      </trkpt>
      <trkpt lat="44.04797" lon="3.61501">
        <ele>1195</ele>
        <time>2012-03-03T15:24:41Z</time>
      </trkpt>
      <trkpt lat="44.04797" lon="3.61498">
        <ele>1209</ele>
        <time>2012-03-03T15:24:46Z</time>
      </trkpt>
      <trkpt lat="44.04795" lon="3.61497">
        <ele>1209</ele>
        <time>2012-03-03T15:24:51Z</time>
      </trkpt>
      <trkpt lat="44.04793" lon="3.61496">
        <ele>1209</ele>
        <time>2012-03-03T15:24:56Z</time>
      </trkpt>
      <trkpt lat="44.04792" lon="3.61493">
        <ele>1209</ele>
        <time>2012-03-03T15:25:01Z</time>
      </trkpt>
      <trkpt lat="44.04792" lon="3.61491">
        <ele>1209</ele>
        <time>2012-03-03T15:25:06Z</time>
      </trkpt>
      <trkpt lat="44.04794" lon="3.61486">
        <ele>1209</ele>
        <time>2012-03-03T15:25:11Z</time>
      </trkpt>
      <trkpt lat="44.04792" lon="3.61484">
        <ele>1209</ele>
        <time>2012-03-03T15:25:16Z</time>
      </trkpt>
      <trkpt lat="44.04791" lon="3.61482">
        <ele>1210</ele>
        <time>2012-03-03T15:25:21Z</time>
      </trkpt>
      <trkpt lat="44.04791" lon="3.61478">
        <ele>1210</ele>
        <time>2012-03-03T15:25:26Z</time>
      </trkpt>
      <trkpt lat="44.04789" lon="3.61475">
        <ele>1210</ele>
        <time>2012-03-03T15:25:31Z</time>
      </trkpt>
      <trkpt lat="44.04786" lon="3.61478">
        <ele>1210</ele>
        <time>2012-03-03T15:25:36Z</time>
      </trkpt>
      <trkpt lat="44.04787" lon="3.61472">
        <ele>1210</ele>
        <time>2012-03-03T15:25:41Z</time>
      </trkpt>
      <trkpt lat="44.04787" lon="3.61468">
        <ele>1211</ele>
        <time>2012-03-03T15:25:46Z</time>
      </trkpt>
      <trkpt lat="44.04787" lon="3.61464">
        <ele>1211</ele>
        <time>2012-03-03T15:25:51Z</time>
      </trkpt>
      <trkpt lat="44.04788" lon="3.61458">
        <ele>1212</ele>
        <time>2012-03-03T15:25:56Z</time>
      </trkpt>
      <trkpt lat="44.04789" lon="3.61452">
        <ele>1212</ele>
        <time>2012-03-03T15:26:01Z</time>
      </trkpt>
      <trkpt lat="44.04789" lon="3.61447">
        <ele>1213</ele>
        <time>2012-03-03T15:26:06Z</time>
      </trkpt>
      <trkpt lat="44.0479" lon="3.61443">
        <ele>1213</ele>
        <time>2012-03-03T15:26:11Z</time>
      </trkpt>
      <trkpt lat="44.0479" lon="3.6144">
        <ele>1213</ele>
        <time>2012-03-03T15:26:16Z</time>
      </trkpt>
      <trkpt lat="44.0479" lon="3.61436">
        <ele>1214</ele>
        <time>2012-03-03T15:26:21Z</time>
      </trkpt>
      <trkpt lat="44.0479" lon="3.61432">
        <ele>1214</ele>
        <time>2012-03-03T15:26:26Z</time>
      </trkpt>
      <trkpt lat="44.0479" lon="3.61428">
        <ele>1214</ele>
        <time>2012-03-03T15:26:31Z</time>
      </trkpt>
      <trkpt lat="44.0479" lon="3.61425">
        <ele>1214</ele>
        <time>2012-03-03T15:26:36Z</time>
      </trkpt>
      <trkpt lat="44.0479" lon="3.61421">
        <ele>1215</ele>
        <time>2012-03-03T15:26:41Z</time>
      </trkpt>
      <trkpt lat="44.0479" lon="3.61419">
        <ele>1215</ele>
        <time>2012-03-03T15:26:46Z</time>
      </trkpt>
      <trkpt lat="44.04791" lon="3.61415">
        <ele>1221</ele>
        <time>2012-03-03T15:26:51Z</time>
      </trkpt>
      <trkpt lat="44.04792" lon="3.61411">
        <ele>1221</ele>
        <time>2012-03-03T15:26:56Z</time>
      </trkpt>
      <trkpt lat="44.04791" lon="3.61406">
        <ele>1221</ele>
        <time>2012-03-03T15:27:01Z</time>
      </trkpt>
      <trkpt lat="44.0479" lon="3.614">
        <ele>1221</ele>
        <time>2012-03-03T15:27:06Z</time>
      </trkpt>
      <trkpt lat="44.0479" lon="3.61394">
        <ele>1221</ele>
        <time>2012-03-03T15:27:11Z</time>
      </trkpt>
      <trkpt lat="44.0479" lon="3.6139">
        <ele>1221</ele>
        <time>2012-03-03T15:27:16Z</time>
      </trkpt>
      <trkpt lat="44.04791" lon="3.61385">
        <ele>1222</ele>
        <time>2012-03-03T15:27:21Z</time>
      </trkpt>
      <trkpt lat="44.04793" lon="3.61378">
        <ele>1222</ele>
        <time>2012-03-03T15:27:26Z</time>
      </trkpt>
      <trkpt lat="44.04794" lon="3.61372">
        <ele>1222</ele>
        <time>2012-03-03T15:27:31Z</time>
      </trkpt>
      <trkpt lat="44.04796" lon="3.61364">
        <ele>1222</ele>
        <time>2012-03-03T15:27:36Z</time>
      </trkpt>
      <trkpt lat="44.04795" lon="3.61351">
        <ele>1223</ele>
        <time>2012-03-03T15:27:41Z</time>
      </trkpt>
      <trkpt lat="44.04795" lon="3.61333">
        <ele>1225</ele>
        <time>2012-03-03T15:27:46Z</time>
      </trkpt>
      <trkpt lat="44.04797" lon="3.61318">
        <ele>1225</ele>
        <time>2012-03-03T15:27:51Z</time>
      </trkpt>
      <trkpt lat="44.04796" lon="3.61304">
        <ele>1226</ele>
        <time>2012-03-03T15:27:56Z</time>
      </trkpt>
      <trkpt lat="44.04794" lon="3.61294">
        <ele>1226</ele>
        <time>2012-03-03T15:28:01Z</time>
      </trkpt>
      <trkpt lat="44.0479" lon="3.61284">
        <ele>1226</ele>
        <time>2012-03-03T15:28:06Z</time>
      </trkpt>
      <trkpt lat="44.04789" lon="3.61273">
        <ele>1226</ele>
        <time>2012-03-03T15:28:11Z</time>
      </trkpt>
      <trkpt lat="44.0479" lon="3.61262">
        <ele>1226</ele>
        <time>2012-03-03T15:28:16Z</time>
      </trkpt>
      <trkpt lat="44.04794" lon="3.61252">
        <ele>1226</ele>
        <time>2012-03-03T15:28:21Z</time>
      </trkpt>
      <trkpt lat="44.04798" lon="3.61241">
        <ele>1228</ele>
        <time>2012-03-03T15:28:26Z</time>
      </trkpt>
      <trkpt lat="44.04799" lon="3.61235">
        <ele>1229</ele>
        <time>2012-03-03T15:28:31Z</time>
      </trkpt>
      <trkpt lat="44.04803" lon="3.61227">
        <ele>1229</ele>
        <time>2012-03-03T15:28:36Z</time>
      </trkpt>
      <trkpt lat="44.04807" lon="3.61219">
        <ele>1229</ele>
        <time>2012-03-03T15:28:41Z</time>
      </trkpt>
      <trkpt lat="44.04811" lon="3.61212">
        <ele>1229</ele>
        <time>2012-03-03T15:28:46Z</time>
      </trkpt>
      <trkpt lat="44.04815" lon="3.61199">
        <ele>1229</ele>
        <time>2012-03-03T15:28:51Z</time>
      </trkpt>
      <trkpt lat="44.04817" lon="3.61184">
        <ele>1229</ele>
        <time>2012-03-03T15:28:56Z</time>
      </trkpt>
      <trkpt lat="44.04818" lon="3.61169">
        <ele>1229</ele>
        <time>2012-03-03T15:29:01Z</time>
      </trkpt>
      <trkpt lat="44.04817" lon="3.61157">
        <ele>1228</ele>
        <time>2012-03-03T15:29:06Z</time>
      </trkpt>
      <trkpt lat="44.04812" lon="3.61143">
        <ele>1227</ele>
        <time>2012-03-03T15:29:11Z</time>
      </trkpt>
      <trkpt lat="44.04807" lon="3.61129">
        <ele>1227</ele>
        <time>2012-03-03T15:29:16Z</time>
      </trkpt>
      <trkpt lat="44.04803" lon="3.61111">
        <ele>1226</ele>
        <time>2012-03-03T15:29:21Z</time>
      </trkpt>
      <trkpt lat="44.04794" lon="3.61101">
        <ele>1225</ele>
        <time>2012-03-03T15:29:26Z</time>
      </trkpt>
      <trkpt lat="44.04782" lon="3.61099">
        <ele>1225</ele>
        <time>2012-03-03T15:29:31Z</time>
      </trkpt>
      <trkpt lat="44.0477" lon="3.61098">
        <ele>1225</ele>
        <time>2012-03-03T15:29:36Z</time>
      </trkpt>
      <trkpt lat="44.04755" lon="3.61101">
        <ele>1224</ele>
        <time>2012-03-03T15:29:41Z</time>
      </trkpt>
      <trkpt lat="44.04744" lon="3.61104">
        <ele>1216</ele>
        <time>2012-03-03T15:29:46Z</time>
      </trkpt>
      <trkpt lat="44.04735" lon="3.61111">
        <ele>1214</ele>
        <time>2012-03-03T15:29:51Z</time>
      </trkpt>
      <trkpt lat="44.04727" lon="3.6111">
        <ele>1213</ele>
        <time>2012-03-03T15:29:56Z</time>
      </trkpt>
      <trkpt lat="44.04732" lon="3.61095">
        <ele>1215</ele>
        <time>2012-03-03T15:30:01Z</time>
      </trkpt>
      <trkpt lat="44.04739" lon="3.61083">
        <ele>1214</ele>
        <time>2012-03-03T15:30:06Z</time>
      </trkpt>
      <trkpt lat="44.04747" lon="3.61072">
        <ele>1213</ele>
        <time>2012-03-03T15:30:11Z</time>
      </trkpt>
      <trkpt lat="44.04757" lon="3.61061">
        <ele>1215</ele>
        <time>2012-03-03T15:30:16Z</time>
      </trkpt>
      <trkpt lat="44.04766" lon="3.61054">
        <ele>1213</ele>
        <time>2012-03-03T15:30:21Z</time>
      </trkpt>
      <trkpt lat="44.04775" lon="3.6105">
        <ele>1212</ele>
        <time>2012-03-03T15:30:26Z</time>
      </trkpt>
      <trkpt lat="44.04785" lon="3.61046">
        <ele>1211</ele>
        <time>2012-03-03T15:30:31Z</time>
      </trkpt>
      <trkpt lat="44.04796" lon="3.61041">
        <ele>1211</ele>
        <time>2012-03-03T15:30:36Z</time>
      </trkpt>
      <trkpt lat="44.04804" lon="3.61036">
        <ele>1210</ele>
        <time>2012-03-03T15:30:41Z</time>
      </trkpt>
      <trkpt lat="44.04813" lon="3.61032">
        <ele>1210</ele>
        <time>2012-03-03T15:30:46Z</time>
      </trkpt>
      <trkpt lat="44.04824" lon="3.61023">
        <ele>1209</ele>
        <time>2012-03-03T15:30:51Z</time>
      </trkpt>
      <trkpt lat="44.04832" lon="3.61018">
        <ele>1207</ele>
        <time>2012-03-03T15:30:56Z</time>
      </trkpt>
      <trkpt lat="44.04843" lon="3.61011">
        <ele>1204</ele>
        <time>2012-03-03T15:31:01Z</time>
      </trkpt>
      <trkpt lat="44.04855" lon="3.61002">
        <ele>1204</ele>
        <time>2012-03-03T15:31:06Z</time>
      </trkpt>
      <trkpt lat="44.04865" lon="3.60992">
        <ele>1195</ele>
        <time>2012-03-03T15:31:11Z</time>
      </trkpt>
      <trkpt lat="44.04875" lon="3.60983">
        <ele>1194</ele>
        <time>2012-03-03T15:31:16Z</time>
      </trkpt>
      <trkpt lat="44.04887" lon="3.60974">
        <ele>1193</ele>
        <time>2012-03-03T15:31:21Z</time>
      </trkpt>
      <trkpt lat="44.04897" lon="3.60968">
        <ele>1193</ele>
        <time>2012-03-03T15:31:26Z</time>
      </trkpt>
      <trkpt lat="44.04907" lon="3.60955">
        <ele>1192</ele>
        <time>2012-03-03T15:31:31Z</time>
      </trkpt>
      <trkpt lat="44.04916" lon="3.60948">
        <ele>1192</ele>
        <time>2012-03-03T15:31:36Z</time>
      </trkpt>
      <trkpt lat="44.04926" lon="3.60937">
        <ele>1189</ele>
        <time>2012-03-03T15:31:41Z</time>
      </trkpt>
      <trkpt lat="44.04936" lon="3.60928">
        <ele>1189</ele>
        <time>2012-03-03T15:31:46Z</time>
      </trkpt>
      <trkpt lat="44.04943" lon="3.6092">
        <ele>1189</ele>
        <time>2012-03-03T15:31:51Z</time>
      </trkpt>
      <trkpt lat="44.0495" lon="3.60909">
        <ele>1190</ele>
        <time>2012-03-03T15:31:56Z</time>
      </trkpt>
      <trkpt lat="44.04955" lon="3.60899">
        <ele>1190</ele>
        <time>2012-03-03T15:32:01Z</time>
      </trkpt>
      <trkpt lat="44.04961" lon="3.60886">
        <ele>1190</ele>
        <time>2012-03-03T15:32:06Z</time>
      </trkpt>
      <trkpt lat="44.04966" lon="3.60873">
        <ele>1190</ele>
        <time>2012-03-03T15:32:11Z</time>
      </trkpt>
      <trkpt lat="44.0497" lon="3.60859">
        <ele>1191</ele>
        <time>2012-03-03T15:32:16Z</time>
      </trkpt>
      <trkpt lat="44.04977" lon="3.60844">
        <ele>1192</ele>
        <time>2012-03-03T15:32:21Z</time>
      </trkpt>
      <trkpt lat="44.04983" lon="3.60832">
        <ele>1195</ele>
        <time>2012-03-03T15:32:26Z</time>
      </trkpt>
      <trkpt lat="44.04986" lon="3.60826">
        <ele>1195</ele>
        <time>2012-03-03T15:32:31Z</time>
      </trkpt>
      <trkpt lat="44.04982" lon="3.60815">
        <ele>1194</ele>
        <time>2012-03-03T15:32:36Z</time>
      </trkpt>
      <trkpt lat="44.04981" lon="3.60806">
        <ele>1194</ele>
        <time>2012-03-03T15:32:41Z</time>
      </trkpt>
      <trkpt lat="44.04977" lon="3.60803">
        <ele>1194</ele>
        <time>2012-03-03T15:32:46Z</time>
      </trkpt>
      <trkpt lat="44.04974" lon="3.60803">
        <ele>1194</ele>
        <time>2012-03-03T15:32:51Z</time>
      </trkpt>
      <trkpt lat="44.04969" lon="3.60805">
        <ele>1193</ele>
        <time>2012-03-03T15:32:56Z</time>
      </trkpt>
      <trkpt lat="44.04962" lon="3.60807">
        <ele>1192</ele>
        <time>2012-03-03T15:33:01Z</time>
      </trkpt>
      <trkpt lat="44.04956" lon="3.60805">
        <ele>1192</ele>
        <time>2012-03-03T15:33:06Z</time>
      </trkpt>
      <trkpt lat="44.04948" lon="3.60809">
        <ele>1190</ele>
        <time>2012-03-03T15:33:11Z</time>
      </trkpt>
      <trkpt lat="44.04946" lon="3.60812">
        <ele>1190</ele>
        <time>2012-03-03T15:33:16Z</time>
      </trkpt>
      <trkpt lat="44.04946" lon="3.6081">
        <ele>1190</ele>
        <time>2012-03-03T15:33:21Z</time>
      </trkpt>
      <trkpt lat="44.04945" lon="3.60808">
        <ele>1190</ele>
        <time>2012-03-03T15:33:26Z</time>
      </trkpt>
      <trkpt lat="44.04945" lon="3.60807">
        <ele>1190</ele>
        <time>2012-03-03T15:33:31Z</time>
      </trkpt>
      <trkpt lat="44.04945" lon="3.60806">
        <ele>1190</ele>
        <time>2012-03-03T15:33:36Z</time>
      </trkpt>
      <trkpt lat="44.04944" lon="3.60804">
        <ele>1190</ele>
        <time>2012-03-03T15:33:41Z</time>
      </trkpt>
      <trkpt lat="44.04945" lon="3.60801">
        <ele>1190</ele>
        <time>2012-03-03T15:33:46Z</time>
      </trkpt>
      <trkpt lat="44.04946" lon="3.60802">
        <ele>1191</ele>
        <time>2012-03-03T15:33:51Z</time>
      </trkpt>
      <trkpt lat="44.04944" lon="3.60801">
        <ele>1190</ele>
        <time>2012-03-03T15:33:56Z</time>
      </trkpt>
      <trkpt lat="44.04946" lon="3.60805">
        <ele>1190</ele>
        <time>2012-03-03T15:34:01Z</time>
      </trkpt>
      <trkpt lat="44.04947" lon="3.60805">
        <ele>1191</ele>
        <time>2012-03-03T15:34:06Z</time>
      </trkpt>
      <trkpt lat="44.04947" lon="3.60804">
        <ele>1191</ele>
        <time>2012-03-03T15:34:11Z</time>
      </trkpt>
      <trkpt lat="44.04946" lon="3.60804">
        <ele>1190</ele>
        <time>2012-03-03T15:34:16Z</time>
      </trkpt>
      <trkpt lat="44.04944" lon="3.60802">
        <ele>1190</ele>
        <time>2012-03-03T15:34:21Z</time>
      </trkpt>
      <trkpt lat="44.04941" lon="3.60799">
        <ele>1190</ele>
        <time>2012-03-03T15:34:26Z</time>
      </trkpt>
      <trkpt lat="44.04939" lon="3.60798">
        <ele>1190</ele>
        <time>2012-03-03T15:34:31Z</time>
      </trkpt>
      <trkpt lat="44.04938" lon="3.60796">
        <ele>1190</ele>
        <time>2012-03-03T15:34:36Z</time>
      </trkpt>
      <trkpt lat="44.04938" lon="3.60797">
        <ele>1190</ele>
        <time>2012-03-03T15:34:41Z</time>
      </trkpt>
      <trkpt lat="44.04938" lon="3.60797">
        <ele>1190</ele>
        <time>2012-03-03T15:34:46Z</time>
      </trkpt>
      <trkpt lat="44.04938" lon="3.60804">
        <ele>1189</ele>
        <time>2012-03-03T15:34:51Z</time>
      </trkpt>
      <trkpt lat="44.04939" lon="3.60817">
        <ele>1189</ele>
        <time>2012-03-03T15:34:56Z</time>
      </trkpt>
      <trkpt lat="44.04942" lon="3.60831">
        <ele>1188</ele>
        <time>2012-03-03T15:35:01Z</time>
      </trkpt>
      <trkpt lat="44.04942" lon="3.60839">
        <ele>1187</ele>
        <time>2012-03-03T15:35:06Z</time>
      </trkpt>
      <trkpt lat="44.04934" lon="3.60847">
        <ele>1187</ele>
        <time>2012-03-03T15:35:11Z</time>
      </trkpt>
      <trkpt lat="44.04932" lon="3.60849">
        <ele>1186</ele>
        <time>2012-03-03T15:35:16Z</time>
      </trkpt>
      <trkpt lat="44.04927" lon="3.60856">
        <ele>1187</ele>
        <time>2012-03-03T15:35:21Z</time>
      </trkpt>
      <trkpt lat="44.04922" lon="3.60862">
        <ele>1187</ele>
        <time>2012-03-03T15:35:26Z</time>
      </trkpt>
      <trkpt lat="44.04916" lon="3.60868">
        <ele>1180</ele>
        <time>2012-03-03T15:35:31Z</time>
      </trkpt>
      <trkpt lat="44.04907" lon="3.60876">
        <ele>1180</ele>
        <time>2012-03-03T15:35:36Z</time>
      </trkpt>
      <trkpt lat="44.04896" lon="3.60883">
        <ele>1179</ele>
        <time>2012-03-03T15:35:41Z</time>
      </trkpt>
      <trkpt lat="44.04885" lon="3.60888">
        <ele>1179</ele>
        <time>2012-03-03T15:35:46Z</time>
      </trkpt>
      <trkpt lat="44.04871" lon="3.60894">
        <ele>1177</ele>
        <time>2012-03-03T15:35:51Z</time>
      </trkpt>
      <trkpt lat="44.04859" lon="3.60897">
        <ele>1176</ele>
        <time>2012-03-03T15:35:56Z</time>
      </trkpt>
      <trkpt lat="44.04847" lon="3.60902">
        <ele>1176</ele>
        <time>2012-03-03T15:36:01Z</time>
      </trkpt>
      <trkpt lat="44.04834" lon="3.60905">
        <ele>1175</ele>
        <time>2012-03-03T15:36:06Z</time>
      </trkpt>
      <trkpt lat="44.04824" lon="3.6091">
        <ele>1170</ele>
        <time>2012-03-03T15:36:11Z</time>
      </trkpt>
      <trkpt lat="44.04815" lon="3.60913">
        <ele>1168</ele>
        <time>2012-03-03T15:36:16Z</time>
      </trkpt>
      <trkpt lat="44.04806" lon="3.60911">
        <ele>1166</ele>
        <time>2012-03-03T15:36:21Z</time>
      </trkpt>
      <trkpt lat="44.04795" lon="3.60911">
        <ele>1165</ele>
        <time>2012-03-03T15:36:26Z</time>
      </trkpt>
      <trkpt lat="44.04787" lon="3.6091">
        <ele>1164</ele>
        <time>2012-03-03T15:36:31Z</time>
      </trkpt>
      <trkpt lat="44.04777" lon="3.6091">
        <ele>1164</ele>
        <time>2012-03-03T15:36:36Z</time>
      </trkpt>
      <trkpt lat="44.04765" lon="3.60907">
        <ele>1164</ele>
        <time>2012-03-03T15:36:41Z</time>
      </trkpt>
      <trkpt lat="44.04754" lon="3.60901">
        <ele>1163</ele>
        <time>2012-03-03T15:36:46Z</time>
      </trkpt>
      <trkpt lat="44.04741" lon="3.60899">
        <ele>1157</ele>
        <time>2012-03-03T15:36:51Z</time>
      </trkpt>
      <trkpt lat="44.04731" lon="3.60897">
        <ele>1155</ele>
        <time>2012-03-03T15:36:56Z</time>
      </trkpt>
      <trkpt lat="44.04721" lon="3.60896">
        <ele>1153</ele>
        <time>2012-03-03T15:37:01Z</time>
      </trkpt>
      <trkpt lat="44.04711" lon="3.60895">
        <ele>1152</ele>
        <time>2012-03-03T15:37:06Z</time>
      </trkpt>
      <trkpt lat="44.04704" lon="3.60892">
        <ele>1151</ele>
        <time>2012-03-03T15:37:11Z</time>
      </trkpt>
      <trkpt lat="44.04693" lon="3.60889">
        <ele>1150</ele>
        <time>2012-03-03T15:37:16Z</time>
      </trkpt>
      <trkpt lat="44.04683" lon="3.60886">
        <ele>1149</ele>
        <time>2012-03-03T15:37:21Z</time>
      </trkpt>
      <trkpt lat="44.04671" lon="3.60885">
        <ele>1149</ele>
        <time>2012-03-03T15:37:26Z</time>
      </trkpt>
      <trkpt lat="44.04661" lon="3.60883">
        <ele>1143</ele>
        <time>2012-03-03T15:37:31Z</time>
      </trkpt>
      <trkpt lat="44.04647" lon="3.60879">
        <ele>1142</ele>
        <time>2012-03-03T15:37:36Z</time>
      </trkpt>
      <trkpt lat="44.04636" lon="3.60874">
        <ele>1140</ele>
        <time>2012-03-03T15:37:41Z</time>
      </trkpt>
      <trkpt lat="44.04625" lon="3.60873">
        <ele>1140</ele>
        <time>2012-03-03T15:37:46Z</time>
      </trkpt>
      <trkpt lat="44.04613" lon="3.60871">
        <ele>1139</ele>
        <time>2012-03-03T15:37:51Z</time>
      </trkpt>
      <trkpt lat="44.04601" lon="3.6087">
        <ele>1138</ele>
        <time>2012-03-03T15:37:56Z</time>
      </trkpt>
      <trkpt lat="44.04592" lon="3.6087">
        <ele>1138</ele>
        <time>2012-03-03T15:38:01Z</time>
      </trkpt>
      <trkpt lat="44.04579" lon="3.60867">
        <ele>1129</ele>
        <time>2012-03-03T15:38:06Z</time>
      </trkpt>
      <trkpt lat="44.04566" lon="3.60864">
        <ele>1128</ele>
        <time>2012-03-03T15:38:11Z</time>
      </trkpt>
      <trkpt lat="44.04556" lon="3.60861">
        <ele>1127</ele>
        <time>2012-03-03T15:38:16Z</time>
      </trkpt>
      <trkpt lat="44.04546" lon="3.60861">
        <ele>1127</ele>
        <time>2012-03-03T15:38:21Z</time>
      </trkpt>
      <trkpt lat="44.04537" lon="3.60861">
        <ele>1126</ele>
        <time>2012-03-03T15:38:26Z</time>
      </trkpt>
      <trkpt lat="44.04527" lon="3.60857">
        <ele>1124</ele>
        <time>2012-03-03T15:38:31Z</time>
      </trkpt>
      <trkpt lat="44.0452" lon="3.60859">
        <ele>1123</ele>
        <time>2012-03-03T15:38:36Z</time>
      </trkpt>
      <trkpt lat="44.04512" lon="3.60863">
        <ele>1123</ele>
        <time>2012-03-03T15:38:41Z</time>
      </trkpt>
      <trkpt lat="44.04504" lon="3.60866">
        <ele>1123</ele>
        <time>2012-03-03T15:38:46Z</time>
      </trkpt>
      <trkpt lat="44.04506" lon="3.60853">
        <ele>1120</ele>
        <time>2012-03-03T15:38:51Z</time>
      </trkpt>
      <trkpt lat="44.04511" lon="3.60844">
        <ele>1118</ele>
        <time>2012-03-03T15:38:56Z</time>
      </trkpt>
      <trkpt lat="44.04518" lon="3.60833">
        <ele>1107</ele>
        <time>2012-03-03T15:39:01Z</time>
      </trkpt>
      <trkpt lat="44.04528" lon="3.60825">
        <ele>1107</ele>
        <time>2012-03-03T15:39:06Z</time>
      </trkpt>
      <trkpt lat="44.04538" lon="3.60818">
        <ele>1107</ele>
        <time>2012-03-03T15:39:11Z</time>
      </trkpt>
      <trkpt lat="44.04547" lon="3.6081">
        <ele>1106</ele>
        <time>2012-03-03T15:39:16Z</time>
      </trkpt>
      <trkpt lat="44.0456" lon="3.60805">
        <ele>1107</ele>
        <time>2012-03-03T15:39:21Z</time>
      </trkpt>
      <trkpt lat="44.0457" lon="3.608">
        <ele>1107</ele>
        <time>2012-03-03T15:39:26Z</time>
      </trkpt>
      <trkpt lat="44.04578" lon="3.60793">
        <ele>1105</ele>
        <time>2012-03-03T15:39:31Z</time>
      </trkpt>
      <trkpt lat="44.04591" lon="3.60789">
        <ele>1110</ele>
        <time>2012-03-03T15:39:36Z</time>
      </trkpt>
      <trkpt lat="44.04603" lon="3.60782">
        <ele>1109</ele>
        <time>2012-03-03T15:39:41Z</time>
      </trkpt>
      <trkpt lat="44.04615" lon="3.60778">
        <ele>1110</ele>
        <time>2012-03-03T15:39:46Z</time>
      </trkpt>
      <trkpt lat="44.04627" lon="3.60772">
        <ele>1110</ele>
        <time>2012-03-03T15:39:51Z</time>
      </trkpt>
      <trkpt lat="44.04638" lon="3.60768">
        <ele>1110</ele>
        <time>2012-03-03T15:39:56Z</time>
      </trkpt>
      <trkpt lat="44.0465" lon="3.60762">
        <ele>1109</ele>
        <time>2012-03-03T15:40:01Z</time>
      </trkpt>
      <trkpt lat="44.04658" lon="3.60757">
        <ele>1107</ele>
        <time>2012-03-03T15:40:06Z</time>
      </trkpt>
      <trkpt lat="44.04669" lon="3.60748">
        <ele>1104</ele>
        <time>2012-03-03T15:40:11Z</time>
      </trkpt>
      <trkpt lat="44.04682" lon="3.60738">
        <ele>1105</ele>
        <time>2012-03-03T15:40:16Z</time>
      </trkpt>
      <trkpt lat="44.04693" lon="3.6073">
        <ele>1105</ele>
        <time>2012-03-03T15:40:21Z</time>
      </trkpt>
      <trkpt lat="44.04695" lon="3.60717">
        <ele>1104</ele>
        <time>2012-03-03T15:40:26Z</time>
      </trkpt>
      <trkpt lat="44.04687" lon="3.60718">
        <ele>1104</ele>
        <time>2012-03-03T15:40:31Z</time>
      </trkpt>
      <trkpt lat="44.04677" lon="3.60722">
        <ele>1103</ele>
        <time>2012-03-03T15:40:36Z</time>
      </trkpt>
      <trkpt lat="44.0467" lon="3.60725">
        <ele>1103</ele>
        <time>2012-03-03T15:40:41Z</time>
      </trkpt>
      <trkpt lat="44.04658" lon="3.60726">
        <ele>1091</ele>
        <time>2012-03-03T15:40:46Z</time>
      </trkpt>
      <trkpt lat="44.04646" lon="3.60723">
        <ele>1089</ele>
        <time>2012-03-03T15:40:51Z</time>
      </trkpt>
      <trkpt lat="44.04634" lon="3.60721">
        <ele>1087</ele>
        <time>2012-03-03T15:40:56Z</time>
      </trkpt>
      <trkpt lat="44.04622" lon="3.6072">
        <ele>1086</ele>
        <time>2012-03-03T15:41:01Z</time>
      </trkpt>
      <trkpt lat="44.04607" lon="3.60718">
        <ele>1085</ele>
        <time>2012-03-03T15:41:06Z</time>
      </trkpt>
      <trkpt lat="44.04591" lon="3.60716">
        <ele>1084</ele>
        <time>2012-03-03T15:41:11Z</time>
      </trkpt>
      <trkpt lat="44.04578" lon="3.60712">
        <ele>1076</ele>
        <time>2012-03-03T15:41:16Z</time>
      </trkpt>
      <trkpt lat="44.04563" lon="3.60706">
        <ele>1074</ele>
        <time>2012-03-03T15:41:21Z</time>
      </trkpt>
      <trkpt lat="44.04549" lon="3.60701">
        <ele>1072</ele>
        <time>2012-03-03T15:41:26Z</time>
      </trkpt>
      <trkpt lat="44.04539" lon="3.60698">
        <ele>1072</ele>
        <time>2012-03-03T15:41:31Z</time>
      </trkpt>
      <trkpt lat="44.04529" lon="3.60694">
        <ele>1070</ele>
        <time>2012-03-03T15:41:36Z</time>
      </trkpt>
      <trkpt lat="44.04516" lon="3.60694">
        <ele>1069</ele>
        <time>2012-03-03T15:41:41Z</time>
      </trkpt>
      <trkpt lat="44.045" lon="3.60692">
        <ele>1067</ele>
        <time>2012-03-03T15:41:46Z</time>
      </trkpt>
      <trkpt lat="44.04486" lon="3.60689">
        <ele>1061</ele>
        <time>2012-03-03T15:41:51Z</time>
      </trkpt>
      <trkpt lat="44.04469" lon="3.6069">
        <ele>1061</ele>
        <time>2012-03-03T15:41:56Z</time>
      </trkpt>
      <trkpt lat="44.04457" lon="3.60696">
        <ele>1061</ele>
        <time>2012-03-03T15:42:01Z</time>
      </trkpt>
      <trkpt lat="44.04443" lon="3.60696">
        <ele>1060</ele>
        <time>2012-03-03T15:42:06Z</time>
      </trkpt>
      <trkpt lat="44.0443" lon="3.60694">
        <ele>1058</ele>
        <time>2012-03-03T15:42:11Z</time>
      </trkpt>
      <trkpt lat="44.04417" lon="3.60697">
        <ele>1058</ele>
        <time>2012-03-03T15:42:16Z</time>
      </trkpt>
      <trkpt lat="44.04413" lon="3.60691">
        <ele>1044</ele>
        <time>2012-03-03T15:42:21Z</time>
      </trkpt>
      <trkpt lat="44.04418" lon="3.60685">
        <ele>1054</ele>
        <time>2012-03-03T15:42:26Z</time>
      </trkpt>
      <trkpt lat="44.04425" lon="3.60676">
        <ele>1052</ele>
        <time>2012-03-03T15:42:31Z</time>
      </trkpt>
      <trkpt lat="44.04432" lon="3.60666">
        <ele>1041</ele>
        <time>2012-03-03T15:42:36Z</time>
      </trkpt>
      <trkpt lat="44.04441" lon="3.60659">
        <ele>1040</ele>
        <time>2012-03-03T15:42:41Z</time>
      </trkpt>
      <trkpt lat="44.04449" lon="3.60652">
        <ele>1039</ele>
        <time>2012-03-03T15:42:46Z</time>
      </trkpt>
      <trkpt lat="44.04457" lon="3.60648">
        <ele>1039</ele>
        <time>2012-03-03T15:42:51Z</time>
      </trkpt>
      <trkpt lat="44.04464" lon="3.60646">
        <ele>1040</ele>
        <time>2012-03-03T15:42:56Z</time>
      </trkpt>
      <trkpt lat="44.04471" lon="3.60642">
        <ele>1040</ele>
        <time>2012-03-03T15:43:01Z</time>
      </trkpt>
      <trkpt lat="44.0448" lon="3.60639">
        <ele>1041</ele>
        <time>2012-03-03T15:43:06Z</time>
      </trkpt>
      <trkpt lat="44.0449" lon="3.60634">
        <ele>1040</ele>
        <time>2012-03-03T15:43:11Z</time>
      </trkpt>
      <trkpt lat="44.04499" lon="3.60628">
        <ele>1039</ele>
        <time>2012-03-03T15:43:16Z</time>
      </trkpt>
      <trkpt lat="44.04512" lon="3.60628">
        <ele>1046</ele>
        <time>2012-03-03T15:43:21Z</time>
      </trkpt>
      <trkpt lat="44.04523" lon="3.60627">
        <ele>1046</ele>
        <time>2012-03-03T15:43:26Z</time>
      </trkpt>
      <trkpt lat="44.04533" lon="3.60625">
        <ele>1046</ele>
        <time>2012-03-03T15:43:31Z</time>
      </trkpt>
      <trkpt lat="44.04545" lon="3.60619">
        <ele>1046</ele>
        <time>2012-03-03T15:43:36Z</time>
      </trkpt>
      <trkpt lat="44.04556" lon="3.60611">
        <ele>1046</ele>
        <time>2012-03-03T15:43:41Z</time>
      </trkpt>
      <trkpt lat="44.04561" lon="3.60603">
        <ele>1046</ele>
        <time>2012-03-03T15:43:46Z</time>
      </trkpt>
      <trkpt lat="44.04559" lon="3.60601">
        <ele>1045</ele>
        <time>2012-03-03T15:43:51Z</time>
      </trkpt>
      <trkpt lat="44.04559" lon="3.60604">
        <ele>1046</ele>
        <time>2012-03-03T15:43:56Z</time>
      </trkpt>
      <trkpt lat="44.04554" lon="3.60609">
        <ele>1046</ele>
        <time>2012-03-03T15:44:01Z</time>
      </trkpt>
      <trkpt lat="44.04549" lon="3.60605">
        <ele>1045</ele>
        <time>2012-03-03T15:44:06Z</time>
      </trkpt>
      <trkpt lat="44.04543" lon="3.60604">
        <ele>1045</ele>
        <time>2012-03-03T15:44:11Z</time>
      </trkpt>
      <trkpt lat="44.04536" lon="3.60602">
        <ele>1044</ele>
        <time>2012-03-03T15:44:16Z</time>
      </trkpt>
      <trkpt lat="44.04527" lon="3.60599">
        <ele>1042</ele>
        <time>2012-03-03T15:44:21Z</time>
      </trkpt>
      <trkpt lat="44.04518" lon="3.60596">
        <ele>1040</ele>
        <time>2012-03-03T15:44:26Z</time>
      </trkpt>
      <trkpt lat="44.04509" lon="3.60598">
        <ele>1038</ele>
        <time>2012-03-03T15:44:31Z</time>
      </trkpt>
      <trkpt lat="44.04499" lon="3.60594">
        <ele>1032</ele>
        <time>2012-03-03T15:44:36Z</time>
      </trkpt>
      <trkpt lat="44.0449" lon="3.60579">
        <ele>1022</ele>
        <time>2012-03-03T15:44:41Z</time>
      </trkpt>
      <trkpt lat="44.04493" lon="3.60568">
        <ele>1020</ele>
        <time>2012-03-03T15:44:46Z</time>
      </trkpt>
      <trkpt lat="44.04497" lon="3.60561">
        <ele>1018</ele>
        <time>2012-03-03T15:44:51Z</time>
      </trkpt>
      <trkpt lat="44.04499" lon="3.60558">
        <ele>1017</ele>
        <time>2012-03-03T15:44:56Z</time>
      </trkpt>
      <trkpt lat="44.04496" lon="3.60558">
        <ele>1017</ele>
        <time>2012-03-03T15:45:01Z</time>
      </trkpt>
      <trkpt lat="44.04491" lon="3.60557">
        <ele>1016</ele>
        <time>2012-03-03T15:45:06Z</time>
      </trkpt>
      <trkpt lat="44.04488" lon="3.60555">
        <ele>1016</ele>
        <time>2012-03-03T15:45:11Z</time>
      </trkpt>
      <trkpt lat="44.04481" lon="3.60556">
        <ele>1015</ele>
        <time>2012-03-03T15:45:16Z</time>
      </trkpt>
      <trkpt lat="44.0447" lon="3.60556">
        <ele>1014</ele>
        <time>2012-03-03T15:45:21Z</time>
      </trkpt>
      <trkpt lat="44.04463" lon="3.6055">
        <ele>1012</ele>
        <time>2012-03-03T15:45:26Z</time>
      </trkpt>
      <trkpt lat="44.04451" lon="3.60549">
        <ele>1011</ele>
        <time>2012-03-03T15:45:31Z</time>
      </trkpt>
      <trkpt lat="44.04447" lon="3.60545">
        <ele>1010</ele>
        <time>2012-03-03T15:45:36Z</time>
      </trkpt>
      <trkpt lat="44.04438" lon="3.60539">
        <ele>1008</ele>
        <time>2012-03-03T15:45:41Z</time>
      </trkpt>
      <trkpt lat="44.04432" lon="3.60533">
        <ele>1006</ele>
        <time>2012-03-03T15:45:46Z</time>
      </trkpt>
      <trkpt lat="44.04424" lon="3.6053">
        <ele>1004</ele>
        <time>2012-03-03T15:45:51Z</time>
      </trkpt>
      <trkpt lat="44.04423" lon="3.60525">
        <ele>1003</ele>
        <time>2012-03-03T15:45:56Z</time>
      </trkpt>
      <trkpt lat="44.04421" lon="3.60519">
        <ele>1000</ele>
        <time>2012-03-03T15:46:01Z</time>
      </trkpt>
      <trkpt lat="44.04414" lon="3.60516">
        <ele>991</ele>
        <time>2012-03-03T15:46:06Z</time>
      </trkpt>
      <trkpt lat="44.04411" lon="3.60516">
        <ele>991</ele>
        <time>2012-03-03T15:46:11Z</time>
      </trkpt>
      <trkpt lat="44.04404" lon="3.60516">
        <ele>991</ele>
        <time>2012-03-03T15:46:16Z</time>
      </trkpt>
      <trkpt lat="44.04398" lon="3.60518">
        <ele>991</ele>
        <time>2012-03-03T15:46:21Z</time>
      </trkpt>
      <trkpt lat="44.04389" lon="3.60518">
        <ele>991</ele>
        <time>2012-03-03T15:46:26Z</time>
      </trkpt>
      <trkpt lat="44.04387" lon="3.60516">
        <ele>990</ele>
        <time>2012-03-03T15:46:31Z</time>
      </trkpt>
      <trkpt lat="44.04381" lon="3.60517">
        <ele>990</ele>
        <time>2012-03-03T15:46:36Z</time>
      </trkpt>
      <trkpt lat="44.04375" lon="3.60519">
        <ele>990</ele>
        <time>2012-03-03T15:46:41Z</time>
      </trkpt>
      <trkpt lat="44.0437" lon="3.60516">
        <ele>988</ele>
        <time>2012-03-03T15:46:46Z</time>
      </trkpt>
      <trkpt lat="44.04372" lon="3.60508">
        <ele>988</ele>
        <time>2012-03-03T15:46:51Z</time>
      </trkpt>
      <trkpt lat="44.04372" lon="3.60496">
        <ele>974</ele>
        <time>2012-03-03T15:46:56Z</time>
      </trkpt>
      <trkpt lat="44.04371" lon="3.60487">
        <ele>973</ele>
        <time>2012-03-03T15:47:01Z</time>
      </trkpt>
      <trkpt lat="44.04372" lon="3.60482">
        <ele>973</ele>
        <time>2012-03-03T15:47:06Z</time>
      </trkpt>
      <trkpt lat="44.04369" lon="3.60484">
        <ele>973</ele>
        <time>2012-03-03T15:47:11Z</time>
      </trkpt>
      <trkpt lat="44.04365" lon="3.60486">
        <ele>973</ele>
        <time>2012-03-03T15:47:16Z</time>
      </trkpt>
      <trkpt lat="44.04355" lon="3.60484">
        <ele>972</ele>
        <time>2012-03-03T15:47:21Z</time>
      </trkpt>
      <trkpt lat="44.04345" lon="3.60487">
        <ele>971</ele>
        <time>2012-03-03T15:47:26Z</time>
      </trkpt>
      <trkpt lat="44.04336" lon="3.60489">
        <ele>971</ele>
        <time>2012-03-03T15:47:31Z</time>
      </trkpt>
      <trkpt lat="44.04328" lon="3.60491">
        <ele>965</ele>
        <time>2012-03-03T15:47:36Z</time>
      </trkpt>
      <trkpt lat="44.0432" lon="3.60491">
        <ele>963</ele>
        <time>2012-03-03T15:47:41Z</time>
      </trkpt>
      <trkpt lat="44.04314" lon="3.60495">
        <ele>962</ele>
        <time>2012-03-03T15:47:46Z</time>
      </trkpt>
      <trkpt lat="44.04308" lon="3.60499">
        <ele>961</ele>
        <time>2012-03-03T15:47:51Z</time>
      </trkpt>
      <trkpt lat="44.04301" lon="3.60501">
        <ele>972</ele>
        <time>2012-03-03T15:47:56Z</time>
      </trkpt>
      <trkpt lat="44.04294" lon="3.60499">
        <ele>958</ele>
        <time>2012-03-03T15:48:01Z</time>
      </trkpt>
      <trkpt lat="44.0429" lon="3.60498">
        <ele>958</ele>
        <time>2012-03-03T15:48:06Z</time>
      </trkpt>
      <trkpt lat="44.04285" lon="3.605">
        <ele>957</ele>
        <time>2012-03-03T15:48:11Z</time>
      </trkpt>
      <trkpt lat="44.0428" lon="3.60499">
        <ele>957</ele>
        <time>2012-03-03T15:48:16Z</time>
      </trkpt>
      <trkpt lat="44.04273" lon="3.60496">
        <ele>956</ele>
        <time>2012-03-03T15:48:21Z</time>
      </trkpt>
      <trkpt lat="44.04262" lon="3.60488">
        <ele>955</ele>
        <time>2012-03-03T15:48:26Z</time>
      </trkpt>
      <trkpt lat="44.04255" lon="3.60486">
        <ele>955</ele>
        <time>2012-03-03T15:48:31Z</time>
      </trkpt>
      <trkpt lat="44.04249" lon="3.60483">
        <ele>949</ele>
        <time>2012-03-03T15:48:36Z</time>
      </trkpt>
      <trkpt lat="44.04241" lon="3.60477">
        <ele>947</ele>
        <time>2012-03-03T15:48:41Z</time>
      </trkpt>
      <trkpt lat="44.04234" lon="3.60476">
        <ele>946</ele>
        <time>2012-03-03T15:48:46Z</time>
      </trkpt>
      <trkpt lat="44.04226" lon="3.60473">
        <ele>944</ele>
        <time>2012-03-03T15:48:51Z</time>
      </trkpt>
      <trkpt lat="44.04215" lon="3.60471">
        <ele>943</ele>
        <time>2012-03-03T15:48:56Z</time>
      </trkpt>
      <trkpt lat="44.04205" lon="3.60466">
        <ele>942</ele>
        <time>2012-03-03T15:49:01Z</time>
      </trkpt>
      <trkpt lat="44.04192" lon="3.6046">
        <ele>940</ele>
        <time>2012-03-03T15:49:06Z</time>
      </trkpt>
      <trkpt lat="44.04183" lon="3.60456">
        <ele>939</ele>
        <time>2012-03-03T15:49:11Z</time>
      </trkpt>
      <trkpt lat="44.04173" lon="3.6045">
        <ele>937</ele>
        <time>2012-03-03T15:49:16Z</time>
      </trkpt>
      <trkpt lat="44.04165" lon="3.60444">
        <ele>929</ele>
        <time>2012-03-03T15:49:21Z</time>
      </trkpt>
      <trkpt lat="44.04155" lon="3.60436">
        <ele>928</ele>
        <time>2012-03-03T15:49:26Z</time>
      </trkpt>
      <trkpt lat="44.04147" lon="3.60433">
        <ele>927</ele>
        <time>2012-03-03T15:49:31Z</time>
      </trkpt>
      <trkpt lat="44.04138" lon="3.60428">
        <ele>927</ele>
        <time>2012-03-03T15:49:36Z</time>
      </trkpt>
      <trkpt lat="44.0413" lon="3.60425">
        <ele>926</ele>
        <time>2012-03-03T15:49:41Z</time>
      </trkpt>
      <trkpt lat="44.04122" lon="3.6042">
        <ele>925</ele>
        <time>2012-03-03T15:49:46Z</time>
      </trkpt>
      <trkpt lat="44.04113" lon="3.60416">
        <ele>917</ele>
        <time>2012-03-03T15:49:51Z</time>
      </trkpt>
      <trkpt lat="44.041" lon="3.60419">
        <ele>923</ele>
        <time>2012-03-03T15:49:56Z</time>
      </trkpt>
      <trkpt lat="44.04092" lon="3.60422">
        <ele>921</ele>
        <time>2012-03-03T15:50:01Z</time>
      </trkpt>
      <trkpt lat="44.04082" lon="3.60426">
        <ele>917</ele>
        <time>2012-03-03T15:50:06Z</time>
      </trkpt>
      <trkpt lat="44.04072" lon="3.60432">
        <ele>916</ele>
        <time>2012-03-03T15:50:11Z</time>
      </trkpt>
      <trkpt lat="44.04061" lon="3.60436">
        <ele>915</ele>
        <time>2012-03-03T15:50:16Z</time>
      </trkpt>
      <trkpt lat="44.04055" lon="3.6044">
        <ele>914</ele>
        <time>2012-03-03T15:50:21Z</time>
      </trkpt>
      <trkpt lat="44.04044" lon="3.60447">
        <ele>913</ele>
        <time>2012-03-03T15:50:26Z</time>
      </trkpt>
      <trkpt lat="44.04035" lon="3.60454">
        <ele>912</ele>
        <time>2012-03-03T15:50:31Z</time>
      </trkpt>
      <trkpt lat="44.04025" lon="3.60463">
        <ele>912</ele>
        <time>2012-03-03T15:50:36Z</time>
      </trkpt>
      <trkpt lat="44.04011" lon="3.60474">
        <ele>910</ele>
        <time>2012-03-03T15:50:41Z</time>
      </trkpt>
      <trkpt lat="44.03996" lon="3.60479">
        <ele>904</ele>
        <time>2012-03-03T15:50:46Z</time>
      </trkpt>
      <trkpt lat="44.03984" lon="3.60477">
        <ele>904</ele>
        <time>2012-03-03T15:50:51Z</time>
      </trkpt>
      <trkpt lat="44.0398" lon="3.60455">
        <ele>904</ele>
        <time>2012-03-03T15:50:56Z</time>
      </trkpt>
      <trkpt lat="44.03984" lon="3.60433">
        <ele>905</ele>
        <time>2012-03-03T15:51:01Z</time>
      </trkpt>
      <trkpt lat="44.0399" lon="3.60417">
        <ele>905</ele>
        <time>2012-03-03T15:51:06Z</time>
      </trkpt>
      <trkpt lat="44.03995" lon="3.60407">
        <ele>903</ele>
        <time>2012-03-03T15:51:11Z</time>
      </trkpt>
      <trkpt lat="44.03993" lon="3.60398">
        <ele>901</ele>
        <time>2012-03-03T15:51:16Z</time>
      </trkpt>
      <trkpt lat="44.03993" lon="3.60389">
        <ele>899</ele>
        <time>2012-03-03T15:51:21Z</time>
      </trkpt>
      <trkpt lat="44.03996" lon="3.60381">
        <ele>898</ele>
        <time>2012-03-03T15:51:26Z</time>
      </trkpt>
      <trkpt lat="44.03997" lon="3.60375">
        <ele>897</ele>
        <time>2012-03-03T15:51:31Z</time>
      </trkpt>
      <trkpt lat="44.04" lon="3.60367">
        <ele>900</ele>
        <time>2012-03-03T15:51:36Z</time>
      </trkpt>
      <trkpt lat="44.03995" lon="3.60361">
        <ele>895</ele>
        <time>2012-03-03T15:51:41Z</time>
      </trkpt>
      <trkpt lat="44.03988" lon="3.60358">
        <ele>895</ele>
        <time>2012-03-03T15:51:46Z</time>
      </trkpt>
      <trkpt lat="44.03981" lon="3.60357">
        <ele>895</ele>
        <time>2012-03-03T15:51:51Z</time>
      </trkpt>
      <trkpt lat="44.03973" lon="3.60352">
        <ele>895</ele>
        <time>2012-03-03T15:51:56Z</time>
      </trkpt>
      <trkpt lat="44.03963" lon="3.60346">
        <ele>895</ele>
        <time>2012-03-03T15:52:01Z</time>
      </trkpt>
      <trkpt lat="44.03955" lon="3.60336">
        <ele>894</ele>
        <time>2012-03-03T15:52:06Z</time>
      </trkpt>
      <trkpt lat="44.03946" lon="3.60327">
        <ele>885</ele>
        <time>2012-03-03T15:52:11Z</time>
      </trkpt>
      <trkpt lat="44.03936" lon="3.60317">
        <ele>884</ele>
        <time>2012-03-03T15:52:16Z</time>
      </trkpt>
      <trkpt lat="44.03928" lon="3.60306">
        <ele>883</ele>
        <time>2012-03-03T15:52:21Z</time>
      </trkpt>
      <trkpt lat="44.03922" lon="3.60297">
        <ele>882</ele>
        <time>2012-03-03T15:52:26Z</time>
      </trkpt>
      <trkpt lat="44.03917" lon="3.60282">
        <ele>880</ele>
        <time>2012-03-03T15:52:31Z</time>
      </trkpt>
      <trkpt lat="44.03916" lon="3.60262">
        <ele>878</ele>
        <time>2012-03-03T15:52:36Z</time>
      </trkpt>
      <trkpt lat="44.03913" lon="3.60247">
        <ele>872</ele>
        <time>2012-03-03T15:52:41Z</time>
      </trkpt>
      <trkpt lat="44.0391" lon="3.60224">
        <ele>871</ele>
        <time>2012-03-03T15:52:46Z</time>
      </trkpt>
      <trkpt lat="44.03908" lon="3.60209">
        <ele>869</ele>
        <time>2012-03-03T15:52:51Z</time>
      </trkpt>
      <trkpt lat="44.03904" lon="3.60194">
        <ele>868</ele>
        <time>2012-03-03T15:52:56Z</time>
      </trkpt>
      <trkpt lat="44.03899" lon="3.60183">
        <ele>867</ele>
        <time>2012-03-03T15:53:01Z</time>
      </trkpt>
      <trkpt lat="44.03893" lon="3.6017">
        <ele>866</ele>
        <time>2012-03-03T15:53:06Z</time>
      </trkpt>
      <trkpt lat="44.0389" lon="3.60155">
        <ele>860</ele>
        <time>2012-03-03T15:53:11Z</time>
      </trkpt>
      <trkpt lat="44.03886" lon="3.60142">
        <ele>860</ele>
        <time>2012-03-03T15:53:16Z</time>
      </trkpt>
      <trkpt lat="44.03884" lon="3.60125">
        <ele>859</ele>
        <time>2012-03-03T15:53:21Z</time>
      </trkpt>
      <trkpt lat="44.03879" lon="3.6011">
        <ele>858</ele>
        <time>2012-03-03T15:53:26Z</time>
      </trkpt>
      <trkpt lat="44.03872" lon="3.60113">
        <ele>858</ele>
        <time>2012-03-03T15:53:31Z</time>
      </trkpt>
      <trkpt lat="44.03865" lon="3.60108">
        <ele>858</ele>
        <time>2012-03-03T15:53:36Z</time>
      </trkpt>
      <trkpt lat="44.0386" lon="3.60095">
        <ele>857</ele>
        <time>2012-03-03T15:53:41Z</time>
      </trkpt>
      <trkpt lat="44.03855" lon="3.60081">
        <ele>853</ele>
        <time>2012-03-03T15:53:46Z</time>
      </trkpt>
      <trkpt lat="44.03851" lon="3.60071">
        <ele>853</ele>
        <time>2012-03-03T15:53:51Z</time>
      </trkpt>
      <trkpt lat="44.0385" lon="3.60058">
        <ele>853</ele>
        <time>2012-03-03T15:53:56Z</time>
      </trkpt>
      <trkpt lat="44.03844" lon="3.60054">
        <ele>852</ele>
        <time>2012-03-03T15:54:01Z</time>
      </trkpt>
      <trkpt lat="44.03838" lon="3.60049">
        <ele>852</ele>
        <time>2012-03-03T15:54:06Z</time>
      </trkpt>
      <trkpt lat="44.0383" lon="3.6004">
        <ele>846</ele>
        <time>2012-03-03T15:54:11Z</time>
      </trkpt>
      <trkpt lat="44.03824" lon="3.60028">
        <ele>845</ele>
        <time>2012-03-03T15:54:16Z</time>
      </trkpt>
      <trkpt lat="44.03818" lon="3.60015">
        <ele>844</ele>
        <time>2012-03-03T15:54:21Z</time>
      </trkpt>
      <trkpt lat="44.0381" lon="3.6">
        <ele>839</ele>
        <time>2012-03-03T15:54:26Z</time>
      </trkpt>
      <trkpt lat="44.03804" lon="3.59991">
        <ele>839</ele>
        <time>2012-03-03T15:54:31Z</time>
      </trkpt>
      <trkpt lat="44.03797" lon="3.59981">
        <ele>838</ele>
        <time>2012-03-03T15:54:36Z</time>
      </trkpt>
      <trkpt lat="44.03791" lon="3.59973">
        <ele>838</ele>
        <time>2012-03-03T15:54:41Z</time>
      </trkpt>
      <trkpt lat="44.03784" lon="3.59971">
        <ele>838</ele>
        <time>2012-03-03T15:54:46Z</time>
      </trkpt>
      <trkpt lat="44.03773" lon="3.59969">
        <ele>837</ele>
        <time>2012-03-03T15:54:51Z</time>
      </trkpt>
      <trkpt lat="44.03764" lon="3.59966">
        <ele>836</ele>
        <time>2012-03-03T15:54:56Z</time>
      </trkpt>
      <trkpt lat="44.03754" lon="3.59965">
        <ele>836</ele>
        <time>2012-03-03T15:55:01Z</time>
      </trkpt>
      <trkpt lat="44.03743" lon="3.59967">
        <ele>829</ele>
        <time>2012-03-03T15:55:06Z</time>
      </trkpt>
      <trkpt lat="44.03729" lon="3.59967">
        <ele>829</ele>
        <time>2012-03-03T15:55:11Z</time>
      </trkpt>
      <trkpt lat="44.03715" lon="3.59964">
        <ele>828</ele>
        <time>2012-03-03T15:55:16Z</time>
      </trkpt>
      <trkpt lat="44.03703" lon="3.59966">
        <ele>827</ele>
        <time>2012-03-03T15:55:21Z</time>
      </trkpt>
      <trkpt lat="44.03693" lon="3.5997">
        <ele>826</ele>
        <time>2012-03-03T15:55:26Z</time>
      </trkpt>
      <trkpt lat="44.03681" lon="3.59974">
        <ele>826</ele>
        <time>2012-03-03T15:55:31Z</time>
      </trkpt>
      <trkpt lat="44.03674" lon="3.59981">
        <ele>825</ele>
        <time>2012-03-03T15:55:36Z</time>
      </trkpt>
      <trkpt lat="44.03663" lon="3.59989">
        <ele>820</ele>
        <time>2012-03-03T15:55:41Z</time>
      </trkpt>
      <trkpt lat="44.03651" lon="3.59994">
        <ele>819</ele>
        <time>2012-03-03T15:55:46Z</time>
      </trkpt>
      <trkpt lat="44.03638" lon="3.59998">
        <ele>817</ele>
        <time>2012-03-03T15:55:51Z</time>
      </trkpt>
      <trkpt lat="44.03628" lon="3.60004">
        <ele>820</ele>
        <time>2012-03-03T15:55:56Z</time>
      </trkpt>
      <trkpt lat="44.0362" lon="3.60012">
        <ele>819</ele>
        <time>2012-03-03T15:56:01Z</time>
      </trkpt>
      <trkpt lat="44.03609" lon="3.60023">
        <ele>818</ele>
        <time>2012-03-03T15:56:06Z</time>
      </trkpt>
      <trkpt lat="44.03601" lon="3.60033">
        <ele>819</ele>
        <time>2012-03-03T15:56:11Z</time>
      </trkpt>
      <trkpt lat="44.03592" lon="3.60045">
        <ele>820</ele>
        <time>2012-03-03T15:56:16Z</time>
      </trkpt>
      <trkpt lat="44.03583" lon="3.60057">
        <ele>813</ele>
        <time>2012-03-03T15:56:21Z</time>
      </trkpt>
      <trkpt lat="44.03573" lon="3.60069">
        <ele>815</ele>
        <time>2012-03-03T15:56:26Z</time>
      </trkpt>
      <trkpt lat="44.03567" lon="3.60074">
        <ele>815</ele>
        <time>2012-03-03T15:56:31Z</time>
      </trkpt>
      <trkpt lat="44.03561" lon="3.60079">
        <ele>815</ele>
        <time>2012-03-03T15:56:36Z</time>
      </trkpt>
      <trkpt lat="44.03556" lon="3.60085">
        <ele>826</ele>
        <time>2012-03-03T15:56:41Z</time>
      </trkpt>
      <trkpt lat="44.03552" lon="3.60091">
        <ele>826</ele>
        <time>2012-03-03T15:56:46Z</time>
      </trkpt>
      <trkpt lat="44.03548" lon="3.60097">
        <ele>827</ele>
        <time>2012-03-03T15:56:51Z</time>
      </trkpt>
      <trkpt lat="44.03544" lon="3.60103">
        <ele>827</ele>
        <time>2012-03-03T15:56:56Z</time>
      </trkpt>
      <trkpt lat="44.03539" lon="3.60111">
        <ele>828</ele>
        <time>2012-03-03T15:57:01Z</time>
      </trkpt>
      <trkpt lat="44.03535" lon="3.60117">
        <ele>828</ele>
        <time>2012-03-03T15:57:06Z</time>
      </trkpt>
      <trkpt lat="44.0353" lon="3.60123">
        <ele>829</ele>
        <time>2012-03-03T15:57:11Z</time>
      </trkpt>
      <trkpt lat="44.03525" lon="3.60128">
        <ele>830</ele>
        <time>2012-03-03T15:57:16Z</time>
      </trkpt>
      <trkpt lat="44.03519" lon="3.60133">
        <ele>830</ele>
        <time>2012-03-03T15:57:21Z</time>
      </trkpt>
      <trkpt lat="44.03514" lon="3.60135">
        <ele>830</ele>
        <time>2012-03-03T15:57:26Z</time>
      </trkpt>
      <trkpt lat="44.03508" lon="3.60133">
        <ele>830</ele>
        <time>2012-03-03T15:57:31Z</time>
      </trkpt>
      <trkpt lat="44.03501" lon="3.60133">
        <ele>830</ele>
        <time>2012-03-03T15:57:36Z</time>
      </trkpt>
      <trkpt lat="44.03495" lon="3.60134">
        <ele>826</ele>
        <time>2012-03-03T15:57:41Z</time>
      </trkpt>
      <trkpt lat="44.03488" lon="3.60136">
        <ele>826</ele>
        <time>2012-03-03T15:57:46Z</time>
      </trkpt>
      <trkpt lat="44.03483" lon="3.60134">
        <ele>826</ele>
        <time>2012-03-03T15:57:51Z</time>
      </trkpt>
      <trkpt lat="44.03476" lon="3.6013">
        <ele>825</ele>
        <time>2012-03-03T15:57:56Z</time>
      </trkpt>
      <trkpt lat="44.03468" lon="3.6013">
        <ele>824</ele>
        <time>2012-03-03T15:58:01Z</time>
      </trkpt>
      <trkpt lat="44.03461" lon="3.60127">
        <ele>824</ele>
        <time>2012-03-03T15:58:06Z</time>
      </trkpt>
      <trkpt lat="44.03455" lon="3.60126">
        <ele>824</ele>
        <time>2012-03-03T15:58:11Z</time>
      </trkpt>
      <trkpt lat="44.0345" lon="3.60127">
        <ele>824</ele>
        <time>2012-03-03T15:58:16Z</time>
      </trkpt>
      <trkpt lat="44.03445" lon="3.6013">
        <ele>824</ele>
        <time>2012-03-03T15:58:21Z</time>
      </trkpt>
      <trkpt lat="44.03441" lon="3.60135">
        <ele>824</ele>
        <time>2012-03-03T15:58:26Z</time>
      </trkpt>
      <trkpt lat="44.03438" lon="3.60143">
        <ele>825</ele>
        <time>2012-03-03T15:58:31Z</time>
      </trkpt>
      <trkpt lat="44.03436" lon="3.6015">
        <ele>825</ele>
        <time>2012-03-03T15:58:36Z</time>
      </trkpt>
      <trkpt lat="44.03436" lon="3.60154">
        <ele>825</ele>
        <time>2012-03-03T15:58:41Z</time>
      </trkpt>
      <trkpt lat="44.03434" lon="3.60159">
        <ele>826</ele>
        <time>2012-03-03T15:58:46Z</time>
      </trkpt>
      <trkpt lat="44.03431" lon="3.60164">
        <ele>826</ele>
        <time>2012-03-03T15:58:51Z</time>
      </trkpt>
      <trkpt lat="44.03429" lon="3.60172">
        <ele>832</ele>
        <time>2012-03-03T15:58:56Z</time>
      </trkpt>
      <trkpt lat="44.03428" lon="3.6018">
        <ele>834</ele>
        <time>2012-03-03T15:59:01Z</time>
      </trkpt>
      <trkpt lat="44.03421" lon="3.60188">
        <ele>835</ele>
        <time>2012-03-03T15:59:06Z</time>
      </trkpt>
      <trkpt lat="44.03413" lon="3.60197">
        <ele>828</ele>
        <time>2012-03-03T15:59:11Z</time>
      </trkpt>
      <trkpt lat="44.03404" lon="3.60208">
        <ele>829</ele>
        <time>2012-03-03T15:59:16Z</time>
      </trkpt>
      <trkpt lat="44.03391" lon="3.60216">
        <ele>829</ele>
        <time>2012-03-03T15:59:21Z</time>
      </trkpt>
      <trkpt lat="44.03378" lon="3.60215">
        <ele>828</ele>
        <time>2012-03-03T15:59:26Z</time>
      </trkpt>
      <trkpt lat="44.03365" lon="3.60215">
        <ele>827</ele>
        <time>2012-03-03T15:59:31Z</time>
      </trkpt>
      <trkpt lat="44.03351" lon="3.60216">
        <ele>826</ele>
        <time>2012-03-03T15:59:36Z</time>
      </trkpt>
      <trkpt lat="44.03336" lon="3.60217">
        <ele>826</ele>
        <time>2012-03-03T15:59:41Z</time>
      </trkpt>
      <trkpt lat="44.03325" lon="3.60221">
        <ele>815</ele>
        <time>2012-03-03T15:59:46Z</time>
      </trkpt>
      <trkpt lat="44.03316" lon="3.60227">
        <ele>815</ele>
        <time>2012-03-03T15:59:51Z</time>
      </trkpt>
      <trkpt lat="44.0331" lon="3.60233">
        <ele>814</ele>
        <time>2012-03-03T15:59:56Z</time>
      </trkpt>
      <trkpt lat="44.03305" lon="3.60239">
        <ele>814</ele>
        <time>2012-03-03T16:00:01Z</time>
      </trkpt>
      <trkpt lat="44.03298" lon="3.60247">
        <ele>813</ele>
        <time>2012-03-03T16:00:06Z</time>
      </trkpt>
      <trkpt lat="44.0329" lon="3.6025">
        <ele>812</ele>
        <time>2012-03-03T16:00:11Z</time>
      </trkpt>
      <trkpt lat="44.03283" lon="3.60254">
        <ele>822</ele>
        <time>2012-03-03T16:00:16Z</time>
      </trkpt>
      <trkpt lat="44.03274" lon="3.60261">
        <ele>821</ele>
        <time>2012-03-03T16:00:21Z</time>
      </trkpt>
      <trkpt lat="44.03262" lon="3.60267">
        <ele>819</ele>
        <time>2012-03-03T16:00:26Z</time>
      </trkpt>
      <trkpt lat="44.03248" lon="3.60277">
        <ele>814</ele>
        <time>2012-03-03T16:00:31Z</time>
      </trkpt>
      <trkpt lat="44.03236" lon="3.6028">
        <ele>814</ele>
        <time>2012-03-03T16:00:36Z</time>
      </trkpt>
      <trkpt lat="44.03223" lon="3.60284">
        <ele>814</ele>
        <time>2012-03-03T16:00:41Z</time>
      </trkpt>
      <trkpt lat="44.03211" lon="3.60287">
        <ele>814</ele>
        <time>2012-03-03T16:00:46Z</time>
      </trkpt>
      <trkpt lat="44.03198" lon="3.60292">
        <ele>814</ele>
        <time>2012-03-03T16:00:51Z</time>
      </trkpt>
      <trkpt lat="44.03188" lon="3.60295">
        <ele>814</ele>
        <time>2012-03-03T16:00:56Z</time>
      </trkpt>
      <trkpt lat="44.03175" lon="3.60295">
        <ele>814</ele>
        <time>2012-03-03T16:01:01Z</time>
      </trkpt>
      <trkpt lat="44.03161" lon="3.60292">
        <ele>808</ele>
        <time>2012-03-03T16:01:06Z</time>
      </trkpt>
      <trkpt lat="44.0315" lon="3.6029">
        <ele>807</ele>
        <time>2012-03-03T16:01:11Z</time>
      </trkpt>
      <trkpt lat="44.03139" lon="3.60287">
        <ele>806</ele>
        <time>2012-03-03T16:01:16Z</time>
      </trkpt>
      <trkpt lat="44.03127" lon="3.60288">
        <ele>806</ele>
        <time>2012-03-03T16:01:21Z</time>
      </trkpt>
      <trkpt lat="44.03112" lon="3.60287">
        <ele>806</ele>
        <time>2012-03-03T16:01:26Z</time>
      </trkpt>
      <trkpt lat="44.03099" lon="3.60282">
        <ele>804</ele>
        <time>2012-03-03T16:01:31Z</time>
      </trkpt>
      <trkpt lat="44.03085" lon="3.60281">
        <ele>803</ele>
        <time>2012-03-03T16:01:36Z</time>
      </trkpt>
      <trkpt lat="44.03071" lon="3.60276">
        <ele>800</ele>
        <time>2012-03-03T16:01:41Z</time>
      </trkpt>
      <trkpt lat="44.03062" lon="3.60275">
        <ele>800</ele>
        <time>2012-03-03T16:01:46Z</time>
      </trkpt>
      <trkpt lat="44.03051" lon="3.6027">
        <ele>800</ele>
        <time>2012-03-03T16:01:51Z</time>
      </trkpt>
      <trkpt lat="44.03039" lon="3.60265">
        <ele>800</ele>
        <time>2012-03-03T16:01:56Z</time>
      </trkpt>
      <trkpt lat="44.03027" lon="3.60262">
        <ele>799</ele>
        <time>2012-03-03T16:02:01Z</time>
      </trkpt>
      <trkpt lat="44.03013" lon="3.60265">
        <ele>798</ele>
        <time>2012-03-03T16:02:06Z</time>
      </trkpt>
      <trkpt lat="44.02997" lon="3.60266">
        <ele>796</ele>
        <time>2012-03-03T16:02:11Z</time>
      </trkpt>
      <trkpt lat="44.02984" lon="3.60264">
        <ele>796</ele>
        <time>2012-03-03T16:02:16Z</time>
      </trkpt>
      <trkpt lat="44.02971" lon="3.6026">
        <ele>797</ele>
        <time>2012-03-03T16:02:21Z</time>
      </trkpt>
      <trkpt lat="44.02958" lon="3.60257">
        <ele>797</ele>
        <time>2012-03-03T16:02:26Z</time>
      </trkpt>
      <trkpt lat="44.02946" lon="3.60253">
        <ele>796</ele>
        <time>2012-03-03T16:02:31Z</time>
      </trkpt>
      <trkpt lat="44.02934" lon="3.6025">
        <ele>780</ele>
        <time>2012-03-03T16:02:36Z</time>
      </trkpt>
      <trkpt lat="44.02925" lon="3.60251">
        <ele>790</ele>
        <time>2012-03-03T16:02:41Z</time>
      </trkpt>
      <trkpt lat="44.02912" lon="3.60255">
        <ele>788</ele>
        <time>2012-03-03T16:02:46Z</time>
      </trkpt>
      <trkpt lat="44.02902" lon="3.60261">
        <ele>790</ele>
        <time>2012-03-03T16:02:51Z</time>
      </trkpt>
      <trkpt lat="44.02897" lon="3.60271">
        <ele>791</ele>
        <time>2012-03-03T16:02:56Z</time>
      </trkpt>
      <trkpt lat="44.02891" lon="3.60277">
        <ele>792</ele>
        <time>2012-03-03T16:03:01Z</time>
      </trkpt>
      <trkpt lat="44.02881" lon="3.60287">
        <ele>793</ele>
        <time>2012-03-03T16:03:06Z</time>
      </trkpt>
      <trkpt lat="44.02871" lon="3.60292">
        <ele>793</ele>
        <time>2012-03-03T16:03:11Z</time>
      </trkpt>
      <trkpt lat="44.02863" lon="3.60294">
        <ele>792</ele>
        <time>2012-03-03T16:03:16Z</time>
      </trkpt>
      <trkpt lat="44.02855" lon="3.60296">
        <ele>792</ele>
        <time>2012-03-03T16:03:21Z</time>
      </trkpt>
      <trkpt lat="44.02845" lon="3.60304">
        <ele>793</ele>
        <time>2012-03-03T16:03:26Z</time>
      </trkpt>
      <trkpt lat="44.02837" lon="3.60309">
        <ele>794</ele>
        <time>2012-03-03T16:03:31Z</time>
      </trkpt>
      <trkpt lat="44.02825" lon="3.60311">
        <ele>792</ele>
        <time>2012-03-03T16:03:36Z</time>
      </trkpt>
      <trkpt lat="44.02812" lon="3.60308">
        <ele>791</ele>
        <time>2012-03-03T16:03:41Z</time>
      </trkpt>
      <trkpt lat="44.02802" lon="3.60305">
        <ele>791</ele>
        <time>2012-03-03T16:03:46Z</time>
      </trkpt>
      <trkpt lat="44.02792" lon="3.60301">
        <ele>791</ele>
        <time>2012-03-03T16:03:51Z</time>
      </trkpt>
      <trkpt lat="44.02783" lon="3.60299">
        <ele>791</ele>
        <time>2012-03-03T16:03:56Z</time>
      </trkpt>
      <trkpt lat="44.02777" lon="3.60297">
        <ele>791</ele>
        <time>2012-03-03T16:04:01Z</time>
      </trkpt>
      <trkpt lat="44.02769" lon="3.60298">
        <ele>791</ele>
        <time>2012-03-03T16:04:06Z</time>
      </trkpt>
      <trkpt lat="44.02763" lon="3.60298">
        <ele>791</ele>
        <time>2012-03-03T16:04:11Z</time>
      </trkpt>
      <trkpt lat="44.02756" lon="3.60296">
        <ele>791</ele>
        <time>2012-03-03T16:04:16Z</time>
      </trkpt>
      <trkpt lat="44.02749" lon="3.60294">
        <ele>791</ele>
        <time>2012-03-03T16:04:21Z</time>
      </trkpt>
      <trkpt lat="44.02743" lon="3.60293">
        <ele>791</ele>
        <time>2012-03-03T16:04:26Z</time>
      </trkpt>
      <trkpt lat="44.02736" lon="3.6029">
        <ele>790</ele>
        <time>2012-03-03T16:04:31Z</time>
      </trkpt>
      <trkpt lat="44.02729" lon="3.60287">
        <ele>789</ele>
        <time>2012-03-03T16:04:36Z</time>
      </trkpt>
      <trkpt lat="44.02721" lon="3.60281">
        <ele>789</ele>
        <time>2012-03-03T16:04:41Z</time>
      </trkpt>
      <trkpt lat="44.02711" lon="3.60279">
        <ele>788</ele>
        <time>2012-03-03T16:04:46Z</time>
      </trkpt>
      <trkpt lat="44.02705" lon="3.60275">
        <ele>788</ele>
        <time>2012-03-03T16:04:51Z</time>
      </trkpt>
      <trkpt lat="44.02699" lon="3.6027">
        <ele>788</ele>
        <time>2012-03-03T16:04:56Z</time>
      </trkpt>
      <trkpt lat="44.02691" lon="3.60265">
        <ele>787</ele>
        <time>2012-03-03T16:05:01Z</time>
      </trkpt>
      <trkpt lat="44.02684" lon="3.60263">
        <ele>787</ele>
        <time>2012-03-03T16:05:06Z</time>
      </trkpt>
      <trkpt lat="44.02678" lon="3.60261">
        <ele>786</ele>
        <time>2012-03-03T16:05:11Z</time>
      </trkpt>
      <trkpt lat="44.02672" lon="3.60257">
        <ele>785</ele>
        <time>2012-03-03T16:05:16Z</time>
      </trkpt>
      <trkpt lat="44.02666" lon="3.60253">
        <ele>781</ele>
        <time>2012-03-03T16:05:21Z</time>
      </trkpt>
      <trkpt lat="44.02658" lon="3.60251">
        <ele>778</ele>
        <time>2012-03-03T16:05:26Z</time>
      </trkpt>
      <trkpt lat="44.02651" lon="3.60251">
        <ele>774</ele>
        <time>2012-03-03T16:05:31Z</time>
      </trkpt>
      <trkpt lat="44.02645" lon="3.60254">
        <ele>771</ele>
        <time>2012-03-03T16:05:36Z</time>
      </trkpt>
      <trkpt lat="44.02642" lon="3.60261">
        <ele>769</ele>
        <time>2012-03-03T16:05:41Z</time>
      </trkpt>
      <trkpt lat="44.02641" lon="3.60268">
        <ele>768</ele>
        <time>2012-03-03T16:05:46Z</time>
      </trkpt>
      <trkpt lat="44.0264" lon="3.60275">
        <ele>767</ele>
        <time>2012-03-03T16:05:51Z</time>
      </trkpt>
      <trkpt lat="44.02641" lon="3.60284">
        <ele>767</ele>
        <time>2012-03-03T16:05:56Z</time>
      </trkpt>
      <trkpt lat="44.02646" lon="3.60296">
        <ele>768</ele>
        <time>2012-03-03T16:06:01Z</time>
      </trkpt>
      <trkpt lat="44.0265" lon="3.60311">
        <ele>771</ele>
        <time>2012-03-03T16:06:06Z</time>
      </trkpt>
      <trkpt lat="44.02653" lon="3.60323">
        <ele>776</ele>
        <time>2012-03-03T16:06:11Z</time>
      </trkpt>
      <trkpt lat="44.02656" lon="3.60339">
        <ele>776</ele>
        <time>2012-03-03T16:06:16Z</time>
      </trkpt>
      <trkpt lat="44.02662" lon="3.60354">
        <ele>770</ele>
        <time>2012-03-03T16:06:21Z</time>
      </trkpt>
      <trkpt lat="44.02666" lon="3.60369">
        <ele>764</ele>
        <time>2012-03-03T16:06:26Z</time>
      </trkpt>
      <trkpt lat="44.02672" lon="3.60383">
        <ele>790</ele>
        <time>2012-03-03T16:06:31Z</time>
      </trkpt>
      <trkpt lat="44.0268" lon="3.60398">
        <ele>787</ele>
        <time>2012-03-03T16:06:36Z</time>
      </trkpt>
      <trkpt lat="44.0269" lon="3.60412">
        <ele>788</ele>
        <time>2012-03-03T16:06:41Z</time>
      </trkpt>
      <trkpt lat="44.02695" lon="3.60429">
        <ele>786</ele>
        <time>2012-03-03T16:06:46Z</time>
      </trkpt>
      <trkpt lat="44.02697" lon="3.60447">
        <ele>787</ele>
        <time>2012-03-03T16:06:51Z</time>
      </trkpt>
      <trkpt lat="44.02702" lon="3.60463">
        <ele>788</ele>
        <time>2012-03-03T16:06:56Z</time>
      </trkpt>
      <trkpt lat="44.02708" lon="3.60478">
        <ele>789</ele>
        <time>2012-03-03T16:07:01Z</time>
      </trkpt>
      <trkpt lat="44.02713" lon="3.6049">
        <ele>790</ele>
        <time>2012-03-03T16:07:06Z</time>
      </trkpt>
      <trkpt lat="44.02718" lon="3.60507">
        <ele>786</ele>
        <time>2012-03-03T16:07:11Z</time>
      </trkpt>
      <trkpt lat="44.02721" lon="3.60523">
        <ele>785</ele>
        <time>2012-03-03T16:07:16Z</time>
      </trkpt>
      <trkpt lat="44.02724" lon="3.60539">
        <ele>784</ele>
        <time>2012-03-03T16:07:21Z</time>
      </trkpt>
      <trkpt lat="44.02728" lon="3.60556">
        <ele>784</ele>
        <time>2012-03-03T16:07:26Z</time>
      </trkpt>
      <trkpt lat="44.02732" lon="3.60576">
        <ele>788</ele>
        <time>2012-03-03T16:07:31Z</time>
      </trkpt>
      <trkpt lat="44.02733" lon="3.60596">
        <ele>781</ele>
        <time>2012-03-03T16:07:36Z</time>
      </trkpt>
      <trkpt lat="44.02732" lon="3.60615">
        <ele>776</ele>
        <time>2012-03-03T16:07:41Z</time>
      </trkpt>
      <trkpt lat="44.02735" lon="3.60631">
        <ele>775</ele>
        <time>2012-03-03T16:07:46Z</time>
      </trkpt>
      <trkpt lat="44.02737" lon="3.60647">
        <ele>777</ele>
        <time>2012-03-03T16:07:51Z</time>
      </trkpt>
      <trkpt lat="44.02739" lon="3.6066">
        <ele>781</ele>
        <time>2012-03-03T16:07:56Z</time>
      </trkpt>
      <trkpt lat="44.02738" lon="3.60673">
        <ele>778</ele>
        <time>2012-03-03T16:08:01Z</time>
      </trkpt>
      <trkpt lat="44.02738" lon="3.60686">
        <ele>774</ele>
        <time>2012-03-03T16:08:06Z</time>
      </trkpt>
      <trkpt lat="44.02739" lon="3.60696">
        <ele>772</ele>
        <time>2012-03-03T16:08:11Z</time>
      </trkpt>
      <trkpt lat="44.02743" lon="3.60701">
        <ele>772</ele>
        <time>2012-03-03T16:08:16Z</time>
      </trkpt>
      <trkpt lat="44.02743" lon="3.60706">
        <ele>772</ele>
        <time>2012-03-03T16:08:21Z</time>
      </trkpt>
      <trkpt lat="44.02743" lon="3.60712">
        <ele>771</ele>
        <time>2012-03-03T16:08:26Z</time>
      </trkpt>
      <trkpt lat="44.02745" lon="3.60718">
        <ele>772</ele>
        <time>2012-03-03T16:08:31Z</time>
      </trkpt>
      <trkpt lat="44.02749" lon="3.60728">
        <ele>773</ele>
        <time>2012-03-03T16:08:36Z</time>
      </trkpt>
      <trkpt lat="44.02751" lon="3.60737">
        <ele>792</ele>
        <time>2012-03-03T16:08:41Z</time>
      </trkpt>
      <trkpt lat="44.02752" lon="3.60748">
        <ele>786</ele>
        <time>2012-03-03T16:08:46Z</time>
      </trkpt>
      <trkpt lat="44.02754" lon="3.60756">
        <ele>787</ele>
        <time>2012-03-03T16:08:51Z</time>
      </trkpt>
      <trkpt lat="44.02756" lon="3.60766">
        <ele>790</ele>
        <time>2012-03-03T16:08:56Z</time>
      </trkpt>
      <trkpt lat="44.02758" lon="3.60773">
        <ele>791</ele>
        <time>2012-03-03T16:09:01Z</time>
      </trkpt>
      <trkpt lat="44.02763" lon="3.60781">
        <ele>792</ele>
        <time>2012-03-03T16:09:06Z</time>
      </trkpt>
      <trkpt lat="44.02768" lon="3.6079">
        <ele>793</ele>
        <time>2012-03-03T16:09:11Z</time>
      </trkpt>
      <trkpt lat="44.02768" lon="3.60798">
        <ele>793</ele>
        <time>2012-03-03T16:09:16Z</time>
      </trkpt>
      <trkpt lat="44.02769" lon="3.608">
        <ele>793</ele>
        <time>2012-03-03T16:09:21Z</time>
      </trkpt>
      <trkpt lat="44.0277" lon="3.60809">
        <ele>792</ele>
        <time>2012-03-03T16:09:26Z</time>
      </trkpt>
      <trkpt lat="44.02773" lon="3.60818">
        <ele>792</ele>
        <time>2012-03-03T16:09:31Z</time>
      </trkpt>
      <trkpt lat="44.02778" lon="3.60832">
        <ele>792</ele>
        <time>2012-03-03T16:09:36Z</time>
      </trkpt>
      <trkpt lat="44.02782" lon="3.60839">
        <ele>790</ele>
        <time>2012-03-03T16:09:41Z</time>
      </trkpt>
      <trkpt lat="44.02786" lon="3.60849">
        <ele>791</ele>
        <time>2012-03-03T16:09:46Z</time>
      </trkpt>
      <trkpt lat="44.02788" lon="3.60861">
        <ele>792</ele>
        <time>2012-03-03T16:09:51Z</time>
      </trkpt>
      <trkpt lat="44.0279" lon="3.60869">
        <ele>792</ele>
        <time>2012-03-03T16:09:56Z</time>
      </trkpt>
      <trkpt lat="44.02796" lon="3.60878">
        <ele>792</ele>
        <time>2012-03-03T16:10:01Z</time>
      </trkpt>
      <trkpt lat="44.02798" lon="3.60887">
        <ele>792</ele>
        <time>2012-03-03T16:10:06Z</time>
      </trkpt>
      <trkpt lat="44.02793" lon="3.60904">
        <ele>791</ele>
        <time>2012-03-03T16:10:11Z</time>
      </trkpt>
      <trkpt lat="44.02786" lon="3.60911">
        <ele>791</ele>
        <time>2012-03-03T16:10:16Z</time>
      </trkpt>
      <trkpt lat="44.02772" lon="3.60917">
        <ele>790</ele>
        <time>2012-03-03T16:10:21Z</time>
      </trkpt>
      <trkpt lat="44.02756" lon="3.60915">
        <ele>789</ele>
        <time>2012-03-03T16:10:26Z</time>
      </trkpt>
      <trkpt lat="44.02743" lon="3.60911">
        <ele>786</ele>
        <time>2012-03-03T16:10:31Z</time>
      </trkpt>
      <trkpt lat="44.02732" lon="3.60911">
        <ele>783</ele>
        <time>2012-03-03T16:10:36Z</time>
      </trkpt>
      <trkpt lat="44.02721" lon="3.60912">
        <ele>781</ele>
        <time>2012-03-03T16:10:41Z</time>
      </trkpt>
      <trkpt lat="44.02709" lon="3.60912">
        <ele>780</ele>
        <time>2012-03-03T16:10:46Z</time>
      </trkpt>
      <trkpt lat="44.02699" lon="3.60913">
        <ele>779</ele>
        <time>2012-03-03T16:10:51Z</time>
      </trkpt>
      <trkpt lat="44.02682" lon="3.60911">
        <ele>778</ele>
        <time>2012-03-03T16:10:56Z</time>
      </trkpt>
      <trkpt lat="44.02671" lon="3.60911">
        <ele>778</ele>
        <time>2012-03-03T16:11:01Z</time>
      </trkpt>
      <trkpt lat="44.02659" lon="3.60914">
        <ele>775</ele>
        <time>2012-03-03T16:11:06Z</time>
      </trkpt>
      <trkpt lat="44.02645" lon="3.60921">
        <ele>783</ele>
        <time>2012-03-03T16:11:11Z</time>
      </trkpt>
      <trkpt lat="44.02635" lon="3.60924">
        <ele>784</ele>
        <time>2012-03-03T16:11:16Z</time>
      </trkpt>
      <trkpt lat="44.02622" lon="3.60921">
        <ele>783</ele>
        <time>2012-03-03T16:11:21Z</time>
      </trkpt>
      <trkpt lat="44.02612" lon="3.60921">
        <ele>782</ele>
        <time>2012-03-03T16:11:26Z</time>
      </trkpt>
      <trkpt lat="44.02599" lon="3.60923">
        <ele>779</ele>
        <time>2012-03-03T16:11:31Z</time>
      </trkpt>
      <trkpt lat="44.0259" lon="3.60926">
        <ele>777</ele>
        <time>2012-03-03T16:11:36Z</time>
      </trkpt>
      <trkpt lat="44.02578" lon="3.60932">
        <ele>775</ele>
        <time>2012-03-03T16:11:41Z</time>
      </trkpt>
      <trkpt lat="44.02565" lon="3.60935">
        <ele>776</ele>
        <time>2012-03-03T16:11:46Z</time>
      </trkpt>
      <trkpt lat="44.02553" lon="3.60941">
        <ele>777</ele>
        <time>2012-03-03T16:11:51Z</time>
      </trkpt>
      <trkpt lat="44.0254" lon="3.60945">
        <ele>777</ele>
        <time>2012-03-03T16:11:56Z</time>
      </trkpt>
      <trkpt lat="44.02533" lon="3.60951">
        <ele>777</ele>
        <time>2012-03-03T16:12:01Z</time>
      </trkpt>
      <trkpt lat="44.02522" lon="3.60957">
        <ele>777</ele>
        <time>2012-03-03T16:12:06Z</time>
      </trkpt>
      <trkpt lat="44.02508" lon="3.60962">
        <ele>778</ele>
        <time>2012-03-03T16:12:11Z</time>
      </trkpt>
      <trkpt lat="44.02496" lon="3.60966">
        <ele>773</ele>
        <time>2012-03-03T16:12:16Z</time>
      </trkpt>
      <trkpt lat="44.02487" lon="3.60968">
        <ele>773</ele>
        <time>2012-03-03T16:12:21Z</time>
      </trkpt>
      <trkpt lat="44.02473" lon="3.60969">
        <ele>773</ele>
        <time>2012-03-03T16:12:26Z</time>
      </trkpt>
      <trkpt lat="44.02462" lon="3.60968">
        <ele>772</ele>
        <time>2012-03-03T16:12:31Z</time>
      </trkpt>
      <trkpt lat="44.02452" lon="3.60965">
        <ele>771</ele>
        <time>2012-03-03T16:12:36Z</time>
      </trkpt>
      <trkpt lat="44.02444" lon="3.60961">
        <ele>771</ele>
        <time>2012-03-03T16:12:41Z</time>
      </trkpt>
      <trkpt lat="44.02434" lon="3.60959">
        <ele>770</ele>
        <time>2012-03-03T16:12:46Z</time>
      </trkpt>
      <trkpt lat="44.02421" lon="3.60957">
        <ele>769</ele>
        <time>2012-03-03T16:12:51Z</time>
      </trkpt>
      <trkpt lat="44.02412" lon="3.60953">
        <ele>764</ele>
        <time>2012-03-03T16:12:56Z</time>
      </trkpt>
      <trkpt lat="44.02399" lon="3.60956">
        <ele>764</ele>
        <time>2012-03-03T16:13:01Z</time>
      </trkpt>
      <trkpt lat="44.02386" lon="3.6096">
        <ele>765</ele>
        <time>2012-03-03T16:13:06Z</time>
      </trkpt>
      <trkpt lat="44.02374" lon="3.60961">
        <ele>764</ele>
        <time>2012-03-03T16:13:11Z</time>
      </trkpt>
      <trkpt lat="44.0236" lon="3.60961">
        <ele>764</ele>
        <time>2012-03-03T16:13:16Z</time>
      </trkpt>
      <trkpt lat="44.02352" lon="3.60967">
        <ele>765</ele>
        <time>2012-03-03T16:13:21Z</time>
      </trkpt>
      <trkpt lat="44.02347" lon="3.60978">
        <ele>767</ele>
        <time>2012-03-03T16:13:26Z</time>
      </trkpt>
      <trkpt lat="44.0234" lon="3.60981">
        <ele>768</ele>
        <time>2012-03-03T16:13:31Z</time>
      </trkpt>
      <trkpt lat="44.02328" lon="3.60977">
        <ele>762</ele>
        <time>2012-03-03T16:13:36Z</time>
      </trkpt>
      <trkpt lat="44.02321" lon="3.60972">
        <ele>760</ele>
        <time>2012-03-03T16:13:41Z</time>
      </trkpt>
      <trkpt lat="44.02311" lon="3.60968">
        <ele>758</ele>
        <time>2012-03-03T16:13:46Z</time>
      </trkpt>
      <trkpt lat="44.02303" lon="3.60964">
        <ele>757</ele>
        <time>2012-03-03T16:13:51Z</time>
      </trkpt>
      <trkpt lat="44.02294" lon="3.60963">
        <ele>756</ele>
        <time>2012-03-03T16:13:56Z</time>
      </trkpt>
      <trkpt lat="44.02285" lon="3.60967">
        <ele>757</ele>
        <time>2012-03-03T16:14:01Z</time>
      </trkpt>
      <trkpt lat="44.02276" lon="3.6097">
        <ele>757</ele>
        <time>2012-03-03T16:14:06Z</time>
      </trkpt>
      <trkpt lat="44.02266" lon="3.60974">
        <ele>758</ele>
        <time>2012-03-03T16:14:11Z</time>
      </trkpt>
      <trkpt lat="44.02254" lon="3.60977">
        <ele>759</ele>
        <time>2012-03-03T16:14:16Z</time>
      </trkpt>
      <trkpt lat="44.0224" lon="3.60976">
        <ele>754</ele>
        <time>2012-03-03T16:14:21Z</time>
      </trkpt>
      <trkpt lat="44.02233" lon="3.60978">
        <ele>754</ele>
        <time>2012-03-03T16:14:26Z</time>
      </trkpt>
      <trkpt lat="44.02222" lon="3.60981">
        <ele>753</ele>
        <time>2012-03-03T16:14:31Z</time>
      </trkpt>
      <trkpt lat="44.02204" lon="3.60982">
        <ele>752</ele>
        <time>2012-03-03T16:14:36Z</time>
      </trkpt>
      <trkpt lat="44.02192" lon="3.60987">
        <ele>752</ele>
        <time>2012-03-03T16:14:41Z</time>
      </trkpt>
      <trkpt lat="44.02181" lon="3.60988">
        <ele>753</ele>
        <time>2012-03-03T16:14:46Z</time>
      </trkpt>
      <trkpt lat="44.02171" lon="3.60989">
        <ele>754</ele>
        <time>2012-03-03T16:14:51Z</time>
      </trkpt>
      <trkpt lat="44.02158" lon="3.60987">
        <ele>755</ele>
        <time>2012-03-03T16:14:56Z</time>
      </trkpt>
      <trkpt lat="44.0215" lon="3.60989">
        <ele>755</ele>
        <time>2012-03-03T16:15:01Z</time>
      </trkpt>
      <trkpt lat="44.0214" lon="3.60989">
        <ele>755</ele>
        <time>2012-03-03T16:15:06Z</time>
      </trkpt>
      <trkpt lat="44.02132" lon="3.60982">
        <ele>755</ele>
        <time>2012-03-03T16:15:11Z</time>
      </trkpt>
      <trkpt lat="44.02131" lon="3.60967">
        <ele>754</ele>
        <time>2012-03-03T16:15:16Z</time>
      </trkpt>
      <trkpt lat="44.02131" lon="3.6095">
        <ele>752</ele>
        <time>2012-03-03T16:15:21Z</time>
      </trkpt>
      <trkpt lat="44.0213" lon="3.60933">
        <ele>750</ele>
        <time>2012-03-03T16:15:26Z</time>
      </trkpt>
      <trkpt lat="44.02125" lon="3.60915">
        <ele>738</ele>
        <time>2012-03-03T16:15:31Z</time>
      </trkpt>
      <trkpt lat="44.02118" lon="3.60902">
        <ele>739</ele>
        <time>2012-03-03T16:15:36Z</time>
      </trkpt>
      <trkpt lat="44.02111" lon="3.6089">
        <ele>738</ele>
        <time>2012-03-03T16:15:41Z</time>
      </trkpt>
      <trkpt lat="44.021" lon="3.60885">
        <ele>739</ele>
        <time>2012-03-03T16:15:46Z</time>
      </trkpt>
      <trkpt lat="44.02091" lon="3.60882">
        <ele>739</ele>
        <time>2012-03-03T16:15:51Z</time>
      </trkpt>
      <trkpt lat="44.02081" lon="3.60879">
        <ele>744</ele>
        <time>2012-03-03T16:15:56Z</time>
      </trkpt>
      <trkpt lat="44.0207" lon="3.60878">
        <ele>744</ele>
        <time>2012-03-03T16:16:01Z</time>
      </trkpt>
      <trkpt lat="44.0206" lon="3.60882">
        <ele>744</ele>
        <time>2012-03-03T16:16:06Z</time>
      </trkpt>
      <trkpt lat="44.02049" lon="3.60885">
        <ele>744</ele>
        <time>2012-03-03T16:16:11Z</time>
      </trkpt>
      <trkpt lat="44.02036" lon="3.60891">
        <ele>745</ele>
        <time>2012-03-03T16:16:16Z</time>
      </trkpt>
      <trkpt lat="44.02018" lon="3.60893">
        <ele>745</ele>
        <time>2012-03-03T16:16:21Z</time>
      </trkpt>
      <trkpt lat="44.02006" lon="3.60897">
        <ele>747</ele>
        <time>2012-03-03T16:16:26Z</time>
      </trkpt>
      <trkpt lat="44.01993" lon="3.60901">
        <ele>744</ele>
        <time>2012-03-03T16:16:31Z</time>
      </trkpt>
      <trkpt lat="44.01979" lon="3.60903">
        <ele>741</ele>
        <time>2012-03-03T16:16:36Z</time>
      </trkpt>
      <trkpt lat="44.01967" lon="3.60902">
        <ele>739</ele>
        <time>2012-03-03T16:16:41Z</time>
      </trkpt>
      <trkpt lat="44.01958" lon="3.60903">
        <ele>738</ele>
        <time>2012-03-03T16:16:46Z</time>
      </trkpt>
      <trkpt lat="44.01949" lon="3.60907">
        <ele>738</ele>
        <time>2012-03-03T16:16:51Z</time>
      </trkpt>
      <trkpt lat="44.01938" lon="3.60913">
        <ele>737</ele>
        <time>2012-03-03T16:16:56Z</time>
      </trkpt>
      <trkpt lat="44.01927" lon="3.60917">
        <ele>744</ele>
        <time>2012-03-03T16:17:01Z</time>
      </trkpt>
      <trkpt lat="44.01917" lon="3.60924">
        <ele>742</ele>
        <time>2012-03-03T16:17:06Z</time>
      </trkpt>
      <trkpt lat="44.01907" lon="3.6093">
        <ele>740</ele>
        <time>2012-03-03T16:17:11Z</time>
      </trkpt>
      <trkpt lat="44.01896" lon="3.6094">
        <ele>740</ele>
        <time>2012-03-03T16:17:16Z</time>
      </trkpt>
      <trkpt lat="44.01892" lon="3.60951">
        <ele>740</ele>
        <time>2012-03-03T16:17:21Z</time>
      </trkpt>
      <trkpt lat="44.01887" lon="3.60963">
        <ele>741</ele>
        <time>2012-03-03T16:17:26Z</time>
      </trkpt>
      <trkpt lat="44.01877" lon="3.60971">
        <ele>740</ele>
        <time>2012-03-03T16:17:31Z</time>
      </trkpt>
      <trkpt lat="44.01864" lon="3.60974">
        <ele>740</ele>
        <time>2012-03-03T16:17:36Z</time>
      </trkpt>
      <trkpt lat="44.01854" lon="3.60978">
        <ele>739</ele>
        <time>2012-03-03T16:17:41Z</time>
      </trkpt>
      <trkpt lat="44.01842" lon="3.60977">
        <ele>739</ele>
        <time>2012-03-03T16:17:46Z</time>
      </trkpt>
      <trkpt lat="44.0183" lon="3.60967">
        <ele>737</ele>
        <time>2012-03-03T16:17:51Z</time>
      </trkpt>
      <trkpt lat="44.01815" lon="3.6096">
        <ele>737</ele>
        <time>2012-03-03T16:17:56Z</time>
      </trkpt>
      <trkpt lat="44.01807" lon="3.60955">
        <ele>737</ele>
        <time>2012-03-03T16:18:01Z</time>
      </trkpt>
      <trkpt lat="44.018" lon="3.60947">
        <ele>737</ele>
        <time>2012-03-03T16:18:06Z</time>
      </trkpt>
      <trkpt lat="44.01795" lon="3.60939">
        <ele>737</ele>
        <time>2012-03-03T16:18:11Z</time>
      </trkpt>
      <trkpt lat="44.01789" lon="3.60931">
        <ele>737</ele>
        <time>2012-03-03T16:18:16Z</time>
      </trkpt>
      <trkpt lat="44.01783" lon="3.60922">
        <ele>737</ele>
        <time>2012-03-03T16:18:21Z</time>
      </trkpt>
      <trkpt lat="44.01775" lon="3.60911">
        <ele>734</ele>
        <time>2012-03-03T16:18:26Z</time>
      </trkpt>
      <trkpt lat="44.01768" lon="3.60903">
        <ele>734</ele>
        <time>2012-03-03T16:18:31Z</time>
      </trkpt>
      <trkpt lat="44.01761" lon="3.60893">
        <ele>734</ele>
        <time>2012-03-03T16:18:36Z</time>
      </trkpt>
      <trkpt lat="44.01753" lon="3.60883">
        <ele>734</ele>
        <time>2012-03-03T16:18:41Z</time>
      </trkpt>
      <trkpt lat="44.01746" lon="3.60871">
        <ele>738</ele>
        <time>2012-03-03T16:18:46Z</time>
      </trkpt>
      <trkpt lat="44.01739" lon="3.60856">
        <ele>738</ele>
        <time>2012-03-03T16:18:51Z</time>
      </trkpt>
      <trkpt lat="44.01729" lon="3.60846">
        <ele>738</ele>
        <time>2012-03-03T16:18:56Z</time>
      </trkpt>
      <trkpt lat="44.01716" lon="3.60837">
        <ele>738</ele>
        <time>2012-03-03T16:19:01Z</time>
      </trkpt>
      <trkpt lat="44.01708" lon="3.60824">
        <ele>735</ele>
        <time>2012-03-03T16:19:06Z</time>
      </trkpt>
      <trkpt lat="44.01699" lon="3.60815">
        <ele>735</ele>
        <time>2012-03-03T16:19:11Z</time>
      </trkpt>
      <trkpt lat="44.01691" lon="3.60801">
        <ele>735</ele>
        <time>2012-03-03T16:19:16Z</time>
      </trkpt>
      <trkpt lat="44.01684" lon="3.60791">
        <ele>734</ele>
        <time>2012-03-03T16:19:21Z</time>
      </trkpt>
      <trkpt lat="44.01676" lon="3.60779">
        <ele>734</ele>
        <time>2012-03-03T16:19:26Z</time>
      </trkpt>
      <trkpt lat="44.01666" lon="3.6077">
        <ele>733</ele>
        <time>2012-03-03T16:19:31Z</time>
      </trkpt>
      <trkpt lat="44.01658" lon="3.60762">
        <ele>733</ele>
        <time>2012-03-03T16:19:36Z</time>
      </trkpt>
      <trkpt lat="44.0165" lon="3.60751">
        <ele>732</ele>
        <time>2012-03-03T16:19:41Z</time>
      </trkpt>
      <trkpt lat="44.01639" lon="3.6074">
        <ele>731</ele>
        <time>2012-03-03T16:19:46Z</time>
      </trkpt>
      <trkpt lat="44.01627" lon="3.60724">
        <ele>730</ele>
        <time>2012-03-03T16:19:51Z</time>
      </trkpt>
      <trkpt lat="44.01617" lon="3.60711">
        <ele>730</ele>
        <time>2012-03-03T16:19:56Z</time>
      </trkpt>
      <trkpt lat="44.01606" lon="3.60707">
        <ele>730</ele>
        <time>2012-03-03T16:20:01Z</time>
      </trkpt>
      <trkpt lat="44.01594" lon="3.60703">
        <ele>729</ele>
        <time>2012-03-03T16:20:06Z</time>
      </trkpt>
      <trkpt lat="44.01582" lon="3.60702">
        <ele>724</ele>
        <time>2012-03-03T16:20:11Z</time>
      </trkpt>
      <trkpt lat="44.01573" lon="3.60699">
        <ele>724</ele>
        <time>2012-03-03T16:20:16Z</time>
      </trkpt>
      <trkpt lat="44.01561" lon="3.60697">
        <ele>724</ele>
        <time>2012-03-03T16:20:21Z</time>
      </trkpt>
      <trkpt lat="44.01548" lon="3.60696">
        <ele>723</ele>
        <time>2012-03-03T16:20:26Z</time>
      </trkpt>
      <trkpt lat="44.01535" lon="3.60695">
        <ele>722</ele>
        <time>2012-03-03T16:20:31Z</time>
      </trkpt>
      <trkpt lat="44.01523" lon="3.60692">
        <ele>722</ele>
        <time>2012-03-03T16:20:36Z</time>
      </trkpt>
      <trkpt lat="44.01508" lon="3.60687">
        <ele>722</ele>
        <time>2012-03-03T16:20:41Z</time>
      </trkpt>
      <trkpt lat="44.01497" lon="3.60687">
        <ele>716</ele>
        <time>2012-03-03T16:20:46Z</time>
      </trkpt>
      <trkpt lat="44.01484" lon="3.60691">
        <ele>714</ele>
        <time>2012-03-03T16:20:51Z</time>
      </trkpt>
      <trkpt lat="44.01473" lon="3.60691">
        <ele>713</ele>
        <time>2012-03-03T16:20:56Z</time>
      </trkpt>
      <trkpt lat="44.01459" lon="3.60695">
        <ele>712</ele>
        <time>2012-03-03T16:21:01Z</time>
      </trkpt>
      <trkpt lat="44.01449" lon="3.60695">
        <ele>711</ele>
        <time>2012-03-03T16:21:06Z</time>
      </trkpt>
      <trkpt lat="44.01436" lon="3.60695">
        <ele>710</ele>
        <time>2012-03-03T16:21:11Z</time>
      </trkpt>
      <trkpt lat="44.01423" lon="3.60695">
        <ele>710</ele>
        <time>2012-03-03T16:21:16Z</time>
      </trkpt>
      <trkpt lat="44.01409" lon="3.60689">
        <ele>699</ele>
        <time>2012-03-03T16:21:21Z</time>
      </trkpt>
      <trkpt lat="44.01398" lon="3.6068">
        <ele>699</ele>
        <time>2012-03-03T16:21:26Z</time>
      </trkpt>
      <trkpt lat="44.01388" lon="3.60668">
        <ele>697</ele>
        <time>2012-03-03T16:21:31Z</time>
      </trkpt>
      <trkpt lat="44.01377" lon="3.60653">
        <ele>704</ele>
        <time>2012-03-03T16:21:36Z</time>
      </trkpt>
      <trkpt lat="44.0137" lon="3.60642">
        <ele>703</ele>
        <time>2012-03-03T16:21:41Z</time>
      </trkpt>
      <trkpt lat="44.01359" lon="3.60627">
        <ele>702</ele>
        <time>2012-03-03T16:21:46Z</time>
      </trkpt>
      <trkpt lat="44.01351" lon="3.60611">
        <ele>702</ele>
        <time>2012-03-03T16:21:51Z</time>
      </trkpt>
      <trkpt lat="44.01345" lon="3.60594">
        <ele>701</ele>
        <time>2012-03-03T16:21:56Z</time>
      </trkpt>
      <trkpt lat="44.01342" lon="3.60578">
        <ele>702</ele>
        <time>2012-03-03T16:22:01Z</time>
      </trkpt>
      <trkpt lat="44.01339" lon="3.60559">
        <ele>705</ele>
        <time>2012-03-03T16:22:06Z</time>
      </trkpt>
      <trkpt lat="44.01336" lon="3.6054">
        <ele>706</ele>
        <time>2012-03-03T16:22:11Z</time>
      </trkpt>
      <trkpt lat="44.01336" lon="3.60523">
        <ele>705</ele>
        <time>2012-03-03T16:22:16Z</time>
      </trkpt>
      <trkpt lat="44.01336" lon="3.60504">
        <ele>701</ele>
        <time>2012-03-03T16:22:21Z</time>
      </trkpt>
      <trkpt lat="44.01337" lon="3.60487">
        <ele>701</ele>
        <time>2012-03-03T16:22:26Z</time>
      </trkpt>
      <trkpt lat="44.01337" lon="3.60465">
        <ele>701</ele>
        <time>2012-03-03T16:22:31Z</time>
      </trkpt>
      <trkpt lat="44.0134" lon="3.60447">
        <ele>700</ele>
        <time>2012-03-03T16:22:36Z</time>
      </trkpt>
      <trkpt lat="44.0134" lon="3.60429">
        <ele>697</ele>
        <time>2012-03-03T16:22:41Z</time>
      </trkpt>
      <trkpt lat="44.01341" lon="3.60412">
        <ele>692</ele>
        <time>2012-03-03T16:22:46Z</time>
      </trkpt>
      <trkpt lat="44.01337" lon="3.60397">
        <ele>692</ele>
        <time>2012-03-03T16:22:51Z</time>
      </trkpt>
      <trkpt lat="44.01331" lon="3.60384">
        <ele>686</ele>
        <time>2012-03-03T16:22:56Z</time>
      </trkpt>
      <trkpt lat="44.01323" lon="3.60371">
        <ele>685</ele>
        <time>2012-03-03T16:23:01Z</time>
      </trkpt>
      <trkpt lat="44.01314" lon="3.60362">
        <ele>685</ele>
        <time>2012-03-03T16:23:06Z</time>
      </trkpt>
      <trkpt lat="44.01307" lon="3.60359">
        <ele>685</ele>
        <time>2012-03-03T16:23:11Z</time>
      </trkpt>
      <trkpt lat="44.01297" lon="3.60359">
        <ele>684</ele>
        <time>2012-03-03T16:23:16Z</time>
      </trkpt>
      <trkpt lat="44.01279" lon="3.60351">
        <ele>683</ele>
        <time>2012-03-03T16:23:21Z</time>
      </trkpt>
      <trkpt lat="44.0127" lon="3.6034">
        <ele>683</ele>
        <time>2012-03-03T16:23:26Z</time>
      </trkpt>
      <trkpt lat="44.01265" lon="3.60323">
        <ele>681</ele>
        <time>2012-03-03T16:23:31Z</time>
      </trkpt>
      <trkpt lat="44.01257" lon="3.60309">
        <ele>681</ele>
        <time>2012-03-03T16:23:36Z</time>
      </trkpt>
      <trkpt lat="44.01257" lon="3.60299">
        <ele>681</ele>
        <time>2012-03-03T16:23:41Z</time>
      </trkpt>
      <trkpt lat="44.01256" lon="3.6029">
        <ele>680</ele>
        <time>2012-03-03T16:23:46Z</time>
      </trkpt>
      <trkpt lat="44.01253" lon="3.6028">
        <ele>680</ele>
        <time>2012-03-03T16:23:51Z</time>
      </trkpt>
      <trkpt lat="44.01249" lon="3.60276">
        <ele>675</ele>
        <time>2012-03-03T16:23:56Z</time>
      </trkpt>
      <trkpt lat="44.01244" lon="3.60269">
        <ele>675</ele>
        <time>2012-03-03T16:24:01Z</time>
      </trkpt>
      <trkpt lat="44.01238" lon="3.60257">
        <ele>675</ele>
        <time>2012-03-03T16:24:06Z</time>
      </trkpt>
      <trkpt lat="44.0123" lon="3.6025">
        <ele>672</ele>
        <time>2012-03-03T16:24:11Z</time>
      </trkpt>
      <trkpt lat="44.01217" lon="3.60243">
        <ele>670</ele>
        <time>2012-03-03T16:24:16Z</time>
      </trkpt>
      <trkpt lat="44.01206" lon="3.60232">
        <ele>668</ele>
        <time>2012-03-03T16:24:21Z</time>
      </trkpt>
      <trkpt lat="44.01197" lon="3.60224">
        <ele>667</ele>
        <time>2012-03-03T16:24:26Z</time>
      </trkpt>
      <trkpt lat="44.01187" lon="3.60217">
        <ele>666</ele>
        <time>2012-03-03T16:24:31Z</time>
      </trkpt>
      <trkpt lat="44.0118" lon="3.60208">
        <ele>666</ele>
        <time>2012-03-03T16:24:36Z</time>
      </trkpt>
      <trkpt lat="44.01174" lon="3.60202">
        <ele>665</ele>
        <time>2012-03-03T16:24:41Z</time>
      </trkpt>
      <trkpt lat="44.01167" lon="3.60196">
        <ele>665</ele>
        <time>2012-03-03T16:24:46Z</time>
      </trkpt>
      <trkpt lat="44.01161" lon="3.60192">
        <ele>657</ele>
        <time>2012-03-03T16:24:51Z</time>
      </trkpt>
      <trkpt lat="44.01153" lon="3.60186">
        <ele>657</ele>
        <time>2012-03-03T16:24:56Z</time>
      </trkpt>
      <trkpt lat="44.01148" lon="3.60182">
        <ele>656</ele>
        <time>2012-03-03T16:25:01Z</time>
      </trkpt>
      <trkpt lat="44.01142" lon="3.60177">
        <ele>656</ele>
        <time>2012-03-03T16:25:06Z</time>
      </trkpt>
      <trkpt lat="44.01136" lon="3.60177">
        <ele>655</ele>
        <time>2012-03-03T16:25:11Z</time>
      </trkpt>
      <trkpt lat="44.01128" lon="3.60175">
        <ele>654</ele>
        <time>2012-03-03T16:25:16Z</time>
      </trkpt>
      <trkpt lat="44.01122" lon="3.60169">
        <ele>653</ele>
        <time>2012-03-03T16:25:21Z</time>
      </trkpt>
      <trkpt lat="44.01121" lon="3.60169">
        <ele>653</ele>
        <time>2012-03-03T16:25:26Z</time>
      </trkpt>
      <trkpt lat="44.01116" lon="3.60163">
        <ele>648</ele>
        <time>2012-03-03T16:25:31Z</time>
      </trkpt>
      <trkpt lat="44.0111" lon="3.60156">
        <ele>647</ele>
        <time>2012-03-03T16:25:36Z</time>
      </trkpt>
      <trkpt lat="44.01106" lon="3.60148">
        <ele>647</ele>
        <time>2012-03-03T16:25:41Z</time>
      </trkpt>
      <trkpt lat="44.01098" lon="3.60146">
        <ele>646</ele>
        <time>2012-03-03T16:25:46Z</time>
      </trkpt>
      <trkpt lat="44.01089" lon="3.60152">
        <ele>646</ele>
        <time>2012-03-03T16:25:51Z</time>
      </trkpt>
      <trkpt lat="44.01078" lon="3.6015">
        <ele>642</ele>
        <time>2012-03-03T16:25:56Z</time>
      </trkpt>
      <trkpt lat="44.01067" lon="3.60151">
        <ele>641</ele>
        <time>2012-03-03T16:26:01Z</time>
      </trkpt>
      <trkpt lat="44.01056" lon="3.60156">
        <ele>641</ele>
        <time>2012-03-03T16:26:06Z</time>
      </trkpt>
      <trkpt lat="44.01046" lon="3.60166">
        <ele>640</ele>
        <time>2012-03-03T16:26:11Z</time>
      </trkpt>
      <trkpt lat="44.01037" lon="3.60174">
        <ele>641</ele>
        <time>2012-03-03T16:26:16Z</time>
      </trkpt>
      <trkpt lat="44.01029" lon="3.60183">
        <ele>640</ele>
        <time>2012-03-03T16:26:21Z</time>
      </trkpt>
      <trkpt lat="44.01024" lon="3.60192">
        <ele>640</ele>
        <time>2012-03-03T16:26:26Z</time>
      </trkpt>
      <trkpt lat="44.01022" lon="3.60204">
        <ele>640</ele>
        <time>2012-03-03T16:26:31Z</time>
      </trkpt>
      <trkpt lat="44.0102" lon="3.60218">
        <ele>640</ele>
        <time>2012-03-03T16:26:36Z</time>
      </trkpt>
      <trkpt lat="44.01017" lon="3.60229">
        <ele>639</ele>
        <time>2012-03-03T16:26:41Z</time>
      </trkpt>
      <trkpt lat="44.01016" lon="3.6024">
        <ele>639</ele>
        <time>2012-03-03T16:26:46Z</time>
      </trkpt>
      <trkpt lat="44.01016" lon="3.60251">
        <ele>634</ele>
        <time>2012-03-03T16:26:51Z</time>
      </trkpt>
      <trkpt lat="44.01015" lon="3.60263">
        <ele>633</ele>
        <time>2012-03-03T16:26:56Z</time>
      </trkpt>
      <trkpt lat="44.01011" lon="3.60273">
        <ele>632</ele>
        <time>2012-03-03T16:27:01Z</time>
      </trkpt>
      <trkpt lat="44.01004" lon="3.6028">
        <ele>631</ele>
        <time>2012-03-03T16:27:06Z</time>
      </trkpt>
      <trkpt lat="44.00992" lon="3.60285">
        <ele>634</ele>
        <time>2012-03-03T16:27:11Z</time>
      </trkpt>
      <trkpt lat="44.00982" lon="3.60287">
        <ele>635</ele>
        <time>2012-03-03T16:27:16Z</time>
      </trkpt>
      <trkpt lat="44.00972" lon="3.6029">
        <ele>635</ele>
        <time>2012-03-03T16:27:21Z</time>
      </trkpt>
      <trkpt lat="44.00962" lon="3.60292">
        <ele>635</ele>
        <time>2012-03-03T16:27:26Z</time>
      </trkpt>
      <trkpt lat="44.00953" lon="3.60294">
        <ele>636</ele>
        <time>2012-03-03T16:27:31Z</time>
      </trkpt>
      <trkpt lat="44.00944" lon="3.60295">
        <ele>637</ele>
        <time>2012-03-03T16:27:36Z</time>
      </trkpt>
      <trkpt lat="44.00935" lon="3.60301">
        <ele>637</ele>
        <time>2012-03-03T16:27:41Z</time>
      </trkpt>
      <trkpt lat="44.00926" lon="3.60309">
        <ele>638</ele>
        <time>2012-03-03T16:27:46Z</time>
      </trkpt>
      <trkpt lat="44.00916" lon="3.60319">
        <ele>641</ele>
        <time>2012-03-03T16:27:51Z</time>
      </trkpt>
      <trkpt lat="44.00909" lon="3.60327">
        <ele>641</ele>
        <time>2012-03-03T16:27:56Z</time>
      </trkpt>
      <trkpt lat="44.00901" lon="3.60335">
        <ele>638</ele>
        <time>2012-03-03T16:28:01Z</time>
      </trkpt>
      <trkpt lat="44.00897" lon="3.60342">
        <ele>638</ele>
        <time>2012-03-03T16:28:06Z</time>
      </trkpt>
      <trkpt lat="44.00893" lon="3.60347">
        <ele>637</ele>
        <time>2012-03-03T16:28:11Z</time>
      </trkpt>
      <trkpt lat="44.00889" lon="3.60353">
        <ele>637</ele>
        <time>2012-03-03T16:28:16Z</time>
      </trkpt>
      <trkpt lat="44.00884" lon="3.60359">
        <ele>636</ele>
        <time>2012-03-03T16:28:21Z</time>
      </trkpt>
      <trkpt lat="44.00879" lon="3.60366">
        <ele>636</ele>
        <time>2012-03-03T16:28:26Z</time>
      </trkpt>
      <trkpt lat="44.00874" lon="3.60371">
        <ele>636</ele>
        <time>2012-03-03T16:28:31Z</time>
      </trkpt>
      <trkpt lat="44.00866" lon="3.60377">
        <ele>636</ele>
        <time>2012-03-03T16:28:36Z</time>
      </trkpt>
      <trkpt lat="44.00861" lon="3.60381">
        <ele>636</ele>
        <time>2012-03-03T16:28:41Z</time>
      </trkpt>
      <trkpt lat="44.00853" lon="3.60387">
        <ele>637</ele>
        <time>2012-03-03T16:28:46Z</time>
      </trkpt>
      <trkpt lat="44.00847" lon="3.60391">
        <ele>637</ele>
        <time>2012-03-03T16:28:51Z</time>
      </trkpt>
      <trkpt lat="44.00841" lon="3.60397">
        <ele>638</ele>
        <time>2012-03-03T16:28:56Z</time>
      </trkpt>
      <trkpt lat="44.00835" lon="3.604">
        <ele>638</ele>
        <time>2012-03-03T16:29:01Z</time>
      </trkpt>
      <trkpt lat="44.00828" lon="3.60399">
        <ele>641</ele>
        <time>2012-03-03T16:29:06Z</time>
      </trkpt>
      <trkpt lat="44.0082" lon="3.60394">
        <ele>641</ele>
        <time>2012-03-03T16:29:11Z</time>
      </trkpt>
      <trkpt lat="44.00814" lon="3.6039">
        <ele>641</ele>
        <time>2012-03-03T16:29:16Z</time>
      </trkpt>
      <trkpt lat="44.00812" lon="3.60375">
        <ele>641</ele>
        <time>2012-03-03T16:29:21Z</time>
      </trkpt>
      <trkpt lat="44.00805" lon="3.60363">
        <ele>641</ele>
        <time>2012-03-03T16:29:26Z</time>
      </trkpt>
      <trkpt lat="44.00796" lon="3.60355">
        <ele>641</ele>
        <time>2012-03-03T16:29:31Z</time>
      </trkpt>
      <trkpt lat="44.00782" lon="3.60348">
        <ele>641</ele>
        <time>2012-03-03T16:29:36Z</time>
      </trkpt>
      <trkpt lat="44.00772" lon="3.6034">
        <ele>640</ele>
        <time>2012-03-03T16:29:41Z</time>
      </trkpt>
      <trkpt lat="44.00766" lon="3.60326">
        <ele>636</ele>
        <time>2012-03-03T16:29:46Z</time>
      </trkpt>
      <trkpt lat="44.00772" lon="3.60311">
        <ele>635</ele>
        <time>2012-03-03T16:29:51Z</time>
      </trkpt>
      <trkpt lat="44.00779" lon="3.60303">
        <ele>634</ele>
        <time>2012-03-03T16:29:56Z</time>
      </trkpt>
      <trkpt lat="44.00788" lon="3.60295">
        <ele>633</ele>
        <time>2012-03-03T16:30:01Z</time>
      </trkpt>
      <trkpt lat="44.00799" lon="3.60289">
        <ele>633</ele>
        <time>2012-03-03T16:30:06Z</time>
      </trkpt>
      <trkpt lat="44.00809" lon="3.60281">
        <ele>633</ele>
        <time>2012-03-03T16:30:11Z</time>
      </trkpt>
      <trkpt lat="44.00803" lon="3.60278">
        <ele>632</ele>
        <time>2012-03-03T16:30:16Z</time>
      </trkpt>
      <trkpt lat="44.00792" lon="3.60281">
        <ele>632</ele>
        <time>2012-03-03T16:30:21Z</time>
      </trkpt>
      <trkpt lat="44.00784" lon="3.60276">
        <ele>631</ele>
        <time>2012-03-03T16:30:26Z</time>
      </trkpt>
      <trkpt lat="44.00781" lon="3.6027">
        <ele>630</ele>
        <time>2012-03-03T16:30:31Z</time>
      </trkpt>
      <trkpt lat="44.00774" lon="3.60264">
        <ele>629</ele>
        <time>2012-03-03T16:30:36Z</time>
      </trkpt>
      <trkpt lat="44.00766" lon="3.6026">
        <ele>627</ele>
        <time>2012-03-03T16:30:41Z</time>
      </trkpt>
      <trkpt lat="44.00756" lon="3.60259">
        <ele>625</ele>
        <time>2012-03-03T16:30:46Z</time>
      </trkpt>
      <trkpt lat="44.00749" lon="3.60256">
        <ele>622</ele>
        <time>2012-03-03T16:30:51Z</time>
      </trkpt>
      <trkpt lat="44.0074" lon="3.60251">
        <ele>623</ele>
        <time>2012-03-03T16:30:56Z</time>
      </trkpt>
      <trkpt lat="44.00729" lon="3.60247">
        <ele>615</ele>
        <time>2012-03-03T16:31:01Z</time>
      </trkpt>
      <trkpt lat="44.00718" lon="3.60245">
        <ele>613</ele>
        <time>2012-03-03T16:31:06Z</time>
      </trkpt>
      <trkpt lat="44.00707" lon="3.60243">
        <ele>613</ele>
        <time>2012-03-03T16:31:11Z</time>
      </trkpt>
      <trkpt lat="44.00698" lon="3.6024">
        <ele>613</ele>
        <time>2012-03-03T16:31:16Z</time>
      </trkpt>
      <trkpt lat="44.00685" lon="3.60234">
        <ele>613</ele>
        <time>2012-03-03T16:31:21Z</time>
      </trkpt>
      <trkpt lat="44.00673" lon="3.60225">
        <ele>612</ele>
        <time>2012-03-03T16:31:26Z</time>
      </trkpt>
      <trkpt lat="44.00664" lon="3.60215">
        <ele>611</ele>
        <time>2012-03-03T16:31:31Z</time>
      </trkpt>
      <trkpt lat="44.00655" lon="3.60207">
        <ele>609</ele>
        <time>2012-03-03T16:31:36Z</time>
      </trkpt>
      <trkpt lat="44.00647" lon="3.60201">
        <ele>609</ele>
        <time>2012-03-03T16:31:41Z</time>
      </trkpt>
      <trkpt lat="44.00637" lon="3.60193">
        <ele>608</ele>
        <time>2012-03-03T16:31:46Z</time>
      </trkpt>
      <trkpt lat="44.00627" lon="3.60189">
        <ele>608</ele>
        <time>2012-03-03T16:31:51Z</time>
      </trkpt>
      <trkpt lat="44.00616" lon="3.60184">
        <ele>607</ele>
        <time>2012-03-03T16:31:56Z</time>
      </trkpt>
      <trkpt lat="44.00602" lon="3.60181">
        <ele>607</ele>
        <time>2012-03-03T16:32:01Z</time>
      </trkpt>
      <trkpt lat="44.0059" lon="3.60181">
        <ele>606</ele>
        <time>2012-03-03T16:32:06Z</time>
      </trkpt>
      <trkpt lat="44.00584" lon="3.60182">
        <ele>606</ele>
        <time>2012-03-03T16:32:11Z</time>
      </trkpt>
      <trkpt lat="44.00582" lon="3.60179">
        <ele>603</ele>
        <time>2012-03-03T16:32:16Z</time>
      </trkpt>
      <trkpt lat="44.00575" lon="3.60186">
        <ele>604</ele>
        <time>2012-03-03T16:32:21Z</time>
      </trkpt>
      <trkpt lat="44.00565" lon="3.60194">
        <ele>604</ele>
        <time>2012-03-03T16:32:26Z</time>
      </trkpt>
      <trkpt lat="44.00555" lon="3.60204">
        <ele>604</ele>
        <time>2012-03-03T16:32:31Z</time>
      </trkpt>
      <trkpt lat="44.00545" lon="3.60207">
        <ele>603</ele>
        <time>2012-03-03T16:32:36Z</time>
      </trkpt>
      <trkpt lat="44.00535" lon="3.60209">
        <ele>603</ele>
        <time>2012-03-03T16:32:41Z</time>
      </trkpt>
      <trkpt lat="44.00521" lon="3.60208">
        <ele>602</ele>
        <time>2012-03-03T16:32:46Z</time>
      </trkpt>
      <trkpt lat="44.00509" lon="3.60208">
        <ele>601</ele>
        <time>2012-03-03T16:32:51Z</time>
      </trkpt>
      <trkpt lat="44.00496" lon="3.60204">
        <ele>592</ele>
        <time>2012-03-03T16:32:56Z</time>
      </trkpt>
      <trkpt lat="44.00484" lon="3.602">
        <ele>592</ele>
        <time>2012-03-03T16:33:01Z</time>
      </trkpt>
      <trkpt lat="44.00472" lon="3.60192">
        <ele>591</ele>
        <time>2012-03-03T16:33:06Z</time>
      </trkpt>
      <trkpt lat="44.00462" lon="3.60184">
        <ele>590</ele>
        <time>2012-03-03T16:33:11Z</time>
      </trkpt>
      <trkpt lat="44.00454" lon="3.60177">
        <ele>589</ele>
        <time>2012-03-03T16:33:16Z</time>
      </trkpt>
      <trkpt lat="44.00447" lon="3.60166">
        <ele>593</ele>
        <time>2012-03-03T16:33:21Z</time>
      </trkpt>
      <trkpt lat="44.0044" lon="3.60159">
        <ele>592</ele>
        <time>2012-03-03T16:33:26Z</time>
      </trkpt>
      <trkpt lat="44.00432" lon="3.6015">
        <ele>591</ele>
        <time>2012-03-03T16:33:31Z</time>
      </trkpt>
      <trkpt lat="44.00424" lon="3.6014">
        <ele>592</ele>
        <time>2012-03-03T16:33:36Z</time>
      </trkpt>
      <trkpt lat="44.00416" lon="3.6013">
        <ele>584</ele>
        <time>2012-03-03T16:33:41Z</time>
      </trkpt>
      <trkpt lat="44.00407" lon="3.60121">
        <ele>584</ele>
        <time>2012-03-03T16:33:46Z</time>
      </trkpt>
      <trkpt lat="44.00397" lon="3.60109">
        <ele>585</ele>
        <time>2012-03-03T16:33:51Z</time>
      </trkpt>
      <trkpt lat="44.00391" lon="3.60103">
        <ele>585</ele>
        <time>2012-03-03T16:33:56Z</time>
      </trkpt>
      <trkpt lat="44.00379" lon="3.60097">
        <ele>583</ele>
        <time>2012-03-03T16:34:01Z</time>
      </trkpt>
      <trkpt lat="44.00369" lon="3.60094">
        <ele>582</ele>
        <time>2012-03-03T16:34:06Z</time>
      </trkpt>
      <trkpt lat="44.00358" lon="3.6009">
        <ele>581</ele>
        <time>2012-03-03T16:34:11Z</time>
      </trkpt>
      <trkpt lat="44.0035" lon="3.60086">
        <ele>580</ele>
        <time>2012-03-03T16:34:16Z</time>
      </trkpt>
      <trkpt lat="44.00345" lon="3.60082">
        <ele>584</ele>
        <time>2012-03-03T16:34:21Z</time>
      </trkpt>
      <trkpt lat="44.00337" lon="3.60078">
        <ele>582</ele>
        <time>2012-03-03T16:34:26Z</time>
      </trkpt>
      <trkpt lat="44.00329" lon="3.60071">
        <ele>576</ele>
        <time>2012-03-03T16:34:31Z</time>
      </trkpt>
      <trkpt lat="44.00321" lon="3.60062">
        <ele>575</ele>
        <time>2012-03-03T16:34:36Z</time>
      </trkpt>
      <trkpt lat="44.00314" lon="3.6005">
        <ele>575</ele>
        <time>2012-03-03T16:34:41Z</time>
      </trkpt>
      <trkpt lat="44.00309" lon="3.6004">
        <ele>575</ele>
        <time>2012-03-03T16:34:46Z</time>
      </trkpt>
      <trkpt lat="44.00304" lon="3.60024">
        <ele>575</ele>
        <time>2012-03-03T16:34:51Z</time>
      </trkpt>
      <trkpt lat="44.00301" lon="3.6001">
        <ele>576</ele>
        <time>2012-03-03T16:34:56Z</time>
      </trkpt>
      <trkpt lat="44.00298" lon="3.59998">
        <ele>577</ele>
        <time>2012-03-03T16:35:01Z</time>
      </trkpt>
      <trkpt lat="44.00295" lon="3.59986">
        <ele>577</ele>
        <time>2012-03-03T16:35:06Z</time>
      </trkpt>
      <trkpt lat="44.00293" lon="3.59976">
        <ele>576</ele>
        <time>2012-03-03T16:35:11Z</time>
      </trkpt>
      <trkpt lat="44.00291" lon="3.59964">
        <ele>576</ele>
        <time>2012-03-03T16:35:16Z</time>
      </trkpt>
      <trkpt lat="44.00288" lon="3.5995">
        <ele>575</ele>
        <time>2012-03-03T16:35:21Z</time>
      </trkpt>
      <trkpt lat="44.00286" lon="3.59936">
        <ele>575</ele>
        <time>2012-03-03T16:35:26Z</time>
      </trkpt>
      <trkpt lat="44.00283" lon="3.59921">
        <ele>574</ele>
        <time>2012-03-03T16:35:31Z</time>
      </trkpt>
      <trkpt lat="44.00282" lon="3.59907">
        <ele>575</ele>
        <time>2012-03-03T16:35:36Z</time>
      </trkpt>
      <trkpt lat="44.00279" lon="3.59892">
        <ele>575</ele>
        <time>2012-03-03T16:35:41Z</time>
      </trkpt>
      <trkpt lat="44.00274" lon="3.59882">
        <ele>574</ele>
        <time>2012-03-03T16:35:46Z</time>
      </trkpt>
      <trkpt lat="44.00268" lon="3.59871">
        <ele>574</ele>
        <time>2012-03-03T16:35:51Z</time>
      </trkpt>
      <trkpt lat="44.00262" lon="3.59858">
        <ele>573</ele>
        <time>2012-03-03T16:35:56Z</time>
      </trkpt>
      <trkpt lat="44.00255" lon="3.59847">
        <ele>572</ele>
        <time>2012-03-03T16:36:01Z</time>
      </trkpt>
      <trkpt lat="44.00246" lon="3.59841">
        <ele>564</ele>
        <time>2012-03-03T16:36:06Z</time>
      </trkpt>
      <trkpt lat="44.00235" lon="3.59836">
        <ele>561</ele>
        <time>2012-03-03T16:36:11Z</time>
      </trkpt>
      <trkpt lat="44.00224" lon="3.59827">
        <ele>565</ele>
        <time>2012-03-03T16:36:16Z</time>
      </trkpt>
      <trkpt lat="44.00213" lon="3.59823">
        <ele>564</ele>
        <time>2012-03-03T16:36:21Z</time>
      </trkpt>
      <trkpt lat="44.00202" lon="3.59817">
        <ele>563</ele>
        <time>2012-03-03T16:36:26Z</time>
      </trkpt>
      <trkpt lat="44.00189" lon="3.59812">
        <ele>561</ele>
        <time>2012-03-03T16:36:31Z</time>
      </trkpt>
      <trkpt lat="44.00175" lon="3.59807">
        <ele>560</ele>
        <time>2012-03-03T16:36:36Z</time>
      </trkpt>
      <trkpt lat="44.00163" lon="3.59801">
        <ele>551</ele>
        <time>2012-03-03T16:36:41Z</time>
      </trkpt>
      <trkpt lat="44.00152" lon="3.59794">
        <ele>551</ele>
        <time>2012-03-03T16:36:46Z</time>
      </trkpt>
      <trkpt lat="44.00141" lon="3.59789">
        <ele>551</ele>
        <time>2012-03-03T16:36:51Z</time>
      </trkpt>
      <trkpt lat="44.00131" lon="3.59782">
        <ele>550</ele>
        <time>2012-03-03T16:36:56Z</time>
      </trkpt>
      <trkpt lat="44.0012" lon="3.59773">
        <ele>550</ele>
        <time>2012-03-03T16:37:01Z</time>
      </trkpt>
      <trkpt lat="44.00112" lon="3.59763">
        <ele>549</ele>
        <time>2012-03-03T16:37:06Z</time>
      </trkpt>
      <trkpt lat="44.00102" lon="3.59755">
        <ele>548</ele>
        <time>2012-03-03T16:37:11Z</time>
      </trkpt>
      <trkpt lat="44.00092" lon="3.59745">
        <ele>550</ele>
        <time>2012-03-03T16:37:16Z</time>
      </trkpt>
      <trkpt lat="44.00083" lon="3.59734">
        <ele>544</ele>
        <time>2012-03-03T16:37:21Z</time>
      </trkpt>
      <trkpt lat="44.00076" lon="3.59722">
        <ele>542</ele>
        <time>2012-03-03T16:37:26Z</time>
      </trkpt>
      <trkpt lat="44.00065" lon="3.59707">
        <ele>542</ele>
        <time>2012-03-03T16:37:31Z</time>
      </trkpt>
      <trkpt lat="44.00057" lon="3.59694">
        <ele>541</ele>
        <time>2012-03-03T16:37:36Z</time>
      </trkpt>
      <trkpt lat="44.0005" lon="3.59682">
        <ele>541</ele>
        <time>2012-03-03T16:37:41Z</time>
      </trkpt>
      <trkpt lat="44.00044" lon="3.59667">
        <ele>539</ele>
        <time>2012-03-03T16:37:46Z</time>
      </trkpt>
      <trkpt lat="44.00041" lon="3.59655">
        <ele>539</ele>
        <time>2012-03-03T16:37:51Z</time>
      </trkpt>
      <trkpt lat="44.00039" lon="3.59639">
        <ele>538</ele>
        <time>2012-03-03T16:37:56Z</time>
      </trkpt>
      <trkpt lat="44.00035" lon="3.59626">
        <ele>538</ele>
        <time>2012-03-03T16:38:01Z</time>
      </trkpt>
      <trkpt lat="44.00031" lon="3.59611">
        <ele>537</ele>
        <time>2012-03-03T16:38:06Z</time>
      </trkpt>
      <trkpt lat="44.00025" lon="3.596">
        <ele>536</ele>
        <time>2012-03-03T16:38:11Z</time>
      </trkpt>
      <trkpt lat="44.00018" lon="3.5961">
        <ele>535</ele>
        <time>2012-03-03T16:38:16Z</time>
      </trkpt>
      <trkpt lat="44.00015" lon="3.59626">
        <ele>536</ele>
        <time>2012-03-03T16:38:21Z</time>
      </trkpt>
      <trkpt lat="44.00013" lon="3.5964">
        <ele>535</ele>
        <time>2012-03-03T16:38:26Z</time>
      </trkpt>
      <trkpt lat="44.00011" lon="3.59656">
        <ele>534</ele>
        <time>2012-03-03T16:38:31Z</time>
      </trkpt>
      <trkpt lat="44.00007" lon="3.59673">
        <ele>533</ele>
        <time>2012-03-03T16:38:36Z</time>
      </trkpt>
      <trkpt lat="44.00007" lon="3.59689">
        <ele>535</ele>
        <time>2012-03-03T16:38:41Z</time>
      </trkpt>
      <trkpt lat="44.00004" lon="3.59702">
        <ele>535</ele>
        <time>2012-03-03T16:38:46Z</time>
      </trkpt>
      <trkpt lat="44.00002" lon="3.59717">
        <ele>535</ele>
        <time>2012-03-03T16:38:51Z</time>
      </trkpt>
      <trkpt lat="44.00004" lon="3.59733">
        <ele>533</ele>
        <time>2012-03-03T16:38:56Z</time>
      </trkpt>
      <trkpt lat="44.00003" lon="3.59748">
        <ele>529</ele>
        <time>2012-03-03T16:39:01Z</time>
      </trkpt>
      <trkpt lat="44.00002" lon="3.59765">
        <ele>529</ele>
        <time>2012-03-03T16:39:06Z</time>
      </trkpt>
      <trkpt lat="44.00004" lon="3.59781">
        <ele>529</ele>
        <time>2012-03-03T16:39:11Z</time>
      </trkpt>
      <trkpt lat="44.00007" lon="3.59801">
        <ele>528</ele>
        <time>2012-03-03T16:39:16Z</time>
      </trkpt>
      <trkpt lat="44.0001" lon="3.59815">
        <ele>526</ele>
        <time>2012-03-03T16:39:21Z</time>
      </trkpt>
      <trkpt lat="44.00011" lon="3.59829">
        <ele>524</ele>
        <time>2012-03-03T16:39:26Z</time>
      </trkpt>
      <trkpt lat="43.99998" lon="3.59828">
        <ele>518</ele>
        <time>2012-03-03T16:39:31Z</time>
      </trkpt>
      <trkpt lat="43.9999" lon="3.59824">
        <ele>517</ele>
        <time>2012-03-03T16:39:36Z</time>
      </trkpt>
      <trkpt lat="43.99978" lon="3.59819">
        <ele>516</ele>
        <time>2012-03-03T16:39:41Z</time>
      </trkpt>
      <trkpt lat="43.99968" lon="3.59813">
        <ele>515</ele>
        <time>2012-03-03T16:39:46Z</time>
      </trkpt>
      <trkpt lat="43.99956" lon="3.59806">
        <ele>513</ele>
        <time>2012-03-03T16:39:51Z</time>
      </trkpt>
      <trkpt lat="43.99946" lon="3.59796">
        <ele>513</ele>
        <time>2012-03-03T16:39:56Z</time>
      </trkpt>
      <trkpt lat="43.99936" lon="3.59786">
        <ele>513</ele>
        <time>2012-03-03T16:40:01Z</time>
      </trkpt>
      <trkpt lat="43.99927" lon="3.59779">
        <ele>512</ele>
        <time>2012-03-03T16:40:06Z</time>
      </trkpt>
      <trkpt lat="43.99916" lon="3.59767">
        <ele>502</ele>
        <time>2012-03-03T16:40:11Z</time>
      </trkpt>
      <trkpt lat="43.99907" lon="3.59757">
        <ele>504</ele>
        <time>2012-03-03T16:40:16Z</time>
      </trkpt>
      <trkpt lat="43.99899" lon="3.59744">
        <ele>503</ele>
        <time>2012-03-03T16:40:21Z</time>
      </trkpt>
      <trkpt lat="43.99893" lon="3.59728">
        <ele>501</ele>
        <time>2012-03-03T16:40:26Z</time>
      </trkpt>
      <trkpt lat="43.99889" lon="3.59715">
        <ele>500</ele>
        <time>2012-03-03T16:40:31Z</time>
      </trkpt>
      <trkpt lat="43.99884" lon="3.59701">
        <ele>499</ele>
        <time>2012-03-03T16:40:36Z</time>
      </trkpt>
      <trkpt lat="43.9988" lon="3.59684">
        <ele>499</ele>
        <time>2012-03-03T16:40:41Z</time>
      </trkpt>
      <trkpt lat="43.99876" lon="3.59669">
        <ele>498</ele>
        <time>2012-03-03T16:40:46Z</time>
      </trkpt>
      <trkpt lat="43.99874" lon="3.59652">
        <ele>498</ele>
        <time>2012-03-03T16:40:51Z</time>
      </trkpt>
      <trkpt lat="43.99872" lon="3.59634">
        <ele>498</ele>
        <time>2012-03-03T16:40:56Z</time>
      </trkpt>
      <trkpt lat="43.9987" lon="3.59613">
        <ele>498</ele>
        <time>2012-03-03T16:41:01Z</time>
      </trkpt>
      <trkpt lat="43.9987" lon="3.59596">
        <ele>497</ele>
        <time>2012-03-03T16:41:06Z</time>
      </trkpt>
      <trkpt lat="43.9987" lon="3.59582">
        <ele>497</ele>
        <time>2012-03-03T16:41:11Z</time>
      </trkpt>
      <trkpt lat="43.99869" lon="3.59574">
        <ele>497</ele>
        <time>2012-03-03T16:41:16Z</time>
      </trkpt>
      <trkpt lat="43.99869" lon="3.59567">
        <ele>497</ele>
        <time>2012-03-03T16:41:21Z</time>
      </trkpt>
      <trkpt lat="43.99868" lon="3.59558">
        <ele>497</ele>
        <time>2012-03-03T16:41:26Z</time>
      </trkpt>
      <trkpt lat="43.99868" lon="3.59549">
        <ele>497</ele>
        <time>2012-03-03T16:41:31Z</time>
      </trkpt>
      <trkpt lat="43.99867" lon="3.59539">
        <ele>496</ele>
        <time>2012-03-03T16:41:36Z</time>
      </trkpt>
      <trkpt lat="43.99869" lon="3.59526">
        <ele>496</ele>
        <time>2012-03-03T16:41:41Z</time>
      </trkpt>
      <trkpt lat="43.99871" lon="3.59508">
        <ele>496</ele>
        <time>2012-03-03T16:41:46Z</time>
      </trkpt>
      <trkpt lat="43.99871" lon="3.59488">
        <ele>493</ele>
        <time>2012-03-03T16:41:51Z</time>
      </trkpt>
      <trkpt lat="43.99872" lon="3.59471">
        <ele>493</ele>
        <time>2012-03-03T16:41:56Z</time>
      </trkpt>
      <trkpt lat="43.99875" lon="3.59454">
        <ele>492</ele>
        <time>2012-03-03T16:42:01Z</time>
      </trkpt>
      <trkpt lat="43.99876" lon="3.59437">
        <ele>491</ele>
        <time>2012-03-03T16:42:06Z</time>
      </trkpt>
      <trkpt lat="43.99879" lon="3.59422">
        <ele>491</ele>
        <time>2012-03-03T16:42:11Z</time>
      </trkpt>
      <trkpt lat="43.9988" lon="3.59409">
        <ele>487</ele>
        <time>2012-03-03T16:42:16Z</time>
      </trkpt>
      <trkpt lat="43.99882" lon="3.59391">
        <ele>486</ele>
        <time>2012-03-03T16:42:21Z</time>
      </trkpt>
      <trkpt lat="43.99885" lon="3.59375">
        <ele>486</ele>
        <time>2012-03-03T16:42:26Z</time>
      </trkpt>
      <trkpt lat="43.99886" lon="3.59359">
        <ele>485</ele>
        <time>2012-03-03T16:42:31Z</time>
      </trkpt>
      <trkpt lat="43.99886" lon="3.59347">
        <ele>485</ele>
        <time>2012-03-03T16:42:36Z</time>
      </trkpt>
      <trkpt lat="43.99889" lon="3.5933">
        <ele>481</ele>
        <time>2012-03-03T16:42:41Z</time>
      </trkpt>
      <trkpt lat="43.99895" lon="3.59311">
        <ele>481</ele>
        <time>2012-03-03T16:42:46Z</time>
      </trkpt>
      <trkpt lat="43.99904" lon="3.59298">
        <ele>480</ele>
        <time>2012-03-03T16:42:51Z</time>
      </trkpt>
      <trkpt lat="43.99915" lon="3.59291">
        <ele>480</ele>
        <time>2012-03-03T16:42:56Z</time>
      </trkpt>
      <trkpt lat="43.99924" lon="3.59289">
        <ele>482</ele>
        <time>2012-03-03T16:43:01Z</time>
      </trkpt>
      <trkpt lat="43.99933" lon="3.59287">
        <ele>481</ele>
        <time>2012-03-03T16:43:06Z</time>
      </trkpt>
      <trkpt lat="43.99944" lon="3.59286">
        <ele>481</ele>
        <time>2012-03-03T16:43:11Z</time>
      </trkpt>
      <trkpt lat="43.99954" lon="3.59284">
        <ele>481</ele>
        <time>2012-03-03T16:43:16Z</time>
      </trkpt>
      <trkpt lat="43.99964" lon="3.59285">
        <ele>481</ele>
        <time>2012-03-03T16:43:21Z</time>
      </trkpt>
      <trkpt lat="43.99973" lon="3.59282">
        <ele>480</ele>
        <time>2012-03-03T16:43:26Z</time>
      </trkpt>
      <trkpt lat="43.99972" lon="3.59274">
        <ele>480</ele>
        <time>2012-03-03T16:43:31Z</time>
      </trkpt>
      <trkpt lat="43.99966" lon="3.59269">
        <ele>479</ele>
        <time>2012-03-03T16:43:36Z</time>
      </trkpt>
      <trkpt lat="43.99958" lon="3.59267">
        <ele>480</ele>
        <time>2012-03-03T16:43:41Z</time>
      </trkpt>
      <trkpt lat="43.99951" lon="3.59257">
        <ele>479</ele>
        <time>2012-03-03T16:43:46Z</time>
      </trkpt>
      <trkpt lat="43.99942" lon="3.59248">
        <ele>470</ele>
        <time>2012-03-03T16:43:51Z</time>
      </trkpt>
      <trkpt lat="43.99931" lon="3.59239">
        <ele>471</ele>
        <time>2012-03-03T16:43:56Z</time>
      </trkpt>
      <trkpt lat="43.99924" lon="3.5923">
        <ele>470</ele>
        <time>2012-03-03T16:44:01Z</time>
      </trkpt>
      <trkpt lat="43.99915" lon="3.59221">
        <ele>469</ele>
        <time>2012-03-03T16:44:06Z</time>
      </trkpt>
      <trkpt lat="43.99905" lon="3.59216">
        <ele>468</ele>
        <time>2012-03-03T16:44:11Z</time>
      </trkpt>
      <trkpt lat="43.999" lon="3.59211">
        <ele>467</ele>
        <time>2012-03-03T16:44:16Z</time>
      </trkpt>
      <trkpt lat="43.99891" lon="3.59205">
        <ele>466</ele>
        <time>2012-03-03T16:44:21Z</time>
      </trkpt>
      <trkpt lat="43.99881" lon="3.59204">
        <ele>465</ele>
        <time>2012-03-03T16:44:26Z</time>
      </trkpt>
      <trkpt lat="43.99868" lon="3.59206">
        <ele>465</ele>
        <time>2012-03-03T16:44:31Z</time>
      </trkpt>
      <trkpt lat="43.99859" lon="3.59208">
        <ele>465</ele>
        <time>2012-03-03T16:44:36Z</time>
      </trkpt>
      <trkpt lat="43.99849" lon="3.59208">
        <ele>465</ele>
        <time>2012-03-03T16:44:41Z</time>
      </trkpt>
      <trkpt lat="43.99835" lon="3.59212">
        <ele>465</ele>
        <time>2012-03-03T16:44:46Z</time>
      </trkpt>
      <trkpt lat="43.99827" lon="3.59212">
        <ele>458</ele>
        <time>2012-03-03T16:44:51Z</time>
      </trkpt>
      <trkpt lat="43.99821" lon="3.59205">
        <ele>456</ele>
        <time>2012-03-03T16:44:56Z</time>
      </trkpt>
      <trkpt lat="43.99812" lon="3.59205">
        <ele>455</ele>
        <time>2012-03-03T16:45:01Z</time>
      </trkpt>
      <trkpt lat="43.99801" lon="3.59204">
        <ele>454</ele>
        <time>2012-03-03T16:45:06Z</time>
      </trkpt>
      <trkpt lat="43.99793" lon="3.59199">
        <ele>453</ele>
        <time>2012-03-03T16:45:11Z</time>
      </trkpt>
      <trkpt lat="43.99783" lon="3.59202">
        <ele>452</ele>
        <time>2012-03-03T16:45:16Z</time>
      </trkpt>
      <trkpt lat="43.99773" lon="3.59208">
        <ele>452</ele>
        <time>2012-03-03T16:45:21Z</time>
      </trkpt>
      <trkpt lat="43.99763" lon="3.59215">
        <ele>452</ele>
        <time>2012-03-03T16:45:26Z</time>
      </trkpt>
      <trkpt lat="43.99753" lon="3.5922">
        <ele>452</ele>
        <time>2012-03-03T16:45:31Z</time>
      </trkpt>
      <trkpt lat="43.99743" lon="3.59224">
        <ele>443</ele>
        <time>2012-03-03T16:45:36Z</time>
      </trkpt>
      <trkpt lat="43.99734" lon="3.5923">
        <ele>443</ele>
        <time>2012-03-03T16:45:41Z</time>
      </trkpt>
      <trkpt lat="43.99726" lon="3.59235">
        <ele>443</ele>
        <time>2012-03-03T16:45:46Z</time>
      </trkpt>
      <trkpt lat="43.99715" lon="3.59236">
        <ele>441</ele>
        <time>2012-03-03T16:45:51Z</time>
      </trkpt>
      <trkpt lat="43.99705" lon="3.59235">
        <ele>440</ele>
        <time>2012-03-03T16:45:56Z</time>
      </trkpt>
      <trkpt lat="43.99695" lon="3.59233">
        <ele>439</ele>
        <time>2012-03-03T16:46:01Z</time>
      </trkpt>
      <trkpt lat="43.99686" lon="3.59227">
        <ele>438</ele>
        <time>2012-03-03T16:46:06Z</time>
      </trkpt>
      <trkpt lat="43.99676" lon="3.59226">
        <ele>438</ele>
        <time>2012-03-03T16:46:11Z</time>
      </trkpt>
      <trkpt lat="43.99663" lon="3.59221">
        <ele>429</ele>
        <time>2012-03-03T16:46:16Z</time>
      </trkpt>
      <trkpt lat="43.99659" lon="3.59207">
        <ele>428</ele>
        <time>2012-03-03T16:46:21Z</time>
      </trkpt>
      <trkpt lat="43.99667" lon="3.592">
        <ele>435</ele>
        <time>2012-03-03T16:46:26Z</time>
      </trkpt>
      <trkpt lat="43.99669" lon="3.5919">
        <ele>434</ele>
        <time>2012-03-03T16:46:31Z</time>
      </trkpt>
      <trkpt lat="43.99662" lon="3.5919">
        <ele>427</ele>
        <time>2012-03-03T16:46:36Z</time>
      </trkpt>
      <trkpt lat="43.9965" lon="3.5919">
        <ele>426</ele>
        <time>2012-03-03T16:46:41Z</time>
      </trkpt>
      <trkpt lat="43.99639" lon="3.59191">
        <ele>425</ele>
        <time>2012-03-03T16:46:46Z</time>
      </trkpt>
      <trkpt lat="43.99629" lon="3.59194">
        <ele>425</ele>
        <time>2012-03-03T16:46:51Z</time>
      </trkpt>
      <trkpt lat="43.99617" lon="3.59199">
        <ele>424</ele>
        <time>2012-03-03T16:46:56Z</time>
      </trkpt>
      <trkpt lat="43.99609" lon="3.59201">
        <ele>423</ele>
        <time>2012-03-03T16:47:01Z</time>
      </trkpt>
      <trkpt lat="43.99599" lon="3.59208">
        <ele>423</ele>
        <time>2012-03-03T16:47:06Z</time>
      </trkpt>
      <trkpt lat="43.99587" lon="3.59213">
        <ele>423</ele>
        <time>2012-03-03T16:47:11Z</time>
      </trkpt>
      <trkpt lat="43.99576" lon="3.59218">
        <ele>416</ele>
        <time>2012-03-03T16:47:16Z</time>
      </trkpt>
      <trkpt lat="43.99565" lon="3.59224">
        <ele>416</ele>
        <time>2012-03-03T16:47:21Z</time>
      </trkpt>
      <trkpt lat="43.99554" lon="3.59229">
        <ele>415</ele>
        <time>2012-03-03T16:47:26Z</time>
      </trkpt>
      <trkpt lat="43.99545" lon="3.59231">
        <ele>414</ele>
        <time>2012-03-03T16:47:31Z</time>
      </trkpt>
      <trkpt lat="43.99535" lon="3.59237">
        <ele>414</ele>
        <time>2012-03-03T16:47:36Z</time>
      </trkpt>
      <trkpt lat="43.99525" lon="3.59246">
        <ele>413</ele>
        <time>2012-03-03T16:47:41Z</time>
      </trkpt>
      <trkpt lat="43.99516" lon="3.59237">
        <ele>412</ele>
        <time>2012-03-03T16:47:46Z</time>
      </trkpt>
      <trkpt lat="43.9951" lon="3.59223">
        <ele>412</ele>
        <time>2012-03-03T16:47:51Z</time>
      </trkpt>
      <trkpt lat="43.99496" lon="3.59218">
        <ele>406</ele>
        <time>2012-03-03T16:47:56Z</time>
      </trkpt>
      <trkpt lat="43.99488" lon="3.59211">
        <ele>406</ele>
        <time>2012-03-03T16:48:01Z</time>
      </trkpt>
      <trkpt lat="43.99496" lon="3.59192">
        <ele>404</ele>
        <time>2012-03-03T16:48:06Z</time>
      </trkpt>
      <trkpt lat="43.99506" lon="3.5918">
        <ele>407</ele>
        <time>2012-03-03T16:48:11Z</time>
      </trkpt>
      <trkpt lat="43.99516" lon="3.59168">
        <ele>407</ele>
        <time>2012-03-03T16:48:16Z</time>
      </trkpt>
      <trkpt lat="43.99526" lon="3.59158">
        <ele>399</ele>
        <time>2012-03-03T16:48:21Z</time>
      </trkpt>
      <trkpt lat="43.99535" lon="3.5915">
        <ele>399</ele>
        <time>2012-03-03T16:48:26Z</time>
      </trkpt>
      <trkpt lat="43.99546" lon="3.59142">
        <ele>399</ele>
        <time>2012-03-03T16:48:31Z</time>
      </trkpt>
      <trkpt lat="43.99558" lon="3.59132">
        <ele>398</ele>
        <time>2012-03-03T16:48:36Z</time>
      </trkpt>
      <trkpt lat="43.99569" lon="3.59123">
        <ele>398</ele>
        <time>2012-03-03T16:48:41Z</time>
      </trkpt>
      <trkpt lat="43.9958" lon="3.59116">
        <ele>397</ele>
        <time>2012-03-03T16:48:46Z</time>
      </trkpt>
      <trkpt lat="43.99592" lon="3.59108">
        <ele>402</ele>
        <time>2012-03-03T16:48:51Z</time>
      </trkpt>
      <trkpt lat="43.99602" lon="3.59102">
        <ele>402</ele>
        <time>2012-03-03T16:48:56Z</time>
      </trkpt>
      <trkpt lat="43.99608" lon="3.59087">
        <ele>401</ele>
        <time>2012-03-03T16:49:01Z</time>
      </trkpt>
      <trkpt lat="43.99618" lon="3.59074">
        <ele>386</ele>
        <time>2012-03-03T16:49:06Z</time>
      </trkpt>
      <trkpt lat="43.99628" lon="3.59062">
        <ele>386</ele>
        <time>2012-03-03T16:49:11Z</time>
      </trkpt>
      <trkpt lat="43.99636" lon="3.59053">
        <ele>385</ele>
        <time>2012-03-03T16:49:16Z</time>
      </trkpt>
      <trkpt lat="43.99648" lon="3.59046">
        <ele>384</ele>
        <time>2012-03-03T16:49:21Z</time>
      </trkpt>
      <trkpt lat="43.99659" lon="3.59042">
        <ele>384</ele>
        <time>2012-03-03T16:49:26Z</time>
      </trkpt>
      <trkpt lat="43.9967" lon="3.59037">
        <ele>388</ele>
        <time>2012-03-03T16:49:31Z</time>
      </trkpt>
      <trkpt lat="43.99683" lon="3.59032">
        <ele>388</ele>
        <time>2012-03-03T16:49:36Z</time>
      </trkpt>
      <trkpt lat="43.99694" lon="3.59026">
        <ele>387</ele>
        <time>2012-03-03T16:49:41Z</time>
      </trkpt>
      <trkpt lat="43.99706" lon="3.5902">
        <ele>387</ele>
        <time>2012-03-03T16:49:46Z</time>
      </trkpt>
      <trkpt lat="43.9972" lon="3.59014">
        <ele>387</ele>
        <time>2012-03-03T16:49:51Z</time>
      </trkpt>
      <trkpt lat="43.99732" lon="3.59007">
        <ele>386</ele>
        <time>2012-03-03T16:49:56Z</time>
      </trkpt>
      <trkpt lat="43.99743" lon="3.58997">
        <ele>376</ele>
        <time>2012-03-03T16:50:01Z</time>
      </trkpt>
      <trkpt lat="43.99755" lon="3.58987">
        <ele>379</ele>
        <time>2012-03-03T16:50:06Z</time>
      </trkpt>
      <trkpt lat="43.99763" lon="3.58979">
        <ele>378</ele>
        <time>2012-03-03T16:50:11Z</time>
      </trkpt>
      <trkpt lat="43.99769" lon="3.58966">
        <ele>375</ele>
        <time>2012-03-03T16:50:16Z</time>
      </trkpt>
      <trkpt lat="43.99777" lon="3.58953">
        <ele>373</ele>
        <time>2012-03-03T16:50:21Z</time>
      </trkpt>
      <trkpt lat="43.99785" lon="3.58938">
        <ele>372</ele>
        <time>2012-03-03T16:50:26Z</time>
      </trkpt>
      <trkpt lat="43.99793" lon="3.58926">
        <ele>372</ele>
        <time>2012-03-03T16:50:31Z</time>
      </trkpt>
      <trkpt lat="43.99804" lon="3.58918">
        <ele>372</ele>
        <time>2012-03-03T16:50:36Z</time>
      </trkpt>
      <trkpt lat="43.99816" lon="3.58909">
        <ele>359</ele>
        <time>2012-03-03T16:50:41Z</time>
      </trkpt>
      <trkpt lat="43.99827" lon="3.58902">
        <ele>360</ele>
        <time>2012-03-03T16:50:46Z</time>
      </trkpt>
      <trkpt lat="43.99837" lon="3.58894">
        <ele>365</ele>
        <time>2012-03-03T16:50:51Z</time>
      </trkpt>
      <trkpt lat="43.99847" lon="3.58884">
        <ele>363</ele>
        <time>2012-03-03T16:50:56Z</time>
      </trkpt>
      <trkpt lat="43.99856" lon="3.58876">
        <ele>362</ele>
        <time>2012-03-03T16:51:01Z</time>
      </trkpt>
      <trkpt lat="43.99867" lon="3.58866">
        <ele>361</ele>
        <time>2012-03-03T16:51:06Z</time>
      </trkpt>
      <trkpt lat="43.99879" lon="3.58858">
        <ele>360</ele>
        <time>2012-03-03T16:51:11Z</time>
      </trkpt>
      <trkpt lat="43.99893" lon="3.58852">
        <ele>359</ele>
        <time>2012-03-03T16:51:16Z</time>
      </trkpt>
      <trkpt lat="43.99906" lon="3.58845">
        <ele>355</ele>
        <time>2012-03-03T16:51:21Z</time>
      </trkpt>
      <trkpt lat="43.9992" lon="3.58842">
        <ele>354</ele>
        <time>2012-03-03T16:51:26Z</time>
      </trkpt>
      <trkpt lat="43.99933" lon="3.5884">
        <ele>356</ele>
        <time>2012-03-03T16:51:31Z</time>
      </trkpt>
      <trkpt lat="43.99948" lon="3.58838">
        <ele>358</ele>
        <time>2012-03-03T16:51:36Z</time>
      </trkpt>
      <trkpt lat="43.99961" lon="3.58839">
        <ele>359</ele>
        <time>2012-03-03T16:51:41Z</time>
      </trkpt>
      <trkpt lat="43.99973" lon="3.5884">
        <ele>358</ele>
        <time>2012-03-03T16:51:46Z</time>
      </trkpt>
      <trkpt lat="43.99986" lon="3.58841">
        <ele>356</ele>
        <time>2012-03-03T16:51:51Z</time>
      </trkpt>
      <trkpt lat="43.99996" lon="3.58842">
        <ele>354</ele>
        <time>2012-03-03T16:51:56Z</time>
      </trkpt>
      <trkpt lat="44.00008" lon="3.58841">
        <ele>353</ele>
        <time>2012-03-03T16:52:01Z</time>
      </trkpt>
      <trkpt lat="44.0002" lon="3.58837">
        <ele>354</ele>
        <time>2012-03-03T16:52:06Z</time>
      </trkpt>
      <trkpt lat="44.00031" lon="3.58831">
        <ele>344</ele>
        <time>2012-03-03T16:52:11Z</time>
      </trkpt>
      <trkpt lat="44.00041" lon="3.58823">
        <ele>343</ele>
        <time>2012-03-03T16:52:16Z</time>
      </trkpt>
      <trkpt lat="44.00053" lon="3.58813">
        <ele>343</ele>
        <time>2012-03-03T16:52:21Z</time>
      </trkpt>
      <trkpt lat="44.00065" lon="3.58815">
        <ele>343</ele>
        <time>2012-03-03T16:52:26Z</time>
      </trkpt>
      <trkpt lat="44.00078" lon="3.58826">
        <ele>344</ele>
        <time>2012-03-03T16:52:31Z</time>
      </trkpt>
      <trkpt lat="44.00089" lon="3.58832">
        <ele>344</ele>
        <time>2012-03-03T16:52:36Z</time>
      </trkpt>
      <trkpt lat="44.00094" lon="3.58816">
        <ele>343</ele>
        <time>2012-03-03T16:52:41Z</time>
      </trkpt>
      <trkpt lat="44.00095" lon="3.58803">
        <ele>342</ele>
        <time>2012-03-03T16:52:46Z</time>
      </trkpt>
      <trkpt lat="44.001" lon="3.58785">
        <ele>342</ele>
        <time>2012-03-03T16:52:51Z</time>
      </trkpt>
      <trkpt lat="44.00107" lon="3.58776">
        <ele>341</ele>
        <time>2012-03-03T16:52:56Z</time>
      </trkpt>
      <trkpt lat="44.00119" lon="3.58782">
        <ele>342</ele>
        <time>2012-03-03T16:53:01Z</time>
      </trkpt>
      <trkpt lat="44.00124" lon="3.58791">
        <ele>342</ele>
        <time>2012-03-03T16:53:06Z</time>
      </trkpt>
      <trkpt lat="44.00133" lon="3.58795">
        <ele>342</ele>
        <time>2012-03-03T16:53:11Z</time>
      </trkpt>
      <trkpt lat="44.00143" lon="3.58798">
        <ele>342</ele>
        <time>2012-03-03T16:53:16Z</time>
      </trkpt>
      <trkpt lat="44.00153" lon="3.58794">
        <ele>342</ele>
        <time>2012-03-03T16:53:21Z</time>
      </trkpt>
      <trkpt lat="44.00162" lon="3.58794">
        <ele>342</ele>
        <time>2012-03-03T16:53:26Z</time>
      </trkpt>
      <trkpt lat="44.0017" lon="3.58796">
        <ele>342</ele>
        <time>2012-03-03T16:53:31Z</time>
      </trkpt>
      <trkpt lat="44.00182" lon="3.58796">
        <ele>342</ele>
        <time>2012-03-03T16:53:36Z</time>
      </trkpt>
      <trkpt lat="44.00192" lon="3.58791">
        <ele>342</ele>
        <time>2012-03-03T16:53:41Z</time>
      </trkpt>
      <trkpt lat="44.00203" lon="3.5879">
        <ele>342</ele>
        <time>2012-03-03T16:53:46Z</time>
      </trkpt>
      <trkpt lat="44.00212" lon="3.58792">
        <ele>342</ele>
        <time>2012-03-03T16:53:51Z</time>
      </trkpt>
      <trkpt lat="44.00223" lon="3.58785">
        <ele>342</ele>
        <time>2012-03-03T16:53:56Z</time>
      </trkpt>
      <trkpt lat="44.00234" lon="3.58786">
        <ele>342</ele>
        <time>2012-03-03T16:54:01Z</time>
      </trkpt>
      <trkpt lat="44.00244" lon="3.58781">
        <ele>342</ele>
        <time>2012-03-03T16:54:06Z</time>
      </trkpt>
      <trkpt lat="44.00253" lon="3.58778">
        <ele>344</ele>
        <time>2012-03-03T16:54:11Z</time>
      </trkpt>
      <trkpt lat="44.00254" lon="3.58772">
        <ele>344</ele>
        <time>2012-03-03T16:54:16Z</time>
      </trkpt>
      <trkpt lat="44.00258" lon="3.58768">
        <ele>344</ele>
        <time>2012-03-03T16:54:21Z</time>
      </trkpt>
      <trkpt lat="44.00267" lon="3.5877">
        <ele>345</ele>
        <time>2012-03-03T16:54:26Z</time>
      </trkpt>
      <trkpt lat="44.00275" lon="3.58773">
        <ele>345</ele>
        <time>2012-03-03T16:54:31Z</time>
      </trkpt>
      <trkpt lat="44.00284" lon="3.58775">
        <ele>345</ele>
        <time>2012-03-03T16:54:36Z</time>
      </trkpt>
      <trkpt lat="44.00292" lon="3.58777">
        <ele>345</ele>
        <time>2012-03-03T16:54:41Z</time>
      </trkpt>
      <trkpt lat="44.00296" lon="3.58769">
        <ele>346</ele>
        <time>2012-03-03T16:54:46Z</time>
      </trkpt>
      <trkpt lat="44.003" lon="3.58756">
        <ele>346</ele>
        <time>2012-03-03T16:54:51Z</time>
      </trkpt>
      <trkpt lat="44.003" lon="3.58743">
        <ele>350</ele>
        <time>2012-03-03T16:54:56Z</time>
      </trkpt>
      <trkpt lat="44.00301" lon="3.5873">
        <ele>350</ele>
        <time>2012-03-03T16:55:01Z</time>
      </trkpt>
      <trkpt lat="44.00304" lon="3.58715">
        <ele>350</ele>
        <time>2012-03-03T16:55:06Z</time>
      </trkpt>
      <trkpt lat="44.00306" lon="3.58703">
        <ele>351</ele>
        <time>2012-03-03T16:55:11Z</time>
      </trkpt>
      <trkpt lat="44.00307" lon="3.58692">
        <ele>351</ele>
        <time>2012-03-03T16:55:16Z</time>
      </trkpt>
      <trkpt lat="44.00309" lon="3.58679">
        <ele>352</ele>
        <time>2012-03-03T16:55:21Z</time>
      </trkpt>
      <trkpt lat="44.00314" lon="3.58674">
        <ele>353</ele>
        <time>2012-03-03T16:55:26Z</time>
      </trkpt>
      <trkpt lat="44.00322" lon="3.58674">
        <ele>354</ele>
        <time>2012-03-03T16:55:31Z</time>
      </trkpt>
      <trkpt lat="44.00328" lon="3.58686">
        <ele>353</ele>
        <time>2012-03-03T16:55:36Z</time>
      </trkpt>
      <trkpt lat="44.00331" lon="3.58702">
        <ele>352</ele>
        <time>2012-03-03T16:55:41Z</time>
      </trkpt>
      <trkpt lat="44.00337" lon="3.58708">
        <ele>356</ele>
        <time>2012-03-03T16:55:46Z</time>
      </trkpt>
      <trkpt lat="44.00338" lon="3.58709">
        <ele>356</ele>
        <time>2012-03-03T16:55:51Z</time>
      </trkpt>
      <trkpt lat="44.0034" lon="3.58708">
        <ele>356</ele>
        <time>2012-03-03T16:55:56Z</time>
      </trkpt>
      <trkpt lat="44.00339" lon="3.58704">
        <ele>356</ele>
        <time>2012-03-03T16:56:01Z</time>
      </trkpt>
      <trkpt lat="44.0034" lon="3.58697">
        <ele>356</ele>
        <time>2012-03-03T16:56:06Z</time>
      </trkpt>
      <trkpt lat="44.0034" lon="3.58698">
        <ele>356</ele>
        <time>2012-03-03T16:56:11Z</time>
      </trkpt>
      <trkpt lat="44.0034" lon="3.58698">
        <ele>356</ele>
        <time>2012-03-03T16:56:16Z</time>
      </trkpt>
      <trkpt lat="44.00341" lon="3.58694">
        <ele>356</ele>
        <time>2012-03-03T16:56:21Z</time>
      </trkpt>
      <trkpt lat="44.0034" lon="3.5869">
        <ele>356</ele>
        <time>2012-03-03T16:56:26Z</time>
      </trkpt>
      <trkpt lat="44.00341" lon="3.58686">
        <ele>356</ele>
        <time>2012-03-03T16:56:31Z</time>
      </trkpt>
      <trkpt lat="44.00341" lon="3.58686">
        <ele>356</ele>
        <time>2012-03-03T16:56:36Z</time>
      </trkpt>
      <trkpt lat="44.00343" lon="3.5869">
        <ele>356</ele>
        <time>2012-03-03T16:56:41Z</time>
      </trkpt>
      <trkpt lat="44.00346" lon="3.58693">
        <ele>356</ele>
        <time>2012-03-03T16:56:46Z</time>
      </trkpt>
      <trkpt lat="44.00346" lon="3.58692">
        <ele>356</ele>
        <time>2012-03-03T16:56:51Z</time>
      </trkpt>
      <trkpt lat="44.00347" lon="3.58692">
        <ele>356</ele>
        <time>2012-03-03T16:56:56Z</time>
      </trkpt>
      <trkpt lat="44.00346" lon="3.58691">
        <ele>356</ele>
        <time>2012-03-03T16:57:01Z</time>
      </trkpt>
      <trkpt lat="44.00348" lon="3.58693">
        <ele>356</ele>
        <time>2012-03-03T16:57:06Z</time>
      </trkpt>
      <trkpt lat="44.00346" lon="3.58692">
        <ele>356</ele>
        <time>2012-03-03T16:57:11Z</time>
      </trkpt>
      <trkpt lat="44.00346" lon="3.58692">
        <ele>356</ele>
        <time>2012-03-03T16:57:16Z</time>
      </trkpt>
      <trkpt lat="44.00346" lon="3.58693">
        <ele>356</ele>
        <time>2012-03-03T16:57:21Z</time>
      </trkpt>
      <trkpt lat="44.00348" lon="3.58697">
        <ele>356</ele>
        <time>2012-03-03T16:57:26Z</time>
      </trkpt>
      <trkpt lat="44.00347" lon="3.58696">
        <ele>356</ele>
        <time>2012-03-03T16:57:31Z</time>
      </trkpt>
      <trkpt lat="44.00348" lon="3.58699">
        <ele>356</ele>
        <time>2012-03-03T16:57:36Z</time>
      </trkpt>
      <trkpt lat="44.00347" lon="3.587">
        <ele>356</ele>
        <time>2012-03-03T16:57:41Z</time>
      </trkpt>
      <trkpt lat="44.00344" lon="3.58702">
        <ele>356</ele>
        <time>2012-03-03T16:57:46Z</time>
      </trkpt>
      <trkpt lat="44.00342" lon="3.58701">
        <ele>356</ele>
        <time>2012-03-03T16:57:51Z</time>
      </trkpt>
      <trkpt lat="44.00343" lon="3.58697">
        <ele>356</ele>
        <time>2012-03-03T16:57:56Z</time>
      </trkpt>
      <trkpt lat="44.00342" lon="3.58695">
        <ele>356</ele>
        <time>2012-03-03T16:58:01Z</time>
      </trkpt>
      <trkpt lat="44.00341" lon="3.58695">
        <ele>356</ele>
        <time>2012-03-03T16:58:06Z</time>
      </trkpt>
      <trkpt lat="44.00341" lon="3.58697">
        <ele>356</ele>
        <time>2012-03-03T16:58:11Z</time>
      </trkpt>
      <trkpt lat="44.00341" lon="3.58697">
        <ele>356</ele>
        <time>2012-03-03T16:58:16Z</time>
      </trkpt>
      <trkpt lat="44.00341" lon="3.58699">
        <ele>356</ele>
        <time>2012-03-03T16:58:21Z</time>
      </trkpt>
      <trkpt lat="44.0034" lon="3.58702">
        <ele>356</ele>
        <time>2012-03-03T16:58:26Z</time>
      </trkpt>
      <trkpt lat="44.00338" lon="3.58703">
        <ele>356</ele>
        <time>2012-03-03T16:58:31Z</time>
      </trkpt>
      <trkpt lat="44.00338" lon="3.587">
        <ele>356</ele>
        <time>2012-03-03T16:58:36Z</time>
      </trkpt>
      <trkpt lat="44.00336" lon="3.58696">
        <ele>356</ele>
        <time>2012-03-03T16:58:41Z</time>
      </trkpt>
      <trkpt lat="44.0033" lon="3.58692">
        <ele>352</ele>
        <time>2012-03-03T16:58:46Z</time>
      </trkpt>
      <trkpt lat="44.00327" lon="3.58687">
        <ele>353</ele>
        <time>2012-03-03T16:58:51Z</time>
      </trkpt>
      <trkpt lat="44.00329" lon="3.5868">
        <ele>353</ele>
        <time>2012-03-03T16:58:56Z</time>
      </trkpt>
      <trkpt lat="44.00334" lon="3.58675">
        <ele>356</ele>
        <time>2012-03-03T16:59:01Z</time>
      </trkpt>
      <trkpt lat="44.0034" lon="3.58673">
        <ele>356</ele>
        <time>2012-03-03T16:59:06Z</time>
      </trkpt>
      <trkpt lat="44.00345" lon="3.58673">
        <ele>356</ele>
        <time>2012-03-03T16:59:11Z</time>
      </trkpt>
      <trkpt lat="44.0035" lon="3.58676">
        <ele>357</ele>
        <time>2012-03-03T16:59:16Z</time>
      </trkpt>
      <trkpt lat="44.00356" lon="3.58675">
        <ele>357</ele>
        <time>2012-03-03T16:59:21Z</time>
      </trkpt>
      <trkpt lat="44.00361" lon="3.58672">
        <ele>357</ele>
        <time>2012-03-03T16:59:26Z</time>
      </trkpt>
      <trkpt lat="44.00368" lon="3.58669">
        <ele>357</ele>
        <time>2012-03-03T16:59:31Z</time>
      </trkpt>
      <trkpt lat="44.00375" lon="3.58667">
        <ele>358</ele>
        <time>2012-03-03T16:59:36Z</time>
      </trkpt>
      <trkpt lat="44.00381" lon="3.58665">
        <ele>361</ele>
        <time>2012-03-03T16:59:41Z</time>
      </trkpt>
      <trkpt lat="44.00387" lon="3.58664">
        <ele>361</ele>
        <time>2012-03-03T16:59:46Z</time>
      </trkpt>
      <trkpt lat="44.00392" lon="3.58663">
        <ele>362</ele>
        <time>2012-03-03T16:59:51Z</time>
      </trkpt>
      <trkpt lat="44.00398" lon="3.58661">
        <ele>362</ele>
        <time>2012-03-03T16:59:56Z</time>
      </trkpt>
      <trkpt lat="44.00405" lon="3.58658">
        <ele>362</ele>
        <time>2012-03-03T17:00:01Z</time>
      </trkpt>
      <trkpt lat="44.00412" lon="3.58654">
        <ele>362</ele>
        <time>2012-03-03T17:00:06Z</time>
      </trkpt>
      <trkpt lat="44.00419" lon="3.5865">
        <ele>367</ele>
        <time>2012-03-03T17:00:11Z</time>
      </trkpt>
      <trkpt lat="44.00423" lon="3.58646">
        <ele>368</ele>
        <time>2012-03-03T17:00:16Z</time>
      </trkpt>
      <trkpt lat="44.00421" lon="3.58637">
        <ele>369</ele>
        <time>2012-03-03T17:00:21Z</time>
      </trkpt>
      <trkpt lat="44.00422" lon="3.58628">
        <ele>370</ele>
        <time>2012-03-03T17:00:26Z</time>
      </trkpt>
      <trkpt lat="44.00425" lon="3.58619">
        <ele>371</ele>
        <time>2012-03-03T17:00:31Z</time>
      </trkpt>
      <trkpt lat="44.00429" lon="3.58613">
        <ele>371</ele>
        <time>2012-03-03T17:00:36Z</time>
      </trkpt>
      <trkpt lat="44.00431" lon="3.58608">
        <ele>371</ele>
        <time>2012-03-03T17:00:41Z</time>
      </trkpt>
      <trkpt lat="44.00435" lon="3.586">
        <ele>372</ele>
        <time>2012-03-03T17:00:46Z</time>
      </trkpt>
      <trkpt lat="44.00437" lon="3.58593">
        <ele>372</ele>
        <time>2012-03-03T17:00:51Z</time>
      </trkpt>
      <trkpt lat="44.00434" lon="3.58588">
        <ele>372</ele>
        <time>2012-03-03T17:00:56Z</time>
      </trkpt>
      <trkpt lat="44.0043" lon="3.58584">
        <ele>371</ele>
        <time>2012-03-03T17:01:01Z</time>
      </trkpt>
      <trkpt lat="44.00428" lon="3.58574">
        <ele>377</ele>
        <time>2012-03-03T17:01:06Z</time>
      </trkpt>
      <trkpt lat="44.00429" lon="3.58565">
        <ele>379</ele>
        <time>2012-03-03T17:01:11Z</time>
      </trkpt>
      <trkpt lat="44.0043" lon="3.58555">
        <ele>381</ele>
        <time>2012-03-03T17:01:16Z</time>
      </trkpt>
      <trkpt lat="44.00431" lon="3.58545">
        <ele>383</ele>
        <time>2012-03-03T17:01:21Z</time>
      </trkpt>
      <trkpt lat="44.00433" lon="3.58541">
        <ele>384</ele>
        <time>2012-03-03T17:01:26Z</time>
      </trkpt>
      <trkpt lat="44.00435" lon="3.58537">
        <ele>384</ele>
        <time>2012-03-03T17:01:31Z</time>
      </trkpt>
      <trkpt lat="44.00436" lon="3.58533">
        <ele>385</ele>
        <time>2012-03-03T17:01:36Z</time>
      </trkpt>
      <trkpt lat="44.00437" lon="3.58527">
        <ele>385</ele>
        <time>2012-03-03T17:01:41Z</time>
      </trkpt>
      <trkpt lat="44.00438" lon="3.58523">
        <ele>385</ele>
        <time>2012-03-03T17:01:46Z</time>
      </trkpt>
      <trkpt lat="44.00438" lon="3.58518">
        <ele>386</ele>
        <time>2012-03-03T17:01:51Z</time>
      </trkpt>
      <trkpt lat="44.00439" lon="3.58512">
        <ele>386</ele>
        <time>2012-03-03T17:01:56Z</time>
      </trkpt>
      <trkpt lat="44.00438" lon="3.58507">
        <ele>386</ele>
        <time>2012-03-03T17:02:01Z</time>
      </trkpt>
      <trkpt lat="44.00438" lon="3.585">
        <ele>396</ele>
        <time>2012-03-03T17:02:06Z</time>
      </trkpt>
      <trkpt lat="44.00439" lon="3.58495">
        <ele>397</ele>
        <time>2012-03-03T17:02:11Z</time>
      </trkpt>
      <trkpt lat="44.00437" lon="3.5849">
        <ele>397</ele>
        <time>2012-03-03T17:02:16Z</time>
      </trkpt>
      <trkpt lat="44.00434" lon="3.58485">
        <ele>397</ele>
        <time>2012-03-03T17:02:21Z</time>
      </trkpt>
      <trkpt lat="44.0043" lon="3.58482">
        <ele>397</ele>
        <time>2012-03-03T17:02:26Z</time>
      </trkpt>
      <trkpt lat="44.00427" lon="3.58478">
        <ele>398</ele>
        <time>2012-03-03T17:02:31Z</time>
      </trkpt>
      <trkpt lat="44.0042" lon="3.58471">
        <ele>399</ele>
        <time>2012-03-03T17:02:36Z</time>
      </trkpt>
      <trkpt lat="44.0041" lon="3.58465">
        <ele>389</ele>
        <time>2012-03-03T17:02:41Z</time>
      </trkpt>
      <trkpt lat="44.00405" lon="3.58463">
        <ele>389</ele>
        <time>2012-03-03T17:02:46Z</time>
      </trkpt>
      <trkpt lat="44.004" lon="3.58458">
        <ele>389</ele>
        <time>2012-03-03T17:02:51Z</time>
      </trkpt>
      <trkpt lat="44.00394" lon="3.58455">
        <ele>390</ele>
        <time>2012-03-03T17:02:56Z</time>
      </trkpt>
      <trkpt lat="44.00388" lon="3.58454">
        <ele>389</ele>
        <time>2012-03-03T17:03:01Z</time>
      </trkpt>
      <trkpt lat="44.00382" lon="3.58454">
        <ele>389</ele>
        <time>2012-03-03T17:03:06Z</time>
      </trkpt>
      <trkpt lat="44.00375" lon="3.58453">
        <ele>389</ele>
        <time>2012-03-03T17:03:11Z</time>
      </trkpt>
      <trkpt lat="44.00369" lon="3.58451">
        <ele>389</ele>
        <time>2012-03-03T17:03:16Z</time>
      </trkpt>
      <trkpt lat="44.00364" lon="3.5845">
        <ele>389</ele>
        <time>2012-03-03T17:03:21Z</time>
      </trkpt>
      <trkpt lat="44.00358" lon="3.58447">
        <ele>389</ele>
        <time>2012-03-03T17:03:26Z</time>
      </trkpt>
      <trkpt lat="44.00352" lon="3.58444">
        <ele>389</ele>
        <time>2012-03-03T17:03:31Z</time>
      </trkpt>
      <trkpt lat="44.00345" lon="3.58441">
        <ele>389</ele>
        <time>2012-03-03T17:03:36Z</time>
      </trkpt>
      <trkpt lat="44.00339" lon="3.58437">
        <ele>389</ele>
        <time>2012-03-03T17:03:41Z</time>
      </trkpt>
      <trkpt lat="44.00333" lon="3.58434">
        <ele>386</ele>
        <time>2012-03-03T17:03:46Z</time>
      </trkpt>
      <trkpt lat="44.00327" lon="3.58429">
        <ele>387</ele>
        <time>2012-03-03T17:03:51Z</time>
      </trkpt>
      <trkpt lat="44.00322" lon="3.58421">
        <ele>387</ele>
        <time>2012-03-03T17:03:56Z</time>
      </trkpt>
      <trkpt lat="44.00317" lon="3.58415">
        <ele>390</ele>
        <time>2012-03-03T17:04:01Z</time>
      </trkpt>
      <trkpt lat="44.00312" lon="3.58411">
        <ele>390</ele>
        <time>2012-03-03T17:04:06Z</time>
      </trkpt>
      <trkpt lat="44.00308" lon="3.58406">
        <ele>390</ele>
        <time>2012-03-03T17:04:11Z</time>
      </trkpt>
      <trkpt lat="44.00303" lon="3.58401">
        <ele>389</ele>
        <time>2012-03-03T17:04:16Z</time>
      </trkpt>
      <trkpt lat="44.00298" lon="3.58394">
        <ele>389</ele>
        <time>2012-03-03T17:04:21Z</time>
      </trkpt>
      <trkpt lat="44.00294" lon="3.58389">
        <ele>389</ele>
        <time>2012-03-03T17:04:26Z</time>
      </trkpt>
      <trkpt lat="44.0029" lon="3.58385">
        <ele>388</ele>
        <time>2012-03-03T17:04:31Z</time>
      </trkpt>
      <trkpt lat="44.00286" lon="3.58375">
        <ele>388</ele>
        <time>2012-03-03T17:04:36Z</time>
      </trkpt>
      <trkpt lat="44.00289" lon="3.5837">
        <ele>389</ele>
        <time>2012-03-03T17:04:41Z</time>
      </trkpt>
      <trkpt lat="44.00293" lon="3.5837">
        <ele>389</ele>
        <time>2012-03-03T17:04:46Z</time>
      </trkpt>
      <trkpt lat="44.00296" lon="3.58369">
        <ele>389</ele>
        <time>2012-03-03T17:04:51Z</time>
      </trkpt>
      <trkpt lat="44.00299" lon="3.58367">
        <ele>390</ele>
        <time>2012-03-03T17:04:56Z</time>
      </trkpt>
      <trkpt lat="44.00304" lon="3.58365">
        <ele>390</ele>
        <time>2012-03-03T17:05:01Z</time>
      </trkpt>
      <trkpt lat="44.00307" lon="3.58363">
        <ele>391</ele>
        <time>2012-03-03T17:05:06Z</time>
      </trkpt>
      <trkpt lat="44.00312" lon="3.5836">
        <ele>392</ele>
        <time>2012-03-03T17:05:11Z</time>
      </trkpt>
      <trkpt lat="44.00315" lon="3.58357">
        <ele>392</ele>
        <time>2012-03-03T17:05:16Z</time>
      </trkpt>
      <trkpt lat="44.00318" lon="3.58353">
        <ele>393</ele>
        <time>2012-03-03T17:05:21Z</time>
      </trkpt>
      <trkpt lat="44.00321" lon="3.58349">
        <ele>395</ele>
        <time>2012-03-03T17:05:26Z</time>
      </trkpt>
      <trkpt lat="44.00324" lon="3.58345">
        <ele>396</ele>
        <time>2012-03-03T17:05:31Z</time>
      </trkpt>
      <trkpt lat="44.00327" lon="3.58341">
        <ele>398</ele>
        <time>2012-03-03T17:05:36Z</time>
      </trkpt>
      <trkpt lat="44.00331" lon="3.58335">
        <ele>400</ele>
        <time>2012-03-03T17:05:41Z</time>
      </trkpt>
      <trkpt lat="44.00334" lon="3.58329">
        <ele>404</ele>
        <time>2012-03-03T17:05:46Z</time>
      </trkpt>
      <trkpt lat="44.00336" lon="3.58322">
        <ele>406</ele>
        <time>2012-03-03T17:05:51Z</time>
      </trkpt>
      <trkpt lat="44.00339" lon="3.58316">
        <ele>408</ele>
        <time>2012-03-03T17:05:56Z</time>
      </trkpt>
      <trkpt lat="44.00341" lon="3.58312">
        <ele>409</ele>
        <time>2012-03-03T17:06:01Z</time>
      </trkpt>
      <trkpt lat="44.00343" lon="3.58307">
        <ele>410</ele>
        <time>2012-03-03T17:06:06Z</time>
      </trkpt>
      <trkpt lat="44.00347" lon="3.58301">
        <ele>410</ele>
        <time>2012-03-03T17:06:11Z</time>
      </trkpt>
      <trkpt lat="44.0035" lon="3.58294">
        <ele>411</ele>
        <time>2012-03-03T17:06:16Z</time>
      </trkpt>
      <trkpt lat="44.00354" lon="3.58287">
        <ele>412</ele>
        <time>2012-03-03T17:06:21Z</time>
      </trkpt>
      <trkpt lat="44.00356" lon="3.58279">
        <ele>412</ele>
        <time>2012-03-03T17:06:26Z</time>
      </trkpt>
      <trkpt lat="44.00363" lon="3.58273">
        <ele>413</ele>
        <time>2012-03-03T17:06:31Z</time>
      </trkpt>
      <trkpt lat="44.00367" lon="3.58267">
        <ele>414</ele>
        <time>2012-03-03T17:06:36Z</time>
      </trkpt>
      <trkpt lat="44.00371" lon="3.58261">
        <ele>414</ele>
        <time>2012-03-03T17:06:41Z</time>
      </trkpt>
      <trkpt lat="44.00375" lon="3.58255">
        <ele>415</ele>
        <time>2012-03-03T17:06:46Z</time>
      </trkpt>
      <trkpt lat="44.00378" lon="3.5825">
        <ele>418</ele>
        <time>2012-03-03T17:06:51Z</time>
      </trkpt>
      <trkpt lat="44.00381" lon="3.58242">
        <ele>419</ele>
        <time>2012-03-03T17:06:56Z</time>
      </trkpt>
      <trkpt lat="44.00386" lon="3.58236">
        <ele>420</ele>
        <time>2012-03-03T17:07:01Z</time>
      </trkpt>
      <trkpt lat="44.0039" lon="3.58231">
        <ele>420</ele>
        <time>2012-03-03T17:07:06Z</time>
      </trkpt>
      <trkpt lat="44.00394" lon="3.58225">
        <ele>421</ele>
        <time>2012-03-03T17:07:11Z</time>
      </trkpt>
      <trkpt lat="44.00398" lon="3.58218">
        <ele>421</ele>
        <time>2012-03-03T17:07:16Z</time>
      </trkpt>
      <trkpt lat="44.00401" lon="3.58211">
        <ele>421</ele>
        <time>2012-03-03T17:07:21Z</time>
      </trkpt>
      <trkpt lat="44.00404" lon="3.58203">
        <ele>422</ele>
        <time>2012-03-03T17:07:26Z</time>
      </trkpt>
      <trkpt lat="44.00406" lon="3.58197">
        <ele>422</ele>
        <time>2012-03-03T17:07:31Z</time>
      </trkpt>
      <trkpt lat="44.00405" lon="3.5819">
        <ele>423</ele>
        <time>2012-03-03T17:07:36Z</time>
      </trkpt>
      <trkpt lat="44.00406" lon="3.58183">
        <ele>424</ele>
        <time>2012-03-03T17:07:41Z</time>
      </trkpt>
      <trkpt lat="44.00408" lon="3.58179">
        <ele>425</ele>
        <time>2012-03-03T17:07:46Z</time>
      </trkpt>
      <trkpt lat="44.00411" lon="3.58176">
        <ele>427</ele>
        <time>2012-03-03T17:07:51Z</time>
      </trkpt>
      <trkpt lat="44.00415" lon="3.58171">
        <ele>429</ele>
        <time>2012-03-03T17:07:56Z</time>
      </trkpt>
      <trkpt lat="44.00416" lon="3.58165">
        <ele>431</ele>
        <time>2012-03-03T17:08:01Z</time>
      </trkpt>
      <trkpt lat="44.00417" lon="3.58158">
        <ele>429</ele>
        <time>2012-03-03T17:08:06Z</time>
      </trkpt>
      <trkpt lat="44.00417" lon="3.58149">
        <ele>443</ele>
        <time>2012-03-03T17:08:11Z</time>
      </trkpt>
      <trkpt lat="44.00417" lon="3.58139">
        <ele>446</ele>
        <time>2012-03-03T17:08:16Z</time>
      </trkpt>
      <trkpt lat="44.00416" lon="3.5813">
        <ele>425</ele>
        <time>2012-03-03T17:08:21Z</time>
      </trkpt>
      <trkpt lat="44.00415" lon="3.58123">
        <ele>425</ele>
        <time>2012-03-03T17:08:26Z</time>
      </trkpt>
      <trkpt lat="44.00415" lon="3.58116">
        <ele>426</ele>
        <time>2012-03-03T17:08:31Z</time>
      </trkpt>
      <trkpt lat="44.00414" lon="3.58109">
        <ele>427</ele>
        <time>2012-03-03T17:08:36Z</time>
      </trkpt>
      <trkpt lat="44.00413" lon="3.58099">
        <ele>429</ele>
        <time>2012-03-03T17:08:41Z</time>
      </trkpt>
      <trkpt lat="44.00412" lon="3.58089">
        <ele>432</ele>
        <time>2012-03-03T17:08:46Z</time>
      </trkpt>
      <trkpt lat="44.00411" lon="3.5808">
        <ele>435</ele>
        <time>2012-03-03T17:08:51Z</time>
      </trkpt>
      <trkpt lat="44.00411" lon="3.58072">
        <ele>433</ele>
        <time>2012-03-03T17:08:56Z</time>
      </trkpt>
      <trkpt lat="44.00409" lon="3.58064">
        <ele>432</ele>
        <time>2012-03-03T17:09:01Z</time>
      </trkpt>
      <trkpt lat="44.00407" lon="3.58056">
        <ele>432</ele>
        <time>2012-03-03T17:09:06Z</time>
      </trkpt>
      <trkpt lat="44.00405" lon="3.58046">
        <ele>432</ele>
        <time>2012-03-03T17:09:11Z</time>
      </trkpt>
      <trkpt lat="44.00405" lon="3.58038">
        <ele>432</ele>
        <time>2012-03-03T17:09:16Z</time>
      </trkpt>
      <trkpt lat="44.00404" lon="3.58031">
        <ele>433</ele>
        <time>2012-03-03T17:09:21Z</time>
      </trkpt>
      <trkpt lat="44.00403" lon="3.58024">
        <ele>434</ele>
        <time>2012-03-03T17:09:26Z</time>
      </trkpt>
      <trkpt lat="44.00402" lon="3.58017">
        <ele>436</ele>
        <time>2012-03-03T17:09:31Z</time>
      </trkpt>
      <trkpt lat="44.00401" lon="3.5801">
        <ele>437</ele>
        <time>2012-03-03T17:09:36Z</time>
      </trkpt>
      <trkpt lat="44.00401" lon="3.58004">
        <ele>438</ele>
        <time>2012-03-03T17:09:41Z</time>
      </trkpt>
      <trkpt lat="44.00403" lon="3.57998">
        <ele>443</ele>
        <time>2012-03-03T17:09:46Z</time>
      </trkpt>
      <trkpt lat="44.00403" lon="3.57993">
        <ele>443</ele>
        <time>2012-03-03T17:09:51Z</time>
      </trkpt>
      <trkpt lat="44.00404" lon="3.57987">
        <ele>443</ele>
        <time>2012-03-03T17:09:56Z</time>
      </trkpt>
      <trkpt lat="44.00404" lon="3.5798">
        <ele>443</ele>
        <time>2012-03-03T17:10:01Z</time>
      </trkpt>
      <trkpt lat="44.00403" lon="3.57972">
        <ele>443</ele>
        <time>2012-03-03T17:10:06Z</time>
      </trkpt>
      <trkpt lat="44.00402" lon="3.57964">
        <ele>443</ele>
        <time>2012-03-03T17:10:11Z</time>
      </trkpt>
      <trkpt lat="44.00403" lon="3.57956">
        <ele>443</ele>
        <time>2012-03-03T17:10:16Z</time>
      </trkpt>
      <trkpt lat="44.00403" lon="3.57948">
        <ele>444</ele>
        <time>2012-03-03T17:10:21Z</time>
      </trkpt>
      <trkpt lat="44.00404" lon="3.57941">
        <ele>445</ele>
        <time>2012-03-03T17:10:26Z</time>
      </trkpt>
      <trkpt lat="44.00406" lon="3.57933">
        <ele>447</ele>
        <time>2012-03-03T17:10:31Z</time>
      </trkpt>
      <trkpt lat="44.00408" lon="3.57926">
        <ele>450</ele>
        <time>2012-03-03T17:10:36Z</time>
      </trkpt>
      <trkpt lat="44.0041" lon="3.57919">
        <ele>452</ele>
        <time>2012-03-03T17:10:41Z</time>
      </trkpt>
      <trkpt lat="44.00412" lon="3.57912">
        <ele>455</ele>
        <time>2012-03-03T17:10:46Z</time>
      </trkpt>
      <trkpt lat="44.00413" lon="3.57903">
        <ele>455</ele>
        <time>2012-03-03T17:10:51Z</time>
      </trkpt>
      <trkpt lat="44.00413" lon="3.57895">
        <ele>455</ele>
        <time>2012-03-03T17:10:56Z</time>
      </trkpt>
      <trkpt lat="44.00414" lon="3.57886">
        <ele>456</ele>
        <time>2012-03-03T17:11:01Z</time>
      </trkpt>
      <trkpt lat="44.00415" lon="3.57878">
        <ele>456</ele>
        <time>2012-03-03T17:11:06Z</time>
      </trkpt>
      <trkpt lat="44.00412" lon="3.57872">
        <ele>457</ele>
        <time>2012-03-03T17:11:11Z</time>
      </trkpt>
      <trkpt lat="44.0041" lon="3.57868">
        <ele>457</ele>
        <time>2012-03-03T17:11:16Z</time>
      </trkpt>
      <trkpt lat="44.00407" lon="3.57864">
        <ele>458</ele>
        <time>2012-03-03T17:11:21Z</time>
      </trkpt>
      <trkpt lat="44.00404" lon="3.57861">
        <ele>458</ele>
        <time>2012-03-03T17:11:26Z</time>
      </trkpt>
      <trkpt lat="44.00399" lon="3.5786">
        <ele>458</ele>
        <time>2012-03-03T17:11:31Z</time>
      </trkpt>
      <trkpt lat="44.00395" lon="3.57857">
        <ele>458</ele>
        <time>2012-03-03T17:11:36Z</time>
      </trkpt>
      <trkpt lat="44.00391" lon="3.57852">
        <ele>458</ele>
        <time>2012-03-03T17:11:41Z</time>
      </trkpt>
      <trkpt lat="44.0039" lon="3.57848">
        <ele>458</ele>
        <time>2012-03-03T17:11:46Z</time>
      </trkpt>
      <trkpt lat="44.00388" lon="3.57843">
        <ele>458</ele>
        <time>2012-03-03T17:11:51Z</time>
      </trkpt>
      <trkpt lat="44.00388" lon="3.57836">
        <ele>458</ele>
        <time>2012-03-03T17:11:56Z</time>
      </trkpt>
      <trkpt lat="44.00388" lon="3.57831">
        <ele>468</ele>
        <time>2012-03-03T17:12:01Z</time>
      </trkpt>
      <trkpt lat="44.00388" lon="3.57826">
        <ele>469</ele>
        <time>2012-03-03T17:12:06Z</time>
      </trkpt>
      <trkpt lat="44.00387" lon="3.57822">
        <ele>469</ele>
        <time>2012-03-03T17:12:11Z</time>
      </trkpt>
      <trkpt lat="44.00385" lon="3.57819">
        <ele>469</ele>
        <time>2012-03-03T17:12:16Z</time>
      </trkpt>
      <trkpt lat="44.00383" lon="3.57812">
        <ele>469</ele>
        <time>2012-03-03T17:12:21Z</time>
      </trkpt>
      <trkpt lat="44.00381" lon="3.57804">
        <ele>470</ele>
        <time>2012-03-03T17:12:26Z</time>
      </trkpt>
      <trkpt lat="44.0038" lon="3.57801">
        <ele>470</ele>
        <time>2012-03-03T17:12:31Z</time>
      </trkpt>
      <trkpt lat="44.00378" lon="3.57795">
        <ele>471</ele>
        <time>2012-03-03T17:12:36Z</time>
      </trkpt>
      <trkpt lat="44.00378" lon="3.57787">
        <ele>472</ele>
        <time>2012-03-03T17:12:41Z</time>
      </trkpt>
      <trkpt lat="44.00376" lon="3.57783">
        <ele>472</ele>
        <time>2012-03-03T17:12:46Z</time>
      </trkpt>
      <trkpt lat="44.00376" lon="3.57777">
        <ele>473</ele>
        <time>2012-03-03T17:12:51Z</time>
      </trkpt>
      <trkpt lat="44.00375" lon="3.57773">
        <ele>473</ele>
        <time>2012-03-03T17:12:56Z</time>
      </trkpt>
      <trkpt lat="44.00374" lon="3.57771">
        <ele>473</ele>
        <time>2012-03-03T17:13:01Z</time>
      </trkpt>
      <trkpt lat="44.00374" lon="3.57766">
        <ele>473</ele>
        <time>2012-03-03T17:13:06Z</time>
      </trkpt>
      <trkpt lat="44.00374" lon="3.57761">
        <ele>474</ele>
        <time>2012-03-03T17:13:11Z</time>
      </trkpt>
      <trkpt lat="44.00373" lon="3.57762">
        <ele>473</ele>
        <time>2012-03-03T17:13:16Z</time>
      </trkpt>
      <trkpt lat="44.00372" lon="3.57759">
        <ele>474</ele>
        <time>2012-03-03T17:13:21Z</time>
      </trkpt>
      <trkpt lat="44.00372" lon="3.57753">
        <ele>474</ele>
        <time>2012-03-03T17:13:26Z</time>
      </trkpt>
      <trkpt lat="44.00371" lon="3.57749">
        <ele>486</ele>
        <time>2012-03-03T17:13:31Z</time>
      </trkpt>
      <trkpt lat="44.0037" lon="3.57742">
        <ele>486</ele>
        <time>2012-03-03T17:13:36Z</time>
      </trkpt>
      <trkpt lat="44.00369" lon="3.57738">
        <ele>486</ele>
        <time>2012-03-03T17:13:41Z</time>
      </trkpt>
      <trkpt lat="44.00366" lon="3.57731">
        <ele>486</ele>
        <time>2012-03-03T17:13:46Z</time>
      </trkpt>
      <trkpt lat="44.00364" lon="3.57723">
        <ele>487</ele>
        <time>2012-03-03T17:13:51Z</time>
      </trkpt>
      <trkpt lat="44.00362" lon="3.57717">
        <ele>488</ele>
        <time>2012-03-03T17:13:56Z</time>
      </trkpt>
      <trkpt lat="44.0036" lon="3.57711">
        <ele>488</ele>
        <time>2012-03-03T17:14:01Z</time>
      </trkpt>
      <trkpt lat="44.00357" lon="3.57703">
        <ele>489</ele>
        <time>2012-03-03T17:14:06Z</time>
      </trkpt>
      <trkpt lat="44.00353" lon="3.57697">
        <ele>489</ele>
        <time>2012-03-03T17:14:11Z</time>
      </trkpt>
      <trkpt lat="44.0035" lon="3.57692">
        <ele>490</ele>
        <time>2012-03-03T17:14:16Z</time>
      </trkpt>
      <trkpt lat="44.0035" lon="3.57688">
        <ele>490</ele>
        <time>2012-03-03T17:14:21Z</time>
      </trkpt>
      <trkpt lat="44.00347" lon="3.57682">
        <ele>490</ele>
        <time>2012-03-03T17:14:26Z</time>
      </trkpt>
      <trkpt lat="44.00345" lon="3.57677">
        <ele>490</ele>
        <time>2012-03-03T17:14:31Z</time>
      </trkpt>
      <trkpt lat="44.00343" lon="3.57672">
        <ele>490</ele>
        <time>2012-03-03T17:14:36Z</time>
      </trkpt>
      <trkpt lat="44.00341" lon="3.57671">
        <ele>490</ele>
        <time>2012-03-03T17:14:41Z</time>
      </trkpt>
      <trkpt lat="44.00339" lon="3.57666">
        <ele>494</ele>
        <time>2012-03-03T17:14:46Z</time>
      </trkpt>
      <trkpt lat="44.00339" lon="3.57661">
        <ele>495</ele>
        <time>2012-03-03T17:14:51Z</time>
      </trkpt>
      <trkpt lat="44.00341" lon="3.57659">
        <ele>496</ele>
        <time>2012-03-03T17:14:56Z</time>
      </trkpt>
      <trkpt lat="44.00339" lon="3.57657">
        <ele>496</ele>
        <time>2012-03-03T17:15:01Z</time>
      </trkpt>
      <trkpt lat="44.00338" lon="3.57655">
        <ele>497</ele>
        <time>2012-03-03T17:15:06Z</time>
      </trkpt>
      <trkpt lat="44.00337" lon="3.57651">
        <ele>498</ele>
        <time>2012-03-03T17:15:11Z</time>
      </trkpt>
      <trkpt lat="44.00335" lon="3.57645">
        <ele>500</ele>
        <time>2012-03-03T17:15:16Z</time>
      </trkpt>
      <trkpt lat="44.00332" lon="3.57641">
        <ele>500</ele>
        <time>2012-03-03T17:15:21Z</time>
      </trkpt>
      <trkpt lat="44.00331" lon="3.57636">
        <ele>501</ele>
        <time>2012-03-03T17:15:26Z</time>
      </trkpt>
      <trkpt lat="44.0033" lon="3.57632">
        <ele>501</ele>
        <time>2012-03-03T17:15:31Z</time>
      </trkpt>
      <trkpt lat="44.0033" lon="3.57628">
        <ele>502</ele>
        <time>2012-03-03T17:15:36Z</time>
      </trkpt>
      <trkpt lat="44.0033" lon="3.57622">
        <ele>503</ele>
        <time>2012-03-03T17:15:41Z</time>
      </trkpt>
      <trkpt lat="44.00328" lon="3.57619">
        <ele>503</ele>
        <time>2012-03-03T17:15:46Z</time>
      </trkpt>
      <trkpt lat="44.00327" lon="3.57616">
        <ele>504</ele>
        <time>2012-03-03T17:15:51Z</time>
      </trkpt>
      <trkpt lat="44.00325" lon="3.57614">
        <ele>504</ele>
        <time>2012-03-03T17:15:56Z</time>
      </trkpt>
      <trkpt lat="44.00324" lon="3.57611">
        <ele>504</ele>
        <time>2012-03-03T17:16:01Z</time>
      </trkpt>
      <trkpt lat="44.00322" lon="3.57606">
        <ele>505</ele>
        <time>2012-03-03T17:16:06Z</time>
      </trkpt>
      <trkpt lat="44.00321" lon="3.57603">
        <ele>505</ele>
        <time>2012-03-03T17:16:11Z</time>
      </trkpt>
      <trkpt lat="44.0032" lon="3.57597">
        <ele>505</ele>
        <time>2012-03-03T17:16:16Z</time>
      </trkpt>
      <trkpt lat="44.00319" lon="3.57591">
        <ele>505</ele>
        <time>2012-03-03T17:16:21Z</time>
      </trkpt>
      <trkpt lat="44.00318" lon="3.57584">
        <ele>505</ele>
        <time>2012-03-03T17:16:26Z</time>
      </trkpt>
      <trkpt lat="44.00318" lon="3.57578">
        <ele>508</ele>
        <time>2012-03-03T17:16:31Z</time>
      </trkpt>
      <trkpt lat="44.00317" lon="3.57574">
        <ele>508</ele>
        <time>2012-03-03T17:16:36Z</time>
      </trkpt>
      <trkpt lat="44.00314" lon="3.57573">
        <ele>508</ele>
        <time>2012-03-03T17:16:41Z</time>
      </trkpt>
      <trkpt lat="44.00312" lon="3.57571">
        <ele>509</ele>
        <time>2012-03-03T17:16:46Z</time>
      </trkpt>
      <trkpt lat="44.00309" lon="3.57567">
        <ele>509</ele>
        <time>2012-03-03T17:16:51Z</time>
      </trkpt>
      <trkpt lat="44.00306" lon="3.5756">
        <ele>509</ele>
        <time>2012-03-03T17:16:56Z</time>
      </trkpt>
      <trkpt lat="44.00305" lon="3.57555">
        <ele>510</ele>
        <time>2012-03-03T17:17:01Z</time>
      </trkpt>
      <trkpt lat="44.00304" lon="3.57547">
        <ele>510</ele>
        <time>2012-03-03T17:17:06Z</time>
      </trkpt>
      <trkpt lat="44.00305" lon="3.57536">
        <ele>509</ele>
        <time>2012-03-03T17:17:11Z</time>
      </trkpt>
      <trkpt lat="44.00305" lon="3.57524">
        <ele>509</ele>
        <time>2012-03-03T17:17:16Z</time>
      </trkpt>
      <trkpt lat="44.00305" lon="3.57513">
        <ele>509</ele>
        <time>2012-03-03T17:17:21Z</time>
      </trkpt>
      <trkpt lat="44.00305" lon="3.575">
        <ele>508</ele>
        <time>2012-03-03T17:17:26Z</time>
      </trkpt>
      <trkpt lat="44.00304" lon="3.57491">
        <ele>503</ele>
        <time>2012-03-03T17:17:31Z</time>
      </trkpt>
      <trkpt lat="44.00304" lon="3.57481">
        <ele>502</ele>
        <time>2012-03-03T17:17:36Z</time>
      </trkpt>
      <trkpt lat="44.00304" lon="3.57473">
        <ele>501</ele>
        <time>2012-03-03T17:17:41Z</time>
      </trkpt>
      <trkpt lat="44.00303" lon="3.57462">
        <ele>500</ele>
        <time>2012-03-03T17:17:46Z</time>
      </trkpt>
      <trkpt lat="44.00302" lon="3.57447">
        <ele>499</ele>
        <time>2012-03-03T17:17:51Z</time>
      </trkpt>
      <trkpt lat="44.00302" lon="3.57438">
        <ele>498</ele>
        <time>2012-03-03T17:17:56Z</time>
      </trkpt>
      <trkpt lat="44.00304" lon="3.57427">
        <ele>497</ele>
        <time>2012-03-03T17:18:01Z</time>
      </trkpt>
      <trkpt lat="44.00302" lon="3.57416">
        <ele>489</ele>
        <time>2012-03-03T17:18:06Z</time>
      </trkpt>
      <trkpt lat="44.00302" lon="3.57405">
        <ele>489</ele>
        <time>2012-03-03T17:18:11Z</time>
      </trkpt>
      <trkpt lat="44.00303" lon="3.57393">
        <ele>488</ele>
        <time>2012-03-03T17:18:16Z</time>
      </trkpt>
      <trkpt lat="44.00307" lon="3.57384">
        <ele>488</ele>
        <time>2012-03-03T17:18:21Z</time>
      </trkpt>
      <trkpt lat="44.00315" lon="3.57375">
        <ele>487</ele>
        <time>2012-03-03T17:18:26Z</time>
      </trkpt>
      <trkpt lat="44.00324" lon="3.57366">
        <ele>487</ele>
        <time>2012-03-03T17:18:31Z</time>
      </trkpt>
      <trkpt lat="44.00326" lon="3.57357">
        <ele>486</ele>
        <time>2012-03-03T17:18:36Z</time>
      </trkpt>
      <trkpt lat="44.00326" lon="3.5735">
        <ele>486</ele>
        <time>2012-03-03T17:18:41Z</time>
      </trkpt>
      <trkpt lat="44.00326" lon="3.57345">
        <ele>486</ele>
        <time>2012-03-03T17:18:46Z</time>
      </trkpt>
      <trkpt lat="44.00324" lon="3.57341">
        <ele>486</ele>
        <time>2012-03-03T17:18:51Z</time>
      </trkpt>
      <trkpt lat="44.00322" lon="3.57338">
        <ele>486</ele>
        <time>2012-03-03T17:18:56Z</time>
      </trkpt>
      <trkpt lat="44.00319" lon="3.57332">
        <ele>485</ele>
        <time>2012-03-03T17:19:01Z</time>
      </trkpt>
      <trkpt lat="44.00317" lon="3.57324">
        <ele>485</ele>
        <time>2012-03-03T17:19:06Z</time>
      </trkpt>
      <trkpt lat="44.00315" lon="3.57317">
        <ele>485</ele>
        <time>2012-03-03T17:19:11Z</time>
      </trkpt>
      <trkpt lat="44.00314" lon="3.57311">
        <ele>485</ele>
        <time>2012-03-03T17:19:16Z</time>
      </trkpt>
      <trkpt lat="44.00313" lon="3.57304">
        <ele>485</ele>
        <time>2012-03-03T17:19:21Z</time>
      </trkpt>
      <trkpt lat="44.00311" lon="3.57297">
        <ele>486</ele>
        <time>2012-03-03T17:19:26Z</time>
      </trkpt>
      <trkpt lat="44.00309" lon="3.57291">
        <ele>486</ele>
        <time>2012-03-03T17:19:31Z</time>
      </trkpt>
      <trkpt lat="44.00304" lon="3.5728">
        <ele>486</ele>
        <time>2012-03-03T17:19:36Z</time>
      </trkpt>
      <trkpt lat="44.00298" lon="3.57272">
        <ele>486</ele>
        <time>2012-03-03T17:19:41Z</time>
      </trkpt>
      <trkpt lat="44.00291" lon="3.57259">
        <ele>485</ele>
        <time>2012-03-03T17:19:46Z</time>
      </trkpt>
      <trkpt lat="44.00285" lon="3.57247">
        <ele>486</ele>
        <time>2012-03-03T17:19:51Z</time>
      </trkpt>
      <trkpt lat="44.00277" lon="3.57235">
        <ele>485</ele>
        <time>2012-03-03T17:19:56Z</time>
      </trkpt>
      <trkpt lat="44.00269" lon="3.57225">
        <ele>484</ele>
        <time>2012-03-03T17:20:01Z</time>
      </trkpt>
      <trkpt lat="44.00263" lon="3.57215">
        <ele>484</ele>
        <time>2012-03-03T17:20:06Z</time>
      </trkpt>
      <trkpt lat="44.00256" lon="3.57201">
        <ele>484</ele>
        <time>2012-03-03T17:20:11Z</time>
      </trkpt>
      <trkpt lat="44.0025" lon="3.57188">
        <ele>483</ele>
        <time>2012-03-03T17:20:16Z</time>
      </trkpt>
      <trkpt lat="44.00246" lon="3.57176">
        <ele>476</ele>
        <time>2012-03-03T17:20:21Z</time>
      </trkpt>
      <trkpt lat="44.0024" lon="3.57167">
        <ele>476</ele>
        <time>2012-03-03T17:20:26Z</time>
      </trkpt>
      <trkpt lat="44.00234" lon="3.57157">
        <ele>474</ele>
        <time>2012-03-03T17:20:31Z</time>
      </trkpt>
      <trkpt lat="44.00225" lon="3.5714">
        <ele>473</ele>
        <time>2012-03-03T17:20:36Z</time>
      </trkpt>
      <trkpt lat="44.00217" lon="3.57128">
        <ele>472</ele>
        <time>2012-03-03T17:20:41Z</time>
      </trkpt>
      <trkpt lat="44.00213" lon="3.57114">
        <ele>472</ele>
        <time>2012-03-03T17:20:46Z</time>
      </trkpt>
      <trkpt lat="44.0021" lon="3.57098">
        <ele>471</ele>
        <time>2012-03-03T17:20:51Z</time>
      </trkpt>
      <trkpt lat="44.00202" lon="3.57088">
        <ele>471</ele>
        <time>2012-03-03T17:20:56Z</time>
      </trkpt>
      <trkpt lat="44.00196" lon="3.57078">
        <ele>465</ele>
        <time>2012-03-03T17:21:01Z</time>
      </trkpt>
      <trkpt lat="44.00188" lon="3.57064">
        <ele>465</ele>
        <time>2012-03-03T17:21:06Z</time>
      </trkpt>
      <trkpt lat="44.00182" lon="3.57052">
        <ele>463</ele>
        <time>2012-03-03T17:21:11Z</time>
      </trkpt>
      <trkpt lat="44.00174" lon="3.57043">
        <ele>462</ele>
        <time>2012-03-03T17:21:16Z</time>
      </trkpt>
      <trkpt lat="44.00168" lon="3.57033">
        <ele>460</ele>
        <time>2012-03-03T17:21:21Z</time>
      </trkpt>
      <trkpt lat="44.00177" lon="3.57025">
        <ele>459</ele>
        <time>2012-03-03T17:21:26Z</time>
      </trkpt>
      <trkpt lat="44.00189" lon="3.5702">
        <ele>459</ele>
        <time>2012-03-03T17:21:31Z</time>
      </trkpt>
      <trkpt lat="44.00195" lon="3.57023">
        <ele>460</ele>
        <time>2012-03-03T17:21:36Z</time>
      </trkpt>
      <trkpt lat="44.00202" lon="3.57031">
        <ele>460</ele>
        <time>2012-03-03T17:21:41Z</time>
      </trkpt>
      <trkpt lat="44.00209" lon="3.57032">
        <ele>461</ele>
        <time>2012-03-03T17:21:46Z</time>
      </trkpt>
      <trkpt lat="44.00215" lon="3.57032">
        <ele>460</ele>
        <time>2012-03-03T17:21:51Z</time>
      </trkpt>
      <trkpt lat="44.0022" lon="3.57032">
        <ele>460</ele>
        <time>2012-03-03T17:21:56Z</time>
      </trkpt>
      <trkpt lat="44.00229" lon="3.5703">
        <ele>460</ele>
        <time>2012-03-03T17:22:01Z</time>
      </trkpt>
      <trkpt lat="44.00237" lon="3.57024">
        <ele>459</ele>
        <time>2012-03-03T17:22:06Z</time>
      </trkpt>
      <trkpt lat="44.00237" lon="3.57014">
        <ele>457</ele>
        <time>2012-03-03T17:22:11Z</time>
      </trkpt>
      <trkpt lat="44.00237" lon="3.57">
        <ele>450</ele>
        <time>2012-03-03T17:22:16Z</time>
      </trkpt>
      <trkpt lat="44.00237" lon="3.56984">
        <ele>449</ele>
        <time>2012-03-03T17:22:21Z</time>
      </trkpt>
      <trkpt lat="44.00236" lon="3.56974">
        <ele>447</ele>
        <time>2012-03-03T17:22:26Z</time>
      </trkpt>
      <trkpt lat="44.00234" lon="3.56966">
        <ele>446</ele>
        <time>2012-03-03T17:22:31Z</time>
      </trkpt>
      <trkpt lat="44.00232" lon="3.56956">
        <ele>445</ele>
        <time>2012-03-03T17:22:36Z</time>
      </trkpt>
      <trkpt lat="44.00236" lon="3.5694">
        <ele>444</ele>
        <time>2012-03-03T17:22:41Z</time>
      </trkpt>
      <trkpt lat="44.00236" lon="3.5693">
        <ele>443</ele>
        <time>2012-03-03T17:22:46Z</time>
      </trkpt>
      <trkpt lat="44.00235" lon="3.56916">
        <ele>437</ele>
        <time>2012-03-03T17:22:51Z</time>
      </trkpt>
      <trkpt lat="44.00235" lon="3.56903">
        <ele>436</ele>
        <time>2012-03-03T17:22:56Z</time>
      </trkpt>
      <trkpt lat="44.00237" lon="3.56887">
        <ele>435</ele>
        <time>2012-03-03T17:23:01Z</time>
      </trkpt>
      <trkpt lat="44.00237" lon="3.56873">
        <ele>434</ele>
        <time>2012-03-03T17:23:06Z</time>
      </trkpt>
      <trkpt lat="44.00233" lon="3.56856">
        <ele>434</ele>
        <time>2012-03-03T17:23:11Z</time>
      </trkpt>
      <trkpt lat="44.00227" lon="3.56836">
        <ele>434</ele>
        <time>2012-03-03T17:23:16Z</time>
      </trkpt>
      <trkpt lat="44.00223" lon="3.5682">
        <ele>428</ele>
        <time>2012-03-03T17:23:21Z</time>
      </trkpt>
      <trkpt lat="44.00218" lon="3.56805">
        <ele>426</ele>
        <time>2012-03-03T17:23:26Z</time>
      </trkpt>
      <trkpt lat="44.00214" lon="3.56792">
        <ele>425</ele>
        <time>2012-03-03T17:23:31Z</time>
      </trkpt>
      <trkpt lat="44.00209" lon="3.56777">
        <ele>424</ele>
        <time>2012-03-03T17:23:36Z</time>
      </trkpt>
      <trkpt lat="44.00205" lon="3.56766">
        <ele>422</ele>
        <time>2012-03-03T17:23:41Z</time>
      </trkpt>
      <trkpt lat="44.00202" lon="3.5675">
        <ele>416</ele>
        <time>2012-03-03T17:23:46Z</time>
      </trkpt>
      <trkpt lat="44.00203" lon="3.5673">
        <ele>415</ele>
        <time>2012-03-03T17:23:51Z</time>
      </trkpt>
      <trkpt lat="44.00206" lon="3.56716">
        <ele>415</ele>
        <time>2012-03-03T17:23:56Z</time>
      </trkpt>
      <trkpt lat="44.00205" lon="3.56704">
        <ele>414</ele>
        <time>2012-03-03T17:24:01Z</time>
      </trkpt>
      <trkpt lat="44.00208" lon="3.56686">
        <ele>413</ele>
        <time>2012-03-03T17:24:06Z</time>
      </trkpt>
      <trkpt lat="44.00215" lon="3.56668">
        <ele>414</ele>
        <time>2012-03-03T17:24:11Z</time>
      </trkpt>
      <trkpt lat="44.00222" lon="3.56655">
        <ele>405</ele>
        <time>2012-03-03T17:24:16Z</time>
      </trkpt>
      <trkpt lat="44.0023" lon="3.56643">
        <ele>405</ele>
        <time>2012-03-03T17:24:21Z</time>
      </trkpt>
      <trkpt lat="44.00238" lon="3.56632">
        <ele>404</ele>
        <time>2012-03-03T17:24:26Z</time>
      </trkpt>
      <trkpt lat="44.00244" lon="3.56625">
        <ele>403</ele>
        <time>2012-03-03T17:24:31Z</time>
      </trkpt>
      <trkpt lat="44.00252" lon="3.56625">
        <ele>407</ele>
        <time>2012-03-03T17:24:36Z</time>
      </trkpt>
      <trkpt lat="44.00264" lon="3.56626">
        <ele>408</ele>
        <time>2012-03-03T17:24:41Z</time>
      </trkpt>
      <trkpt lat="44.00273" lon="3.56622">
        <ele>407</ele>
        <time>2012-03-03T17:24:46Z</time>
      </trkpt>
      <trkpt lat="44.00281" lon="3.56617">
        <ele>406</ele>
        <time>2012-03-03T17:24:51Z</time>
      </trkpt>
      <trkpt lat="44.00292" lon="3.56613">
        <ele>406</ele>
        <time>2012-03-03T17:24:56Z</time>
      </trkpt>
      <trkpt lat="44.00301" lon="3.56609">
        <ele>405</ele>
        <time>2012-03-03T17:25:01Z</time>
      </trkpt>
      <trkpt lat="44.00309" lon="3.56602">
        <ele>404</ele>
        <time>2012-03-03T17:25:06Z</time>
      </trkpt>
      <trkpt lat="44.00316" lon="3.56593">
        <ele>402</ele>
        <time>2012-03-03T17:25:11Z</time>
      </trkpt>
      <trkpt lat="44.00317" lon="3.56581">
        <ele>396</ele>
        <time>2012-03-03T17:25:16Z</time>
      </trkpt>
      <trkpt lat="44.00314" lon="3.56572">
        <ele>396</ele>
        <time>2012-03-03T17:25:21Z</time>
      </trkpt>
      <trkpt lat="44.00309" lon="3.56565">
        <ele>395</ele>
        <time>2012-03-03T17:25:26Z</time>
      </trkpt>
      <trkpt lat="44.003" lon="3.56559">
        <ele>395</ele>
        <time>2012-03-03T17:25:31Z</time>
      </trkpt>
      <trkpt lat="44.00289" lon="3.56551">
        <ele>395</ele>
        <time>2012-03-03T17:25:36Z</time>
      </trkpt>
      <trkpt lat="44.00283" lon="3.56537">
        <ele>395</ele>
        <time>2012-03-03T17:25:41Z</time>
      </trkpt>
      <trkpt lat="44.00281" lon="3.56522">
        <ele>394</ele>
        <time>2012-03-03T17:25:46Z</time>
      </trkpt>
      <trkpt lat="44.0028" lon="3.56506">
        <ele>394</ele>
        <time>2012-03-03T17:25:51Z</time>
      </trkpt>
      <trkpt lat="44.0027" lon="3.56497">
        <ele>397</ele>
        <time>2012-03-03T17:25:56Z</time>
      </trkpt>
      <trkpt lat="44.00259" lon="3.56496">
        <ele>394</ele>
        <time>2012-03-03T17:26:01Z</time>
      </trkpt>
      <trkpt lat="44.00248" lon="3.56495">
        <ele>392</ele>
        <time>2012-03-03T17:26:06Z</time>
      </trkpt>
      <trkpt lat="44.00237" lon="3.56495">
        <ele>394</ele>
        <time>2012-03-03T17:26:11Z</time>
      </trkpt>
      <trkpt lat="44.00227" lon="3.56497">
        <ele>394</ele>
        <time>2012-03-03T17:26:16Z</time>
      </trkpt>
      <trkpt lat="44.00218" lon="3.565">
        <ele>391</ele>
        <time>2012-03-03T17:26:21Z</time>
      </trkpt>
      <trkpt lat="44.00207" lon="3.56503">
        <ele>390</ele>
        <time>2012-03-03T17:26:26Z</time>
      </trkpt>
      <trkpt lat="44.00196" lon="3.56505">
        <ele>390</ele>
        <time>2012-03-03T17:26:31Z</time>
      </trkpt>
      <trkpt lat="44.00185" lon="3.56505">
        <ele>390</ele>
        <time>2012-03-03T17:26:36Z</time>
      </trkpt>
      <trkpt lat="44.00173" lon="3.56503">
        <ele>389</ele>
        <time>2012-03-03T17:26:41Z</time>
      </trkpt>
      <trkpt lat="44.00162" lon="3.56497">
        <ele>389</ele>
        <time>2012-03-03T17:26:46Z</time>
      </trkpt>
      <trkpt lat="44.00151" lon="3.56493">
        <ele>390</ele>
        <time>2012-03-03T17:26:51Z</time>
      </trkpt>
      <trkpt lat="44.00142" lon="3.56485">
        <ele>390</ele>
        <time>2012-03-03T17:26:56Z</time>
      </trkpt>
      <trkpt lat="44.00134" lon="3.56475">
        <ele>391</ele>
        <time>2012-03-03T17:27:01Z</time>
      </trkpt>
      <trkpt lat="44.00127" lon="3.56464">
        <ele>391</ele>
        <time>2012-03-03T17:27:06Z</time>
      </trkpt>
      <trkpt lat="44.00123" lon="3.56454">
        <ele>392</ele>
        <time>2012-03-03T17:27:11Z</time>
      </trkpt>
      <trkpt lat="44.00121" lon="3.56443">
        <ele>392</ele>
        <time>2012-03-03T17:27:16Z</time>
      </trkpt>
      <trkpt lat="44.00119" lon="3.56432">
        <ele>393</ele>
        <time>2012-03-03T17:27:21Z</time>
      </trkpt>
      <trkpt lat="44.00117" lon="3.56423">
        <ele>393</ele>
        <time>2012-03-03T17:27:26Z</time>
      </trkpt>
      <trkpt lat="44.00115" lon="3.56414">
        <ele>405</ele>
        <time>2012-03-03T17:27:31Z</time>
      </trkpt>
      <trkpt lat="44.00113" lon="3.56407">
        <ele>405</ele>
        <time>2012-03-03T17:27:36Z</time>
      </trkpt>
      <trkpt lat="44.00111" lon="3.56397">
        <ele>406</ele>
        <time>2012-03-03T17:27:41Z</time>
      </trkpt>
      <trkpt lat="44.00109" lon="3.56389">
        <ele>408</ele>
        <time>2012-03-03T17:27:46Z</time>
      </trkpt>
      <trkpt lat="44.00104" lon="3.56384">
        <ele>409</ele>
        <time>2012-03-03T17:27:51Z</time>
      </trkpt>
      <trkpt lat="44.00099" lon="3.56381">
        <ele>409</ele>
        <time>2012-03-03T17:27:56Z</time>
      </trkpt>
      <trkpt lat="44.00093" lon="3.5638">
        <ele>409</ele>
        <time>2012-03-03T17:28:01Z</time>
      </trkpt>
      <trkpt lat="44.00088" lon="3.56381">
        <ele>409</ele>
        <time>2012-03-03T17:28:06Z</time>
      </trkpt>
      <trkpt lat="44.00083" lon="3.56381">
        <ele>410</ele>
        <time>2012-03-03T17:28:11Z</time>
      </trkpt>
      <trkpt lat="44.00079" lon="3.56381">
        <ele>410</ele>
        <time>2012-03-03T17:28:16Z</time>
      </trkpt>
      <trkpt lat="44.00073" lon="3.56381">
        <ele>410</ele>
        <time>2012-03-03T17:28:21Z</time>
      </trkpt>
      <trkpt lat="44.00066" lon="3.5638">
        <ele>411</ele>
        <time>2012-03-03T17:28:26Z</time>
      </trkpt>
      <trkpt lat="44.00058" lon="3.56381">
        <ele>411</ele>
        <time>2012-03-03T17:28:31Z</time>
      </trkpt>
      <trkpt lat="44.00053" lon="3.56384">
        <ele>410</ele>
        <time>2012-03-03T17:28:36Z</time>
      </trkpt>
      <trkpt lat="44.00046" lon="3.56386">
        <ele>410</ele>
        <time>2012-03-03T17:28:41Z</time>
      </trkpt>
      <trkpt lat="44.00039" lon="3.56387">
        <ele>410</ele>
        <time>2012-03-03T17:28:46Z</time>
      </trkpt>
      <trkpt lat="44.00033" lon="3.5639">
        <ele>410</ele>
        <time>2012-03-03T17:28:51Z</time>
      </trkpt>
      <trkpt lat="44.00028" lon="3.56392">
        <ele>409</ele>
        <time>2012-03-03T17:28:56Z</time>
      </trkpt>
      <trkpt lat="44.00021" lon="3.56394">
        <ele>409</ele>
        <time>2012-03-03T17:29:01Z</time>
      </trkpt>
      <trkpt lat="44.00016" lon="3.56397">
        <ele>408</ele>
        <time>2012-03-03T17:29:06Z</time>
      </trkpt>
      <trkpt lat="44.00009" lon="3.564">
        <ele>407</ele>
        <time>2012-03-03T17:29:11Z</time>
      </trkpt>
      <trkpt lat="44" lon="3.56402">
        <ele>407</ele>
        <time>2012-03-03T17:29:16Z</time>
      </trkpt>
      <trkpt lat="43.99993" lon="3.56405">
        <ele>406</ele>
        <time>2012-03-03T17:29:21Z</time>
      </trkpt>
      <trkpt lat="43.99985" lon="3.56408">
        <ele>407</ele>
        <time>2012-03-03T17:29:26Z</time>
      </trkpt>
      <trkpt lat="43.9998" lon="3.56412">
        <ele>408</ele>
        <time>2012-03-03T17:29:31Z</time>
      </trkpt>
      <trkpt lat="43.99973" lon="3.56415">
        <ele>409</ele>
        <time>2012-03-03T17:29:36Z</time>
      </trkpt>
      <trkpt lat="43.99967" lon="3.56418">
        <ele>397</ele>
        <time>2012-03-03T17:29:41Z</time>
      </trkpt>
      <trkpt lat="43.9996" lon="3.56421">
        <ele>397</ele>
        <time>2012-03-03T17:29:46Z</time>
      </trkpt>
      <trkpt lat="43.99955" lon="3.56426">
        <ele>397</ele>
        <time>2012-03-03T17:29:51Z</time>
      </trkpt>
      <trkpt lat="43.99948" lon="3.56433">
        <ele>397</ele>
        <time>2012-03-03T17:29:56Z</time>
      </trkpt>
      <trkpt lat="43.99941" lon="3.56435">
        <ele>398</ele>
        <time>2012-03-03T17:30:01Z</time>
      </trkpt>
      <trkpt lat="43.99935" lon="3.56437">
        <ele>398</ele>
        <time>2012-03-03T17:30:06Z</time>
      </trkpt>
      <trkpt lat="43.99928" lon="3.56438">
        <ele>399</ele>
        <time>2012-03-03T17:30:11Z</time>
      </trkpt>
      <trkpt lat="43.99924" lon="3.56439">
        <ele>399</ele>
        <time>2012-03-03T17:30:16Z</time>
      </trkpt>
      <trkpt lat="43.99919" lon="3.56435">
        <ele>401</ele>
        <time>2012-03-03T17:30:21Z</time>
      </trkpt>
      <trkpt lat="43.99913" lon="3.56433">
        <ele>404</ele>
        <time>2012-03-03T17:30:26Z</time>
      </trkpt>
      <trkpt lat="43.99909" lon="3.56428">
        <ele>405</ele>
        <time>2012-03-03T17:30:31Z</time>
      </trkpt>
      <trkpt lat="43.99905" lon="3.56425">
        <ele>405</ele>
        <time>2012-03-03T17:30:36Z</time>
      </trkpt>
      <trkpt lat="43.99902" lon="3.56423">
        <ele>404</ele>
        <time>2012-03-03T17:30:41Z</time>
      </trkpt>
      <trkpt lat="43.99897" lon="3.56421">
        <ele>403</ele>
        <time>2012-03-03T17:30:46Z</time>
      </trkpt>
      <trkpt lat="43.99893" lon="3.56421">
        <ele>403</ele>
        <time>2012-03-03T17:30:51Z</time>
      </trkpt>
      <trkpt lat="43.99887" lon="3.56419">
        <ele>402</ele>
        <time>2012-03-03T17:30:56Z</time>
      </trkpt>
      <trkpt lat="43.9988" lon="3.56424">
        <ele>401</ele>
        <time>2012-03-03T17:31:01Z</time>
      </trkpt>
      <trkpt lat="43.99871" lon="3.56433">
        <ele>400</ele>
        <time>2012-03-03T17:31:06Z</time>
      </trkpt>
      <trkpt lat="43.99865" lon="3.56442">
        <ele>400</ele>
        <time>2012-03-03T17:31:11Z</time>
      </trkpt>
      <trkpt lat="43.99859" lon="3.56452">
        <ele>399</ele>
        <time>2012-03-03T17:31:16Z</time>
      </trkpt>
      <trkpt lat="43.9985" lon="3.56451">
        <ele>399</ele>
        <time>2012-03-03T17:31:21Z</time>
      </trkpt>
      <trkpt lat="43.99846" lon="3.56445">
        <ele>400</ele>
        <time>2012-03-03T17:31:26Z</time>
      </trkpt>
      <trkpt lat="43.99841" lon="3.56433">
        <ele>401</ele>
        <time>2012-03-03T17:31:31Z</time>
      </trkpt>
      <trkpt lat="43.99838" lon="3.56422">
        <ele>402</ele>
        <time>2012-03-03T17:31:36Z</time>
      </trkpt>
      <trkpt lat="43.99835" lon="3.5641">
        <ele>404</ele>
        <time>2012-03-03T17:31:41Z</time>
      </trkpt>
      <trkpt lat="43.99832" lon="3.564">
        <ele>396</ele>
        <time>2012-03-03T17:31:46Z</time>
      </trkpt>
      <trkpt lat="43.99831" lon="3.56389">
        <ele>394</ele>
        <time>2012-03-03T17:31:51Z</time>
      </trkpt>
      <trkpt lat="43.99828" lon="3.56375">
        <ele>393</ele>
        <time>2012-03-03T17:31:56Z</time>
      </trkpt>
      <trkpt lat="43.99827" lon="3.56366">
        <ele>392</ele>
        <time>2012-03-03T17:32:01Z</time>
      </trkpt>
      <trkpt lat="43.99824" lon="3.56352">
        <ele>393</ele>
        <time>2012-03-03T17:32:06Z</time>
      </trkpt>
      <trkpt lat="43.99823" lon="3.56341">
        <ele>393</ele>
        <time>2012-03-03T17:32:11Z</time>
      </trkpt>
      <trkpt lat="43.99819" lon="3.56328">
        <ele>391</ele>
        <time>2012-03-03T17:32:16Z</time>
      </trkpt>
      <trkpt lat="43.99816" lon="3.56317">
        <ele>388</ele>
        <time>2012-03-03T17:32:21Z</time>
      </trkpt>
      <trkpt lat="43.99817" lon="3.5631">
        <ele>388</ele>
        <time>2012-03-03T17:32:26Z</time>
      </trkpt>
      <trkpt lat="43.99818" lon="3.56306">
        <ele>387</ele>
        <time>2012-03-03T17:32:31Z</time>
      </trkpt>
      <trkpt lat="43.99819" lon="3.56306">
        <ele>387</ele>
        <time>2012-03-03T17:32:36Z</time>
      </trkpt>
      <trkpt lat="43.99818" lon="3.56305">
        <ele>387</ele>
        <time>2012-03-03T17:32:41Z</time>
      </trkpt>
      <trkpt lat="43.99817" lon="3.56303">
        <ele>387</ele>
        <time>2012-03-03T17:32:46Z</time>
      </trkpt>
      <trkpt lat="43.99816" lon="3.56302">
        <ele>387</ele>
        <time>2012-03-03T17:32:51Z</time>
      </trkpt>
      <trkpt lat="43.99816" lon="3.56302">
        <ele>387</ele>
        <time>2012-03-03T17:32:56Z</time>
      </trkpt>
      <trkpt lat="43.99816" lon="3.56302">
        <ele>387</ele>
        <time>2012-03-03T17:33:01Z</time>
      </trkpt>
      <trkpt lat="43.99816" lon="3.56302">
        <ele>387</ele>
        <time>2012-03-03T17:33:06Z</time>
      </trkpt>
      <trkpt lat="43.99816" lon="3.56302">
        <ele>387</ele>
        <time>2012-03-03T17:33:11Z</time>
      </trkpt>
      <trkpt lat="43.99816" lon="3.56304">
        <ele>387</ele>
        <time>2012-03-03T17:33:16Z</time>
      </trkpt>
      <trkpt lat="43.99813" lon="3.563">
        <ele>386</ele>
        <time>2012-03-03T17:33:21Z</time>
      </trkpt>
      <trkpt lat="43.99811" lon="3.56296">
        <ele>386</ele>
        <time>2012-03-03T17:33:26Z</time>
      </trkpt>
      <trkpt lat="43.99807" lon="3.56288">
        <ele>385</ele>
        <time>2012-03-03T17:33:31Z</time>
      </trkpt>
      <trkpt lat="43.99808" lon="3.56274">
        <ele>385</ele>
        <time>2012-03-03T17:33:36Z</time>
      </trkpt>
      <trkpt lat="43.99809" lon="3.56259">
        <ele>385</ele>
        <time>2012-03-03T17:33:41Z</time>
      </trkpt>
      <trkpt lat="43.99811" lon="3.56244">
        <ele>384</ele>
        <time>2012-03-03T17:33:46Z</time>
      </trkpt>
      <trkpt lat="43.99814" lon="3.56226">
        <ele>384</ele>
        <time>2012-03-03T17:33:51Z</time>
      </trkpt>
      <trkpt lat="43.99816" lon="3.56211">
        <ele>384</ele>
        <time>2012-03-03T17:33:56Z</time>
      </trkpt>
      <trkpt lat="43.99818" lon="3.56196">
        <ele>384</ele>
        <time>2012-03-03T17:34:01Z</time>
      </trkpt>
      <trkpt lat="43.9982" lon="3.56181">
        <ele>385</ele>
        <time>2012-03-03T17:34:06Z</time>
      </trkpt>
      <trkpt lat="43.99822" lon="3.5617">
        <ele>386</ele>
        <time>2012-03-03T17:34:11Z</time>
      </trkpt>
      <trkpt lat="43.99825" lon="3.56157">
        <ele>387</ele>
        <time>2012-03-03T17:34:16Z</time>
      </trkpt>
      <trkpt lat="43.99827" lon="3.56144">
        <ele>387</ele>
        <time>2012-03-03T17:34:21Z</time>
      </trkpt>
      <trkpt lat="43.9983" lon="3.56133">
        <ele>386</ele>
        <time>2012-03-03T17:34:26Z</time>
      </trkpt>
      <trkpt lat="43.99833" lon="3.56124">
        <ele>386</ele>
        <time>2012-03-03T17:34:31Z</time>
      </trkpt>
      <trkpt lat="43.99836" lon="3.56116">
        <ele>397</ele>
        <time>2012-03-03T17:34:36Z</time>
      </trkpt>
      <trkpt lat="43.99838" lon="3.56106">
        <ele>396</ele>
        <time>2012-03-03T17:34:41Z</time>
      </trkpt>
      <trkpt lat="43.99839" lon="3.56097">
        <ele>395</ele>
        <time>2012-03-03T17:34:46Z</time>
      </trkpt>
      <trkpt lat="43.9984" lon="3.56087">
        <ele>393</ele>
        <time>2012-03-03T17:34:51Z</time>
      </trkpt>
      <trkpt lat="43.99842" lon="3.56075">
        <ele>394</ele>
        <time>2012-03-03T17:34:56Z</time>
      </trkpt>
      <trkpt lat="43.99844" lon="3.56062">
        <ele>396</ele>
        <time>2012-03-03T17:35:01Z</time>
      </trkpt>
      <trkpt lat="43.99845" lon="3.56054">
        <ele>397</ele>
        <time>2012-03-03T17:35:06Z</time>
      </trkpt>
      <trkpt lat="43.99845" lon="3.56043">
        <ele>397</ele>
        <time>2012-03-03T17:35:11Z</time>
      </trkpt>
      <trkpt lat="43.99848" lon="3.56032">
        <ele>397</ele>
        <time>2012-03-03T17:35:16Z</time>
      </trkpt>
      <trkpt lat="43.9985" lon="3.56019">
        <ele>396</ele>
        <time>2012-03-03T17:35:21Z</time>
      </trkpt>
      <trkpt lat="43.99853" lon="3.56005">
        <ele>395</ele>
        <time>2012-03-03T17:35:26Z</time>
      </trkpt>
      <trkpt lat="43.99856" lon="3.55991">
        <ele>394</ele>
        <time>2012-03-03T17:35:31Z</time>
      </trkpt>
      <trkpt lat="43.99858" lon="3.55976">
        <ele>395</ele>
        <time>2012-03-03T17:35:36Z</time>
      </trkpt>
      <trkpt lat="43.9986" lon="3.55963">
        <ele>395</ele>
        <time>2012-03-03T17:35:41Z</time>
      </trkpt>
      <trkpt lat="43.99862" lon="3.55949">
        <ele>395</ele>
        <time>2012-03-03T17:35:46Z</time>
      </trkpt>
      <trkpt lat="43.99866" lon="3.55935">
        <ele>395</ele>
        <time>2012-03-03T17:35:51Z</time>
      </trkpt>
      <trkpt lat="43.99872" lon="3.55923">
        <ele>396</ele>
        <time>2012-03-03T17:35:56Z</time>
      </trkpt>
      <trkpt lat="43.99879" lon="3.55911">
        <ele>396</ele>
        <time>2012-03-03T17:36:01Z</time>
      </trkpt>
      <trkpt lat="43.99886" lon="3.55899">
        <ele>396</ele>
        <time>2012-03-03T17:36:06Z</time>
      </trkpt>
      <trkpt lat="43.99893" lon="3.55888">
        <ele>397</ele>
        <time>2012-03-03T17:36:11Z</time>
      </trkpt>
      <trkpt lat="43.999" lon="3.55875">
        <ele>397</ele>
        <time>2012-03-03T17:36:16Z</time>
      </trkpt>
      <trkpt lat="43.99904" lon="3.55862">
        <ele>397</ele>
        <time>2012-03-03T17:36:21Z</time>
      </trkpt>
      <trkpt lat="43.99904" lon="3.55846">
        <ele>397</ele>
        <time>2012-03-03T17:36:26Z</time>
      </trkpt>
      <trkpt lat="43.999" lon="3.55839">
        <ele>397</ele>
        <time>2012-03-03T17:36:31Z</time>
      </trkpt>
      <trkpt lat="43.99897" lon="3.55832">
        <ele>399</ele>
        <time>2012-03-03T17:36:36Z</time>
      </trkpt>
      <trkpt lat="43.99898" lon="3.55823">
        <ele>399</ele>
        <time>2012-03-03T17:36:41Z</time>
      </trkpt>
      <trkpt lat="43.99901" lon="3.55815">
        <ele>399</ele>
        <time>2012-03-03T17:36:46Z</time>
      </trkpt>
      <trkpt lat="43.99905" lon="3.55811">
        <ele>400</ele>
        <time>2012-03-03T17:36:51Z</time>
      </trkpt>
      <trkpt lat="43.99908" lon="3.55803">
        <ele>400</ele>
        <time>2012-03-03T17:36:56Z</time>
      </trkpt>
      <trkpt lat="43.99911" lon="3.55797">
        <ele>400</ele>
        <time>2012-03-03T17:37:01Z</time>
      </trkpt>
      <trkpt lat="43.99915" lon="3.55792">
        <ele>401</ele>
        <time>2012-03-03T17:37:06Z</time>
      </trkpt>
      <trkpt lat="43.9992" lon="3.55786">
        <ele>406</ele>
        <time>2012-03-03T17:37:11Z</time>
      </trkpt>
      <trkpt lat="43.99925" lon="3.5578">
        <ele>407</ele>
        <time>2012-03-03T17:37:16Z</time>
      </trkpt>
      <trkpt lat="43.99929" lon="3.55776">
        <ele>407</ele>
        <time>2012-03-03T17:37:21Z</time>
      </trkpt>
      <trkpt lat="43.99933" lon="3.55769">
        <ele>407</ele>
        <time>2012-03-03T17:37:26Z</time>
      </trkpt>
      <trkpt lat="43.99937" lon="3.55763">
        <ele>407</ele>
        <time>2012-03-03T17:37:31Z</time>
      </trkpt>
      <trkpt lat="43.9994" lon="3.55759">
        <ele>407</ele>
        <time>2012-03-03T17:37:36Z</time>
      </trkpt>
      <trkpt lat="43.99945" lon="3.55753">
        <ele>408</ele>
        <time>2012-03-03T17:37:41Z</time>
      </trkpt>
      <trkpt lat="43.99951" lon="3.55752">
        <ele>408</ele>
        <time>2012-03-03T17:37:46Z</time>
      </trkpt>
      <trkpt lat="43.99958" lon="3.55751">
        <ele>409</ele>
        <time>2012-03-03T17:37:51Z</time>
      </trkpt>
      <trkpt lat="43.99962" lon="3.55747">
        <ele>411</ele>
        <time>2012-03-03T17:37:56Z</time>
      </trkpt>
      <trkpt lat="43.99965" lon="3.55743">
        <ele>411</ele>
        <time>2012-03-03T17:38:01Z</time>
      </trkpt>
      <trkpt lat="43.9997" lon="3.55738">
        <ele>411</ele>
        <time>2012-03-03T17:38:06Z</time>
      </trkpt>
      <trkpt lat="43.99974" lon="3.55734">
        <ele>412</ele>
        <time>2012-03-03T17:38:11Z</time>
      </trkpt>
      <trkpt lat="43.99972" lon="3.55724">
        <ele>412</ele>
        <time>2012-03-03T17:38:16Z</time>
      </trkpt>
      <trkpt lat="43.99965" lon="3.5572">
        <ele>411</ele>
        <time>2012-03-03T17:38:21Z</time>
      </trkpt>
      <trkpt lat="43.99959" lon="3.5572">
        <ele>411</ele>
        <time>2012-03-03T17:38:26Z</time>
      </trkpt>
      <trkpt lat="43.99958" lon="3.55684">
        <ele>412</ele>
        <time>2012-03-03T17:38:31Z</time>
      </trkpt>
      <trkpt lat="43.99951" lon="3.55672">
        <ele>411</ele>
        <time>2012-03-03T17:38:36Z</time>
      </trkpt>
      <trkpt lat="43.99943" lon="3.5566">
        <ele>414</ele>
        <time>2012-03-03T17:38:41Z</time>
      </trkpt>
      <trkpt lat="43.99937" lon="3.55648">
        <ele>414</ele>
        <time>2012-03-03T17:38:46Z</time>
      </trkpt>
      <trkpt lat="43.99929" lon="3.55635">
        <ele>414</ele>
        <time>2012-03-03T17:38:51Z</time>
      </trkpt>
      <trkpt lat="43.99923" lon="3.5562">
        <ele>415</ele>
        <time>2012-03-03T17:38:56Z</time>
      </trkpt>
      <trkpt lat="43.99919" lon="3.55605">
        <ele>415</ele>
        <time>2012-03-03T17:39:01Z</time>
      </trkpt>
      <trkpt lat="43.99915" lon="3.55588">
        <ele>415</ele>
        <time>2012-03-03T17:39:06Z</time>
      </trkpt>
      <trkpt lat="43.9991" lon="3.55574">
        <ele>420</ele>
        <time>2012-03-03T17:39:11Z</time>
      </trkpt>
      <trkpt lat="43.99908" lon="3.55583">
        <ele>418</ele>
        <time>2012-03-03T17:39:16Z</time>
      </trkpt>
      <trkpt lat="43.99906" lon="3.55588">
        <ele>417</ele>
        <time>2012-03-03T17:39:21Z</time>
      </trkpt>
      <trkpt lat="43.99904" lon="3.5559">
        <ele>417</ele>
        <time>2012-03-03T17:39:26Z</time>
      </trkpt>
      <trkpt lat="43.99901" lon="3.55592">
        <ele>418</ele>
        <time>2012-03-03T17:39:31Z</time>
      </trkpt>
      <trkpt lat="43.99898" lon="3.55599">
        <ele>419</ele>
        <time>2012-03-03T17:39:36Z</time>
      </trkpt>
      <trkpt lat="43.99895" lon="3.55604">
        <ele>419</ele>
        <time>2012-03-03T17:39:41Z</time>
      </trkpt>
      <trkpt lat="43.99893" lon="3.55609">
        <ele>419</ele>
        <time>2012-03-03T17:39:46Z</time>
      </trkpt>
      <trkpt lat="43.99889" lon="3.55614">
        <ele>420</ele>
        <time>2012-03-03T17:39:51Z</time>
      </trkpt>
      <trkpt lat="43.99884" lon="3.55618">
        <ele>420</ele>
        <time>2012-03-03T17:39:56Z</time>
      </trkpt>
      <trkpt lat="43.9988" lon="3.55622">
        <ele>420</ele>
        <time>2012-03-03T17:40:01Z</time>
      </trkpt>
      <trkpt lat="43.99875" lon="3.55628">
        <ele>421</ele>
        <time>2012-03-03T17:40:06Z</time>
      </trkpt>
      <trkpt lat="43.99871" lon="3.55635">
        <ele>420</ele>
        <time>2012-03-03T17:40:11Z</time>
      </trkpt>
      <trkpt lat="43.99865" lon="3.55645">
        <ele>420</ele>
        <time>2012-03-03T17:40:16Z</time>
      </trkpt>
      <trkpt lat="43.99863" lon="3.5565">
        <ele>420</ele>
        <time>2012-03-03T17:40:21Z</time>
      </trkpt>
      <trkpt lat="43.99859" lon="3.55661">
        <ele>420</ele>
        <time>2012-03-03T17:40:26Z</time>
      </trkpt>
      <trkpt lat="43.99852" lon="3.55672">
        <ele>415</ele>
        <time>2012-03-03T17:40:31Z</time>
      </trkpt>
      <trkpt lat="43.99851" lon="3.55678">
        <ele>415</ele>
        <time>2012-03-03T17:40:36Z</time>
      </trkpt>
      <trkpt lat="43.99846" lon="3.55689">
        <ele>414</ele>
        <time>2012-03-03T17:40:41Z</time>
      </trkpt>
      <trkpt lat="43.99839" lon="3.55702">
        <ele>412</ele>
        <time>2012-03-03T17:40:46Z</time>
      </trkpt>
      <trkpt lat="43.9983" lon="3.55715">
        <ele>424</ele>
        <time>2012-03-03T17:40:51Z</time>
      </trkpt>
      <trkpt lat="43.99821" lon="3.55725">
        <ele>422</ele>
        <time>2012-03-03T17:40:56Z</time>
      </trkpt>
      <trkpt lat="43.99815" lon="3.55738">
        <ele>421</ele>
        <time>2012-03-03T17:41:01Z</time>
      </trkpt>
      <trkpt lat="43.99808" lon="3.5575">
        <ele>422</ele>
        <time>2012-03-03T17:41:06Z</time>
      </trkpt>
      <trkpt lat="43.998" lon="3.55752">
        <ele>415</ele>
        <time>2012-03-03T17:41:11Z</time>
      </trkpt>
      <trkpt lat="43.998" lon="3.55759">
        <ele>415</ele>
        <time>2012-03-03T17:41:16Z</time>
      </trkpt>
      <trkpt lat="43.99796" lon="3.55773">
        <ele>415</ele>
        <time>2012-03-03T17:41:21Z</time>
      </trkpt>
      <trkpt lat="43.99791" lon="3.55783">
        <ele>416</ele>
        <time>2012-03-03T17:41:26Z</time>
      </trkpt>
      <trkpt lat="43.99787" lon="3.55798">
        <ele>415</ele>
        <time>2012-03-03T17:41:31Z</time>
      </trkpt>
      <trkpt lat="43.9978" lon="3.5581">
        <ele>416</ele>
        <time>2012-03-03T17:41:36Z</time>
      </trkpt>
      <trkpt lat="43.99777" lon="3.5582">
        <ele>416</ele>
        <time>2012-03-03T17:41:41Z</time>
      </trkpt>
      <trkpt lat="43.9977" lon="3.55828">
        <ele>417</ele>
        <time>2012-03-03T17:41:46Z</time>
      </trkpt>
      <trkpt lat="43.9976" lon="3.55835">
        <ele>415</ele>
        <time>2012-03-03T17:41:51Z</time>
      </trkpt>
      <trkpt lat="43.99758" lon="3.55841">
        <ele>415</ele>
        <time>2012-03-03T17:41:56Z</time>
      </trkpt>
      <trkpt lat="43.99759" lon="3.55848">
        <ele>413</ele>
        <time>2012-03-03T17:42:01Z</time>
      </trkpt>
      <trkpt lat="43.99759" lon="3.55851">
        <ele>412</ele>
        <time>2012-03-03T17:42:06Z</time>
      </trkpt>
      <trkpt lat="43.99761" lon="3.55863">
        <ele>409</ele>
        <time>2012-03-03T17:42:11Z</time>
      </trkpt>
      <trkpt lat="43.99756" lon="3.55879">
        <ele>407</ele>
        <time>2012-03-03T17:42:16Z</time>
      </trkpt>
      <trkpt lat="43.99752" lon="3.55895">
        <ele>407</ele>
        <time>2012-03-03T17:42:21Z</time>
      </trkpt>
      <trkpt lat="43.99748" lon="3.55909">
        <ele>418</ele>
        <time>2012-03-03T17:42:26Z</time>
      </trkpt>
      <trkpt lat="43.99744" lon="3.55925">
        <ele>415</ele>
        <time>2012-03-03T17:42:31Z</time>
      </trkpt>
      <trkpt lat="43.99743" lon="3.55937">
        <ele>417</ele>
        <time>2012-03-03T17:42:36Z</time>
      </trkpt>
      <trkpt lat="43.9974" lon="3.55952">
        <ele>418</ele>
        <time>2012-03-03T17:42:41Z</time>
      </trkpt>
      <trkpt lat="43.99738" lon="3.55965">
        <ele>416</ele>
        <time>2012-03-03T17:42:46Z</time>
      </trkpt>
      <trkpt lat="43.99732" lon="3.5598">
        <ele>414</ele>
        <time>2012-03-03T17:42:51Z</time>
      </trkpt>
      <trkpt lat="43.99727" lon="3.55992">
        <ele>414</ele>
        <time>2012-03-03T17:42:56Z</time>
      </trkpt>
      <trkpt lat="43.99724" lon="3.56001">
        <ele>406</ele>
        <time>2012-03-03T17:43:01Z</time>
      </trkpt>
      <trkpt lat="43.99718" lon="3.56014">
        <ele>408</ele>
        <time>2012-03-03T17:43:06Z</time>
      </trkpt>
      <trkpt lat="43.99715" lon="3.56027">
        <ele>408</ele>
        <time>2012-03-03T17:43:11Z</time>
      </trkpt>
      <trkpt lat="43.99711" lon="3.56039">
        <ele>408</ele>
        <time>2012-03-03T17:43:16Z</time>
      </trkpt>
      <trkpt lat="43.99705" lon="3.56053">
        <ele>408</ele>
        <time>2012-03-03T17:43:21Z</time>
      </trkpt>
      <trkpt lat="43.997" lon="3.56068">
        <ele>409</ele>
        <time>2012-03-03T17:43:26Z</time>
      </trkpt>
      <trkpt lat="43.99696" lon="3.56083">
        <ele>410</ele>
        <time>2012-03-03T17:43:31Z</time>
      </trkpt>
      <trkpt lat="43.99694" lon="3.56091">
        <ele>403</ele>
        <time>2012-03-03T17:43:36Z</time>
      </trkpt>
      <trkpt lat="43.9969" lon="3.56098">
        <ele>403</ele>
        <time>2012-03-03T17:43:41Z</time>
      </trkpt>
      <trkpt lat="43.99688" lon="3.56104">
        <ele>403</ele>
        <time>2012-03-03T17:43:46Z</time>
      </trkpt>
      <trkpt lat="43.99686" lon="3.56112">
        <ele>402</ele>
        <time>2012-03-03T17:43:51Z</time>
      </trkpt>
      <trkpt lat="43.99682" lon="3.56116">
        <ele>402</ele>
        <time>2012-03-03T17:43:56Z</time>
      </trkpt>
      <trkpt lat="43.99678" lon="3.56122">
        <ele>402</ele>
        <time>2012-03-03T17:44:01Z</time>
      </trkpt>
      <trkpt lat="43.99676" lon="3.56129">
        <ele>401</ele>
        <time>2012-03-03T17:44:06Z</time>
      </trkpt>
      <trkpt lat="43.99672" lon="3.56135">
        <ele>401</ele>
        <time>2012-03-03T17:44:11Z</time>
      </trkpt>
      <trkpt lat="43.99668" lon="3.56142">
        <ele>402</ele>
        <time>2012-03-03T17:44:16Z</time>
      </trkpt>
      <trkpt lat="43.99661" lon="3.56148">
        <ele>411</ele>
        <time>2012-03-03T17:44:21Z</time>
      </trkpt>
      <trkpt lat="43.99655" lon="3.56151">
        <ele>411</ele>
        <time>2012-03-03T17:44:26Z</time>
      </trkpt>
      <trkpt lat="43.9965" lon="3.5615">
        <ele>411</ele>
        <time>2012-03-03T17:44:31Z</time>
      </trkpt>
      <trkpt lat="43.99646" lon="3.5615">
        <ele>412</ele>
        <time>2012-03-03T17:44:36Z</time>
      </trkpt>
      <trkpt lat="43.99644" lon="3.56149">
        <ele>412</ele>
        <time>2012-03-03T17:44:41Z</time>
      </trkpt>
      <trkpt lat="43.99639" lon="3.56149">
        <ele>412</ele>
        <time>2012-03-03T17:44:46Z</time>
      </trkpt>
      <trkpt lat="43.99634" lon="3.56149">
        <ele>412</ele>
        <time>2012-03-03T17:44:51Z</time>
      </trkpt>
      <trkpt lat="43.99628" lon="3.56152">
        <ele>412</ele>
        <time>2012-03-03T17:44:56Z</time>
      </trkpt>
      <trkpt lat="43.99623" lon="3.56152">
        <ele>412</ele>
        <time>2012-03-03T17:45:01Z</time>
      </trkpt>
      <trkpt lat="43.99618" lon="3.56152">
        <ele>412</ele>
        <time>2012-03-03T17:45:06Z</time>
      </trkpt>
      <trkpt lat="43.99611" lon="3.56147">
        <ele>413</ele>
        <time>2012-03-03T17:45:11Z</time>
      </trkpt>
      <trkpt lat="43.99606" lon="3.56143">
        <ele>413</ele>
        <time>2012-03-03T17:45:16Z</time>
      </trkpt>
      <trkpt lat="43.99599" lon="3.56134">
        <ele>414</ele>
        <time>2012-03-03T17:45:21Z</time>
      </trkpt>
      <trkpt lat="43.99593" lon="3.56123">
        <ele>416</ele>
        <time>2012-03-03T17:45:26Z</time>
      </trkpt>
      <trkpt lat="43.9959" lon="3.56117">
        <ele>417</ele>
        <time>2012-03-03T17:45:31Z</time>
      </trkpt>
      <trkpt lat="43.99585" lon="3.56111">
        <ele>418</ele>
        <time>2012-03-03T17:45:36Z</time>
      </trkpt>
      <trkpt lat="43.99583" lon="3.56106">
        <ele>422</ele>
        <time>2012-03-03T17:45:41Z</time>
      </trkpt>
      <trkpt lat="43.99582" lon="3.56101">
        <ele>423</ele>
        <time>2012-03-03T17:45:46Z</time>
      </trkpt>
      <trkpt lat="43.99575" lon="3.56095">
        <ele>423</ele>
        <time>2012-03-03T17:45:51Z</time>
      </trkpt>
      <trkpt lat="43.9957" lon="3.56085">
        <ele>424</ele>
        <time>2012-03-03T17:45:56Z</time>
      </trkpt>
      <trkpt lat="43.99564" lon="3.56077">
        <ele>432</ele>
        <time>2012-03-03T17:46:01Z</time>
      </trkpt>
      <trkpt lat="43.99555" lon="3.5607">
        <ele>433</ele>
        <time>2012-03-03T17:46:06Z</time>
      </trkpt>
      <trkpt lat="43.99549" lon="3.5606">
        <ele>434</ele>
        <time>2012-03-03T17:46:11Z</time>
      </trkpt>
      <trkpt lat="43.99541" lon="3.56052">
        <ele>435</ele>
        <time>2012-03-03T17:46:16Z</time>
      </trkpt>
      <trkpt lat="43.99533" lon="3.56049">
        <ele>435</ele>
        <time>2012-03-03T17:46:21Z</time>
      </trkpt>
      <trkpt lat="43.99527" lon="3.56047">
        <ele>435</ele>
        <time>2012-03-03T17:46:26Z</time>
      </trkpt>
      <trkpt lat="43.99525" lon="3.56046">
        <ele>435</ele>
        <time>2012-03-03T17:46:31Z</time>
      </trkpt>
      <trkpt lat="43.99525" lon="3.56046">
        <ele>435</ele>
        <time>2012-03-03T17:46:36Z</time>
      </trkpt>
      <trkpt lat="43.99523" lon="3.56048">
        <ele>435</ele>
        <time>2012-03-03T17:46:41Z</time>
      </trkpt>
      <trkpt lat="43.99518" lon="3.56048">
        <ele>434</ele>
        <time>2012-03-03T17:46:46Z</time>
      </trkpt>
      <trkpt lat="43.99514" lon="3.5605">
        <ele>434</ele>
        <time>2012-03-03T17:46:51Z</time>
      </trkpt>
      <trkpt lat="43.99512" lon="3.56048">
        <ele>434</ele>
        <time>2012-03-03T17:46:56Z</time>
      </trkpt>
      <trkpt lat="43.99511" lon="3.56048">
        <ele>434</ele>
        <time>2012-03-03T17:47:01Z</time>
      </trkpt>
      <trkpt lat="43.99506" lon="3.56047">
        <ele>434</ele>
        <time>2012-03-03T17:47:06Z</time>
      </trkpt>
      <trkpt lat="43.99501" lon="3.56046">
        <ele>434</ele>
        <time>2012-03-03T17:47:11Z</time>
      </trkpt>
      <trkpt lat="43.99499" lon="3.56047">
        <ele>440</ele>
        <time>2012-03-03T17:47:16Z</time>
      </trkpt>
      <trkpt lat="43.99497" lon="3.56048">
        <ele>440</ele>
        <time>2012-03-03T17:47:21Z</time>
      </trkpt>
      <trkpt lat="43.99495" lon="3.56048">
        <ele>440</ele>
        <time>2012-03-03T17:47:26Z</time>
      </trkpt>
      <trkpt lat="43.99492" lon="3.56053">
        <ele>439</ele>
        <time>2012-03-03T17:47:31Z</time>
      </trkpt>
      <trkpt lat="43.99488" lon="3.56061">
        <ele>438</ele>
        <time>2012-03-03T17:47:36Z</time>
      </trkpt>
      <trkpt lat="43.99482" lon="3.56069">
        <ele>438</ele>
        <time>2012-03-03T17:47:41Z</time>
      </trkpt>
      <trkpt lat="43.99481" lon="3.56074">
        <ele>437</ele>
        <time>2012-03-03T17:47:46Z</time>
      </trkpt>
      <trkpt lat="43.9948" lon="3.56078">
        <ele>437</ele>
        <time>2012-03-03T17:47:51Z</time>
      </trkpt>
      <trkpt lat="43.99475" lon="3.5608">
        <ele>438</ele>
        <time>2012-03-03T17:47:56Z</time>
      </trkpt>
      <trkpt lat="43.99473" lon="3.56083">
        <ele>439</ele>
        <time>2012-03-03T17:48:01Z</time>
      </trkpt>
      <trkpt lat="43.99472" lon="3.56091">
        <ele>434</ele>
        <time>2012-03-03T17:48:06Z</time>
      </trkpt>
      <trkpt lat="43.99471" lon="3.561">
        <ele>435</ele>
        <time>2012-03-03T17:48:11Z</time>
      </trkpt>
      <trkpt lat="43.99469" lon="3.56107">
        <ele>435</ele>
        <time>2012-03-03T17:48:16Z</time>
      </trkpt>
      <trkpt lat="43.99467" lon="3.56119">
        <ele>435</ele>
        <time>2012-03-03T17:48:21Z</time>
      </trkpt>
      <trkpt lat="43.99465" lon="3.56133">
        <ele>435</ele>
        <time>2012-03-03T17:48:26Z</time>
      </trkpt>
      <trkpt lat="43.99463" lon="3.56141">
        <ele>435</ele>
        <time>2012-03-03T17:48:31Z</time>
      </trkpt>
      <trkpt lat="43.99461" lon="3.56147">
        <ele>436</ele>
        <time>2012-03-03T17:48:36Z</time>
      </trkpt>
      <trkpt lat="43.99458" lon="3.56155">
        <ele>436</ele>
        <time>2012-03-03T17:48:41Z</time>
      </trkpt>
      <trkpt lat="43.99456" lon="3.56159">
        <ele>437</ele>
        <time>2012-03-03T17:48:46Z</time>
      </trkpt>
      <trkpt lat="43.99454" lon="3.56167">
        <ele>434</ele>
        <time>2012-03-03T17:48:51Z</time>
      </trkpt>
      <trkpt lat="43.99451" lon="3.56173">
        <ele>435</ele>
        <time>2012-03-03T17:48:56Z</time>
      </trkpt>
      <trkpt lat="43.99448" lon="3.56179">
        <ele>435</ele>
        <time>2012-03-03T17:49:01Z</time>
      </trkpt>
      <trkpt lat="43.99444" lon="3.56186">
        <ele>436</ele>
        <time>2012-03-03T17:49:06Z</time>
      </trkpt>
      <trkpt lat="43.99442" lon="3.56191">
        <ele>436</ele>
        <time>2012-03-03T17:49:11Z</time>
      </trkpt>
      <trkpt lat="43.99439" lon="3.56198">
        <ele>435</ele>
        <time>2012-03-03T17:49:16Z</time>
      </trkpt>
      <trkpt lat="43.99441" lon="3.56199">
        <ele>435</ele>
        <time>2012-03-03T17:49:21Z</time>
      </trkpt>
      <trkpt lat="43.99439" lon="3.56202">
        <ele>435</ele>
        <time>2012-03-03T17:49:26Z</time>
      </trkpt>
      <trkpt lat="43.99437" lon="3.56209">
        <ele>435</ele>
        <time>2012-03-03T17:49:31Z</time>
      </trkpt>
      <trkpt lat="43.99435" lon="3.56215">
        <ele>435</ele>
        <time>2012-03-03T17:49:36Z</time>
      </trkpt>
      <trkpt lat="43.9943" lon="3.56223">
        <ele>436</ele>
        <time>2012-03-03T17:49:41Z</time>
      </trkpt>
      <trkpt lat="43.99426" lon="3.56229">
        <ele>436</ele>
        <time>2012-03-03T17:49:46Z</time>
      </trkpt>
      <trkpt lat="43.99423" lon="3.56235">
        <ele>437</ele>
        <time>2012-03-03T17:49:51Z</time>
      </trkpt>
      <trkpt lat="43.99419" lon="3.5624">
        <ele>439</ele>
        <time>2012-03-03T17:49:56Z</time>
      </trkpt>
      <trkpt lat="43.99415" lon="3.56246">
        <ele>445</ele>
        <time>2012-03-03T17:50:01Z</time>
      </trkpt>
      <trkpt lat="43.99412" lon="3.56251">
        <ele>443</ele>
        <time>2012-03-03T17:50:06Z</time>
      </trkpt>
      <trkpt lat="43.99406" lon="3.56256">
        <ele>443</ele>
        <time>2012-03-03T17:50:11Z</time>
      </trkpt>
      <trkpt lat="43.994" lon="3.56261">
        <ele>444</ele>
        <time>2012-03-03T17:50:16Z</time>
      </trkpt>
      <trkpt lat="43.99397" lon="3.56266">
        <ele>444</ele>
        <time>2012-03-03T17:50:21Z</time>
      </trkpt>
      <trkpt lat="43.99391" lon="3.5627">
        <ele>444</ele>
        <time>2012-03-03T17:50:26Z</time>
      </trkpt>
      <trkpt lat="43.99383" lon="3.56275">
        <ele>445</ele>
        <time>2012-03-03T17:50:31Z</time>
      </trkpt>
      <trkpt lat="43.99373" lon="3.5628">
        <ele>446</ele>
        <time>2012-03-03T17:50:36Z</time>
      </trkpt>
      <trkpt lat="43.99363" lon="3.56286">
        <ele>447</ele>
        <time>2012-03-03T17:50:41Z</time>
      </trkpt>
      <trkpt lat="43.99353" lon="3.56292">
        <ele>447</ele>
        <time>2012-03-03T17:50:46Z</time>
      </trkpt>
      <trkpt lat="43.99345" lon="3.56296">
        <ele>447</ele>
        <time>2012-03-03T17:50:51Z</time>
      </trkpt>
      <trkpt lat="43.99337" lon="3.56299">
        <ele>447</ele>
        <time>2012-03-03T17:50:56Z</time>
      </trkpt>
      <trkpt lat="43.99328" lon="3.56302">
        <ele>457</ele>
        <time>2012-03-03T17:51:01Z</time>
      </trkpt>
      <trkpt lat="43.99318" lon="3.56307">
        <ele>457</ele>
        <time>2012-03-03T17:51:06Z</time>
      </trkpt>
      <trkpt lat="43.99311" lon="3.56307">
        <ele>458</ele>
        <time>2012-03-03T17:51:11Z</time>
      </trkpt>
      <trkpt lat="43.99303" lon="3.56311">
        <ele>458</ele>
        <time>2012-03-03T17:51:16Z</time>
      </trkpt>
      <trkpt lat="43.9929" lon="3.56316">
        <ele>459</ele>
        <time>2012-03-03T17:51:21Z</time>
      </trkpt>
      <trkpt lat="43.99278" lon="3.56317">
        <ele>460</ele>
        <time>2012-03-03T17:51:26Z</time>
      </trkpt>
      <trkpt lat="43.99271" lon="3.56323">
        <ele>460</ele>
        <time>2012-03-03T17:51:31Z</time>
      </trkpt>
      <trkpt lat="43.99266" lon="3.56324">
        <ele>460</ele>
        <time>2012-03-03T17:51:36Z</time>
      </trkpt>
      <trkpt lat="43.99259" lon="3.56327">
        <ele>459</ele>
        <time>2012-03-03T17:51:41Z</time>
      </trkpt>
      <trkpt lat="43.99255" lon="3.5633">
        <ele>459</ele>
        <time>2012-03-03T17:51:46Z</time>
      </trkpt>
      <trkpt lat="43.99249" lon="3.56334">
        <ele>458</ele>
        <time>2012-03-03T17:51:51Z</time>
      </trkpt>
      <trkpt lat="43.9924" lon="3.56343">
        <ele>457</ele>
        <time>2012-03-03T17:51:56Z</time>
      </trkpt>
      <trkpt lat="43.99235" lon="3.56356">
        <ele>457</ele>
        <time>2012-03-03T17:52:01Z</time>
      </trkpt>
      <trkpt lat="43.9923" lon="3.56366">
        <ele>456</ele>
        <time>2012-03-03T17:52:06Z</time>
      </trkpt>
      <trkpt lat="43.99222" lon="3.56375">
        <ele>455</ele>
        <time>2012-03-03T17:52:11Z</time>
      </trkpt>
      <trkpt lat="43.99215" lon="3.56389">
        <ele>455</ele>
        <time>2012-03-03T17:52:16Z</time>
      </trkpt>
      <trkpt lat="43.99207" lon="3.56406">
        <ele>454</ele>
        <time>2012-03-03T17:52:21Z</time>
      </trkpt>
      <trkpt lat="43.99196" lon="3.56414">
        <ele>455</ele>
        <time>2012-03-03T17:52:26Z</time>
      </trkpt>
      <trkpt lat="43.99191" lon="3.56426">
        <ele>445</ele>
        <time>2012-03-03T17:52:31Z</time>
      </trkpt>
      <trkpt lat="43.99182" lon="3.56437">
        <ele>445</ele>
        <time>2012-03-03T17:52:36Z</time>
      </trkpt>
      <trkpt lat="43.99175" lon="3.56447">
        <ele>443</ele>
        <time>2012-03-03T17:52:41Z</time>
      </trkpt>
      <trkpt lat="43.99166" lon="3.56457">
        <ele>454</ele>
        <time>2012-03-03T17:52:46Z</time>
      </trkpt>
      <trkpt lat="43.99159" lon="3.56466">
        <ele>452</ele>
        <time>2012-03-03T17:52:51Z</time>
      </trkpt>
      <trkpt lat="43.99155" lon="3.56472">
        <ele>452</ele>
        <time>2012-03-03T17:52:56Z</time>
      </trkpt>
      <trkpt lat="43.99151" lon="3.56476">
        <ele>451</ele>
        <time>2012-03-03T17:53:01Z</time>
      </trkpt>
      <trkpt lat="43.99149" lon="3.56479">
        <ele>451</ele>
        <time>2012-03-03T17:53:06Z</time>
      </trkpt>
      <trkpt lat="43.99143" lon="3.56483">
        <ele>451</ele>
        <time>2012-03-03T17:53:11Z</time>
      </trkpt>
      <trkpt lat="43.99138" lon="3.56486">
        <ele>452</ele>
        <time>2012-03-03T17:53:16Z</time>
      </trkpt>
      <trkpt lat="43.99132" lon="3.56487">
        <ele>453</ele>
        <time>2012-03-03T17:53:21Z</time>
      </trkpt>
      <trkpt lat="43.9913" lon="3.56486">
        <ele>453</ele>
        <time>2012-03-03T17:53:26Z</time>
      </trkpt>
      <trkpt lat="43.99126" lon="3.56489">
        <ele>453</ele>
        <time>2012-03-03T17:53:31Z</time>
      </trkpt>
      <trkpt lat="43.99122" lon="3.56489">
        <ele>454</ele>
        <time>2012-03-03T17:53:36Z</time>
      </trkpt>
      <trkpt lat="43.99116" lon="3.5649">
        <ele>454</ele>
        <time>2012-03-03T17:53:41Z</time>
      </trkpt>
      <trkpt lat="43.99111" lon="3.56488">
        <ele>455</ele>
        <time>2012-03-03T17:53:46Z</time>
      </trkpt>
      <trkpt lat="43.9911" lon="3.56482">
        <ele>455</ele>
        <time>2012-03-03T17:53:51Z</time>
      </trkpt>
      <trkpt lat="43.99111" lon="3.56476">
        <ele>456</ele>
        <time>2012-03-03T17:53:56Z</time>
      </trkpt>
      <trkpt lat="43.9911" lon="3.5647">
        <ele>457</ele>
        <time>2012-03-03T17:54:01Z</time>
      </trkpt>
      <trkpt lat="43.9911" lon="3.56464">
        <ele>457</ele>
        <time>2012-03-03T17:54:06Z</time>
      </trkpt>
      <trkpt lat="43.9911" lon="3.5646">
        <ele>458</ele>
        <time>2012-03-03T17:54:11Z</time>
      </trkpt>
      <trkpt lat="43.99112" lon="3.56456">
        <ele>458</ele>
        <time>2012-03-03T17:54:16Z</time>
      </trkpt>
      <trkpt lat="43.99113" lon="3.5645">
        <ele>459</ele>
        <time>2012-03-03T17:54:21Z</time>
      </trkpt>
      <trkpt lat="43.99114" lon="3.56445">
        <ele>459</ele>
        <time>2012-03-03T17:54:26Z</time>
      </trkpt>
      <trkpt lat="43.99115" lon="3.56438">
        <ele>460</ele>
        <time>2012-03-03T17:54:31Z</time>
      </trkpt>
      <trkpt lat="43.99117" lon="3.56431">
        <ele>461</ele>
        <time>2012-03-03T17:54:36Z</time>
      </trkpt>
      <trkpt lat="43.99118" lon="3.56425">
        <ele>461</ele>
        <time>2012-03-03T17:54:41Z</time>
      </trkpt>
      <trkpt lat="43.99117" lon="3.56419">
        <ele>461</ele>
        <time>2012-03-03T17:54:46Z</time>
      </trkpt>
      <trkpt lat="43.99116" lon="3.56416">
        <ele>471</ele>
        <time>2012-03-03T17:54:51Z</time>
      </trkpt>
      <trkpt lat="43.99115" lon="3.56412">
        <ele>471</ele>
        <time>2012-03-03T17:54:56Z</time>
      </trkpt>
      <trkpt lat="43.99112" lon="3.56408">
        <ele>472</ele>
        <time>2012-03-03T17:55:01Z</time>
      </trkpt>
      <trkpt lat="43.99109" lon="3.56402">
        <ele>472</ele>
        <time>2012-03-03T17:55:06Z</time>
      </trkpt>
      <trkpt lat="43.99109" lon="3.56396">
        <ele>472</ele>
        <time>2012-03-03T17:55:11Z</time>
      </trkpt>
      <trkpt lat="43.99107" lon="3.56392">
        <ele>473</ele>
        <time>2012-03-03T17:55:16Z</time>
      </trkpt>
      <trkpt lat="43.99105" lon="3.5639">
        <ele>473</ele>
        <time>2012-03-03T17:55:21Z</time>
      </trkpt>
      <trkpt lat="43.99104" lon="3.56385">
        <ele>473</ele>
        <time>2012-03-03T17:55:26Z</time>
      </trkpt>
      <trkpt lat="43.99102" lon="3.5638">
        <ele>474</ele>
        <time>2012-03-03T17:55:31Z</time>
      </trkpt>
      <trkpt lat="43.991" lon="3.56375">
        <ele>474</ele>
        <time>2012-03-03T17:55:36Z</time>
      </trkpt>
      <trkpt lat="43.99098" lon="3.56367">
        <ele>475</ele>
        <time>2012-03-03T17:55:41Z</time>
      </trkpt>
      <trkpt lat="43.99098" lon="3.56359">
        <ele>476</ele>
        <time>2012-03-03T17:55:46Z</time>
      </trkpt>
      <trkpt lat="43.99097" lon="3.56351">
        <ele>477</ele>
        <time>2012-03-03T17:55:51Z</time>
      </trkpt>
      <trkpt lat="43.99097" lon="3.56346">
        <ele>478</ele>
        <time>2012-03-03T17:55:56Z</time>
      </trkpt>
      <trkpt lat="43.99098" lon="3.56339">
        <ele>478</ele>
        <time>2012-03-03T17:56:01Z</time>
      </trkpt>
      <trkpt lat="43.99099" lon="3.5633">
        <ele>483</ele>
        <time>2012-03-03T17:56:06Z</time>
      </trkpt>
      <trkpt lat="43.99098" lon="3.56325">
        <ele>483</ele>
        <time>2012-03-03T17:56:11Z</time>
      </trkpt>
      <trkpt lat="43.99097" lon="3.56319">
        <ele>483</ele>
        <time>2012-03-03T17:56:16Z</time>
      </trkpt>
      <trkpt lat="43.99095" lon="3.56313">
        <ele>483</ele>
        <time>2012-03-03T17:56:21Z</time>
      </trkpt>
      <trkpt lat="43.99093" lon="3.56307">
        <ele>483</ele>
        <time>2012-03-03T17:56:26Z</time>
      </trkpt>
      <trkpt lat="43.9909" lon="3.56301">
        <ele>483</ele>
        <time>2012-03-03T17:56:31Z</time>
      </trkpt>
      <trkpt lat="43.99088" lon="3.56295">
        <ele>483</ele>
        <time>2012-03-03T17:56:36Z</time>
      </trkpt>
      <trkpt lat="43.99088" lon="3.56284">
        <ele>483</ele>
        <time>2012-03-03T17:56:41Z</time>
      </trkpt>
      <trkpt lat="43.99093" lon="3.56274">
        <ele>484</ele>
        <time>2012-03-03T17:56:46Z</time>
      </trkpt>
      <trkpt lat="43.99098" lon="3.56265">
        <ele>484</ele>
        <time>2012-03-03T17:56:51Z</time>
      </trkpt>
      <trkpt lat="43.99102" lon="3.56258">
        <ele>484</ele>
        <time>2012-03-03T17:56:56Z</time>
      </trkpt>
      <trkpt lat="43.99102" lon="3.56252">
        <ele>484</ele>
        <time>2012-03-03T17:57:01Z</time>
      </trkpt>
      <trkpt lat="43.99105" lon="3.56246">
        <ele>487</ele>
        <time>2012-03-03T17:57:06Z</time>
      </trkpt>
      <trkpt lat="43.99106" lon="3.5624">
        <ele>487</ele>
        <time>2012-03-03T17:57:11Z</time>
      </trkpt>
      <trkpt lat="43.9911" lon="3.56236">
        <ele>488</ele>
        <time>2012-03-03T17:57:16Z</time>
      </trkpt>
      <trkpt lat="43.99117" lon="3.56225">
        <ele>488</ele>
        <time>2012-03-03T17:57:21Z</time>
      </trkpt>
      <trkpt lat="43.99121" lon="3.56219">
        <ele>489</ele>
        <time>2012-03-03T17:57:26Z</time>
      </trkpt>
      <trkpt lat="43.99123" lon="3.56213">
        <ele>489</ele>
        <time>2012-03-03T17:57:31Z</time>
      </trkpt>
      <trkpt lat="43.99121" lon="3.56213">
        <ele>489</ele>
        <time>2012-03-03T17:57:36Z</time>
      </trkpt>
      <trkpt lat="43.99121" lon="3.56212">
        <ele>489</ele>
        <time>2012-03-03T17:57:41Z</time>
      </trkpt>
      <trkpt lat="43.99123" lon="3.56207">
        <ele>489</ele>
        <time>2012-03-03T17:57:46Z</time>
      </trkpt>
      <trkpt lat="43.99126" lon="3.56205">
        <ele>489</ele>
        <time>2012-03-03T17:57:51Z</time>
      </trkpt>
      <trkpt lat="43.99127" lon="3.56198">
        <ele>490</ele>
        <time>2012-03-03T17:57:56Z</time>
      </trkpt>
      <trkpt lat="43.99129" lon="3.56192">
        <ele>490</ele>
        <time>2012-03-03T17:58:01Z</time>
      </trkpt>
      <trkpt lat="43.99133" lon="3.56182">
        <ele>491</ele>
        <time>2012-03-03T17:58:06Z</time>
      </trkpt>
      <trkpt lat="43.99139" lon="3.56174">
        <ele>492</ele>
        <time>2012-03-03T17:58:11Z</time>
      </trkpt>
      <trkpt lat="43.99142" lon="3.56168">
        <ele>493</ele>
        <time>2012-03-03T17:58:16Z</time>
      </trkpt>
      <trkpt lat="43.99143" lon="3.56164">
        <ele>496</ele>
        <time>2012-03-03T17:58:21Z</time>
      </trkpt>
      <trkpt lat="43.99147" lon="3.56159">
        <ele>496</ele>
        <time>2012-03-03T17:58:26Z</time>
      </trkpt>
      <trkpt lat="43.99152" lon="3.56152">
        <ele>497</ele>
        <time>2012-03-03T17:58:31Z</time>
      </trkpt>
      <trkpt lat="43.99151" lon="3.56149">
        <ele>496</ele>
        <time>2012-03-03T17:58:36Z</time>
      </trkpt>
      <trkpt lat="43.99149" lon="3.56149">
        <ele>496</ele>
        <time>2012-03-03T17:58:41Z</time>
      </trkpt>
      <trkpt lat="43.99149" lon="3.56149">
        <ele>496</ele>
        <time>2012-03-03T17:58:46Z</time>
      </trkpt>
      <trkpt lat="43.9915" lon="3.56152">
        <ele>496</ele>
        <time>2012-03-03T17:58:51Z</time>
      </trkpt>
      <trkpt lat="43.99153" lon="3.5615">
        <ele>497</ele>
        <time>2012-03-03T17:58:56Z</time>
      </trkpt>
      <trkpt lat="43.99153" lon="3.56149">
        <ele>497</ele>
        <time>2012-03-03T17:59:01Z</time>
      </trkpt>
      <trkpt lat="43.99154" lon="3.56147">
        <ele>497</ele>
        <time>2012-03-03T17:59:06Z</time>
      </trkpt>
      <trkpt lat="43.99155" lon="3.56143">
        <ele>497</ele>
        <time>2012-03-03T17:59:11Z</time>
      </trkpt>
      <trkpt lat="43.99158" lon="3.56139">
        <ele>497</ele>
        <time>2012-03-03T17:59:16Z</time>
      </trkpt>
      <trkpt lat="43.99158" lon="3.56133">
        <ele>497</ele>
        <time>2012-03-03T17:59:21Z</time>
      </trkpt>
      <trkpt lat="43.99159" lon="3.5613">
        <ele>497</ele>
        <time>2012-03-03T17:59:26Z</time>
      </trkpt>
      <trkpt lat="43.99157" lon="3.56128">
        <ele>497</ele>
        <time>2012-03-03T17:59:31Z</time>
      </trkpt>
      <trkpt lat="43.99155" lon="3.56127">
        <ele>497</ele>
        <time>2012-03-03T17:59:36Z</time>
      </trkpt>
      <trkpt lat="43.99156" lon="3.56123">
        <ele>498</ele>
        <time>2012-03-03T17:59:41Z</time>
      </trkpt>
      <trkpt lat="43.99158" lon="3.56121">
        <ele>498</ele>
        <time>2012-03-03T17:59:46Z</time>
      </trkpt>
      <trkpt lat="43.99158" lon="3.56121">
        <ele>498</ele>
        <time>2012-03-03T17:59:51Z</time>
      </trkpt>
      <trkpt lat="43.99161" lon="3.56121">
        <ele>498</ele>
        <time>2012-03-03T17:59:56Z</time>
      </trkpt>
      <trkpt lat="43.9916" lon="3.56119">
        <ele>498</ele>
        <time>2012-03-03T18:00:01Z</time>
      </trkpt>
      <trkpt lat="43.9916" lon="3.56119">
        <ele>498</ele>
        <time>2012-03-03T18:00:06Z</time>
      </trkpt>
      <trkpt lat="43.9916" lon="3.56115">
        <ele>499</ele>
        <time>2012-03-03T18:00:11Z</time>
      </trkpt>
      <trkpt lat="43.99162" lon="3.56113">
        <ele>499</ele>
        <time>2012-03-03T18:00:16Z</time>
      </trkpt>
      <trkpt lat="43.99162" lon="3.56106">
        <ele>500</ele>
        <time>2012-03-03T18:00:21Z</time>
      </trkpt>
      <trkpt lat="43.99162" lon="3.56099">
        <ele>502</ele>
        <time>2012-03-03T18:00:26Z</time>
      </trkpt>
      <trkpt lat="43.99163" lon="3.56092">
        <ele>505</ele>
        <time>2012-03-03T18:00:31Z</time>
      </trkpt>
      <trkpt lat="43.99166" lon="3.56087">
        <ele>507</ele>
        <time>2012-03-03T18:00:36Z</time>
      </trkpt>
      <trkpt lat="43.99168" lon="3.5608">
        <ele>510</ele>
        <time>2012-03-03T18:00:41Z</time>
      </trkpt>
      <trkpt lat="43.9917" lon="3.56075">
        <ele>511</ele>
        <time>2012-03-03T18:00:46Z</time>
      </trkpt>
      <trkpt lat="43.99172" lon="3.56072">
        <ele>512</ele>
        <time>2012-03-03T18:00:51Z</time>
      </trkpt>
      <trkpt lat="43.99173" lon="3.56067">
        <ele>513</ele>
        <time>2012-03-03T18:00:56Z</time>
      </trkpt>
      <trkpt lat="43.99172" lon="3.56065">
        <ele>513</ele>
        <time>2012-03-03T18:01:01Z</time>
      </trkpt>
      <trkpt lat="43.99174" lon="3.56058">
        <ele>514</ele>
        <time>2012-03-03T18:01:06Z</time>
      </trkpt>
      <trkpt lat="43.99176" lon="3.56049">
        <ele>515</ele>
        <time>2012-03-03T18:01:11Z</time>
      </trkpt>
      <trkpt lat="43.99179" lon="3.56043">
        <ele>516</ele>
        <time>2012-03-03T18:01:16Z</time>
      </trkpt>
      <trkpt lat="43.9918" lon="3.56037">
        <ele>517</ele>
        <time>2012-03-03T18:01:21Z</time>
      </trkpt>
      <trkpt lat="43.99183" lon="3.56032">
        <ele>517</ele>
        <time>2012-03-03T18:01:26Z</time>
      </trkpt>
      <trkpt lat="43.99184" lon="3.56029">
        <ele>517</ele>
        <time>2012-03-03T18:01:31Z</time>
      </trkpt>
      <trkpt lat="43.99186" lon="3.56024">
        <ele>518</ele>
        <time>2012-03-03T18:01:36Z</time>
      </trkpt>
      <trkpt lat="43.99188" lon="3.56018">
        <ele>518</ele>
        <time>2012-03-03T18:01:41Z</time>
      </trkpt>
      <trkpt lat="43.99189" lon="3.56014">
        <ele>518</ele>
        <time>2012-03-03T18:01:46Z</time>
      </trkpt>
      <trkpt lat="43.99191" lon="3.5601">
        <ele>519</ele>
        <time>2012-03-03T18:01:51Z</time>
      </trkpt>
      <trkpt lat="43.99194" lon="3.56004">
        <ele>519</ele>
        <time>2012-03-03T18:01:56Z</time>
      </trkpt>
      <trkpt lat="43.99197" lon="3.55998">
        <ele>525</ele>
        <time>2012-03-03T18:02:01Z</time>
      </trkpt>
      <trkpt lat="43.99199" lon="3.55994">
        <ele>525</ele>
        <time>2012-03-03T18:02:06Z</time>
      </trkpt>
      <trkpt lat="43.99201" lon="3.55989">
        <ele>525</ele>
        <time>2012-03-03T18:02:11Z</time>
      </trkpt>
      <trkpt lat="43.99204" lon="3.55984">
        <ele>525</ele>
        <time>2012-03-03T18:02:16Z</time>
      </trkpt>
      <trkpt lat="43.99206" lon="3.55981">
        <ele>526</ele>
        <time>2012-03-03T18:02:21Z</time>
      </trkpt>
      <trkpt lat="43.99208" lon="3.55976">
        <ele>526</ele>
        <time>2012-03-03T18:02:26Z</time>
      </trkpt>
      <trkpt lat="43.99211" lon="3.55972">
        <ele>526</ele>
        <time>2012-03-03T18:02:31Z</time>
      </trkpt>
      <trkpt lat="43.99213" lon="3.55966">
        <ele>527</ele>
        <time>2012-03-03T18:02:36Z</time>
      </trkpt>
      <trkpt lat="43.99215" lon="3.55961">
        <ele>527</ele>
        <time>2012-03-03T18:02:41Z</time>
      </trkpt>
      <trkpt lat="43.99216" lon="3.55956">
        <ele>527</ele>
        <time>2012-03-03T18:02:46Z</time>
      </trkpt>
      <trkpt lat="43.99215" lon="3.55952">
        <ele>527</ele>
        <time>2012-03-03T18:02:51Z</time>
      </trkpt>
      <trkpt lat="43.99215" lon="3.55943">
        <ele>528</ele>
        <time>2012-03-03T18:02:56Z</time>
      </trkpt>
      <trkpt lat="43.99218" lon="3.55937">
        <ele>528</ele>
        <time>2012-03-03T18:03:01Z</time>
      </trkpt>
      <trkpt lat="43.9922" lon="3.55933">
        <ele>529</ele>
        <time>2012-03-03T18:03:06Z</time>
      </trkpt>
      <trkpt lat="43.99222" lon="3.55928">
        <ele>529</ele>
        <time>2012-03-03T18:03:11Z</time>
      </trkpt>
      <trkpt lat="43.99224" lon="3.55925">
        <ele>530</ele>
        <time>2012-03-03T18:03:16Z</time>
      </trkpt>
      <trkpt lat="43.99225" lon="3.55921">
        <ele>530</ele>
        <time>2012-03-03T18:03:21Z</time>
      </trkpt>
      <trkpt lat="43.99228" lon="3.55916">
        <ele>534</ele>
        <time>2012-03-03T18:03:26Z</time>
      </trkpt>
      <trkpt lat="43.9923" lon="3.55909">
        <ele>534</ele>
        <time>2012-03-03T18:03:31Z</time>
      </trkpt>
      <trkpt lat="43.99233" lon="3.55904">
        <ele>535</ele>
        <time>2012-03-03T18:03:36Z</time>
      </trkpt>
      <trkpt lat="43.99237" lon="3.55899">
        <ele>535</ele>
        <time>2012-03-03T18:03:41Z</time>
      </trkpt>
      <trkpt lat="43.99241" lon="3.55893">
        <ele>535</ele>
        <time>2012-03-03T18:03:46Z</time>
      </trkpt>
      <trkpt lat="43.99245" lon="3.55887">
        <ele>535</ele>
        <time>2012-03-03T18:03:51Z</time>
      </trkpt>
      <trkpt lat="43.99249" lon="3.55881">
        <ele>536</ele>
        <time>2012-03-03T18:03:56Z</time>
      </trkpt>
      <trkpt lat="43.99253" lon="3.55877">
        <ele>536</ele>
        <time>2012-03-03T18:04:01Z</time>
      </trkpt>
      <trkpt lat="43.99258" lon="3.55874">
        <ele>537</ele>
        <time>2012-03-03T18:04:06Z</time>
      </trkpt>
      <trkpt lat="43.9926" lon="3.55872">
        <ele>537</ele>
        <time>2012-03-03T18:04:11Z</time>
      </trkpt>
      <trkpt lat="43.99261" lon="3.55868">
        <ele>537</ele>
        <time>2012-03-03T18:04:16Z</time>
      </trkpt>
      <trkpt lat="43.99264" lon="3.55862">
        <ele>538</ele>
        <time>2012-03-03T18:04:21Z</time>
      </trkpt>
      <trkpt lat="43.99268" lon="3.55854">
        <ele>538</ele>
        <time>2012-03-03T18:04:26Z</time>
      </trkpt>
      <trkpt lat="43.99271" lon="3.55846">
        <ele>539</ele>
        <time>2012-03-03T18:04:31Z</time>
      </trkpt>
      <trkpt lat="43.99273" lon="3.55842">
        <ele>539</ele>
        <time>2012-03-03T18:04:36Z</time>
      </trkpt>
      <trkpt lat="43.99276" lon="3.55835">
        <ele>539</ele>
        <time>2012-03-03T18:04:41Z</time>
      </trkpt>
      <trkpt lat="43.99278" lon="3.5583">
        <ele>546</ele>
        <time>2012-03-03T18:04:46Z</time>
      </trkpt>
      <trkpt lat="43.99279" lon="3.55826">
        <ele>546</ele>
        <time>2012-03-03T18:04:51Z</time>
      </trkpt>
      <trkpt lat="43.9928" lon="3.55821">
        <ele>546</ele>
        <time>2012-03-03T18:04:56Z</time>
      </trkpt>
      <trkpt lat="43.99281" lon="3.55816">
        <ele>546</ele>
        <time>2012-03-03T18:05:01Z</time>
      </trkpt>
      <trkpt lat="43.99283" lon="3.55811">
        <ele>546</ele>
        <time>2012-03-03T18:05:06Z</time>
      </trkpt>
      <trkpt lat="43.99285" lon="3.55805">
        <ele>547</ele>
        <time>2012-03-03T18:05:11Z</time>
      </trkpt>
      <trkpt lat="43.99287" lon="3.55799">
        <ele>547</ele>
        <time>2012-03-03T18:05:16Z</time>
      </trkpt>
      <trkpt lat="43.99288" lon="3.55796">
        <ele>547</ele>
        <time>2012-03-03T18:05:21Z</time>
      </trkpt>
      <trkpt lat="43.9929" lon="3.55791">
        <ele>547</ele>
        <time>2012-03-03T18:05:26Z</time>
      </trkpt>
      <trkpt lat="43.99292" lon="3.55784">
        <ele>548</ele>
        <time>2012-03-03T18:05:31Z</time>
      </trkpt>
      <trkpt lat="43.99295" lon="3.55777">
        <ele>548</ele>
        <time>2012-03-03T18:05:36Z</time>
      </trkpt>
      <trkpt lat="43.99296" lon="3.55771">
        <ele>549</ele>
        <time>2012-03-03T18:05:41Z</time>
      </trkpt>
      <trkpt lat="43.99297" lon="3.55766">
        <ele>549</ele>
        <time>2012-03-03T18:05:46Z</time>
      </trkpt>
      <trkpt lat="43.99297" lon="3.55762">
        <ele>549</ele>
        <time>2012-03-03T18:05:51Z</time>
      </trkpt>
      <trkpt lat="43.99296" lon="3.5576">
        <ele>549</ele>
        <time>2012-03-03T18:05:56Z</time>
      </trkpt>
      <trkpt lat="43.99297" lon="3.55755">
        <ele>549</ele>
        <time>2012-03-03T18:06:01Z</time>
      </trkpt>
      <trkpt lat="43.99298" lon="3.55748">
        <ele>557</ele>
        <time>2012-03-03T18:06:06Z</time>
      </trkpt>
      <trkpt lat="43.993" lon="3.55742">
        <ele>557</ele>
        <time>2012-03-03T18:06:11Z</time>
      </trkpt>
      <trkpt lat="43.99302" lon="3.55735">
        <ele>558</ele>
        <time>2012-03-03T18:06:16Z</time>
      </trkpt>
      <trkpt lat="43.99305" lon="3.55728">
        <ele>558</ele>
        <time>2012-03-03T18:06:21Z</time>
      </trkpt>
      <trkpt lat="43.99309" lon="3.55723">
        <ele>558</ele>
        <time>2012-03-03T18:06:26Z</time>
      </trkpt>
      <trkpt lat="43.99311" lon="3.55716">
        <ele>559</ele>
        <time>2012-03-03T18:06:31Z</time>
      </trkpt>
      <trkpt lat="43.99315" lon="3.55707">
        <ele>561</ele>
        <time>2012-03-03T18:06:36Z</time>
      </trkpt>
      <trkpt lat="43.9932" lon="3.55701">
        <ele>562</ele>
        <time>2012-03-03T18:06:41Z</time>
      </trkpt>
      <trkpt lat="43.99322" lon="3.55698">
        <ele>563</ele>
        <time>2012-03-03T18:06:46Z</time>
      </trkpt>
      <trkpt lat="43.99325" lon="3.55692">
        <ele>564</ele>
        <time>2012-03-03T18:06:51Z</time>
      </trkpt>
      <trkpt lat="43.99328" lon="3.55689">
        <ele>565</ele>
        <time>2012-03-03T18:06:56Z</time>
      </trkpt>
      <trkpt lat="43.99328" lon="3.55685">
        <ele>566</ele>
        <time>2012-03-03T18:07:01Z</time>
      </trkpt>
      <trkpt lat="43.9933" lon="3.55679">
        <ele>568</ele>
        <time>2012-03-03T18:07:06Z</time>
      </trkpt>
      <trkpt lat="43.99333" lon="3.55674">
        <ele>571</ele>
        <time>2012-03-03T18:07:11Z</time>
      </trkpt>
      <trkpt lat="43.99337" lon="3.55665">
        <ele>575</ele>
        <time>2012-03-03T18:07:16Z</time>
      </trkpt>
      <trkpt lat="43.99339" lon="3.5566">
        <ele>574</ele>
        <time>2012-03-03T18:07:21Z</time>
      </trkpt>
      <trkpt lat="43.99343" lon="3.55653">
        <ele>574</ele>
        <time>2012-03-03T18:07:26Z</time>
      </trkpt>
      <trkpt lat="43.99346" lon="3.55647">
        <ele>574</ele>
        <time>2012-03-03T18:07:31Z</time>
      </trkpt>
      <trkpt lat="43.99348" lon="3.55643">
        <ele>574</ele>
        <time>2012-03-03T18:07:36Z</time>
      </trkpt>
      <trkpt lat="43.99351" lon="3.5564">
        <ele>574</ele>
        <time>2012-03-03T18:07:41Z</time>
      </trkpt>
      <trkpt lat="43.99354" lon="3.55634">
        <ele>575</ele>
        <time>2012-03-03T18:07:46Z</time>
      </trkpt>
      <trkpt lat="43.9936" lon="3.55628">
        <ele>575</ele>
        <time>2012-03-03T18:07:51Z</time>
      </trkpt>
      <trkpt lat="43.99362" lon="3.5562">
        <ele>576</ele>
        <time>2012-03-03T18:07:56Z</time>
      </trkpt>
      <trkpt lat="43.99363" lon="3.55619">
        <ele>576</ele>
        <time>2012-03-03T18:08:01Z</time>
      </trkpt>
      <trkpt lat="43.99363" lon="3.55618">
        <ele>576</ele>
        <time>2012-03-03T18:08:06Z</time>
      </trkpt>
      <trkpt lat="43.99366" lon="3.55612">
        <ele>576</ele>
        <time>2012-03-03T18:08:11Z</time>
      </trkpt>
      <trkpt lat="43.9937" lon="3.55608">
        <ele>577</ele>
        <time>2012-03-03T18:08:16Z</time>
      </trkpt>
      <trkpt lat="43.99373" lon="3.55604">
        <ele>577</ele>
        <time>2012-03-03T18:08:21Z</time>
      </trkpt>
      <trkpt lat="43.99375" lon="3.55599">
        <ele>577</ele>
        <time>2012-03-03T18:08:26Z</time>
      </trkpt>
      <trkpt lat="43.99377" lon="3.55596">
        <ele>578</ele>
        <time>2012-03-03T18:08:31Z</time>
      </trkpt>
      <trkpt lat="43.9938" lon="3.55592">
        <ele>578</ele>
        <time>2012-03-03T18:08:36Z</time>
      </trkpt>
      <trkpt lat="43.99381" lon="3.55589">
        <ele>578</ele>
        <time>2012-03-03T18:08:41Z</time>
      </trkpt>
      <trkpt lat="43.99385" lon="3.55585">
        <ele>579</ele>
        <time>2012-03-03T18:08:46Z</time>
      </trkpt>
      <trkpt lat="43.99387" lon="3.5558">
        <ele>593</ele>
        <time>2012-03-03T18:08:51Z</time>
      </trkpt>
      <trkpt lat="43.9939" lon="3.55574">
        <ele>593</ele>
        <time>2012-03-03T18:08:56Z</time>
      </trkpt>
      <trkpt lat="43.99394" lon="3.55569">
        <ele>594</ele>
        <time>2012-03-03T18:09:01Z</time>
      </trkpt>
      <trkpt lat="43.99398" lon="3.55564">
        <ele>594</ele>
        <time>2012-03-03T18:09:06Z</time>
      </trkpt>
      <trkpt lat="43.99401" lon="3.5556">
        <ele>595</ele>
        <time>2012-03-03T18:09:11Z</time>
      </trkpt>
      <trkpt lat="43.99404" lon="3.55558">
        <ele>595</ele>
        <time>2012-03-03T18:09:16Z</time>
      </trkpt>
      <trkpt lat="43.99408" lon="3.55554">
        <ele>596</ele>
        <time>2012-03-03T18:09:21Z</time>
      </trkpt>
      <trkpt lat="43.99412" lon="3.55552">
        <ele>597</ele>
        <time>2012-03-03T18:09:26Z</time>
      </trkpt>
      <trkpt lat="43.99416" lon="3.55549">
        <ele>598</ele>
        <time>2012-03-03T18:09:31Z</time>
      </trkpt>
      <trkpt lat="43.99421" lon="3.55547">
        <ele>599</ele>
        <time>2012-03-03T18:09:36Z</time>
      </trkpt>
      <trkpt lat="43.99427" lon="3.55546">
        <ele>600</ele>
        <time>2012-03-03T18:09:41Z</time>
      </trkpt>
      <trkpt lat="43.99431" lon="3.55544">
        <ele>600</ele>
        <time>2012-03-03T18:09:46Z</time>
      </trkpt>
      <trkpt lat="43.99435" lon="3.55542">
        <ele>600</ele>
        <time>2012-03-03T18:09:51Z</time>
      </trkpt>
      <trkpt lat="43.9944" lon="3.5554">
        <ele>601</ele>
        <time>2012-03-03T18:09:56Z</time>
      </trkpt>
      <trkpt lat="43.99442" lon="3.55538">
        <ele>601</ele>
        <time>2012-03-03T18:10:01Z</time>
      </trkpt>
      <trkpt lat="43.99444" lon="3.55537">
        <ele>601</ele>
        <time>2012-03-03T18:10:06Z</time>
      </trkpt>
      <trkpt lat="43.99448" lon="3.55535">
        <ele>602</ele>
        <time>2012-03-03T18:10:11Z</time>
      </trkpt>
      <trkpt lat="43.99451" lon="3.55533">
        <ele>602</ele>
        <time>2012-03-03T18:10:16Z</time>
      </trkpt>
      <trkpt lat="43.99455" lon="3.55531">
        <ele>602</ele>
        <time>2012-03-03T18:10:21Z</time>
      </trkpt>
      <trkpt lat="43.99458" lon="3.55532">
        <ele>602</ele>
        <time>2012-03-03T18:10:26Z</time>
      </trkpt>
      <trkpt lat="43.99462" lon="3.55531">
        <ele>602</ele>
        <time>2012-03-03T18:10:31Z</time>
      </trkpt>
      <trkpt lat="43.99466" lon="3.55531">
        <ele>602</ele>
        <time>2012-03-03T18:10:36Z</time>
      </trkpt>
      <trkpt lat="43.99471" lon="3.5553">
        <ele>602</ele>
        <time>2012-03-03T18:10:41Z</time>
      </trkpt>
      <trkpt lat="43.99476" lon="3.5553">
        <ele>602</ele>
        <time>2012-03-03T18:10:46Z</time>
      </trkpt>
      <trkpt lat="43.9948" lon="3.5553">
        <ele>602</ele>
        <time>2012-03-03T18:10:51Z</time>
      </trkpt>
      <trkpt lat="43.99485" lon="3.55529">
        <ele>602</ele>
        <time>2012-03-03T18:10:56Z</time>
      </trkpt>
      <trkpt lat="43.9949" lon="3.55527">
        <ele>602</ele>
        <time>2012-03-03T18:11:01Z</time>
      </trkpt>
      <trkpt lat="43.99494" lon="3.55525">
        <ele>603</ele>
        <time>2012-03-03T18:11:06Z</time>
      </trkpt>
      <trkpt lat="43.99497" lon="3.55522">
        <ele>604</ele>
        <time>2012-03-03T18:11:11Z</time>
      </trkpt>
      <trkpt lat="43.995" lon="3.55518">
        <ele>605</ele>
        <time>2012-03-03T18:11:16Z</time>
      </trkpt>
      <trkpt lat="43.99503" lon="3.55516">
        <ele>597</ele>
        <time>2012-03-03T18:11:21Z</time>
      </trkpt>
      <trkpt lat="43.99504" lon="3.5551">
        <ele>600</ele>
        <time>2012-03-03T18:11:26Z</time>
      </trkpt>
      <trkpt lat="43.99504" lon="3.55508">
        <ele>602</ele>
        <time>2012-03-03T18:11:31Z</time>
      </trkpt>
      <trkpt lat="43.99505" lon="3.55498">
        <ele>607</ele>
        <time>2012-03-03T18:11:36Z</time>
      </trkpt>
      <trkpt lat="43.99508" lon="3.55484">
        <ele>602</ele>
        <time>2012-03-03T18:11:41Z</time>
      </trkpt>
      <trkpt lat="43.9951" lon="3.55473">
        <ele>600</ele>
        <time>2012-03-03T18:11:46Z</time>
      </trkpt>
      <trkpt lat="43.9951" lon="3.55462">
        <ele>600</ele>
        <time>2012-03-03T18:11:51Z</time>
      </trkpt>
      <trkpt lat="43.9951" lon="3.55453">
        <ele>601</ele>
        <time>2012-03-03T18:11:56Z</time>
      </trkpt>
      <trkpt lat="43.99509" lon="3.55443">
        <ele>603</ele>
        <time>2012-03-03T18:12:01Z</time>
      </trkpt>
      <trkpt lat="43.9951" lon="3.55437">
        <ele>604</ele>
        <time>2012-03-03T18:12:06Z</time>
      </trkpt>
      <trkpt lat="43.9951" lon="3.55434">
        <ele>605</ele>
        <time>2012-03-03T18:12:11Z</time>
      </trkpt>
      <trkpt lat="43.99507" lon="3.5543">
        <ele>608</ele>
        <time>2012-03-03T18:12:16Z</time>
      </trkpt>
      <trkpt lat="43.99503" lon="3.55425">
        <ele>612</ele>
        <time>2012-03-03T18:12:21Z</time>
      </trkpt>
      <trkpt lat="43.99501" lon="3.5542">
        <ele>617</ele>
        <time>2012-03-03T18:12:26Z</time>
      </trkpt>
      <trkpt lat="43.99499" lon="3.55414">
        <ele>622</ele>
        <time>2012-03-03T18:12:31Z</time>
      </trkpt>
      <trkpt lat="43.99499" lon="3.55409">
        <ele>624</ele>
        <time>2012-03-03T18:12:36Z</time>
      </trkpt>
      <trkpt lat="43.99498" lon="3.55403">
        <ele>626</ele>
        <time>2012-03-03T18:12:41Z</time>
      </trkpt>
      <trkpt lat="43.99497" lon="3.55398">
        <ele>628</ele>
        <time>2012-03-03T18:12:46Z</time>
      </trkpt>
      <trkpt lat="43.99494" lon="3.55395">
        <ele>629</ele>
        <time>2012-03-03T18:12:51Z</time>
      </trkpt>
      <trkpt lat="43.99491" lon="3.55392">
        <ele>629</ele>
        <time>2012-03-03T18:12:56Z</time>
      </trkpt>
      <trkpt lat="43.9949" lon="3.55388">
        <ele>630</ele>
        <time>2012-03-03T18:13:01Z</time>
      </trkpt>
      <trkpt lat="43.99487" lon="3.55384">
        <ele>631</ele>
        <time>2012-03-03T18:13:06Z</time>
      </trkpt>
      <trkpt lat="43.99487" lon="3.55378">
        <ele>631</ele>
        <time>2012-03-03T18:13:11Z</time>
      </trkpt>
      <trkpt lat="43.99482" lon="3.55369">
        <ele>631</ele>
        <time>2012-03-03T18:13:16Z</time>
      </trkpt>
      <trkpt lat="43.99478" lon="3.55353">
        <ele>631</ele>
        <time>2012-03-03T18:13:21Z</time>
      </trkpt>
      <trkpt lat="43.99475" lon="3.55346">
        <ele>631</ele>
        <time>2012-03-03T18:13:26Z</time>
      </trkpt>
      <trkpt lat="43.99474" lon="3.55338">
        <ele>631</ele>
        <time>2012-03-03T18:13:31Z</time>
      </trkpt>
      <trkpt lat="43.99471" lon="3.55332">
        <ele>631</ele>
        <time>2012-03-03T18:13:36Z</time>
      </trkpt>
      <trkpt lat="43.99469" lon="3.55326">
        <ele>632</ele>
        <time>2012-03-03T18:13:41Z</time>
      </trkpt>
      <trkpt lat="43.99466" lon="3.55317">
        <ele>633</ele>
        <time>2012-03-03T18:13:46Z</time>
      </trkpt>
      <trkpt lat="43.99463" lon="3.55309">
        <ele>634</ele>
        <time>2012-03-03T18:13:51Z</time>
      </trkpt>
      <trkpt lat="43.99462" lon="3.553">
        <ele>634</ele>
        <time>2012-03-03T18:13:56Z</time>
      </trkpt>
      <trkpt lat="43.99461" lon="3.5529">
        <ele>634</ele>
        <time>2012-03-03T18:14:01Z</time>
      </trkpt>
      <trkpt lat="43.99459" lon="3.55282">
        <ele>635</ele>
        <time>2012-03-03T18:14:06Z</time>
      </trkpt>
      <trkpt lat="43.99454" lon="3.55277">
        <ele>636</ele>
        <time>2012-03-03T18:14:11Z</time>
      </trkpt>
      <trkpt lat="43.99451" lon="3.5527">
        <ele>637</ele>
        <time>2012-03-03T18:14:16Z</time>
      </trkpt>
      <trkpt lat="43.99448" lon="3.55264">
        <ele>639</ele>
        <time>2012-03-03T18:14:21Z</time>
      </trkpt>
      <trkpt lat="43.99448" lon="3.55259">
        <ele>639</ele>
        <time>2012-03-03T18:14:26Z</time>
      </trkpt>
      <trkpt lat="43.99447" lon="3.55253">
        <ele>640</ele>
        <time>2012-03-03T18:14:31Z</time>
      </trkpt>
      <trkpt lat="43.99447" lon="3.55248">
        <ele>640</ele>
        <time>2012-03-03T18:14:36Z</time>
      </trkpt>
      <trkpt lat="43.99447" lon="3.55244">
        <ele>640</ele>
        <time>2012-03-03T18:14:41Z</time>
      </trkpt>
      <trkpt lat="43.99442" lon="3.55238">
        <ele>642</ele>
        <time>2012-03-03T18:14:46Z</time>
      </trkpt>
      <trkpt lat="43.99433" lon="3.55234">
        <ele>646</ele>
        <time>2012-03-03T18:14:51Z</time>
      </trkpt>
      <trkpt lat="43.99433" lon="3.55229">
        <ele>644</ele>
        <time>2012-03-03T18:14:56Z</time>
      </trkpt>
      <trkpt lat="43.99429" lon="3.55222">
        <ele>644</ele>
        <time>2012-03-03T18:15:01Z</time>
      </trkpt>
      <trkpt lat="43.99427" lon="3.55212">
        <ele>644</ele>
        <time>2012-03-03T18:15:06Z</time>
      </trkpt>
      <trkpt lat="43.99429" lon="3.55202">
        <ele>644</ele>
        <time>2012-03-03T18:15:11Z</time>
      </trkpt>
      <trkpt lat="43.99427" lon="3.55195">
        <ele>646</ele>
        <time>2012-03-03T18:15:16Z</time>
      </trkpt>
      <trkpt lat="43.99427" lon="3.5519">
        <ele>648</ele>
        <time>2012-03-03T18:15:21Z</time>
      </trkpt>
      <trkpt lat="43.9943" lon="3.55182">
        <ele>649</ele>
        <time>2012-03-03T18:15:26Z</time>
      </trkpt>
      <trkpt lat="43.99439" lon="3.55176">
        <ele>646</ele>
        <time>2012-03-03T18:15:31Z</time>
      </trkpt>
      <trkpt lat="43.99442" lon="3.5517">
        <ele>645</ele>
        <time>2012-03-03T18:15:36Z</time>
      </trkpt>
      <trkpt lat="43.99441" lon="3.55157">
        <ele>650</ele>
        <time>2012-03-03T18:15:41Z</time>
      </trkpt>
      <trkpt lat="43.99438" lon="3.55148">
        <ele>650</ele>
        <time>2012-03-03T18:15:46Z</time>
      </trkpt>
      <trkpt lat="43.99443" lon="3.55137">
        <ele>647</ele>
        <time>2012-03-03T18:15:51Z</time>
      </trkpt>
      <trkpt lat="43.99446" lon="3.55128">
        <ele>647</ele>
        <time>2012-03-03T18:15:56Z</time>
      </trkpt>
      <trkpt lat="43.99453" lon="3.55119">
        <ele>645</ele>
        <time>2012-03-03T18:16:01Z</time>
      </trkpt>
      <trkpt lat="43.99464" lon="3.55109">
        <ele>641</ele>
        <time>2012-03-03T18:16:06Z</time>
      </trkpt>
      <trkpt lat="43.99473" lon="3.55093">
        <ele>638</ele>
        <time>2012-03-03T18:16:11Z</time>
      </trkpt>
      <trkpt lat="43.99474" lon="3.55084">
        <ele>637</ele>
        <time>2012-03-03T18:16:16Z</time>
      </trkpt>
      <trkpt lat="43.99478" lon="3.55079">
        <ele>643</ele>
        <time>2012-03-03T18:16:21Z</time>
      </trkpt>
      <trkpt lat="43.9948" lon="3.55076">
        <ele>643</ele>
        <time>2012-03-03T18:16:26Z</time>
      </trkpt>
      <trkpt lat="43.9948" lon="3.55069">
        <ele>644</ele>
        <time>2012-03-03T18:16:31Z</time>
      </trkpt>
      <trkpt lat="43.99481" lon="3.55068">
        <ele>644</ele>
        <time>2012-03-03T18:16:36Z</time>
      </trkpt>
      <trkpt lat="43.99475" lon="3.55066">
        <ele>647</ele>
        <time>2012-03-03T18:16:41Z</time>
      </trkpt>
      <trkpt lat="43.99478" lon="3.55059">
        <ele>648</ele>
        <time>2012-03-03T18:16:46Z</time>
      </trkpt>
      <trkpt lat="43.99477" lon="3.55051">
        <ele>650</ele>
        <time>2012-03-03T18:16:51Z</time>
      </trkpt>
      <trkpt lat="43.99485" lon="3.5504">
        <ele>649</ele>
        <time>2012-03-03T18:16:56Z</time>
      </trkpt>
      <trkpt lat="43.99494" lon="3.55027">
        <ele>647</ele>
        <time>2012-03-03T18:17:01Z</time>
      </trkpt>
      <trkpt lat="43.99496" lon="3.55015">
        <ele>644</ele>
        <time>2012-03-03T18:17:06Z</time>
      </trkpt>
      <trkpt lat="43.99495" lon="3.55008">
        <ele>642</ele>
        <time>2012-03-03T18:17:11Z</time>
      </trkpt>
      <trkpt lat="43.99496" lon="3.55">
        <ele>640</ele>
        <time>2012-03-03T18:17:16Z</time>
      </trkpt>
      <trkpt lat="43.99496" lon="3.54989">
        <ele>646</ele>
        <time>2012-03-03T18:17:21Z</time>
      </trkpt>
      <trkpt lat="43.99496" lon="3.54979">
        <ele>650</ele>
        <time>2012-03-03T18:17:26Z</time>
      </trkpt>
      <trkpt lat="43.99492" lon="3.54972">
        <ele>653</ele>
        <time>2012-03-03T18:17:31Z</time>
      </trkpt>
      <trkpt lat="43.99488" lon="3.5497">
        <ele>654</ele>
        <time>2012-03-03T18:17:36Z</time>
      </trkpt>
      <trkpt lat="43.99484" lon="3.54963">
        <ele>656</ele>
        <time>2012-03-03T18:17:41Z</time>
      </trkpt>
      <trkpt lat="43.99484" lon="3.54957">
        <ele>656</ele>
        <time>2012-03-03T18:17:46Z</time>
      </trkpt>
      <trkpt lat="43.99478" lon="3.54954">
        <ele>657</ele>
        <time>2012-03-03T18:17:51Z</time>
      </trkpt>
      <trkpt lat="43.99477" lon="3.54951">
        <ele>658</ele>
        <time>2012-03-03T18:17:56Z</time>
      </trkpt>
      <trkpt lat="43.99477" lon="3.54946">
        <ele>657</ele>
        <time>2012-03-03T18:18:01Z</time>
      </trkpt>
      <trkpt lat="43.99476" lon="3.5494">
        <ele>657</ele>
        <time>2012-03-03T18:18:06Z</time>
      </trkpt>
      <trkpt lat="43.99476" lon="3.54934">
        <ele>656</ele>
        <time>2012-03-03T18:18:11Z</time>
      </trkpt>
      <trkpt lat="43.99477" lon="3.54928">
        <ele>654</ele>
        <time>2012-03-03T18:18:16Z</time>
      </trkpt>
      <trkpt lat="43.99476" lon="3.54918">
        <ele>654</ele>
        <time>2012-03-03T18:18:21Z</time>
      </trkpt>
      <trkpt lat="43.99481" lon="3.54908">
        <ele>649</ele>
        <time>2012-03-03T18:18:26Z</time>
      </trkpt>
      <trkpt lat="43.99486" lon="3.54899">
        <ele>649</ele>
        <time>2012-03-03T18:18:31Z</time>
      </trkpt>
      <trkpt lat="43.99484" lon="3.54891">
        <ele>651</ele>
        <time>2012-03-03T18:18:36Z</time>
      </trkpt>
      <trkpt lat="43.99483" lon="3.54882">
        <ele>652</ele>
        <time>2012-03-03T18:18:41Z</time>
      </trkpt>
      <trkpt lat="43.99483" lon="3.54875">
        <ele>652</ele>
        <time>2012-03-03T18:18:46Z</time>
      </trkpt>
      <trkpt lat="43.99476" lon="3.54868">
        <ele>654</ele>
        <time>2012-03-03T18:18:51Z</time>
      </trkpt>
      <trkpt lat="43.99472" lon="3.54863">
        <ele>655</ele>
        <time>2012-03-03T18:18:56Z</time>
      </trkpt>
      <trkpt lat="43.99467" lon="3.54853">
        <ele>656</ele>
        <time>2012-03-03T18:19:01Z</time>
      </trkpt>
      <trkpt lat="43.99464" lon="3.54844">
        <ele>656</ele>
        <time>2012-03-03T18:19:06Z</time>
      </trkpt>
      <trkpt lat="43.9946" lon="3.54836">
        <ele>658</ele>
        <time>2012-03-03T18:19:11Z</time>
      </trkpt>
      <trkpt lat="43.99458" lon="3.54831">
        <ele>656</ele>
        <time>2012-03-03T18:19:16Z</time>
      </trkpt>
      <trkpt lat="43.99453" lon="3.54822">
        <ele>658</ele>
        <time>2012-03-03T18:19:21Z</time>
      </trkpt>
      <trkpt lat="43.99457" lon="3.54813">
        <ele>657</ele>
        <time>2012-03-03T18:19:26Z</time>
      </trkpt>
      <trkpt lat="43.99454" lon="3.54809">
        <ele>658</ele>
        <time>2012-03-03T18:19:31Z</time>
      </trkpt>
      <trkpt lat="43.99455" lon="3.54799">
        <ele>657</ele>
        <time>2012-03-03T18:19:36Z</time>
      </trkpt>
      <trkpt lat="43.99453" lon="3.54792">
        <ele>658</ele>
        <time>2012-03-03T18:19:41Z</time>
      </trkpt>
      <trkpt lat="43.99453" lon="3.54785">
        <ele>658</ele>
        <time>2012-03-03T18:19:46Z</time>
      </trkpt>
      <trkpt lat="43.99455" lon="3.54781">
        <ele>657</ele>
        <time>2012-03-03T18:19:51Z</time>
      </trkpt>
      <trkpt lat="43.99454" lon="3.54779">
        <ele>657</ele>
        <time>2012-03-03T18:19:56Z</time>
      </trkpt>
      <trkpt lat="43.99449" lon="3.54777">
        <ele>659</ele>
        <time>2012-03-03T18:20:01Z</time>
      </trkpt>
      <trkpt lat="43.99445" lon="3.54774">
        <ele>660</ele>
        <time>2012-03-03T18:20:06Z</time>
      </trkpt>
      <trkpt lat="43.99439" lon="3.54764">
        <ele>663</ele>
        <time>2012-03-03T18:20:11Z</time>
      </trkpt>
      <trkpt lat="43.99436" lon="3.5476">
        <ele>664</ele>
        <time>2012-03-03T18:20:16Z</time>
      </trkpt>
      <trkpt lat="43.99431" lon="3.54757">
        <ele>667</ele>
        <time>2012-03-03T18:20:21Z</time>
      </trkpt>
      <trkpt lat="43.99428" lon="3.54755">
        <ele>668</ele>
        <time>2012-03-03T18:20:26Z</time>
      </trkpt>
      <trkpt lat="43.99426" lon="3.54751">
        <ele>670</ele>
        <time>2012-03-03T18:20:31Z</time>
      </trkpt>
      <trkpt lat="43.99422" lon="3.54745">
        <ele>673</ele>
        <time>2012-03-03T18:20:36Z</time>
      </trkpt>
      <trkpt lat="43.9942" lon="3.54738">
        <ele>672</ele>
        <time>2012-03-03T18:20:41Z</time>
      </trkpt>
      <trkpt lat="43.99414" lon="3.54727">
        <ele>689</ele>
        <time>2012-03-03T18:20:46Z</time>
      </trkpt>
      <trkpt lat="43.9941" lon="3.54722">
        <ele>691</ele>
        <time>2012-03-03T18:20:51Z</time>
      </trkpt>
      <trkpt lat="43.99407" lon="3.54715">
        <ele>692</ele>
        <time>2012-03-03T18:20:56Z</time>
      </trkpt>
      <trkpt lat="43.99411" lon="3.54708">
        <ele>692</ele>
        <time>2012-03-03T18:21:01Z</time>
      </trkpt>
      <trkpt lat="43.99416" lon="3.54703">
        <ele>692</ele>
        <time>2012-03-03T18:21:06Z</time>
      </trkpt>
      <trkpt lat="43.99423" lon="3.54698">
        <ele>672</ele>
        <time>2012-03-03T18:21:11Z</time>
      </trkpt>
      <trkpt lat="43.99426" lon="3.54696">
        <ele>672</ele>
        <time>2012-03-03T18:21:16Z</time>
      </trkpt>
      <trkpt lat="43.99429" lon="3.54694">
        <ele>672</ele>
        <time>2012-03-03T18:21:21Z</time>
      </trkpt>
      <trkpt lat="43.99433" lon="3.54693">
        <ele>672</ele>
        <time>2012-03-03T18:21:26Z</time>
      </trkpt>
      <trkpt lat="43.99436" lon="3.54689">
        <ele>672</ele>
        <time>2012-03-03T18:21:31Z</time>
      </trkpt>
      <trkpt lat="43.99438" lon="3.54683">
        <ele>672</ele>
        <time>2012-03-03T18:21:36Z</time>
      </trkpt>
      <trkpt lat="43.99438" lon="3.54678">
        <ele>673</ele>
        <time>2012-03-03T18:21:41Z</time>
      </trkpt>
      <trkpt lat="43.99441" lon="3.54673">
        <ele>673</ele>
        <time>2012-03-03T18:21:46Z</time>
      </trkpt>
      <trkpt lat="43.99445" lon="3.54666">
        <ele>684</ele>
        <time>2012-03-03T18:21:51Z</time>
      </trkpt>
      <trkpt lat="43.99446" lon="3.54662">
        <ele>684</ele>
        <time>2012-03-03T18:21:56Z</time>
      </trkpt>
      <trkpt lat="43.99448" lon="3.54659">
        <ele>684</ele>
        <time>2012-03-03T18:22:01Z</time>
      </trkpt>
      <trkpt lat="43.99445" lon="3.54662">
        <ele>684</ele>
        <time>2012-03-03T18:22:06Z</time>
      </trkpt>
      <trkpt lat="43.9945" lon="3.54657">
        <ele>683</ele>
        <time>2012-03-03T18:22:11Z</time>
      </trkpt>
      <trkpt lat="43.99453" lon="3.54652">
        <ele>683</ele>
        <time>2012-03-03T18:22:16Z</time>
      </trkpt>
      <trkpt lat="43.99455" lon="3.54647">
        <ele>683</ele>
        <time>2012-03-03T18:22:21Z</time>
      </trkpt>
      <trkpt lat="43.99458" lon="3.54637">
        <ele>684</ele>
        <time>2012-03-03T18:22:26Z</time>
      </trkpt>
      <trkpt lat="43.99458" lon="3.54625">
        <ele>686</ele>
        <time>2012-03-03T18:22:31Z</time>
      </trkpt>
      <trkpt lat="43.9946" lon="3.54615">
        <ele>687</ele>
        <time>2012-03-03T18:22:36Z</time>
      </trkpt>
      <trkpt lat="43.99464" lon="3.54607">
        <ele>688</ele>
        <time>2012-03-03T18:22:41Z</time>
      </trkpt>
      <trkpt lat="43.99467" lon="3.54602">
        <ele>688</ele>
        <time>2012-03-03T18:22:46Z</time>
      </trkpt>
      <trkpt lat="43.99469" lon="3.54599">
        <ele>688</ele>
        <time>2012-03-03T18:22:51Z</time>
      </trkpt>
      <trkpt lat="43.99469" lon="3.54598">
        <ele>688</ele>
        <time>2012-03-03T18:22:56Z</time>
      </trkpt>
      <trkpt lat="43.99472" lon="3.54598">
        <ele>688</ele>
        <time>2012-03-03T18:23:01Z</time>
      </trkpt>
      <trkpt lat="43.99477" lon="3.54598">
        <ele>688</ele>
        <time>2012-03-03T18:23:06Z</time>
      </trkpt>
      <trkpt lat="43.99481" lon="3.54602">
        <ele>687</ele>
        <time>2012-03-03T18:23:11Z</time>
      </trkpt>
      <trkpt lat="43.99486" lon="3.54605">
        <ele>686</ele>
        <time>2012-03-03T18:23:16Z</time>
      </trkpt>
      <trkpt lat="43.99488" lon="3.54605">
        <ele>687</ele>
        <time>2012-03-03T18:23:21Z</time>
      </trkpt>
      <trkpt lat="43.9949" lon="3.54604">
        <ele>687</ele>
        <time>2012-03-03T18:23:26Z</time>
      </trkpt>
      <trkpt lat="43.99493" lon="3.5461">
        <ele>686</ele>
        <time>2012-03-03T18:23:31Z</time>
      </trkpt>
      <trkpt lat="43.99498" lon="3.54613">
        <ele>685</ele>
        <time>2012-03-03T18:23:36Z</time>
      </trkpt>
      <trkpt lat="43.99502" lon="3.54618">
        <ele>676</ele>
        <time>2012-03-03T18:23:41Z</time>
      </trkpt>
      <trkpt lat="43.99506" lon="3.54621">
        <ele>675</ele>
        <time>2012-03-03T18:23:46Z</time>
      </trkpt>
      <trkpt lat="43.99512" lon="3.54624">
        <ele>675</ele>
        <time>2012-03-03T18:23:51Z</time>
      </trkpt>
      <trkpt lat="43.99517" lon="3.54627">
        <ele>674</ele>
        <time>2012-03-03T18:23:56Z</time>
      </trkpt>
      <trkpt lat="43.9952" lon="3.54629">
        <ele>673</ele>
        <time>2012-03-03T18:24:01Z</time>
      </trkpt>
      <trkpt lat="43.99524" lon="3.54631">
        <ele>673</ele>
        <time>2012-03-03T18:24:06Z</time>
      </trkpt>
      <trkpt lat="43.99529" lon="3.54634">
        <ele>672</ele>
        <time>2012-03-03T18:24:11Z</time>
      </trkpt>
      <trkpt lat="43.99533" lon="3.54638">
        <ele>672</ele>
        <time>2012-03-03T18:24:16Z</time>
      </trkpt>
      <trkpt lat="43.99537" lon="3.54641">
        <ele>671</ele>
        <time>2012-03-03T18:24:21Z</time>
      </trkpt>
      <trkpt lat="43.9954" lon="3.54644">
        <ele>671</ele>
        <time>2012-03-03T18:24:26Z</time>
      </trkpt>
      <trkpt lat="43.99543" lon="3.54645">
        <ele>671</ele>
        <time>2012-03-03T18:24:31Z</time>
      </trkpt>
      <trkpt lat="43.99546" lon="3.54646">
        <ele>671</ele>
        <time>2012-03-03T18:24:36Z</time>
      </trkpt>
      <trkpt lat="43.99548" lon="3.54646">
        <ele>671</ele>
        <time>2012-03-03T18:24:41Z</time>
      </trkpt>
      <trkpt lat="43.99552" lon="3.54649">
        <ele>670</ele>
        <time>2012-03-03T18:24:46Z</time>
      </trkpt>
      <trkpt lat="43.99555" lon="3.54653">
        <ele>670</ele>
        <time>2012-03-03T18:24:51Z</time>
      </trkpt>
      <trkpt lat="43.99558" lon="3.54655">
        <ele>669</ele>
        <time>2012-03-03T18:24:56Z</time>
      </trkpt>
      <trkpt lat="43.99561" lon="3.54657">
        <ele>669</ele>
        <time>2012-03-03T18:25:01Z</time>
      </trkpt>
      <trkpt lat="43.99564" lon="3.54658">
        <ele>668</ele>
        <time>2012-03-03T18:25:06Z</time>
      </trkpt>
      <trkpt lat="43.99568" lon="3.54659">
        <ele>667</ele>
        <time>2012-03-03T18:25:11Z</time>
      </trkpt>
      <trkpt lat="43.99567" lon="3.5466">
        <ele>667</ele>
        <time>2012-03-03T18:25:16Z</time>
      </trkpt>
      <trkpt lat="43.99569" lon="3.54661">
        <ele>667</ele>
        <time>2012-03-03T18:25:21Z</time>
      </trkpt>
      <trkpt lat="43.99569" lon="3.5466">
        <ele>667</ele>
        <time>2012-03-03T18:25:26Z</time>
      </trkpt>
      <trkpt lat="43.9957" lon="3.54658">
        <ele>667</ele>
        <time>2012-03-03T18:25:31Z</time>
      </trkpt>
      <trkpt lat="43.9957" lon="3.54657">
        <ele>667</ele>
        <time>2012-03-03T18:25:36Z</time>
      </trkpt>
      <trkpt lat="43.99573" lon="3.54652">
        <ele>668</ele>
        <time>2012-03-03T18:25:41Z</time>
      </trkpt>
      <trkpt lat="43.99575" lon="3.54648">
        <ele>669</ele>
        <time>2012-03-03T18:25:46Z</time>
      </trkpt>
      <trkpt lat="43.99578" lon="3.54645">
        <ele>669</ele>
        <time>2012-03-03T18:25:51Z</time>
      </trkpt>
      <trkpt lat="43.9958" lon="3.54642">
        <ele>669</ele>
        <time>2012-03-03T18:25:56Z</time>
      </trkpt>
      <trkpt lat="43.9958" lon="3.54636">
        <ele>671</ele>
        <time>2012-03-03T18:26:01Z</time>
      </trkpt>
      <trkpt lat="43.99579" lon="3.54632">
        <ele>671</ele>
        <time>2012-03-03T18:26:06Z</time>
      </trkpt>
      <trkpt lat="43.9958" lon="3.54626">
        <ele>672</ele>
        <time>2012-03-03T18:26:11Z</time>
      </trkpt>
      <trkpt lat="43.99582" lon="3.54618">
        <ele>674</ele>
        <time>2012-03-03T18:26:16Z</time>
      </trkpt>
      <trkpt lat="43.99584" lon="3.54609">
        <ele>661</ele>
        <time>2012-03-03T18:26:21Z</time>
      </trkpt>
      <trkpt lat="43.99586" lon="3.54598">
        <ele>666</ele>
        <time>2012-03-03T18:26:26Z</time>
      </trkpt>
      <trkpt lat="43.99587" lon="3.54587">
        <ele>674</ele>
        <time>2012-03-03T18:26:31Z</time>
      </trkpt>
      <trkpt lat="43.99591" lon="3.5458">
        <ele>675</ele>
        <time>2012-03-03T18:26:36Z</time>
      </trkpt>
      <trkpt lat="43.99594" lon="3.54569">
        <ele>672</ele>
        <time>2012-03-03T18:26:41Z</time>
      </trkpt>
      <trkpt lat="43.99596" lon="3.54559">
        <ele>671</ele>
        <time>2012-03-03T18:26:46Z</time>
      </trkpt>
      <trkpt lat="43.99596" lon="3.5455">
        <ele>671</ele>
        <time>2012-03-03T18:26:51Z</time>
      </trkpt>
      <trkpt lat="43.99595" lon="3.54539">
        <ele>672</ele>
        <time>2012-03-03T18:26:56Z</time>
      </trkpt>
      <trkpt lat="43.99598" lon="3.54534">
        <ele>673</ele>
        <time>2012-03-03T18:27:01Z</time>
      </trkpt>
      <trkpt lat="43.99603" lon="3.54525">
        <ele>674</ele>
        <time>2012-03-03T18:27:06Z</time>
      </trkpt>
      <trkpt lat="43.99603" lon="3.54515">
        <ele>677</ele>
        <time>2012-03-03T18:27:11Z</time>
      </trkpt>
      <trkpt lat="43.99607" lon="3.54507">
        <ele>677</ele>
        <time>2012-03-03T18:27:16Z</time>
      </trkpt>
      <trkpt lat="43.99609" lon="3.54499">
        <ele>688</ele>
        <time>2012-03-03T18:27:21Z</time>
      </trkpt>
      <trkpt lat="43.99611" lon="3.54491">
        <ele>687</ele>
        <time>2012-03-03T18:27:26Z</time>
      </trkpt>
      <trkpt lat="43.99617" lon="3.54479">
        <ele>685</ele>
        <time>2012-03-03T18:27:31Z</time>
      </trkpt>
      <trkpt lat="43.99618" lon="3.54476">
        <ele>685</ele>
        <time>2012-03-03T18:27:36Z</time>
      </trkpt>
      <trkpt lat="43.99622" lon="3.54474">
        <ele>684</ele>
        <time>2012-03-03T18:27:41Z</time>
      </trkpt>
      <trkpt lat="43.99622" lon="3.54469">
        <ele>685</ele>
        <time>2012-03-03T18:27:46Z</time>
      </trkpt>
      <trkpt lat="43.99622" lon="3.54463">
        <ele>685</ele>
        <time>2012-03-03T18:27:51Z</time>
      </trkpt>
      <trkpt lat="43.99623" lon="3.54458">
        <ele>686</ele>
        <time>2012-03-03T18:27:56Z</time>
      </trkpt>
      <trkpt lat="43.99623" lon="3.54453">
        <ele>687</ele>
        <time>2012-03-03T18:28:01Z</time>
      </trkpt>
      <trkpt lat="43.99626" lon="3.54447">
        <ele>687</ele>
        <time>2012-03-03T18:28:06Z</time>
      </trkpt>
      <trkpt lat="43.99628" lon="3.54441">
        <ele>687</ele>
        <time>2012-03-03T18:28:11Z</time>
      </trkpt>
      <trkpt lat="43.99629" lon="3.54436">
        <ele>687</ele>
        <time>2012-03-03T18:28:16Z</time>
      </trkpt>
      <trkpt lat="43.99628" lon="3.54431">
        <ele>688</ele>
        <time>2012-03-03T18:28:21Z</time>
      </trkpt>
      <trkpt lat="43.9963" lon="3.54427">
        <ele>688</ele>
        <time>2012-03-03T18:28:26Z</time>
      </trkpt>
      <trkpt lat="43.99634" lon="3.5442">
        <ele>687</ele>
        <time>2012-03-03T18:28:31Z</time>
      </trkpt>
      <trkpt lat="43.99634" lon="3.54416">
        <ele>703</ele>
        <time>2012-03-03T18:28:36Z</time>
      </trkpt>
      <trkpt lat="43.99634" lon="3.5441">
        <ele>704</ele>
        <time>2012-03-03T18:28:41Z</time>
      </trkpt>
      <trkpt lat="43.99635" lon="3.54409">
        <ele>703</ele>
        <time>2012-03-03T18:28:46Z</time>
      </trkpt>
      <trkpt lat="43.99636" lon="3.54405">
        <ele>703</ele>
        <time>2012-03-03T18:28:51Z</time>
      </trkpt>
      <trkpt lat="43.9964" lon="3.544">
        <ele>702</ele>
        <time>2012-03-03T18:28:56Z</time>
      </trkpt>
      <trkpt lat="43.99643" lon="3.54395">
        <ele>702</ele>
        <time>2012-03-03T18:29:01Z</time>
      </trkpt>
      <trkpt lat="43.99645" lon="3.54389">
        <ele>703</ele>
        <time>2012-03-03T18:29:06Z</time>
      </trkpt>
      <trkpt lat="43.99645" lon="3.5438">
        <ele>706</ele>
        <time>2012-03-03T18:29:11Z</time>
      </trkpt>
      <trkpt lat="43.99649" lon="3.54374">
        <ele>706</ele>
        <time>2012-03-03T18:29:16Z</time>
      </trkpt>
      <trkpt lat="43.9965" lon="3.54367">
        <ele>707</ele>
        <time>2012-03-03T18:29:21Z</time>
      </trkpt>
      <trkpt lat="43.99652" lon="3.54362">
        <ele>707</ele>
        <time>2012-03-03T18:29:26Z</time>
      </trkpt>
      <trkpt lat="43.99655" lon="3.54356">
        <ele>707</ele>
        <time>2012-03-03T18:29:31Z</time>
      </trkpt>
      <trkpt lat="43.99657" lon="3.54352">
        <ele>707</ele>
        <time>2012-03-03T18:29:36Z</time>
      </trkpt>
      <trkpt lat="43.9966" lon="3.54349">
        <ele>706</ele>
        <time>2012-03-03T18:29:41Z</time>
      </trkpt>
      <trkpt lat="43.99661" lon="3.54343">
        <ele>705</ele>
        <time>2012-03-03T18:29:46Z</time>
      </trkpt>
      <trkpt lat="43.99661" lon="3.54339">
        <ele>705</ele>
        <time>2012-03-03T18:29:51Z</time>
      </trkpt>
      <trkpt lat="43.99662" lon="3.54335">
        <ele>704</ele>
        <time>2012-03-03T18:29:56Z</time>
      </trkpt>
      <trkpt lat="43.99664" lon="3.54331">
        <ele>707</ele>
        <time>2012-03-03T18:30:01Z</time>
      </trkpt>
      <trkpt lat="43.99667" lon="3.54324">
        <ele>700</ele>
        <time>2012-03-03T18:30:06Z</time>
      </trkpt>
      <trkpt lat="43.99669" lon="3.54315">
        <ele>699</ele>
        <time>2012-03-03T18:30:11Z</time>
      </trkpt>
      <trkpt lat="43.9967" lon="3.54309">
        <ele>699</ele>
        <time>2012-03-03T18:30:16Z</time>
      </trkpt>
      <trkpt lat="43.99671" lon="3.54307">
        <ele>699</ele>
        <time>2012-03-03T18:30:21Z</time>
      </trkpt>
      <trkpt lat="43.99669" lon="3.54302">
        <ele>700</ele>
        <time>2012-03-03T18:30:26Z</time>
      </trkpt>
      <trkpt lat="43.99669" lon="3.54297">
        <ele>701</ele>
        <time>2012-03-03T18:30:31Z</time>
      </trkpt>
      <trkpt lat="43.99671" lon="3.5429">
        <ele>702</ele>
        <time>2012-03-03T18:30:36Z</time>
      </trkpt>
      <trkpt lat="43.99672" lon="3.54285">
        <ele>703</ele>
        <time>2012-03-03T18:30:41Z</time>
      </trkpt>
      <trkpt lat="43.99675" lon="3.54275">
        <ele>707</ele>
        <time>2012-03-03T18:30:46Z</time>
      </trkpt>
      <trkpt lat="43.99676" lon="3.54268">
        <ele>710</ele>
        <time>2012-03-03T18:30:51Z</time>
      </trkpt>
      <trkpt lat="43.9968" lon="3.5426">
        <ele>713</ele>
        <time>2012-03-03T18:30:56Z</time>
      </trkpt>
      <trkpt lat="43.99685" lon="3.54251">
        <ele>711</ele>
        <time>2012-03-03T18:31:01Z</time>
      </trkpt>
      <trkpt lat="43.9969" lon="3.54241">
        <ele>722</ele>
        <time>2012-03-03T18:31:06Z</time>
      </trkpt>
      <trkpt lat="43.99696" lon="3.54234">
        <ele>720</ele>
        <time>2012-03-03T18:31:11Z</time>
      </trkpt>
      <trkpt lat="43.99702" lon="3.54228">
        <ele>718</ele>
        <time>2012-03-03T18:31:16Z</time>
      </trkpt>
      <trkpt lat="43.99708" lon="3.54222">
        <ele>717</ele>
        <time>2012-03-03T18:31:21Z</time>
      </trkpt>
      <trkpt lat="43.99712" lon="3.54216">
        <ele>717</ele>
        <time>2012-03-03T18:31:26Z</time>
      </trkpt>
      <trkpt lat="43.99713" lon="3.54209">
        <ele>718</ele>
        <time>2012-03-03T18:31:31Z</time>
      </trkpt>
      <trkpt lat="43.99716" lon="3.54204">
        <ele>718</ele>
        <time>2012-03-03T18:31:36Z</time>
      </trkpt>
      <trkpt lat="43.9972" lon="3.54196">
        <ele>717</ele>
        <time>2012-03-03T18:31:41Z</time>
      </trkpt>
      <trkpt lat="43.99723" lon="3.54189">
        <ele>717</ele>
        <time>2012-03-03T18:31:46Z</time>
      </trkpt>
      <trkpt lat="43.99727" lon="3.54179">
        <ele>717</ele>
        <time>2012-03-03T18:31:51Z</time>
      </trkpt>
      <trkpt lat="43.99731" lon="3.54173">
        <ele>715</ele>
        <time>2012-03-03T18:31:56Z</time>
      </trkpt>
      <trkpt lat="43.99734" lon="3.54165">
        <ele>724</ele>
        <time>2012-03-03T18:32:01Z</time>
      </trkpt>
      <trkpt lat="43.99736" lon="3.54156">
        <ele>725</ele>
        <time>2012-03-03T18:32:06Z</time>
      </trkpt>
      <trkpt lat="43.99742" lon="3.54147">
        <ele>726</ele>
        <time>2012-03-03T18:32:11Z</time>
      </trkpt>
      <trkpt lat="43.99746" lon="3.54141">
        <ele>728</ele>
        <time>2012-03-03T18:32:16Z</time>
      </trkpt>
      <trkpt lat="43.99748" lon="3.54137">
        <ele>729</ele>
        <time>2012-03-03T18:32:21Z</time>
      </trkpt>
      <trkpt lat="43.9975" lon="3.54131">
        <ele>700</ele>
        <time>2012-03-03T18:32:26Z</time>
      </trkpt>
      <trkpt lat="43.99752" lon="3.54128">
        <ele>700</ele>
        <time>2012-03-03T18:32:31Z</time>
      </trkpt>
      <trkpt lat="43.99756" lon="3.54123">
        <ele>700</ele>
        <time>2012-03-03T18:32:36Z</time>
      </trkpt>
      <trkpt lat="43.9976" lon="3.54119">
        <ele>700</ele>
        <time>2012-03-03T18:32:41Z</time>
      </trkpt>
      <trkpt lat="43.99759" lon="3.54114">
        <ele>702</ele>
        <time>2012-03-03T18:32:46Z</time>
      </trkpt>
      <trkpt lat="43.99762" lon="3.5411">
        <ele>703</ele>
        <time>2012-03-03T18:32:51Z</time>
      </trkpt>
      <trkpt lat="43.99762" lon="3.54108">
        <ele>703</ele>
        <time>2012-03-03T18:32:56Z</time>
      </trkpt>
      <trkpt lat="43.99761" lon="3.54108">
        <ele>704</ele>
        <time>2012-03-03T18:33:01Z</time>
      </trkpt>
      <trkpt lat="43.99762" lon="3.54107">
        <ele>704</ele>
        <time>2012-03-03T18:33:06Z</time>
      </trkpt>
      <trkpt lat="43.99763" lon="3.54104">
        <ele>705</ele>
        <time>2012-03-03T18:33:11Z</time>
      </trkpt>
      <trkpt lat="43.99763" lon="3.54099">
        <ele>707</ele>
        <time>2012-03-03T18:33:16Z</time>
      </trkpt>
      <trkpt lat="43.99764" lon="3.54093">
        <ele>710</ele>
        <time>2012-03-03T18:33:21Z</time>
      </trkpt>
      <trkpt lat="43.99763" lon="3.54086">
        <ele>712</ele>
        <time>2012-03-03T18:33:26Z</time>
      </trkpt>
      <trkpt lat="43.99763" lon="3.54082">
        <ele>715</ele>
        <time>2012-03-03T18:33:31Z</time>
      </trkpt>
      <trkpt lat="43.99763" lon="3.54076">
        <ele>714</ele>
        <time>2012-03-03T18:33:36Z</time>
      </trkpt>
      <trkpt lat="43.99762" lon="3.54071">
        <ele>712</ele>
        <time>2012-03-03T18:33:41Z</time>
      </trkpt>
      <trkpt lat="43.99762" lon="3.54065">
        <ele>710</ele>
        <time>2012-03-03T18:33:46Z</time>
      </trkpt>
      <trkpt lat="43.99764" lon="3.54058">
        <ele>707</ele>
        <time>2012-03-03T18:33:51Z</time>
      </trkpt>
      <trkpt lat="43.99765" lon="3.54053">
        <ele>706</ele>
        <time>2012-03-03T18:33:56Z</time>
      </trkpt>
      <trkpt lat="43.99756" lon="3.54045">
        <ele>706</ele>
        <time>2012-03-03T18:34:01Z</time>
      </trkpt>
      <trkpt lat="43.99752" lon="3.54038">
        <ele>706</ele>
        <time>2012-03-03T18:34:06Z</time>
      </trkpt>
      <trkpt lat="43.99752" lon="3.54032">
        <ele>707</ele>
        <time>2012-03-03T18:34:11Z</time>
      </trkpt>
      <trkpt lat="43.99751" lon="3.54025">
        <ele>708</ele>
        <time>2012-03-03T18:34:16Z</time>
      </trkpt>
      <trkpt lat="43.99744" lon="3.54018">
        <ele>733</ele>
        <time>2012-03-03T18:34:21Z</time>
      </trkpt>
      <trkpt lat="43.99741" lon="3.54011">
        <ele>731</ele>
        <time>2012-03-03T18:34:26Z</time>
      </trkpt>
      <trkpt lat="43.99744" lon="3.53999">
        <ele>724</ele>
        <time>2012-03-03T18:34:31Z</time>
      </trkpt>
      <trkpt lat="43.99743" lon="3.53988">
        <ele>729</ele>
        <time>2012-03-03T18:34:36Z</time>
      </trkpt>
      <trkpt lat="43.99741" lon="3.53978">
        <ele>732</ele>
        <time>2012-03-03T18:34:41Z</time>
      </trkpt>
      <trkpt lat="43.99738" lon="3.53969">
        <ele>734</ele>
        <time>2012-03-03T18:34:46Z</time>
      </trkpt>
      <trkpt lat="43.99732" lon="3.53962">
        <ele>735</ele>
        <time>2012-03-03T18:34:51Z</time>
      </trkpt>
      <trkpt lat="43.99732" lon="3.53955">
        <ele>735</ele>
        <time>2012-03-03T18:34:56Z</time>
      </trkpt>
      <trkpt lat="43.99728" lon="3.53948">
        <ele>736</ele>
        <time>2012-03-03T18:35:01Z</time>
      </trkpt>
      <trkpt lat="43.99726" lon="3.53936">
        <ele>735</ele>
        <time>2012-03-03T18:35:06Z</time>
      </trkpt>
      <trkpt lat="43.99731" lon="3.53929">
        <ele>733</ele>
        <time>2012-03-03T18:35:11Z</time>
      </trkpt>
      <trkpt lat="43.99737" lon="3.53923">
        <ele>729</ele>
        <time>2012-03-03T18:35:16Z</time>
      </trkpt>
      <trkpt lat="43.99742" lon="3.53913">
        <ele>729</ele>
        <time>2012-03-03T18:35:21Z</time>
      </trkpt>
      <trkpt lat="43.99749" lon="3.53907">
        <ele>730</ele>
        <time>2012-03-03T18:35:26Z</time>
      </trkpt>
      <trkpt lat="43.99753" lon="3.539">
        <ele>718</ele>
        <time>2012-03-03T18:35:31Z</time>
      </trkpt>
      <trkpt lat="43.99757" lon="3.53893">
        <ele>718</ele>
        <time>2012-03-03T18:35:36Z</time>
      </trkpt>
      <trkpt lat="43.9976" lon="3.53887">
        <ele>718</ele>
        <time>2012-03-03T18:35:41Z</time>
      </trkpt>
      <trkpt lat="43.99766" lon="3.53882">
        <ele>718</ele>
        <time>2012-03-03T18:35:46Z</time>
      </trkpt>
      <trkpt lat="43.99773" lon="3.53877">
        <ele>718</ele>
        <time>2012-03-03T18:35:51Z</time>
      </trkpt>
      <trkpt lat="43.99777" lon="3.53868">
        <ele>719</ele>
        <time>2012-03-03T18:35:56Z</time>
      </trkpt>
      <trkpt lat="43.99781" lon="3.5386">
        <ele>719</ele>
        <time>2012-03-03T18:36:01Z</time>
      </trkpt>
      <trkpt lat="43.99786" lon="3.53847">
        <ele>720</ele>
        <time>2012-03-03T18:36:06Z</time>
      </trkpt>
      <trkpt lat="43.99793" lon="3.53837">
        <ele>719</ele>
        <time>2012-03-03T18:36:11Z</time>
      </trkpt>
      <trkpt lat="43.99797" lon="3.5383">
        <ele>733</ele>
        <time>2012-03-03T18:36:16Z</time>
      </trkpt>
      <trkpt lat="43.99804" lon="3.53818">
        <ele>732</ele>
        <time>2012-03-03T18:36:21Z</time>
      </trkpt>
      <trkpt lat="43.99804" lon="3.53815">
        <ele>732</ele>
        <time>2012-03-03T18:36:26Z</time>
      </trkpt>
      <trkpt lat="43.99804" lon="3.53813">
        <ele>733</ele>
        <time>2012-03-03T18:36:31Z</time>
      </trkpt>
      <trkpt lat="43.99808" lon="3.53805">
        <ele>733</ele>
        <time>2012-03-03T18:36:36Z</time>
      </trkpt>
      <trkpt lat="43.9981" lon="3.53799">
        <ele>734</ele>
        <time>2012-03-03T18:36:41Z</time>
      </trkpt>
      <trkpt lat="43.99811" lon="3.53791">
        <ele>735</ele>
        <time>2012-03-03T18:36:46Z</time>
      </trkpt>
      <trkpt lat="43.99815" lon="3.53783">
        <ele>736</ele>
        <time>2012-03-03T18:36:51Z</time>
      </trkpt>
      <trkpt lat="43.99817" lon="3.53775">
        <ele>736</ele>
        <time>2012-03-03T18:36:56Z</time>
      </trkpt>
      <trkpt lat="43.9982" lon="3.53773">
        <ele>736</ele>
        <time>2012-03-03T18:37:01Z</time>
      </trkpt>
      <trkpt lat="43.99824" lon="3.53771">
        <ele>736</ele>
        <time>2012-03-03T18:37:06Z</time>
      </trkpt>
      <trkpt lat="43.99829" lon="3.5377">
        <ele>736</ele>
        <time>2012-03-03T18:37:11Z</time>
      </trkpt>
      <trkpt lat="43.99832" lon="3.53769">
        <ele>736</ele>
        <time>2012-03-03T18:37:16Z</time>
      </trkpt>
      <trkpt lat="43.99839" lon="3.53767">
        <ele>727</ele>
        <time>2012-03-03T18:37:21Z</time>
      </trkpt>
      <trkpt lat="43.99845" lon="3.53764">
        <ele>727</ele>
        <time>2012-03-03T18:37:26Z</time>
      </trkpt>
      <trkpt lat="43.99853" lon="3.53761">
        <ele>726</ele>
        <time>2012-03-03T18:37:31Z</time>
      </trkpt>
      <trkpt lat="43.99859" lon="3.53761">
        <ele>725</ele>
        <time>2012-03-03T18:37:36Z</time>
      </trkpt>
      <trkpt lat="43.99864" lon="3.5376">
        <ele>725</ele>
        <time>2012-03-03T18:37:41Z</time>
      </trkpt>
      <trkpt lat="43.99872" lon="3.53761">
        <ele>724</ele>
        <time>2012-03-03T18:37:46Z</time>
      </trkpt>
      <trkpt lat="43.9988" lon="3.5376">
        <ele>724</ele>
        <time>2012-03-03T18:37:51Z</time>
      </trkpt>
      <trkpt lat="43.99887" lon="3.53759">
        <ele>724</ele>
        <time>2012-03-03T18:37:56Z</time>
      </trkpt>
      <trkpt lat="43.99897" lon="3.53756">
        <ele>725</ele>
        <time>2012-03-03T18:38:01Z</time>
      </trkpt>
      <trkpt lat="43.99905" lon="3.53753">
        <ele>726</ele>
        <time>2012-03-03T18:38:06Z</time>
      </trkpt>
      <trkpt lat="43.9991" lon="3.53748">
        <ele>730</ele>
        <time>2012-03-03T18:38:11Z</time>
      </trkpt>
      <trkpt lat="43.99914" lon="3.53743">
        <ele>731</ele>
        <time>2012-03-03T18:38:16Z</time>
      </trkpt>
      <trkpt lat="43.99918" lon="3.53734">
        <ele>733</ele>
        <time>2012-03-03T18:38:21Z</time>
      </trkpt>
      <trkpt lat="43.99919" lon="3.53729">
        <ele>734</ele>
        <time>2012-03-03T18:38:26Z</time>
      </trkpt>
      <trkpt lat="43.99921" lon="3.53726">
        <ele>734</ele>
        <time>2012-03-03T18:38:31Z</time>
      </trkpt>
      <trkpt lat="43.99922" lon="3.53725">
        <ele>734</ele>
        <time>2012-03-03T18:38:36Z</time>
      </trkpt>
      <trkpt lat="43.99924" lon="3.5372">
        <ele>735</ele>
        <time>2012-03-03T18:38:41Z</time>
      </trkpt>
      <trkpt lat="43.99926" lon="3.53714">
        <ele>736</ele>
        <time>2012-03-03T18:38:46Z</time>
      </trkpt>
      <trkpt lat="43.99927" lon="3.53707">
        <ele>736</ele>
        <time>2012-03-03T18:38:51Z</time>
      </trkpt>
      <trkpt lat="43.99927" lon="3.53701">
        <ele>736</ele>
        <time>2012-03-03T18:38:56Z</time>
      </trkpt>
      <trkpt lat="43.99929" lon="3.53693">
        <ele>737</ele>
        <time>2012-03-03T18:39:01Z</time>
      </trkpt>
      <trkpt lat="43.99931" lon="3.53687">
        <ele>737</ele>
        <time>2012-03-03T18:39:06Z</time>
      </trkpt>
      <trkpt lat="43.99933" lon="3.53681">
        <ele>737</ele>
        <time>2012-03-03T18:39:11Z</time>
      </trkpt>
      <trkpt lat="43.99936" lon="3.53673">
        <ele>737</ele>
        <time>2012-03-03T18:39:16Z</time>
      </trkpt>
      <trkpt lat="43.99935" lon="3.53668">
        <ele>737</ele>
        <time>2012-03-03T18:39:21Z</time>
      </trkpt>
      <trkpt lat="43.99931" lon="3.53664">
        <ele>735</ele>
        <time>2012-03-03T18:39:26Z</time>
      </trkpt>
      <trkpt lat="43.99928" lon="3.53663">
        <ele>735</ele>
        <time>2012-03-03T18:39:31Z</time>
      </trkpt>
      <trkpt lat="43.99929" lon="3.53664">
        <ele>735</ele>
        <time>2012-03-03T18:39:36Z</time>
      </trkpt>
      <trkpt lat="43.99929" lon="3.53662">
        <ele>735</ele>
        <time>2012-03-03T18:39:41Z</time>
      </trkpt>
      <trkpt lat="43.99929" lon="3.53663">
        <ele>735</ele>
        <time>2012-03-03T18:39:46Z</time>
      </trkpt>
      <trkpt lat="43.99926" lon="3.53665">
        <ele>735</ele>
        <time>2012-03-03T18:39:51Z</time>
      </trkpt>
      <trkpt lat="43.99921" lon="3.53668">
        <ele>736</ele>
        <time>2012-03-03T18:39:56Z</time>
      </trkpt>
      <trkpt lat="43.99917" lon="3.5367">
        <ele>736</ele>
        <time>2012-03-03T18:40:01Z</time>
      </trkpt>
      <trkpt lat="43.99912" lon="3.53673">
        <ele>736</ele>
        <time>2012-03-03T18:40:06Z</time>
      </trkpt>
      <trkpt lat="43.99908" lon="3.53676">
        <ele>735</ele>
        <time>2012-03-03T18:40:11Z</time>
      </trkpt>
      <trkpt lat="43.99904" lon="3.53677">
        <ele>735</ele>
        <time>2012-03-03T18:40:16Z</time>
      </trkpt>
      <trkpt lat="43.999" lon="3.53681">
        <ele>735</ele>
        <time>2012-03-03T18:40:21Z</time>
      </trkpt>
      <trkpt lat="43.99892" lon="3.53689">
        <ele>735</ele>
        <time>2012-03-03T18:40:26Z</time>
      </trkpt>
      <trkpt lat="43.99881" lon="3.53689">
        <ele>735</ele>
        <time>2012-03-03T18:40:31Z</time>
      </trkpt>
      <trkpt lat="43.99869" lon="3.5369">
        <ele>735</ele>
        <time>2012-03-03T18:40:36Z</time>
      </trkpt>
      <trkpt lat="43.99857" lon="3.53694">
        <ele>736</ele>
        <time>2012-03-03T18:40:41Z</time>
      </trkpt>
      <trkpt lat="43.99847" lon="3.53697">
        <ele>736</ele>
        <time>2012-03-03T18:40:46Z</time>
      </trkpt>
      <trkpt lat="43.99841" lon="3.53698">
        <ele>736</ele>
        <time>2012-03-03T18:40:51Z</time>
      </trkpt>
      <trkpt lat="43.99834" lon="3.53698">
        <ele>736</ele>
        <time>2012-03-03T18:40:56Z</time>
      </trkpt>
      <trkpt lat="43.99829" lon="3.53699">
        <ele>746</ele>
        <time>2012-03-03T18:41:01Z</time>
      </trkpt>
      <trkpt lat="43.99825" lon="3.53699">
        <ele>746</ele>
        <time>2012-03-03T18:41:06Z</time>
      </trkpt>
      <trkpt lat="43.9982" lon="3.53699">
        <ele>747</ele>
        <time>2012-03-03T18:41:11Z</time>
      </trkpt>
      <trkpt lat="43.99815" lon="3.53698">
        <ele>747</ele>
        <time>2012-03-03T18:41:16Z</time>
      </trkpt>
      <trkpt lat="43.99811" lon="3.53698">
        <ele>748</ele>
        <time>2012-03-03T18:41:21Z</time>
      </trkpt>
      <trkpt lat="43.99807" lon="3.53699">
        <ele>749</ele>
        <time>2012-03-03T18:41:26Z</time>
      </trkpt>
      <trkpt lat="43.99802" lon="3.53699">
        <ele>749</ele>
        <time>2012-03-03T18:41:31Z</time>
      </trkpt>
      <trkpt lat="43.998" lon="3.53698">
        <ele>750</ele>
        <time>2012-03-03T18:41:36Z</time>
      </trkpt>
      <trkpt lat="43.99795" lon="3.53699">
        <ele>751</ele>
        <time>2012-03-03T18:41:41Z</time>
      </trkpt>
      <trkpt lat="43.99792" lon="3.53694">
        <ele>751</ele>
        <time>2012-03-03T18:41:46Z</time>
      </trkpt>
      <trkpt lat="43.99788" lon="3.53688">
        <ele>752</ele>
        <time>2012-03-03T18:41:51Z</time>
      </trkpt>
      <trkpt lat="43.99784" lon="3.53684">
        <ele>753</ele>
        <time>2012-03-03T18:41:56Z</time>
      </trkpt>
      <trkpt lat="43.99781" lon="3.53683">
        <ele>754</ele>
        <time>2012-03-03T18:42:01Z</time>
      </trkpt>
      <trkpt lat="43.9978" lon="3.53686">
        <ele>754</ele>
        <time>2012-03-03T18:42:06Z</time>
      </trkpt>
      <trkpt lat="43.99779" lon="3.53693">
        <ele>754</ele>
        <time>2012-03-03T18:42:11Z</time>
      </trkpt>
      <trkpt lat="43.99777" lon="3.537">
        <ele>754</ele>
        <time>2012-03-03T18:42:16Z</time>
      </trkpt>
      <trkpt lat="43.99776" lon="3.53709">
        <ele>754</ele>
        <time>2012-03-03T18:42:21Z</time>
      </trkpt>
      <trkpt lat="43.99775" lon="3.53717">
        <ele>754</ele>
        <time>2012-03-03T18:42:26Z</time>
      </trkpt>
      <trkpt lat="43.99776" lon="3.53727">
        <ele>754</ele>
        <time>2012-03-03T18:42:31Z</time>
      </trkpt>
      <trkpt lat="43.99772" lon="3.53735">
        <ele>755</ele>
        <time>2012-03-03T18:42:36Z</time>
      </trkpt>
      <trkpt lat="43.99769" lon="3.5374">
        <ele>757</ele>
        <time>2012-03-03T18:42:41Z</time>
      </trkpt>
      <trkpt lat="43.99766" lon="3.53747">
        <ele>758</ele>
        <time>2012-03-03T18:42:46Z</time>
      </trkpt>
      <trkpt lat="43.99762" lon="3.53751">
        <ele>755</ele>
        <time>2012-03-03T18:42:51Z</time>
      </trkpt>
      <trkpt lat="43.99759" lon="3.53759">
        <ele>754</ele>
        <time>2012-03-03T18:42:56Z</time>
      </trkpt>
      <trkpt lat="43.99756" lon="3.53766">
        <ele>752</ele>
        <time>2012-03-03T18:43:01Z</time>
      </trkpt>
      <trkpt lat="43.99752" lon="3.53771">
        <ele>750</ele>
        <time>2012-03-03T18:43:06Z</time>
      </trkpt>
      <trkpt lat="43.99748" lon="3.53777">
        <ele>769</ele>
        <time>2012-03-03T18:43:11Z</time>
      </trkpt>
      <trkpt lat="43.99742" lon="3.53784">
        <ele>769</ele>
        <time>2012-03-03T18:43:16Z</time>
      </trkpt>
      <trkpt lat="43.99738" lon="3.5379">
        <ele>768</ele>
        <time>2012-03-03T18:43:21Z</time>
      </trkpt>
      <trkpt lat="43.99734" lon="3.53794">
        <ele>768</ele>
        <time>2012-03-03T18:43:26Z</time>
      </trkpt>
      <trkpt lat="43.9973" lon="3.538">
        <ele>768</ele>
        <time>2012-03-03T18:43:31Z</time>
      </trkpt>
      <trkpt lat="43.99726" lon="3.53804">
        <ele>768</ele>
        <time>2012-03-03T18:43:36Z</time>
      </trkpt>
      <trkpt lat="43.9972" lon="3.53809">
        <ele>769</ele>
        <time>2012-03-03T18:43:41Z</time>
      </trkpt>
      <trkpt lat="43.99715" lon="3.53812">
        <ele>769</ele>
        <time>2012-03-03T18:43:46Z</time>
      </trkpt>
      <trkpt lat="43.9971" lon="3.53817">
        <ele>771</ele>
        <time>2012-03-03T18:43:51Z</time>
      </trkpt>
      <trkpt lat="43.99704" lon="3.53821">
        <ele>772</ele>
        <time>2012-03-03T18:43:56Z</time>
      </trkpt>
      <trkpt lat="43.99698" lon="3.53825">
        <ele>774</ele>
        <time>2012-03-03T18:44:01Z</time>
      </trkpt>
      <trkpt lat="43.99693" lon="3.5383">
        <ele>775</ele>
        <time>2012-03-03T18:44:06Z</time>
      </trkpt>
      <trkpt lat="43.99691" lon="3.53834">
        <ele>763</ele>
        <time>2012-03-03T18:44:11Z</time>
      </trkpt>
      <trkpt lat="43.99686" lon="3.53838">
        <ele>766</ele>
        <time>2012-03-03T18:44:16Z</time>
      </trkpt>
      <trkpt lat="43.9968" lon="3.53843">
        <ele>768</ele>
        <time>2012-03-03T18:44:21Z</time>
      </trkpt>
      <trkpt lat="43.99672" lon="3.53847">
        <ele>770</ele>
        <time>2012-03-03T18:44:26Z</time>
      </trkpt>
      <trkpt lat="43.99666" lon="3.53852">
        <ele>786</ele>
        <time>2012-03-03T18:44:31Z</time>
      </trkpt>
      <trkpt lat="43.99663" lon="3.53855">
        <ele>786</ele>
        <time>2012-03-03T18:44:36Z</time>
      </trkpt>
      <trkpt lat="43.99655" lon="3.53859">
        <ele>787</ele>
        <time>2012-03-03T18:44:41Z</time>
      </trkpt>
      <trkpt lat="43.9965" lon="3.53864">
        <ele>788</ele>
        <time>2012-03-03T18:44:46Z</time>
      </trkpt>
      <trkpt lat="43.99646" lon="3.53869">
        <ele>788</ele>
        <time>2012-03-03T18:44:51Z</time>
      </trkpt>
      <trkpt lat="43.99641" lon="3.53872">
        <ele>788</ele>
        <time>2012-03-03T18:44:56Z</time>
      </trkpt>
      <trkpt lat="43.99634" lon="3.53878">
        <ele>789</ele>
        <time>2012-03-03T18:45:01Z</time>
      </trkpt>
      <trkpt lat="43.99631" lon="3.53883">
        <ele>789</ele>
        <time>2012-03-03T18:45:06Z</time>
      </trkpt>
      <trkpt lat="43.99627" lon="3.53887">
        <ele>790</ele>
        <time>2012-03-03T18:45:11Z</time>
      </trkpt>
      <trkpt lat="43.99625" lon="3.53891">
        <ele>790</ele>
        <time>2012-03-03T18:45:16Z</time>
      </trkpt>
      <trkpt lat="43.99621" lon="3.53896">
        <ele>790</ele>
        <time>2012-03-03T18:45:21Z</time>
      </trkpt>
      <trkpt lat="43.99615" lon="3.539">
        <ele>792</ele>
        <time>2012-03-03T18:45:26Z</time>
      </trkpt>
      <trkpt lat="43.99611" lon="3.53904">
        <ele>793</ele>
        <time>2012-03-03T18:45:31Z</time>
      </trkpt>
      <trkpt lat="43.99604" lon="3.5391">
        <ele>795</ele>
        <time>2012-03-03T18:45:36Z</time>
      </trkpt>
      <trkpt lat="43.99601" lon="3.53916">
        <ele>796</ele>
        <time>2012-03-03T18:45:41Z</time>
      </trkpt>
      <trkpt lat="43.99599" lon="3.5392">
        <ele>793</ele>
        <time>2012-03-03T18:45:46Z</time>
      </trkpt>
      <trkpt lat="43.99599" lon="3.53923">
        <ele>793</ele>
        <time>2012-03-03T18:45:51Z</time>
      </trkpt>
      <trkpt lat="43.99598" lon="3.5393">
        <ele>792</ele>
        <time>2012-03-03T18:45:56Z</time>
      </trkpt>
      <trkpt lat="43.996" lon="3.53935">
        <ele>791</ele>
        <time>2012-03-03T18:46:01Z</time>
      </trkpt>
      <trkpt lat="43.99603" lon="3.53941">
        <ele>789</ele>
        <time>2012-03-03T18:46:06Z</time>
      </trkpt>
      <trkpt lat="43.99606" lon="3.53949">
        <ele>788</ele>
        <time>2012-03-03T18:46:11Z</time>
      </trkpt>
      <trkpt lat="43.99607" lon="3.53958">
        <ele>787</ele>
        <time>2012-03-03T18:46:16Z</time>
      </trkpt>
      <trkpt lat="43.99609" lon="3.5397">
        <ele>787</ele>
        <time>2012-03-03T18:46:21Z</time>
      </trkpt>
      <trkpt lat="43.9961" lon="3.53977">
        <ele>788</ele>
        <time>2012-03-03T18:46:26Z</time>
      </trkpt>
      <trkpt lat="43.99612" lon="3.53986">
        <ele>788</ele>
        <time>2012-03-03T18:46:31Z</time>
      </trkpt>
      <trkpt lat="43.99616" lon="3.53992">
        <ele>787</ele>
        <time>2012-03-03T18:46:36Z</time>
      </trkpt>
      <trkpt lat="43.9962" lon="3.54">
        <ele>785</ele>
        <time>2012-03-03T18:46:41Z</time>
      </trkpt>
      <trkpt lat="43.99622" lon="3.54007">
        <ele>786</ele>
        <time>2012-03-03T18:46:46Z</time>
      </trkpt>
      <trkpt lat="43.99625" lon="3.54013">
        <ele>786</ele>
        <time>2012-03-03T18:46:51Z</time>
      </trkpt>
      <trkpt lat="43.99633" lon="3.54026">
        <ele>784</ele>
        <time>2012-03-03T18:46:56Z</time>
      </trkpt>
      <trkpt lat="43.99639" lon="3.54038">
        <ele>783</ele>
        <time>2012-03-03T18:47:01Z</time>
      </trkpt>
      <trkpt lat="43.99641" lon="3.54047">
        <ele>783</ele>
        <time>2012-03-03T18:47:06Z</time>
      </trkpt>
      <trkpt lat="43.9964" lon="3.54057">
        <ele>783</ele>
        <time>2012-03-03T18:47:11Z</time>
      </trkpt>
      <trkpt lat="43.99639" lon="3.54064">
        <ele>783</ele>
        <time>2012-03-03T18:47:16Z</time>
      </trkpt>
      <trkpt lat="43.99638" lon="3.54074">
        <ele>783</ele>
        <time>2012-03-03T18:47:21Z</time>
      </trkpt>
      <trkpt lat="43.99637" lon="3.54084">
        <ele>781</ele>
        <time>2012-03-03T18:47:26Z</time>
      </trkpt>
      <trkpt lat="43.99632" lon="3.54092">
        <ele>782</ele>
        <time>2012-03-03T18:47:31Z</time>
      </trkpt>
      <trkpt lat="43.99627" lon="3.54101">
        <ele>783</ele>
        <time>2012-03-03T18:47:36Z</time>
      </trkpt>
      <trkpt lat="43.9962" lon="3.54109">
        <ele>784</ele>
        <time>2012-03-03T18:47:41Z</time>
      </trkpt>
      <trkpt lat="43.99612" lon="3.54119">
        <ele>785</ele>
        <time>2012-03-03T18:47:46Z</time>
      </trkpt>
      <trkpt lat="43.99604" lon="3.54126">
        <ele>786</ele>
        <time>2012-03-03T18:47:51Z</time>
      </trkpt>
      <trkpt lat="43.99599" lon="3.54134">
        <ele>787</ele>
        <time>2012-03-03T18:47:56Z</time>
      </trkpt>
      <trkpt lat="43.99593" lon="3.54143">
        <ele>788</ele>
        <time>2012-03-03T18:48:01Z</time>
      </trkpt>
      <trkpt lat="43.99587" lon="3.54152">
        <ele>790</ele>
        <time>2012-03-03T18:48:06Z</time>
      </trkpt>
      <trkpt lat="43.99584" lon="3.5416">
        <ele>792</ele>
        <time>2012-03-03T18:48:11Z</time>
      </trkpt>
      <trkpt lat="43.99579" lon="3.54168">
        <ele>796</ele>
        <time>2012-03-03T18:48:16Z</time>
      </trkpt>
      <trkpt lat="43.99572" lon="3.54174">
        <ele>797</ele>
        <time>2012-03-03T18:48:21Z</time>
      </trkpt>
      <trkpt lat="43.99567" lon="3.5418">
        <ele>798</ele>
        <time>2012-03-03T18:48:26Z</time>
      </trkpt>
      <trkpt lat="43.99563" lon="3.54186">
        <ele>799</ele>
        <time>2012-03-03T18:48:31Z</time>
      </trkpt>
      <trkpt lat="43.99558" lon="3.54193">
        <ele>799</ele>
        <time>2012-03-03T18:48:36Z</time>
      </trkpt>
      <trkpt lat="43.99551" lon="3.54202">
        <ele>799</ele>
        <time>2012-03-03T18:48:41Z</time>
      </trkpt>
      <trkpt lat="43.99545" lon="3.54208">
        <ele>799</ele>
        <time>2012-03-03T18:48:46Z</time>
      </trkpt>
      <trkpt lat="43.99542" lon="3.54215">
        <ele>799</ele>
        <time>2012-03-03T18:48:51Z</time>
      </trkpt>
      <trkpt lat="43.99538" lon="3.54222">
        <ele>799</ele>
        <time>2012-03-03T18:48:56Z</time>
      </trkpt>
      <trkpt lat="43.99535" lon="3.54227">
        <ele>799</ele>
        <time>2012-03-03T18:49:01Z</time>
      </trkpt>
      <trkpt lat="43.99531" lon="3.54234">
        <ele>799</ele>
        <time>2012-03-03T18:49:06Z</time>
      </trkpt>
      <trkpt lat="43.99527" lon="3.5424">
        <ele>800</ele>
        <time>2012-03-03T18:49:11Z</time>
      </trkpt>
      <trkpt lat="43.99521" lon="3.54247">
        <ele>801</ele>
        <time>2012-03-03T18:49:16Z</time>
      </trkpt>
      <trkpt lat="43.99511" lon="3.54252">
        <ele>795</ele>
        <time>2012-03-03T18:49:21Z</time>
      </trkpt>
      <trkpt lat="43.99502" lon="3.54258">
        <ele>796</ele>
        <time>2012-03-03T18:49:26Z</time>
      </trkpt>
      <trkpt lat="43.99491" lon="3.54263">
        <ele>798</ele>
        <time>2012-03-03T18:49:31Z</time>
      </trkpt>
      <trkpt lat="43.99481" lon="3.54265">
        <ele>797</ele>
        <time>2012-03-03T18:49:36Z</time>
      </trkpt>
      <trkpt lat="43.9947" lon="3.54265">
        <ele>796</ele>
        <time>2012-03-03T18:49:41Z</time>
      </trkpt>
      <trkpt lat="43.99463" lon="3.54263">
        <ele>796</ele>
        <time>2012-03-03T18:49:46Z</time>
      </trkpt>
      <trkpt lat="43.99457" lon="3.54263">
        <ele>796</ele>
        <time>2012-03-03T18:49:51Z</time>
      </trkpt>
      <trkpt lat="43.99449" lon="3.5426">
        <ele>796</ele>
        <time>2012-03-03T18:49:56Z</time>
      </trkpt>
      <trkpt lat="43.99436" lon="3.54261">
        <ele>798</ele>
        <time>2012-03-03T18:50:01Z</time>
      </trkpt>
      <trkpt lat="43.99427" lon="3.54257">
        <ele>800</ele>
        <time>2012-03-03T18:50:06Z</time>
      </trkpt>
      <trkpt lat="43.99419" lon="3.54252">
        <ele>804</ele>
        <time>2012-03-03T18:50:11Z</time>
      </trkpt>
      <trkpt lat="43.99413" lon="3.54248">
        <ele>808</ele>
        <time>2012-03-03T18:50:16Z</time>
      </trkpt>
      <trkpt lat="43.99406" lon="3.54247">
        <ele>810</ele>
        <time>2012-03-03T18:50:21Z</time>
      </trkpt>
      <trkpt lat="43.99399" lon="3.54243">
        <ele>812</ele>
        <time>2012-03-03T18:50:26Z</time>
      </trkpt>
      <trkpt lat="43.99394" lon="3.54241">
        <ele>813</ele>
        <time>2012-03-03T18:50:31Z</time>
      </trkpt>
      <trkpt lat="43.9939" lon="3.5424">
        <ele>813</ele>
        <time>2012-03-03T18:50:36Z</time>
      </trkpt>
      <trkpt lat="43.99385" lon="3.54241">
        <ele>813</ele>
        <time>2012-03-03T18:50:41Z</time>
      </trkpt>
      <trkpt lat="43.9938" lon="3.54242">
        <ele>813</ele>
        <time>2012-03-03T18:50:46Z</time>
      </trkpt>
      <trkpt lat="43.99371" lon="3.54245">
        <ele>813</ele>
        <time>2012-03-03T18:50:51Z</time>
      </trkpt>
      <trkpt lat="43.99365" lon="3.5425">
        <ele>798</ele>
        <time>2012-03-03T18:50:56Z</time>
      </trkpt>
      <trkpt lat="43.99359" lon="3.54253">
        <ele>799</ele>
        <time>2012-03-03T18:51:01Z</time>
      </trkpt>
      <trkpt lat="43.99354" lon="3.54256">
        <ele>799</ele>
        <time>2012-03-03T18:51:06Z</time>
      </trkpt>
      <trkpt lat="43.99345" lon="3.54259">
        <ele>800</ele>
        <time>2012-03-03T18:51:11Z</time>
      </trkpt>
      <trkpt lat="43.99335" lon="3.54263">
        <ele>800</ele>
        <time>2012-03-03T18:51:16Z</time>
      </trkpt>
      <trkpt lat="43.99326" lon="3.54266">
        <ele>800</ele>
        <time>2012-03-03T18:51:21Z</time>
      </trkpt>
      <trkpt lat="43.99319" lon="3.5427">
        <ele>799</ele>
        <time>2012-03-03T18:51:26Z</time>
      </trkpt>
      <trkpt lat="43.9931" lon="3.54273">
        <ele>798</ele>
        <time>2012-03-03T18:51:31Z</time>
      </trkpt>
      <trkpt lat="43.99299" lon="3.54274">
        <ele>798</ele>
        <time>2012-03-03T18:51:36Z</time>
      </trkpt>
      <trkpt lat="43.99291" lon="3.54274">
        <ele>797</ele>
        <time>2012-03-03T18:51:41Z</time>
      </trkpt>
      <trkpt lat="43.99282" lon="3.54275">
        <ele>797</ele>
        <time>2012-03-03T18:51:46Z</time>
      </trkpt>
      <trkpt lat="43.99274" lon="3.54274">
        <ele>797</ele>
        <time>2012-03-03T18:51:51Z</time>
      </trkpt>
      <trkpt lat="43.99268" lon="3.5427">
        <ele>797</ele>
        <time>2012-03-03T18:51:56Z</time>
      </trkpt>
      <trkpt lat="43.99265" lon="3.54263">
        <ele>797</ele>
        <time>2012-03-03T18:52:01Z</time>
      </trkpt>
      <trkpt lat="43.99265" lon="3.54255">
        <ele>797</ele>
        <time>2012-03-03T18:52:06Z</time>
      </trkpt>
      <trkpt lat="43.99267" lon="3.54245">
        <ele>800</ele>
        <time>2012-03-03T18:52:11Z</time>
      </trkpt>
      <trkpt lat="43.99269" lon="3.54236">
        <ele>801</ele>
        <time>2012-03-03T18:52:16Z</time>
      </trkpt>
      <trkpt lat="43.99272" lon="3.54228">
        <ele>802</ele>
        <time>2012-03-03T18:52:21Z</time>
      </trkpt>
      <trkpt lat="43.99275" lon="3.5422">
        <ele>803</ele>
        <time>2012-03-03T18:52:26Z</time>
      </trkpt>
      <trkpt lat="43.99276" lon="3.54212">
        <ele>803</ele>
        <time>2012-03-03T18:52:31Z</time>
      </trkpt>
      <trkpt lat="43.99276" lon="3.54202">
        <ele>804</ele>
        <time>2012-03-03T18:52:36Z</time>
      </trkpt>
      <trkpt lat="43.99275" lon="3.54194">
        <ele>804</ele>
        <time>2012-03-03T18:52:41Z</time>
      </trkpt>
      <trkpt lat="43.99275" lon="3.54188">
        <ele>803</ele>
        <time>2012-03-03T18:52:46Z</time>
      </trkpt>
      <trkpt lat="43.99277" lon="3.54176">
        <ele>803</ele>
        <time>2012-03-03T18:52:51Z</time>
      </trkpt>
      <trkpt lat="43.9928" lon="3.54164">
        <ele>807</ele>
        <time>2012-03-03T18:52:56Z</time>
      </trkpt>
      <trkpt lat="43.99283" lon="3.54152">
        <ele>808</ele>
        <time>2012-03-03T18:53:01Z</time>
      </trkpt>
      <trkpt lat="43.99284" lon="3.54139">
        <ele>808</ele>
        <time>2012-03-03T18:53:06Z</time>
      </trkpt>
      <trkpt lat="43.99283" lon="3.54128">
        <ele>808</ele>
        <time>2012-03-03T18:53:11Z</time>
      </trkpt>
      <trkpt lat="43.99282" lon="3.5412">
        <ele>808</ele>
        <time>2012-03-03T18:53:16Z</time>
      </trkpt>
      <trkpt lat="43.99282" lon="3.5411">
        <ele>808</ele>
        <time>2012-03-03T18:53:21Z</time>
      </trkpt>
      <trkpt lat="43.99283" lon="3.54103">
        <ele>808</ele>
        <time>2012-03-03T18:53:26Z</time>
      </trkpt>
      <trkpt lat="43.99286" lon="3.54091">
        <ele>808</ele>
        <time>2012-03-03T18:53:31Z</time>
      </trkpt>
      <trkpt lat="43.9929" lon="3.54081">
        <ele>807</ele>
        <time>2012-03-03T18:53:36Z</time>
      </trkpt>
      <trkpt lat="43.99293" lon="3.54073">
        <ele>808</ele>
        <time>2012-03-03T18:53:41Z</time>
      </trkpt>
      <trkpt lat="43.99297" lon="3.54063">
        <ele>809</ele>
        <time>2012-03-03T18:53:46Z</time>
      </trkpt>
      <trkpt lat="43.99302" lon="3.54052">
        <ele>809</ele>
        <time>2012-03-03T18:53:51Z</time>
      </trkpt>
      <trkpt lat="43.99306" lon="3.54043">
        <ele>810</ele>
        <time>2012-03-03T18:53:56Z</time>
      </trkpt>
      <trkpt lat="43.99308" lon="3.54035">
        <ele>810</ele>
        <time>2012-03-03T18:54:01Z</time>
      </trkpt>
      <trkpt lat="43.99311" lon="3.54028">
        <ele>811</ele>
        <time>2012-03-03T18:54:06Z</time>
      </trkpt>
      <trkpt lat="43.99314" lon="3.54021">
        <ele>812</ele>
        <time>2012-03-03T18:54:11Z</time>
      </trkpt>
      <trkpt lat="43.99318" lon="3.54014">
        <ele>813</ele>
        <time>2012-03-03T18:54:16Z</time>
      </trkpt>
      <trkpt lat="43.9932" lon="3.54008">
        <ele>815</ele>
        <time>2012-03-03T18:54:21Z</time>
      </trkpt>
      <trkpt lat="43.99323" lon="3.54001">
        <ele>817</ele>
        <time>2012-03-03T18:54:26Z</time>
      </trkpt>
      <trkpt lat="43.99327" lon="3.53994">
        <ele>815</ele>
        <time>2012-03-03T18:54:31Z</time>
      </trkpt>
      <trkpt lat="43.9933" lon="3.53987">
        <ele>812</ele>
        <time>2012-03-03T18:54:36Z</time>
      </trkpt>
      <trkpt lat="43.99333" lon="3.5398">
        <ele>809</ele>
        <time>2012-03-03T18:54:41Z</time>
      </trkpt>
      <trkpt lat="43.99336" lon="3.53974">
        <ele>826</ele>
        <time>2012-03-03T18:54:46Z</time>
      </trkpt>
      <trkpt lat="43.99339" lon="3.53967">
        <ele>826</ele>
        <time>2012-03-03T18:54:51Z</time>
      </trkpt>
      <trkpt lat="43.99342" lon="3.53961">
        <ele>826</ele>
        <time>2012-03-03T18:54:56Z</time>
      </trkpt>
      <trkpt lat="43.99345" lon="3.53954">
        <ele>825</ele>
        <time>2012-03-03T18:55:01Z</time>
      </trkpt>
      <trkpt lat="43.99348" lon="3.53947">
        <ele>825</ele>
        <time>2012-03-03T18:55:06Z</time>
      </trkpt>
      <trkpt lat="43.9935" lon="3.53939">
        <ele>823</ele>
        <time>2012-03-03T18:55:11Z</time>
      </trkpt>
      <trkpt lat="43.99353" lon="3.5393">
        <ele>822</ele>
        <time>2012-03-03T18:55:16Z</time>
      </trkpt>
      <trkpt lat="43.99354" lon="3.5392">
        <ele>822</ele>
        <time>2012-03-03T18:55:21Z</time>
      </trkpt>
      <trkpt lat="43.99359" lon="3.53908">
        <ele>818</ele>
        <time>2012-03-03T18:55:26Z</time>
      </trkpt>
      <trkpt lat="43.99365" lon="3.53898">
        <ele>820</ele>
        <time>2012-03-03T18:55:31Z</time>
      </trkpt>
      <trkpt lat="43.99369" lon="3.53887">
        <ele>821</ele>
        <time>2012-03-03T18:55:36Z</time>
      </trkpt>
      <trkpt lat="43.99374" lon="3.53876">
        <ele>822</ele>
        <time>2012-03-03T18:55:41Z</time>
      </trkpt>
      <trkpt lat="43.99376" lon="3.53869">
        <ele>822</ele>
        <time>2012-03-03T18:55:46Z</time>
      </trkpt>
      <trkpt lat="43.99379" lon="3.53865">
        <ele>822</ele>
        <time>2012-03-03T18:55:51Z</time>
      </trkpt>
      <trkpt lat="43.99379" lon="3.53865">
        <ele>822</ele>
        <time>2012-03-03T18:55:56Z</time>
      </trkpt>
      <trkpt lat="43.99379" lon="3.53865">
        <ele>822</ele>
        <time>2012-03-03T18:56:01Z</time>
      </trkpt>
      <trkpt lat="43.9938" lon="3.53865">
        <ele>822</ele>
        <time>2012-03-03T18:56:06Z</time>
      </trkpt>
      <trkpt lat="43.9938" lon="3.53866">
        <ele>822</ele>
        <time>2012-03-03T18:56:11Z</time>
      </trkpt>
      <trkpt lat="43.9938" lon="3.53866">
        <ele>822</ele>
        <time>2012-03-03T18:56:16Z</time>
      </trkpt>
      <trkpt lat="43.99381" lon="3.53865">
        <ele>823</ele>
        <time>2012-03-03T18:56:21Z</time>
      </trkpt>
      <trkpt lat="43.99381" lon="3.53863">
        <ele>822</ele>
        <time>2012-03-03T18:56:26Z</time>
      </trkpt>
      <trkpt lat="43.9938" lon="3.53864">
        <ele>822</ele>
        <time>2012-03-03T18:56:31Z</time>
      </trkpt>
      <trkpt lat="43.99381" lon="3.53866">
        <ele>823</ele>
        <time>2012-03-03T18:56:36Z</time>
      </trkpt>
      <trkpt lat="43.99381" lon="3.53869">
        <ele>823</ele>
        <time>2012-03-03T18:56:41Z</time>
      </trkpt>
      <trkpt lat="43.9938" lon="3.5387">
        <ele>823</ele>
        <time>2012-03-03T18:56:46Z</time>
      </trkpt>
      <trkpt lat="43.9938" lon="3.53871">
        <ele>823</ele>
        <time>2012-03-03T18:56:51Z</time>
      </trkpt>
      <trkpt lat="43.9938" lon="3.5387">
        <ele>823</ele>
        <time>2012-03-03T18:56:56Z</time>
      </trkpt>
      <trkpt lat="43.9938" lon="3.5387">
        <ele>823</ele>
        <time>2012-03-03T18:57:01Z</time>
      </trkpt>
      <trkpt lat="43.9938" lon="3.5387">
        <ele>822</ele>
        <time>2012-03-03T18:57:06Z</time>
      </trkpt>
      <trkpt lat="43.99379" lon="3.53871">
        <ele>822</ele>
        <time>2012-03-03T18:57:11Z</time>
      </trkpt>
      <trkpt lat="43.99379" lon="3.53871">
        <ele>822</ele>
        <time>2012-03-03T18:57:16Z</time>
      </trkpt>
      <trkpt lat="43.99379" lon="3.53871">
        <ele>822</ele>
        <time>2012-03-03T18:57:21Z</time>
      </trkpt>
      <trkpt lat="43.99379" lon="3.53871">
        <ele>822</ele>
        <time>2012-03-03T18:57:26Z</time>
      </trkpt>
      <trkpt lat="43.99379" lon="3.53871">
        <ele>822</ele>
        <time>2012-03-03T18:57:31Z</time>
      </trkpt>
      <trkpt lat="43.99379" lon="3.53871">
        <ele>822</ele>
        <time>2012-03-03T18:57:36Z</time>
      </trkpt>
      <trkpt lat="43.99379" lon="3.53871">
        <ele>822</ele>
        <time>2012-03-03T18:57:41Z</time>
      </trkpt>
      <trkpt lat="43.99379" lon="3.53871">
        <ele>822</ele>
        <time>2012-03-03T18:57:46Z</time>
      </trkpt>
      <trkpt lat="43.99379" lon="3.53871">
        <ele>822</ele>
        <time>2012-03-03T18:57:51Z</time>
      </trkpt>
      <trkpt lat="43.9938" lon="3.53871">
        <ele>823</ele>
        <time>2012-03-03T18:57:56Z</time>
      </trkpt>
      <trkpt lat="43.9938" lon="3.53871">
        <ele>823</ele>
        <time>2012-03-03T18:58:01Z</time>
      </trkpt>
      <trkpt lat="43.9938" lon="3.5387">
        <ele>823</ele>
        <time>2012-03-03T18:58:06Z</time>
      </trkpt>
      <trkpt lat="43.9938" lon="3.5387">
        <ele>823</ele>
        <time>2012-03-03T18:58:11Z</time>
      </trkpt>
      <trkpt lat="43.9938" lon="3.5387">
        <ele>823</ele>
        <time>2012-03-03T18:58:16Z</time>
      </trkpt>
      <trkpt lat="43.9938" lon="3.5387">
        <ele>823</ele>
        <time>2012-03-03T18:58:21Z</time>
      </trkpt>
      <trkpt lat="43.9938" lon="3.5387">
        <ele>823</ele>
        <time>2012-03-03T18:58:26Z</time>
      </trkpt>
      <trkpt lat="43.99381" lon="3.5387">
        <ele>823</ele>
        <time>2012-03-03T18:58:31Z</time>
      </trkpt>
      <trkpt lat="43.99381" lon="3.5387">
        <ele>823</ele>
        <time>2012-03-03T18:58:36Z</time>
      </trkpt>
      <trkpt lat="43.99381" lon="3.5387">
        <ele>823</ele>
        <time>2012-03-03T18:58:41Z</time>
      </trkpt>
      <trkpt lat="43.99381" lon="3.5387">
        <ele>823</ele>
        <time>2012-03-03T18:58:46Z</time>
      </trkpt>
      <trkpt lat="43.99382" lon="3.5387">
        <ele>823</ele>
        <time>2012-03-03T18:58:51Z</time>
      </trkpt>
      <trkpt lat="43.99382" lon="3.5387">
        <ele>823</ele>
        <time>2012-03-03T18:58:56Z</time>
      </trkpt>
      <trkpt lat="43.99381" lon="3.5387">
        <ele>823</ele>
        <time>2012-03-03T18:59:01Z</time>
      </trkpt>
      <trkpt lat="43.99381" lon="3.5387">
        <ele>823</ele>
        <time>2012-03-03T18:59:06Z</time>
      </trkpt>
      <trkpt lat="43.99381" lon="3.5387">
        <ele>823</ele>
        <time>2012-03-03T18:59:11Z</time>
      </trkpt>
      <trkpt lat="43.99381" lon="3.53869">
        <ele>823</ele>
        <time>2012-03-03T18:59:16Z</time>
      </trkpt>
      <trkpt lat="43.99382" lon="3.53869">
        <ele>823</ele>
        <time>2012-03-03T18:59:21Z</time>
      </trkpt>
      <trkpt lat="43.99382" lon="3.53869">
        <ele>823</ele>
        <time>2012-03-03T18:59:26Z</time>
      </trkpt>
      <trkpt lat="43.99382" lon="3.53869">
        <ele>823</ele>
        <time>2012-03-03T18:59:31Z</time>
      </trkpt>
      <trkpt lat="43.99382" lon="3.53869">
        <ele>823</ele>
        <time>2012-03-03T18:59:36Z</time>
      </trkpt>
      <trkpt lat="43.99382" lon="3.53869">
        <ele>823</ele>
        <time>2012-03-03T18:59:41Z</time>
      </trkpt>
      <trkpt lat="43.99382" lon="3.53869">
        <ele>823</ele>
        <time>2012-03-03T18:59:46Z</time>
      </trkpt>
      <trkpt lat="43.99382" lon="3.53869">
        <ele>823</ele>
        <time>2012-03-03T18:59:51Z</time>
      </trkpt>
      <trkpt lat="43.99382" lon="3.53869">
        <ele>823</ele>
        <time>2012-03-03T18:59:56Z</time>
      </trkpt>
      <trkpt lat="43.99381" lon="3.53869">
        <ele>823</ele>
        <time>2012-03-03T19:00:01Z</time>
      </trkpt>
      <trkpt lat="43.99382" lon="3.5387">
        <ele>823</ele>
        <time>2012-03-03T19:00:06Z</time>
      </trkpt>
      <trkpt lat="43.99382" lon="3.53868">
        <ele>823</ele>
        <time>2012-03-03T19:00:11Z</time>
      </trkpt>
      <trkpt lat="43.99381" lon="3.53865">
        <ele>823</ele>
        <time>2012-03-03T19:00:16Z</time>
      </trkpt>
      <trkpt lat="43.99383" lon="3.53865">
        <ele>823</ele>
        <time>2012-03-03T19:00:21Z</time>
      </trkpt>
      <trkpt lat="43.99383" lon="3.53865">
        <ele>823</ele>
        <time>2012-03-03T19:00:26Z</time>
      </trkpt>
      <trkpt lat="43.99384" lon="3.53865">
        <ele>823</ele>
        <time>2012-03-03T19:00:31Z</time>
      </trkpt>
      <trkpt lat="43.99383" lon="3.53866">
        <ele>823</ele>
        <time>2012-03-03T19:00:36Z</time>
      </trkpt>
      <trkpt lat="43.99383" lon="3.53866">
        <ele>823</ele>
        <time>2012-03-03T19:00:41Z</time>
      </trkpt>
      <trkpt lat="43.99384" lon="3.53866">
        <ele>823</ele>
        <time>2012-03-03T19:00:46Z</time>
      </trkpt>
      <trkpt lat="43.99385" lon="3.53865">
        <ele>824</ele>
        <time>2012-03-03T19:00:51Z</time>
      </trkpt>
      <trkpt lat="43.99384" lon="3.53866">
        <ele>823</ele>
        <time>2012-03-03T19:00:56Z</time>
      </trkpt>
      <trkpt lat="43.99383" lon="3.53865">
        <ele>823</ele>
        <time>2012-03-03T19:01:01Z</time>
      </trkpt>
      <trkpt lat="43.99382" lon="3.53868">
        <ele>823</ele>
        <time>2012-03-03T19:01:06Z</time>
      </trkpt>
      <trkpt lat="43.99381" lon="3.53866">
        <ele>823</ele>
        <time>2012-03-03T19:01:11Z</time>
      </trkpt>
      <trkpt lat="43.99382" lon="3.53867">
        <ele>823</ele>
        <time>2012-03-03T19:01:16Z</time>
      </trkpt>
      <trkpt lat="43.9938" lon="3.53866">
        <ele>822</ele>
        <time>2012-03-03T19:01:21Z</time>
      </trkpt>
      <trkpt lat="43.99378" lon="3.53865">
        <ele>822</ele>
        <time>2012-03-03T19:01:26Z</time>
      </trkpt>
      <trkpt lat="43.99378" lon="3.53866">
        <ele>822</ele>
        <time>2012-03-03T19:01:31Z</time>
      </trkpt>
      <trkpt lat="43.99379" lon="3.53866">
        <ele>822</ele>
        <time>2012-03-03T19:01:36Z</time>
      </trkpt>
      <trkpt lat="43.99379" lon="3.53866">
        <ele>822</ele>
        <time>2012-03-03T19:01:41Z</time>
      </trkpt>
      <trkpt lat="43.99379" lon="3.53866">
        <ele>822</ele>
        <time>2012-03-03T19:01:46Z</time>
      </trkpt>
      <trkpt lat="43.99378" lon="3.53864">
        <ele>822</ele>
        <time>2012-03-03T19:01:51Z</time>
      </trkpt>
      <trkpt lat="43.99379" lon="3.53865">
        <ele>822</ele>
        <time>2012-03-03T19:01:56Z</time>
      </trkpt>
      <trkpt lat="43.99379" lon="3.53864">
        <ele>822</ele>
        <time>2012-03-03T19:02:01Z</time>
      </trkpt>
      <trkpt lat="43.99378" lon="3.53863">
        <ele>822</ele>
        <time>2012-03-03T19:02:06Z</time>
      </trkpt>
      <trkpt lat="43.99376" lon="3.53862">
        <ele>821</ele>
        <time>2012-03-03T19:02:11Z</time>
      </trkpt>
      <trkpt lat="43.99376" lon="3.53861">
        <ele>821</ele>
        <time>2012-03-03T19:02:16Z</time>
      </trkpt>
      <trkpt lat="43.99377" lon="3.53862">
        <ele>822</ele>
        <time>2012-03-03T19:02:21Z</time>
      </trkpt>
      <trkpt lat="43.99379" lon="3.53864">
        <ele>822</ele>
        <time>2012-03-03T19:02:26Z</time>
      </trkpt>
      <trkpt lat="43.99381" lon="3.53864">
        <ele>823</ele>
        <time>2012-03-03T19:02:31Z</time>
      </trkpt>
      <trkpt lat="43.99381" lon="3.53864">
        <ele>823</ele>
        <time>2012-03-03T19:02:36Z</time>
      </trkpt>
      <trkpt lat="43.9938" lon="3.53865">
        <ele>822</ele>
        <time>2012-03-03T19:02:41Z</time>
      </trkpt>
      <trkpt lat="43.9938" lon="3.53865">
        <ele>822</ele>
        <time>2012-03-03T19:02:46Z</time>
      </trkpt>
      <trkpt lat="43.99381" lon="3.53866">
        <ele>823</ele>
        <time>2012-03-03T19:02:51Z</time>
      </trkpt>
      <trkpt lat="43.9938" lon="3.53865">
        <ele>822</ele>
        <time>2012-03-03T19:02:56Z</time>
      </trkpt>
      <trkpt lat="43.99381" lon="3.53865">
        <ele>823</ele>
        <time>2012-03-03T19:03:01Z</time>
      </trkpt>
      <trkpt lat="43.99381" lon="3.53865">
        <ele>823</ele>
        <time>2012-03-03T19:03:06Z</time>
      </trkpt>
      <trkpt lat="43.9938" lon="3.53867">
        <ele>823</ele>
        <time>2012-03-03T19:03:11Z</time>
      </trkpt>
      <trkpt lat="43.9938" lon="3.53868">
        <ele>822</ele>
        <time>2012-03-03T19:03:16Z</time>
      </trkpt>
      <trkpt lat="43.99381" lon="3.53869">
        <ele>823</ele>
        <time>2012-03-03T19:03:21Z</time>
      </trkpt>
      <trkpt lat="43.99379" lon="3.53868">
        <ele>822</ele>
        <time>2012-03-03T19:03:26Z</time>
      </trkpt>
      <trkpt lat="43.99378" lon="3.53867">
        <ele>822</ele>
        <time>2012-03-03T19:03:31Z</time>
      </trkpt>
      <trkpt lat="43.99377" lon="3.53867">
        <ele>822</ele>
        <time>2012-03-03T19:03:36Z</time>
      </trkpt>
      <trkpt lat="43.99377" lon="3.53868">
        <ele>822</ele>
        <time>2012-03-03T19:03:41Z</time>
      </trkpt>
      <trkpt lat="43.99378" lon="3.53868">
        <ele>822</ele>
        <time>2012-03-03T19:03:46Z</time>
      </trkpt>
      <trkpt lat="43.99378" lon="3.53869">
        <ele>822</ele>
        <time>2012-03-03T19:03:51Z</time>
      </trkpt>
      <trkpt lat="43.99376" lon="3.53868">
        <ele>822</ele>
        <time>2012-03-03T19:03:56Z</time>
      </trkpt>
      <trkpt lat="43.99376" lon="3.53868">
        <ele>822</ele>
        <time>2012-03-03T19:04:01Z</time>
      </trkpt>
      <trkpt lat="43.99376" lon="3.53868">
        <ele>822</ele>
        <time>2012-03-03T19:04:06Z</time>
      </trkpt>
      <trkpt lat="43.99377" lon="3.53868">
        <ele>822</ele>
        <time>2012-03-03T19:04:11Z</time>
      </trkpt>
      <trkpt lat="43.9938" lon="3.53868">
        <ele>822</ele>
        <time>2012-03-03T19:04:16Z</time>
      </trkpt>
      <trkpt lat="43.9938" lon="3.53868">
        <ele>823</ele>
        <time>2012-03-03T19:04:21Z</time>
      </trkpt>
      <trkpt lat="43.99381" lon="3.53868">
        <ele>823</ele>
        <time>2012-03-03T19:04:26Z</time>
      </trkpt>
      <trkpt lat="43.99381" lon="3.53868">
        <ele>823</ele>
        <time>2012-03-03T19:04:31Z</time>
      </trkpt>
      <trkpt lat="43.99381" lon="3.53868">
        <ele>823</ele>
        <time>2012-03-03T19:04:36Z</time>
      </trkpt>
      <trkpt lat="43.99381" lon="3.53865">
        <ele>823</ele>
        <time>2012-03-03T19:04:41Z</time>
      </trkpt>
      <trkpt lat="43.9938" lon="3.53865">
        <ele>822</ele>
        <time>2012-03-03T19:04:46Z</time>
      </trkpt>
      <trkpt lat="43.9938" lon="3.53863">
        <ele>822</ele>
        <time>2012-03-03T19:04:51Z</time>
      </trkpt>
      <trkpt lat="43.99381" lon="3.53862">
        <ele>823</ele>
        <time>2012-03-03T19:04:56Z</time>
      </trkpt>
      <trkpt lat="43.99382" lon="3.53861">
        <ele>823</ele>
        <time>2012-03-03T19:05:01Z</time>
      </trkpt>
      <trkpt lat="43.99383" lon="3.53859">
        <ele>823</ele>
        <time>2012-03-03T19:05:06Z</time>
      </trkpt>
      <trkpt lat="43.99385" lon="3.5385">
        <ele>824</ele>
        <time>2012-03-03T19:05:11Z</time>
      </trkpt>
      <trkpt lat="43.9939" lon="3.53835">
        <ele>825</ele>
        <time>2012-03-03T19:05:16Z</time>
      </trkpt>
      <trkpt lat="43.99392" lon="3.53826">
        <ele>822</ele>
        <time>2012-03-03T19:05:21Z</time>
      </trkpt>
      <trkpt lat="43.99399" lon="3.53818">
        <ele>823</ele>
        <time>2012-03-03T19:05:26Z</time>
      </trkpt>
      <trkpt lat="43.99399" lon="3.53805">
        <ele>821</ele>
        <time>2012-03-03T19:05:31Z</time>
      </trkpt>
      <trkpt lat="43.99402" lon="3.53792">
        <ele>820</ele>
        <time>2012-03-03T19:05:36Z</time>
      </trkpt>
      <trkpt lat="43.99405" lon="3.5378">
        <ele>821</ele>
        <time>2012-03-03T19:05:41Z</time>
      </trkpt>
      <trkpt lat="43.99407" lon="3.5377">
        <ele>823</ele>
        <time>2012-03-03T19:05:46Z</time>
      </trkpt>
      <trkpt lat="43.9941" lon="3.53758">
        <ele>826</ele>
        <time>2012-03-03T19:05:51Z</time>
      </trkpt>
      <trkpt lat="43.99412" lon="3.53745">
        <ele>826</ele>
        <time>2012-03-03T19:05:56Z</time>
      </trkpt>
      <trkpt lat="43.99414" lon="3.53733">
        <ele>821</ele>
        <time>2012-03-03T19:06:01Z</time>
      </trkpt>
      <trkpt lat="43.99417" lon="3.53722">
        <ele>835</ele>
        <time>2012-03-03T19:06:06Z</time>
      </trkpt>
      <trkpt lat="43.9942" lon="3.53708">
        <ele>835</ele>
        <time>2012-03-03T19:06:11Z</time>
      </trkpt>
      <trkpt lat="43.99422" lon="3.53699">
        <ele>835</ele>
        <time>2012-03-03T19:06:16Z</time>
      </trkpt>
      <trkpt lat="43.99424" lon="3.5369">
        <ele>834</ele>
        <time>2012-03-03T19:06:21Z</time>
      </trkpt>
      <trkpt lat="43.99427" lon="3.53679">
        <ele>833</ele>
        <time>2012-03-03T19:06:26Z</time>
      </trkpt>
      <trkpt lat="43.99429" lon="3.53667">
        <ele>828</ele>
        <time>2012-03-03T19:06:31Z</time>
      </trkpt>
      <trkpt lat="43.99431" lon="3.53656">
        <ele>829</ele>
        <time>2012-03-03T19:06:36Z</time>
      </trkpt>
      <trkpt lat="43.99432" lon="3.53643">
        <ele>829</ele>
        <time>2012-03-03T19:06:41Z</time>
      </trkpt>
      <trkpt lat="43.99433" lon="3.53632">
        <ele>828</ele>
        <time>2012-03-03T19:06:46Z</time>
      </trkpt>
      <trkpt lat="43.99436" lon="3.53619">
        <ele>828</ele>
        <time>2012-03-03T19:06:51Z</time>
      </trkpt>
      <trkpt lat="43.99437" lon="3.53605">
        <ele>826</ele>
        <time>2012-03-03T19:06:56Z</time>
      </trkpt>
      <trkpt lat="43.99438" lon="3.53589">
        <ele>825</ele>
        <time>2012-03-03T19:07:01Z</time>
      </trkpt>
      <trkpt lat="43.99437" lon="3.53571">
        <ele>818</ele>
        <time>2012-03-03T19:07:06Z</time>
      </trkpt>
      <trkpt lat="43.99435" lon="3.53557">
        <ele>817</ele>
        <time>2012-03-03T19:07:11Z</time>
      </trkpt>
      <trkpt lat="43.99433" lon="3.5354">
        <ele>816</ele>
        <time>2012-03-03T19:07:16Z</time>
      </trkpt>
      <trkpt lat="43.99429" lon="3.53523">
        <ele>815</ele>
        <time>2012-03-03T19:07:21Z</time>
      </trkpt>
      <trkpt lat="43.99429" lon="3.53512">
        <ele>814</ele>
        <time>2012-03-03T19:07:26Z</time>
      </trkpt>
      <trkpt lat="43.9943" lon="3.53503">
        <ele>814</ele>
        <time>2012-03-03T19:07:31Z</time>
      </trkpt>
      <trkpt lat="43.99431" lon="3.53487">
        <ele>809</ele>
        <time>2012-03-03T19:07:36Z</time>
      </trkpt>
      <trkpt lat="43.99433" lon="3.53471">
        <ele>808</ele>
        <time>2012-03-03T19:07:41Z</time>
      </trkpt>
      <trkpt lat="43.9943" lon="3.53452">
        <ele>808</ele>
        <time>2012-03-03T19:07:46Z</time>
      </trkpt>
      <trkpt lat="43.99428" lon="3.53436">
        <ele>808</ele>
        <time>2012-03-03T19:07:51Z</time>
      </trkpt>
      <trkpt lat="43.99428" lon="3.53417">
        <ele>810</ele>
        <time>2012-03-03T19:07:56Z</time>
      </trkpt>
      <trkpt lat="43.99428" lon="3.53401">
        <ele>807</ele>
        <time>2012-03-03T19:08:01Z</time>
      </trkpt>
      <trkpt lat="43.99428" lon="3.53387">
        <ele>805</ele>
        <time>2012-03-03T19:08:06Z</time>
      </trkpt>
      <trkpt lat="43.99428" lon="3.53373">
        <ele>805</ele>
        <time>2012-03-03T19:08:11Z</time>
      </trkpt>
      <trkpt lat="43.99428" lon="3.53361">
        <ele>805</ele>
        <time>2012-03-03T19:08:16Z</time>
      </trkpt>
      <trkpt lat="43.99426" lon="3.53348">
        <ele>806</ele>
        <time>2012-03-03T19:08:21Z</time>
      </trkpt>
      <trkpt lat="43.99425" lon="3.53337">
        <ele>808</ele>
        <time>2012-03-03T19:08:26Z</time>
      </trkpt>
      <trkpt lat="43.99425" lon="3.53323">
        <ele>805</ele>
        <time>2012-03-03T19:08:31Z</time>
      </trkpt>
      <trkpt lat="43.99423" lon="3.53309">
        <ele>802</ele>
        <time>2012-03-03T19:08:36Z</time>
      </trkpt>
      <trkpt lat="43.99416" lon="3.533">
        <ele>802</ele>
        <time>2012-03-03T19:08:41Z</time>
      </trkpt>
      <trkpt lat="43.99411" lon="3.53294">
        <ele>801</ele>
        <time>2012-03-03T19:08:46Z</time>
      </trkpt>
      <trkpt lat="43.9941" lon="3.53283">
        <ele>800</ele>
        <time>2012-03-03T19:08:51Z</time>
      </trkpt>
      <trkpt lat="43.99406" lon="3.53274">
        <ele>800</ele>
        <time>2012-03-03T19:08:56Z</time>
      </trkpt>
      <trkpt lat="43.99403" lon="3.53264">
        <ele>800</ele>
        <time>2012-03-03T19:09:01Z</time>
      </trkpt>
      <trkpt lat="43.99398" lon="3.53255">
        <ele>800</ele>
        <time>2012-03-03T19:09:06Z</time>
      </trkpt>
      <trkpt lat="43.99394" lon="3.53245">
        <ele>797</ele>
        <time>2012-03-03T19:09:11Z</time>
      </trkpt>
      <trkpt lat="43.99393" lon="3.53238">
        <ele>796</ele>
        <time>2012-03-03T19:09:16Z</time>
      </trkpt>
      <trkpt lat="43.99388" lon="3.53226">
        <ele>795</ele>
        <time>2012-03-03T19:09:21Z</time>
      </trkpt>
      <trkpt lat="43.99386" lon="3.53213">
        <ele>794</ele>
        <time>2012-03-03T19:09:26Z</time>
      </trkpt>
      <trkpt lat="43.99384" lon="3.53199">
        <ele>793</ele>
        <time>2012-03-03T19:09:31Z</time>
      </trkpt>
      <trkpt lat="43.9938" lon="3.53188">
        <ele>792</ele>
        <time>2012-03-03T19:09:36Z</time>
      </trkpt>
      <trkpt lat="43.99379" lon="3.53171">
        <ele>792</ele>
        <time>2012-03-03T19:09:41Z</time>
      </trkpt>
      <trkpt lat="43.99377" lon="3.53159">
        <ele>788</ele>
        <time>2012-03-03T19:09:46Z</time>
      </trkpt>
      <trkpt lat="43.99376" lon="3.53144">
        <ele>788</ele>
        <time>2012-03-03T19:09:51Z</time>
      </trkpt>
      <trkpt lat="43.99372" lon="3.53132">
        <ele>788</ele>
        <time>2012-03-03T19:09:56Z</time>
      </trkpt>
      <trkpt lat="43.9937" lon="3.53127">
        <ele>788</ele>
        <time>2012-03-03T19:10:01Z</time>
      </trkpt>
      <trkpt lat="43.99365" lon="3.53117">
        <ele>788</ele>
        <time>2012-03-03T19:10:06Z</time>
      </trkpt>
      <trkpt lat="43.9936" lon="3.53109">
        <ele>788</ele>
        <time>2012-03-03T19:10:11Z</time>
      </trkpt>
      <trkpt lat="43.99356" lon="3.53095">
        <ele>789</ele>
        <time>2012-03-03T19:10:16Z</time>
      </trkpt>
      <trkpt lat="43.99354" lon="3.5308">
        <ele>789</ele>
        <time>2012-03-03T19:10:21Z</time>
      </trkpt>
      <trkpt lat="43.99354" lon="3.53067">
        <ele>788</ele>
        <time>2012-03-03T19:10:26Z</time>
      </trkpt>
      <trkpt lat="43.99356" lon="3.53056">
        <ele>787</ele>
        <time>2012-03-03T19:10:31Z</time>
      </trkpt>
      <trkpt lat="43.99354" lon="3.53044">
        <ele>788</ele>
        <time>2012-03-03T19:10:36Z</time>
      </trkpt>
      <trkpt lat="43.99352" lon="3.53031">
        <ele>789</ele>
        <time>2012-03-03T19:10:41Z</time>
      </trkpt>
      <trkpt lat="43.9935" lon="3.53021">
        <ele>790</ele>
        <time>2012-03-03T19:10:46Z</time>
      </trkpt>
      <trkpt lat="43.9935" lon="3.53008">
        <ele>792</ele>
        <time>2012-03-03T19:10:51Z</time>
      </trkpt>
      <trkpt lat="43.99352" lon="3.53">
        <ele>791</ele>
        <time>2012-03-03T19:10:56Z</time>
      </trkpt>
      <trkpt lat="43.99353" lon="3.52994">
        <ele>791</ele>
        <time>2012-03-03T19:11:01Z</time>
      </trkpt>
      <trkpt lat="43.99352" lon="3.52984">
        <ele>790</ele>
        <time>2012-03-03T19:11:06Z</time>
      </trkpt>
      <trkpt lat="43.99347" lon="3.52977">
        <ele>790</ele>
        <time>2012-03-03T19:11:11Z</time>
      </trkpt>
      <trkpt lat="43.99345" lon="3.52971">
        <ele>790</ele>
        <time>2012-03-03T19:11:16Z</time>
      </trkpt>
      <trkpt lat="43.99342" lon="3.52958">
        <ele>790</ele>
        <time>2012-03-03T19:11:21Z</time>
      </trkpt>
      <trkpt lat="43.99338" lon="3.52944">
        <ele>791</ele>
        <time>2012-03-03T19:11:26Z</time>
      </trkpt>
      <trkpt lat="43.99336" lon="3.52938">
        <ele>792</ele>
        <time>2012-03-03T19:11:31Z</time>
      </trkpt>
      <trkpt lat="43.99335" lon="3.52928">
        <ele>796</ele>
        <time>2012-03-03T19:11:36Z</time>
      </trkpt>
      <trkpt lat="43.99333" lon="3.5292">
        <ele>801</ele>
        <time>2012-03-03T19:11:41Z</time>
      </trkpt>
      <trkpt lat="43.99327" lon="3.52913">
        <ele>799</ele>
        <time>2012-03-03T19:11:46Z</time>
      </trkpt>
      <trkpt lat="43.99321" lon="3.52906">
        <ele>796</ele>
        <time>2012-03-03T19:11:51Z</time>
      </trkpt>
      <trkpt lat="43.99318" lon="3.529">
        <ele>794</ele>
        <time>2012-03-03T19:11:56Z</time>
      </trkpt>
      <trkpt lat="43.99314" lon="3.52889">
        <ele>793</ele>
        <time>2012-03-03T19:12:01Z</time>
      </trkpt>
      <trkpt lat="43.99314" lon="3.52879">
        <ele>792</ele>
        <time>2012-03-03T19:12:06Z</time>
      </trkpt>
      <trkpt lat="43.9931" lon="3.52868">
        <ele>791</ele>
        <time>2012-03-03T19:12:11Z</time>
      </trkpt>
      <trkpt lat="43.99308" lon="3.52855">
        <ele>790</ele>
        <time>2012-03-03T19:12:16Z</time>
      </trkpt>
      <trkpt lat="43.99305" lon="3.52847">
        <ele>790</ele>
        <time>2012-03-03T19:12:21Z</time>
      </trkpt>
      <trkpt lat="43.99301" lon="3.52834">
        <ele>789</ele>
        <time>2012-03-03T19:12:26Z</time>
      </trkpt>
      <trkpt lat="43.99303" lon="3.52826">
        <ele>782</ele>
        <time>2012-03-03T19:12:31Z</time>
      </trkpt>
      <trkpt lat="43.99296" lon="3.52823">
        <ele>781</ele>
        <time>2012-03-03T19:12:36Z</time>
      </trkpt>
      <trkpt lat="43.99288" lon="3.52817">
        <ele>781</ele>
        <time>2012-03-03T19:12:41Z</time>
      </trkpt>
      <trkpt lat="43.99283" lon="3.5281">
        <ele>780</ele>
        <time>2012-03-03T19:12:46Z</time>
      </trkpt>
      <trkpt lat="43.99278" lon="3.528">
        <ele>779</ele>
        <time>2012-03-03T19:12:51Z</time>
      </trkpt>
      <trkpt lat="43.99271" lon="3.52794">
        <ele>779</ele>
        <time>2012-03-03T19:12:56Z</time>
      </trkpt>
      <trkpt lat="43.99266" lon="3.52787">
        <ele>778</ele>
        <time>2012-03-03T19:13:01Z</time>
      </trkpt>
      <trkpt lat="43.9926" lon="3.52777">
        <ele>778</ele>
        <time>2012-03-03T19:13:06Z</time>
      </trkpt>
      <trkpt lat="43.99256" lon="3.52767">
        <ele>777</ele>
        <time>2012-03-03T19:13:11Z</time>
      </trkpt>
      <trkpt lat="43.99249" lon="3.5276">
        <ele>775</ele>
        <time>2012-03-03T19:13:16Z</time>
      </trkpt>
      <trkpt lat="43.9924" lon="3.52752">
        <ele>774</ele>
        <time>2012-03-03T19:13:21Z</time>
      </trkpt>
      <trkpt lat="43.99235" lon="3.52743">
        <ele>768</ele>
        <time>2012-03-03T19:13:26Z</time>
      </trkpt>
      <trkpt lat="43.99229" lon="3.52736">
        <ele>766</ele>
        <time>2012-03-03T19:13:31Z</time>
      </trkpt>
      <trkpt lat="43.99223" lon="3.52732">
        <ele>765</ele>
        <time>2012-03-03T19:13:36Z</time>
      </trkpt>
      <trkpt lat="43.99218" lon="3.52728">
        <ele>764</ele>
        <time>2012-03-03T19:13:41Z</time>
      </trkpt>
      <trkpt lat="43.99213" lon="3.52728">
        <ele>763</ele>
        <time>2012-03-03T19:13:46Z</time>
      </trkpt>
      <trkpt lat="43.99209" lon="3.52731">
        <ele>763</ele>
        <time>2012-03-03T19:13:51Z</time>
      </trkpt>
      <trkpt lat="43.99206" lon="3.52732">
        <ele>763</ele>
        <time>2012-03-03T19:13:56Z</time>
      </trkpt>
      <trkpt lat="43.99201" lon="3.52724">
        <ele>762</ele>
        <time>2012-03-03T19:14:01Z</time>
      </trkpt>
      <trkpt lat="43.99198" lon="3.52716">
        <ele>761</ele>
        <time>2012-03-03T19:14:06Z</time>
      </trkpt>
      <trkpt lat="43.99194" lon="3.52708">
        <ele>760</ele>
        <time>2012-03-03T19:14:11Z</time>
      </trkpt>
      <trkpt lat="43.99188" lon="3.52705">
        <ele>760</ele>
        <time>2012-03-03T19:14:16Z</time>
      </trkpt>
      <trkpt lat="43.99183" lon="3.52703">
        <ele>760</ele>
        <time>2012-03-03T19:14:21Z</time>
      </trkpt>
      <trkpt lat="43.99177" lon="3.527">
        <ele>759</ele>
        <time>2012-03-03T19:14:26Z</time>
      </trkpt>
      <trkpt lat="43.99176" lon="3.52698">
        <ele>759</ele>
        <time>2012-03-03T19:14:31Z</time>
      </trkpt>
      <trkpt lat="43.99176" lon="3.52698">
        <ele>759</ele>
        <time>2012-03-03T19:14:36Z</time>
      </trkpt>
      <trkpt lat="43.9917" lon="3.52694">
        <ele>759</ele>
        <time>2012-03-03T19:14:41Z</time>
      </trkpt>
      <trkpt lat="43.99163" lon="3.52689">
        <ele>749</ele>
        <time>2012-03-03T19:14:46Z</time>
      </trkpt>
      <trkpt lat="43.99157" lon="3.52682">
        <ele>749</ele>
        <time>2012-03-03T19:14:51Z</time>
      </trkpt>
      <trkpt lat="43.9915" lon="3.52677">
        <ele>748</ele>
        <time>2012-03-03T19:14:56Z</time>
      </trkpt>
      <trkpt lat="43.99144" lon="3.52669">
        <ele>747</ele>
        <time>2012-03-03T19:15:01Z</time>
      </trkpt>
      <trkpt lat="43.9914" lon="3.52661">
        <ele>744</ele>
        <time>2012-03-03T19:15:06Z</time>
      </trkpt>
      <trkpt lat="43.99134" lon="3.52657">
        <ele>743</ele>
        <time>2012-03-03T19:15:11Z</time>
      </trkpt>
      <trkpt lat="43.99128" lon="3.5265">
        <ele>741</ele>
        <time>2012-03-03T19:15:16Z</time>
      </trkpt>
      <trkpt lat="43.99124" lon="3.52641">
        <ele>740</ele>
        <time>2012-03-03T19:15:21Z</time>
      </trkpt>
      <trkpt lat="43.99119" lon="3.52636">
        <ele>740</ele>
        <time>2012-03-03T19:15:26Z</time>
      </trkpt>
      <trkpt lat="43.99112" lon="3.52627">
        <ele>739</ele>
        <time>2012-03-03T19:15:31Z</time>
      </trkpt>
      <trkpt lat="43.99108" lon="3.52621">
        <ele>739</ele>
        <time>2012-03-03T19:15:36Z</time>
      </trkpt>
      <trkpt lat="43.99101" lon="3.52618">
        <ele>738</ele>
        <time>2012-03-03T19:15:41Z</time>
      </trkpt>
      <trkpt lat="43.99094" lon="3.52611">
        <ele>738</ele>
        <time>2012-03-03T19:15:46Z</time>
      </trkpt>
      <trkpt lat="43.99085" lon="3.52604">
        <ele>738</ele>
        <time>2012-03-03T19:15:51Z</time>
      </trkpt>
      <trkpt lat="43.99079" lon="3.52598">
        <ele>728</ele>
        <time>2012-03-03T19:15:56Z</time>
      </trkpt>
      <trkpt lat="43.99072" lon="3.52591">
        <ele>729</ele>
        <time>2012-03-03T19:16:01Z</time>
      </trkpt>
      <trkpt lat="43.9907" lon="3.52587">
        <ele>728</ele>
        <time>2012-03-03T19:16:06Z</time>
      </trkpt>
      <trkpt lat="43.99066" lon="3.52579">
        <ele>725</ele>
        <time>2012-03-03T19:16:11Z</time>
      </trkpt>
      <trkpt lat="43.99064" lon="3.52569">
        <ele>723</ele>
        <time>2012-03-03T19:16:16Z</time>
      </trkpt>
      <trkpt lat="43.99067" lon="3.52564">
        <ele>722</ele>
        <time>2012-03-03T19:16:21Z</time>
      </trkpt>
      <trkpt lat="43.99069" lon="3.52554">
        <ele>720</ele>
        <time>2012-03-03T19:16:26Z</time>
      </trkpt>
      <trkpt lat="43.99074" lon="3.52546">
        <ele>719</ele>
        <time>2012-03-03T19:16:31Z</time>
      </trkpt>
      <trkpt lat="43.99072" lon="3.52536">
        <ele>718</ele>
        <time>2012-03-03T19:16:36Z</time>
      </trkpt>
      <trkpt lat="43.99067" lon="3.52529">
        <ele>717</ele>
        <time>2012-03-03T19:16:41Z</time>
      </trkpt>
      <trkpt lat="43.9906" lon="3.52521">
        <ele>716</ele>
        <time>2012-03-03T19:16:46Z</time>
      </trkpt>
      <trkpt lat="43.99054" lon="3.52511">
        <ele>715</ele>
        <time>2012-03-03T19:16:51Z</time>
      </trkpt>
      <trkpt lat="43.9905" lon="3.52501">
        <ele>714</ele>
        <time>2012-03-03T19:16:56Z</time>
      </trkpt>
      <trkpt lat="43.99046" lon="3.52489">
        <ele>703</ele>
        <time>2012-03-03T19:17:01Z</time>
      </trkpt>
      <trkpt lat="43.99042" lon="3.52475">
        <ele>701</ele>
        <time>2012-03-03T19:17:06Z</time>
      </trkpt>
      <trkpt lat="43.99038" lon="3.52466">
        <ele>700</ele>
        <time>2012-03-03T19:17:11Z</time>
      </trkpt>
      <trkpt lat="43.99033" lon="3.52457">
        <ele>699</ele>
        <time>2012-03-03T19:17:16Z</time>
      </trkpt>
      <trkpt lat="43.99029" lon="3.5245">
        <ele>698</ele>
        <time>2012-03-03T19:17:21Z</time>
      </trkpt>
      <trkpt lat="43.99027" lon="3.52442">
        <ele>697</ele>
        <time>2012-03-03T19:17:26Z</time>
      </trkpt>
      <trkpt lat="43.99023" lon="3.52435">
        <ele>696</ele>
        <time>2012-03-03T19:17:31Z</time>
      </trkpt>
      <trkpt lat="43.9902" lon="3.52424">
        <ele>695</ele>
        <time>2012-03-03T19:17:36Z</time>
      </trkpt>
      <trkpt lat="43.99018" lon="3.52413">
        <ele>685</ele>
        <time>2012-03-03T19:17:41Z</time>
      </trkpt>
      <trkpt lat="43.99011" lon="3.52405">
        <ele>686</ele>
        <time>2012-03-03T19:17:46Z</time>
      </trkpt>
      <trkpt lat="43.9901" lon="3.52394">
        <ele>684</ele>
        <time>2012-03-03T19:17:51Z</time>
      </trkpt>
      <trkpt lat="43.99001" lon="3.5239">
        <ele>683</ele>
        <time>2012-03-03T19:17:56Z</time>
      </trkpt>
      <trkpt lat="43.98997" lon="3.52387">
        <ele>676</ele>
        <time>2012-03-03T19:18:01Z</time>
      </trkpt>
      <trkpt lat="43.98994" lon="3.52386">
        <ele>676</ele>
        <time>2012-03-03T19:18:06Z</time>
      </trkpt>
      <trkpt lat="43.9899" lon="3.52382">
        <ele>675</ele>
        <time>2012-03-03T19:18:11Z</time>
      </trkpt>
      <trkpt lat="43.98986" lon="3.52376">
        <ele>673</ele>
        <time>2012-03-03T19:18:16Z</time>
      </trkpt>
      <trkpt lat="43.98983" lon="3.52373">
        <ele>673</ele>
        <time>2012-03-03T19:18:21Z</time>
      </trkpt>
      <trkpt lat="43.98982" lon="3.52372">
        <ele>672</ele>
        <time>2012-03-03T19:18:26Z</time>
      </trkpt>
      <trkpt lat="43.98977" lon="3.52363">
        <ele>671</ele>
        <time>2012-03-03T19:18:31Z</time>
      </trkpt>
      <trkpt lat="43.98978" lon="3.52352">
        <ele>671</ele>
        <time>2012-03-03T19:18:36Z</time>
      </trkpt>
      <trkpt lat="43.98976" lon="3.52344">
        <ele>671</ele>
        <time>2012-03-03T19:18:41Z</time>
      </trkpt>
      <trkpt lat="43.9897" lon="3.52337">
        <ele>670</ele>
        <time>2012-03-03T19:18:46Z</time>
      </trkpt>
      <trkpt lat="43.98968" lon="3.52328">
        <ele>662</ele>
        <time>2012-03-03T19:18:51Z</time>
      </trkpt>
      <trkpt lat="43.98965" lon="3.52322">
        <ele>661</ele>
        <time>2012-03-03T19:18:56Z</time>
      </trkpt>
      <trkpt lat="43.98961" lon="3.52319">
        <ele>660</ele>
        <time>2012-03-03T19:19:01Z</time>
      </trkpt>
      <trkpt lat="43.98957" lon="3.52314">
        <ele>659</ele>
        <time>2012-03-03T19:19:06Z</time>
      </trkpt>
      <trkpt lat="43.98955" lon="3.52311">
        <ele>659</ele>
        <time>2012-03-03T19:19:11Z</time>
      </trkpt>
      <trkpt lat="43.9895" lon="3.52314">
        <ele>658</ele>
        <time>2012-03-03T19:19:16Z</time>
      </trkpt>
      <trkpt lat="43.98945" lon="3.52309">
        <ele>657</ele>
        <time>2012-03-03T19:19:21Z</time>
      </trkpt>
      <trkpt lat="43.98941" lon="3.52302">
        <ele>657</ele>
        <time>2012-03-03T19:19:26Z</time>
      </trkpt>
      <trkpt lat="43.98936" lon="3.52291">
        <ele>656</ele>
        <time>2012-03-03T19:19:31Z</time>
      </trkpt>
      <trkpt lat="43.9893" lon="3.5228">
        <ele>654</ele>
        <time>2012-03-03T19:19:36Z</time>
      </trkpt>
      <trkpt lat="43.98925" lon="3.52267">
        <ele>652</ele>
        <time>2012-03-03T19:19:41Z</time>
      </trkpt>
      <trkpt lat="43.98923" lon="3.52249">
        <ele>646</ele>
        <time>2012-03-03T19:19:46Z</time>
      </trkpt>
      <trkpt lat="43.98922" lon="3.5224">
        <ele>645</ele>
        <time>2012-03-03T19:19:51Z</time>
      </trkpt>
      <trkpt lat="43.98921" lon="3.52228">
        <ele>645</ele>
        <time>2012-03-03T19:19:56Z</time>
      </trkpt>
      <trkpt lat="43.98923" lon="3.52219">
        <ele>644</ele>
        <time>2012-03-03T19:20:01Z</time>
      </trkpt>
      <trkpt lat="43.98924" lon="3.52215">
        <ele>644</ele>
        <time>2012-03-03T19:20:06Z</time>
      </trkpt>
      <trkpt lat="43.98927" lon="3.52209">
        <ele>644</ele>
        <time>2012-03-03T19:20:11Z</time>
      </trkpt>
      <trkpt lat="43.98929" lon="3.52203">
        <ele>643</ele>
        <time>2012-03-03T19:20:16Z</time>
      </trkpt>
      <trkpt lat="43.9893" lon="3.52194">
        <ele>643</ele>
        <time>2012-03-03T19:20:21Z</time>
      </trkpt>
      <trkpt lat="43.9893" lon="3.52186">
        <ele>642</ele>
        <time>2012-03-03T19:20:26Z</time>
      </trkpt>
      <trkpt lat="43.9893" lon="3.52176">
        <ele>641</ele>
        <time>2012-03-03T19:20:31Z</time>
      </trkpt>
      <trkpt lat="43.9893" lon="3.52168">
        <ele>641</ele>
        <time>2012-03-03T19:20:36Z</time>
      </trkpt>
      <trkpt lat="43.98931" lon="3.52157">
        <ele>636</ele>
        <time>2012-03-03T19:20:41Z</time>
      </trkpt>
      <trkpt lat="43.98927" lon="3.52147">
        <ele>635</ele>
        <time>2012-03-03T19:20:46Z</time>
      </trkpt>
      <trkpt lat="43.98922" lon="3.52134">
        <ele>634</ele>
        <time>2012-03-03T19:20:51Z</time>
      </trkpt>
      <trkpt lat="43.9892" lon="3.52123">
        <ele>633</ele>
        <time>2012-03-03T19:20:56Z</time>
      </trkpt>
      <trkpt lat="43.98917" lon="3.52112">
        <ele>633</ele>
        <time>2012-03-03T19:21:01Z</time>
      </trkpt>
      <trkpt lat="43.98912" lon="3.52104">
        <ele>632</ele>
        <time>2012-03-03T19:21:06Z</time>
      </trkpt>
      <trkpt lat="43.98909" lon="3.52093">
        <ele>632</ele>
        <time>2012-03-03T19:21:11Z</time>
      </trkpt>
      <trkpt lat="43.98908" lon="3.52079">
        <ele>632</ele>
        <time>2012-03-03T19:21:16Z</time>
      </trkpt>
      <trkpt lat="43.98909" lon="3.52069">
        <ele>631</ele>
        <time>2012-03-03T19:21:21Z</time>
      </trkpt>
      <trkpt lat="43.98907" lon="3.52056">
        <ele>629</ele>
        <time>2012-03-03T19:21:26Z</time>
      </trkpt>
      <trkpt lat="43.98905" lon="3.52046">
        <ele>628</ele>
        <time>2012-03-03T19:21:31Z</time>
      </trkpt>
      <trkpt lat="43.98901" lon="3.52039">
        <ele>628</ele>
        <time>2012-03-03T19:21:36Z</time>
      </trkpt>
      <trkpt lat="43.98895" lon="3.52029">
        <ele>628</ele>
        <time>2012-03-03T19:21:41Z</time>
      </trkpt>
      <trkpt lat="43.98894" lon="3.5202">
        <ele>628</ele>
        <time>2012-03-03T19:21:46Z</time>
      </trkpt>
      <trkpt lat="43.98894" lon="3.52012">
        <ele>628</ele>
        <time>2012-03-03T19:21:51Z</time>
      </trkpt>
      <trkpt lat="43.98893" lon="3.52002">
        <ele>628</ele>
        <time>2012-03-03T19:21:56Z</time>
      </trkpt>
      <trkpt lat="43.98893" lon="3.51992">
        <ele>627</ele>
        <time>2012-03-03T19:22:01Z</time>
      </trkpt>
      <trkpt lat="43.98892" lon="3.51981">
        <ele>627</ele>
        <time>2012-03-03T19:22:06Z</time>
      </trkpt>
      <trkpt lat="43.98889" lon="3.51971">
        <ele>626</ele>
        <time>2012-03-03T19:22:11Z</time>
      </trkpt>
      <trkpt lat="43.98888" lon="3.5196">
        <ele>626</ele>
        <time>2012-03-03T19:22:16Z</time>
      </trkpt>
      <trkpt lat="43.98885" lon="3.51948">
        <ele>626</ele>
        <time>2012-03-03T19:22:21Z</time>
      </trkpt>
      <trkpt lat="43.98881" lon="3.51935">
        <ele>625</ele>
        <time>2012-03-03T19:22:26Z</time>
      </trkpt>
      <trkpt lat="43.98878" lon="3.51926">
        <ele>625</ele>
        <time>2012-03-03T19:22:31Z</time>
      </trkpt>
      <trkpt lat="43.98873" lon="3.51916">
        <ele>623</ele>
        <time>2012-03-03T19:22:36Z</time>
      </trkpt>
      <trkpt lat="43.98868" lon="3.51908">
        <ele>623</ele>
        <time>2012-03-03T19:22:41Z</time>
      </trkpt>
      <trkpt lat="43.9886" lon="3.519">
        <ele>623</ele>
        <time>2012-03-03T19:22:46Z</time>
      </trkpt>
      <trkpt lat="43.9885" lon="3.51892">
        <ele>624</ele>
        <time>2012-03-03T19:22:51Z</time>
      </trkpt>
      <trkpt lat="43.98845" lon="3.51886">
        <ele>624</ele>
        <time>2012-03-03T19:22:56Z</time>
      </trkpt>
      <trkpt lat="43.98839" lon="3.51879">
        <ele>624</ele>
        <time>2012-03-03T19:23:01Z</time>
      </trkpt>
      <trkpt lat="43.98833" lon="3.51869">
        <ele>624</ele>
        <time>2012-03-03T19:23:06Z</time>
      </trkpt>
      <trkpt lat="43.98825" lon="3.51861">
        <ele>624</ele>
        <time>2012-03-03T19:23:11Z</time>
      </trkpt>
      <trkpt lat="43.98818" lon="3.5185">
        <ele>624</ele>
        <time>2012-03-03T19:23:16Z</time>
      </trkpt>
      <trkpt lat="43.98813" lon="3.51843">
        <ele>624</ele>
        <time>2012-03-03T19:23:21Z</time>
      </trkpt>
      <trkpt lat="43.98807" lon="3.5185">
        <ele>623</ele>
        <time>2012-03-03T19:23:26Z</time>
      </trkpt>
      <trkpt lat="43.98798" lon="3.51848">
        <ele>623</ele>
        <time>2012-03-03T19:23:31Z</time>
      </trkpt>
      <trkpt lat="43.98793" lon="3.5184">
        <ele>622</ele>
        <time>2012-03-03T19:23:36Z</time>
      </trkpt>
      <trkpt lat="43.9879" lon="3.51832">
        <ele>624</ele>
        <time>2012-03-03T19:23:41Z</time>
      </trkpt>
      <trkpt lat="43.98784" lon="3.51827">
        <ele>624</ele>
        <time>2012-03-03T19:23:46Z</time>
      </trkpt>
      <trkpt lat="43.98777" lon="3.51819">
        <ele>624</ele>
        <time>2012-03-03T19:23:51Z</time>
      </trkpt>
      <trkpt lat="43.98767" lon="3.51817">
        <ele>624</ele>
        <time>2012-03-03T19:23:56Z</time>
      </trkpt>
      <trkpt lat="43.98761" lon="3.51811">
        <ele>624</ele>
        <time>2012-03-03T19:24:01Z</time>
      </trkpt>
      <trkpt lat="43.98759" lon="3.51806">
        <ele>625</ele>
        <time>2012-03-03T19:24:06Z</time>
      </trkpt>
      <trkpt lat="43.98759" lon="3.51801">
        <ele>625</ele>
        <time>2012-03-03T19:24:11Z</time>
      </trkpt>
      <trkpt lat="43.98759" lon="3.51797">
        <ele>625</ele>
        <time>2012-03-03T19:24:16Z</time>
      </trkpt>
      <trkpt lat="43.9876" lon="3.51793">
        <ele>626</ele>
        <time>2012-03-03T19:24:21Z</time>
      </trkpt>
      <trkpt lat="43.98761" lon="3.51789">
        <ele>626</ele>
        <time>2012-03-03T19:24:26Z</time>
      </trkpt>
      <trkpt lat="43.9876" lon="3.51786">
        <ele>626</ele>
        <time>2012-03-03T19:24:31Z</time>
      </trkpt>
      <trkpt lat="43.98756" lon="3.51782">
        <ele>627</ele>
        <time>2012-03-03T19:24:36Z</time>
      </trkpt>
      <trkpt lat="43.98757" lon="3.51775">
        <ele>628</ele>
        <time>2012-03-03T19:24:41Z</time>
      </trkpt>
      <trkpt lat="43.98757" lon="3.51769">
        <ele>629</ele>
        <time>2012-03-03T19:24:46Z</time>
      </trkpt>
      <trkpt lat="43.98754" lon="3.51764">
        <ele>630</ele>
        <time>2012-03-03T19:24:51Z</time>
      </trkpt>
      <trkpt lat="43.98752" lon="3.51759">
        <ele>631</ele>
        <time>2012-03-03T19:24:56Z</time>
      </trkpt>
      <trkpt lat="43.98749" lon="3.51756">
        <ele>633</ele>
        <time>2012-03-03T19:25:01Z</time>
      </trkpt>
      <trkpt lat="43.98749" lon="3.51755">
        <ele>633</ele>
        <time>2012-03-03T19:25:06Z</time>
      </trkpt>
      <trkpt lat="43.98746" lon="3.51751">
        <ele>634</ele>
        <time>2012-03-03T19:25:11Z</time>
      </trkpt>
      <trkpt lat="43.98743" lon="3.51747">
        <ele>637</ele>
        <time>2012-03-03T19:25:16Z</time>
      </trkpt>
      <trkpt lat="43.98741" lon="3.51742">
        <ele>638</ele>
        <time>2012-03-03T19:25:21Z</time>
      </trkpt>
      <trkpt lat="43.9874" lon="3.51736">
        <ele>639</ele>
        <time>2012-03-03T19:25:26Z</time>
      </trkpt>
      <trkpt lat="43.9874" lon="3.51731">
        <ele>639</ele>
        <time>2012-03-03T19:25:31Z</time>
      </trkpt>
      <trkpt lat="43.98737" lon="3.51727">
        <ele>640</ele>
        <time>2012-03-03T19:25:36Z</time>
      </trkpt>
      <trkpt lat="43.98732" lon="3.51723">
        <ele>640</ele>
        <time>2012-03-03T19:25:41Z</time>
      </trkpt>
      <trkpt lat="43.9873" lon="3.51718">
        <ele>641</ele>
        <time>2012-03-03T19:25:46Z</time>
      </trkpt>
      <trkpt lat="43.98728" lon="3.51713">
        <ele>642</ele>
        <time>2012-03-03T19:25:51Z</time>
      </trkpt>
      <trkpt lat="43.98725" lon="3.51708">
        <ele>642</ele>
        <time>2012-03-03T19:25:56Z</time>
      </trkpt>
      <trkpt lat="43.98724" lon="3.51704">
        <ele>643</ele>
        <time>2012-03-03T19:26:01Z</time>
      </trkpt>
      <trkpt lat="43.98722" lon="3.51699">
        <ele>643</ele>
        <time>2012-03-03T19:26:06Z</time>
      </trkpt>
      <trkpt lat="43.98721" lon="3.51694">
        <ele>644</ele>
        <time>2012-03-03T19:26:11Z</time>
      </trkpt>
      <trkpt lat="43.9872" lon="3.51689">
        <ele>644</ele>
        <time>2012-03-03T19:26:16Z</time>
      </trkpt>
      <trkpt lat="43.98718" lon="3.51683">
        <ele>644</ele>
        <time>2012-03-03T19:26:21Z</time>
      </trkpt>
      <trkpt lat="43.98717" lon="3.51679">
        <ele>645</ele>
        <time>2012-03-03T19:26:26Z</time>
      </trkpt>
      <trkpt lat="43.98717" lon="3.51674">
        <ele>645</ele>
        <time>2012-03-03T19:26:31Z</time>
      </trkpt>
      <trkpt lat="43.98717" lon="3.51669">
        <ele>645</ele>
        <time>2012-03-03T19:26:36Z</time>
      </trkpt>
      <trkpt lat="43.98718" lon="3.51664">
        <ele>652</ele>
        <time>2012-03-03T19:26:41Z</time>
      </trkpt>
      <trkpt lat="43.98719" lon="3.51659">
        <ele>652</ele>
        <time>2012-03-03T19:26:46Z</time>
      </trkpt>
      <trkpt lat="43.98718" lon="3.51655">
        <ele>652</ele>
        <time>2012-03-03T19:26:51Z</time>
      </trkpt>
      <trkpt lat="43.98717" lon="3.51651">
        <ele>653</ele>
        <time>2012-03-03T19:26:56Z</time>
      </trkpt>
      <trkpt lat="43.98712" lon="3.51646">
        <ele>653</ele>
        <time>2012-03-03T19:27:01Z</time>
      </trkpt>
      <trkpt lat="43.98708" lon="3.51644">
        <ele>653</ele>
        <time>2012-03-03T19:27:06Z</time>
      </trkpt>
      <trkpt lat="43.98704" lon="3.51641">
        <ele>654</ele>
        <time>2012-03-03T19:27:11Z</time>
      </trkpt>
      <trkpt lat="43.98701" lon="3.51637">
        <ele>654</ele>
        <time>2012-03-03T19:27:16Z</time>
      </trkpt>
      <trkpt lat="43.98699" lon="3.51634">
        <ele>654</ele>
        <time>2012-03-03T19:27:21Z</time>
      </trkpt>
      <trkpt lat="43.98697" lon="3.51629">
        <ele>655</ele>
        <time>2012-03-03T19:27:26Z</time>
      </trkpt>
      <trkpt lat="43.98697" lon="3.51624">
        <ele>655</ele>
        <time>2012-03-03T19:27:31Z</time>
      </trkpt>
      <trkpt lat="43.98696" lon="3.51619">
        <ele>655</ele>
        <time>2012-03-03T19:27:36Z</time>
      </trkpt>
      <trkpt lat="43.98693" lon="3.51617">
        <ele>656</ele>
        <time>2012-03-03T19:27:41Z</time>
      </trkpt>
      <trkpt lat="43.98691" lon="3.51617">
        <ele>656</ele>
        <time>2012-03-03T19:27:46Z</time>
      </trkpt>
      <trkpt lat="43.98689" lon="3.51618">
        <ele>656</ele>
        <time>2012-03-03T19:27:51Z</time>
      </trkpt>
      <trkpt lat="43.98685" lon="3.51619">
        <ele>656</ele>
        <time>2012-03-03T19:27:56Z</time>
      </trkpt>
      <trkpt lat="43.98681" lon="3.51615">
        <ele>657</ele>
        <time>2012-03-03T19:28:01Z</time>
      </trkpt>
      <trkpt lat="43.9868" lon="3.51611">
        <ele>657</ele>
        <time>2012-03-03T19:28:06Z</time>
      </trkpt>
      <trkpt lat="43.98678" lon="3.51608">
        <ele>658</ele>
        <time>2012-03-03T19:28:11Z</time>
      </trkpt>
      <trkpt lat="43.98676" lon="3.51605">
        <ele>659</ele>
        <time>2012-03-03T19:28:16Z</time>
      </trkpt>
      <trkpt lat="43.98673" lon="3.51601">
        <ele>660</ele>
        <time>2012-03-03T19:28:21Z</time>
      </trkpt>
      <trkpt lat="43.98669" lon="3.51596">
        <ele>661</ele>
        <time>2012-03-03T19:28:26Z</time>
      </trkpt>
      <trkpt lat="43.98667" lon="3.51589">
        <ele>664</ele>
        <time>2012-03-03T19:28:31Z</time>
      </trkpt>
      <trkpt lat="43.98664" lon="3.51579">
        <ele>664</ele>
        <time>2012-03-03T19:28:36Z</time>
      </trkpt>
      <trkpt lat="43.98665" lon="3.5157">
        <ele>661</ele>
        <time>2012-03-03T19:28:41Z</time>
      </trkpt>
      <trkpt lat="43.98668" lon="3.5156">
        <ele>660</ele>
        <time>2012-03-03T19:28:46Z</time>
      </trkpt>
      <trkpt lat="43.98671" lon="3.51551">
        <ele>660</ele>
        <time>2012-03-03T19:28:51Z</time>
      </trkpt>
      <trkpt lat="43.98673" lon="3.51541">
        <ele>659</ele>
        <time>2012-03-03T19:28:56Z</time>
      </trkpt>
      <trkpt lat="43.98674" lon="3.51528">
        <ele>659</ele>
        <time>2012-03-03T19:29:01Z</time>
      </trkpt>
      <trkpt lat="43.98673" lon="3.51513">
        <ele>660</ele>
        <time>2012-03-03T19:29:06Z</time>
      </trkpt>
      <trkpt lat="43.98673" lon="3.51495">
        <ele>661</ele>
        <time>2012-03-03T19:29:11Z</time>
      </trkpt>
      <trkpt lat="43.98671" lon="3.5148">
        <ele>659</ele>
        <time>2012-03-03T19:29:16Z</time>
      </trkpt>
      <trkpt lat="43.98672" lon="3.51471">
        <ele>658</ele>
        <time>2012-03-03T19:29:21Z</time>
      </trkpt>
      <trkpt lat="43.9867" lon="3.51464">
        <ele>658</ele>
        <time>2012-03-03T19:29:26Z</time>
      </trkpt>
      <trkpt lat="43.98664" lon="3.51462">
        <ele>655</ele>
        <time>2012-03-03T19:29:31Z</time>
      </trkpt>
      <trkpt lat="43.98657" lon="3.51458">
        <ele>654</ele>
        <time>2012-03-03T19:29:36Z</time>
      </trkpt>
      <trkpt lat="43.98654" lon="3.51445">
        <ele>654</ele>
        <time>2012-03-03T19:29:41Z</time>
      </trkpt>
      <trkpt lat="43.98652" lon="3.51436">
        <ele>655</ele>
        <time>2012-03-03T19:29:46Z</time>
      </trkpt>
      <trkpt lat="43.98648" lon="3.51429">
        <ele>654</ele>
        <time>2012-03-03T19:29:51Z</time>
      </trkpt>
      <trkpt lat="43.98643" lon="3.51438">
        <ele>653</ele>
        <time>2012-03-03T19:29:56Z</time>
      </trkpt>
      <trkpt lat="43.98637" lon="3.51444">
        <ele>652</ele>
        <time>2012-03-03T19:30:01Z</time>
      </trkpt>
      <trkpt lat="43.98633" lon="3.51439">
        <ele>651</ele>
        <time>2012-03-03T19:30:06Z</time>
      </trkpt>
      <trkpt lat="43.98626" lon="3.51439">
        <ele>650</ele>
        <time>2012-03-03T19:30:11Z</time>
      </trkpt>
      <trkpt lat="43.98621" lon="3.51441">
        <ele>649</ele>
        <time>2012-03-03T19:30:16Z</time>
      </trkpt>
      <trkpt lat="43.98616" lon="3.51446">
        <ele>649</ele>
        <time>2012-03-03T19:30:21Z</time>
      </trkpt>
      <trkpt lat="43.98611" lon="3.51449">
        <ele>648</ele>
        <time>2012-03-03T19:30:26Z</time>
      </trkpt>
      <trkpt lat="43.98605" lon="3.51446">
        <ele>647</ele>
        <time>2012-03-03T19:30:31Z</time>
      </trkpt>
      <trkpt lat="43.98598" lon="3.51445">
        <ele>646</ele>
        <time>2012-03-03T19:30:36Z</time>
      </trkpt>
      <trkpt lat="43.98593" lon="3.51446">
        <ele>646</ele>
        <time>2012-03-03T19:30:41Z</time>
      </trkpt>
      <trkpt lat="43.98585" lon="3.51441">
        <ele>644</ele>
        <time>2012-03-03T19:30:46Z</time>
      </trkpt>
      <trkpt lat="43.98579" lon="3.51443">
        <ele>628</ele>
        <time>2012-03-03T19:30:51Z</time>
      </trkpt>
      <trkpt lat="43.98571" lon="3.51445">
        <ele>627</ele>
        <time>2012-03-03T19:30:56Z</time>
      </trkpt>
      <trkpt lat="43.98564" lon="3.51439">
        <ele>626</ele>
        <time>2012-03-03T19:31:01Z</time>
      </trkpt>
      <trkpt lat="43.9856" lon="3.51435">
        <ele>626</ele>
        <time>2012-03-03T19:31:06Z</time>
      </trkpt>
      <trkpt lat="43.98555" lon="3.51429">
        <ele>625</ele>
        <time>2012-03-03T19:31:11Z</time>
      </trkpt>
      <trkpt lat="43.98552" lon="3.51426">
        <ele>624</ele>
        <time>2012-03-03T19:31:16Z</time>
      </trkpt>
      <trkpt lat="43.98547" lon="3.51417">
        <ele>622</ele>
        <time>2012-03-03T19:31:21Z</time>
      </trkpt>
      <trkpt lat="43.98545" lon="3.51406">
        <ele>622</ele>
        <time>2012-03-03T19:31:26Z</time>
      </trkpt>
      <trkpt lat="43.98538" lon="3.51402">
        <ele>620</ele>
        <time>2012-03-03T19:31:31Z</time>
      </trkpt>
      <trkpt lat="43.98534" lon="3.51393">
        <ele>620</ele>
        <time>2012-03-03T19:31:36Z</time>
      </trkpt>
      <trkpt lat="43.98531" lon="3.51386">
        <ele>619</ele>
        <time>2012-03-03T19:31:41Z</time>
      </trkpt>
      <trkpt lat="43.98526" lon="3.51385">
        <ele>619</ele>
        <time>2012-03-03T19:31:46Z</time>
      </trkpt>
      <trkpt lat="43.98523" lon="3.5139">
        <ele>618</ele>
        <time>2012-03-03T19:31:51Z</time>
      </trkpt>
      <trkpt lat="43.9852" lon="3.51393">
        <ele>617</ele>
        <time>2012-03-03T19:31:56Z</time>
      </trkpt>
      <trkpt lat="43.98514" lon="3.51392">
        <ele>615</ele>
        <time>2012-03-03T19:32:01Z</time>
      </trkpt>
      <trkpt lat="43.98509" lon="3.51391">
        <ele>615</ele>
        <time>2012-03-03T19:32:06Z</time>
      </trkpt>
      <trkpt lat="43.98504" lon="3.51392">
        <ele>614</ele>
        <time>2012-03-03T19:32:11Z</time>
      </trkpt>
      <trkpt lat="43.98498" lon="3.51391">
        <ele>595</ele>
        <time>2012-03-03T19:32:16Z</time>
      </trkpt>
      <trkpt lat="43.98492" lon="3.5139">
        <ele>594</ele>
        <time>2012-03-03T19:32:21Z</time>
      </trkpt>
      <trkpt lat="43.98489" lon="3.51391">
        <ele>594</ele>
        <time>2012-03-03T19:32:26Z</time>
      </trkpt>
      <trkpt lat="43.98485" lon="3.51397">
        <ele>594</ele>
        <time>2012-03-03T19:32:31Z</time>
      </trkpt>
      <trkpt lat="43.98479" lon="3.51399">
        <ele>592</ele>
        <time>2012-03-03T19:32:36Z</time>
      </trkpt>
      <trkpt lat="43.98474" lon="3.51401">
        <ele>591</ele>
        <time>2012-03-03T19:32:41Z</time>
      </trkpt>
      <trkpt lat="43.98473" lon="3.51406">
        <ele>591</ele>
        <time>2012-03-03T19:32:46Z</time>
      </trkpt>
      <trkpt lat="43.98472" lon="3.51413">
        <ele>591</ele>
        <time>2012-03-03T19:32:51Z</time>
      </trkpt>
      <trkpt lat="43.98469" lon="3.5142">
        <ele>590</ele>
        <time>2012-03-03T19:32:56Z</time>
      </trkpt>
      <trkpt lat="43.98465" lon="3.51426">
        <ele>589</ele>
        <time>2012-03-03T19:33:01Z</time>
      </trkpt>
      <trkpt lat="43.98466" lon="3.51434">
        <ele>589</ele>
        <time>2012-03-03T19:33:06Z</time>
      </trkpt>
      <trkpt lat="43.98466" lon="3.51442">
        <ele>589</ele>
        <time>2012-03-03T19:33:11Z</time>
      </trkpt>
      <trkpt lat="43.98462" lon="3.51451">
        <ele>588</ele>
        <time>2012-03-03T19:33:16Z</time>
      </trkpt>
      <trkpt lat="43.98458" lon="3.51461">
        <ele>587</ele>
        <time>2012-03-03T19:33:21Z</time>
      </trkpt>
      <trkpt lat="43.98452" lon="3.51468">
        <ele>586</ele>
        <time>2012-03-03T19:33:26Z</time>
      </trkpt>
      <trkpt lat="43.98447" lon="3.51477">
        <ele>585</ele>
        <time>2012-03-03T19:33:31Z</time>
      </trkpt>
      <trkpt lat="43.98442" lon="3.5149">
        <ele>583</ele>
        <time>2012-03-03T19:33:36Z</time>
      </trkpt>
      <trkpt lat="43.98438" lon="3.51501">
        <ele>586</ele>
        <time>2012-03-03T19:33:41Z</time>
      </trkpt>
      <trkpt lat="43.98431" lon="3.51512">
        <ele>585</ele>
        <time>2012-03-03T19:33:46Z</time>
      </trkpt>
      <trkpt lat="43.98425" lon="3.51523">
        <ele>587</ele>
        <time>2012-03-03T19:33:51Z</time>
      </trkpt>
      <trkpt lat="43.98421" lon="3.51532">
        <ele>589</ele>
        <time>2012-03-03T19:33:56Z</time>
      </trkpt>
      <trkpt lat="43.98418" lon="3.51541">
        <ele>590</ele>
        <time>2012-03-03T19:34:01Z</time>
      </trkpt>
      <trkpt lat="43.98414" lon="3.51553">
        <ele>573</ele>
        <time>2012-03-03T19:34:06Z</time>
      </trkpt>
      <trkpt lat="43.9841" lon="3.51562">
        <ele>575</ele>
        <time>2012-03-03T19:34:11Z</time>
      </trkpt>
      <trkpt lat="43.98404" lon="3.51575">
        <ele>577</ele>
        <time>2012-03-03T19:34:16Z</time>
      </trkpt>
      <trkpt lat="43.98401" lon="3.51588">
        <ele>582</ele>
        <time>2012-03-03T19:34:21Z</time>
      </trkpt>
      <trkpt lat="43.984" lon="3.51596">
        <ele>581</ele>
        <time>2012-03-03T19:34:26Z</time>
      </trkpt>
      <trkpt lat="43.98398" lon="3.51602">
        <ele>581</ele>
        <time>2012-03-03T19:34:31Z</time>
      </trkpt>
      <trkpt lat="43.98396" lon="3.51608">
        <ele>580</ele>
        <time>2012-03-03T19:34:36Z</time>
      </trkpt>
      <trkpt lat="43.98392" lon="3.51617">
        <ele>580</ele>
        <time>2012-03-03T19:34:41Z</time>
      </trkpt>
      <trkpt lat="43.98389" lon="3.51624">
        <ele>579</ele>
        <time>2012-03-03T19:34:46Z</time>
      </trkpt>
      <trkpt lat="43.98388" lon="3.5163">
        <ele>580</ele>
        <time>2012-03-03T19:34:51Z</time>
      </trkpt>
      <trkpt lat="43.98386" lon="3.51637">
        <ele>580</ele>
        <time>2012-03-03T19:34:56Z</time>
      </trkpt>
      <trkpt lat="43.98382" lon="3.51646">
        <ele>580</ele>
        <time>2012-03-03T19:35:01Z</time>
      </trkpt>
      <trkpt lat="43.98379" lon="3.51654">
        <ele>580</ele>
        <time>2012-03-03T19:35:06Z</time>
      </trkpt>
      <trkpt lat="43.98376" lon="3.51662">
        <ele>579</ele>
        <time>2012-03-03T19:35:11Z</time>
      </trkpt>
      <trkpt lat="43.98371" lon="3.51674">
        <ele>583</ele>
        <time>2012-03-03T19:35:16Z</time>
      </trkpt>
      <trkpt lat="43.98369" lon="3.51685">
        <ele>583</ele>
        <time>2012-03-03T19:35:21Z</time>
      </trkpt>
      <trkpt lat="43.98369" lon="3.51692">
        <ele>583</ele>
        <time>2012-03-03T19:35:26Z</time>
      </trkpt>
      <trkpt lat="43.98371" lon="3.51702">
        <ele>584</ele>
        <time>2012-03-03T19:35:31Z</time>
      </trkpt>
      <trkpt lat="43.98368" lon="3.5171">
        <ele>583</ele>
        <time>2012-03-03T19:35:36Z</time>
      </trkpt>
      <trkpt lat="43.98361" lon="3.51715">
        <ele>583</ele>
        <time>2012-03-03T19:35:41Z</time>
      </trkpt>
      <trkpt lat="43.98353" lon="3.51722">
        <ele>583</ele>
        <time>2012-03-03T19:35:46Z</time>
      </trkpt>
      <trkpt lat="43.98346" lon="3.5173">
        <ele>582</ele>
        <time>2012-03-03T19:35:51Z</time>
      </trkpt>
      <trkpt lat="43.98337" lon="3.51738">
        <ele>582</ele>
        <time>2012-03-03T19:35:56Z</time>
      </trkpt>
      <trkpt lat="43.98329" lon="3.51749">
        <ele>579</ele>
        <time>2012-03-03T19:36:01Z</time>
      </trkpt>
      <trkpt lat="43.9832" lon="3.51759">
        <ele>577</ele>
        <time>2012-03-03T19:36:06Z</time>
      </trkpt>
      <trkpt lat="43.98312" lon="3.51763">
        <ele>576</ele>
        <time>2012-03-03T19:36:11Z</time>
      </trkpt>
      <trkpt lat="43.98304" lon="3.51768">
        <ele>575</ele>
        <time>2012-03-03T19:36:16Z</time>
      </trkpt>
      <trkpt lat="43.98294" lon="3.51766">
        <ele>574</ele>
        <time>2012-03-03T19:36:21Z</time>
      </trkpt>
      <trkpt lat="43.98286" lon="3.51768">
        <ele>573</ele>
        <time>2012-03-03T19:36:26Z</time>
      </trkpt>
      <trkpt lat="43.98275" lon="3.51769">
        <ele>572</ele>
        <time>2012-03-03T19:36:31Z</time>
      </trkpt>
      <trkpt lat="43.98266" lon="3.51772">
        <ele>571</ele>
        <time>2012-03-03T19:36:36Z</time>
      </trkpt>
      <trkpt lat="43.98256" lon="3.51776">
        <ele>571</ele>
        <time>2012-03-03T19:36:41Z</time>
      </trkpt>
      <trkpt lat="43.98247" lon="3.51779">
        <ele>565</ele>
        <time>2012-03-03T19:36:46Z</time>
      </trkpt>
      <trkpt lat="43.98237" lon="3.5178">
        <ele>565</ele>
        <time>2012-03-03T19:36:51Z</time>
      </trkpt>
      <trkpt lat="43.98226" lon="3.51786">
        <ele>564</ele>
        <time>2012-03-03T19:36:56Z</time>
      </trkpt>
      <trkpt lat="43.98216" lon="3.51791">
        <ele>564</ele>
        <time>2012-03-03T19:37:01Z</time>
      </trkpt>
      <trkpt lat="43.98203" lon="3.51796">
        <ele>564</ele>
        <time>2012-03-03T19:37:06Z</time>
      </trkpt>
      <trkpt lat="43.98192" lon="3.51797">
        <ele>563</ele>
        <time>2012-03-03T19:37:11Z</time>
      </trkpt>
      <trkpt lat="43.98182" lon="3.51801">
        <ele>563</ele>
        <time>2012-03-03T19:37:16Z</time>
      </trkpt>
      <trkpt lat="43.98172" lon="3.51804">
        <ele>563</ele>
        <time>2012-03-03T19:37:21Z</time>
      </trkpt>
      <trkpt lat="43.98164" lon="3.51806">
        <ele>555</ele>
        <time>2012-03-03T19:37:26Z</time>
      </trkpt>
      <trkpt lat="43.98155" lon="3.51806">
        <ele>554</ele>
        <time>2012-03-03T19:37:31Z</time>
      </trkpt>
      <trkpt lat="43.98148" lon="3.51809">
        <ele>553</ele>
        <time>2012-03-03T19:37:36Z</time>
      </trkpt>
      <trkpt lat="43.98139" lon="3.51811">
        <ele>552</ele>
        <time>2012-03-03T19:37:41Z</time>
      </trkpt>
      <trkpt lat="43.98132" lon="3.51814">
        <ele>551</ele>
        <time>2012-03-03T19:37:46Z</time>
      </trkpt>
      <trkpt lat="43.98127" lon="3.51816">
        <ele>551</ele>
        <time>2012-03-03T19:37:51Z</time>
      </trkpt>
      <trkpt lat="43.9812" lon="3.51819">
        <ele>550</ele>
        <time>2012-03-03T19:37:56Z</time>
      </trkpt>
      <trkpt lat="43.98115" lon="3.51825">
        <ele>549</ele>
        <time>2012-03-03T19:38:01Z</time>
      </trkpt>
      <trkpt lat="43.9811" lon="3.51828">
        <ele>549</ele>
        <time>2012-03-03T19:38:06Z</time>
      </trkpt>
      <trkpt lat="43.98106" lon="3.51833">
        <ele>549</ele>
        <time>2012-03-03T19:38:11Z</time>
      </trkpt>
      <trkpt lat="43.98103" lon="3.5184">
        <ele>555</ele>
        <time>2012-03-03T19:38:16Z</time>
      </trkpt>
      <trkpt lat="43.98096" lon="3.51844">
        <ele>554</ele>
        <time>2012-03-03T19:38:21Z</time>
      </trkpt>
      <trkpt lat="43.98089" lon="3.51845">
        <ele>553</ele>
        <time>2012-03-03T19:38:26Z</time>
      </trkpt>
      <trkpt lat="43.98082" lon="3.51849">
        <ele>549</ele>
        <time>2012-03-03T19:38:31Z</time>
      </trkpt>
      <trkpt lat="43.98075" lon="3.5185">
        <ele>549</ele>
        <time>2012-03-03T19:38:36Z</time>
      </trkpt>
      <trkpt lat="43.98066" lon="3.51854">
        <ele>550</ele>
        <time>2012-03-03T19:38:41Z</time>
      </trkpt>
      <trkpt lat="43.98058" lon="3.51856">
        <ele>550</ele>
        <time>2012-03-03T19:38:46Z</time>
      </trkpt>
      <trkpt lat="43.98048" lon="3.51857">
        <ele>549</ele>
        <time>2012-03-03T19:38:51Z</time>
      </trkpt>
      <trkpt lat="43.9804" lon="3.51854">
        <ele>548</ele>
        <time>2012-03-03T19:38:56Z</time>
      </trkpt>
      <trkpt lat="43.98032" lon="3.51851">
        <ele>547</ele>
        <time>2012-03-03T19:39:01Z</time>
      </trkpt>
      <trkpt lat="43.98024" lon="3.51852">
        <ele>546</ele>
        <time>2012-03-03T19:39:06Z</time>
      </trkpt>
      <trkpt lat="43.98018" lon="3.51851">
        <ele>545</ele>
        <time>2012-03-03T19:39:11Z</time>
      </trkpt>
      <trkpt lat="43.98012" lon="3.5185">
        <ele>543</ele>
        <time>2012-03-03T19:39:16Z</time>
      </trkpt>
      <trkpt lat="43.98004" lon="3.51848">
        <ele>541</ele>
        <time>2012-03-03T19:39:21Z</time>
      </trkpt>
      <trkpt lat="43.97997" lon="3.51849">
        <ele>539</ele>
        <time>2012-03-03T19:39:26Z</time>
      </trkpt>
      <trkpt lat="43.97989" lon="3.51852">
        <ele>541</ele>
        <time>2012-03-03T19:39:31Z</time>
      </trkpt>
      <trkpt lat="43.97979" lon="3.51851">
        <ele>542</ele>
        <time>2012-03-03T19:39:36Z</time>
      </trkpt>
      <trkpt lat="43.97968" lon="3.51843">
        <ele>541</ele>
        <time>2012-03-03T19:39:41Z</time>
      </trkpt>
      <trkpt lat="43.97961" lon="3.51841">
        <ele>541</ele>
        <time>2012-03-03T19:39:46Z</time>
      </trkpt>
      <trkpt lat="43.97954" lon="3.51842">
        <ele>541</ele>
        <time>2012-03-03T19:39:51Z</time>
      </trkpt>
      <trkpt lat="43.97943" lon="3.51843">
        <ele>541</ele>
        <time>2012-03-03T19:39:56Z</time>
      </trkpt>
      <trkpt lat="43.97933" lon="3.51845">
        <ele>539</ele>
        <time>2012-03-03T19:40:01Z</time>
      </trkpt>
      <trkpt lat="43.97926" lon="3.51841">
        <ele>537</ele>
        <time>2012-03-03T19:40:06Z</time>
      </trkpt>
      <trkpt lat="43.97916" lon="3.51831">
        <ele>531</ele>
        <time>2012-03-03T19:40:11Z</time>
      </trkpt>
      <trkpt lat="43.97909" lon="3.51823">
        <ele>529</ele>
        <time>2012-03-03T19:40:16Z</time>
      </trkpt>
      <trkpt lat="43.97902" lon="3.51817">
        <ele>528</ele>
        <time>2012-03-03T19:40:21Z</time>
      </trkpt>
      <trkpt lat="43.97893" lon="3.5181">
        <ele>527</ele>
        <time>2012-03-03T19:40:26Z</time>
      </trkpt>
      <trkpt lat="43.97884" lon="3.51801">
        <ele>526</ele>
        <time>2012-03-03T19:40:31Z</time>
      </trkpt>
      <trkpt lat="43.97874" lon="3.51792">
        <ele>525</ele>
        <time>2012-03-03T19:40:36Z</time>
      </trkpt>
      <trkpt lat="43.97864" lon="3.51783">
        <ele>525</ele>
        <time>2012-03-03T19:40:41Z</time>
      </trkpt>
      <trkpt lat="43.97857" lon="3.51776">
        <ele>524</ele>
        <time>2012-03-03T19:40:46Z</time>
      </trkpt>
      <trkpt lat="43.97847" lon="3.51769">
        <ele>524</ele>
        <time>2012-03-03T19:40:51Z</time>
      </trkpt>
      <trkpt lat="43.97838" lon="3.51761">
        <ele>523</ele>
        <time>2012-03-03T19:40:56Z</time>
      </trkpt>
      <trkpt lat="43.97834" lon="3.51755">
        <ele>523</ele>
        <time>2012-03-03T19:41:01Z</time>
      </trkpt>
      <trkpt lat="43.97827" lon="3.51747">
        <ele>519</ele>
        <time>2012-03-03T19:41:06Z</time>
      </trkpt>
      <trkpt lat="43.97819" lon="3.51736">
        <ele>515</ele>
        <time>2012-03-03T19:41:11Z</time>
      </trkpt>
      <trkpt lat="43.97811" lon="3.51728">
        <ele>513</ele>
        <time>2012-03-03T19:41:16Z</time>
      </trkpt>
      <trkpt lat="43.97805" lon="3.51725">
        <ele>512</ele>
        <time>2012-03-03T19:41:21Z</time>
      </trkpt>
      <trkpt lat="43.97797" lon="3.51723">
        <ele>511</ele>
        <time>2012-03-03T19:41:26Z</time>
      </trkpt>
      <trkpt lat="43.9779" lon="3.51724">
        <ele>511</ele>
        <time>2012-03-03T19:41:31Z</time>
      </trkpt>
      <trkpt lat="43.9778" lon="3.51728">
        <ele>512</ele>
        <time>2012-03-03T19:41:36Z</time>
      </trkpt>
      <trkpt lat="43.97772" lon="3.51729">
        <ele>512</ele>
        <time>2012-03-03T19:41:41Z</time>
      </trkpt>
      <trkpt lat="43.97763" lon="3.51729">
        <ele>513</ele>
        <time>2012-03-03T19:41:46Z</time>
      </trkpt>
      <trkpt lat="43.97758" lon="3.5173">
        <ele>513</ele>
        <time>2012-03-03T19:41:51Z</time>
      </trkpt>
      <trkpt lat="43.97753" lon="3.51729">
        <ele>513</ele>
        <time>2012-03-03T19:41:56Z</time>
      </trkpt>
      <trkpt lat="43.97748" lon="3.51728">
        <ele>507</ele>
        <time>2012-03-03T19:42:01Z</time>
      </trkpt>
      <trkpt lat="43.97745" lon="3.51733">
        <ele>509</ele>
        <time>2012-03-03T19:42:06Z</time>
      </trkpt>
      <trkpt lat="43.97737" lon="3.51734">
        <ele>507</ele>
        <time>2012-03-03T19:42:11Z</time>
      </trkpt>
      <trkpt lat="43.97728" lon="3.51732">
        <ele>504</ele>
        <time>2012-03-03T19:42:16Z</time>
      </trkpt>
      <trkpt lat="43.97715" lon="3.51731">
        <ele>502</ele>
        <time>2012-03-03T19:42:21Z</time>
      </trkpt>
      <trkpt lat="43.97703" lon="3.51731">
        <ele>499</ele>
        <time>2012-03-03T19:42:26Z</time>
      </trkpt>
      <trkpt lat="43.97693" lon="3.51735">
        <ele>498</ele>
        <time>2012-03-03T19:42:31Z</time>
      </trkpt>
      <trkpt lat="43.97684" lon="3.51743">
        <ele>497</ele>
        <time>2012-03-03T19:42:36Z</time>
      </trkpt>
      <trkpt lat="43.97679" lon="3.51749">
        <ele>497</ele>
        <time>2012-03-03T19:42:41Z</time>
      </trkpt>
      <trkpt lat="43.97673" lon="3.51754">
        <ele>500</ele>
        <time>2012-03-03T19:42:46Z</time>
      </trkpt>
      <trkpt lat="43.97666" lon="3.51765">
        <ele>492</ele>
        <time>2012-03-03T19:42:51Z</time>
      </trkpt>
      <trkpt lat="43.97658" lon="3.51775">
        <ele>491</ele>
        <time>2012-03-03T19:42:56Z</time>
      </trkpt>
      <trkpt lat="43.97652" lon="3.51784">
        <ele>491</ele>
        <time>2012-03-03T19:43:01Z</time>
      </trkpt>
      <trkpt lat="43.97647" lon="3.51797">
        <ele>492</ele>
        <time>2012-03-03T19:43:06Z</time>
      </trkpt>
      <trkpt lat="43.97641" lon="3.51812">
        <ele>492</ele>
        <time>2012-03-03T19:43:11Z</time>
      </trkpt>
      <trkpt lat="43.97634" lon="3.51825">
        <ele>492</ele>
        <time>2012-03-03T19:43:16Z</time>
      </trkpt>
      <trkpt lat="43.97626" lon="3.51832">
        <ele>490</ele>
        <time>2012-03-03T19:43:21Z</time>
      </trkpt>
      <trkpt lat="43.9762" lon="3.51841">
        <ele>497</ele>
        <time>2012-03-03T19:43:26Z</time>
      </trkpt>
      <trkpt lat="43.97611" lon="3.51847">
        <ele>495</ele>
        <time>2012-03-03T19:43:31Z</time>
      </trkpt>
      <trkpt lat="43.97602" lon="3.51847">
        <ele>492</ele>
        <time>2012-03-03T19:43:36Z</time>
      </trkpt>
      <trkpt lat="43.97593" lon="3.51852">
        <ele>491</ele>
        <time>2012-03-03T19:43:41Z</time>
      </trkpt>
      <trkpt lat="43.97583" lon="3.51855">
        <ele>477</ele>
        <time>2012-03-03T19:43:46Z</time>
      </trkpt>
      <trkpt lat="43.97574" lon="3.51858">
        <ele>477</ele>
        <time>2012-03-03T19:43:51Z</time>
      </trkpt>
      <trkpt lat="43.97565" lon="3.51864">
        <ele>476</ele>
        <time>2012-03-03T19:43:56Z</time>
      </trkpt>
      <trkpt lat="43.97557" lon="3.51865">
        <ele>475</ele>
        <time>2012-03-03T19:44:01Z</time>
      </trkpt>
      <trkpt lat="43.97551" lon="3.5187">
        <ele>474</ele>
        <time>2012-03-03T19:44:06Z</time>
      </trkpt>
      <trkpt lat="43.97539" lon="3.51878">
        <ele>473</ele>
        <time>2012-03-03T19:44:11Z</time>
      </trkpt>
      <trkpt lat="43.97531" lon="3.51889">
        <ele>472</ele>
        <time>2012-03-03T19:44:16Z</time>
      </trkpt>
      <trkpt lat="43.97524" lon="3.51899">
        <ele>472</ele>
        <time>2012-03-03T19:44:21Z</time>
      </trkpt>
      <trkpt lat="43.97515" lon="3.5191">
        <ele>470</ele>
        <time>2012-03-03T19:44:26Z</time>
      </trkpt>
      <trkpt lat="43.9751" lon="3.51916">
        <ele>469</ele>
        <time>2012-03-03T19:44:31Z</time>
      </trkpt>
      <trkpt lat="43.97502" lon="3.51924">
        <ele>470</ele>
        <time>2012-03-03T19:44:36Z</time>
      </trkpt>
      <trkpt lat="43.97493" lon="3.51929">
        <ele>466</ele>
        <time>2012-03-03T19:44:41Z</time>
      </trkpt>
      <trkpt lat="43.97487" lon="3.51935">
        <ele>466</ele>
        <time>2012-03-03T19:44:46Z</time>
      </trkpt>
      <trkpt lat="43.97478" lon="3.51939">
        <ele>465</ele>
        <time>2012-03-03T19:44:51Z</time>
      </trkpt>
      <trkpt lat="43.97465" lon="3.51938">
        <ele>465</ele>
        <time>2012-03-03T19:44:56Z</time>
      </trkpt>
      <trkpt lat="43.97457" lon="3.51934">
        <ele>464</ele>
        <time>2012-03-03T19:45:01Z</time>
      </trkpt>
      <trkpt lat="43.97448" lon="3.51934">
        <ele>464</ele>
        <time>2012-03-03T19:45:06Z</time>
      </trkpt>
      <trkpt lat="43.9744" lon="3.51935">
        <ele>463</ele>
        <time>2012-03-03T19:45:11Z</time>
      </trkpt>
      <trkpt lat="43.97434" lon="3.51943">
        <ele>463</ele>
        <time>2012-03-03T19:45:16Z</time>
      </trkpt>
      <trkpt lat="43.97432" lon="3.51951">
        <ele>463</ele>
        <time>2012-03-03T19:45:21Z</time>
      </trkpt>
      <trkpt lat="43.9743" lon="3.5196">
        <ele>463</ele>
        <time>2012-03-03T19:45:26Z</time>
      </trkpt>
      <trkpt lat="43.97427" lon="3.51972">
        <ele>463</ele>
        <time>2012-03-03T19:45:31Z</time>
      </trkpt>
      <trkpt lat="43.97425" lon="3.51984">
        <ele>462</ele>
        <time>2012-03-03T19:45:36Z</time>
      </trkpt>
      <trkpt lat="43.97424" lon="3.51996">
        <ele>461</ele>
        <time>2012-03-03T19:45:41Z</time>
      </trkpt>
      <trkpt lat="43.97421" lon="3.5201">
        <ele>459</ele>
        <time>2012-03-03T19:45:46Z</time>
      </trkpt>
      <trkpt lat="43.97416" lon="3.52022">
        <ele>456</ele>
        <time>2012-03-03T19:45:51Z</time>
      </trkpt>
      <trkpt lat="43.97411" lon="3.52035">
        <ele>455</ele>
        <time>2012-03-03T19:45:56Z</time>
      </trkpt>
      <trkpt lat="43.97411" lon="3.52048">
        <ele>454</ele>
        <time>2012-03-03T19:46:01Z</time>
      </trkpt>
      <trkpt lat="43.97411" lon="3.52059">
        <ele>452</ele>
        <time>2012-03-03T19:46:06Z</time>
      </trkpt>
      <trkpt lat="43.97407" lon="3.52071">
        <ele>451</ele>
        <time>2012-03-03T19:46:11Z</time>
      </trkpt>
      <trkpt lat="43.97407" lon="3.52082">
        <ele>449</ele>
        <time>2012-03-03T19:46:16Z</time>
      </trkpt>
      <trkpt lat="43.97413" lon="3.52086">
        <ele>446</ele>
        <time>2012-03-03T19:46:21Z</time>
      </trkpt>
      <trkpt lat="43.9742" lon="3.52084">
        <ele>447</ele>
        <time>2012-03-03T19:46:26Z</time>
      </trkpt>
      <trkpt lat="43.97427" lon="3.52083">
        <ele>451</ele>
        <time>2012-03-03T19:46:31Z</time>
      </trkpt>
      <trkpt lat="43.97432" lon="3.52083">
        <ele>453</ele>
        <time>2012-03-03T19:46:36Z</time>
      </trkpt>
      <trkpt lat="43.97436" lon="3.52087">
        <ele>448</ele>
        <time>2012-03-03T19:46:41Z</time>
      </trkpt>
      <trkpt lat="43.97441" lon="3.52094">
        <ele>448</ele>
        <time>2012-03-03T19:46:46Z</time>
      </trkpt>
      <trkpt lat="43.97445" lon="3.521">
        <ele>448</ele>
        <time>2012-03-03T19:46:51Z</time>
      </trkpt>
      <trkpt lat="43.97449" lon="3.52107">
        <ele>448</ele>
        <time>2012-03-03T19:46:56Z</time>
      </trkpt>
      <trkpt lat="43.97453" lon="3.52112">
        <ele>447</ele>
        <time>2012-03-03T19:47:01Z</time>
      </trkpt>
      <trkpt lat="43.97455" lon="3.52117">
        <ele>447</ele>
        <time>2012-03-03T19:47:06Z</time>
      </trkpt>
      <trkpt lat="43.97459" lon="3.52121">
        <ele>447</ele>
        <time>2012-03-03T19:47:11Z</time>
      </trkpt>
      <trkpt lat="43.97465" lon="3.52121">
        <ele>448</ele>
        <time>2012-03-03T19:47:16Z</time>
      </trkpt>
      <trkpt lat="43.97471" lon="3.52119">
        <ele>448</ele>
        <time>2012-03-03T19:47:21Z</time>
      </trkpt>
      <trkpt lat="43.97475" lon="3.52119">
        <ele>449</ele>
        <time>2012-03-03T19:47:26Z</time>
      </trkpt>
      <trkpt lat="43.9748" lon="3.52115">
        <ele>450</ele>
        <time>2012-03-03T19:47:31Z</time>
      </trkpt>
      <trkpt lat="43.97486" lon="3.52113">
        <ele>450</ele>
        <time>2012-03-03T19:47:36Z</time>
      </trkpt>
      <trkpt lat="43.97491" lon="3.52111">
        <ele>451</ele>
        <time>2012-03-03T19:47:41Z</time>
      </trkpt>
      <trkpt lat="43.97496" lon="3.52108">
        <ele>452</ele>
        <time>2012-03-03T19:47:46Z</time>
      </trkpt>
      <trkpt lat="43.97503" lon="3.52109">
        <ele>460</ele>
        <time>2012-03-03T19:47:51Z</time>
      </trkpt>
      <trkpt lat="43.9751" lon="3.5211">
        <ele>460</ele>
        <time>2012-03-03T19:47:56Z</time>
      </trkpt>
      <trkpt lat="43.97514" lon="3.52109">
        <ele>460</ele>
        <time>2012-03-03T19:48:01Z</time>
      </trkpt>
      <trkpt lat="43.97521" lon="3.52111">
        <ele>460</ele>
        <time>2012-03-03T19:48:06Z</time>
      </trkpt>
      <trkpt lat="43.97525" lon="3.52111">
        <ele>460</ele>
        <time>2012-03-03T19:48:11Z</time>
      </trkpt>
      <trkpt lat="43.97531" lon="3.52112">
        <ele>461</ele>
        <time>2012-03-03T19:48:16Z</time>
      </trkpt>
      <trkpt lat="43.97538" lon="3.52115">
        <ele>461</ele>
        <time>2012-03-03T19:48:21Z</time>
      </trkpt>
      <trkpt lat="43.97545" lon="3.52117">
        <ele>461</ele>
        <time>2012-03-03T19:48:26Z</time>
      </trkpt>
      <trkpt lat="43.97553" lon="3.52122">
        <ele>462</ele>
        <time>2012-03-03T19:48:31Z</time>
      </trkpt>
      <trkpt lat="43.9756" lon="3.52126">
        <ele>462</ele>
        <time>2012-03-03T19:48:36Z</time>
      </trkpt>
      <trkpt lat="43.97566" lon="3.52128">
        <ele>462</ele>
        <time>2012-03-03T19:48:41Z</time>
      </trkpt>
      <trkpt lat="43.97573" lon="3.52132">
        <ele>462</ele>
        <time>2012-03-03T19:48:46Z</time>
      </trkpt>
      <trkpt lat="43.97578" lon="3.52135">
        <ele>462</ele>
        <time>2012-03-03T19:48:51Z</time>
      </trkpt>
      <trkpt lat="43.97582" lon="3.52139">
        <ele>461</ele>
        <time>2012-03-03T19:48:56Z</time>
      </trkpt>
      <trkpt lat="43.97587" lon="3.52147">
        <ele>468</ele>
        <time>2012-03-03T19:49:01Z</time>
      </trkpt>
      <trkpt lat="43.97594" lon="3.52157">
        <ele>467</ele>
        <time>2012-03-03T19:49:06Z</time>
      </trkpt>
      <trkpt lat="43.97599" lon="3.52166">
        <ele>467</ele>
        <time>2012-03-03T19:49:11Z</time>
      </trkpt>
      <trkpt lat="43.97605" lon="3.52175">
        <ele>459</ele>
        <time>2012-03-03T19:49:16Z</time>
      </trkpt>
      <trkpt lat="43.97615" lon="3.52179">
        <ele>459</ele>
        <time>2012-03-03T19:49:21Z</time>
      </trkpt>
      <trkpt lat="43.97623" lon="3.52186">
        <ele>460</ele>
        <time>2012-03-03T19:49:26Z</time>
      </trkpt>
      <trkpt lat="43.97622" lon="3.52203">
        <ele>458</ele>
        <time>2012-03-03T19:49:31Z</time>
      </trkpt>
      <trkpt lat="43.97616" lon="3.52217">
        <ele>456</ele>
        <time>2012-03-03T19:49:36Z</time>
      </trkpt>
      <trkpt lat="43.97607" lon="3.52224">
        <ele>454</ele>
        <time>2012-03-03T19:49:41Z</time>
      </trkpt>
      <trkpt lat="43.97601" lon="3.52224">
        <ele>453</ele>
        <time>2012-03-03T19:49:46Z</time>
      </trkpt>
      <trkpt lat="43.97594" lon="3.52228">
        <ele>451</ele>
        <time>2012-03-03T19:49:51Z</time>
      </trkpt>
      <trkpt lat="43.97589" lon="3.52238">
        <ele>447</ele>
        <time>2012-03-03T19:49:56Z</time>
      </trkpt>
      <trkpt lat="43.97587" lon="3.52246">
        <ele>443</ele>
        <time>2012-03-03T19:50:01Z</time>
      </trkpt>
      <trkpt lat="43.97581" lon="3.52252">
        <ele>438</ele>
        <time>2012-03-03T19:50:06Z</time>
      </trkpt>
      <trkpt lat="43.97575" lon="3.52257">
        <ele>434</ele>
        <time>2012-03-03T19:50:11Z</time>
      </trkpt>
      <trkpt lat="43.97577" lon="3.52267">
        <ele>431</ele>
        <time>2012-03-03T19:50:16Z</time>
      </trkpt>
      <trkpt lat="43.97572" lon="3.52277">
        <ele>428</ele>
        <time>2012-03-03T19:50:21Z</time>
      </trkpt>
      <trkpt lat="43.97563" lon="3.52274">
        <ele>428</ele>
        <time>2012-03-03T19:50:26Z</time>
      </trkpt>
      <trkpt lat="43.97556" lon="3.52271">
        <ele>427</ele>
        <time>2012-03-03T19:50:31Z</time>
      </trkpt>
      <trkpt lat="43.97552" lon="3.52278">
        <ele>425</ele>
        <time>2012-03-03T19:50:36Z</time>
      </trkpt>
      <trkpt lat="43.97552" lon="3.52287">
        <ele>424</ele>
        <time>2012-03-03T19:50:41Z</time>
      </trkpt>
      <trkpt lat="43.97553" lon="3.52298">
        <ele>424</ele>
        <time>2012-03-03T19:50:46Z</time>
      </trkpt>
      <trkpt lat="43.97555" lon="3.52306">
        <ele>423</ele>
        <time>2012-03-03T19:50:51Z</time>
      </trkpt>
      <trkpt lat="43.97561" lon="3.52314">
        <ele>423</ele>
        <time>2012-03-03T19:50:56Z</time>
      </trkpt>
      <trkpt lat="43.9756" lon="3.52322">
        <ele>423</ele>
        <time>2012-03-03T19:51:01Z</time>
      </trkpt>
      <trkpt lat="43.97554" lon="3.52336">
        <ele>415</ele>
        <time>2012-03-03T19:51:06Z</time>
      </trkpt>
      <trkpt lat="43.9755" lon="3.52349">
        <ele>414</ele>
        <time>2012-03-03T19:51:11Z</time>
      </trkpt>
      <trkpt lat="43.97543" lon="3.5236">
        <ele>412</ele>
        <time>2012-03-03T19:51:16Z</time>
      </trkpt>
      <trkpt lat="43.97534" lon="3.52363">
        <ele>411</ele>
        <time>2012-03-03T19:51:21Z</time>
      </trkpt>
      <trkpt lat="43.97527" lon="3.52368">
        <ele>410</ele>
        <time>2012-03-03T19:51:26Z</time>
      </trkpt>
      <trkpt lat="43.97525" lon="3.52378">
        <ele>409</ele>
        <time>2012-03-03T19:51:31Z</time>
      </trkpt>
      <trkpt lat="43.97517" lon="3.52389">
        <ele>408</ele>
        <time>2012-03-03T19:51:36Z</time>
      </trkpt>
      <trkpt lat="43.97509" lon="3.52398">
        <ele>406</ele>
        <time>2012-03-03T19:51:41Z</time>
      </trkpt>
      <trkpt lat="43.97504" lon="3.52407">
        <ele>403</ele>
        <time>2012-03-03T19:51:46Z</time>
      </trkpt>
      <trkpt lat="43.97499" lon="3.52416">
        <ele>399</ele>
        <time>2012-03-03T19:51:51Z</time>
      </trkpt>
      <trkpt lat="43.97494" lon="3.52426">
        <ele>396</ele>
        <time>2012-03-03T19:51:56Z</time>
      </trkpt>
      <trkpt lat="43.97492" lon="3.52437">
        <ele>393</ele>
        <time>2012-03-03T19:52:01Z</time>
      </trkpt>
      <trkpt lat="43.97491" lon="3.52452">
        <ele>392</ele>
        <time>2012-03-03T19:52:06Z</time>
      </trkpt>
      <trkpt lat="43.97486" lon="3.52467">
        <ele>390</ele>
        <time>2012-03-03T19:52:11Z</time>
      </trkpt>
      <trkpt lat="43.9748" lon="3.52476">
        <ele>389</ele>
        <time>2012-03-03T19:52:16Z</time>
      </trkpt>
      <trkpt lat="43.97478" lon="3.52484">
        <ele>389</ele>
        <time>2012-03-03T19:52:21Z</time>
      </trkpt>
      <trkpt lat="43.97474" lon="3.52492">
        <ele>389</ele>
        <time>2012-03-03T19:52:26Z</time>
      </trkpt>
      <trkpt lat="43.97468" lon="3.52504">
        <ele>381</ele>
        <time>2012-03-03T19:52:31Z</time>
      </trkpt>
      <trkpt lat="43.97462" lon="3.52512">
        <ele>381</ele>
        <time>2012-03-03T19:52:36Z</time>
      </trkpt>
      <trkpt lat="43.97455" lon="3.52519">
        <ele>380</ele>
        <time>2012-03-03T19:52:41Z</time>
      </trkpt>
      <trkpt lat="43.97448" lon="3.52525">
        <ele>379</ele>
        <time>2012-03-03T19:52:46Z</time>
      </trkpt>
      <trkpt lat="43.97441" lon="3.52533">
        <ele>379</ele>
        <time>2012-03-03T19:52:51Z</time>
      </trkpt>
      <trkpt lat="43.97432" lon="3.52539">
        <ele>378</ele>
        <time>2012-03-03T19:52:56Z</time>
      </trkpt>
      <trkpt lat="43.9743" lon="3.52547">
        <ele>377</ele>
        <time>2012-03-03T19:53:01Z</time>
      </trkpt>
      <trkpt lat="43.9743" lon="3.52558">
        <ele>376</ele>
        <time>2012-03-03T19:53:06Z</time>
      </trkpt>
      <trkpt lat="43.97432" lon="3.52567">
        <ele>376</ele>
        <time>2012-03-03T19:53:11Z</time>
      </trkpt>
      <trkpt lat="43.97432" lon="3.52576">
        <ele>375</ele>
        <time>2012-03-03T19:53:16Z</time>
      </trkpt>
      <trkpt lat="43.97433" lon="3.52586">
        <ele>370</ele>
        <time>2012-03-03T19:53:21Z</time>
      </trkpt>
      <trkpt lat="43.97438" lon="3.52597">
        <ele>369</ele>
        <time>2012-03-03T19:53:26Z</time>
      </trkpt>
      <trkpt lat="43.97437" lon="3.5261">
        <ele>368</ele>
        <time>2012-03-03T19:53:31Z</time>
      </trkpt>
      <trkpt lat="43.97431" lon="3.52622">
        <ele>368</ele>
        <time>2012-03-03T19:53:36Z</time>
      </trkpt>
      <trkpt lat="43.97424" lon="3.5263">
        <ele>367</ele>
        <time>2012-03-03T19:53:41Z</time>
      </trkpt>
      <trkpt lat="43.97416" lon="3.52634">
        <ele>363</ele>
        <time>2012-03-03T19:53:46Z</time>
      </trkpt>
      <trkpt lat="43.9741" lon="3.52641">
        <ele>362</ele>
        <time>2012-03-03T19:53:51Z</time>
      </trkpt>
      <trkpt lat="43.97406" lon="3.5265">
        <ele>362</ele>
        <time>2012-03-03T19:53:56Z</time>
      </trkpt>
      <trkpt lat="43.97401" lon="3.52659">
        <ele>361</ele>
        <time>2012-03-03T19:54:01Z</time>
      </trkpt>
      <trkpt lat="43.974" lon="3.52667">
        <ele>356</ele>
        <time>2012-03-03T19:54:06Z</time>
      </trkpt>
      <trkpt lat="43.97396" lon="3.52675">
        <ele>355</ele>
        <time>2012-03-03T19:54:11Z</time>
      </trkpt>
      <trkpt lat="43.97391" lon="3.52671">
        <ele>354</ele>
        <time>2012-03-03T19:54:16Z</time>
      </trkpt>
      <trkpt lat="43.97385" lon="3.52659">
        <ele>360</ele>
        <time>2012-03-03T19:54:21Z</time>
      </trkpt>
      <trkpt lat="43.97379" lon="3.52662">
        <ele>359</ele>
        <time>2012-03-03T19:54:26Z</time>
      </trkpt>
      <trkpt lat="43.97375" lon="3.52672">
        <ele>352</ele>
        <time>2012-03-03T19:54:31Z</time>
      </trkpt>
      <trkpt lat="43.97369" lon="3.5268">
        <ele>351</ele>
        <time>2012-03-03T19:54:36Z</time>
      </trkpt>
      <trkpt lat="43.97366" lon="3.5269">
        <ele>350</ele>
        <time>2012-03-03T19:54:41Z</time>
      </trkpt>
      <trkpt lat="43.97365" lon="3.52696">
        <ele>350</ele>
        <time>2012-03-03T19:54:46Z</time>
      </trkpt>
      <trkpt lat="43.97362" lon="3.527">
        <ele>349</ele>
        <time>2012-03-03T19:54:51Z</time>
      </trkpt>
      <trkpt lat="43.97357" lon="3.52704">
        <ele>349</ele>
        <time>2012-03-03T19:54:56Z</time>
      </trkpt>
      <trkpt lat="43.97354" lon="3.52709">
        <ele>348</ele>
        <time>2012-03-03T19:55:01Z</time>
      </trkpt>
      <trkpt lat="43.9735" lon="3.52716">
        <ele>347</ele>
        <time>2012-03-03T19:55:06Z</time>
      </trkpt>
      <trkpt lat="43.97346" lon="3.52724">
        <ele>346</ele>
        <time>2012-03-03T19:55:11Z</time>
      </trkpt>
      <trkpt lat="43.97343" lon="3.52736">
        <ele>344</ele>
        <time>2012-03-03T19:55:16Z</time>
      </trkpt>
      <trkpt lat="43.9734" lon="3.52751">
        <ele>339</ele>
        <time>2012-03-03T19:55:21Z</time>
      </trkpt>
      <trkpt lat="43.97331" lon="3.52763">
        <ele>334</ele>
        <time>2012-03-03T19:55:26Z</time>
      </trkpt>
      <trkpt lat="43.97328" lon="3.52773">
        <ele>331</ele>
        <time>2012-03-03T19:55:31Z</time>
      </trkpt>
      <trkpt lat="43.97324" lon="3.52782">
        <ele>330</ele>
        <time>2012-03-03T19:55:36Z</time>
      </trkpt>
      <trkpt lat="43.97318" lon="3.52789">
        <ele>328</ele>
        <time>2012-03-03T19:55:41Z</time>
      </trkpt>
      <trkpt lat="43.97311" lon="3.52795">
        <ele>327</ele>
        <time>2012-03-03T19:55:46Z</time>
      </trkpt>
      <trkpt lat="43.97304" lon="3.52801">
        <ele>326</ele>
        <time>2012-03-03T19:55:51Z</time>
      </trkpt>
      <trkpt lat="43.97299" lon="3.52805">
        <ele>326</ele>
        <time>2012-03-03T19:55:56Z</time>
      </trkpt>
      <trkpt lat="43.97294" lon="3.5281">
        <ele>325</ele>
        <time>2012-03-03T19:56:01Z</time>
      </trkpt>
      <trkpt lat="43.9729" lon="3.52816">
        <ele>324</ele>
        <time>2012-03-03T19:56:06Z</time>
      </trkpt>
      <trkpt lat="43.97283" lon="3.52822">
        <ele>323</ele>
        <time>2012-03-03T19:56:11Z</time>
      </trkpt>
      <trkpt lat="43.97278" lon="3.52828">
        <ele>321</ele>
        <time>2012-03-03T19:56:16Z</time>
      </trkpt>
      <trkpt lat="43.97272" lon="3.52834">
        <ele>314</ele>
        <time>2012-03-03T19:56:21Z</time>
      </trkpt>
      <trkpt lat="43.9727" lon="3.52842">
        <ele>313</ele>
        <time>2012-03-03T19:56:26Z</time>
      </trkpt>
      <trkpt lat="43.9727" lon="3.52851">
        <ele>313</ele>
        <time>2012-03-03T19:56:31Z</time>
      </trkpt>
      <trkpt lat="43.97269" lon="3.52859">
        <ele>313</ele>
        <time>2012-03-03T19:56:36Z</time>
      </trkpt>
      <trkpt lat="43.97267" lon="3.52869">
        <ele>312</ele>
        <time>2012-03-03T19:56:41Z</time>
      </trkpt>
      <trkpt lat="43.97263" lon="3.5288">
        <ele>311</ele>
        <time>2012-03-03T19:56:46Z</time>
      </trkpt>
      <trkpt lat="43.97256" lon="3.52884">
        <ele>311</ele>
        <time>2012-03-03T19:56:51Z</time>
      </trkpt>
      <trkpt lat="43.97247" lon="3.52887">
        <ele>307</ele>
        <time>2012-03-03T19:56:56Z</time>
      </trkpt>
      <trkpt lat="43.97236" lon="3.52887">
        <ele>307</ele>
        <time>2012-03-03T19:57:01Z</time>
      </trkpt>
      <trkpt lat="43.97228" lon="3.52886">
        <ele>307</ele>
        <time>2012-03-03T19:57:06Z</time>
      </trkpt>
      <trkpt lat="43.97225" lon="3.52878">
        <ele>307</ele>
        <time>2012-03-03T19:57:11Z</time>
      </trkpt>
      <trkpt lat="43.97218" lon="3.52874">
        <ele>308</ele>
        <time>2012-03-03T19:57:16Z</time>
      </trkpt>
      <trkpt lat="43.9721" lon="3.52871">
        <ele>308</ele>
        <time>2012-03-03T19:57:21Z</time>
      </trkpt>
      <trkpt lat="43.97201" lon="3.52873">
        <ele>308</ele>
        <time>2012-03-03T19:57:26Z</time>
      </trkpt>
      <trkpt lat="43.97193" lon="3.52869">
        <ele>308</ele>
        <time>2012-03-03T19:57:31Z</time>
      </trkpt>
      <trkpt lat="43.97187" lon="3.52863">
        <ele>308</ele>
        <time>2012-03-03T19:57:36Z</time>
      </trkpt>
      <trkpt lat="43.97185" lon="3.52856">
        <ele>308</ele>
        <time>2012-03-03T19:57:41Z</time>
      </trkpt>
      <trkpt lat="43.97185" lon="3.52846">
        <ele>309</ele>
        <time>2012-03-03T19:57:46Z</time>
      </trkpt>
      <trkpt lat="43.97185" lon="3.52839">
        <ele>309</ele>
        <time>2012-03-03T19:57:51Z</time>
      </trkpt>
      <trkpt lat="43.97183" lon="3.52835">
        <ele>309</ele>
        <time>2012-03-03T19:57:56Z</time>
      </trkpt>
      <trkpt lat="43.97181" lon="3.52829">
        <ele>314</ele>
        <time>2012-03-03T19:58:01Z</time>
      </trkpt>
      <trkpt lat="43.97182" lon="3.52821">
        <ele>315</ele>
        <time>2012-03-03T19:58:06Z</time>
      </trkpt>
      <trkpt lat="43.97183" lon="3.52815">
        <ele>316</ele>
        <time>2012-03-03T19:58:11Z</time>
      </trkpt>
      <trkpt lat="43.97182" lon="3.5281">
        <ele>317</ele>
        <time>2012-03-03T19:58:16Z</time>
      </trkpt>
      <trkpt lat="43.97183" lon="3.52805">
        <ele>317</ele>
        <time>2012-03-03T19:58:21Z</time>
      </trkpt>
      <trkpt lat="43.97183" lon="3.528">
        <ele>318</ele>
        <time>2012-03-03T19:58:26Z</time>
      </trkpt>
      <trkpt lat="43.97181" lon="3.52794">
        <ele>319</ele>
        <time>2012-03-03T19:58:31Z</time>
      </trkpt>
      <trkpt lat="43.9718" lon="3.5279">
        <ele>319</ele>
        <time>2012-03-03T19:58:36Z</time>
      </trkpt>
      <trkpt lat="43.97175" lon="3.52787">
        <ele>320</ele>
        <time>2012-03-03T19:58:41Z</time>
      </trkpt>
      <trkpt lat="43.97169" lon="3.52787">
        <ele>320</ele>
        <time>2012-03-03T19:58:46Z</time>
      </trkpt>
      <trkpt lat="43.97164" lon="3.52786">
        <ele>319</ele>
        <time>2012-03-03T19:58:51Z</time>
      </trkpt>
      <trkpt lat="43.97157" lon="3.52784">
        <ele>319</ele>
        <time>2012-03-03T19:58:56Z</time>
      </trkpt>
      <trkpt lat="43.97149" lon="3.52782">
        <ele>319</ele>
        <time>2012-03-03T19:59:01Z</time>
      </trkpt>
      <trkpt lat="43.97143" lon="3.52782">
        <ele>319</ele>
        <time>2012-03-03T19:59:06Z</time>
      </trkpt>
      <trkpt lat="43.97134" lon="3.52777">
        <ele>319</ele>
        <time>2012-03-03T19:59:11Z</time>
      </trkpt>
      <trkpt lat="43.97125" lon="3.52779">
        <ele>318</ele>
        <time>2012-03-03T19:59:16Z</time>
      </trkpt>
      <trkpt lat="43.97116" lon="3.5278">
        <ele>318</ele>
        <time>2012-03-03T19:59:21Z</time>
      </trkpt>
      <trkpt lat="43.9711" lon="3.52784">
        <ele>318</ele>
        <time>2012-03-03T19:59:26Z</time>
      </trkpt>
      <trkpt lat="43.97103" lon="3.52788">
        <ele>317</ele>
        <time>2012-03-03T19:59:31Z</time>
      </trkpt>
      <trkpt lat="43.97095" lon="3.5279">
        <ele>317</ele>
        <time>2012-03-03T19:59:36Z</time>
      </trkpt>
      <trkpt lat="43.97085" lon="3.5279">
        <ele>316</ele>
        <time>2012-03-03T19:59:41Z</time>
      </trkpt>
      <trkpt lat="43.97076" lon="3.52795">
        <ele>311</ele>
        <time>2012-03-03T19:59:46Z</time>
      </trkpt>
      <trkpt lat="43.97064" lon="3.52794">
        <ele>311</ele>
        <time>2012-03-03T19:59:51Z</time>
      </trkpt>
      <trkpt lat="43.97054" lon="3.52793">
        <ele>310</ele>
        <time>2012-03-03T19:59:56Z</time>
      </trkpt>
      <trkpt lat="43.97044" lon="3.5279">
        <ele>310</ele>
        <time>2012-03-03T20:00:01Z</time>
      </trkpt>
      <trkpt lat="43.97035" lon="3.52785">
        <ele>310</ele>
        <time>2012-03-03T20:00:06Z</time>
      </trkpt>
      <trkpt lat="43.9703" lon="3.5278">
        <ele>310</ele>
        <time>2012-03-03T20:00:11Z</time>
      </trkpt>
      <trkpt lat="43.97032" lon="3.52773">
        <ele>310</ele>
        <time>2012-03-03T20:00:16Z</time>
      </trkpt>
      <trkpt lat="43.97028" lon="3.52772">
        <ele>310</ele>
        <time>2012-03-03T20:00:21Z</time>
      </trkpt>
      <trkpt lat="43.97026" lon="3.52769">
        <ele>310</ele>
        <time>2012-03-03T20:00:26Z</time>
      </trkpt>
      <trkpt lat="43.97022" lon="3.52767">
        <ele>310</ele>
        <time>2012-03-03T20:00:31Z</time>
      </trkpt>
      <trkpt lat="43.9702" lon="3.52764">
        <ele>310</ele>
        <time>2012-03-03T20:00:36Z</time>
      </trkpt>
      <trkpt lat="43.97021" lon="3.5276">
        <ele>310</ele>
        <time>2012-03-03T20:00:41Z</time>
      </trkpt>
      <trkpt lat="43.9702" lon="3.52759">
        <ele>310</ele>
        <time>2012-03-03T20:00:46Z</time>
      </trkpt>
      <trkpt lat="43.97021" lon="3.52756">
        <ele>310</ele>
        <time>2012-03-03T20:00:51Z</time>
      </trkpt>
      <trkpt lat="43.9702" lon="3.52756">
        <ele>310</ele>
        <time>2012-03-03T20:00:56Z</time>
      </trkpt>
      <trkpt lat="43.97018" lon="3.52759">
        <ele>309</ele>
        <time>2012-03-03T20:01:01Z</time>
      </trkpt>
      <trkpt lat="43.97019" lon="3.52759">
        <ele>310</ele>
        <time>2012-03-03T20:01:06Z</time>
      </trkpt>
      <trkpt lat="43.97019" lon="3.52759">
        <ele>310</ele>
        <time>2012-03-03T20:01:11Z</time>
      </trkpt>
      <trkpt lat="43.97019" lon="3.52759">
        <ele>310</ele>
        <time>2012-03-03T20:01:16Z</time>
      </trkpt>
      <trkpt lat="43.97019" lon="3.52761">
        <ele>310</ele>
        <time>2012-03-03T20:01:21Z</time>
      </trkpt>
      <trkpt lat="43.97018" lon="3.5276">
        <ele>309</ele>
        <time>2012-03-03T20:01:26Z</time>
      </trkpt>
      <trkpt lat="43.97019" lon="3.52757">
        <ele>310</ele>
        <time>2012-03-03T20:01:31Z</time>
      </trkpt>
      <trkpt lat="43.97019" lon="3.52753">
        <ele>310</ele>
        <time>2012-03-03T20:01:36Z</time>
      </trkpt>
      <trkpt lat="43.97019" lon="3.52755">
        <ele>310</ele>
        <time>2012-03-03T20:01:41Z</time>
      </trkpt>
      <trkpt lat="43.97023" lon="3.52755">
        <ele>310</ele>
        <time>2012-03-03T20:01:46Z</time>
      </trkpt>
      <trkpt lat="43.97025" lon="3.52758">
        <ele>310</ele>
        <time>2012-03-03T20:01:51Z</time>
      </trkpt>
      <trkpt lat="43.97023" lon="3.52759">
        <ele>310</ele>
        <time>2012-03-03T20:01:56Z</time>
      </trkpt>
      <trkpt lat="43.97023" lon="3.52758">
        <ele>310</ele>
        <time>2012-03-03T20:02:01Z</time>
      </trkpt>
      <trkpt lat="43.97021" lon="3.52761">
        <ele>310</ele>
        <time>2012-03-03T20:02:06Z</time>
      </trkpt>
      <trkpt lat="43.97019" lon="3.5276">
        <ele>309</ele>
        <time>2012-03-03T20:02:11Z</time>
      </trkpt>
      <trkpt lat="43.9702" lon="3.52761">
        <ele>310</ele>
        <time>2012-03-03T20:02:16Z</time>
      </trkpt>
      <trkpt lat="43.9702" lon="3.52761">
        <ele>310</ele>
        <time>2012-03-03T20:02:21Z</time>
      </trkpt>
      <trkpt lat="43.97019" lon="3.52761">
        <ele>309</ele>
        <time>2012-03-03T20:02:26Z</time>
      </trkpt>
      <trkpt lat="43.9702" lon="3.52761">
        <ele>310</ele>
        <time>2012-03-03T20:02:31Z</time>
      </trkpt>
      <trkpt lat="43.97018" lon="3.52762">
        <ele>309</ele>
        <time>2012-03-03T20:02:36Z</time>
      </trkpt>
      <trkpt lat="43.97017" lon="3.52762">
        <ele>309</ele>
        <time>2012-03-03T20:02:41Z</time>
      </trkpt>
      <trkpt lat="43.9702" lon="3.52761">
        <ele>310</ele>
        <time>2012-03-03T20:02:46Z</time>
      </trkpt>
      <trkpt lat="43.9702" lon="3.52768">
        <ele>309</ele>
        <time>2012-03-03T20:02:51Z</time>
      </trkpt>
      <trkpt lat="43.9702" lon="3.5277">
        <ele>309</ele>
        <time>2012-03-03T20:02:56Z</time>
      </trkpt>
      <trkpt lat="43.9702" lon="3.52771">
        <ele>309</ele>
        <time>2012-03-03T20:03:01Z</time>
      </trkpt>
      <trkpt lat="43.9702" lon="3.52768">
        <ele>309</ele>
        <time>2012-03-03T20:03:06Z</time>
      </trkpt>
      <trkpt lat="43.97021" lon="3.52765">
        <ele>310</ele>
        <time>2012-03-03T20:03:11Z</time>
      </trkpt>
      <trkpt lat="43.97021" lon="3.52764">
        <ele>310</ele>
        <time>2012-03-03T20:03:16Z</time>
      </trkpt>
      <trkpt lat="43.9702" lon="3.52762">
        <ele>310</ele>
        <time>2012-03-03T20:03:21Z</time>
      </trkpt>
      <trkpt lat="43.97019" lon="3.52761">
        <ele>310</ele>
        <time>2012-03-03T20:03:26Z</time>
      </trkpt>
      <trkpt lat="43.97019" lon="3.5276">
        <ele>309</ele>
        <time>2012-03-03T20:03:31Z</time>
      </trkpt>
      <trkpt lat="43.9702" lon="3.5276">
        <ele>310</ele>
        <time>2012-03-03T20:03:36Z</time>
      </trkpt>
      <trkpt lat="43.9702" lon="3.5276">
        <ele>310</ele>
        <time>2012-03-03T20:03:41Z</time>
      </trkpt>
      <trkpt lat="43.97022" lon="3.52759">
        <ele>310</ele>
        <time>2012-03-03T20:03:46Z</time>
      </trkpt>
      <trkpt lat="43.97021" lon="3.5276">
        <ele>310</ele>
        <time>2012-03-03T20:03:51Z</time>
      </trkpt>
      <trkpt lat="43.97019" lon="3.52763">
        <ele>309</ele>
        <time>2012-03-03T20:03:56Z</time>
      </trkpt>
      <trkpt lat="43.9702" lon="3.52764">
        <ele>309</ele>
        <time>2012-03-03T20:04:01Z</time>
      </trkpt>
      <trkpt lat="43.97018" lon="3.52763">
        <ele>309</ele>
        <time>2012-03-03T20:04:06Z</time>
      </trkpt>
      <trkpt lat="43.97017" lon="3.52762">
        <ele>309</ele>
        <time>2012-03-03T20:04:11Z</time>
      </trkpt>
      <trkpt lat="43.97018" lon="3.52762">
        <ele>309</ele>
        <time>2012-03-03T20:04:16Z</time>
      </trkpt>
      <trkpt lat="43.97018" lon="3.52763">
        <ele>309</ele>
        <time>2012-03-03T20:04:21Z</time>
      </trkpt>
      <trkpt lat="43.97019" lon="3.52763">
        <ele>309</ele>
        <time>2012-03-03T20:04:26Z</time>
      </trkpt>
      <trkpt lat="43.97019" lon="3.52761">
        <ele>309</ele>
        <time>2012-03-03T20:04:31Z</time>
      </trkpt>
      <trkpt lat="43.9702" lon="3.5276">
        <ele>310</ele>
        <time>2012-03-03T20:04:36Z</time>
      </trkpt>
      <trkpt lat="43.97019" lon="3.52762">
        <ele>309</ele>
        <time>2012-03-03T20:04:41Z</time>
      </trkpt>
      <trkpt lat="43.97019" lon="3.52762">
        <ele>309</ele>
        <time>2012-03-03T20:04:46Z</time>
      </trkpt>
      <trkpt lat="43.9702" lon="3.52763">
        <ele>310</ele>
        <time>2012-03-03T20:04:51Z</time>
      </trkpt>
      <trkpt lat="43.9702" lon="3.52763">
        <ele>310</ele>
        <time>2012-03-03T20:04:56Z</time>
      </trkpt>
      <trkpt lat="43.9702" lon="3.52763">
        <ele>310</ele>
        <time>2012-03-03T20:05:01Z</time>
      </trkpt>
      <trkpt lat="43.97019" lon="3.52761">
        <ele>309</ele>
        <time>2012-03-03T20:05:06Z</time>
      </trkpt>
      <trkpt lat="43.97018" lon="3.52758">
        <ele>309</ele>
        <time>2012-03-03T20:05:11Z</time>
      </trkpt>
      <trkpt lat="43.97017" lon="3.52759">
        <ele>309</ele>
        <time>2012-03-03T20:05:16Z</time>
      </trkpt>
      <trkpt lat="43.97016" lon="3.52759">
        <ele>309</ele>
        <time>2012-03-03T20:05:21Z</time>
      </trkpt>
      <trkpt lat="43.97019" lon="3.52759">
        <ele>309</ele>
        <time>2012-03-03T20:05:26Z</time>
      </trkpt>
      <trkpt lat="43.97018" lon="3.52761">
        <ele>309</ele>
        <time>2012-03-03T20:05:31Z</time>
      </trkpt>
      <trkpt lat="43.97019" lon="3.52763">
        <ele>309</ele>
        <time>2012-03-03T20:05:36Z</time>
      </trkpt>
      <trkpt lat="43.97019" lon="3.52763">
        <ele>309</ele>
        <time>2012-03-03T20:05:41Z</time>
      </trkpt>
      <trkpt lat="43.9702" lon="3.52763">
        <ele>310</ele>
        <time>2012-03-03T20:05:46Z</time>
      </trkpt>
      <trkpt lat="43.97019" lon="3.52763">
        <ele>309</ele>
        <time>2012-03-03T20:05:51Z</time>
      </trkpt>
      <trkpt lat="43.97019" lon="3.52764">
        <ele>309</ele>
        <time>2012-03-03T20:05:56Z</time>
      </trkpt>
      <trkpt lat="43.9702" lon="3.52764">
        <ele>310</ele>
        <time>2012-03-03T20:06:01Z</time>
      </trkpt>
      <trkpt lat="43.9702" lon="3.52764">
        <ele>309</ele>
        <time>2012-03-03T20:06:06Z</time>
      </trkpt>
      <trkpt lat="43.97016" lon="3.52761">
        <ele>309</ele>
        <time>2012-03-03T20:06:11Z</time>
      </trkpt>
      <trkpt lat="43.97013" lon="3.52759">
        <ele>309</ele>
        <time>2012-03-03T20:06:16Z</time>
      </trkpt>
      <trkpt lat="43.97009" lon="3.52756">
        <ele>309</ele>
        <time>2012-03-03T20:06:21Z</time>
      </trkpt>
      <trkpt lat="43.97005" lon="3.52754">
        <ele>308</ele>
        <time>2012-03-03T20:06:26Z</time>
      </trkpt>
      <trkpt lat="43.97005" lon="3.52756">
        <ele>309</ele>
        <time>2012-03-03T20:06:31Z</time>
      </trkpt>
      <trkpt lat="43.97007" lon="3.5276">
        <ele>309</ele>
        <time>2012-03-03T20:06:36Z</time>
      </trkpt>
      <trkpt lat="43.97011" lon="3.52763">
        <ele>309</ele>
        <time>2012-03-03T20:06:41Z</time>
      </trkpt>
      <trkpt lat="43.97015" lon="3.52768">
        <ele>309</ele>
        <time>2012-03-03T20:06:46Z</time>
      </trkpt>
      <trkpt lat="43.97021" lon="3.52774">
        <ele>309</ele>
        <time>2012-03-03T20:06:51Z</time>
      </trkpt>
      <trkpt lat="43.97024" lon="3.52782">
        <ele>309</ele>
        <time>2012-03-03T20:06:56Z</time>
      </trkpt>
      <trkpt lat="43.97026" lon="3.52789">
        <ele>309</ele>
        <time>2012-03-03T20:07:01Z</time>
      </trkpt>
      <trkpt lat="43.97026" lon="3.52798">
        <ele>308</ele>
        <time>2012-03-03T20:07:06Z</time>
      </trkpt>
      <trkpt lat="43.97028" lon="3.52806">
        <ele>308</ele>
        <time>2012-03-03T20:07:11Z</time>
      </trkpt>
      <trkpt lat="43.97029" lon="3.52813">
        <ele>308</ele>
        <time>2012-03-03T20:07:16Z</time>
      </trkpt>
      <trkpt lat="43.97033" lon="3.52817">
        <ele>308</ele>
        <time>2012-03-03T20:07:21Z</time>
      </trkpt>
      <trkpt lat="43.97038" lon="3.52822">
        <ele>308</ele>
        <time>2012-03-03T20:07:26Z</time>
      </trkpt>
      <trkpt lat="43.97042" lon="3.52827">
        <ele>308</ele>
        <time>2012-03-03T20:07:31Z</time>
      </trkpt>
      <trkpt lat="43.97046" lon="3.52832">
        <ele>308</ele>
        <time>2012-03-03T20:07:36Z</time>
      </trkpt>
      <trkpt lat="43.97051" lon="3.52838">
        <ele>303</ele>
        <time>2012-03-03T20:07:41Z</time>
      </trkpt>
      <trkpt lat="43.97057" lon="3.52844">
        <ele>303</ele>
        <time>2012-03-03T20:07:46Z</time>
      </trkpt>
      <trkpt lat="43.97064" lon="3.52851">
        <ele>303</ele>
        <time>2012-03-03T20:07:51Z</time>
      </trkpt>
      <trkpt lat="43.97073" lon="3.5286">
        <ele>303</ele>
        <time>2012-03-03T20:07:56Z</time>
      </trkpt>
      <trkpt lat="43.97082" lon="3.52866">
        <ele>303</ele>
        <time>2012-03-03T20:08:01Z</time>
      </trkpt>
      <trkpt lat="43.97091" lon="3.52872">
        <ele>305</ele>
        <time>2012-03-03T20:08:06Z</time>
      </trkpt>
      <trkpt lat="43.97101" lon="3.52877">
        <ele>305</ele>
        <time>2012-03-03T20:08:11Z</time>
      </trkpt>
      <trkpt lat="43.97109" lon="3.5288">
        <ele>305</ele>
        <time>2012-03-03T20:08:16Z</time>
      </trkpt>
      <trkpt lat="43.97116" lon="3.52883">
        <ele>305</ele>
        <time>2012-03-03T20:08:21Z</time>
      </trkpt>
      <trkpt lat="43.97126" lon="3.52884">
        <ele>305</ele>
        <time>2012-03-03T20:08:26Z</time>
      </trkpt>
      <trkpt lat="43.97135" lon="3.52892">
        <ele>305</ele>
        <time>2012-03-03T20:08:31Z</time>
      </trkpt>
      <trkpt lat="43.97145" lon="3.52895">
        <ele>305</ele>
        <time>2012-03-03T20:08:36Z</time>
      </trkpt>
      <trkpt lat="43.97153" lon="3.52898">
        <ele>305</ele>
        <time>2012-03-03T20:08:41Z</time>
      </trkpt>
      <trkpt lat="43.97159" lon="3.52901">
        <ele>305</ele>
        <time>2012-03-03T20:08:46Z</time>
      </trkpt>
      <trkpt lat="43.97168" lon="3.52903">
        <ele>305</ele>
        <time>2012-03-03T20:08:51Z</time>
      </trkpt>
      <trkpt lat="43.97177" lon="3.52906">
        <ele>305</ele>
        <time>2012-03-03T20:08:56Z</time>
      </trkpt>
      <trkpt lat="43.97187" lon="3.52911">
        <ele>306</ele>
        <time>2012-03-03T20:09:01Z</time>
      </trkpt>
      <trkpt lat="43.97194" lon="3.52913">
        <ele>306</ele>
        <time>2012-03-03T20:09:06Z</time>
      </trkpt>
      <trkpt lat="43.97197" lon="3.52917">
        <ele>307</ele>
        <time>2012-03-03T20:09:11Z</time>
      </trkpt>
      <trkpt lat="43.972" lon="3.52918">
        <ele>307</ele>
        <time>2012-03-03T20:09:16Z</time>
      </trkpt>
      <trkpt lat="43.97208" lon="3.52923">
        <ele>308</ele>
        <time>2012-03-03T20:09:21Z</time>
      </trkpt>
      <trkpt lat="43.97214" lon="3.5292">
        <ele>307</ele>
        <time>2012-03-03T20:09:26Z</time>
      </trkpt>
      <trkpt lat="43.97221" lon="3.52918">
        <ele>307</ele>
        <time>2012-03-03T20:09:31Z</time>
      </trkpt>
      <trkpt lat="43.9723" lon="3.52914">
        <ele>306</ele>
        <time>2012-03-03T20:09:36Z</time>
      </trkpt>
      <trkpt lat="43.97238" lon="3.52918">
        <ele>306</ele>
        <time>2012-03-03T20:09:41Z</time>
      </trkpt>
      <trkpt lat="43.97245" lon="3.52925">
        <ele>306</ele>
        <time>2012-03-03T20:09:46Z</time>
      </trkpt>
      <trkpt lat="43.97249" lon="3.52935">
        <ele>307</ele>
        <time>2012-03-03T20:09:51Z</time>
      </trkpt>
      <trkpt lat="43.97252" lon="3.52944">
        <ele>310</ele>
        <time>2012-03-03T20:09:56Z</time>
      </trkpt>
      <trkpt lat="43.97255" lon="3.52951">
        <ele>311</ele>
        <time>2012-03-03T20:10:01Z</time>
      </trkpt>
      <trkpt lat="43.97257" lon="3.52958">
        <ele>312</ele>
        <time>2012-03-03T20:10:06Z</time>
      </trkpt>
      <trkpt lat="43.97263" lon="3.52961">
        <ele>312</ele>
        <time>2012-03-03T20:10:11Z</time>
      </trkpt>
      <trkpt lat="43.97268" lon="3.52961">
        <ele>312</ele>
        <time>2012-03-03T20:10:16Z</time>
      </trkpt>
      <trkpt lat="43.9727" lon="3.52963">
        <ele>313</ele>
        <time>2012-03-03T20:10:21Z</time>
      </trkpt>
      <trkpt lat="43.97272" lon="3.52966">
        <ele>313</ele>
        <time>2012-03-03T20:10:26Z</time>
      </trkpt>
      <trkpt lat="43.97274" lon="3.52973">
        <ele>313</ele>
        <time>2012-03-03T20:10:31Z</time>
      </trkpt>
      <trkpt lat="43.97274" lon="3.52983">
        <ele>314</ele>
        <time>2012-03-03T20:10:36Z</time>
      </trkpt>
      <trkpt lat="43.97271" lon="3.5299">
        <ele>315</ele>
        <time>2012-03-03T20:10:41Z</time>
      </trkpt>
      <trkpt lat="43.97267" lon="3.5299">
        <ele>315</ele>
        <time>2012-03-03T20:10:46Z</time>
      </trkpt>
      <trkpt lat="43.97267" lon="3.52998">
        <ele>315</ele>
        <time>2012-03-03T20:10:51Z</time>
      </trkpt>
      <trkpt lat="43.97264" lon="3.52999">
        <ele>315</ele>
        <time>2012-03-03T20:10:56Z</time>
      </trkpt>
      <trkpt lat="43.97262" lon="3.52999">
        <ele>315</ele>
        <time>2012-03-03T20:11:01Z</time>
      </trkpt>
      <trkpt lat="43.97261" lon="3.53004">
        <ele>321</ele>
        <time>2012-03-03T20:11:06Z</time>
      </trkpt>
      <trkpt lat="43.9726" lon="3.5301">
        <ele>321</ele>
        <time>2012-03-03T20:11:11Z</time>
      </trkpt>
      <trkpt lat="43.97258" lon="3.53012">
        <ele>321</ele>
        <time>2012-03-03T20:11:16Z</time>
      </trkpt>
      <trkpt lat="43.97253" lon="3.53016">
        <ele>322</ele>
        <time>2012-03-03T20:11:21Z</time>
      </trkpt>
      <trkpt lat="43.97247" lon="3.53019">
        <ele>320</ele>
        <time>2012-03-03T20:11:26Z</time>
      </trkpt>
      <trkpt lat="43.97242" lon="3.53021">
        <ele>321</ele>
        <time>2012-03-03T20:11:31Z</time>
      </trkpt>
      <trkpt lat="43.97235" lon="3.53023">
        <ele>321</ele>
        <time>2012-03-03T20:11:36Z</time>
      </trkpt>
      <trkpt lat="43.97233" lon="3.5303">
        <ele>322</ele>
        <time>2012-03-03T20:11:41Z</time>
      </trkpt>
      <trkpt lat="43.97231" lon="3.53035">
        <ele>322</ele>
        <time>2012-03-03T20:11:46Z</time>
      </trkpt>
      <trkpt lat="43.97228" lon="3.5304">
        <ele>323</ele>
        <time>2012-03-03T20:11:51Z</time>
      </trkpt>
      <trkpt lat="43.97225" lon="3.53048">
        <ele>323</ele>
        <time>2012-03-03T20:11:56Z</time>
      </trkpt>
      <trkpt lat="43.97223" lon="3.53052">
        <ele>324</ele>
        <time>2012-03-03T20:12:01Z</time>
      </trkpt>
      <trkpt lat="43.97226" lon="3.53053">
        <ele>324</ele>
        <time>2012-03-03T20:12:06Z</time>
      </trkpt>
      <trkpt lat="43.97226" lon="3.5306">
        <ele>325</ele>
        <time>2012-03-03T20:12:11Z</time>
      </trkpt>
      <trkpt lat="43.97223" lon="3.53065">
        <ele>325</ele>
        <time>2012-03-03T20:12:16Z</time>
      </trkpt>
      <trkpt lat="43.9722" lon="3.53076">
        <ele>326</ele>
        <time>2012-03-03T20:12:21Z</time>
      </trkpt>
      <trkpt lat="43.97217" lon="3.53079">
        <ele>326</ele>
        <time>2012-03-03T20:12:26Z</time>
      </trkpt>
      <trkpt lat="43.97222" lon="3.53081">
        <ele>326</ele>
        <time>2012-03-03T20:12:31Z</time>
      </trkpt>
      <trkpt lat="43.97222" lon="3.53083">
        <ele>326</ele>
        <time>2012-03-03T20:12:36Z</time>
      </trkpt>
      <trkpt lat="43.97223" lon="3.53087">
        <ele>333</ele>
        <time>2012-03-03T20:12:41Z</time>
      </trkpt>
      <trkpt lat="43.97227" lon="3.5309">
        <ele>333</ele>
        <time>2012-03-03T20:12:46Z</time>
      </trkpt>
      <trkpt lat="43.97226" lon="3.53092">
        <ele>334</ele>
        <time>2012-03-03T20:12:51Z</time>
      </trkpt>
      <trkpt lat="43.97224" lon="3.53102">
        <ele>334</ele>
        <time>2012-03-03T20:12:56Z</time>
      </trkpt>
      <trkpt lat="43.97222" lon="3.53104">
        <ele>334</ele>
        <time>2012-03-03T20:13:01Z</time>
      </trkpt>
      <trkpt lat="43.97219" lon="3.53105">
        <ele>334</ele>
        <time>2012-03-03T20:13:06Z</time>
      </trkpt>
      <trkpt lat="43.97216" lon="3.53116">
        <ele>335</ele>
        <time>2012-03-03T20:13:11Z</time>
      </trkpt>
      <trkpt lat="43.9722" lon="3.53123">
        <ele>335</ele>
        <time>2012-03-03T20:13:16Z</time>
      </trkpt>
      <trkpt lat="43.97222" lon="3.53121">
        <ele>335</ele>
        <time>2012-03-03T20:13:21Z</time>
      </trkpt>
      <trkpt lat="43.97226" lon="3.53121">
        <ele>335</ele>
        <time>2012-03-03T20:13:26Z</time>
      </trkpt>
      <trkpt lat="43.97227" lon="3.53123">
        <ele>335</ele>
        <time>2012-03-03T20:13:31Z</time>
      </trkpt>
      <trkpt lat="43.9723" lon="3.53123">
        <ele>336</ele>
        <time>2012-03-03T20:13:36Z</time>
      </trkpt>
      <trkpt lat="43.97233" lon="3.53125">
        <ele>336</ele>
        <time>2012-03-03T20:13:41Z</time>
      </trkpt>
      <trkpt lat="43.97234" lon="3.53133">
        <ele>337</ele>
        <time>2012-03-03T20:13:46Z</time>
      </trkpt>
      <trkpt lat="43.97235" lon="3.53139">
        <ele>337</ele>
        <time>2012-03-03T20:13:51Z</time>
      </trkpt>
      <trkpt lat="43.97232" lon="3.53143">
        <ele>338</ele>
        <time>2012-03-03T20:13:56Z</time>
      </trkpt>
      <trkpt lat="43.97235" lon="3.53151">
        <ele>339</ele>
        <time>2012-03-03T20:14:01Z</time>
      </trkpt>
      <trkpt lat="43.97233" lon="3.53158">
        <ele>339</ele>
        <time>2012-03-03T20:14:06Z</time>
      </trkpt>
      <trkpt lat="43.97232" lon="3.53163">
        <ele>340</ele>
        <time>2012-03-03T20:14:11Z</time>
      </trkpt>
      <trkpt lat="43.97229" lon="3.53168">
        <ele>343</ele>
        <time>2012-03-03T20:14:16Z</time>
      </trkpt>
      <trkpt lat="43.97225" lon="3.53173">
        <ele>343</ele>
        <time>2012-03-03T20:14:21Z</time>
      </trkpt>
      <trkpt lat="43.97224" lon="3.53178">
        <ele>343</ele>
        <time>2012-03-03T20:14:26Z</time>
      </trkpt>
      <trkpt lat="43.97225" lon="3.53184">
        <ele>343</ele>
        <time>2012-03-03T20:14:31Z</time>
      </trkpt>
      <trkpt lat="43.97227" lon="3.5319">
        <ele>343</ele>
        <time>2012-03-03T20:14:36Z</time>
      </trkpt>
      <trkpt lat="43.97231" lon="3.53194">
        <ele>343</ele>
        <time>2012-03-03T20:14:41Z</time>
      </trkpt>
      <trkpt lat="43.97235" lon="3.53197">
        <ele>343</ele>
        <time>2012-03-03T20:14:46Z</time>
      </trkpt>
      <trkpt lat="43.97238" lon="3.532">
        <ele>344</ele>
        <time>2012-03-03T20:14:51Z</time>
      </trkpt>
      <trkpt lat="43.97243" lon="3.53202">
        <ele>344</ele>
        <time>2012-03-03T20:14:56Z</time>
      </trkpt>
      <trkpt lat="43.97245" lon="3.53209">
        <ele>344</ele>
        <time>2012-03-03T20:15:01Z</time>
      </trkpt>
      <trkpt lat="43.97247" lon="3.53214">
        <ele>345</ele>
        <time>2012-03-03T20:15:06Z</time>
      </trkpt>
      <trkpt lat="43.97251" lon="3.53217">
        <ele>350</ele>
        <time>2012-03-03T20:15:11Z</time>
      </trkpt>
      <trkpt lat="43.97254" lon="3.53221">
        <ele>350</ele>
        <time>2012-03-03T20:15:16Z</time>
      </trkpt>
      <trkpt lat="43.97256" lon="3.53224">
        <ele>350</ele>
        <time>2012-03-03T20:15:21Z</time>
      </trkpt>
      <trkpt lat="43.97259" lon="3.5323">
        <ele>351</ele>
        <time>2012-03-03T20:15:26Z</time>
      </trkpt>
      <trkpt lat="43.97263" lon="3.53237">
        <ele>351</ele>
        <time>2012-03-03T20:15:31Z</time>
      </trkpt>
      <trkpt lat="43.97266" lon="3.53243">
        <ele>351</ele>
        <time>2012-03-03T20:15:36Z</time>
      </trkpt>
      <trkpt lat="43.97269" lon="3.53248">
        <ele>351</ele>
        <time>2012-03-03T20:15:41Z</time>
      </trkpt>
      <trkpt lat="43.97271" lon="3.53252">
        <ele>356</ele>
        <time>2012-03-03T20:15:46Z</time>
      </trkpt>
      <trkpt lat="43.97274" lon="3.53258">
        <ele>356</ele>
        <time>2012-03-03T20:15:51Z</time>
      </trkpt>
      <trkpt lat="43.97277" lon="3.53263">
        <ele>357</ele>
        <time>2012-03-03T20:15:56Z</time>
      </trkpt>
      <trkpt lat="43.9728" lon="3.53269">
        <ele>358</ele>
        <time>2012-03-03T20:16:01Z</time>
      </trkpt>
      <trkpt lat="43.97284" lon="3.53274">
        <ele>358</ele>
        <time>2012-03-03T20:16:06Z</time>
      </trkpt>
      <trkpt lat="43.97287" lon="3.53279">
        <ele>359</ele>
        <time>2012-03-03T20:16:11Z</time>
      </trkpt>
      <trkpt lat="43.97291" lon="3.53283">
        <ele>359</ele>
        <time>2012-03-03T20:16:16Z</time>
      </trkpt>
      <trkpt lat="43.97294" lon="3.53289">
        <ele>360</ele>
        <time>2012-03-03T20:16:21Z</time>
      </trkpt>
      <trkpt lat="43.97297" lon="3.53293">
        <ele>360</ele>
        <time>2012-03-03T20:16:26Z</time>
      </trkpt>
      <trkpt lat="43.97299" lon="3.53297">
        <ele>361</ele>
        <time>2012-03-03T20:16:31Z</time>
      </trkpt>
      <trkpt lat="43.97303" lon="3.53302">
        <ele>361</ele>
        <time>2012-03-03T20:16:36Z</time>
      </trkpt>
      <trkpt lat="43.97306" lon="3.53305">
        <ele>362</ele>
        <time>2012-03-03T20:16:41Z</time>
      </trkpt>
      <trkpt lat="43.97309" lon="3.53308">
        <ele>362</ele>
        <time>2012-03-03T20:16:46Z</time>
      </trkpt>
      <trkpt lat="43.97313" lon="3.5331">
        <ele>363</ele>
        <time>2012-03-03T20:16:51Z</time>
      </trkpt>
      <trkpt lat="43.97316" lon="3.53313">
        <ele>363</ele>
        <time>2012-03-03T20:16:56Z</time>
      </trkpt>
      <trkpt lat="43.97318" lon="3.53316">
        <ele>364</ele>
        <time>2012-03-03T20:17:01Z</time>
      </trkpt>
      <trkpt lat="43.97318" lon="3.53319">
        <ele>364</ele>
        <time>2012-03-03T20:17:06Z</time>
      </trkpt>
      <trkpt lat="43.97321" lon="3.5332">
        <ele>365</ele>
        <time>2012-03-03T20:17:11Z</time>
      </trkpt>
      <trkpt lat="43.97325" lon="3.53321">
        <ele>366</ele>
        <time>2012-03-03T20:17:16Z</time>
      </trkpt>
      <trkpt lat="43.97328" lon="3.53324">
        <ele>367</ele>
        <time>2012-03-03T20:17:21Z</time>
      </trkpt>
      <trkpt lat="43.97327" lon="3.53329">
        <ele>368</ele>
        <time>2012-03-03T20:17:26Z</time>
      </trkpt>
      <trkpt lat="43.97331" lon="3.53328">
        <ele>369</ele>
        <time>2012-03-03T20:17:31Z</time>
      </trkpt>
      <trkpt lat="43.97333" lon="3.53333">
        <ele>371</ele>
        <time>2012-03-03T20:17:36Z</time>
      </trkpt>
      <trkpt lat="43.97331" lon="3.53338">
        <ele>371</ele>
        <time>2012-03-03T20:17:41Z</time>
      </trkpt>
      <trkpt lat="43.97331" lon="3.53343">
        <ele>371</ele>
        <time>2012-03-03T20:17:46Z</time>
      </trkpt>
      <trkpt lat="43.97334" lon="3.53348">
        <ele>376</ele>
        <time>2012-03-03T20:17:51Z</time>
      </trkpt>
      <trkpt lat="43.97335" lon="3.53351">
        <ele>377</ele>
        <time>2012-03-03T20:17:56Z</time>
      </trkpt>
      <trkpt lat="43.97337" lon="3.53355">
        <ele>378</ele>
        <time>2012-03-03T20:18:01Z</time>
      </trkpt>
      <trkpt lat="43.97339" lon="3.53359">
        <ele>379</ele>
        <time>2012-03-03T20:18:06Z</time>
      </trkpt>
      <trkpt lat="43.97342" lon="3.53363">
        <ele>380</ele>
        <time>2012-03-03T20:18:11Z</time>
      </trkpt>
      <trkpt lat="43.97343" lon="3.53368">
        <ele>381</ele>
        <time>2012-03-03T20:18:16Z</time>
      </trkpt>
      <trkpt lat="43.97345" lon="3.53373">
        <ele>382</ele>
        <time>2012-03-03T20:18:21Z</time>
      </trkpt>
      <trkpt lat="43.97347" lon="3.53375">
        <ele>382</ele>
        <time>2012-03-03T20:18:26Z</time>
      </trkpt>
      <trkpt lat="43.97355" lon="3.53373">
        <ele>382</ele>
        <time>2012-03-03T20:18:31Z</time>
      </trkpt>
      <trkpt lat="43.97361" lon="3.53371">
        <ele>382</ele>
        <time>2012-03-03T20:18:36Z</time>
      </trkpt>
      <trkpt lat="43.97367" lon="3.53371">
        <ele>383</ele>
        <time>2012-03-03T20:18:41Z</time>
      </trkpt>
      <trkpt lat="43.97373" lon="3.53373">
        <ele>383</ele>
        <time>2012-03-03T20:18:46Z</time>
      </trkpt>
      <trkpt lat="43.97376" lon="3.53377">
        <ele>384</ele>
        <time>2012-03-03T20:18:51Z</time>
      </trkpt>
      <trkpt lat="43.97377" lon="3.53383">
        <ele>384</ele>
        <time>2012-03-03T20:18:56Z</time>
      </trkpt>
      <trkpt lat="43.97379" lon="3.53389">
        <ele>385</ele>
        <time>2012-03-03T20:19:01Z</time>
      </trkpt>
      <trkpt lat="43.97382" lon="3.53393">
        <ele>386</ele>
        <time>2012-03-03T20:19:06Z</time>
      </trkpt>
      <trkpt lat="43.97386" lon="3.53397">
        <ele>387</ele>
        <time>2012-03-03T20:19:11Z</time>
      </trkpt>
      <trkpt lat="43.9739" lon="3.534">
        <ele>387</ele>
        <time>2012-03-03T20:19:16Z</time>
      </trkpt>
      <trkpt lat="43.97393" lon="3.53402">
        <ele>388</ele>
        <time>2012-03-03T20:19:21Z</time>
      </trkpt>
      <trkpt lat="43.97396" lon="3.53407">
        <ele>389</ele>
        <time>2012-03-03T20:19:26Z</time>
      </trkpt>
      <trkpt lat="43.97399" lon="3.53412">
        <ele>390</ele>
        <time>2012-03-03T20:19:31Z</time>
      </trkpt>
      <trkpt lat="43.97402" lon="3.53417">
        <ele>400</ele>
        <time>2012-03-03T20:19:36Z</time>
      </trkpt>
      <trkpt lat="43.97403" lon="3.5342">
        <ele>400</ele>
        <time>2012-03-03T20:19:41Z</time>
      </trkpt>
      <trkpt lat="43.97407" lon="3.53422">
        <ele>399</ele>
        <time>2012-03-03T20:19:46Z</time>
      </trkpt>
      <trkpt lat="43.97411" lon="3.53424">
        <ele>399</ele>
        <time>2012-03-03T20:19:51Z</time>
      </trkpt>
      <trkpt lat="43.97415" lon="3.53427">
        <ele>400</ele>
        <time>2012-03-03T20:19:56Z</time>
      </trkpt>
      <trkpt lat="43.97418" lon="3.53429">
        <ele>403</ele>
        <time>2012-03-03T20:20:01Z</time>
      </trkpt>
      <trkpt lat="43.97422" lon="3.5343">
        <ele>403</ele>
        <time>2012-03-03T20:20:06Z</time>
      </trkpt>
      <trkpt lat="43.97427" lon="3.5343">
        <ele>404</ele>
        <time>2012-03-03T20:20:11Z</time>
      </trkpt>
      <trkpt lat="43.97433" lon="3.53432">
        <ele>405</ele>
        <time>2012-03-03T20:20:16Z</time>
      </trkpt>
      <trkpt lat="43.97437" lon="3.53434">
        <ele>406</ele>
        <time>2012-03-03T20:20:21Z</time>
      </trkpt>
      <trkpt lat="43.97441" lon="3.53437">
        <ele>406</ele>
        <time>2012-03-03T20:20:26Z</time>
      </trkpt>
      <trkpt lat="43.97445" lon="3.53441">
        <ele>407</ele>
        <time>2012-03-03T20:20:31Z</time>
      </trkpt>
      <trkpt lat="43.97448" lon="3.53443">
        <ele>407</ele>
        <time>2012-03-03T20:20:36Z</time>
      </trkpt>
      <trkpt lat="43.97451" lon="3.53445">
        <ele>408</ele>
        <time>2012-03-03T20:20:41Z</time>
      </trkpt>
      <trkpt lat="43.97454" lon="3.53448">
        <ele>408</ele>
        <time>2012-03-03T20:20:46Z</time>
      </trkpt>
      <trkpt lat="43.97457" lon="3.53452">
        <ele>409</ele>
        <time>2012-03-03T20:20:51Z</time>
      </trkpt>
      <trkpt lat="43.9746" lon="3.53457">
        <ele>409</ele>
        <time>2012-03-03T20:20:56Z</time>
      </trkpt>
      <trkpt lat="43.97462" lon="3.5346">
        <ele>410</ele>
        <time>2012-03-03T20:21:01Z</time>
      </trkpt>
      <trkpt lat="43.97466" lon="3.53462">
        <ele>410</ele>
        <time>2012-03-03T20:21:06Z</time>
      </trkpt>
      <trkpt lat="43.97469" lon="3.53466">
        <ele>411</ele>
        <time>2012-03-03T20:21:11Z</time>
      </trkpt>
      <trkpt lat="43.97472" lon="3.53469">
        <ele>411</ele>
        <time>2012-03-03T20:21:16Z</time>
      </trkpt>
      <trkpt lat="43.97473" lon="3.53474">
        <ele>412</ele>
        <time>2012-03-03T20:21:21Z</time>
      </trkpt>
      <trkpt lat="43.97475" lon="3.53476">
        <ele>412</ele>
        <time>2012-03-03T20:21:26Z</time>
      </trkpt>
      <trkpt lat="43.97477" lon="3.5348">
        <ele>413</ele>
        <time>2012-03-03T20:21:31Z</time>
      </trkpt>
      <trkpt lat="43.97477" lon="3.53482">
        <ele>413</ele>
        <time>2012-03-03T20:21:36Z</time>
      </trkpt>
      <trkpt lat="43.97476" lon="3.53483">
        <ele>413</ele>
        <time>2012-03-03T20:21:41Z</time>
      </trkpt>
      <trkpt lat="43.97475" lon="3.53482">
        <ele>413</ele>
        <time>2012-03-03T20:21:46Z</time>
      </trkpt>
      <trkpt lat="43.97475" lon="3.53483">
        <ele>413</ele>
        <time>2012-03-03T20:21:51Z</time>
      </trkpt>
      <trkpt lat="43.97475" lon="3.53483">
        <ele>413</ele>
        <time>2012-03-03T20:21:56Z</time>
      </trkpt>
      <trkpt lat="43.97476" lon="3.53479">
        <ele>412</ele>
        <time>2012-03-03T20:22:01Z</time>
      </trkpt>
      <trkpt lat="43.97474" lon="3.5348">
        <ele>412</ele>
        <time>2012-03-03T20:22:06Z</time>
      </trkpt>
      <trkpt lat="43.97474" lon="3.5348">
        <ele>412</ele>
        <time>2012-03-03T20:22:11Z</time>
      </trkpt>
      <trkpt lat="43.97474" lon="3.5348">
        <ele>412</ele>
        <time>2012-03-03T20:22:16Z</time>
      </trkpt>
      <trkpt lat="43.97474" lon="3.5348">
        <ele>412</ele>
        <time>2012-03-03T20:22:21Z</time>
      </trkpt>
      <trkpt lat="43.97474" lon="3.5348">
        <ele>412</ele>
        <time>2012-03-03T20:22:26Z</time>
      </trkpt>
      <trkpt lat="43.97474" lon="3.5348">
        <ele>412</ele>
        <time>2012-03-03T20:22:31Z</time>
      </trkpt>
      <trkpt lat="43.97473" lon="3.53484">
        <ele>413</ele>
        <time>2012-03-03T20:24:51Z</time>
      </trkpt>
      <trkpt lat="43.97473" lon="3.53483">
        <ele>413</ele>
        <time>2012-03-03T20:24:56Z</time>
      </trkpt>
      <trkpt lat="43.97474" lon="3.53484">
        <ele>413</ele>
        <time>2012-03-03T20:25:01Z</time>
      </trkpt>
      <trkpt lat="43.97475" lon="3.53487">
        <ele>413</ele>
        <time>2012-03-03T20:25:06Z</time>
      </trkpt>
      <trkpt lat="43.97475" lon="3.53487">
        <ele>413</ele>
        <time>2012-03-03T20:25:11Z</time>
      </trkpt>
      <trkpt lat="43.97476" lon="3.53488">
        <ele>414</ele>
        <time>2012-03-03T20:25:16Z</time>
      </trkpt>
      <trkpt lat="43.97477" lon="3.53492">
        <ele>414</ele>
        <time>2012-03-03T20:25:21Z</time>
      </trkpt>
      <trkpt lat="43.97479" lon="3.53497">
        <ele>415</ele>
        <time>2012-03-03T20:25:26Z</time>
      </trkpt>
      <trkpt lat="43.97479" lon="3.53502">
        <ele>425</ele>
        <time>2012-03-03T20:25:31Z</time>
      </trkpt>
      <trkpt lat="43.9748" lon="3.53508">
        <ele>426</ele>
        <time>2012-03-03T20:25:36Z</time>
      </trkpt>
      <trkpt lat="43.9748" lon="3.53512">
        <ele>426</ele>
        <time>2012-03-03T20:25:41Z</time>
      </trkpt>
      <trkpt lat="43.97483" lon="3.53515">
        <ele>426</ele>
        <time>2012-03-03T20:25:46Z</time>
      </trkpt>
      <trkpt lat="43.97487" lon="3.53518">
        <ele>426</ele>
        <time>2012-03-03T20:25:51Z</time>
      </trkpt>
      <trkpt lat="43.97489" lon="3.53519">
        <ele>426</ele>
        <time>2012-03-03T20:25:56Z</time>
      </trkpt>
      <trkpt lat="43.97493" lon="3.53522">
        <ele>427</ele>
        <time>2012-03-03T20:26:01Z</time>
      </trkpt>
      <trkpt lat="43.97496" lon="3.53525">
        <ele>427</ele>
        <time>2012-03-03T20:26:06Z</time>
      </trkpt>
      <trkpt lat="43.975" lon="3.53531">
        <ele>428</ele>
        <time>2012-03-03T20:26:11Z</time>
      </trkpt>
      <trkpt lat="43.97503" lon="3.53535">
        <ele>429</ele>
        <time>2012-03-03T20:26:16Z</time>
      </trkpt>
      <trkpt lat="43.97506" lon="3.53539">
        <ele>429</ele>
        <time>2012-03-03T20:26:21Z</time>
      </trkpt>
      <trkpt lat="43.97508" lon="3.53543">
        <ele>430</ele>
        <time>2012-03-03T20:26:26Z</time>
      </trkpt>
      <trkpt lat="43.9751" lon="3.53547">
        <ele>431</ele>
        <time>2012-03-03T20:26:31Z</time>
      </trkpt>
      <trkpt lat="43.97513" lon="3.53551">
        <ele>431</ele>
        <time>2012-03-03T20:26:36Z</time>
      </trkpt>
      <trkpt lat="43.97516" lon="3.53555">
        <ele>432</ele>
        <time>2012-03-03T20:26:41Z</time>
      </trkpt>
      <trkpt lat="43.97518" lon="3.53559">
        <ele>432</ele>
        <time>2012-03-03T20:26:46Z</time>
      </trkpt>
      <trkpt lat="43.97521" lon="3.53564">
        <ele>433</ele>
        <time>2012-03-03T20:26:51Z</time>
      </trkpt>
      <trkpt lat="43.97524" lon="3.5357">
        <ele>433</ele>
        <time>2012-03-03T20:26:56Z</time>
      </trkpt>
      <trkpt lat="43.97527" lon="3.53574">
        <ele>434</ele>
        <time>2012-03-03T20:27:01Z</time>
      </trkpt>
      <trkpt lat="43.97528" lon="3.5358">
        <ele>434</ele>
        <time>2012-03-03T20:27:06Z</time>
      </trkpt>
      <trkpt lat="43.97527" lon="3.53584">
        <ele>444</ele>
        <time>2012-03-03T20:27:11Z</time>
      </trkpt>
      <trkpt lat="43.97527" lon="3.53588">
        <ele>444</ele>
        <time>2012-03-03T20:27:16Z</time>
      </trkpt>
      <trkpt lat="43.97528" lon="3.53595">
        <ele>445</ele>
        <time>2012-03-03T20:27:21Z</time>
      </trkpt>
      <trkpt lat="43.97528" lon="3.53598">
        <ele>445</ele>
        <time>2012-03-03T20:27:26Z</time>
      </trkpt>
      <trkpt lat="43.97528" lon="3.53601">
        <ele>445</ele>
        <time>2012-03-03T20:27:31Z</time>
      </trkpt>
      <trkpt lat="43.97528" lon="3.53604">
        <ele>445</ele>
        <time>2012-03-03T20:27:36Z</time>
      </trkpt>
      <trkpt lat="43.97528" lon="3.5361">
        <ele>446</ele>
        <time>2012-03-03T20:27:41Z</time>
      </trkpt>
      <trkpt lat="43.97527" lon="3.53615">
        <ele>447</ele>
        <time>2012-03-03T20:27:46Z</time>
      </trkpt>
      <trkpt lat="43.97526" lon="3.53618">
        <ele>447</ele>
        <time>2012-03-03T20:27:51Z</time>
      </trkpt>
      <trkpt lat="43.97524" lon="3.53621">
        <ele>447</ele>
        <time>2012-03-03T20:27:56Z</time>
      </trkpt>
      <trkpt lat="43.97523" lon="3.53623">
        <ele>447</ele>
        <time>2012-03-03T20:28:01Z</time>
      </trkpt>
      <trkpt lat="43.97523" lon="3.53628">
        <ele>448</ele>
        <time>2012-03-03T20:28:06Z</time>
      </trkpt>
      <trkpt lat="43.97523" lon="3.53631">
        <ele>448</ele>
        <time>2012-03-03T20:28:11Z</time>
      </trkpt>
      <trkpt lat="43.97523" lon="3.53636">
        <ele>449</ele>
        <time>2012-03-03T20:28:16Z</time>
      </trkpt>
      <trkpt lat="43.97523" lon="3.53638">
        <ele>449</ele>
        <time>2012-03-03T20:28:21Z</time>
      </trkpt>
      <trkpt lat="43.97523" lon="3.53643">
        <ele>450</ele>
        <time>2012-03-03T20:28:26Z</time>
      </trkpt>
      <trkpt lat="43.97523" lon="3.53648">
        <ele>450</ele>
        <time>2012-03-03T20:28:31Z</time>
      </trkpt>
      <trkpt lat="43.97521" lon="3.53651">
        <ele>451</ele>
        <time>2012-03-03T20:28:36Z</time>
      </trkpt>
      <trkpt lat="43.97519" lon="3.53654">
        <ele>451</ele>
        <time>2012-03-03T20:28:41Z</time>
      </trkpt>
      <trkpt lat="43.97519" lon="3.53658">
        <ele>451</ele>
        <time>2012-03-03T20:28:46Z</time>
      </trkpt>
      <trkpt lat="43.97519" lon="3.53661">
        <ele>452</ele>
        <time>2012-03-03T20:28:51Z</time>
      </trkpt>
      <trkpt lat="43.97519" lon="3.53664">
        <ele>452</ele>
        <time>2012-03-03T20:28:56Z</time>
      </trkpt>
      <trkpt lat="43.97519" lon="3.53668">
        <ele>459</ele>
        <time>2012-03-03T20:29:01Z</time>
      </trkpt>
      <trkpt lat="43.97519" lon="3.53675">
        <ele>459</ele>
        <time>2012-03-03T20:29:06Z</time>
      </trkpt>
      <trkpt lat="43.9752" lon="3.53683">
        <ele>460</ele>
        <time>2012-03-03T20:29:11Z</time>
      </trkpt>
      <trkpt lat="43.9752" lon="3.53688">
        <ele>460</ele>
        <time>2012-03-03T20:29:16Z</time>
      </trkpt>
      <trkpt lat="43.9752" lon="3.53692">
        <ele>461</ele>
        <time>2012-03-03T20:29:21Z</time>
      </trkpt>
      <trkpt lat="43.9752" lon="3.53698">
        <ele>461</ele>
        <time>2012-03-03T20:29:26Z</time>
      </trkpt>
      <trkpt lat="43.97521" lon="3.53705">
        <ele>462</ele>
        <time>2012-03-03T20:29:31Z</time>
      </trkpt>
      <trkpt lat="43.97522" lon="3.5371">
        <ele>463</ele>
        <time>2012-03-03T20:29:36Z</time>
      </trkpt>
      <trkpt lat="43.97522" lon="3.53714">
        <ele>463</ele>
        <time>2012-03-03T20:29:41Z</time>
      </trkpt>
      <trkpt lat="43.97522" lon="3.53717">
        <ele>463</ele>
        <time>2012-03-03T20:29:46Z</time>
      </trkpt>
      <trkpt lat="43.97523" lon="3.53721">
        <ele>463</ele>
        <time>2012-03-03T20:29:51Z</time>
      </trkpt>
      <trkpt lat="43.97525" lon="3.53725">
        <ele>464</ele>
        <time>2012-03-03T20:29:56Z</time>
      </trkpt>
      <trkpt lat="43.97526" lon="3.5373">
        <ele>464</ele>
        <time>2012-03-03T20:30:01Z</time>
      </trkpt>
      <trkpt lat="43.97526" lon="3.53734">
        <ele>464</ele>
        <time>2012-03-03T20:30:06Z</time>
      </trkpt>
      <trkpt lat="43.97527" lon="3.53739">
        <ele>465</ele>
        <time>2012-03-03T20:30:11Z</time>
      </trkpt>
      <trkpt lat="43.97529" lon="3.53744">
        <ele>465</ele>
        <time>2012-03-03T20:30:16Z</time>
      </trkpt>
      <trkpt lat="43.9753" lon="3.53749">
        <ele>465</ele>
        <time>2012-03-03T20:30:21Z</time>
      </trkpt>
      <trkpt lat="43.9753" lon="3.53752">
        <ele>473</ele>
        <time>2012-03-03T20:30:26Z</time>
      </trkpt>
      <trkpt lat="43.97531" lon="3.53756">
        <ele>474</ele>
        <time>2012-03-03T20:30:31Z</time>
      </trkpt>
      <trkpt lat="43.97532" lon="3.53761">
        <ele>474</ele>
        <time>2012-03-03T20:30:36Z</time>
      </trkpt>
      <trkpt lat="43.97534" lon="3.53763">
        <ele>474</ele>
        <time>2012-03-03T20:30:41Z</time>
      </trkpt>
      <trkpt lat="43.97538" lon="3.53763">
        <ele>475</ele>
        <time>2012-03-03T20:30:46Z</time>
      </trkpt>
      <trkpt lat="43.97543" lon="3.53763">
        <ele>475</ele>
        <time>2012-03-03T20:30:51Z</time>
      </trkpt>
      <trkpt lat="43.9755" lon="3.53763">
        <ele>475</ele>
        <time>2012-03-03T20:30:56Z</time>
      </trkpt>
      <trkpt lat="43.97556" lon="3.53766">
        <ele>476</ele>
        <time>2012-03-03T20:31:01Z</time>
      </trkpt>
      <trkpt lat="43.9756" lon="3.53768">
        <ele>476</ele>
        <time>2012-03-03T20:31:06Z</time>
      </trkpt>
      <trkpt lat="43.97565" lon="3.5377">
        <ele>476</ele>
        <time>2012-03-03T20:31:11Z</time>
      </trkpt>
      <trkpt lat="43.97568" lon="3.53768">
        <ele>476</ele>
        <time>2012-03-03T20:31:16Z</time>
      </trkpt>
      <trkpt lat="43.97573" lon="3.53767">
        <ele>476</ele>
        <time>2012-03-03T20:31:21Z</time>
      </trkpt>
      <trkpt lat="43.97577" lon="3.53767">
        <ele>476</ele>
        <time>2012-03-03T20:31:26Z</time>
      </trkpt>
      <trkpt lat="43.97581" lon="3.53765">
        <ele>475</ele>
        <time>2012-03-03T20:31:31Z</time>
      </trkpt>
      <trkpt lat="43.97585" lon="3.53765">
        <ele>473</ele>
        <time>2012-03-03T20:31:36Z</time>
      </trkpt>
      <trkpt lat="43.97589" lon="3.53765">
        <ele>473</ele>
        <time>2012-03-03T20:31:41Z</time>
      </trkpt>
      <trkpt lat="43.97593" lon="3.53764">
        <ele>473</ele>
        <time>2012-03-03T20:31:46Z</time>
      </trkpt>
      <trkpt lat="43.97597" lon="3.53761">
        <ele>473</ele>
        <time>2012-03-03T20:31:51Z</time>
      </trkpt>
      <trkpt lat="43.97601" lon="3.5376">
        <ele>472</ele>
        <time>2012-03-03T20:31:56Z</time>
      </trkpt>
      <trkpt lat="43.97604" lon="3.53762">
        <ele>472</ele>
        <time>2012-03-03T20:32:01Z</time>
      </trkpt>
      <trkpt lat="43.97606" lon="3.53768">
        <ele>472</ele>
        <time>2012-03-03T20:32:06Z</time>
      </trkpt>
      <trkpt lat="43.97607" lon="3.53774">
        <ele>473</ele>
        <time>2012-03-03T20:32:11Z</time>
      </trkpt>
      <trkpt lat="43.97609" lon="3.53781">
        <ele>473</ele>
        <time>2012-03-03T20:32:16Z</time>
      </trkpt>
      <trkpt lat="43.9761" lon="3.53786">
        <ele>473</ele>
        <time>2012-03-03T20:32:21Z</time>
      </trkpt>
      <trkpt lat="43.97611" lon="3.5379">
        <ele>474</ele>
        <time>2012-03-03T20:32:26Z</time>
      </trkpt>
      <trkpt lat="43.97612" lon="3.53795">
        <ele>474</ele>
        <time>2012-03-03T20:32:31Z</time>
      </trkpt>
      <trkpt lat="43.97614" lon="3.538">
        <ele>475</ele>
        <time>2012-03-03T20:32:36Z</time>
      </trkpt>
      <trkpt lat="43.97609" lon="3.53805">
        <ele>476</ele>
        <time>2012-03-03T20:32:41Z</time>
      </trkpt>
      <trkpt lat="43.97609" lon="3.53809">
        <ele>477</ele>
        <time>2012-03-03T20:32:46Z</time>
      </trkpt>
      <trkpt lat="43.97611" lon="3.53813">
        <ele>477</ele>
        <time>2012-03-03T20:32:51Z</time>
      </trkpt>
      <trkpt lat="43.97612" lon="3.53819">
        <ele>477</ele>
        <time>2012-03-03T20:32:56Z</time>
      </trkpt>
      <trkpt lat="43.97613" lon="3.53826">
        <ele>478</ele>
        <time>2012-03-03T20:33:01Z</time>
      </trkpt>
      <trkpt lat="43.97614" lon="3.53833">
        <ele>478</ele>
        <time>2012-03-03T20:33:06Z</time>
      </trkpt>
      <trkpt lat="43.97615" lon="3.53837">
        <ele>490</ele>
        <time>2012-03-03T20:33:11Z</time>
      </trkpt>
      <trkpt lat="43.97616" lon="3.53843">
        <ele>490</ele>
        <time>2012-03-03T20:33:16Z</time>
      </trkpt>
      <trkpt lat="43.97617" lon="3.53849">
        <ele>490</ele>
        <time>2012-03-03T20:33:21Z</time>
      </trkpt>
      <trkpt lat="43.97618" lon="3.53856">
        <ele>490</ele>
        <time>2012-03-03T20:33:26Z</time>
      </trkpt>
      <trkpt lat="43.97619" lon="3.5386">
        <ele>491</ele>
        <time>2012-03-03T20:33:31Z</time>
      </trkpt>
      <trkpt lat="43.97619" lon="3.53866">
        <ele>491</ele>
        <time>2012-03-03T20:33:36Z</time>
      </trkpt>
      <trkpt lat="43.97619" lon="3.53872">
        <ele>492</ele>
        <time>2012-03-03T20:33:41Z</time>
      </trkpt>
      <trkpt lat="43.9762" lon="3.53876">
        <ele>493</ele>
        <time>2012-03-03T20:33:46Z</time>
      </trkpt>
      <trkpt lat="43.97622" lon="3.53881">
        <ele>493</ele>
        <time>2012-03-03T20:33:51Z</time>
      </trkpt>
      <trkpt lat="43.97623" lon="3.53884">
        <ele>493</ele>
        <time>2012-03-03T20:33:56Z</time>
      </trkpt>
      <trkpt lat="43.97624" lon="3.53889">
        <ele>494</ele>
        <time>2012-03-03T20:34:01Z</time>
      </trkpt>
      <trkpt lat="43.97625" lon="3.53894">
        <ele>494</ele>
        <time>2012-03-03T20:34:06Z</time>
      </trkpt>
      <trkpt lat="43.97627" lon="3.539">
        <ele>494</ele>
        <time>2012-03-03T20:34:11Z</time>
      </trkpt>
      <trkpt lat="43.97628" lon="3.53905">
        <ele>494</ele>
        <time>2012-03-03T20:34:16Z</time>
      </trkpt>
      <trkpt lat="43.97629" lon="3.53912">
        <ele>495</ele>
        <time>2012-03-03T20:34:21Z</time>
      </trkpt>
      <trkpt lat="43.97631" lon="3.53916">
        <ele>495</ele>
        <time>2012-03-03T20:34:26Z</time>
      </trkpt>
      <trkpt lat="43.97633" lon="3.53923">
        <ele>507</ele>
        <time>2012-03-03T20:34:31Z</time>
      </trkpt>
      <trkpt lat="43.97634" lon="3.5393">
        <ele>507</ele>
        <time>2012-03-03T20:34:36Z</time>
      </trkpt>
      <trkpt lat="43.97635" lon="3.53935">
        <ele>508</ele>
        <time>2012-03-03T20:34:41Z</time>
      </trkpt>
      <trkpt lat="43.97636" lon="3.53941">
        <ele>508</ele>
        <time>2012-03-03T20:34:46Z</time>
      </trkpt>
      <trkpt lat="43.97637" lon="3.53945">
        <ele>509</ele>
        <time>2012-03-03T20:34:51Z</time>
      </trkpt>
      <trkpt lat="43.97637" lon="3.53948">
        <ele>509</ele>
        <time>2012-03-03T20:34:56Z</time>
      </trkpt>
      <trkpt lat="43.97638" lon="3.53953">
        <ele>510</ele>
        <time>2012-03-03T20:35:01Z</time>
      </trkpt>
      <trkpt lat="43.97639" lon="3.5396">
        <ele>510</ele>
        <time>2012-03-03T20:35:06Z</time>
      </trkpt>
      <trkpt lat="43.97641" lon="3.53965">
        <ele>511</ele>
        <time>2012-03-03T20:35:11Z</time>
      </trkpt>
      <trkpt lat="43.97643" lon="3.53973">
        <ele>511</ele>
        <time>2012-03-03T20:35:16Z</time>
      </trkpt>
      <trkpt lat="43.97645" lon="3.53979">
        <ele>511</ele>
        <time>2012-03-03T20:35:21Z</time>
      </trkpt>
      <trkpt lat="43.97646" lon="3.53983">
        <ele>511</ele>
        <time>2012-03-03T20:35:26Z</time>
      </trkpt>
      <trkpt lat="43.97647" lon="3.53989">
        <ele>511</ele>
        <time>2012-03-03T20:35:31Z</time>
      </trkpt>
      <trkpt lat="43.97647" lon="3.53996">
        <ele>511</ele>
        <time>2012-03-03T20:35:36Z</time>
      </trkpt>
      <trkpt lat="43.97648" lon="3.54002">
        <ele>519</ele>
        <time>2012-03-03T20:35:41Z</time>
      </trkpt>
      <trkpt lat="43.97648" lon="3.54006">
        <ele>520</ele>
        <time>2012-03-03T20:35:46Z</time>
      </trkpt>
      <trkpt lat="43.97648" lon="3.54012">
        <ele>521</ele>
        <time>2012-03-03T20:35:51Z</time>
      </trkpt>
      <trkpt lat="43.9765" lon="3.54017">
        <ele>521</ele>
        <time>2012-03-03T20:35:56Z</time>
      </trkpt>
      <trkpt lat="43.97651" lon="3.54023">
        <ele>523</ele>
        <time>2012-03-03T20:36:01Z</time>
      </trkpt>
      <trkpt lat="43.97652" lon="3.54031">
        <ele>524</ele>
        <time>2012-03-03T20:36:06Z</time>
      </trkpt>
      <trkpt lat="43.97654" lon="3.54035">
        <ele>525</ele>
        <time>2012-03-03T20:36:11Z</time>
      </trkpt>
      <trkpt lat="43.97656" lon="3.54039">
        <ele>525</ele>
        <time>2012-03-03T20:36:16Z</time>
      </trkpt>
      <trkpt lat="43.97657" lon="3.54044">
        <ele>526</ele>
        <time>2012-03-03T20:36:21Z</time>
      </trkpt>
      <trkpt lat="43.97659" lon="3.54052">
        <ele>527</ele>
        <time>2012-03-03T20:36:26Z</time>
      </trkpt>
      <trkpt lat="43.97661" lon="3.54058">
        <ele>527</ele>
        <time>2012-03-03T20:36:31Z</time>
      </trkpt>
      <trkpt lat="43.97662" lon="3.54061">
        <ele>527</ele>
        <time>2012-03-03T20:36:36Z</time>
      </trkpt>
      <trkpt lat="43.97664" lon="3.54065">
        <ele>527</ele>
        <time>2012-03-03T20:36:41Z</time>
      </trkpt>
      <trkpt lat="43.97666" lon="3.54071">
        <ele>526</ele>
        <time>2012-03-03T20:36:46Z</time>
      </trkpt>
      <trkpt lat="43.97667" lon="3.54079">
        <ele>521</ele>
        <time>2012-03-03T20:36:51Z</time>
      </trkpt>
      <trkpt lat="43.97668" lon="3.54083">
        <ele>523</ele>
        <time>2012-03-03T20:36:56Z</time>
      </trkpt>
      <trkpt lat="43.97669" lon="3.54087">
        <ele>525</ele>
        <time>2012-03-03T20:37:01Z</time>
      </trkpt>
      <trkpt lat="43.97669" lon="3.54091">
        <ele>526</ele>
        <time>2012-03-03T20:37:06Z</time>
      </trkpt>
      <trkpt lat="43.97668" lon="3.54095">
        <ele>526</ele>
        <time>2012-03-03T20:37:11Z</time>
      </trkpt>
      <trkpt lat="43.97668" lon="3.54099">
        <ele>527</ele>
        <time>2012-03-03T20:37:16Z</time>
      </trkpt>
      <trkpt lat="43.97668" lon="3.54102">
        <ele>527</ele>
        <time>2012-03-03T20:37:21Z</time>
      </trkpt>
      <trkpt lat="43.97669" lon="3.54105">
        <ele>528</ele>
        <time>2012-03-03T20:37:26Z</time>
      </trkpt>
      <trkpt lat="43.97669" lon="3.54105">
        <ele>528</ele>
        <time>2012-03-03T20:37:31Z</time>
      </trkpt>
      <trkpt lat="43.97669" lon="3.54104">
        <ele>528</ele>
        <time>2012-03-03T20:37:36Z</time>
      </trkpt>
      <trkpt lat="43.9767" lon="3.54103">
        <ele>528</ele>
        <time>2012-03-03T20:37:41Z</time>
      </trkpt>
      <trkpt lat="43.9767" lon="3.54104">
        <ele>528</ele>
        <time>2012-03-03T20:37:46Z</time>
      </trkpt>
      <trkpt lat="43.97671" lon="3.54107">
        <ele>528</ele>
        <time>2012-03-03T20:37:51Z</time>
      </trkpt>
      <trkpt lat="43.97672" lon="3.54111">
        <ele>529</ele>
        <time>2012-03-03T20:37:56Z</time>
      </trkpt>
      <trkpt lat="43.97672" lon="3.54115">
        <ele>530</ele>
        <time>2012-03-03T20:38:01Z</time>
      </trkpt>
      <trkpt lat="43.97673" lon="3.54119">
        <ele>530</ele>
        <time>2012-03-03T20:38:06Z</time>
      </trkpt>
      <trkpt lat="43.97674" lon="3.54125">
        <ele>531</ele>
        <time>2012-03-03T20:38:11Z</time>
      </trkpt>
      <trkpt lat="43.97678" lon="3.54132">
        <ele>532</ele>
        <time>2012-03-03T20:38:16Z</time>
      </trkpt>
      <trkpt lat="43.97683" lon="3.5414">
        <ele>534</ele>
        <time>2012-03-03T20:38:21Z</time>
      </trkpt>
      <trkpt lat="43.97686" lon="3.54145">
        <ele>534</ele>
        <time>2012-03-03T20:38:26Z</time>
      </trkpt>
      <trkpt lat="43.9769" lon="3.54151">
        <ele>535</ele>
        <time>2012-03-03T20:38:31Z</time>
      </trkpt>
      <trkpt lat="43.97694" lon="3.54156">
        <ele>535</ele>
        <time>2012-03-03T20:38:36Z</time>
      </trkpt>
      <trkpt lat="43.97696" lon="3.54164">
        <ele>535</ele>
        <time>2012-03-03T20:38:41Z</time>
      </trkpt>
      <trkpt lat="43.97691" lon="3.54165">
        <ele>536</ele>
        <time>2012-03-03T20:38:46Z</time>
      </trkpt>
      <trkpt lat="43.97687" lon="3.54161">
        <ele>536</ele>
        <time>2012-03-03T20:38:51Z</time>
      </trkpt>
      <trkpt lat="43.97681" lon="3.54157">
        <ele>537</ele>
        <time>2012-03-03T20:38:56Z</time>
      </trkpt>
      <trkpt lat="43.97676" lon="3.54153">
        <ele>537</ele>
        <time>2012-03-03T20:39:01Z</time>
      </trkpt>
      <trkpt lat="43.9767" lon="3.54149">
        <ele>536</ele>
        <time>2012-03-03T20:39:06Z</time>
      </trkpt>
      <trkpt lat="43.97665" lon="3.54145">
        <ele>543</ele>
        <time>2012-03-03T20:39:11Z</time>
      </trkpt>
      <trkpt lat="43.9766" lon="3.54141">
        <ele>543</ele>
        <time>2012-03-03T20:39:16Z</time>
      </trkpt>
      <trkpt lat="43.97655" lon="3.54136">
        <ele>543</ele>
        <time>2012-03-03T20:39:21Z</time>
      </trkpt>
      <trkpt lat="43.97649" lon="3.5413">
        <ele>543</ele>
        <time>2012-03-03T20:39:26Z</time>
      </trkpt>
      <trkpt lat="43.97644" lon="3.54125">
        <ele>543</ele>
        <time>2012-03-03T20:39:31Z</time>
      </trkpt>
      <trkpt lat="43.9764" lon="3.5412">
        <ele>543</ele>
        <time>2012-03-03T20:39:36Z</time>
      </trkpt>
      <trkpt lat="43.97635" lon="3.54114">
        <ele>543</ele>
        <time>2012-03-03T20:39:41Z</time>
      </trkpt>
      <trkpt lat="43.9763" lon="3.54109">
        <ele>543</ele>
        <time>2012-03-03T20:39:46Z</time>
      </trkpt>
      <trkpt lat="43.97624" lon="3.54101">
        <ele>544</ele>
        <time>2012-03-03T20:39:51Z</time>
      </trkpt>
      <trkpt lat="43.97619" lon="3.54096">
        <ele>545</ele>
        <time>2012-03-03T20:39:56Z</time>
      </trkpt>
      <trkpt lat="43.97615" lon="3.54091">
        <ele>545</ele>
        <time>2012-03-03T20:40:01Z</time>
      </trkpt>
      <trkpt lat="43.97609" lon="3.54086">
        <ele>547</ele>
        <time>2012-03-03T20:40:06Z</time>
      </trkpt>
      <trkpt lat="43.97604" lon="3.5408">
        <ele>540</ele>
        <time>2012-03-03T20:40:11Z</time>
      </trkpt>
      <trkpt lat="43.97598" lon="3.54073">
        <ele>542</ele>
        <time>2012-03-03T20:40:16Z</time>
      </trkpt>
      <trkpt lat="43.97594" lon="3.54069">
        <ele>542</ele>
        <time>2012-03-03T20:40:21Z</time>
      </trkpt>
      <trkpt lat="43.97589" lon="3.54063">
        <ele>541</ele>
        <time>2012-03-03T20:40:26Z</time>
      </trkpt>
      <trkpt lat="43.97585" lon="3.54057">
        <ele>540</ele>
        <time>2012-03-03T20:40:31Z</time>
      </trkpt>
      <trkpt lat="43.97579" lon="3.54051">
        <ele>539</ele>
        <time>2012-03-03T20:40:36Z</time>
      </trkpt>
      <trkpt lat="43.97574" lon="3.54045">
        <ele>538</ele>
        <time>2012-03-03T20:40:41Z</time>
      </trkpt>
      <trkpt lat="43.9757" lon="3.54043">
        <ele>537</ele>
        <time>2012-03-03T20:40:46Z</time>
      </trkpt>
      <trkpt lat="43.97567" lon="3.54045">
        <ele>537</ele>
        <time>2012-03-03T20:40:51Z</time>
      </trkpt>
      <trkpt lat="43.97569" lon="3.54053">
        <ele>538</ele>
        <time>2012-03-03T20:40:56Z</time>
      </trkpt>
      <trkpt lat="43.97574" lon="3.54062">
        <ele>541</ele>
        <time>2012-03-03T20:41:01Z</time>
      </trkpt>
      <trkpt lat="43.97576" lon="3.54068">
        <ele>543</ele>
        <time>2012-03-03T20:41:06Z</time>
      </trkpt>
      <trkpt lat="43.9758" lon="3.54075">
        <ele>547</ele>
        <time>2012-03-03T20:41:11Z</time>
      </trkpt>
      <trkpt lat="43.97584" lon="3.54082">
        <ele>552</ele>
        <time>2012-03-03T20:41:16Z</time>
      </trkpt>
      <trkpt lat="43.97588" lon="3.54091">
        <ele>551</ele>
        <time>2012-03-03T20:41:21Z</time>
      </trkpt>
      <trkpt lat="43.97592" lon="3.54099">
        <ele>549</ele>
        <time>2012-03-03T20:41:26Z</time>
      </trkpt>
      <trkpt lat="43.97595" lon="3.54105">
        <ele>549</ele>
        <time>2012-03-03T20:41:31Z</time>
      </trkpt>
      <trkpt lat="43.97598" lon="3.54112">
        <ele>548</ele>
        <time>2012-03-03T20:41:36Z</time>
      </trkpt>
      <trkpt lat="43.97601" lon="3.5412">
        <ele>548</ele>
        <time>2012-03-03T20:41:41Z</time>
      </trkpt>
      <trkpt lat="43.97605" lon="3.54128">
        <ele>548</ele>
        <time>2012-03-03T20:41:46Z</time>
      </trkpt>
      <trkpt lat="43.97608" lon="3.54134">
        <ele>549</ele>
        <time>2012-03-03T20:41:51Z</time>
      </trkpt>
      <trkpt lat="43.97611" lon="3.54141">
        <ele>549</ele>
        <time>2012-03-03T20:41:56Z</time>
      </trkpt>
      <trkpt lat="43.97615" lon="3.54149">
        <ele>549</ele>
        <time>2012-03-03T20:42:01Z</time>
      </trkpt>
      <trkpt lat="43.97619" lon="3.54158">
        <ele>549</ele>
        <time>2012-03-03T20:42:06Z</time>
      </trkpt>
      <trkpt lat="43.97622" lon="3.54165">
        <ele>549</ele>
        <time>2012-03-03T20:42:11Z</time>
      </trkpt>
      <trkpt lat="43.97625" lon="3.54173">
        <ele>558</ele>
        <time>2012-03-03T20:42:16Z</time>
      </trkpt>
      <trkpt lat="43.97628" lon="3.54179">
        <ele>558</ele>
        <time>2012-03-03T20:42:21Z</time>
      </trkpt>
      <trkpt lat="43.97632" lon="3.54186">
        <ele>558</ele>
        <time>2012-03-03T20:42:26Z</time>
      </trkpt>
      <trkpt lat="43.97636" lon="3.54196">
        <ele>559</ele>
        <time>2012-03-03T20:42:31Z</time>
      </trkpt>
      <trkpt lat="43.9764" lon="3.54202">
        <ele>559</ele>
        <time>2012-03-03T20:42:36Z</time>
      </trkpt>
      <trkpt lat="43.97642" lon="3.54207">
        <ele>560</ele>
        <time>2012-03-03T20:42:41Z</time>
      </trkpt>
      <trkpt lat="43.97646" lon="3.54213">
        <ele>560</ele>
        <time>2012-03-03T20:42:46Z</time>
      </trkpt>
      <trkpt lat="43.9765" lon="3.54219">
        <ele>561</ele>
        <time>2012-03-03T20:42:51Z</time>
      </trkpt>
      <trkpt lat="43.97655" lon="3.54226">
        <ele>562</ele>
        <time>2012-03-03T20:42:56Z</time>
      </trkpt>
      <trkpt lat="43.97658" lon="3.54231">
        <ele>562</ele>
        <time>2012-03-03T20:43:01Z</time>
      </trkpt>
      <trkpt lat="43.97662" lon="3.54238">
        <ele>563</ele>
        <time>2012-03-03T20:43:06Z</time>
      </trkpt>
      <trkpt lat="43.97665" lon="3.54245">
        <ele>564</ele>
        <time>2012-03-03T20:43:11Z</time>
      </trkpt>
      <trkpt lat="43.9767" lon="3.54254">
        <ele>566</ele>
        <time>2012-03-03T20:43:16Z</time>
      </trkpt>
      <trkpt lat="43.97673" lon="3.54261">
        <ele>567</ele>
        <time>2012-03-03T20:43:21Z</time>
      </trkpt>
      <trkpt lat="43.97676" lon="3.54267">
        <ele>568</ele>
        <time>2012-03-03T20:43:26Z</time>
      </trkpt>
      <trkpt lat="43.97679" lon="3.54275">
        <ele>569</ele>
        <time>2012-03-03T20:43:31Z</time>
      </trkpt>
      <trkpt lat="43.97682" lon="3.54283">
        <ele>570</ele>
        <time>2012-03-03T20:43:36Z</time>
      </trkpt>
      <trkpt lat="43.97684" lon="3.54293">
        <ele>571</ele>
        <time>2012-03-03T20:43:41Z</time>
      </trkpt>
      <trkpt lat="43.97685" lon="3.54299">
        <ele>572</ele>
        <time>2012-03-03T20:43:46Z</time>
      </trkpt>
      <trkpt lat="43.97687" lon="3.54308">
        <ele>573</ele>
        <time>2012-03-03T20:43:51Z</time>
      </trkpt>
      <trkpt lat="43.97687" lon="3.54317">
        <ele>574</ele>
        <time>2012-03-03T20:43:56Z</time>
      </trkpt>
      <trkpt lat="43.97688" lon="3.54327">
        <ele>575</ele>
        <time>2012-03-03T20:44:01Z</time>
      </trkpt>
      <trkpt lat="43.97689" lon="3.54336">
        <ele>581</ele>
        <time>2012-03-03T20:44:06Z</time>
      </trkpt>
      <trkpt lat="43.97689" lon="3.54343">
        <ele>581</ele>
        <time>2012-03-03T20:44:11Z</time>
      </trkpt>
      <trkpt lat="43.97689" lon="3.54352">
        <ele>582</ele>
        <time>2012-03-03T20:44:16Z</time>
      </trkpt>
      <trkpt lat="43.97689" lon="3.54363">
        <ele>582</ele>
        <time>2012-03-03T20:44:21Z</time>
      </trkpt>
      <trkpt lat="43.97689" lon="3.54372">
        <ele>582</ele>
        <time>2012-03-03T20:44:26Z</time>
      </trkpt>
      <trkpt lat="43.97688" lon="3.54379">
        <ele>583</ele>
        <time>2012-03-03T20:44:31Z</time>
      </trkpt>
      <trkpt lat="43.97687" lon="3.54389">
        <ele>583</ele>
        <time>2012-03-03T20:44:36Z</time>
      </trkpt>
      <trkpt lat="43.97683" lon="3.54392">
        <ele>583</ele>
        <time>2012-03-03T20:44:41Z</time>
      </trkpt>
      <trkpt lat="43.97678" lon="3.54386">
        <ele>583</ele>
        <time>2012-03-03T20:44:46Z</time>
      </trkpt>
      <trkpt lat="43.97673" lon="3.54383">
        <ele>583</ele>
        <time>2012-03-03T20:44:51Z</time>
      </trkpt>
      <trkpt lat="43.97669" lon="3.54384">
        <ele>583</ele>
        <time>2012-03-03T20:44:56Z</time>
      </trkpt>
      <trkpt lat="43.97664" lon="3.54387">
        <ele>588</ele>
        <time>2012-03-03T20:45:01Z</time>
      </trkpt>
      <trkpt lat="43.9766" lon="3.5439">
        <ele>588</ele>
        <time>2012-03-03T20:45:06Z</time>
      </trkpt>
      <trkpt lat="43.97656" lon="3.54393">
        <ele>588</ele>
        <time>2012-03-03T20:45:11Z</time>
      </trkpt>
      <trkpt lat="43.97654" lon="3.54396">
        <ele>588</ele>
        <time>2012-03-03T20:45:16Z</time>
      </trkpt>
      <trkpt lat="43.9765" lon="3.54398">
        <ele>588</ele>
        <time>2012-03-03T20:45:21Z</time>
      </trkpt>
      <trkpt lat="43.97647" lon="3.54401">
        <ele>588</ele>
        <time>2012-03-03T20:45:26Z</time>
      </trkpt>
      <trkpt lat="43.97645" lon="3.54405">
        <ele>589</ele>
        <time>2012-03-03T20:45:31Z</time>
      </trkpt>
      <trkpt lat="43.97642" lon="3.5441">
        <ele>589</ele>
        <time>2012-03-03T20:45:36Z</time>
      </trkpt>
      <trkpt lat="43.97641" lon="3.54413">
        <ele>589</ele>
        <time>2012-03-03T20:45:41Z</time>
      </trkpt>
      <trkpt lat="43.97639" lon="3.54416">
        <ele>590</ele>
        <time>2012-03-03T20:45:46Z</time>
      </trkpt>
      <trkpt lat="43.97635" lon="3.54418">
        <ele>594</ele>
        <time>2012-03-03T20:45:51Z</time>
      </trkpt>
      <trkpt lat="43.97631" lon="3.54421">
        <ele>595</ele>
        <time>2012-03-03T20:45:56Z</time>
      </trkpt>
      <trkpt lat="43.97629" lon="3.54425">
        <ele>595</ele>
        <time>2012-03-03T20:46:01Z</time>
      </trkpt>
      <trkpt lat="43.97627" lon="3.54429">
        <ele>595</ele>
        <time>2012-03-03T20:46:06Z</time>
      </trkpt>
      <trkpt lat="43.97625" lon="3.54433">
        <ele>596</ele>
        <time>2012-03-03T20:46:11Z</time>
      </trkpt>
      <trkpt lat="43.97623" lon="3.54437">
        <ele>596</ele>
        <time>2012-03-03T20:46:16Z</time>
      </trkpt>
      <trkpt lat="43.9762" lon="3.54442">
        <ele>597</ele>
        <time>2012-03-03T20:46:21Z</time>
      </trkpt>
      <trkpt lat="43.97618" lon="3.54446">
        <ele>597</ele>
        <time>2012-03-03T20:46:26Z</time>
      </trkpt>
      <trkpt lat="43.97616" lon="3.5445">
        <ele>597</ele>
        <time>2012-03-03T20:46:31Z</time>
      </trkpt>
      <trkpt lat="43.97613" lon="3.54454">
        <ele>598</ele>
        <time>2012-03-03T20:46:36Z</time>
      </trkpt>
      <trkpt lat="43.9761" lon="3.54457">
        <ele>598</ele>
        <time>2012-03-03T20:46:41Z</time>
      </trkpt>
      <trkpt lat="43.97607" lon="3.54459">
        <ele>599</ele>
        <time>2012-03-03T20:46:46Z</time>
      </trkpt>
      <trkpt lat="43.97604" lon="3.54461">
        <ele>599</ele>
        <time>2012-03-03T20:46:51Z</time>
      </trkpt>
      <trkpt lat="43.97601" lon="3.54464">
        <ele>600</ele>
        <time>2012-03-03T20:46:56Z</time>
      </trkpt>
      <trkpt lat="43.97597" lon="3.54466">
        <ele>601</ele>
        <time>2012-03-03T20:47:01Z</time>
      </trkpt>
      <trkpt lat="43.97593" lon="3.54466">
        <ele>601</ele>
        <time>2012-03-03T20:47:06Z</time>
      </trkpt>
      <trkpt lat="43.97592" lon="3.54465">
        <ele>601</ele>
        <time>2012-03-03T20:47:11Z</time>
      </trkpt>
      <trkpt lat="43.97592" lon="3.54465">
        <ele>601</ele>
        <time>2012-03-03T20:47:16Z</time>
      </trkpt>
      <trkpt lat="43.97592" lon="3.54465">
        <ele>601</ele>
        <time>2012-03-03T20:47:21Z</time>
      </trkpt>
      <trkpt lat="43.97592" lon="3.54465">
        <ele>601</ele>
        <time>2012-03-03T20:47:26Z</time>
      </trkpt>
      <trkpt lat="43.9759" lon="3.54464">
        <ele>601</ele>
        <time>2012-03-03T20:47:31Z</time>
      </trkpt>
      <trkpt lat="43.9759" lon="3.54465">
        <ele>601</ele>
        <time>2012-03-03T20:47:36Z</time>
      </trkpt>
      <trkpt lat="43.9759" lon="3.54471">
        <ele>602</ele>
        <time>2012-03-03T20:47:41Z</time>
      </trkpt>
      <trkpt lat="43.9759" lon="3.54477">
        <ele>603</ele>
        <time>2012-03-03T20:47:46Z</time>
      </trkpt>
      <trkpt lat="43.97589" lon="3.54484">
        <ele>605</ele>
        <time>2012-03-03T20:47:51Z</time>
      </trkpt>
      <trkpt lat="43.9759" lon="3.5449">
        <ele>607</ele>
        <time>2012-03-03T20:47:56Z</time>
      </trkpt>
      <trkpt lat="43.97589" lon="3.54496">
        <ele>609</ele>
        <time>2012-03-03T20:48:01Z</time>
      </trkpt>
      <trkpt lat="43.97589" lon="3.54503">
        <ele>610</ele>
        <time>2012-03-03T20:48:06Z</time>
      </trkpt>
      <trkpt lat="43.97589" lon="3.54514">
        <ele>607</ele>
        <time>2012-03-03T20:48:11Z</time>
      </trkpt>
      <trkpt lat="43.97589" lon="3.54522">
        <ele>606</ele>
        <time>2012-03-03T20:48:16Z</time>
      </trkpt>
      <trkpt lat="43.97591" lon="3.54528">
        <ele>605</ele>
        <time>2012-03-03T20:48:21Z</time>
      </trkpt>
      <trkpt lat="43.97591" lon="3.54538">
        <ele>605</ele>
        <time>2012-03-03T20:48:26Z</time>
      </trkpt>
      <trkpt lat="43.97592" lon="3.54548">
        <ele>605</ele>
        <time>2012-03-03T20:48:31Z</time>
      </trkpt>
      <trkpt lat="43.97593" lon="3.54557">
        <ele>606</ele>
        <time>2012-03-03T20:48:36Z</time>
      </trkpt>
      <trkpt lat="43.97592" lon="3.54564">
        <ele>608</ele>
        <time>2012-03-03T20:48:41Z</time>
      </trkpt>
      <trkpt lat="43.97591" lon="3.54569">
        <ele>610</ele>
        <time>2012-03-03T20:48:46Z</time>
      </trkpt>
      <trkpt lat="43.97589" lon="3.54575">
        <ele>612</ele>
        <time>2012-03-03T20:48:51Z</time>
      </trkpt>
      <trkpt lat="43.97589" lon="3.54582">
        <ele>615</ele>
        <time>2012-03-03T20:48:56Z</time>
      </trkpt>
      <trkpt lat="43.97589" lon="3.54589">
        <ele>615</ele>
        <time>2012-03-03T20:49:01Z</time>
      </trkpt>
      <trkpt lat="43.97588" lon="3.54594">
        <ele>614</ele>
        <time>2012-03-03T20:49:06Z</time>
      </trkpt>
      <trkpt lat="43.97588" lon="3.546">
        <ele>612</ele>
        <time>2012-03-03T20:49:11Z</time>
      </trkpt>
      <trkpt lat="43.97587" lon="3.54607">
        <ele>611</ele>
        <time>2012-03-03T20:49:16Z</time>
      </trkpt>
      <trkpt lat="43.97587" lon="3.54614">
        <ele>611</ele>
        <time>2012-03-03T20:49:21Z</time>
      </trkpt>
      <trkpt lat="43.97587" lon="3.5462">
        <ele>611</ele>
        <time>2012-03-03T20:49:26Z</time>
      </trkpt>
      <trkpt lat="43.97586" lon="3.54624">
        <ele>611</ele>
        <time>2012-03-03T20:49:31Z</time>
      </trkpt>
      <trkpt lat="43.97586" lon="3.5463">
        <ele>612</ele>
        <time>2012-03-03T20:49:36Z</time>
      </trkpt>
      <trkpt lat="43.97586" lon="3.54637">
        <ele>613</ele>
        <time>2012-03-03T20:49:41Z</time>
      </trkpt>
      <trkpt lat="43.97585" lon="3.54645">
        <ele>615</ele>
        <time>2012-03-03T20:49:46Z</time>
      </trkpt>
      <trkpt lat="43.97585" lon="3.54649">
        <ele>617</ele>
        <time>2012-03-03T20:49:51Z</time>
      </trkpt>
      <trkpt lat="43.97585" lon="3.54656">
        <ele>620</ele>
        <time>2012-03-03T20:49:56Z</time>
      </trkpt>
      <trkpt lat="43.97586" lon="3.54663">
        <ele>624</ele>
        <time>2012-03-03T20:50:01Z</time>
      </trkpt>
      <trkpt lat="43.97588" lon="3.54674">
        <ele>623</ele>
        <time>2012-03-03T20:50:06Z</time>
      </trkpt>
      <trkpt lat="43.9759" lon="3.54685">
        <ele>618</ele>
        <time>2012-03-03T20:50:11Z</time>
      </trkpt>
      <trkpt lat="43.97591" lon="3.54693">
        <ele>616</ele>
        <time>2012-03-03T20:50:16Z</time>
      </trkpt>
      <trkpt lat="43.97593" lon="3.54704">
        <ele>615</ele>
        <time>2012-03-03T20:50:21Z</time>
      </trkpt>
      <trkpt lat="43.97592" lon="3.54711">
        <ele>615</ele>
        <time>2012-03-03T20:50:26Z</time>
      </trkpt>
      <trkpt lat="43.97592" lon="3.54716">
        <ele>616</ele>
        <time>2012-03-03T20:50:31Z</time>
      </trkpt>
      <trkpt lat="43.97591" lon="3.5472">
        <ele>616</ele>
        <time>2012-03-03T20:50:36Z</time>
      </trkpt>
      <trkpt lat="43.9759" lon="3.54726">
        <ele>617</ele>
        <time>2012-03-03T20:50:41Z</time>
      </trkpt>
      <trkpt lat="43.9759" lon="3.54732">
        <ele>619</ele>
        <time>2012-03-03T20:50:46Z</time>
      </trkpt>
      <trkpt lat="43.97588" lon="3.54738">
        <ele>621</ele>
        <time>2012-03-03T20:50:51Z</time>
      </trkpt>
      <trkpt lat="43.97588" lon="3.54743">
        <ele>623</ele>
        <time>2012-03-03T20:50:56Z</time>
      </trkpt>
      <trkpt lat="43.97588" lon="3.54746">
        <ele>624</ele>
        <time>2012-03-03T20:51:01Z</time>
      </trkpt>
      <trkpt lat="43.97587" lon="3.5475">
        <ele>626</ele>
        <time>2012-03-03T20:51:06Z</time>
      </trkpt>
      <trkpt lat="43.97586" lon="3.54756">
        <ele>624</ele>
        <time>2012-03-03T20:51:11Z</time>
      </trkpt>
      <trkpt lat="43.97585" lon="3.54762">
        <ele>621</ele>
        <time>2012-03-03T20:51:16Z</time>
      </trkpt>
      <trkpt lat="43.97585" lon="3.54769">
        <ele>619</ele>
        <time>2012-03-03T20:51:21Z</time>
      </trkpt>
      <trkpt lat="43.97589" lon="3.54778">
        <ele>617</ele>
        <time>2012-03-03T20:51:26Z</time>
      </trkpt>
      <trkpt lat="43.97588" lon="3.54787">
        <ele>616</ele>
        <time>2012-03-03T20:51:31Z</time>
      </trkpt>
      <trkpt lat="43.97589" lon="3.54796">
        <ele>616</ele>
        <time>2012-03-03T20:51:36Z</time>
      </trkpt>
      <trkpt lat="43.97591" lon="3.54809">
        <ele>616</ele>
        <time>2012-03-03T20:51:41Z</time>
      </trkpt>
      <trkpt lat="43.97589" lon="3.5482">
        <ele>619</ele>
        <time>2012-03-03T20:51:46Z</time>
      </trkpt>
      <trkpt lat="43.97589" lon="3.54831">
        <ele>622</ele>
        <time>2012-03-03T20:51:51Z</time>
      </trkpt>
      <trkpt lat="43.97591" lon="3.54839">
        <ele>619</ele>
        <time>2012-03-03T20:51:56Z</time>
      </trkpt>
      <trkpt lat="43.97584" lon="3.54855">
        <ele>615</ele>
        <time>2012-03-03T20:52:01Z</time>
      </trkpt>
      <trkpt lat="43.97582" lon="3.54864">
        <ele>615</ele>
        <time>2012-03-03T20:52:06Z</time>
      </trkpt>
      <trkpt lat="43.97585" lon="3.54869">
        <ele>612</ele>
        <time>2012-03-03T20:52:11Z</time>
      </trkpt>
      <trkpt lat="43.97585" lon="3.54881">
        <ele>611</ele>
        <time>2012-03-03T20:52:16Z</time>
      </trkpt>
      <trkpt lat="43.97581" lon="3.54892">
        <ele>614</ele>
        <time>2012-03-03T20:52:21Z</time>
      </trkpt>
      <trkpt lat="43.97579" lon="3.54906">
        <ele>615</ele>
        <time>2012-03-03T20:52:26Z</time>
      </trkpt>
      <trkpt lat="43.97578" lon="3.5491">
        <ele>616</ele>
        <time>2012-03-03T20:52:31Z</time>
      </trkpt>
      <trkpt lat="43.97577" lon="3.54915">
        <ele>616</ele>
        <time>2012-03-03T20:52:36Z</time>
      </trkpt>
      <trkpt lat="43.97575" lon="3.54929">
        <ele>610</ele>
        <time>2012-03-03T20:52:41Z</time>
      </trkpt>
      <trkpt lat="43.97572" lon="3.54941">
        <ele>606</ele>
        <time>2012-03-03T20:52:46Z</time>
      </trkpt>
      <trkpt lat="43.97573" lon="3.54951">
        <ele>605</ele>
        <time>2012-03-03T20:52:51Z</time>
      </trkpt>
      <trkpt lat="43.97574" lon="3.54959">
        <ele>604</ele>
        <time>2012-03-03T20:52:56Z</time>
      </trkpt>
      <trkpt lat="43.97568" lon="3.5497">
        <ele>602</ele>
        <time>2012-03-03T20:53:01Z</time>
      </trkpt>
      <trkpt lat="43.9756" lon="3.5498">
        <ele>601</ele>
        <time>2012-03-03T20:53:06Z</time>
      </trkpt>
      <trkpt lat="43.97558" lon="3.54979">
        <ele>601</ele>
        <time>2012-03-03T20:53:11Z</time>
      </trkpt>
      <trkpt lat="43.97558" lon="3.54984">
        <ele>601</ele>
        <time>2012-03-03T20:53:16Z</time>
      </trkpt>
      <trkpt lat="43.97558" lon="3.54992">
        <ele>601</ele>
        <time>2012-03-03T20:53:21Z</time>
      </trkpt>
      <trkpt lat="43.97556" lon="3.55001">
        <ele>592</ele>
        <time>2012-03-03T20:53:26Z</time>
      </trkpt>
      <trkpt lat="43.97552" lon="3.55008">
        <ele>591</ele>
        <time>2012-03-03T20:53:31Z</time>
      </trkpt>
      <trkpt lat="43.9755" lon="3.5501">
        <ele>591</ele>
        <time>2012-03-03T20:53:36Z</time>
      </trkpt>
      <trkpt lat="43.97551" lon="3.5501">
        <ele>591</ele>
        <time>2012-03-03T20:53:41Z</time>
      </trkpt>
      <trkpt lat="43.97551" lon="3.55009">
        <ele>591</ele>
        <time>2012-03-03T20:53:46Z</time>
      </trkpt>
      <trkpt lat="43.97551" lon="3.55007">
        <ele>591</ele>
        <time>2012-03-03T20:53:51Z</time>
      </trkpt>
      <trkpt lat="43.97555" lon="3.55002">
        <ele>592</ele>
        <time>2012-03-03T20:53:56Z</time>
      </trkpt>
      <trkpt lat="43.97559" lon="3.55005">
        <ele>593</ele>
        <time>2012-03-03T20:54:01Z</time>
      </trkpt>
      <trkpt lat="43.97561" lon="3.55007">
        <ele>593</ele>
        <time>2012-03-03T20:54:06Z</time>
      </trkpt>
      <trkpt lat="43.97561" lon="3.55012">
        <ele>592</ele>
        <time>2012-03-03T20:54:11Z</time>
      </trkpt>
      <trkpt lat="43.97565" lon="3.55013">
        <ele>593</ele>
        <time>2012-03-03T20:54:16Z</time>
      </trkpt>
      <trkpt lat="43.97567" lon="3.55017">
        <ele>593</ele>
        <time>2012-03-03T20:54:21Z</time>
      </trkpt>
      <trkpt lat="43.97568" lon="3.55023">
        <ele>592</ele>
        <time>2012-03-03T20:54:26Z</time>
      </trkpt>
      <trkpt lat="43.97568" lon="3.55029">
        <ele>591</ele>
        <time>2012-03-03T20:54:31Z</time>
      </trkpt>
      <trkpt lat="43.97568" lon="3.55032">
        <ele>590</ele>
        <time>2012-03-03T20:54:36Z</time>
      </trkpt>
      <trkpt lat="43.97571" lon="3.55038">
        <ele>590</ele>
        <time>2012-03-03T20:54:41Z</time>
      </trkpt>
      <trkpt lat="43.97573" lon="3.55041">
        <ele>589</ele>
        <time>2012-03-03T20:54:46Z</time>
      </trkpt>
      <trkpt lat="43.97573" lon="3.55046">
        <ele>588</ele>
        <time>2012-03-03T20:54:51Z</time>
      </trkpt>
      <trkpt lat="43.97573" lon="3.55052">
        <ele>588</ele>
        <time>2012-03-03T20:54:56Z</time>
      </trkpt>
      <trkpt lat="43.9757" lon="3.5506">
        <ele>587</ele>
        <time>2012-03-03T20:55:01Z</time>
      </trkpt>
      <trkpt lat="43.97568" lon="3.55067">
        <ele>586</ele>
        <time>2012-03-03T20:55:06Z</time>
      </trkpt>
      <trkpt lat="43.97565" lon="3.55074">
        <ele>586</ele>
        <time>2012-03-03T20:55:11Z</time>
      </trkpt>
      <trkpt lat="43.97566" lon="3.5508">
        <ele>586</ele>
        <time>2012-03-03T20:55:16Z</time>
      </trkpt>
      <trkpt lat="43.97563" lon="3.55087">
        <ele>577</ele>
        <time>2012-03-03T20:55:21Z</time>
      </trkpt>
      <trkpt lat="43.97562" lon="3.55096">
        <ele>576</ele>
        <time>2012-03-03T20:55:26Z</time>
      </trkpt>
      <trkpt lat="43.97564" lon="3.55101">
        <ele>575</ele>
        <time>2012-03-03T20:55:31Z</time>
      </trkpt>
      <trkpt lat="43.97563" lon="3.55106">
        <ele>575</ele>
        <time>2012-03-03T20:55:36Z</time>
      </trkpt>
      <trkpt lat="43.97564" lon="3.55109">
        <ele>574</ele>
        <time>2012-03-03T20:55:41Z</time>
      </trkpt>
      <trkpt lat="43.97565" lon="3.55114">
        <ele>574</ele>
        <time>2012-03-03T20:55:46Z</time>
      </trkpt>
      <trkpt lat="43.97563" lon="3.55122">
        <ele>572</ele>
        <time>2012-03-03T20:55:51Z</time>
      </trkpt>
      <trkpt lat="43.9756" lon="3.55132">
        <ele>571</ele>
        <time>2012-03-03T20:55:56Z</time>
      </trkpt>
      <trkpt lat="43.97558" lon="3.55141">
        <ele>570</ele>
        <time>2012-03-03T20:56:01Z</time>
      </trkpt>
      <trkpt lat="43.97555" lon="3.55152">
        <ele>569</ele>
        <time>2012-03-03T20:56:06Z</time>
      </trkpt>
      <trkpt lat="43.97549" lon="3.55163">
        <ele>568</ele>
        <time>2012-03-03T20:56:11Z</time>
      </trkpt>
      <trkpt lat="43.97548" lon="3.55172">
        <ele>561</ele>
        <time>2012-03-03T20:56:16Z</time>
      </trkpt>
      <trkpt lat="43.97547" lon="3.55181">
        <ele>561</ele>
        <time>2012-03-03T20:56:21Z</time>
      </trkpt>
      <trkpt lat="43.97544" lon="3.55191">
        <ele>560</ele>
        <time>2012-03-03T20:56:26Z</time>
      </trkpt>
      <trkpt lat="43.97544" lon="3.552">
        <ele>560</ele>
        <time>2012-03-03T20:56:31Z</time>
      </trkpt>
      <trkpt lat="43.97545" lon="3.55207">
        <ele>560</ele>
        <time>2012-03-03T20:56:36Z</time>
      </trkpt>
      <trkpt lat="43.97544" lon="3.55214">
        <ele>559</ele>
        <time>2012-03-03T20:56:41Z</time>
      </trkpt>
      <trkpt lat="43.97545" lon="3.55225">
        <ele>559</ele>
        <time>2012-03-03T20:56:46Z</time>
      </trkpt>
      <trkpt lat="43.97547" lon="3.55235">
        <ele>558</ele>
        <time>2012-03-03T20:56:51Z</time>
      </trkpt>
      <trkpt lat="43.97548" lon="3.55246">
        <ele>558</ele>
        <time>2012-03-03T20:56:56Z</time>
      </trkpt>
      <trkpt lat="43.97547" lon="3.55256">
        <ele>554</ele>
        <time>2012-03-03T20:57:01Z</time>
      </trkpt>
      <trkpt lat="43.97547" lon="3.55265">
        <ele>553</ele>
        <time>2012-03-03T20:57:06Z</time>
      </trkpt>
      <trkpt lat="43.97542" lon="3.55272">
        <ele>553</ele>
        <time>2012-03-03T20:57:11Z</time>
      </trkpt>
      <trkpt lat="43.97539" lon="3.5528">
        <ele>553</ele>
        <time>2012-03-03T20:57:16Z</time>
      </trkpt>
      <trkpt lat="43.97538" lon="3.55288">
        <ele>552</ele>
        <time>2012-03-03T20:57:21Z</time>
      </trkpt>
      <trkpt lat="43.97539" lon="3.55294">
        <ele>552</ele>
        <time>2012-03-03T20:57:26Z</time>
      </trkpt>
      <trkpt lat="43.97539" lon="3.55303">
        <ele>552</ele>
        <time>2012-03-03T20:57:31Z</time>
      </trkpt>
      <trkpt lat="43.97541" lon="3.5531">
        <ele>552</ele>
        <time>2012-03-03T20:57:36Z</time>
      </trkpt>
      <trkpt lat="43.97539" lon="3.55318">
        <ele>551</ele>
        <time>2012-03-03T20:57:41Z</time>
      </trkpt>
      <trkpt lat="43.9754" lon="3.55323">
        <ele>551</ele>
        <time>2012-03-03T20:57:46Z</time>
      </trkpt>
      <trkpt lat="43.9754" lon="3.5533">
        <ele>551</ele>
        <time>2012-03-03T20:57:51Z</time>
      </trkpt>
      <trkpt lat="43.97542" lon="3.55342">
        <ele>547</ele>
        <time>2012-03-03T20:57:56Z</time>
      </trkpt>
      <trkpt lat="43.97543" lon="3.55358">
        <ele>547</ele>
        <time>2012-03-03T20:58:01Z</time>
      </trkpt>
      <trkpt lat="43.97542" lon="3.55373">
        <ele>546</ele>
        <time>2012-03-03T20:58:06Z</time>
      </trkpt>
      <trkpt lat="43.97536" lon="3.55383">
        <ele>546</ele>
        <time>2012-03-03T20:58:11Z</time>
      </trkpt>
      <trkpt lat="43.97533" lon="3.55387">
        <ele>546</ele>
        <time>2012-03-03T20:58:16Z</time>
      </trkpt>
      <trkpt lat="43.97532" lon="3.55394">
        <ele>546</ele>
        <time>2012-03-03T20:58:21Z</time>
      </trkpt>
      <trkpt lat="43.9753" lon="3.55401">
        <ele>546</ele>
        <time>2012-03-03T20:58:26Z</time>
      </trkpt>
      <trkpt lat="43.97529" lon="3.5541">
        <ele>546</ele>
        <time>2012-03-03T20:58:31Z</time>
      </trkpt>
      <trkpt lat="43.97529" lon="3.55416">
        <ele>546</ele>
        <time>2012-03-03T20:58:36Z</time>
      </trkpt>
      <trkpt lat="43.97526" lon="3.55425">
        <ele>543</ele>
        <time>2012-03-03T20:58:41Z</time>
      </trkpt>
      <trkpt lat="43.97522" lon="3.5543">
        <ele>543</ele>
        <time>2012-03-03T20:58:46Z</time>
      </trkpt>
      <trkpt lat="43.97521" lon="3.55432">
        <ele>543</ele>
        <time>2012-03-03T20:58:51Z</time>
      </trkpt>
      <trkpt lat="43.97518" lon="3.55437">
        <ele>543</ele>
        <time>2012-03-03T20:58:56Z</time>
      </trkpt>
      <trkpt lat="43.97514" lon="3.55437">
        <ele>543</ele>
        <time>2012-03-03T20:59:01Z</time>
      </trkpt>
      <trkpt lat="43.9751" lon="3.55435">
        <ele>544</ele>
        <time>2012-03-03T20:59:06Z</time>
      </trkpt>
      <trkpt lat="43.97507" lon="3.55432">
        <ele>544</ele>
        <time>2012-03-03T20:59:11Z</time>
      </trkpt>
      <trkpt lat="43.97502" lon="3.55434">
        <ele>545</ele>
        <time>2012-03-03T20:59:16Z</time>
      </trkpt>
      <trkpt lat="43.97501" lon="3.55435">
        <ele>544</ele>
        <time>2012-03-03T20:59:21Z</time>
      </trkpt>
      <trkpt lat="43.97499" lon="3.55438">
        <ele>536</ele>
        <time>2012-03-03T20:59:26Z</time>
      </trkpt>
      <trkpt lat="43.97498" lon="3.55441">
        <ele>535</ele>
        <time>2012-03-03T20:59:31Z</time>
      </trkpt>
      <trkpt lat="43.97494" lon="3.55441">
        <ele>534</ele>
        <time>2012-03-03T20:59:36Z</time>
      </trkpt>
      <trkpt lat="43.97491" lon="3.55438">
        <ele>535</ele>
        <time>2012-03-03T20:59:41Z</time>
      </trkpt>
      <trkpt lat="43.97489" lon="3.55435">
        <ele>535</ele>
        <time>2012-03-03T20:59:46Z</time>
      </trkpt>
      <trkpt lat="43.97486" lon="3.55436">
        <ele>534</ele>
        <time>2012-03-03T20:59:51Z</time>
      </trkpt>
      <trkpt lat="43.97483" lon="3.5544">
        <ele>532</ele>
        <time>2012-03-03T20:59:56Z</time>
      </trkpt>
      <trkpt lat="43.97479" lon="3.5544">
        <ele>531</ele>
        <time>2012-03-03T21:00:01Z</time>
      </trkpt>
      <trkpt lat="43.97476" lon="3.55438">
        <ele>530</ele>
        <time>2012-03-03T21:00:06Z</time>
      </trkpt>
      <trkpt lat="43.97474" lon="3.55436">
        <ele>530</ele>
        <time>2012-03-03T21:00:11Z</time>
      </trkpt>
      <trkpt lat="43.97472" lon="3.55438">
        <ele>529</ele>
        <time>2012-03-03T21:00:16Z</time>
      </trkpt>
      <trkpt lat="43.9747" lon="3.55442">
        <ele>528</ele>
        <time>2012-03-03T21:00:21Z</time>
      </trkpt>
      <trkpt lat="43.97465" lon="3.55443">
        <ele>527</ele>
        <time>2012-03-03T21:00:26Z</time>
      </trkpt>
      <trkpt lat="43.97463" lon="3.55442">
        <ele>526</ele>
        <time>2012-03-03T21:00:31Z</time>
      </trkpt>
      <trkpt lat="43.9746" lon="3.55441">
        <ele>525</ele>
        <time>2012-03-03T21:00:36Z</time>
      </trkpt>
      <trkpt lat="43.97457" lon="3.55437">
        <ele>525</ele>
        <time>2012-03-03T21:00:41Z</time>
      </trkpt>
      <trkpt lat="43.97456" lon="3.55445">
        <ele>524</ele>
        <time>2012-03-03T21:00:46Z</time>
      </trkpt>
      <trkpt lat="43.97456" lon="3.55454">
        <ele>524</ele>
        <time>2012-03-03T21:00:51Z</time>
      </trkpt>
      <trkpt lat="43.97455" lon="3.55464">
        <ele>523</ele>
        <time>2012-03-03T21:00:56Z</time>
      </trkpt>
      <trkpt lat="43.97454" lon="3.55474">
        <ele>523</ele>
        <time>2012-03-03T21:01:01Z</time>
      </trkpt>
      <trkpt lat="43.97453" lon="3.55484">
        <ele>522</ele>
        <time>2012-03-03T21:01:06Z</time>
      </trkpt>
      <trkpt lat="43.97453" lon="3.55494">
        <ele>522</ele>
        <time>2012-03-03T21:01:11Z</time>
      </trkpt>
      <trkpt lat="43.97454" lon="3.55502">
        <ele>520</ele>
        <time>2012-03-03T21:01:16Z</time>
      </trkpt>
      <trkpt lat="43.97454" lon="3.55508">
        <ele>521</ele>
        <time>2012-03-03T21:01:21Z</time>
      </trkpt>
      <trkpt lat="43.97452" lon="3.55518">
        <ele>520</ele>
        <time>2012-03-03T21:01:26Z</time>
      </trkpt>
      <trkpt lat="43.9745" lon="3.5553">
        <ele>520</ele>
        <time>2012-03-03T21:01:31Z</time>
      </trkpt>
      <trkpt lat="43.97448" lon="3.55539">
        <ele>520</ele>
        <time>2012-03-03T21:01:36Z</time>
      </trkpt>
      <trkpt lat="43.97447" lon="3.55545">
        <ele>519</ele>
        <time>2012-03-03T21:01:41Z</time>
      </trkpt>
      <trkpt lat="43.97445" lon="3.55555">
        <ele>519</ele>
        <time>2012-03-03T21:01:46Z</time>
      </trkpt>
      <trkpt lat="43.97445" lon="3.55562">
        <ele>518</ele>
        <time>2012-03-03T21:01:51Z</time>
      </trkpt>
      <trkpt lat="43.97441" lon="3.55573">
        <ele>516</ele>
        <time>2012-03-03T21:01:56Z</time>
      </trkpt>
      <trkpt lat="43.97439" lon="3.55581">
        <ele>515</ele>
        <time>2012-03-03T21:02:01Z</time>
      </trkpt>
      <trkpt lat="43.97438" lon="3.55586">
        <ele>515</ele>
        <time>2012-03-03T21:02:06Z</time>
      </trkpt>
      <trkpt lat="43.97436" lon="3.55587">
        <ele>514</ele>
        <time>2012-03-03T21:02:11Z</time>
      </trkpt>
      <trkpt lat="43.97436" lon="3.5559">
        <ele>515</ele>
        <time>2012-03-03T21:02:16Z</time>
      </trkpt>
      <trkpt lat="43.97434" lon="3.556">
        <ele>516</ele>
        <time>2012-03-03T21:02:21Z</time>
      </trkpt>
      <trkpt lat="43.97433" lon="3.55609">
        <ele>517</ele>
        <time>2012-03-03T21:02:26Z</time>
      </trkpt>
      <trkpt lat="43.97429" lon="3.55621">
        <ele>518</ele>
        <time>2012-03-03T21:02:31Z</time>
      </trkpt>
      <trkpt lat="43.97427" lon="3.55624">
        <ele>518</ele>
        <time>2012-03-03T21:02:36Z</time>
      </trkpt>
      <trkpt lat="43.97425" lon="3.5563">
        <ele>518</ele>
        <time>2012-03-03T21:02:41Z</time>
      </trkpt>
      <trkpt lat="43.97422" lon="3.55638">
        <ele>518</ele>
        <time>2012-03-03T21:02:46Z</time>
      </trkpt>
      <trkpt lat="43.97419" lon="3.5565">
        <ele>516</ele>
        <time>2012-03-03T21:02:51Z</time>
      </trkpt>
      <trkpt lat="43.97416" lon="3.5566">
        <ele>502</ele>
        <time>2012-03-03T21:02:56Z</time>
      </trkpt>
      <trkpt lat="43.97416" lon="3.5567">
        <ele>506</ele>
        <time>2012-03-03T21:03:01Z</time>
      </trkpt>
      <trkpt lat="43.97415" lon="3.55679">
        <ele>498</ele>
        <time>2012-03-03T21:03:06Z</time>
      </trkpt>
      <trkpt lat="43.97414" lon="3.55687">
        <ele>494</ele>
        <time>2012-03-03T21:03:11Z</time>
      </trkpt>
      <trkpt lat="43.97412" lon="3.55698">
        <ele>491</ele>
        <time>2012-03-03T21:03:16Z</time>
      </trkpt>
      <trkpt lat="43.97411" lon="3.55707">
        <ele>490</ele>
        <time>2012-03-03T21:03:21Z</time>
      </trkpt>
      <trkpt lat="43.97411" lon="3.5572">
        <ele>492</ele>
        <time>2012-03-03T21:03:26Z</time>
      </trkpt>
      <trkpt lat="43.97409" lon="3.55727">
        <ele>493</ele>
        <time>2012-03-03T21:03:31Z</time>
      </trkpt>
      <trkpt lat="43.97408" lon="3.55737">
        <ele>498</ele>
        <time>2012-03-03T21:03:36Z</time>
      </trkpt>
      <trkpt lat="43.97408" lon="3.55746">
        <ele>502</ele>
        <time>2012-03-03T21:03:41Z</time>
      </trkpt>
      <trkpt lat="43.97408" lon="3.55757">
        <ele>501</ele>
        <time>2012-03-03T21:03:46Z</time>
      </trkpt>
      <trkpt lat="43.97408" lon="3.55765">
        <ele>496</ele>
        <time>2012-03-03T21:03:51Z</time>
      </trkpt>
      <trkpt lat="43.97407" lon="3.5577">
        <ele>494</ele>
        <time>2012-03-03T21:03:56Z</time>
      </trkpt>
      <trkpt lat="43.97407" lon="3.55779">
        <ele>491</ele>
        <time>2012-03-03T21:04:01Z</time>
      </trkpt>
      <trkpt lat="43.97406" lon="3.55792">
        <ele>489</ele>
        <time>2012-03-03T21:04:06Z</time>
      </trkpt>
      <trkpt lat="43.97406" lon="3.55803">
        <ele>489</ele>
        <time>2012-03-03T21:04:11Z</time>
      </trkpt>
      <trkpt lat="43.97406" lon="3.55814">
        <ele>492</ele>
        <time>2012-03-03T21:04:16Z</time>
      </trkpt>
      <trkpt lat="43.97406" lon="3.55821">
        <ele>494</ele>
        <time>2012-03-03T21:04:21Z</time>
      </trkpt>
      <trkpt lat="43.97406" lon="3.55831">
        <ele>497</ele>
        <time>2012-03-03T21:04:26Z</time>
      </trkpt>
      <trkpt lat="43.97406" lon="3.55843">
        <ele>493</ele>
        <time>2012-03-03T21:04:31Z</time>
      </trkpt>
      <trkpt lat="43.97408" lon="3.55855">
        <ele>489</ele>
        <time>2012-03-03T21:04:36Z</time>
      </trkpt>
      <trkpt lat="43.9741" lon="3.55862">
        <ele>487</ele>
        <time>2012-03-03T21:04:41Z</time>
      </trkpt>
      <trkpt lat="43.97412" lon="3.55868">
        <ele>486</ele>
        <time>2012-03-03T21:04:46Z</time>
      </trkpt>
      <trkpt lat="43.97413" lon="3.55876">
        <ele>485</ele>
        <time>2012-03-03T21:04:51Z</time>
      </trkpt>
      <trkpt lat="43.97413" lon="3.55884">
        <ele>486</ele>
        <time>2012-03-03T21:04:56Z</time>
      </trkpt>
      <trkpt lat="43.97415" lon="3.55891">
        <ele>487</ele>
        <time>2012-03-03T21:05:01Z</time>
      </trkpt>
      <trkpt lat="43.97415" lon="3.55897">
        <ele>489</ele>
        <time>2012-03-03T21:05:06Z</time>
      </trkpt>
      <trkpt lat="43.97416" lon="3.55904">
        <ele>492</ele>
        <time>2012-03-03T21:05:11Z</time>
      </trkpt>
      <trkpt lat="43.97417" lon="3.55912">
        <ele>506</ele>
        <time>2012-03-03T21:05:16Z</time>
      </trkpt>
      <trkpt lat="43.97417" lon="3.55924">
        <ele>507</ele>
        <time>2012-03-03T21:05:21Z</time>
      </trkpt>
      <trkpt lat="43.9742" lon="3.55932">
        <ele>510</ele>
        <time>2012-03-03T21:05:26Z</time>
      </trkpt>
      <trkpt lat="43.97423" lon="3.55939">
        <ele>511</ele>
        <time>2012-03-03T21:05:31Z</time>
      </trkpt>
      <trkpt lat="43.97425" lon="3.55949">
        <ele>512</ele>
        <time>2012-03-03T21:05:36Z</time>
      </trkpt>
      <trkpt lat="43.97426" lon="3.55959">
        <ele>512</ele>
        <time>2012-03-03T21:05:41Z</time>
      </trkpt>
      <trkpt lat="43.97428" lon="3.55967">
        <ele>512</ele>
        <time>2012-03-03T21:05:46Z</time>
      </trkpt>
      <trkpt lat="43.97428" lon="3.55974">
        <ele>510</ele>
        <time>2012-03-03T21:05:51Z</time>
      </trkpt>
      <trkpt lat="43.97428" lon="3.55984">
        <ele>508</ele>
        <time>2012-03-03T21:05:56Z</time>
      </trkpt>
      <trkpt lat="43.97429" lon="3.55994">
        <ele>506</ele>
        <time>2012-03-03T21:06:01Z</time>
      </trkpt>
      <trkpt lat="43.9743" lon="3.56008">
        <ele>504</ele>
        <time>2012-03-03T21:06:06Z</time>
      </trkpt>
      <trkpt lat="43.97431" lon="3.56017">
        <ele>505</ele>
        <time>2012-03-03T21:06:11Z</time>
      </trkpt>
      <trkpt lat="43.97431" lon="3.56027">
        <ele>506</ele>
        <time>2012-03-03T21:06:16Z</time>
      </trkpt>
      <trkpt lat="43.97433" lon="3.56028">
        <ele>506</ele>
        <time>2012-03-03T21:06:21Z</time>
      </trkpt>
      <trkpt lat="43.97435" lon="3.56033">
        <ele>507</ele>
        <time>2012-03-03T21:06:26Z</time>
      </trkpt>
      <trkpt lat="43.97435" lon="3.56042">
        <ele>506</ele>
        <time>2012-03-03T21:06:31Z</time>
      </trkpt>
      <trkpt lat="43.97435" lon="3.56051">
        <ele>506</ele>
        <time>2012-03-03T21:06:36Z</time>
      </trkpt>
      <trkpt lat="43.97434" lon="3.56061">
        <ele>504</ele>
        <time>2012-03-03T21:06:41Z</time>
      </trkpt>
      <trkpt lat="43.97434" lon="3.5607">
        <ele>502</ele>
        <time>2012-03-03T21:06:46Z</time>
      </trkpt>
      <trkpt lat="43.97434" lon="3.56083">
        <ele>500</ele>
        <time>2012-03-03T21:06:51Z</time>
      </trkpt>
      <trkpt lat="43.97434" lon="3.56092">
        <ele>497</ele>
        <time>2012-03-03T21:06:56Z</time>
      </trkpt>
      <trkpt lat="43.97435" lon="3.56103">
        <ele>499</ele>
        <time>2012-03-03T21:07:01Z</time>
      </trkpt>
      <trkpt lat="43.97435" lon="3.56114">
        <ele>500</ele>
        <time>2012-03-03T21:07:06Z</time>
      </trkpt>
      <trkpt lat="43.97436" lon="3.56128">
        <ele>500</ele>
        <time>2012-03-03T21:07:11Z</time>
      </trkpt>
      <trkpt lat="43.97435" lon="3.56141">
        <ele>498</ele>
        <time>2012-03-03T21:07:16Z</time>
      </trkpt>
      <trkpt lat="43.97435" lon="3.56151">
        <ele>497</ele>
        <time>2012-03-03T21:07:21Z</time>
      </trkpt>
      <trkpt lat="43.97435" lon="3.56163">
        <ele>494</ele>
        <time>2012-03-03T21:07:26Z</time>
      </trkpt>
      <trkpt lat="43.97436" lon="3.56178">
        <ele>492</ele>
        <time>2012-03-03T21:07:31Z</time>
      </trkpt>
      <trkpt lat="43.97436" lon="3.56189">
        <ele>492</ele>
        <time>2012-03-03T21:07:36Z</time>
      </trkpt>
      <trkpt lat="43.97438" lon="3.56203">
        <ele>493</ele>
        <time>2012-03-03T21:07:41Z</time>
      </trkpt>
      <trkpt lat="43.97437" lon="3.56214">
        <ele>492</ele>
        <time>2012-03-03T21:07:46Z</time>
      </trkpt>
      <trkpt lat="43.97439" lon="3.56227">
        <ele>490</ele>
        <time>2012-03-03T21:07:51Z</time>
      </trkpt>
      <trkpt lat="43.97442" lon="3.56243">
        <ele>489</ele>
        <time>2012-03-03T21:07:56Z</time>
      </trkpt>
      <trkpt lat="43.97444" lon="3.56256">
        <ele>482</ele>
        <time>2012-03-03T21:08:01Z</time>
      </trkpt>
      <trkpt lat="43.97445" lon="3.56266">
        <ele>482</ele>
        <time>2012-03-03T21:08:06Z</time>
      </trkpt>
      <trkpt lat="43.97448" lon="3.56278">
        <ele>482</ele>
        <time>2012-03-03T21:08:11Z</time>
      </trkpt>
      <trkpt lat="43.97451" lon="3.56292">
        <ele>482</ele>
        <time>2012-03-03T21:08:16Z</time>
      </trkpt>
      <trkpt lat="43.97453" lon="3.56302">
        <ele>481</ele>
        <time>2012-03-03T21:08:21Z</time>
      </trkpt>
      <trkpt lat="43.97454" lon="3.56306">
        <ele>481</ele>
        <time>2012-03-03T21:08:26Z</time>
      </trkpt>
      <trkpt lat="43.97457" lon="3.56315">
        <ele>481</ele>
        <time>2012-03-03T21:08:31Z</time>
      </trkpt>
      <trkpt lat="43.97461" lon="3.56323">
        <ele>482</ele>
        <time>2012-03-03T21:08:36Z</time>
      </trkpt>
      <trkpt lat="43.97462" lon="3.56333">
        <ele>482</ele>
        <time>2012-03-03T21:08:41Z</time>
      </trkpt>
      <trkpt lat="43.97467" lon="3.56344">
        <ele>471</ele>
        <time>2012-03-03T21:08:46Z</time>
      </trkpt>
      <trkpt lat="43.97468" lon="3.56348">
        <ele>471</ele>
        <time>2012-03-03T21:08:51Z</time>
      </trkpt>
      <trkpt lat="43.9747" lon="3.56356">
        <ele>470</ele>
        <time>2012-03-03T21:08:56Z</time>
      </trkpt>
      <trkpt lat="43.97471" lon="3.56363">
        <ele>470</ele>
        <time>2012-03-03T21:09:01Z</time>
      </trkpt>
      <trkpt lat="43.9747" lon="3.56371">
        <ele>468</ele>
        <time>2012-03-03T21:09:06Z</time>
      </trkpt>
      <trkpt lat="43.9747" lon="3.56376">
        <ele>468</ele>
        <time>2012-03-03T21:09:11Z</time>
      </trkpt>
      <trkpt lat="43.97469" lon="3.5638">
        <ele>467</ele>
        <time>2012-03-03T21:09:16Z</time>
      </trkpt>
      <trkpt lat="43.97469" lon="3.56385">
        <ele>466</ele>
        <time>2012-03-03T21:09:21Z</time>
      </trkpt>
      <trkpt lat="43.97468" lon="3.56391">
        <ele>466</ele>
        <time>2012-03-03T21:09:26Z</time>
      </trkpt>
      <trkpt lat="43.97469" lon="3.56401">
        <ele>465</ele>
        <time>2012-03-03T21:09:31Z</time>
      </trkpt>
      <trkpt lat="43.9747" lon="3.56409">
        <ele>465</ele>
        <time>2012-03-03T21:09:36Z</time>
      </trkpt>
      <trkpt lat="43.9747" lon="3.56418">
        <ele>455</ele>
        <time>2012-03-03T21:09:41Z</time>
      </trkpt>
      <trkpt lat="43.9747" lon="3.56426">
        <ele>454</ele>
        <time>2012-03-03T21:09:46Z</time>
      </trkpt>
      <trkpt lat="43.9747" lon="3.56436">
        <ele>453</ele>
        <time>2012-03-03T21:09:51Z</time>
      </trkpt>
      <trkpt lat="43.97472" lon="3.56443">
        <ele>452</ele>
        <time>2012-03-03T21:09:56Z</time>
      </trkpt>
      <trkpt lat="43.97472" lon="3.56449">
        <ele>451</ele>
        <time>2012-03-03T21:10:01Z</time>
      </trkpt>
      <trkpt lat="43.97471" lon="3.56457">
        <ele>450</ele>
        <time>2012-03-03T21:10:06Z</time>
      </trkpt>
      <trkpt lat="43.97472" lon="3.56467">
        <ele>449</ele>
        <time>2012-03-03T21:10:11Z</time>
      </trkpt>
      <trkpt lat="43.97473" lon="3.56479">
        <ele>449</ele>
        <time>2012-03-03T21:10:16Z</time>
      </trkpt>
      <trkpt lat="43.97474" lon="3.56489">
        <ele>449</ele>
        <time>2012-03-03T21:10:21Z</time>
      </trkpt>
      <trkpt lat="43.97476" lon="3.565">
        <ele>450</ele>
        <time>2012-03-03T21:10:26Z</time>
      </trkpt>
      <trkpt lat="43.97477" lon="3.56509">
        <ele>443</ele>
        <time>2012-03-03T21:10:31Z</time>
      </trkpt>
      <trkpt lat="43.97478" lon="3.56517">
        <ele>442</ele>
        <time>2012-03-03T21:10:36Z</time>
      </trkpt>
      <trkpt lat="43.97477" lon="3.56527">
        <ele>439</ele>
        <time>2012-03-03T21:10:41Z</time>
      </trkpt>
      <trkpt lat="43.97479" lon="3.56534">
        <ele>439</ele>
        <time>2012-03-03T21:10:46Z</time>
      </trkpt>
      <trkpt lat="43.97479" lon="3.5654">
        <ele>438</ele>
        <time>2012-03-03T21:10:51Z</time>
      </trkpt>
      <trkpt lat="43.97477" lon="3.56548">
        <ele>437</ele>
        <time>2012-03-03T21:10:56Z</time>
      </trkpt>
      <trkpt lat="43.97474" lon="3.56558">
        <ele>436</ele>
        <time>2012-03-03T21:11:01Z</time>
      </trkpt>
      <trkpt lat="43.97473" lon="3.5657">
        <ele>436</ele>
        <time>2012-03-03T21:11:06Z</time>
      </trkpt>
      <trkpt lat="43.97472" lon="3.56577">
        <ele>436</ele>
        <time>2012-03-03T21:11:11Z</time>
      </trkpt>
      <trkpt lat="43.97472" lon="3.56589">
        <ele>429</ele>
        <time>2012-03-03T21:11:16Z</time>
      </trkpt>
      <trkpt lat="43.97473" lon="3.56599">
        <ele>428</ele>
        <time>2012-03-03T21:11:21Z</time>
      </trkpt>
      <trkpt lat="43.97472" lon="3.5661">
        <ele>426</ele>
        <time>2012-03-03T21:11:26Z</time>
      </trkpt>
      <trkpt lat="43.97471" lon="3.5662">
        <ele>424</ele>
        <time>2012-03-03T21:11:31Z</time>
      </trkpt>
      <trkpt lat="43.9747" lon="3.56628">
        <ele>423</ele>
        <time>2012-03-03T21:11:36Z</time>
      </trkpt>
      <trkpt lat="43.97471" lon="3.56639">
        <ele>423</ele>
        <time>2012-03-03T21:11:41Z</time>
      </trkpt>
      <trkpt lat="43.97471" lon="3.56651">
        <ele>423</ele>
        <time>2012-03-03T21:11:46Z</time>
      </trkpt>
      <trkpt lat="43.97473" lon="3.5666">
        <ele>424</ele>
        <time>2012-03-03T21:11:51Z</time>
      </trkpt>
      <trkpt lat="43.97473" lon="3.56666">
        <ele>424</ele>
        <time>2012-03-03T21:11:56Z</time>
      </trkpt>
      <trkpt lat="43.97475" lon="3.56677">
        <ele>416</ele>
        <time>2012-03-03T21:12:01Z</time>
      </trkpt>
      <trkpt lat="43.97476" lon="3.56686">
        <ele>415</ele>
        <time>2012-03-03T21:12:06Z</time>
      </trkpt>
      <trkpt lat="43.97477" lon="3.56698">
        <ele>413</ele>
        <time>2012-03-03T21:12:11Z</time>
      </trkpt>
      <trkpt lat="43.97477" lon="3.56706">
        <ele>412</ele>
        <time>2012-03-03T21:12:16Z</time>
      </trkpt>
      <trkpt lat="43.97477" lon="3.56715">
        <ele>411</ele>
        <time>2012-03-03T21:12:21Z</time>
      </trkpt>
      <trkpt lat="43.97476" lon="3.56724">
        <ele>410</ele>
        <time>2012-03-03T21:12:26Z</time>
      </trkpt>
      <trkpt lat="43.97476" lon="3.56737">
        <ele>411</ele>
        <time>2012-03-03T21:12:31Z</time>
      </trkpt>
      <trkpt lat="43.97477" lon="3.56748">
        <ele>411</ele>
        <time>2012-03-03T21:12:36Z</time>
      </trkpt>
      <trkpt lat="43.97476" lon="3.56758">
        <ele>404</ele>
        <time>2012-03-03T21:12:41Z</time>
      </trkpt>
      <trkpt lat="43.97475" lon="3.56768">
        <ele>402</ele>
        <time>2012-03-03T21:12:46Z</time>
      </trkpt>
      <trkpt lat="43.97474" lon="3.56777">
        <ele>400</ele>
        <time>2012-03-03T21:12:51Z</time>
      </trkpt>
      <trkpt lat="43.97472" lon="3.56788">
        <ele>398</ele>
        <time>2012-03-03T21:12:56Z</time>
      </trkpt>
      <trkpt lat="43.9747" lon="3.56795">
        <ele>397</ele>
        <time>2012-03-03T21:13:01Z</time>
      </trkpt>
      <trkpt lat="43.97469" lon="3.56803">
        <ele>397</ele>
        <time>2012-03-03T21:13:06Z</time>
      </trkpt>
      <trkpt lat="43.97467" lon="3.56813">
        <ele>396</ele>
        <time>2012-03-03T21:13:11Z</time>
      </trkpt>
      <trkpt lat="43.97466" lon="3.56824">
        <ele>396</ele>
        <time>2012-03-03T21:13:16Z</time>
      </trkpt>
      <trkpt lat="43.97464" lon="3.56838">
        <ele>391</ele>
        <time>2012-03-03T21:13:21Z</time>
      </trkpt>
      <trkpt lat="43.97464" lon="3.56848">
        <ele>391</ele>
        <time>2012-03-03T21:13:26Z</time>
      </trkpt>
      <trkpt lat="43.97464" lon="3.56863">
        <ele>390</ele>
        <time>2012-03-03T21:13:31Z</time>
      </trkpt>
      <trkpt lat="43.97462" lon="3.5688">
        <ele>389</ele>
        <time>2012-03-03T21:13:36Z</time>
      </trkpt>
      <trkpt lat="43.9746" lon="3.56893">
        <ele>389</ele>
        <time>2012-03-03T21:13:41Z</time>
      </trkpt>
      <trkpt lat="43.97459" lon="3.56906">
        <ele>388</ele>
        <time>2012-03-03T21:13:46Z</time>
      </trkpt>
      <trkpt lat="43.97457" lon="3.56915">
        <ele>388</ele>
        <time>2012-03-03T21:13:51Z</time>
      </trkpt>
      <trkpt lat="43.97453" lon="3.56924">
        <ele>385</ele>
        <time>2012-03-03T21:13:56Z</time>
      </trkpt>
      <trkpt lat="43.97449" lon="3.56936">
        <ele>384</ele>
        <time>2012-03-03T21:14:01Z</time>
      </trkpt>
      <trkpt lat="43.97446" lon="3.56948">
        <ele>383</ele>
        <time>2012-03-03T21:14:06Z</time>
      </trkpt>
      <trkpt lat="43.97443" lon="3.56956">
        <ele>383</ele>
        <time>2012-03-03T21:14:11Z</time>
      </trkpt>
      <trkpt lat="43.9744" lon="3.56968">
        <ele>382</ele>
        <time>2012-03-03T21:14:16Z</time>
      </trkpt>
      <trkpt lat="43.97436" lon="3.56978">
        <ele>380</ele>
        <time>2012-03-03T21:14:21Z</time>
      </trkpt>
      <trkpt lat="43.9743" lon="3.56992">
        <ele>377</ele>
        <time>2012-03-03T21:14:26Z</time>
      </trkpt>
      <trkpt lat="43.97429" lon="3.57003">
        <ele>374</ele>
        <time>2012-03-03T21:14:31Z</time>
      </trkpt>
      <trkpt lat="43.97427" lon="3.57011">
        <ele>375</ele>
        <time>2012-03-03T21:14:36Z</time>
      </trkpt>
      <trkpt lat="43.97423" lon="3.57018">
        <ele>375</ele>
        <time>2012-03-03T21:14:41Z</time>
      </trkpt>
      <trkpt lat="43.97421" lon="3.57021">
        <ele>375</ele>
        <time>2012-03-03T21:14:46Z</time>
      </trkpt>
      <trkpt lat="43.97422" lon="3.57019">
        <ele>375</ele>
        <time>2012-03-03T21:14:51Z</time>
      </trkpt>
      <trkpt lat="43.97422" lon="3.5702">
        <ele>375</ele>
        <time>2012-03-03T21:14:56Z</time>
      </trkpt>
      <trkpt lat="43.97417" lon="3.57025">
        <ele>375</ele>
        <time>2012-03-03T21:15:01Z</time>
      </trkpt>
      <trkpt lat="43.97412" lon="3.57031">
        <ele>360</ele>
        <time>2012-03-03T21:15:06Z</time>
      </trkpt>
      <trkpt lat="43.97408" lon="3.57038">
        <ele>359</ele>
        <time>2012-03-03T21:15:11Z</time>
      </trkpt>
      <trkpt lat="43.97405" lon="3.57045">
        <ele>359</ele>
        <time>2012-03-03T21:15:16Z</time>
      </trkpt>
      <trkpt lat="43.97401" lon="3.5705">
        <ele>358</ele>
        <time>2012-03-03T21:15:21Z</time>
      </trkpt>
      <trkpt lat="43.97397" lon="3.57055">
        <ele>358</ele>
        <time>2012-03-03T21:15:26Z</time>
      </trkpt>
      <trkpt lat="43.97387" lon="3.5706">
        <ele>357</ele>
        <time>2012-03-03T21:15:31Z</time>
      </trkpt>
      <trkpt lat="43.97389" lon="3.57068">
        <ele>357</ele>
        <time>2012-03-03T21:15:36Z</time>
      </trkpt>
      <trkpt lat="43.9739" lon="3.57079">
        <ele>357</ele>
        <time>2012-03-03T21:15:41Z</time>
      </trkpt>
      <trkpt lat="43.97391" lon="3.57089">
        <ele>354</ele>
        <time>2012-03-03T21:15:46Z</time>
      </trkpt>
      <trkpt lat="43.97391" lon="3.57099">
        <ele>353</ele>
        <time>2012-03-03T21:15:51Z</time>
      </trkpt>
      <trkpt lat="43.97388" lon="3.57113">
        <ele>352</ele>
        <time>2012-03-03T21:15:56Z</time>
      </trkpt>
      <trkpt lat="43.97386" lon="3.57125">
        <ele>351</ele>
        <time>2012-03-03T21:16:01Z</time>
      </trkpt>
      <trkpt lat="43.97384" lon="3.57133">
        <ele>351</ele>
        <time>2012-03-03T21:16:06Z</time>
      </trkpt>
      <trkpt lat="43.97381" lon="3.57144">
        <ele>350</ele>
        <time>2012-03-03T21:16:11Z</time>
      </trkpt>
      <trkpt lat="43.97376" lon="3.57156">
        <ele>349</ele>
        <time>2012-03-03T21:16:16Z</time>
      </trkpt>
      <trkpt lat="43.97372" lon="3.57165">
        <ele>348</ele>
        <time>2012-03-03T21:16:21Z</time>
      </trkpt>
      <trkpt lat="43.97371" lon="3.57169">
        <ele>344</ele>
        <time>2012-03-03T21:16:26Z</time>
      </trkpt>
      <trkpt lat="43.97368" lon="3.57182">
        <ele>344</ele>
        <time>2012-03-03T21:16:31Z</time>
      </trkpt>
      <trkpt lat="43.97367" lon="3.57197">
        <ele>343</ele>
        <time>2012-03-03T21:16:36Z</time>
      </trkpt>
      <trkpt lat="43.97368" lon="3.57216">
        <ele>343</ele>
        <time>2012-03-03T21:16:41Z</time>
      </trkpt>
      <trkpt lat="43.97368" lon="3.57232">
        <ele>342</ele>
        <time>2012-03-03T21:16:46Z</time>
      </trkpt>
      <trkpt lat="43.97369" lon="3.57244">
        <ele>342</ele>
        <time>2012-03-03T21:16:51Z</time>
      </trkpt>
      <trkpt lat="43.97368" lon="3.57259">
        <ele>338</ele>
        <time>2012-03-03T21:16:56Z</time>
      </trkpt>
      <trkpt lat="43.97369" lon="3.57272">
        <ele>338</ele>
        <time>2012-03-03T21:17:01Z</time>
      </trkpt>
      <trkpt lat="43.97368" lon="3.57288">
        <ele>338</ele>
        <time>2012-03-03T21:17:06Z</time>
      </trkpt>
      <trkpt lat="43.97367" lon="3.57303">
        <ele>336</ele>
        <time>2012-03-03T21:17:11Z</time>
      </trkpt>
      <trkpt lat="43.97368" lon="3.57311">
        <ele>336</ele>
        <time>2012-03-03T21:17:16Z</time>
      </trkpt>
      <trkpt lat="43.97371" lon="3.57321">
        <ele>336</ele>
        <time>2012-03-03T21:17:21Z</time>
      </trkpt>
      <trkpt lat="43.97378" lon="3.57332">
        <ele>338</ele>
        <time>2012-03-03T21:17:26Z</time>
      </trkpt>
      <trkpt lat="43.97382" lon="3.57339">
        <ele>332</ele>
        <time>2012-03-03T21:17:31Z</time>
      </trkpt>
      <trkpt lat="43.97387" lon="3.57347">
        <ele>333</ele>
        <time>2012-03-03T21:17:36Z</time>
      </trkpt>
      <trkpt lat="43.97391" lon="3.57352">
        <ele>333</ele>
        <time>2012-03-03T21:17:41Z</time>
      </trkpt>
      <trkpt lat="43.97395" lon="3.57361">
        <ele>333</ele>
        <time>2012-03-03T21:17:46Z</time>
      </trkpt>
      <trkpt lat="43.97401" lon="3.57373">
        <ele>332</ele>
        <time>2012-03-03T21:17:51Z</time>
      </trkpt>
      <trkpt lat="43.97407" lon="3.57385">
        <ele>332</ele>
        <time>2012-03-03T21:17:56Z</time>
      </trkpt>
      <trkpt lat="43.97412" lon="3.57395">
        <ele>332</ele>
        <time>2012-03-03T21:18:01Z</time>
      </trkpt>
      <trkpt lat="43.9742" lon="3.57406">
        <ele>341</ele>
        <time>2012-03-03T21:18:06Z</time>
      </trkpt>
      <trkpt lat="43.97427" lon="3.57418">
        <ele>336</ele>
        <time>2012-03-03T21:18:11Z</time>
      </trkpt>
      <trkpt lat="43.97434" lon="3.57432">
        <ele>337</ele>
        <time>2012-03-03T21:18:16Z</time>
      </trkpt>
      <trkpt lat="43.97438" lon="3.57442">
        <ele>337</ele>
        <time>2012-03-03T21:18:21Z</time>
      </trkpt>
      <trkpt lat="43.97441" lon="3.5745">
        <ele>337</ele>
        <time>2012-03-03T21:18:26Z</time>
      </trkpt>
      <trkpt lat="43.97442" lon="3.57459">
        <ele>337</ele>
        <time>2012-03-03T21:18:31Z</time>
      </trkpt>
      <trkpt lat="43.97446" lon="3.57469">
        <ele>336</ele>
        <time>2012-03-03T21:18:36Z</time>
      </trkpt>
      <trkpt lat="43.9745" lon="3.5748">
        <ele>336</ele>
        <time>2012-03-03T21:18:41Z</time>
      </trkpt>
      <trkpt lat="43.97454" lon="3.57487">
        <ele>336</ele>
        <time>2012-03-03T21:18:46Z</time>
      </trkpt>
      <trkpt lat="43.97457" lon="3.57494">
        <ele>336</ele>
        <time>2012-03-03T21:18:51Z</time>
      </trkpt>
      <trkpt lat="43.9746" lon="3.57499">
        <ele>337</ele>
        <time>2012-03-03T21:18:56Z</time>
      </trkpt>
      <trkpt lat="43.97461" lon="3.57503">
        <ele>332</ele>
        <time>2012-03-03T21:19:01Z</time>
      </trkpt>
      <trkpt lat="43.97462" lon="3.57507">
        <ele>332</ele>
        <time>2012-03-03T21:19:06Z</time>
      </trkpt>
      <trkpt lat="43.97464" lon="3.57513">
        <ele>332</ele>
        <time>2012-03-03T21:19:11Z</time>
      </trkpt>
      <trkpt lat="43.97465" lon="3.57519">
        <ele>332</ele>
        <time>2012-03-03T21:19:16Z</time>
      </trkpt>
      <trkpt lat="43.97468" lon="3.57526">
        <ele>333</ele>
        <time>2012-03-03T21:19:21Z</time>
      </trkpt>
      <trkpt lat="43.9747" lon="3.57532">
        <ele>333</ele>
        <time>2012-03-03T21:19:26Z</time>
      </trkpt>
      <trkpt lat="43.97472" lon="3.57533">
        <ele>333</ele>
        <time>2012-03-03T21:19:31Z</time>
      </trkpt>
      <trkpt lat="43.97485" lon="3.57543">
        <ele>334</ele>
        <time>2012-03-03T21:19:36Z</time>
      </trkpt>
      <trkpt lat="43.97489" lon="3.57546">
        <ele>335</ele>
        <time>2012-03-03T21:19:41Z</time>
      </trkpt>
      <trkpt lat="43.97488" lon="3.57549">
        <ele>335</ele>
        <time>2012-03-03T21:19:46Z</time>
      </trkpt>
      <trkpt lat="43.97491" lon="3.57553">
        <ele>335</ele>
        <time>2012-03-03T21:19:51Z</time>
      </trkpt>
      <trkpt lat="43.97498" lon="3.57555">
        <ele>336</ele>
        <time>2012-03-03T21:19:56Z</time>
      </trkpt>
      <trkpt lat="43.97503" lon="3.57557">
        <ele>345</ele>
        <time>2012-03-03T21:20:01Z</time>
      </trkpt>
      <trkpt lat="43.97507" lon="3.57558">
        <ele>346</ele>
        <time>2012-03-03T21:20:06Z</time>
      </trkpt>
      <trkpt lat="43.97512" lon="3.57557">
        <ele>346</ele>
        <time>2012-03-03T21:20:11Z</time>
      </trkpt>
      <trkpt lat="43.97518" lon="3.57558">
        <ele>346</ele>
        <time>2012-03-03T21:20:16Z</time>
      </trkpt>
      <trkpt lat="43.9752" lon="3.5756">
        <ele>346</ele>
        <time>2012-03-03T21:20:21Z</time>
      </trkpt>
      <trkpt lat="43.97525" lon="3.5756">
        <ele>346</ele>
        <time>2012-03-03T21:20:26Z</time>
      </trkpt>
      <trkpt lat="43.97532" lon="3.57565">
        <ele>346</ele>
        <time>2012-03-03T21:20:31Z</time>
      </trkpt>
      <trkpt lat="43.97541" lon="3.57567">
        <ele>347</ele>
        <time>2012-03-03T21:20:36Z</time>
      </trkpt>
      <trkpt lat="43.97544" lon="3.57573">
        <ele>347</ele>
        <time>2012-03-03T21:20:41Z</time>
      </trkpt>
      <trkpt lat="43.97547" lon="3.5758">
        <ele>347</ele>
        <time>2012-03-03T21:20:46Z</time>
      </trkpt>
      <trkpt lat="43.97547" lon="3.57587">
        <ele>345</ele>
        <time>2012-03-03T21:20:51Z</time>
      </trkpt>
      <trkpt lat="43.9755" lon="3.57594">
        <ele>345</ele>
        <time>2012-03-03T21:20:56Z</time>
      </trkpt>
      <trkpt lat="43.97542" lon="3.57602">
        <ele>344</ele>
        <time>2012-03-03T21:21:01Z</time>
      </trkpt>
      <trkpt lat="43.97535" lon="3.57608">
        <ele>343</ele>
        <time>2012-03-03T21:21:06Z</time>
      </trkpt>
      <trkpt lat="43.97526" lon="3.57616">
        <ele>343</ele>
        <time>2012-03-03T21:21:11Z</time>
      </trkpt>
      <trkpt lat="43.97518" lon="3.57618">
        <ele>342</ele>
        <time>2012-03-03T21:21:16Z</time>
      </trkpt>
      <trkpt lat="43.9751" lon="3.57616">
        <ele>342</ele>
        <time>2012-03-03T21:21:21Z</time>
      </trkpt>
      <trkpt lat="43.97504" lon="3.57618">
        <ele>342</ele>
        <time>2012-03-03T21:21:26Z</time>
      </trkpt>
      <trkpt lat="43.97495" lon="3.57621">
        <ele>331</ele>
        <time>2012-03-03T21:21:31Z</time>
      </trkpt>
      <trkpt lat="43.97493" lon="3.57624">
        <ele>331</ele>
        <time>2012-03-03T21:21:36Z</time>
      </trkpt>
      <trkpt lat="43.97497" lon="3.57644">
        <ele>331</ele>
        <time>2012-03-03T21:21:41Z</time>
      </trkpt>
      <trkpt lat="43.97499" lon="3.57657">
        <ele>334</ele>
        <time>2012-03-03T21:21:46Z</time>
      </trkpt>
      <trkpt lat="43.97507" lon="3.57669">
        <ele>335</ele>
        <time>2012-03-03T21:21:51Z</time>
      </trkpt>
      <trkpt lat="43.97502" lon="3.57685">
        <ele>333</ele>
        <time>2012-03-03T21:21:56Z</time>
      </trkpt>
      <trkpt lat="43.97504" lon="3.57699">
        <ele>331</ele>
        <time>2012-03-03T21:22:01Z</time>
      </trkpt>
      <trkpt lat="43.97505" lon="3.57713">
        <ele>329</ele>
        <time>2012-03-03T21:22:06Z</time>
      </trkpt>
      <trkpt lat="43.97503" lon="3.57725">
        <ele>327</ele>
        <time>2012-03-03T21:22:11Z</time>
      </trkpt>
      <trkpt lat="43.97498" lon="3.57739">
        <ele>321</ele>
        <time>2012-03-03T21:22:16Z</time>
      </trkpt>
      <trkpt lat="43.9749" lon="3.57748">
        <ele>321</ele>
        <time>2012-03-03T21:22:21Z</time>
      </trkpt>
      <trkpt lat="43.9748" lon="3.57747">
        <ele>320</ele>
        <time>2012-03-03T21:22:26Z</time>
      </trkpt>
      <trkpt lat="43.97472" lon="3.57747">
        <ele>319</ele>
        <time>2012-03-03T21:22:31Z</time>
      </trkpt>
      <trkpt lat="43.97464" lon="3.5775">
        <ele>310</ele>
        <time>2012-03-03T21:22:36Z</time>
      </trkpt>
      <trkpt lat="43.9747" lon="3.57758">
        <ele>310</ele>
        <time>2012-03-03T21:22:41Z</time>
      </trkpt>
      <trkpt lat="43.97482" lon="3.57767">
        <ele>312</ele>
        <time>2012-03-03T21:22:46Z</time>
      </trkpt>
      <trkpt lat="43.97488" lon="3.57774">
        <ele>311</ele>
        <time>2012-03-03T21:22:51Z</time>
      </trkpt>
      <trkpt lat="43.97478" lon="3.57773">
        <ele>310</ele>
        <time>2012-03-03T21:22:56Z</time>
      </trkpt>
      <trkpt lat="43.97469" lon="3.57775">
        <ele>309</ele>
        <time>2012-03-03T21:23:01Z</time>
      </trkpt>
      <trkpt lat="43.9746" lon="3.57774">
        <ele>308</ele>
        <time>2012-03-03T21:23:06Z</time>
      </trkpt>
      <trkpt lat="43.97452" lon="3.57782">
        <ele>306</ele>
        <time>2012-03-03T21:23:11Z</time>
      </trkpt>
      <trkpt lat="43.97457" lon="3.57794">
        <ele>306</ele>
        <time>2012-03-03T21:23:16Z</time>
      </trkpt>
      <trkpt lat="43.97454" lon="3.578">
        <ele>305</ele>
        <time>2012-03-03T21:23:21Z</time>
      </trkpt>
      <trkpt lat="43.97444" lon="3.57797">
        <ele>305</ele>
        <time>2012-03-03T21:23:26Z</time>
      </trkpt>
      <trkpt lat="43.97435" lon="3.57798">
        <ele>304</ele>
        <time>2012-03-03T21:23:31Z</time>
      </trkpt>
      <trkpt lat="43.9743" lon="3.57806">
        <ele>303</ele>
        <time>2012-03-03T21:23:36Z</time>
      </trkpt>
      <trkpt lat="43.97428" lon="3.57815">
        <ele>302</ele>
        <time>2012-03-03T21:23:41Z</time>
      </trkpt>
      <trkpt lat="43.97425" lon="3.57826">
        <ele>300</ele>
        <time>2012-03-03T21:23:46Z</time>
      </trkpt>
      <trkpt lat="43.97426" lon="3.57836">
        <ele>295</ele>
        <time>2012-03-03T21:23:51Z</time>
      </trkpt>
      <trkpt lat="43.97428" lon="3.5785">
        <ele>293</ele>
        <time>2012-03-03T21:23:56Z</time>
      </trkpt>
      <trkpt lat="43.97427" lon="3.57861">
        <ele>292</ele>
        <time>2012-03-03T21:24:01Z</time>
      </trkpt>
      <trkpt lat="43.97425" lon="3.5787">
        <ele>291</ele>
        <time>2012-03-03T21:24:06Z</time>
      </trkpt>
      <trkpt lat="43.97421" lon="3.57882">
        <ele>289</ele>
        <time>2012-03-03T21:24:11Z</time>
      </trkpt>
      <trkpt lat="43.97417" lon="3.57893">
        <ele>287</ele>
        <time>2012-03-03T21:24:16Z</time>
      </trkpt>
      <trkpt lat="43.97413" lon="3.57905">
        <ele>281</ele>
        <time>2012-03-03T21:24:21Z</time>
      </trkpt>
      <trkpt lat="43.9741" lon="3.57914">
        <ele>281</ele>
        <time>2012-03-03T21:24:26Z</time>
      </trkpt>
      <trkpt lat="43.97405" lon="3.57928">
        <ele>275</ele>
        <time>2012-03-03T21:24:31Z</time>
      </trkpt>
      <trkpt lat="43.97401" lon="3.57942">
        <ele>272</ele>
        <time>2012-03-03T21:24:36Z</time>
      </trkpt>
      <trkpt lat="43.97392" lon="3.57956">
        <ele>270</ele>
        <time>2012-03-03T21:24:41Z</time>
      </trkpt>
      <trkpt lat="43.97381" lon="3.57958">
        <ele>269</ele>
        <time>2012-03-03T21:24:46Z</time>
      </trkpt>
      <trkpt lat="43.97373" lon="3.57956">
        <ele>269</ele>
        <time>2012-03-03T21:24:51Z</time>
      </trkpt>
      <trkpt lat="43.9737" lon="3.57959">
        <ele>268</ele>
        <time>2012-03-03T21:24:56Z</time>
      </trkpt>
      <trkpt lat="43.97376" lon="3.57965">
        <ele>268</ele>
        <time>2012-03-03T21:25:01Z</time>
      </trkpt>
      <trkpt lat="43.97379" lon="3.57979">
        <ele>267</ele>
        <time>2012-03-03T21:25:06Z</time>
      </trkpt>
      <trkpt lat="43.97382" lon="3.57988">
        <ele>267</ele>
        <time>2012-03-03T21:25:11Z</time>
      </trkpt>
      <trkpt lat="43.97384" lon="3.57998">
        <ele>267</ele>
        <time>2012-03-03T21:25:16Z</time>
      </trkpt>
      <trkpt lat="43.97384" lon="3.58011">
        <ele>261</ele>
        <time>2012-03-03T21:25:21Z</time>
      </trkpt>
      <trkpt lat="43.97382" lon="3.58023">
        <ele>260</ele>
        <time>2012-03-03T21:25:26Z</time>
      </trkpt>
      <trkpt lat="43.97381" lon="3.58035">
        <ele>260</ele>
        <time>2012-03-03T21:25:31Z</time>
      </trkpt>
      <trkpt lat="43.97383" lon="3.58045">
        <ele>260</ele>
        <time>2012-03-03T21:25:36Z</time>
      </trkpt>
      <trkpt lat="43.97379" lon="3.58042">
        <ele>260</ele>
        <time>2012-03-03T21:25:41Z</time>
      </trkpt>
      <trkpt lat="43.97374" lon="3.58032">
        <ele>260</ele>
        <time>2012-03-03T21:25:46Z</time>
      </trkpt>
      <trkpt lat="43.97368" lon="3.58028">
        <ele>260</ele>
        <time>2012-03-03T21:25:51Z</time>
      </trkpt>
      <trkpt lat="43.97363" lon="3.58028">
        <ele>259</ele>
        <time>2012-03-03T21:25:56Z</time>
      </trkpt>
      <trkpt lat="43.97356" lon="3.5803">
        <ele>259</ele>
        <time>2012-03-03T21:26:01Z</time>
      </trkpt>
      <trkpt lat="43.97345" lon="3.58034">
        <ele>259</ele>
        <time>2012-03-03T21:26:06Z</time>
      </trkpt>
      <trkpt lat="43.97335" lon="3.58036">
        <ele>258</ele>
        <time>2012-03-03T21:26:11Z</time>
      </trkpt>
      <trkpt lat="43.97323" lon="3.58038">
        <ele>254</ele>
        <time>2012-03-03T21:26:16Z</time>
      </trkpt>
      <trkpt lat="43.97314" lon="3.5804">
        <ele>254</ele>
        <time>2012-03-03T21:26:21Z</time>
      </trkpt>
      <trkpt lat="43.97303" lon="3.58041">
        <ele>254</ele>
        <time>2012-03-03T21:26:26Z</time>
      </trkpt>
      <trkpt lat="43.97288" lon="3.58044">
        <ele>253</ele>
        <time>2012-03-03T21:26:31Z</time>
      </trkpt>
      <trkpt lat="43.97277" lon="3.58046">
        <ele>253</ele>
        <time>2012-03-03T21:26:36Z</time>
      </trkpt>
      <trkpt lat="43.97267" lon="3.58053">
        <ele>253</ele>
        <time>2012-03-03T21:26:41Z</time>
      </trkpt>
      <trkpt lat="43.9726" lon="3.5806">
        <ele>252</ele>
        <time>2012-03-03T21:26:46Z</time>
      </trkpt>
      <trkpt lat="43.97253" lon="3.58068">
        <ele>252</ele>
        <time>2012-03-03T21:26:51Z</time>
      </trkpt>
      <trkpt lat="43.97245" lon="3.58079">
        <ele>251</ele>
        <time>2012-03-03T21:26:56Z</time>
      </trkpt>
      <trkpt lat="43.97232" lon="3.58087">
        <ele>251</ele>
        <time>2012-03-03T21:27:01Z</time>
      </trkpt>
      <trkpt lat="43.97221" lon="3.58089">
        <ele>251</ele>
        <time>2012-03-03T21:27:06Z</time>
      </trkpt>
      <trkpt lat="43.97211" lon="3.58089">
        <ele>251</ele>
        <time>2012-03-03T21:27:11Z</time>
      </trkpt>
      <trkpt lat="43.97198" lon="3.58089">
        <ele>251</ele>
        <time>2012-03-03T21:27:16Z</time>
      </trkpt>
      <trkpt lat="43.97183" lon="3.58089">
        <ele>251</ele>
        <time>2012-03-03T21:27:21Z</time>
      </trkpt>
      <trkpt lat="43.97174" lon="3.58094">
        <ele>251</ele>
        <time>2012-03-03T21:27:26Z</time>
      </trkpt>
      <trkpt lat="43.97173" lon="3.58105">
        <ele>251</ele>
        <time>2012-03-03T21:27:31Z</time>
      </trkpt>
      <trkpt lat="43.97176" lon="3.58118">
        <ele>252</ele>
        <time>2012-03-03T21:27:36Z</time>
      </trkpt>
      <trkpt lat="43.97176" lon="3.58132">
        <ele>252</ele>
        <time>2012-03-03T21:27:41Z</time>
      </trkpt>
      <trkpt lat="43.97168" lon="3.58146">
        <ele>252</ele>
        <time>2012-03-03T21:27:46Z</time>
      </trkpt>
      <trkpt lat="43.97164" lon="3.58156">
        <ele>251</ele>
        <time>2012-03-03T21:27:51Z</time>
      </trkpt>
      <trkpt lat="43.97159" lon="3.58168">
        <ele>251</ele>
        <time>2012-03-03T21:27:56Z</time>
      </trkpt>
      <trkpt lat="43.97155" lon="3.58182">
        <ele>250</ele>
        <time>2012-03-03T21:28:01Z</time>
      </trkpt>
      <trkpt lat="43.97151" lon="3.58196">
        <ele>249</ele>
        <time>2012-03-03T21:28:06Z</time>
      </trkpt>
      <trkpt lat="43.97146" lon="3.58207">
        <ele>248</ele>
        <time>2012-03-03T21:28:11Z</time>
      </trkpt>
      <trkpt lat="43.97135" lon="3.58208">
        <ele>248</ele>
        <time>2012-03-03T21:28:16Z</time>
      </trkpt>
      <trkpt lat="43.97121" lon="3.58207">
        <ele>248</ele>
        <time>2012-03-03T21:28:21Z</time>
      </trkpt>
      <trkpt lat="43.97108" lon="3.58207">
        <ele>247</ele>
        <time>2012-03-03T21:28:26Z</time>
      </trkpt>
      <trkpt lat="43.97093" lon="3.58209">
        <ele>247</ele>
        <time>2012-03-03T21:28:31Z</time>
      </trkpt>
      <trkpt lat="43.97084" lon="3.58213">
        <ele>247</ele>
        <time>2012-03-03T21:28:36Z</time>
      </trkpt>
      <trkpt lat="43.97074" lon="3.5822">
        <ele>247</ele>
        <time>2012-03-03T21:28:41Z</time>
      </trkpt>
      <trkpt lat="43.97065" lon="3.58228">
        <ele>247</ele>
        <time>2012-03-03T21:28:46Z</time>
      </trkpt>
      <trkpt lat="43.97056" lon="3.5824">
        <ele>247</ele>
        <time>2012-03-03T21:28:51Z</time>
      </trkpt>
      <trkpt lat="43.97051" lon="3.58253">
        <ele>246</ele>
        <time>2012-03-03T21:28:56Z</time>
      </trkpt>
      <trkpt lat="43.97048" lon="3.58262">
        <ele>246</ele>
        <time>2012-03-03T21:29:01Z</time>
      </trkpt>
      <trkpt lat="43.97045" lon="3.58273">
        <ele>246</ele>
        <time>2012-03-03T21:29:06Z</time>
      </trkpt>
      <trkpt lat="43.9704" lon="3.58288">
        <ele>246</ele>
        <time>2012-03-03T21:29:11Z</time>
      </trkpt>
      <trkpt lat="43.9703" lon="3.58306">
        <ele>247</ele>
        <time>2012-03-03T21:29:16Z</time>
      </trkpt>
      <trkpt lat="43.97026" lon="3.58316">
        <ele>247</ele>
        <time>2012-03-03T21:29:21Z</time>
      </trkpt>
      <trkpt lat="43.97021" lon="3.58329">
        <ele>246</ele>
        <time>2012-03-03T21:29:26Z</time>
      </trkpt>
      <trkpt lat="43.97014" lon="3.58343">
        <ele>247</ele>
        <time>2012-03-03T21:29:31Z</time>
      </trkpt>
      <trkpt lat="43.97008" lon="3.58359">
        <ele>247</ele>
        <time>2012-03-03T21:29:36Z</time>
      </trkpt>
      <trkpt lat="43.97005" lon="3.58369">
        <ele>247</ele>
        <time>2012-03-03T21:29:41Z</time>
      </trkpt>
      <trkpt lat="43.97003" lon="3.58376">
        <ele>247</ele>
        <time>2012-03-03T21:29:46Z</time>
      </trkpt>
      <trkpt lat="43.97002" lon="3.58384">
        <ele>247</ele>
        <time>2012-03-03T21:29:51Z</time>
      </trkpt>
      <trkpt lat="43.97" lon="3.58394">
        <ele>247</ele>
        <time>2012-03-03T21:29:56Z</time>
      </trkpt>
      <trkpt lat="43.96994" lon="3.5841">
        <ele>248</ele>
        <time>2012-03-03T21:30:01Z</time>
      </trkpt>
      <trkpt lat="43.9699" lon="3.58423">
        <ele>249</ele>
        <time>2012-03-03T21:30:06Z</time>
      </trkpt>
      <trkpt lat="43.9699" lon="3.58434">
        <ele>250</ele>
        <time>2012-03-03T21:30:11Z</time>
      </trkpt>
      <trkpt lat="43.96986" lon="3.58448">
        <ele>251</ele>
        <time>2012-03-03T21:30:16Z</time>
      </trkpt>
      <trkpt lat="43.96984" lon="3.58463">
        <ele>252</ele>
        <time>2012-03-03T21:30:21Z</time>
      </trkpt>
      <trkpt lat="43.96981" lon="3.58483">
        <ele>251</ele>
        <time>2012-03-03T21:30:26Z</time>
      </trkpt>
      <trkpt lat="43.96979" lon="3.58495">
        <ele>251</ele>
        <time>2012-03-03T21:30:31Z</time>
      </trkpt>
      <trkpt lat="43.96979" lon="3.5851">
        <ele>252</ele>
        <time>2012-03-03T21:30:36Z</time>
      </trkpt>
      <trkpt lat="43.96982" lon="3.58527">
        <ele>252</ele>
        <time>2012-03-03T21:30:41Z</time>
      </trkpt>
      <trkpt lat="43.96984" lon="3.58545">
        <ele>253</ele>
        <time>2012-03-03T21:30:46Z</time>
      </trkpt>
      <trkpt lat="43.96985" lon="3.58561">
        <ele>252</ele>
        <time>2012-03-03T21:30:51Z</time>
      </trkpt>
      <trkpt lat="43.96986" lon="3.58574">
        <ele>251</ele>
        <time>2012-03-03T21:30:56Z</time>
      </trkpt>
      <trkpt lat="43.96987" lon="3.5859">
        <ele>253</ele>
        <time>2012-03-03T21:31:01Z</time>
      </trkpt>
      <trkpt lat="43.9699" lon="3.58605">
        <ele>255</ele>
        <time>2012-03-03T21:31:06Z</time>
      </trkpt>
      <trkpt lat="43.96989" lon="3.58621">
        <ele>257</ele>
        <time>2012-03-03T21:31:11Z</time>
      </trkpt>
      <trkpt lat="43.96993" lon="3.58629">
        <ele>257</ele>
        <time>2012-03-03T21:31:16Z</time>
      </trkpt>
      <trkpt lat="43.96999" lon="3.58635">
        <ele>257</ele>
        <time>2012-03-03T21:31:21Z</time>
      </trkpt>
      <trkpt lat="43.97009" lon="3.58642">
        <ele>249</ele>
        <time>2012-03-03T21:31:26Z</time>
      </trkpt>
      <trkpt lat="43.97018" lon="3.58653">
        <ele>249</ele>
        <time>2012-03-03T21:31:31Z</time>
      </trkpt>
      <trkpt lat="43.97026" lon="3.58661">
        <ele>248</ele>
        <time>2012-03-03T21:31:36Z</time>
      </trkpt>
      <trkpt lat="43.97032" lon="3.58664">
        <ele>248</ele>
        <time>2012-03-03T21:31:41Z</time>
      </trkpt>
      <trkpt lat="43.97045" lon="3.58674">
        <ele>249</ele>
        <time>2012-03-03T21:31:46Z</time>
      </trkpt>
      <trkpt lat="43.97057" lon="3.58684">
        <ele>249</ele>
        <time>2012-03-03T21:31:51Z</time>
      </trkpt>
      <trkpt lat="43.97071" lon="3.58695">
        <ele>248</ele>
        <time>2012-03-03T21:31:56Z</time>
      </trkpt>
      <trkpt lat="43.97078" lon="3.58699">
        <ele>248</ele>
        <time>2012-03-03T21:32:01Z</time>
      </trkpt>
      <trkpt lat="43.97089" lon="3.58701">
        <ele>245</ele>
        <time>2012-03-03T21:32:06Z</time>
      </trkpt>
      <trkpt lat="43.97099" lon="3.58706">
        <ele>245</ele>
        <time>2012-03-03T21:32:11Z</time>
      </trkpt>
      <trkpt lat="43.97104" lon="3.58708">
        <ele>245</ele>
        <time>2012-03-03T21:32:16Z</time>
      </trkpt>
      <trkpt lat="43.97107" lon="3.58709">
        <ele>245</ele>
        <time>2012-03-03T21:32:21Z</time>
      </trkpt>
      <trkpt lat="43.97111" lon="3.58711">
        <ele>245</ele>
        <time>2012-03-03T21:32:26Z</time>
      </trkpt>
      <trkpt lat="43.97114" lon="3.58712">
        <ele>245</ele>
        <time>2012-03-03T21:32:31Z</time>
      </trkpt>
      <trkpt lat="43.97124" lon="3.58716">
        <ele>244</ele>
        <time>2012-03-03T21:32:36Z</time>
      </trkpt>
      <trkpt lat="43.97132" lon="3.58726">
        <ele>244</ele>
        <time>2012-03-03T21:32:41Z</time>
      </trkpt>
      <trkpt lat="43.9714" lon="3.58735">
        <ele>244</ele>
        <time>2012-03-03T21:32:46Z</time>
      </trkpt>
      <trkpt lat="43.97147" lon="3.58743">
        <ele>244</ele>
        <time>2012-03-03T21:32:51Z</time>
      </trkpt>
      <trkpt lat="43.97156" lon="3.58753">
        <ele>243</ele>
        <time>2012-03-03T21:32:56Z</time>
      </trkpt>
      <trkpt lat="43.97166" lon="3.58761">
        <ele>243</ele>
        <time>2012-03-03T21:33:01Z</time>
      </trkpt>
      <trkpt lat="43.97175" lon="3.5877">
        <ele>244</ele>
        <time>2012-03-03T21:33:06Z</time>
      </trkpt>
      <trkpt lat="43.97183" lon="3.58778">
        <ele>244</ele>
        <time>2012-03-03T21:33:11Z</time>
      </trkpt>
      <trkpt lat="43.97189" lon="3.58784">
        <ele>244</ele>
        <time>2012-03-03T21:33:16Z</time>
      </trkpt>
      <trkpt lat="43.97198" lon="3.58789">
        <ele>244</ele>
        <time>2012-03-03T21:33:21Z</time>
      </trkpt>
      <trkpt lat="43.97209" lon="3.58798">
        <ele>245</ele>
        <time>2012-03-03T21:33:26Z</time>
      </trkpt>
      <trkpt lat="43.97217" lon="3.58805">
        <ele>245</ele>
        <time>2012-03-03T21:33:31Z</time>
      </trkpt>
      <trkpt lat="43.97223" lon="3.5881">
        <ele>245</ele>
        <time>2012-03-03T21:33:36Z</time>
      </trkpt>
      <trkpt lat="43.97231" lon="3.58816">
        <ele>246</ele>
        <time>2012-03-03T21:33:41Z</time>
      </trkpt>
      <trkpt lat="43.97238" lon="3.58827">
        <ele>246</ele>
        <time>2012-03-03T21:33:46Z</time>
      </trkpt>
      <trkpt lat="43.97242" lon="3.58835">
        <ele>246</ele>
        <time>2012-03-03T21:33:51Z</time>
      </trkpt>
      <trkpt lat="43.97243" lon="3.58841">
        <ele>246</ele>
        <time>2012-03-03T21:33:56Z</time>
      </trkpt>
      <trkpt lat="43.97244" lon="3.58844">
        <ele>246</ele>
        <time>2012-03-03T21:34:01Z</time>
      </trkpt>
      <trkpt lat="43.97246" lon="3.58845">
        <ele>246</ele>
        <time>2012-03-03T21:34:06Z</time>
      </trkpt>
      <trkpt lat="43.97245" lon="3.58846">
        <ele>246</ele>
        <time>2012-03-03T21:34:11Z</time>
      </trkpt>
      <trkpt lat="43.97244" lon="3.58846">
        <ele>246</ele>
        <time>2012-03-03T21:34:16Z</time>
      </trkpt>
      <trkpt lat="43.97246" lon="3.58843">
        <ele>246</ele>
        <time>2012-03-03T21:34:21Z</time>
      </trkpt>
      <trkpt lat="43.97247" lon="3.5884">
        <ele>246</ele>
        <time>2012-03-03T21:34:26Z</time>
      </trkpt>
      <trkpt lat="43.9725" lon="3.58839">
        <ele>246</ele>
        <time>2012-03-03T21:34:31Z</time>
      </trkpt>
      <trkpt lat="43.97253" lon="3.58837">
        <ele>247</ele>
        <time>2012-03-03T21:34:36Z</time>
      </trkpt>
      <trkpt lat="43.97255" lon="3.58833">
        <ele>247</ele>
        <time>2012-03-03T21:34:41Z</time>
      </trkpt>
      <trkpt lat="43.97257" lon="3.5883">
        <ele>248</ele>
        <time>2012-03-03T21:34:46Z</time>
      </trkpt>
      <trkpt lat="43.97263" lon="3.58832">
        <ele>248</ele>
        <time>2012-03-03T21:34:51Z</time>
      </trkpt>
      <trkpt lat="43.97268" lon="3.58846">
        <ele>248</ele>
        <time>2012-03-03T21:34:56Z</time>
      </trkpt>
      <trkpt lat="43.97268" lon="3.58858">
        <ele>248</ele>
        <time>2012-03-03T21:35:01Z</time>
      </trkpt>
      <trkpt lat="43.97269" lon="3.58868">
        <ele>248</ele>
        <time>2012-03-03T21:35:06Z</time>
      </trkpt>
      <trkpt lat="43.97271" lon="3.58882">
        <ele>248</ele>
        <time>2012-03-03T21:35:11Z</time>
      </trkpt>
      <trkpt lat="43.97274" lon="3.58896">
        <ele>247</ele>
        <time>2012-03-03T21:35:16Z</time>
      </trkpt>
      <trkpt lat="43.97277" lon="3.58912">
        <ele>247</ele>
        <time>2012-03-03T21:35:21Z</time>
      </trkpt>
      <trkpt lat="43.9728" lon="3.58925">
        <ele>247</ele>
        <time>2012-03-03T21:35:26Z</time>
      </trkpt>
      <trkpt lat="43.97282" lon="3.58937">
        <ele>247</ele>
        <time>2012-03-03T21:35:31Z</time>
      </trkpt>
      <trkpt lat="43.97284" lon="3.58953">
        <ele>247</ele>
        <time>2012-03-03T21:35:36Z</time>
      </trkpt>
      <trkpt lat="43.97286" lon="3.58971">
        <ele>247</ele>
        <time>2012-03-03T21:35:41Z</time>
      </trkpt>
      <trkpt lat="43.97284" lon="3.58986">
        <ele>247</ele>
        <time>2012-03-03T21:35:46Z</time>
      </trkpt>
      <trkpt lat="43.97284" lon="3.58998">
        <ele>247</ele>
        <time>2012-03-03T21:35:51Z</time>
      </trkpt>
      <trkpt lat="43.97285" lon="3.59012">
        <ele>246</ele>
        <time>2012-03-03T21:35:56Z</time>
      </trkpt>
      <trkpt lat="43.97287" lon="3.59026">
        <ele>246</ele>
        <time>2012-03-03T21:36:01Z</time>
      </trkpt>
      <trkpt lat="43.97291" lon="3.59042">
        <ele>246</ele>
        <time>2012-03-03T21:36:06Z</time>
      </trkpt>
      <trkpt lat="43.97292" lon="3.59056">
        <ele>246</ele>
        <time>2012-03-03T21:36:11Z</time>
      </trkpt>
      <trkpt lat="43.97294" lon="3.59068">
        <ele>246</ele>
        <time>2012-03-03T21:36:16Z</time>
      </trkpt>
      <trkpt lat="43.97297" lon="3.59082">
        <ele>246</ele>
        <time>2012-03-03T21:36:21Z</time>
      </trkpt>
      <trkpt lat="43.973" lon="3.591">
        <ele>245</ele>
        <time>2012-03-03T21:36:26Z</time>
      </trkpt>
      <trkpt lat="43.97302" lon="3.59113">
        <ele>245</ele>
        <time>2012-03-03T21:36:31Z</time>
      </trkpt>
      <trkpt lat="43.97306" lon="3.59128">
        <ele>245</ele>
        <time>2012-03-03T21:36:36Z</time>
      </trkpt>
      <trkpt lat="43.97307" lon="3.59141">
        <ele>245</ele>
        <time>2012-03-03T21:36:41Z</time>
      </trkpt>
      <trkpt lat="43.9731" lon="3.59155">
        <ele>245</ele>
        <time>2012-03-03T21:36:46Z</time>
      </trkpt>
      <trkpt lat="43.97313" lon="3.59172">
        <ele>245</ele>
        <time>2012-03-03T21:36:51Z</time>
      </trkpt>
      <trkpt lat="43.97318" lon="3.59186">
        <ele>245</ele>
        <time>2012-03-03T21:36:56Z</time>
      </trkpt>
      <trkpt lat="43.97319" lon="3.59197">
        <ele>245</ele>
        <time>2012-03-03T21:37:01Z</time>
      </trkpt>
      <trkpt lat="43.97319" lon="3.59213">
        <ele>245</ele>
        <time>2012-03-03T21:37:06Z</time>
      </trkpt>
      <trkpt lat="43.97316" lon="3.59229">
        <ele>245</ele>
        <time>2012-03-03T21:37:11Z</time>
      </trkpt>
      <trkpt lat="43.97311" lon="3.59248">
        <ele>245</ele>
        <time>2012-03-03T21:37:16Z</time>
      </trkpt>
      <trkpt lat="43.97308" lon="3.59261">
        <ele>245</ele>
        <time>2012-03-03T21:37:21Z</time>
      </trkpt>
      <trkpt lat="43.97304" lon="3.59277">
        <ele>245</ele>
        <time>2012-03-03T21:37:26Z</time>
      </trkpt>
      <trkpt lat="43.97301" lon="3.59293">
        <ele>245</ele>
        <time>2012-03-03T21:37:31Z</time>
      </trkpt>
      <trkpt lat="43.97299" lon="3.5931">
        <ele>244</ele>
        <time>2012-03-03T21:37:36Z</time>
      </trkpt>
      <trkpt lat="43.97295" lon="3.59329">
        <ele>244</ele>
        <time>2012-03-03T21:37:41Z</time>
      </trkpt>
      <trkpt lat="43.97293" lon="3.5934">
        <ele>244</ele>
        <time>2012-03-03T21:37:46Z</time>
      </trkpt>
      <trkpt lat="43.9729" lon="3.59355">
        <ele>243</ele>
        <time>2012-03-03T21:37:51Z</time>
      </trkpt>
      <trkpt lat="43.97286" lon="3.59369">
        <ele>243</ele>
        <time>2012-03-03T21:37:56Z</time>
      </trkpt>
      <trkpt lat="43.97281" lon="3.59387">
        <ele>243</ele>
        <time>2012-03-03T21:38:01Z</time>
      </trkpt>
      <trkpt lat="43.97276" lon="3.59398">
        <ele>243</ele>
        <time>2012-03-03T21:38:06Z</time>
      </trkpt>
      <trkpt lat="43.9727" lon="3.59413">
        <ele>243</ele>
        <time>2012-03-03T21:38:11Z</time>
      </trkpt>
      <trkpt lat="43.97265" lon="3.59427">
        <ele>243</ele>
        <time>2012-03-03T21:38:16Z</time>
      </trkpt>
      <trkpt lat="43.9726" lon="3.59444">
        <ele>242</ele>
        <time>2012-03-03T21:38:21Z</time>
      </trkpt>
      <trkpt lat="43.97254" lon="3.59459">
        <ele>242</ele>
        <time>2012-03-03T21:38:26Z</time>
      </trkpt>
      <trkpt lat="43.97252" lon="3.59472">
        <ele>241</ele>
        <time>2012-03-03T21:38:31Z</time>
      </trkpt>
      <trkpt lat="43.9725" lon="3.59487">
        <ele>241</ele>
        <time>2012-03-03T21:38:36Z</time>
      </trkpt>
      <trkpt lat="43.9725" lon="3.59503">
        <ele>240</ele>
        <time>2012-03-03T21:38:41Z</time>
      </trkpt>
      <trkpt lat="43.97251" lon="3.59523">
        <ele>239</ele>
        <time>2012-03-03T21:38:46Z</time>
      </trkpt>
      <trkpt lat="43.97252" lon="3.59539">
        <ele>239</ele>
        <time>2012-03-03T21:38:51Z</time>
      </trkpt>
      <trkpt lat="43.97252" lon="3.59552">
        <ele>239</ele>
        <time>2012-03-03T21:38:56Z</time>
      </trkpt>
      <trkpt lat="43.97252" lon="3.59568">
        <ele>239</ele>
        <time>2012-03-03T21:39:01Z</time>
      </trkpt>
      <trkpt lat="43.9725" lon="3.59586">
        <ele>238</ele>
        <time>2012-03-03T21:39:06Z</time>
      </trkpt>
      <trkpt lat="43.97248" lon="3.59602">
        <ele>238</ele>
        <time>2012-03-03T21:39:11Z</time>
      </trkpt>
      <trkpt lat="43.97245" lon="3.59615">
        <ele>238</ele>
        <time>2012-03-03T21:39:16Z</time>
      </trkpt>
      <trkpt lat="43.9724" lon="3.59629">
        <ele>239</ele>
        <time>2012-03-03T21:39:21Z</time>
      </trkpt>
      <trkpt lat="43.97235" lon="3.59643">
        <ele>239</ele>
        <time>2012-03-03T21:39:26Z</time>
      </trkpt>
      <trkpt lat="43.97229" lon="3.59658">
        <ele>239</ele>
        <time>2012-03-03T21:39:31Z</time>
      </trkpt>
      <trkpt lat="43.97225" lon="3.59671">
        <ele>239</ele>
        <time>2012-03-03T21:39:36Z</time>
      </trkpt>
      <trkpt lat="43.97223" lon="3.59679">
        <ele>239</ele>
        <time>2012-03-03T21:39:41Z</time>
      </trkpt>
      <trkpt lat="43.97218" lon="3.59693">
        <ele>239</ele>
        <time>2012-03-03T21:39:46Z</time>
      </trkpt>
      <trkpt lat="43.97213" lon="3.59706">
        <ele>239</ele>
        <time>2012-03-03T21:39:51Z</time>
      </trkpt>
      <trkpt lat="43.97211" lon="3.59723">
        <ele>239</ele>
        <time>2012-03-03T21:39:56Z</time>
      </trkpt>
      <trkpt lat="43.97213" lon="3.59737">
        <ele>239</ele>
        <time>2012-03-03T21:40:01Z</time>
      </trkpt>
      <trkpt lat="43.97215" lon="3.59749">
        <ele>239</ele>
        <time>2012-03-03T21:40:06Z</time>
      </trkpt>
      <trkpt lat="43.97218" lon="3.59762">
        <ele>240</ele>
        <time>2012-03-03T21:40:11Z</time>
      </trkpt>
      <trkpt lat="43.97221" lon="3.5978">
        <ele>240</ele>
        <time>2012-03-03T21:40:16Z</time>
      </trkpt>
      <trkpt lat="43.9722" lon="3.59794">
        <ele>241</ele>
        <time>2012-03-03T21:40:21Z</time>
      </trkpt>
      <trkpt lat="43.97215" lon="3.59802">
        <ele>241</ele>
        <time>2012-03-03T21:40:26Z</time>
      </trkpt>
      <trkpt lat="43.97204" lon="3.59811">
        <ele>241</ele>
        <time>2012-03-03T21:40:31Z</time>
      </trkpt>
      <trkpt lat="43.97195" lon="3.59815">
        <ele>241</ele>
        <time>2012-03-03T21:40:36Z</time>
      </trkpt>
      <trkpt lat="43.97184" lon="3.59824">
        <ele>241</ele>
        <time>2012-03-03T21:40:41Z</time>
      </trkpt>
      <trkpt lat="43.97182" lon="3.59834">
        <ele>243</ele>
        <time>2012-03-03T21:40:46Z</time>
      </trkpt>
      <trkpt lat="43.97183" lon="3.59848">
        <ele>243</ele>
        <time>2012-03-03T21:40:51Z</time>
      </trkpt>
      <trkpt lat="43.97184" lon="3.59861">
        <ele>244</ele>
        <time>2012-03-03T21:40:56Z</time>
      </trkpt>
      <trkpt lat="43.97189" lon="3.59878">
        <ele>245</ele>
        <time>2012-03-03T21:41:01Z</time>
      </trkpt>
      <trkpt lat="43.97189" lon="3.59891">
        <ele>246</ele>
        <time>2012-03-03T21:41:06Z</time>
      </trkpt>
      <trkpt lat="43.97189" lon="3.599">
        <ele>246</ele>
        <time>2012-03-03T21:41:11Z</time>
      </trkpt>
      <trkpt lat="43.97188" lon="3.59907">
        <ele>247</ele>
        <time>2012-03-03T21:41:16Z</time>
      </trkpt>
      <trkpt lat="43.97184" lon="3.59909">
        <ele>247</ele>
        <time>2012-03-03T21:41:21Z</time>
      </trkpt>
      <trkpt lat="43.97178" lon="3.59911">
        <ele>247</ele>
        <time>2012-03-03T21:41:26Z</time>
      </trkpt>
      <trkpt lat="43.97173" lon="3.59916">
        <ele>248</ele>
        <time>2012-03-03T21:41:31Z</time>
      </trkpt>
      <trkpt lat="43.97166" lon="3.59922">
        <ele>249</ele>
        <time>2012-03-03T21:41:36Z</time>
      </trkpt>
      <trkpt lat="43.97162" lon="3.59932">
        <ele>249</ele>
        <time>2012-03-03T21:41:41Z</time>
      </trkpt>
      <trkpt lat="43.97149" lon="3.59938">
        <ele>249</ele>
        <time>2012-03-03T21:41:46Z</time>
      </trkpt>
      <trkpt lat="43.97144" lon="3.59945">
        <ele>250</ele>
        <time>2012-03-03T21:41:51Z</time>
      </trkpt>
      <trkpt lat="43.97143" lon="3.59953">
        <ele>250</ele>
        <time>2012-03-03T21:41:56Z</time>
      </trkpt>
      <trkpt lat="43.97152" lon="3.5996">
        <ele>250</ele>
        <time>2012-03-03T21:42:01Z</time>
      </trkpt>
      <trkpt lat="43.97162" lon="3.59965">
        <ele>251</ele>
        <time>2012-03-03T21:42:06Z</time>
      </trkpt>
      <trkpt lat="43.97164" lon="3.59968">
        <ele>251</ele>
        <time>2012-03-03T21:42:11Z</time>
      </trkpt>
      <trkpt lat="43.97169" lon="3.59971">
        <ele>253</ele>
        <time>2012-03-03T21:42:16Z</time>
      </trkpt>
      <trkpt lat="43.97173" lon="3.59973">
        <ele>253</ele>
        <time>2012-03-03T21:42:21Z</time>
      </trkpt>
      <trkpt lat="43.9718" lon="3.59985">
        <ele>254</ele>
        <time>2012-03-03T21:42:26Z</time>
      </trkpt>
      <trkpt lat="43.9718" lon="3.59994">
        <ele>254</ele>
        <time>2012-03-03T21:42:31Z</time>
      </trkpt>
      <trkpt lat="43.97182" lon="3.6">
        <ele>258</ele>
        <time>2012-03-03T21:42:36Z</time>
      </trkpt>
      <trkpt lat="43.97182" lon="3.60003">
        <ele>258</ele>
        <time>2012-03-03T21:42:41Z</time>
      </trkpt>
      <trkpt lat="43.97177" lon="3.60007">
        <ele>257</ele>
        <time>2012-03-03T21:42:46Z</time>
      </trkpt>
      <trkpt lat="43.97174" lon="3.60012">
        <ele>258</ele>
        <time>2012-03-03T21:42:51Z</time>
      </trkpt>
      <trkpt lat="43.97173" lon="3.60022">
        <ele>259</ele>
        <time>2012-03-03T21:42:56Z</time>
      </trkpt>
      <trkpt lat="43.97172" lon="3.60029">
        <ele>260</ele>
        <time>2012-03-03T21:43:01Z</time>
      </trkpt>
      <trkpt lat="43.97171" lon="3.60034">
        <ele>260</ele>
        <time>2012-03-03T21:43:06Z</time>
      </trkpt>
      <trkpt lat="43.97168" lon="3.60041">
        <ele>261</ele>
        <time>2012-03-03T21:43:11Z</time>
      </trkpt>
      <trkpt lat="43.97167" lon="3.60049">
        <ele>261</ele>
        <time>2012-03-03T21:43:16Z</time>
      </trkpt>
      <trkpt lat="43.97167" lon="3.6006">
        <ele>262</ele>
        <time>2012-03-03T21:43:21Z</time>
      </trkpt>
      <trkpt lat="43.97166" lon="3.60068">
        <ele>261</ele>
        <time>2012-03-03T21:43:26Z</time>
      </trkpt>
      <trkpt lat="43.97164" lon="3.60074">
        <ele>262</ele>
        <time>2012-03-03T21:43:31Z</time>
      </trkpt>
      <trkpt lat="43.97161" lon="3.60082">
        <ele>262</ele>
        <time>2012-03-03T21:43:36Z</time>
      </trkpt>
      <trkpt lat="43.97157" lon="3.60091">
        <ele>264</ele>
        <time>2012-03-03T21:43:41Z</time>
      </trkpt>
      <trkpt lat="43.97157" lon="3.60099">
        <ele>264</ele>
        <time>2012-03-03T21:43:46Z</time>
      </trkpt>
      <trkpt lat="43.97156" lon="3.60103">
        <ele>264</ele>
        <time>2012-03-03T21:43:51Z</time>
      </trkpt>
      <trkpt lat="43.9716" lon="3.60112">
        <ele>265</ele>
        <time>2012-03-03T21:43:56Z</time>
      </trkpt>
      <trkpt lat="43.97169" lon="3.60121">
        <ele>268</ele>
        <time>2012-03-03T21:44:01Z</time>
      </trkpt>
      <trkpt lat="43.97169" lon="3.60129">
        <ele>269</ele>
        <time>2012-03-03T21:44:06Z</time>
      </trkpt>
      <trkpt lat="43.97179" lon="3.60127">
        <ele>269</ele>
        <time>2012-03-03T21:44:11Z</time>
      </trkpt>
      <trkpt lat="43.97186" lon="3.60134">
        <ele>269</ele>
        <time>2012-03-03T21:44:16Z</time>
      </trkpt>
      <trkpt lat="43.9719" lon="3.60144">
        <ele>270</ele>
        <time>2012-03-03T21:44:21Z</time>
      </trkpt>
      <trkpt lat="43.97195" lon="3.60144">
        <ele>270</ele>
        <time>2012-03-03T21:44:26Z</time>
      </trkpt>
      <trkpt lat="43.97201" lon="3.6014">
        <ele>270</ele>
        <time>2012-03-03T21:44:31Z</time>
      </trkpt>
      <trkpt lat="43.97204" lon="3.60135">
        <ele>270</ele>
        <time>2012-03-03T21:44:36Z</time>
      </trkpt>
      <trkpt lat="43.97209" lon="3.60131">
        <ele>270</ele>
        <time>2012-03-03T21:44:41Z</time>
      </trkpt>
      <trkpt lat="43.97212" lon="3.60125">
        <ele>270</ele>
        <time>2012-03-03T21:44:46Z</time>
      </trkpt>
      <trkpt lat="43.97215" lon="3.60123">
        <ele>270</ele>
        <time>2012-03-03T21:44:51Z</time>
      </trkpt>
      <trkpt lat="43.9722" lon="3.60121">
        <ele>270</ele>
        <time>2012-03-03T21:44:56Z</time>
      </trkpt>
      <trkpt lat="43.97223" lon="3.60119">
        <ele>270</ele>
        <time>2012-03-03T21:45:01Z</time>
      </trkpt>
      <trkpt lat="43.97228" lon="3.60117">
        <ele>270</ele>
        <time>2012-03-03T21:45:06Z</time>
      </trkpt>
      <trkpt lat="43.97237" lon="3.60116">
        <ele>270</ele>
        <time>2012-03-03T21:45:11Z</time>
      </trkpt>
      <trkpt lat="43.97243" lon="3.60113">
        <ele>270</ele>
        <time>2012-03-03T21:45:16Z</time>
      </trkpt>
      <trkpt lat="43.97249" lon="3.60104">
        <ele>270</ele>
        <time>2012-03-03T21:45:21Z</time>
      </trkpt>
      <trkpt lat="43.97256" lon="3.60094">
        <ele>270</ele>
        <time>2012-03-03T21:45:26Z</time>
      </trkpt>
      <trkpt lat="43.97265" lon="3.60085">
        <ele>269</ele>
        <time>2012-03-03T21:45:31Z</time>
      </trkpt>
      <trkpt lat="43.97277" lon="3.60081">
        <ele>263</ele>
        <time>2012-03-03T21:45:36Z</time>
      </trkpt>
      <trkpt lat="43.97289" lon="3.60077">
        <ele>261</ele>
        <time>2012-03-03T21:45:41Z</time>
      </trkpt>
      <trkpt lat="43.97302" lon="3.60079">
        <ele>261</ele>
        <time>2012-03-03T21:45:46Z</time>
      </trkpt>
      <trkpt lat="43.97317" lon="3.60084">
        <ele>266</ele>
        <time>2012-03-03T21:45:51Z</time>
      </trkpt>
      <trkpt lat="43.97329" lon="3.60103">
        <ele>267</ele>
        <time>2012-03-03T21:45:56Z</time>
      </trkpt>
      <trkpt lat="43.97335" lon="3.60118">
        <ele>264</ele>
        <time>2012-03-03T21:46:01Z</time>
      </trkpt>
      <trkpt lat="43.97342" lon="3.60131">
        <ele>265</ele>
        <time>2012-03-03T21:46:06Z</time>
      </trkpt>
      <trkpt lat="43.97346" lon="3.60142">
        <ele>266</ele>
        <time>2012-03-03T21:46:11Z</time>
      </trkpt>
      <trkpt lat="43.97358" lon="3.60159">
        <ele>266</ele>
        <time>2012-03-03T21:46:16Z</time>
      </trkpt>
      <trkpt lat="43.97367" lon="3.60181">
        <ele>269</ele>
        <time>2012-03-03T21:46:21Z</time>
      </trkpt>
      <trkpt lat="43.97375" lon="3.602">
        <ele>269</ele>
        <time>2012-03-03T21:46:26Z</time>
      </trkpt>
      <trkpt lat="43.97383" lon="3.6021">
        <ele>268</ele>
        <time>2012-03-03T21:46:31Z</time>
      </trkpt>
      <trkpt lat="43.97389" lon="3.60223">
        <ele>268</ele>
        <time>2012-03-03T21:46:36Z</time>
      </trkpt>
      <trkpt lat="43.97392" lon="3.60233">
        <ele>267</ele>
        <time>2012-03-03T21:46:41Z</time>
      </trkpt>
      <trkpt lat="43.97394" lon="3.60244">
        <ele>267</ele>
        <time>2012-03-03T21:46:46Z</time>
      </trkpt>
      <trkpt lat="43.97395" lon="3.60253">
        <ele>271</ele>
        <time>2012-03-03T21:46:51Z</time>
      </trkpt>
      <trkpt lat="43.97396" lon="3.6026">
        <ele>271</ele>
        <time>2012-03-03T21:46:56Z</time>
      </trkpt>
      <trkpt lat="43.97397" lon="3.60268">
        <ele>273</ele>
        <time>2012-03-03T21:47:01Z</time>
      </trkpt>
      <trkpt lat="43.97397" lon="3.60279">
        <ele>274</ele>
        <time>2012-03-03T21:47:06Z</time>
      </trkpt>
      <trkpt lat="43.97396" lon="3.60289">
        <ele>275</ele>
        <time>2012-03-03T21:47:11Z</time>
      </trkpt>
      <trkpt lat="43.97397" lon="3.60296">
        <ele>276</ele>
        <time>2012-03-03T21:47:16Z</time>
      </trkpt>
      <trkpt lat="43.97397" lon="3.60305">
        <ele>276</ele>
        <time>2012-03-03T21:47:21Z</time>
      </trkpt>
      <trkpt lat="43.97403" lon="3.6031">
        <ele>276</ele>
        <time>2012-03-03T21:47:26Z</time>
      </trkpt>
      <trkpt lat="43.9741" lon="3.60315">
        <ele>275</ele>
        <time>2012-03-03T21:47:31Z</time>
      </trkpt>
      <trkpt lat="43.97421" lon="3.60317">
        <ele>268</ele>
        <time>2012-03-03T21:47:36Z</time>
      </trkpt>
      <trkpt lat="43.9743" lon="3.60319">
        <ele>268</ele>
        <time>2012-03-03T21:47:41Z</time>
      </trkpt>
      <trkpt lat="43.97441" lon="3.60318">
        <ele>267</ele>
        <time>2012-03-03T21:47:46Z</time>
      </trkpt>
      <trkpt lat="43.97447" lon="3.60306">
        <ele>266</ele>
        <time>2012-03-03T21:47:51Z</time>
      </trkpt>
      <trkpt lat="43.97449" lon="3.60292">
        <ele>265</ele>
        <time>2012-03-03T21:47:56Z</time>
      </trkpt>
      <trkpt lat="43.9745" lon="3.60284">
        <ele>264</ele>
        <time>2012-03-03T21:48:01Z</time>
      </trkpt>
      <trkpt lat="43.97453" lon="3.60275">
        <ele>264</ele>
        <time>2012-03-03T21:48:06Z</time>
      </trkpt>
      <trkpt lat="43.97457" lon="3.60269">
        <ele>263</ele>
        <time>2012-03-03T21:48:11Z</time>
      </trkpt>
      <trkpt lat="43.97464" lon="3.60266">
        <ele>263</ele>
        <time>2012-03-03T21:48:16Z</time>
      </trkpt>
      <trkpt lat="43.9747" lon="3.60266">
        <ele>262</ele>
        <time>2012-03-03T21:48:21Z</time>
      </trkpt>
      <trkpt lat="43.97476" lon="3.60266">
        <ele>262</ele>
        <time>2012-03-03T21:48:26Z</time>
      </trkpt>
      <trkpt lat="43.97481" lon="3.60256">
        <ele>261</ele>
        <time>2012-03-03T21:48:31Z</time>
      </trkpt>
      <trkpt lat="43.97488" lon="3.60238">
        <ele>258</ele>
        <time>2012-03-03T21:48:36Z</time>
      </trkpt>
      <trkpt lat="43.97495" lon="3.60224">
        <ele>259</ele>
        <time>2012-03-03T21:48:41Z</time>
      </trkpt>
      <trkpt lat="43.97502" lon="3.60213">
        <ele>259</ele>
        <time>2012-03-03T21:48:46Z</time>
      </trkpt>
      <trkpt lat="43.97507" lon="3.60201">
        <ele>259</ele>
        <time>2012-03-03T21:48:51Z</time>
      </trkpt>
      <trkpt lat="43.97509" lon="3.60188">
        <ele>260</ele>
        <time>2012-03-03T21:48:56Z</time>
      </trkpt>
      <trkpt lat="43.97518" lon="3.60174">
        <ele>260</ele>
        <time>2012-03-03T21:49:01Z</time>
      </trkpt>
      <trkpt lat="43.97526" lon="3.60168">
        <ele>259</ele>
        <time>2012-03-03T21:49:06Z</time>
      </trkpt>
      <trkpt lat="43.97537" lon="3.60162">
        <ele>260</ele>
        <time>2012-03-03T21:49:11Z</time>
      </trkpt>
      <trkpt lat="43.97548" lon="3.60155">
        <ele>259</ele>
        <time>2012-03-03T21:49:16Z</time>
      </trkpt>
      <trkpt lat="43.97558" lon="3.60145">
        <ele>259</ele>
        <time>2012-03-03T21:49:21Z</time>
      </trkpt>
      <trkpt lat="43.97568" lon="3.60132">
        <ele>259</ele>
        <time>2012-03-03T21:49:26Z</time>
      </trkpt>
      <trkpt lat="43.97575" lon="3.60124">
        <ele>259</ele>
        <time>2012-03-03T21:49:31Z</time>
      </trkpt>
      <trkpt lat="43.97582" lon="3.60115">
        <ele>259</ele>
        <time>2012-03-03T21:49:36Z</time>
      </trkpt>
      <trkpt lat="43.97592" lon="3.60109">
        <ele>256</ele>
        <time>2012-03-03T21:49:41Z</time>
      </trkpt>
      <trkpt lat="43.97598" lon="3.60106">
        <ele>256</ele>
        <time>2012-03-03T21:49:46Z</time>
      </trkpt>
      <trkpt lat="43.97604" lon="3.60107">
        <ele>256</ele>
        <time>2012-03-03T21:49:51Z</time>
      </trkpt>
      <trkpt lat="43.97608" lon="3.60108">
        <ele>256</ele>
        <time>2012-03-03T21:49:56Z</time>
      </trkpt>
      <trkpt lat="43.97618" lon="3.60104">
        <ele>255</ele>
        <time>2012-03-03T21:50:01Z</time>
      </trkpt>
      <trkpt lat="43.97629" lon="3.6011">
        <ele>255</ele>
        <time>2012-03-03T21:50:06Z</time>
      </trkpt>
      <trkpt lat="43.97642" lon="3.60103">
        <ele>253</ele>
        <time>2012-03-03T21:50:11Z</time>
      </trkpt>
      <trkpt lat="43.97651" lon="3.60092">
        <ele>251</ele>
        <time>2012-03-03T21:50:16Z</time>
      </trkpt>
      <trkpt lat="43.97655" lon="3.60081">
        <ele>247</ele>
        <time>2012-03-03T21:50:21Z</time>
      </trkpt>
      <trkpt lat="43.97658" lon="3.60066">
        <ele>247</ele>
        <time>2012-03-03T21:50:26Z</time>
      </trkpt>
      <trkpt lat="43.9766" lon="3.60049">
        <ele>247</ele>
        <time>2012-03-03T21:50:31Z</time>
      </trkpt>
      <trkpt lat="43.9766" lon="3.60035">
        <ele>246</ele>
        <time>2012-03-03T21:50:36Z</time>
      </trkpt>
      <trkpt lat="43.97657" lon="3.60023">
        <ele>244</ele>
        <time>2012-03-03T21:50:41Z</time>
      </trkpt>
      <trkpt lat="43.97656" lon="3.60009">
        <ele>243</ele>
        <time>2012-03-03T21:50:46Z</time>
      </trkpt>
      <trkpt lat="43.97669" lon="3.60006">
        <ele>239</ele>
        <time>2012-03-03T21:50:51Z</time>
      </trkpt>
      <trkpt lat="43.9768" lon="3.60012">
        <ele>240</ele>
        <time>2012-03-03T21:50:56Z</time>
      </trkpt>
      <trkpt lat="43.97691" lon="3.60017">
        <ele>240</ele>
        <time>2012-03-03T21:51:01Z</time>
      </trkpt>
      <trkpt lat="43.977" lon="3.6002">
        <ele>240</ele>
        <time>2012-03-03T21:51:06Z</time>
      </trkpt>
      <trkpt lat="43.97711" lon="3.60019">
        <ele>240</ele>
        <time>2012-03-03T21:51:11Z</time>
      </trkpt>
      <trkpt lat="43.97724" lon="3.60012">
        <ele>240</ele>
        <time>2012-03-03T21:51:16Z</time>
      </trkpt>
      <trkpt lat="43.97731" lon="3.60001">
        <ele>239</ele>
        <time>2012-03-03T21:51:21Z</time>
      </trkpt>
      <trkpt lat="43.97737" lon="3.59991">
        <ele>237</ele>
        <time>2012-03-03T21:51:26Z</time>
      </trkpt>
      <trkpt lat="43.97742" lon="3.59979">
        <ele>237</ele>
        <time>2012-03-03T21:51:31Z</time>
      </trkpt>
      <trkpt lat="43.97747" lon="3.59962">
        <ele>237</ele>
        <time>2012-03-03T21:51:36Z</time>
      </trkpt>
      <trkpt lat="43.97751" lon="3.59947">
        <ele>237</ele>
        <time>2012-03-03T21:51:41Z</time>
      </trkpt>
      <trkpt lat="43.97755" lon="3.59936">
        <ele>237</ele>
        <time>2012-03-03T21:51:46Z</time>
      </trkpt>
      <trkpt lat="43.97761" lon="3.59925">
        <ele>237</ele>
        <time>2012-03-03T21:51:51Z</time>
      </trkpt>
      <trkpt lat="43.97771" lon="3.59927">
        <ele>237</ele>
        <time>2012-03-03T21:51:56Z</time>
      </trkpt>
      <trkpt lat="43.97778" lon="3.59942">
        <ele>236</ele>
        <time>2012-03-03T21:52:01Z</time>
      </trkpt>
      <trkpt lat="43.97781" lon="3.59955">
        <ele>236</ele>
        <time>2012-03-03T21:52:06Z</time>
      </trkpt>
      <trkpt lat="43.97788" lon="3.59967">
        <ele>236</ele>
        <time>2012-03-03T21:52:11Z</time>
      </trkpt>
      <trkpt lat="43.97796" lon="3.59973">
        <ele>236</ele>
        <time>2012-03-03T21:52:16Z</time>
      </trkpt>
      <trkpt lat="43.97807" lon="3.59982">
        <ele>235</ele>
        <time>2012-03-03T21:52:21Z</time>
      </trkpt>
      <trkpt lat="43.9782" lon="3.59991">
        <ele>234</ele>
        <time>2012-03-03T21:52:26Z</time>
      </trkpt>
      <trkpt lat="43.9783" lon="3.59997">
        <ele>233</ele>
        <time>2012-03-03T21:52:31Z</time>
      </trkpt>
      <trkpt lat="43.97837" lon="3.60004">
        <ele>233</ele>
        <time>2012-03-03T21:52:36Z</time>
      </trkpt>
      <trkpt lat="43.97845" lon="3.60012">
        <ele>234</ele>
        <time>2012-03-03T21:52:41Z</time>
      </trkpt>
      <trkpt lat="43.97854" lon="3.6002">
        <ele>234</ele>
        <time>2012-03-03T21:52:46Z</time>
      </trkpt>
      <trkpt lat="43.97866" lon="3.60028">
        <ele>234</ele>
        <time>2012-03-03T21:52:51Z</time>
      </trkpt>
      <trkpt lat="43.97874" lon="3.60033">
        <ele>234</ele>
        <time>2012-03-03T21:52:56Z</time>
      </trkpt>
      <trkpt lat="43.97884" lon="3.60041">
        <ele>234</ele>
        <time>2012-03-03T21:53:01Z</time>
      </trkpt>
      <trkpt lat="43.97892" lon="3.60047">
        <ele>233</ele>
        <time>2012-03-03T21:53:06Z</time>
      </trkpt>
      <trkpt lat="43.97903" lon="3.60052">
        <ele>233</ele>
        <time>2012-03-03T21:53:11Z</time>
      </trkpt>
      <trkpt lat="43.97911" lon="3.60056">
        <ele>233</ele>
        <time>2012-03-03T21:53:16Z</time>
      </trkpt>
      <trkpt lat="43.97918" lon="3.60064">
        <ele>232</ele>
        <time>2012-03-03T21:53:21Z</time>
      </trkpt>
      <trkpt lat="43.97927" lon="3.60072">
        <ele>232</ele>
        <time>2012-03-03T21:53:26Z</time>
      </trkpt>
      <trkpt lat="43.97934" lon="3.60079">
        <ele>232</ele>
        <time>2012-03-03T21:53:31Z</time>
      </trkpt>
      <trkpt lat="43.97944" lon="3.60089">
        <ele>233</ele>
        <time>2012-03-03T21:53:36Z</time>
      </trkpt>
      <trkpt lat="43.97955" lon="3.60096">
        <ele>233</ele>
        <time>2012-03-03T21:53:41Z</time>
      </trkpt>
      <trkpt lat="43.97962" lon="3.60102">
        <ele>233</ele>
        <time>2012-03-03T21:53:46Z</time>
      </trkpt>
      <trkpt lat="43.97971" lon="3.6011">
        <ele>233</ele>
        <time>2012-03-03T21:53:51Z</time>
      </trkpt>
      <trkpt lat="43.97982" lon="3.60119">
        <ele>233</ele>
        <time>2012-03-03T21:53:56Z</time>
      </trkpt>
      <trkpt lat="43.9799" lon="3.60129">
        <ele>233</ele>
        <time>2012-03-03T21:54:01Z</time>
      </trkpt>
      <trkpt lat="43.97997" lon="3.60133">
        <ele>233</ele>
        <time>2012-03-03T21:54:06Z</time>
      </trkpt>
      <trkpt lat="43.98001" lon="3.60138">
        <ele>231</ele>
        <time>2012-03-03T21:54:11Z</time>
      </trkpt>
      <trkpt lat="43.98007" lon="3.60146">
        <ele>231</ele>
        <time>2012-03-03T21:54:16Z</time>
      </trkpt>
      <trkpt lat="43.98012" lon="3.60161">
        <ele>231</ele>
        <time>2012-03-03T21:54:21Z</time>
      </trkpt>
      <trkpt lat="43.98017" lon="3.60176">
        <ele>231</ele>
        <time>2012-03-03T21:54:26Z</time>
      </trkpt>
      <trkpt lat="43.98021" lon="3.60188">
        <ele>231</ele>
        <time>2012-03-03T21:54:31Z</time>
      </trkpt>
      <trkpt lat="43.98026" lon="3.60199">
        <ele>231</ele>
        <time>2012-03-03T21:54:36Z</time>
      </trkpt>
      <trkpt lat="43.98034" lon="3.60212">
        <ele>231</ele>
        <time>2012-03-03T21:54:41Z</time>
      </trkpt>
      <trkpt lat="43.98039" lon="3.60223">
        <ele>231</ele>
        <time>2012-03-03T21:54:46Z</time>
      </trkpt>
      <trkpt lat="43.98043" lon="3.60232">
        <ele>231</ele>
        <time>2012-03-03T21:54:51Z</time>
      </trkpt>
      <trkpt lat="43.98049" lon="3.60244">
        <ele>231</ele>
        <time>2012-03-03T21:54:56Z</time>
      </trkpt>
      <trkpt lat="43.98055" lon="3.60255">
        <ele>232</ele>
        <time>2012-03-03T21:55:01Z</time>
      </trkpt>
      <trkpt lat="43.98063" lon="3.6027">
        <ele>232</ele>
        <time>2012-03-03T21:55:06Z</time>
      </trkpt>
      <trkpt lat="43.98068" lon="3.60281">
        <ele>233</ele>
        <time>2012-03-03T21:55:11Z</time>
      </trkpt>
      <trkpt lat="43.98073" lon="3.6029">
        <ele>233</ele>
        <time>2012-03-03T21:55:16Z</time>
      </trkpt>
      <trkpt lat="43.98079" lon="3.603">
        <ele>233</ele>
        <time>2012-03-03T21:55:21Z</time>
      </trkpt>
      <trkpt lat="43.98087" lon="3.60312">
        <ele>231</ele>
        <time>2012-03-03T21:55:26Z</time>
      </trkpt>
      <trkpt lat="43.98094" lon="3.60324">
        <ele>231</ele>
        <time>2012-03-03T21:55:31Z</time>
      </trkpt>
      <trkpt lat="43.98102" lon="3.60337">
        <ele>233</ele>
        <time>2012-03-03T21:55:36Z</time>
      </trkpt>
      <trkpt lat="43.9811" lon="3.60344">
        <ele>234</ele>
        <time>2012-03-03T21:55:41Z</time>
      </trkpt>
      <trkpt lat="43.98119" lon="3.60348">
        <ele>234</ele>
        <time>2012-03-03T21:55:46Z</time>
      </trkpt>
      <trkpt lat="43.9813" lon="3.60352">
        <ele>234</ele>
        <time>2012-03-03T21:55:51Z</time>
      </trkpt>
      <trkpt lat="43.9814" lon="3.60357">
        <ele>233</ele>
        <time>2012-03-03T21:55:56Z</time>
      </trkpt>
      <trkpt lat="43.98145" lon="3.60361">
        <ele>233</ele>
        <time>2012-03-03T21:56:01Z</time>
      </trkpt>
      <trkpt lat="43.9815" lon="3.60367">
        <ele>233</ele>
        <time>2012-03-03T21:56:06Z</time>
      </trkpt>
      <trkpt lat="43.9815" lon="3.60375">
        <ele>233</ele>
        <time>2012-03-03T21:56:11Z</time>
      </trkpt>
      <trkpt lat="43.98152" lon="3.60384">
        <ele>233</ele>
        <time>2012-03-03T21:56:16Z</time>
      </trkpt>
      <trkpt lat="43.98158" lon="3.60389">
        <ele>233</ele>
        <time>2012-03-03T21:56:21Z</time>
      </trkpt>
      <trkpt lat="43.98165" lon="3.60399">
        <ele>232</ele>
        <time>2012-03-03T21:56:26Z</time>
      </trkpt>
      <trkpt lat="43.98173" lon="3.60408">
        <ele>230</ele>
        <time>2012-03-03T21:56:31Z</time>
      </trkpt>
      <trkpt lat="43.98183" lon="3.60415">
        <ele>229</ele>
        <time>2012-03-03T21:56:36Z</time>
      </trkpt>
      <trkpt lat="43.98192" lon="3.60422">
        <ele>231</ele>
        <time>2012-03-03T21:56:41Z</time>
      </trkpt>
      <trkpt lat="43.98199" lon="3.60426">
        <ele>231</ele>
        <time>2012-03-03T21:56:46Z</time>
      </trkpt>
      <trkpt lat="43.98208" lon="3.60435">
        <ele>231</ele>
        <time>2012-03-03T21:56:51Z</time>
      </trkpt>
      <trkpt lat="43.98215" lon="3.60446">
        <ele>231</ele>
        <time>2012-03-03T21:56:56Z</time>
      </trkpt>
      <trkpt lat="43.98224" lon="3.60458">
        <ele>231</ele>
        <time>2012-03-03T21:57:01Z</time>
      </trkpt>
      <trkpt lat="43.98231" lon="3.60464">
        <ele>230</ele>
        <time>2012-03-03T21:57:06Z</time>
      </trkpt>
      <trkpt lat="43.98237" lon="3.60468">
        <ele>230</ele>
        <time>2012-03-03T21:57:11Z</time>
      </trkpt>
      <trkpt lat="43.98246" lon="3.60472">
        <ele>229</ele>
        <time>2012-03-03T21:57:16Z</time>
      </trkpt>
      <trkpt lat="43.98255" lon="3.60482">
        <ele>226</ele>
        <time>2012-03-03T21:57:21Z</time>
      </trkpt>
      <trkpt lat="43.98262" lon="3.60491">
        <ele>226</ele>
        <time>2012-03-03T21:57:26Z</time>
      </trkpt>
      <trkpt lat="43.98269" lon="3.60499">
        <ele>226</ele>
        <time>2012-03-03T21:57:31Z</time>
      </trkpt>
      <trkpt lat="43.98279" lon="3.60505">
        <ele>226</ele>
        <time>2012-03-03T21:57:36Z</time>
      </trkpt>
      <trkpt lat="43.98288" lon="3.60514">
        <ele>226</ele>
        <time>2012-03-03T21:57:41Z</time>
      </trkpt>
      <trkpt lat="43.98295" lon="3.60521">
        <ele>226</ele>
        <time>2012-03-03T21:57:46Z</time>
      </trkpt>
      <trkpt lat="43.98302" lon="3.6053">
        <ele>226</ele>
        <time>2012-03-03T21:57:51Z</time>
      </trkpt>
      <trkpt lat="43.98308" lon="3.60536">
        <ele>226</ele>
        <time>2012-03-03T21:57:56Z</time>
      </trkpt>
      <trkpt lat="43.98315" lon="3.60546">
        <ele>226</ele>
        <time>2012-03-03T21:58:01Z</time>
      </trkpt>
      <trkpt lat="43.98324" lon="3.60554">
        <ele>226</ele>
        <time>2012-03-03T21:58:06Z</time>
      </trkpt>
      <trkpt lat="43.98336" lon="3.60564">
        <ele>225</ele>
        <time>2012-03-03T21:58:11Z</time>
      </trkpt>
      <trkpt lat="43.98343" lon="3.6057">
        <ele>225</ele>
        <time>2012-03-03T21:58:16Z</time>
      </trkpt>
      <trkpt lat="43.98352" lon="3.6058">
        <ele>225</ele>
        <time>2012-03-03T21:58:21Z</time>
      </trkpt>
      <trkpt lat="43.98362" lon="3.60589">
        <ele>225</ele>
        <time>2012-03-03T21:58:26Z</time>
      </trkpt>
      <trkpt lat="43.98373" lon="3.60602">
        <ele>226</ele>
        <time>2012-03-03T21:58:31Z</time>
      </trkpt>
      <trkpt lat="43.98382" lon="3.60609">
        <ele>226</ele>
        <time>2012-03-03T21:58:36Z</time>
      </trkpt>
      <trkpt lat="43.98391" lon="3.60615">
        <ele>226</ele>
        <time>2012-03-03T21:58:41Z</time>
      </trkpt>
      <trkpt lat="43.98401" lon="3.60621">
        <ele>226</ele>
        <time>2012-03-03T21:58:46Z</time>
      </trkpt>
      <trkpt lat="43.98409" lon="3.60628">
        <ele>226</ele>
        <time>2012-03-03T21:58:51Z</time>
      </trkpt>
      <trkpt lat="43.9842" lon="3.60633">
        <ele>225</ele>
        <time>2012-03-03T21:58:56Z</time>
      </trkpt>
      <trkpt lat="43.98428" lon="3.60636">
        <ele>225</ele>
        <time>2012-03-03T21:59:01Z</time>
      </trkpt>
      <trkpt lat="43.98439" lon="3.6064">
        <ele>225</ele>
        <time>2012-03-03T21:59:06Z</time>
      </trkpt>
      <trkpt lat="43.98449" lon="3.60642">
        <ele>225</ele>
        <time>2012-03-03T21:59:11Z</time>
      </trkpt>
      <trkpt lat="43.9846" lon="3.60648">
        <ele>225</ele>
        <time>2012-03-03T21:59:16Z</time>
      </trkpt>
      <trkpt lat="43.98471" lon="3.60651">
        <ele>225</ele>
        <time>2012-03-03T21:59:21Z</time>
      </trkpt>
      <trkpt lat="43.98478" lon="3.60651">
        <ele>225</ele>
        <time>2012-03-03T21:59:26Z</time>
      </trkpt>
      <trkpt lat="43.98488" lon="3.60655">
        <ele>225</ele>
        <time>2012-03-03T21:59:31Z</time>
      </trkpt>
      <trkpt lat="43.98499" lon="3.60656">
        <ele>225</ele>
        <time>2012-03-03T21:59:36Z</time>
      </trkpt>
      <trkpt lat="43.98511" lon="3.60657">
        <ele>225</ele>
        <time>2012-03-03T21:59:41Z</time>
      </trkpt>
      <trkpt lat="43.98522" lon="3.6066">
        <ele>225</ele>
        <time>2012-03-03T21:59:46Z</time>
      </trkpt>
      <trkpt lat="43.98531" lon="3.60663">
        <ele>225</ele>
        <time>2012-03-03T21:59:51Z</time>
      </trkpt>
      <trkpt lat="43.98541" lon="3.60666">
        <ele>225</ele>
        <time>2012-03-03T21:59:56Z</time>
      </trkpt>
      <trkpt lat="43.98554" lon="3.60671">
        <ele>225</ele>
        <time>2012-03-03T22:00:01Z</time>
      </trkpt>
      <trkpt lat="43.98564" lon="3.60675">
        <ele>225</ele>
        <time>2012-03-03T22:00:06Z</time>
      </trkpt>
      <trkpt lat="43.98573" lon="3.60677">
        <ele>225</ele>
        <time>2012-03-03T22:00:11Z</time>
      </trkpt>
      <trkpt lat="43.98584" lon="3.60678">
        <ele>224</ele>
        <time>2012-03-03T22:00:16Z</time>
      </trkpt>
      <trkpt lat="43.98596" lon="3.6068">
        <ele>224</ele>
        <time>2012-03-03T22:00:21Z</time>
      </trkpt>
      <trkpt lat="43.98605" lon="3.60682">
        <ele>224</ele>
        <time>2012-03-03T22:00:26Z</time>
      </trkpt>
      <trkpt lat="43.98615" lon="3.60681">
        <ele>224</ele>
        <time>2012-03-03T22:00:31Z</time>
      </trkpt>
      <trkpt lat="43.98622" lon="3.60682">
        <ele>224</ele>
        <time>2012-03-03T22:00:36Z</time>
      </trkpt>
      <trkpt lat="43.98632" lon="3.60682">
        <ele>224</ele>
        <time>2012-03-03T22:00:41Z</time>
      </trkpt>
      <trkpt lat="43.98641" lon="3.60681">
        <ele>224</ele>
        <time>2012-03-03T22:00:46Z</time>
      </trkpt>
      <trkpt lat="43.98652" lon="3.6068">
        <ele>224</ele>
        <time>2012-03-03T22:00:51Z</time>
      </trkpt>
      <trkpt lat="43.98661" lon="3.60679">
        <ele>224</ele>
        <time>2012-03-03T22:00:56Z</time>
      </trkpt>
      <trkpt lat="43.98671" lon="3.60675">
        <ele>224</ele>
        <time>2012-03-03T22:01:01Z</time>
      </trkpt>
      <trkpt lat="43.98684" lon="3.60673">
        <ele>224</ele>
        <time>2012-03-03T22:01:06Z</time>
      </trkpt>
      <trkpt lat="43.98697" lon="3.60665">
        <ele>225</ele>
        <time>2012-03-03T22:01:11Z</time>
      </trkpt>
      <trkpt lat="43.98708" lon="3.60656">
        <ele>225</ele>
        <time>2012-03-03T22:01:16Z</time>
      </trkpt>
      <trkpt lat="43.98716" lon="3.6065">
        <ele>225</ele>
        <time>2012-03-03T22:01:21Z</time>
      </trkpt>
      <trkpt lat="43.98721" lon="3.60644">
        <ele>226</ele>
        <time>2012-03-03T22:01:26Z</time>
      </trkpt>
      <trkpt lat="43.98731" lon="3.60642">
        <ele>226</ele>
        <time>2012-03-03T22:01:31Z</time>
      </trkpt>
      <trkpt lat="43.98744" lon="3.60639">
        <ele>226</ele>
        <time>2012-03-03T22:01:36Z</time>
      </trkpt>
      <trkpt lat="43.98757" lon="3.60637">
        <ele>226</ele>
        <time>2012-03-03T22:01:41Z</time>
      </trkpt>
      <trkpt lat="43.98766" lon="3.60636">
        <ele>226</ele>
        <time>2012-03-03T22:01:46Z</time>
      </trkpt>
      <trkpt lat="43.98776" lon="3.60637">
        <ele>226</ele>
        <time>2012-03-03T22:01:51Z</time>
      </trkpt>
      <trkpt lat="43.98781" lon="3.60637">
        <ele>227</ele>
        <time>2012-03-03T22:01:56Z</time>
      </trkpt>
      <trkpt lat="43.98792" lon="3.60639">
        <ele>227</ele>
        <time>2012-03-03T22:02:01Z</time>
      </trkpt>
      <trkpt lat="43.98801" lon="3.60641">
        <ele>227</ele>
        <time>2012-03-03T22:02:06Z</time>
      </trkpt>
      <trkpt lat="43.98813" lon="3.60645">
        <ele>227</ele>
        <time>2012-03-03T22:02:11Z</time>
      </trkpt>
      <trkpt lat="43.98824" lon="3.60648">
        <ele>226</ele>
        <time>2012-03-03T22:02:16Z</time>
      </trkpt>
      <trkpt lat="43.98835" lon="3.60637">
        <ele>227</ele>
        <time>2012-03-03T22:02:21Z</time>
      </trkpt>
      <trkpt lat="43.98844" lon="3.60632">
        <ele>227</ele>
        <time>2012-03-03T22:02:26Z</time>
      </trkpt>
      <trkpt lat="43.98853" lon="3.60623">
        <ele>227</ele>
        <time>2012-03-03T22:02:31Z</time>
      </trkpt>
      <trkpt lat="43.98858" lon="3.60612">
        <ele>227</ele>
        <time>2012-03-03T22:02:36Z</time>
      </trkpt>
      <trkpt lat="43.9886" lon="3.60595">
        <ele>227</ele>
        <time>2012-03-03T22:02:41Z</time>
      </trkpt>
      <trkpt lat="43.98858" lon="3.6058">
        <ele>228</ele>
        <time>2012-03-03T22:02:46Z</time>
      </trkpt>
      <trkpt lat="43.9886" lon="3.60571">
        <ele>228</ele>
        <time>2012-03-03T22:02:51Z</time>
      </trkpt>
      <trkpt lat="43.98864" lon="3.60559">
        <ele>229</ele>
        <time>2012-03-03T22:02:56Z</time>
      </trkpt>
      <trkpt lat="43.98866" lon="3.60543">
        <ele>229</ele>
        <time>2012-03-03T22:03:01Z</time>
      </trkpt>
      <trkpt lat="43.98866" lon="3.60529">
        <ele>229</ele>
        <time>2012-03-03T22:03:06Z</time>
      </trkpt>
      <trkpt lat="43.98867" lon="3.60518">
        <ele>229</ele>
        <time>2012-03-03T22:03:11Z</time>
      </trkpt>
      <trkpt lat="43.98868" lon="3.60504">
        <ele>229</ele>
        <time>2012-03-03T22:03:16Z</time>
      </trkpt>
      <trkpt lat="43.98871" lon="3.60491">
        <ele>231</ele>
        <time>2012-03-03T22:03:21Z</time>
      </trkpt>
      <trkpt lat="43.98873" lon="3.60476">
        <ele>232</ele>
        <time>2012-03-03T22:03:26Z</time>
      </trkpt>
      <trkpt lat="43.98874" lon="3.6046">
        <ele>232</ele>
        <time>2012-03-03T22:03:31Z</time>
      </trkpt>
      <trkpt lat="43.98875" lon="3.60448">
        <ele>233</ele>
        <time>2012-03-03T22:03:36Z</time>
      </trkpt>
      <trkpt lat="43.98879" lon="3.60437">
        <ele>233</ele>
        <time>2012-03-03T22:03:41Z</time>
      </trkpt>
      <trkpt lat="43.9888" lon="3.60423">
        <ele>233</ele>
        <time>2012-03-03T22:03:46Z</time>
      </trkpt>
      <trkpt lat="43.98884" lon="3.60407">
        <ele>236</ele>
        <time>2012-03-03T22:03:51Z</time>
      </trkpt>
      <trkpt lat="43.98885" lon="3.60399">
        <ele>236</ele>
        <time>2012-03-03T22:03:56Z</time>
      </trkpt>
      <trkpt lat="43.98894" lon="3.60391">
        <ele>236</ele>
        <time>2012-03-03T22:04:01Z</time>
      </trkpt>
      <trkpt lat="43.98903" lon="3.60382">
        <ele>236</ele>
        <time>2012-03-03T22:04:06Z</time>
      </trkpt>
      <trkpt lat="43.98911" lon="3.60368">
        <ele>236</ele>
        <time>2012-03-03T22:04:11Z</time>
      </trkpt>
      <trkpt lat="43.98917" lon="3.60359">
        <ele>238</ele>
        <time>2012-03-03T22:04:16Z</time>
      </trkpt>
      <trkpt lat="43.98923" lon="3.60352">
        <ele>238</ele>
        <time>2012-03-03T22:04:21Z</time>
      </trkpt>
      <trkpt lat="43.98929" lon="3.60342">
        <ele>238</ele>
        <time>2012-03-03T22:04:26Z</time>
      </trkpt>
      <trkpt lat="43.98935" lon="3.60328">
        <ele>239</ele>
        <time>2012-03-03T22:04:31Z</time>
      </trkpt>
      <trkpt lat="43.9894" lon="3.60317">
        <ele>239</ele>
        <time>2012-03-03T22:04:36Z</time>
      </trkpt>
      <trkpt lat="43.98946" lon="3.60304">
        <ele>240</ele>
        <time>2012-03-03T22:04:41Z</time>
      </trkpt>
      <trkpt lat="43.98952" lon="3.60298">
        <ele>240</ele>
        <time>2012-03-03T22:04:46Z</time>
      </trkpt>
      <trkpt lat="43.9896" lon="3.60291">
        <ele>240</ele>
        <time>2012-03-03T22:04:51Z</time>
      </trkpt>
      <trkpt lat="43.98957" lon="3.60275">
        <ele>240</ele>
        <time>2012-03-03T22:04:56Z</time>
      </trkpt>
      <trkpt lat="43.98953" lon="3.6026">
        <ele>240</ele>
        <time>2012-03-03T22:05:01Z</time>
      </trkpt>
      <trkpt lat="43.98954" lon="3.60247">
        <ele>243</ele>
        <time>2012-03-03T22:05:06Z</time>
      </trkpt>
      <trkpt lat="43.98954" lon="3.60238">
        <ele>243</ele>
        <time>2012-03-03T22:05:11Z</time>
      </trkpt>
      <trkpt lat="43.98957" lon="3.6023">
        <ele>244</ele>
        <time>2012-03-03T22:05:16Z</time>
      </trkpt>
      <trkpt lat="43.98959" lon="3.60219">
        <ele>244</ele>
        <time>2012-03-03T22:05:21Z</time>
      </trkpt>
    </trkseg>
  </trk>
</gpx>